<?xml version="1.0" encoding="UTF-8" standalone="no" ?>
<gpx xmlns="http://www.topografix.com/GPX/1/1" xmlns:xsi="http://www.w3.org/2001/XMLSchema-instance" xsi:schemaLocation="http://www.topografix.com/GPX/1/1 http://www.topografix.com/GPX/1/1/gpx.xsd" version="1.1" creator="VisuGPX - https://www.visugpx.com">
  <metadata>
    <name>Tour vers rocher de l homme</name>
  </metadata>
  <trk>
    <name><![CDATA[Tour vers rocher de l homme_1]]></name>
    <trkseg>
      <trkpt lat="45.23216" lon="5.98889">
        <ele>1245.6</ele>
        <time>2022-01-16T06:36:26Z</time>
      </trkpt>
      <trkpt lat="45.23216" lon="5.98889">
        <ele>1245.6</ele>
        <time>2022-01-16T06:36:27Z</time>
      </trkpt>
      <trkpt lat="45.23216" lon="5.98889">
        <ele>1245.6</ele>
        <time>2022-01-16T06:36:29Z</time>
      </trkpt>
      <trkpt lat="45.23214" lon="5.98891">
        <ele>1246</ele>
        <time>2022-01-16T06:36:32Z</time>
      </trkpt>
      <trkpt lat="45.2321" lon="5.98894">
        <ele>1246</ele>
        <time>2022-01-16T06:36:34Z</time>
      </trkpt>
      <trkpt lat="45.23208" lon="5.98896">
        <ele>1246.2</ele>
        <time>2022-01-16T06:36:35Z</time>
      </trkpt>
      <trkpt lat="45.23204" lon="5.98898">
        <ele>1246.8</ele>
        <time>2022-01-16T06:36:37Z</time>
      </trkpt>
      <trkpt lat="45.23201" lon="5.98899">
        <ele>1247.2</ele>
        <time>2022-01-16T06:36:39Z</time>
      </trkpt>
      <trkpt lat="45.232" lon="5.98901">
        <ele>1247.2</ele>
        <time>2022-01-16T06:36:40Z</time>
      </trkpt>
      <trkpt lat="45.23199" lon="5.98904">
        <ele>1247.6</ele>
        <time>2022-01-16T06:36:42Z</time>
      </trkpt>
      <trkpt lat="45.23198" lon="5.98908">
        <ele>1247.8</ele>
        <time>2022-01-16T06:36:44Z</time>
      </trkpt>
      <trkpt lat="45.23196" lon="5.98914">
        <ele>1248.2</ele>
        <time>2022-01-16T06:36:47Z</time>
      </trkpt>
      <trkpt lat="45.23195" lon="5.98919">
        <ele>1249</ele>
        <time>2022-01-16T06:36:50Z</time>
      </trkpt>
      <trkpt lat="45.23192" lon="5.98927">
        <ele>1249.6</ele>
        <time>2022-01-16T06:36:55Z</time>
      </trkpt>
      <trkpt lat="45.23191" lon="5.98928">
        <ele>1249.6</ele>
        <time>2022-01-16T06:36:56Z</time>
      </trkpt>
      <trkpt lat="45.23188" lon="5.98934">
        <ele>1250</ele>
        <time>2022-01-16T06:36:59Z</time>
      </trkpt>
      <trkpt lat="45.23184" lon="5.98942">
        <ele>1251.2</ele>
        <time>2022-01-16T06:37:04Z</time>
      </trkpt>
      <trkpt lat="45.23183" lon="5.98944">
        <ele>1251.2</ele>
        <time>2022-01-16T06:37:05Z</time>
      </trkpt>
      <trkpt lat="45.23182" lon="5.98946">
        <ele>1251.4</ele>
        <time>2022-01-16T06:37:06Z</time>
      </trkpt>
      <trkpt lat="45.23181" lon="5.98948">
        <ele>1252.2</ele>
        <time>2022-01-16T06:37:07Z</time>
      </trkpt>
      <trkpt lat="45.23177" lon="5.98956">
        <ele>1252.6</ele>
        <time>2022-01-16T06:37:12Z</time>
      </trkpt>
      <trkpt lat="45.23176" lon="5.98961">
        <ele>1252.8</ele>
        <time>2022-01-16T06:37:14Z</time>
      </trkpt>
      <trkpt lat="45.23175" lon="5.98964">
        <ele>1253.4</ele>
        <time>2022-01-16T06:37:16Z</time>
      </trkpt>
      <trkpt lat="45.23171" lon="5.98971">
        <ele>1254</ele>
        <time>2022-01-16T06:37:20Z</time>
      </trkpt>
      <trkpt lat="45.23171" lon="5.98973">
        <ele>1254</ele>
        <time>2022-01-16T06:37:21Z</time>
      </trkpt>
      <trkpt lat="45.23169" lon="5.98977">
        <ele>1254.2</ele>
        <time>2022-01-16T06:37:23Z</time>
      </trkpt>
      <trkpt lat="45.23168" lon="5.98978">
        <ele>1254.4</ele>
        <time>2022-01-16T06:37:24Z</time>
      </trkpt>
      <trkpt lat="45.23167" lon="5.9898">
        <ele>1254.6</ele>
        <time>2022-01-16T06:37:25Z</time>
      </trkpt>
      <trkpt lat="45.23165" lon="5.98985">
        <ele>1255.4</ele>
        <time>2022-01-16T06:37:28Z</time>
      </trkpt>
      <trkpt lat="45.23163" lon="5.98987">
        <ele>1255.8</ele>
        <time>2022-01-16T06:37:30Z</time>
      </trkpt>
      <trkpt lat="45.23157" lon="5.98998">
        <ele>1257.2</ele>
        <time>2022-01-16T06:37:36Z</time>
      </trkpt>
      <trkpt lat="45.23154" lon="5.99005">
        <ele>1257.8</ele>
        <time>2022-01-16T06:37:40Z</time>
      </trkpt>
      <trkpt lat="45.23151" lon="5.99013">
        <ele>1258.2</ele>
        <time>2022-01-16T06:37:44Z</time>
      </trkpt>
      <trkpt lat="45.23149" lon="5.99023">
        <ele>1259.2</ele>
        <time>2022-01-16T06:37:49Z</time>
      </trkpt>
      <trkpt lat="45.23145" lon="5.99034">
        <ele>1259.8</ele>
        <time>2022-01-16T06:37:55Z</time>
      </trkpt>
      <trkpt lat="45.23144" lon="5.99036">
        <ele>1260.6</ele>
        <time>2022-01-16T06:37:57Z</time>
      </trkpt>
      <trkpt lat="45.23143" lon="5.99039">
        <ele>1260.8</ele>
        <time>2022-01-16T06:37:59Z</time>
      </trkpt>
      <trkpt lat="45.23138" lon="5.99051">
        <ele>1261.2</ele>
        <time>2022-01-16T06:38:05Z</time>
      </trkpt>
      <trkpt lat="45.23138" lon="5.99053">
        <ele>1261.8</ele>
        <time>2022-01-16T06:38:06Z</time>
      </trkpt>
      <trkpt lat="45.23138" lon="5.99054">
        <ele>1262</ele>
        <time>2022-01-16T06:38:07Z</time>
      </trkpt>
      <trkpt lat="45.23135" lon="5.99066">
        <ele>1263</ele>
        <time>2022-01-16T06:38:13Z</time>
      </trkpt>
      <trkpt lat="45.23132" lon="5.99073">
        <ele>1263.4</ele>
        <time>2022-01-16T06:38:17Z</time>
      </trkpt>
      <trkpt lat="45.23129" lon="5.99081">
        <ele>1264</ele>
        <time>2022-01-16T06:38:22Z</time>
      </trkpt>
      <trkpt lat="45.23126" lon="5.99084">
        <ele>1264.6</ele>
        <time>2022-01-16T06:38:25Z</time>
      </trkpt>
      <trkpt lat="45.23121" lon="5.9909">
        <ele>1265.4</ele>
        <time>2022-01-16T06:38:29Z</time>
      </trkpt>
      <trkpt lat="45.23113" lon="5.99097">
        <ele>1266</ele>
        <time>2022-01-16T06:38:34Z</time>
      </trkpt>
      <trkpt lat="45.23108" lon="5.99101">
        <ele>1266.4</ele>
        <time>2022-01-16T06:38:37Z</time>
      </trkpt>
      <trkpt lat="45.23106" lon="5.99101">
        <ele>1266.6</ele>
        <time>2022-01-16T06:38:38Z</time>
      </trkpt>
      <trkpt lat="45.23102" lon="5.99104">
        <ele>1267.2</ele>
        <time>2022-01-16T06:38:40Z</time>
      </trkpt>
      <trkpt lat="45.23098" lon="5.99105">
        <ele>1267.8</ele>
        <time>2022-01-16T06:38:43Z</time>
      </trkpt>
      <trkpt lat="45.23089" lon="5.99108">
        <ele>1268.6</ele>
        <time>2022-01-16T06:38:48Z</time>
      </trkpt>
      <trkpt lat="45.23086" lon="5.99109">
        <ele>1269</ele>
        <time>2022-01-16T06:38:50Z</time>
      </trkpt>
      <trkpt lat="45.23077" lon="5.99113">
        <ele>1270</ele>
        <time>2022-01-16T06:38:56Z</time>
      </trkpt>
      <trkpt lat="45.23075" lon="5.99113">
        <ele>1270.2</ele>
        <time>2022-01-16T06:38:57Z</time>
      </trkpt>
      <trkpt lat="45.23069" lon="5.99114">
        <ele>1270.6</ele>
        <time>2022-01-16T06:39:01Z</time>
      </trkpt>
      <trkpt lat="45.23064" lon="5.99115">
        <ele>1271</ele>
        <time>2022-01-16T06:39:04Z</time>
      </trkpt>
      <trkpt lat="45.23062" lon="5.99116">
        <ele>1271.8</ele>
        <time>2022-01-16T06:39:05Z</time>
      </trkpt>
      <trkpt lat="45.23056" lon="5.99119">
        <ele>1272.2</ele>
        <time>2022-01-16T06:39:09Z</time>
      </trkpt>
      <trkpt lat="45.23052" lon="5.99121">
        <ele>1272.6</ele>
        <time>2022-01-16T06:39:11Z</time>
      </trkpt>
      <trkpt lat="45.23046" lon="5.99125">
        <ele>1272.8</ele>
        <time>2022-01-16T06:39:14Z</time>
      </trkpt>
      <trkpt lat="45.23045" lon="5.99126">
        <ele>1273.2</ele>
        <time>2022-01-16T06:39:15Z</time>
      </trkpt>
      <trkpt lat="45.23042" lon="5.99128">
        <ele>1273.8</ele>
        <time>2022-01-16T06:39:17Z</time>
      </trkpt>
      <trkpt lat="45.23041" lon="5.99128">
        <ele>1273.8</ele>
        <time>2022-01-16T06:39:18Z</time>
      </trkpt>
      <trkpt lat="45.23039" lon="5.99131">
        <ele>1273.8</ele>
        <time>2022-01-16T06:39:20Z</time>
      </trkpt>
      <trkpt lat="45.23035" lon="5.99132">
        <ele>1274.6</ele>
        <time>2022-01-16T06:39:23Z</time>
      </trkpt>
      <trkpt lat="45.23032" lon="5.99133">
        <ele>1275.2</ele>
        <time>2022-01-16T06:39:25Z</time>
      </trkpt>
      <trkpt lat="45.23025" lon="5.99139">
        <ele>1276</ele>
        <time>2022-01-16T06:39:31Z</time>
      </trkpt>
      <trkpt lat="45.23024" lon="5.99139">
        <ele>1276.4</ele>
        <time>2022-01-16T06:39:32Z</time>
      </trkpt>
      <trkpt lat="45.2302" lon="5.99143">
        <ele>1276.8</ele>
        <time>2022-01-16T06:39:36Z</time>
      </trkpt>
      <trkpt lat="45.23017" lon="5.99143">
        <ele>1277.2</ele>
        <time>2022-01-16T06:39:38Z</time>
      </trkpt>
      <trkpt lat="45.23013" lon="5.99144">
        <ele>1277.8</ele>
        <time>2022-01-16T06:39:41Z</time>
      </trkpt>
      <trkpt lat="45.23006" lon="5.99149">
        <ele>1278.4</ele>
        <time>2022-01-16T06:39:46Z</time>
      </trkpt>
      <trkpt lat="45.23003" lon="5.99151">
        <ele>1279</ele>
        <time>2022-01-16T06:39:48Z</time>
      </trkpt>
      <trkpt lat="45.22998" lon="5.99154">
        <ele>1279.8</ele>
        <time>2022-01-16T06:39:52Z</time>
      </trkpt>
      <trkpt lat="45.22996" lon="5.99156">
        <ele>1280</ele>
        <time>2022-01-16T06:39:54Z</time>
      </trkpt>
      <trkpt lat="45.22991" lon="5.99159">
        <ele>1280.6</ele>
        <time>2022-01-16T06:39:58Z</time>
      </trkpt>
      <trkpt lat="45.22988" lon="5.9916">
        <ele>1281</ele>
        <time>2022-01-16T06:40:00Z</time>
      </trkpt>
      <trkpt lat="45.2298" lon="5.99165">
        <ele>1281.8</ele>
        <time>2022-01-16T06:40:05Z</time>
      </trkpt>
      <trkpt lat="45.22977" lon="5.99165">
        <ele>1282</ele>
        <time>2022-01-16T06:40:07Z</time>
      </trkpt>
      <trkpt lat="45.22976" lon="5.99166">
        <ele>1282.2</ele>
        <time>2022-01-16T06:40:08Z</time>
      </trkpt>
      <trkpt lat="45.22973" lon="5.99168">
        <ele>1282.4</ele>
        <time>2022-01-16T06:40:10Z</time>
      </trkpt>
      <trkpt lat="45.22967" lon="5.9917">
        <ele>1283.2</ele>
        <time>2022-01-16T06:40:13Z</time>
      </trkpt>
      <trkpt lat="45.22958" lon="5.99173">
        <ele>1283.4</ele>
        <time>2022-01-16T06:40:19Z</time>
      </trkpt>
      <trkpt lat="45.22954" lon="5.99175">
        <ele>1284.4</ele>
        <time>2022-01-16T06:40:21Z</time>
      </trkpt>
      <trkpt lat="45.22953" lon="5.99175">
        <ele>1284.6</ele>
        <time>2022-01-16T06:40:22Z</time>
      </trkpt>
      <trkpt lat="45.22952" lon="5.99175">
        <ele>1284.6</ele>
        <time>2022-01-16T06:40:23Z</time>
      </trkpt>
      <trkpt lat="45.2295" lon="5.99174">
        <ele>1285.2</ele>
        <time>2022-01-16T06:40:25Z</time>
      </trkpt>
      <trkpt lat="45.22948" lon="5.99173">
        <ele>1285.2</ele>
        <time>2022-01-16T06:40:26Z</time>
      </trkpt>
      <trkpt lat="45.22944" lon="5.99174">
        <ele>1285.6</ele>
        <time>2022-01-16T06:40:28Z</time>
      </trkpt>
      <trkpt lat="45.22939" lon="5.99178">
        <ele>1286.4</ele>
        <time>2022-01-16T06:40:31Z</time>
      </trkpt>
      <trkpt lat="45.22932" lon="5.99178">
        <ele>1286.8</ele>
        <time>2022-01-16T06:40:35Z</time>
      </trkpt>
      <trkpt lat="45.22923" lon="5.99179">
        <ele>1287.6</ele>
        <time>2022-01-16T06:40:41Z</time>
      </trkpt>
      <trkpt lat="45.2292" lon="5.99178">
        <ele>1287.8</ele>
        <time>2022-01-16T06:40:43Z</time>
      </trkpt>
      <trkpt lat="45.22915" lon="5.99178">
        <ele>1288.8</ele>
        <time>2022-01-16T06:40:47Z</time>
      </trkpt>
      <trkpt lat="45.22908" lon="5.99185">
        <ele>1289.4</ele>
        <time>2022-01-16T06:40:53Z</time>
      </trkpt>
      <trkpt lat="45.22906" lon="5.99187">
        <ele>1290.4</ele>
        <time>2022-01-16T06:40:54Z</time>
      </trkpt>
      <trkpt lat="45.22906" lon="5.99188">
        <ele>1290.4</ele>
        <time>2022-01-16T06:40:55Z</time>
      </trkpt>
      <trkpt lat="45.22899" lon="5.99195">
        <ele>1291.4</ele>
        <time>2022-01-16T06:41:01Z</time>
      </trkpt>
      <trkpt lat="45.22897" lon="5.99197">
        <ele>1291.4</ele>
        <time>2022-01-16T06:41:02Z</time>
      </trkpt>
      <trkpt lat="45.22892" lon="5.99205">
        <ele>1292.4</ele>
        <time>2022-01-16T06:41:07Z</time>
      </trkpt>
      <trkpt lat="45.22889" lon="5.99212">
        <ele>1293</ele>
        <time>2022-01-16T06:41:11Z</time>
      </trkpt>
      <trkpt lat="45.22882" lon="5.9922">
        <ele>1293.8</ele>
        <time>2022-01-16T06:41:16Z</time>
      </trkpt>
      <trkpt lat="45.22877" lon="5.99228">
        <ele>1294.6</ele>
        <time>2022-01-16T06:41:21Z</time>
      </trkpt>
      <trkpt lat="45.22876" lon="5.99229">
        <ele>1294.8</ele>
        <time>2022-01-16T06:41:22Z</time>
      </trkpt>
      <trkpt lat="45.2287" lon="5.99237">
        <ele>1296</ele>
        <time>2022-01-16T06:41:27Z</time>
      </trkpt>
      <trkpt lat="45.22868" lon="5.99241">
        <ele>1296</ele>
        <time>2022-01-16T06:41:29Z</time>
      </trkpt>
      <trkpt lat="45.22861" lon="5.99249">
        <ele>1297.2</ele>
        <time>2022-01-16T06:41:35Z</time>
      </trkpt>
      <trkpt lat="45.22861" lon="5.99251">
        <ele>1297.4</ele>
        <time>2022-01-16T06:41:36Z</time>
      </trkpt>
      <trkpt lat="45.22859" lon="5.99252">
        <ele>1297.6</ele>
        <time>2022-01-16T06:41:37Z</time>
      </trkpt>
      <trkpt lat="45.22853" lon="5.9926">
        <ele>1298</ele>
        <time>2022-01-16T06:41:43Z</time>
      </trkpt>
      <trkpt lat="45.22852" lon="5.99262">
        <ele>1298.2</ele>
        <time>2022-01-16T06:41:44Z</time>
      </trkpt>
      <trkpt lat="45.22848" lon="5.99267">
        <ele>1299.4</ele>
        <time>2022-01-16T06:41:48Z</time>
      </trkpt>
      <trkpt lat="45.22839" lon="5.99273">
        <ele>1300</ele>
        <time>2022-01-16T06:41:53Z</time>
      </trkpt>
      <trkpt lat="45.2283" lon="5.99277">
        <ele>1300.4</ele>
        <time>2022-01-16T06:41:59Z</time>
      </trkpt>
      <trkpt lat="45.22829" lon="5.99279">
        <ele>1300.4</ele>
        <time>2022-01-16T06:42:00Z</time>
      </trkpt>
      <trkpt lat="45.22826" lon="5.99283">
        <ele>1301.6</ele>
        <time>2022-01-16T06:42:02Z</time>
      </trkpt>
      <trkpt lat="45.22823" lon="5.99286">
        <ele>1301.6</ele>
        <time>2022-01-16T06:42:05Z</time>
      </trkpt>
      <trkpt lat="45.22821" lon="5.99289">
        <ele>1302</ele>
        <time>2022-01-16T06:42:07Z</time>
      </trkpt>
      <trkpt lat="45.2282" lon="5.99295">
        <ele>1302.2</ele>
        <time>2022-01-16T06:42:09Z</time>
      </trkpt>
      <trkpt lat="45.2282" lon="5.99297">
        <ele>1302.2</ele>
        <time>2022-01-16T06:42:10Z</time>
      </trkpt>
      <trkpt lat="45.22817" lon="5.99299">
        <ele>1302.8</ele>
        <time>2022-01-16T06:42:12Z</time>
      </trkpt>
      <trkpt lat="45.22816" lon="5.99299">
        <ele>1303.4</ele>
        <time>2022-01-16T06:42:13Z</time>
      </trkpt>
      <trkpt lat="45.22809" lon="5.99302">
        <ele>1303.6</ele>
        <time>2022-01-16T06:42:17Z</time>
      </trkpt>
      <trkpt lat="45.22807" lon="5.99304">
        <ele>1303.8</ele>
        <time>2022-01-16T06:42:19Z</time>
      </trkpt>
      <trkpt lat="45.22806" lon="5.99305">
        <ele>1304</ele>
        <time>2022-01-16T06:42:20Z</time>
      </trkpt>
      <trkpt lat="45.22803" lon="5.99306">
        <ele>1304.2</ele>
        <time>2022-01-16T06:42:22Z</time>
      </trkpt>
      <trkpt lat="45.22798" lon="5.99307">
        <ele>1305.2</ele>
        <time>2022-01-16T06:42:25Z</time>
      </trkpt>
      <trkpt lat="45.22794" lon="5.99309">
        <ele>1305.4</ele>
        <time>2022-01-16T06:42:28Z</time>
      </trkpt>
      <trkpt lat="45.22786" lon="5.99315">
        <ele>1306.6</ele>
        <time>2022-01-16T06:42:33Z</time>
      </trkpt>
      <trkpt lat="45.22781" lon="5.99318">
        <ele>1306.8</ele>
        <time>2022-01-16T06:42:36Z</time>
      </trkpt>
      <trkpt lat="45.22778" lon="5.9932">
        <ele>1307</ele>
        <time>2022-01-16T06:42:38Z</time>
      </trkpt>
      <trkpt lat="45.22775" lon="5.99324">
        <ele>1307.2</ele>
        <time>2022-01-16T06:42:41Z</time>
      </trkpt>
      <trkpt lat="45.22771" lon="5.9933">
        <ele>1308.2</ele>
        <time>2022-01-16T06:42:44Z</time>
      </trkpt>
      <trkpt lat="45.22766" lon="5.99333">
        <ele>1308.6</ele>
        <time>2022-01-16T06:42:48Z</time>
      </trkpt>
      <trkpt lat="45.22765" lon="5.99336">
        <ele>1308.8</ele>
        <time>2022-01-16T06:42:49Z</time>
      </trkpt>
      <trkpt lat="45.2276" lon="5.99342">
        <ele>1309.4</ele>
        <time>2022-01-16T06:42:53Z</time>
      </trkpt>
      <trkpt lat="45.22757" lon="5.99349">
        <ele>1310.2</ele>
        <time>2022-01-16T06:42:57Z</time>
      </trkpt>
      <trkpt lat="45.22755" lon="5.99352">
        <ele>1310.2</ele>
        <time>2022-01-16T06:42:59Z</time>
      </trkpt>
      <trkpt lat="45.22752" lon="5.99356">
        <ele>1310.4</ele>
        <time>2022-01-16T06:43:01Z</time>
      </trkpt>
      <trkpt lat="45.22749" lon="5.99363">
        <ele>1311.2</ele>
        <time>2022-01-16T06:43:04Z</time>
      </trkpt>
      <trkpt lat="45.22747" lon="5.99365">
        <ele>1311.8</ele>
        <time>2022-01-16T06:43:06Z</time>
      </trkpt>
      <trkpt lat="45.22739" lon="5.99373">
        <ele>1312.4</ele>
        <time>2022-01-16T06:43:12Z</time>
      </trkpt>
      <trkpt lat="45.22737" lon="5.99376">
        <ele>1312.4</ele>
        <time>2022-01-16T06:43:14Z</time>
      </trkpt>
      <trkpt lat="45.22734" lon="5.99378">
        <ele>1313</ele>
        <time>2022-01-16T06:43:16Z</time>
      </trkpt>
      <trkpt lat="45.22732" lon="5.99381">
        <ele>1313.2</ele>
        <time>2022-01-16T06:43:18Z</time>
      </trkpt>
      <trkpt lat="45.22726" lon="5.99384">
        <ele>1314</ele>
        <time>2022-01-16T06:43:22Z</time>
      </trkpt>
      <trkpt lat="45.22718" lon="5.9939">
        <ele>1314.8</ele>
        <time>2022-01-16T06:43:27Z</time>
      </trkpt>
      <trkpt lat="45.22713" lon="5.99398">
        <ele>1315.2</ele>
        <time>2022-01-16T06:43:30Z</time>
      </trkpt>
      <trkpt lat="45.22709" lon="5.99401">
        <ele>1315.8</ele>
        <time>2022-01-16T06:43:33Z</time>
      </trkpt>
      <trkpt lat="45.22703" lon="5.99405">
        <ele>1316.2</ele>
        <time>2022-01-16T06:43:38Z</time>
      </trkpt>
      <trkpt lat="45.22698" lon="5.99409">
        <ele>1316.6</ele>
        <time>2022-01-16T06:43:41Z</time>
      </trkpt>
      <trkpt lat="45.22694" lon="5.99413">
        <ele>1317.4</ele>
        <time>2022-01-16T06:43:44Z</time>
      </trkpt>
      <trkpt lat="45.22686" lon="5.99418">
        <ele>1318</ele>
        <time>2022-01-16T06:43:49Z</time>
      </trkpt>
      <trkpt lat="45.22681" lon="5.99422">
        <ele>1318.6</ele>
        <time>2022-01-16T06:43:53Z</time>
      </trkpt>
      <trkpt lat="45.22672" lon="5.99427">
        <ele>1319.2</ele>
        <time>2022-01-16T06:43:59Z</time>
      </trkpt>
      <trkpt lat="45.2267" lon="5.99428">
        <ele>1319.6</ele>
        <time>2022-01-16T06:44:00Z</time>
      </trkpt>
      <trkpt lat="45.22661" lon="5.99433">
        <ele>1320.4</ele>
        <time>2022-01-16T06:44:06Z</time>
      </trkpt>
      <trkpt lat="45.22657" lon="5.99436">
        <ele>1321</ele>
        <time>2022-01-16T06:44:09Z</time>
      </trkpt>
      <trkpt lat="45.22649" lon="5.99444">
        <ele>1321.8</ele>
        <time>2022-01-16T06:44:14Z</time>
      </trkpt>
      <trkpt lat="45.22645" lon="5.99447">
        <ele>1322.2</ele>
        <time>2022-01-16T06:44:16Z</time>
      </trkpt>
      <trkpt lat="45.22636" lon="5.99454">
        <ele>1323.4</ele>
        <time>2022-01-16T06:44:22Z</time>
      </trkpt>
      <trkpt lat="45.22633" lon="5.99455">
        <ele>1323.8</ele>
        <time>2022-01-16T06:44:24Z</time>
      </trkpt>
      <trkpt lat="45.2263" lon="5.99457">
        <ele>1324.4</ele>
        <time>2022-01-16T06:44:26Z</time>
      </trkpt>
      <trkpt lat="45.22623" lon="5.9946">
        <ele>1325</ele>
        <time>2022-01-16T06:44:32Z</time>
      </trkpt>
      <trkpt lat="45.22622" lon="5.9946">
        <ele>1325.4</ele>
        <time>2022-01-16T06:44:33Z</time>
      </trkpt>
      <trkpt lat="45.22617" lon="5.99467">
        <ele>1326.2</ele>
        <time>2022-01-16T06:44:39Z</time>
      </trkpt>
      <trkpt lat="45.22616" lon="5.99469">
        <ele>1326.4</ele>
        <time>2022-01-16T06:44:40Z</time>
      </trkpt>
      <trkpt lat="45.22615" lon="5.9947">
        <ele>1326.6</ele>
        <time>2022-01-16T06:44:41Z</time>
      </trkpt>
      <trkpt lat="45.22607" lon="5.99477">
        <ele>1327.4</ele>
        <time>2022-01-16T06:44:47Z</time>
      </trkpt>
      <trkpt lat="45.22607" lon="5.9948">
        <ele>1327.8</ele>
        <time>2022-01-16T06:44:48Z</time>
      </trkpt>
      <trkpt lat="45.22605" lon="5.99484">
        <ele>1328.2</ele>
        <time>2022-01-16T06:44:50Z</time>
      </trkpt>
      <trkpt lat="45.22602" lon="5.99489">
        <ele>1328.6</ele>
        <time>2022-01-16T06:44:53Z</time>
      </trkpt>
      <trkpt lat="45.22599" lon="5.99491">
        <ele>1329</ele>
        <time>2022-01-16T06:44:55Z</time>
      </trkpt>
      <trkpt lat="45.22598" lon="5.99493">
        <ele>1329.2</ele>
        <time>2022-01-16T06:44:56Z</time>
      </trkpt>
      <trkpt lat="45.22595" lon="5.99502">
        <ele>1330</ele>
        <time>2022-01-16T06:45:00Z</time>
      </trkpt>
      <trkpt lat="45.22593" lon="5.99507">
        <ele>1330.2</ele>
        <time>2022-01-16T06:45:03Z</time>
      </trkpt>
      <trkpt lat="45.22584" lon="5.99515">
        <ele>1331.2</ele>
        <time>2022-01-16T06:45:09Z</time>
      </trkpt>
      <trkpt lat="45.22583" lon="5.99516">
        <ele>1331.4</ele>
        <time>2022-01-16T06:45:10Z</time>
      </trkpt>
      <trkpt lat="45.22579" lon="5.99518">
        <ele>1331.8</ele>
        <time>2022-01-16T06:45:13Z</time>
      </trkpt>
      <trkpt lat="45.22577" lon="5.99521">
        <ele>1332.2</ele>
        <time>2022-01-16T06:45:15Z</time>
      </trkpt>
      <trkpt lat="45.22573" lon="5.99525">
        <ele>1332.6</ele>
        <time>2022-01-16T06:45:18Z</time>
      </trkpt>
      <trkpt lat="45.22571" lon="5.99528">
        <ele>1333.2</ele>
        <time>2022-01-16T06:45:20Z</time>
      </trkpt>
      <trkpt lat="45.22563" lon="5.99537">
        <ele>1334.2</ele>
        <time>2022-01-16T06:45:26Z</time>
      </trkpt>
      <trkpt lat="45.22555" lon="5.99544">
        <ele>1335.4</ele>
        <time>2022-01-16T06:45:32Z</time>
      </trkpt>
      <trkpt lat="45.22553" lon="5.99545">
        <ele>1335.4</ele>
        <time>2022-01-16T06:45:33Z</time>
      </trkpt>
      <trkpt lat="45.22545" lon="5.99554">
        <ele>1336.6</ele>
        <time>2022-01-16T06:45:39Z</time>
      </trkpt>
      <trkpt lat="45.22542" lon="5.99556">
        <ele>1337</ele>
        <time>2022-01-16T06:45:41Z</time>
      </trkpt>
      <trkpt lat="45.2254" lon="5.9956">
        <ele>1337.2</ele>
        <time>2022-01-16T06:45:44Z</time>
      </trkpt>
      <trkpt lat="45.22537" lon="5.99564">
        <ele>1337.4</ele>
        <time>2022-01-16T06:45:47Z</time>
      </trkpt>
      <trkpt lat="45.22535" lon="5.99566">
        <ele>1337.8</ele>
        <time>2022-01-16T06:45:48Z</time>
      </trkpt>
      <trkpt lat="45.22532" lon="5.99568">
        <ele>1338</ele>
        <time>2022-01-16T06:45:50Z</time>
      </trkpt>
      <trkpt lat="45.22531" lon="5.9957">
        <ele>1338.2</ele>
        <time>2022-01-16T06:45:51Z</time>
      </trkpt>
      <trkpt lat="45.22528" lon="5.99575">
        <ele>1338.8</ele>
        <time>2022-01-16T06:45:55Z</time>
      </trkpt>
      <trkpt lat="45.22522" lon="5.99584">
        <ele>1339.8</ele>
        <time>2022-01-16T06:46:01Z</time>
      </trkpt>
      <trkpt lat="45.22522" lon="5.99586">
        <ele>1339.8</ele>
        <time>2022-01-16T06:46:02Z</time>
      </trkpt>
      <trkpt lat="45.22521" lon="5.99588">
        <ele>1339.8</ele>
        <time>2022-01-16T06:46:03Z</time>
      </trkpt>
      <trkpt lat="45.22517" lon="5.99594">
        <ele>1340.6</ele>
        <time>2022-01-16T06:46:08Z</time>
      </trkpt>
      <trkpt lat="45.22517" lon="5.99596">
        <ele>1340.8</ele>
        <time>2022-01-16T06:46:09Z</time>
      </trkpt>
      <trkpt lat="45.22516" lon="5.99599">
        <ele>1341</ele>
        <time>2022-01-16T06:46:10Z</time>
      </trkpt>
      <trkpt lat="45.22515" lon="5.99602">
        <ele>1341.2</ele>
        <time>2022-01-16T06:46:12Z</time>
      </trkpt>
      <trkpt lat="45.22512" lon="5.99605">
        <ele>1341.6</ele>
        <time>2022-01-16T06:46:15Z</time>
      </trkpt>
      <trkpt lat="45.22511" lon="5.99616">
        <ele>1342</ele>
        <time>2022-01-16T06:46:19Z</time>
      </trkpt>
      <trkpt lat="45.2251" lon="5.99624">
        <ele>1343</ele>
        <time>2022-01-16T06:46:22Z</time>
      </trkpt>
      <trkpt lat="45.2251" lon="5.99626">
        <ele>1343.2</ele>
        <time>2022-01-16T06:46:23Z</time>
      </trkpt>
      <trkpt lat="45.22509" lon="5.99639">
        <ele>1344</ele>
        <time>2022-01-16T06:46:29Z</time>
      </trkpt>
      <trkpt lat="45.2251" lon="5.99641">
        <ele>1344.2</ele>
        <time>2022-01-16T06:46:30Z</time>
      </trkpt>
      <trkpt lat="45.22511" lon="5.99643">
        <ele>1344.4</ele>
        <time>2022-01-16T06:46:31Z</time>
      </trkpt>
      <trkpt lat="45.22512" lon="5.99645">
        <ele>1344.6</ele>
        <time>2022-01-16T06:46:32Z</time>
      </trkpt>
      <trkpt lat="45.22512" lon="5.99649">
        <ele>1345</ele>
        <time>2022-01-16T06:46:34Z</time>
      </trkpt>
      <trkpt lat="45.22514" lon="5.99657">
        <ele>1345.2</ele>
        <time>2022-01-16T06:46:37Z</time>
      </trkpt>
      <trkpt lat="45.22515" lon="5.99659">
        <ele>1345.4</ele>
        <time>2022-01-16T06:46:38Z</time>
      </trkpt>
      <trkpt lat="45.22515" lon="5.99662">
        <ele>1345.4</ele>
        <time>2022-01-16T06:46:39Z</time>
      </trkpt>
      <trkpt lat="45.22515" lon="5.99668">
        <ele>1346</ele>
        <time>2022-01-16T06:46:42Z</time>
      </trkpt>
      <trkpt lat="45.22514" lon="5.99674">
        <ele>1346.8</ele>
        <time>2022-01-16T06:46:45Z</time>
      </trkpt>
      <trkpt lat="45.22513" lon="5.99687">
        <ele>1347.4</ele>
        <time>2022-01-16T06:46:51Z</time>
      </trkpt>
      <trkpt lat="45.22513" lon="5.9969">
        <ele>1347.8</ele>
        <time>2022-01-16T06:46:53Z</time>
      </trkpt>
      <trkpt lat="45.22512" lon="5.99691">
        <ele>1348.2</ele>
        <time>2022-01-16T06:46:54Z</time>
      </trkpt>
      <trkpt lat="45.22511" lon="5.99695">
        <ele>1348.2</ele>
        <time>2022-01-16T06:46:56Z</time>
      </trkpt>
      <trkpt lat="45.22511" lon="5.99706">
        <ele>1349</ele>
        <time>2022-01-16T06:47:00Z</time>
      </trkpt>
      <trkpt lat="45.22511" lon="5.99711">
        <ele>1349.2</ele>
        <time>2022-01-16T06:47:03Z</time>
      </trkpt>
      <trkpt lat="45.22509" lon="5.99724">
        <ele>1349.8</ele>
        <time>2022-01-16T06:47:08Z</time>
      </trkpt>
      <trkpt lat="45.22508" lon="5.99726">
        <ele>1350.2</ele>
        <time>2022-01-16T06:47:09Z</time>
      </trkpt>
      <trkpt lat="45.22508" lon="5.99727">
        <ele>1350.2</ele>
        <time>2022-01-16T06:47:10Z</time>
      </trkpt>
      <trkpt lat="45.22504" lon="5.99733">
        <ele>1350.6</ele>
        <time>2022-01-16T06:47:13Z</time>
      </trkpt>
      <trkpt lat="45.22502" lon="5.99736">
        <ele>1350.6</ele>
        <time>2022-01-16T06:47:15Z</time>
      </trkpt>
      <trkpt lat="45.22501" lon="5.99741">
        <ele>1351.2</ele>
        <time>2022-01-16T06:47:18Z</time>
      </trkpt>
      <trkpt lat="45.22503" lon="5.99748">
        <ele>1351.6</ele>
        <time>2022-01-16T06:47:21Z</time>
      </trkpt>
      <trkpt lat="45.22504" lon="5.99757">
        <ele>1351.6</ele>
        <time>2022-01-16T06:47:25Z</time>
      </trkpt>
      <trkpt lat="45.22504" lon="5.9976">
        <ele>1351.8</ele>
        <time>2022-01-16T06:47:27Z</time>
      </trkpt>
      <trkpt lat="45.22504" lon="5.99762">
        <ele>1351.8</ele>
        <time>2022-01-16T06:47:28Z</time>
      </trkpt>
      <trkpt lat="45.22504" lon="5.99768">
        <ele>1352.4</ele>
        <time>2022-01-16T06:47:31Z</time>
      </trkpt>
      <trkpt lat="45.22504" lon="5.99769">
        <ele>1352.6</ele>
        <time>2022-01-16T06:47:32Z</time>
      </trkpt>
      <trkpt lat="45.22503" lon="5.99786">
        <ele>1353.2</ele>
        <time>2022-01-16T06:47:38Z</time>
      </trkpt>
      <trkpt lat="45.22503" lon="5.99788">
        <ele>1353.4</ele>
        <time>2022-01-16T06:47:39Z</time>
      </trkpt>
      <trkpt lat="45.22504" lon="5.99791">
        <ele>1353.4</ele>
        <time>2022-01-16T06:47:40Z</time>
      </trkpt>
      <trkpt lat="45.22501" lon="5.99803">
        <ele>1353.6</ele>
        <time>2022-01-16T06:47:44Z</time>
      </trkpt>
      <trkpt lat="45.22497" lon="5.99813">
        <ele>1354.6</ele>
        <time>2022-01-16T06:47:49Z</time>
      </trkpt>
      <trkpt lat="45.22495" lon="5.99814">
        <ele>1354.6</ele>
        <time>2022-01-16T06:47:50Z</time>
      </trkpt>
      <trkpt lat="45.22493" lon="5.99814">
        <ele>1354.6</ele>
        <time>2022-01-16T06:47:51Z</time>
      </trkpt>
      <trkpt lat="45.22491" lon="5.99817">
        <ele>1354.8</ele>
        <time>2022-01-16T06:47:53Z</time>
      </trkpt>
      <trkpt lat="45.22489" lon="5.99822">
        <ele>1354.8</ele>
        <time>2022-01-16T06:47:55Z</time>
      </trkpt>
      <trkpt lat="45.22481" lon="5.9983">
        <ele>1355.2</ele>
        <time>2022-01-16T06:48:01Z</time>
      </trkpt>
      <trkpt lat="45.22477" lon="5.99836">
        <ele>1355.2</ele>
        <time>2022-01-16T06:48:04Z</time>
      </trkpt>
      <trkpt lat="45.22474" lon="5.9984">
        <ele>1355.6</ele>
        <time>2022-01-16T06:48:06Z</time>
      </trkpt>
      <trkpt lat="45.22471" lon="5.99842">
        <ele>1356</ele>
        <time>2022-01-16T06:48:08Z</time>
      </trkpt>
      <trkpt lat="45.22465" lon="5.99846">
        <ele>1356.4</ele>
        <time>2022-01-16T06:48:11Z</time>
      </trkpt>
      <trkpt lat="45.22463" lon="5.99849">
        <ele>1356.6</ele>
        <time>2022-01-16T06:48:12Z</time>
      </trkpt>
      <trkpt lat="45.2246" lon="5.99852">
        <ele>1357</ele>
        <time>2022-01-16T06:48:14Z</time>
      </trkpt>
      <trkpt lat="45.22458" lon="5.99853">
        <ele>1357</ele>
        <time>2022-01-16T06:48:16Z</time>
      </trkpt>
      <trkpt lat="45.22453" lon="5.99857">
        <ele>1357.8</ele>
        <time>2022-01-16T06:48:20Z</time>
      </trkpt>
      <trkpt lat="45.22452" lon="5.99859">
        <ele>1357.8</ele>
        <time>2022-01-16T06:48:21Z</time>
      </trkpt>
      <trkpt lat="45.22448" lon="5.99868">
        <ele>1358.6</ele>
        <time>2022-01-16T06:48:27Z</time>
      </trkpt>
      <trkpt lat="45.22448" lon="5.9987">
        <ele>1358.6</ele>
        <time>2022-01-16T06:48:28Z</time>
      </trkpt>
      <trkpt lat="45.22451" lon="5.9988">
        <ele>1358.8</ele>
        <time>2022-01-16T06:48:32Z</time>
      </trkpt>
      <trkpt lat="45.22453" lon="5.99885">
        <ele>1359.2</ele>
        <time>2022-01-16T06:48:35Z</time>
      </trkpt>
      <trkpt lat="45.22454" lon="5.99891">
        <ele>1360</ele>
        <time>2022-01-16T06:48:39Z</time>
      </trkpt>
      <trkpt lat="45.22455" lon="5.999">
        <ele>1360</ele>
        <time>2022-01-16T06:48:43Z</time>
      </trkpt>
      <trkpt lat="45.22456" lon="5.99903">
        <ele>1360</ele>
        <time>2022-01-16T06:48:45Z</time>
      </trkpt>
      <trkpt lat="45.22457" lon="5.99907">
        <ele>1361.4</ele>
        <time>2022-01-16T06:48:48Z</time>
      </trkpt>
      <trkpt lat="45.22457" lon="5.99909">
        <ele>1361.8</ele>
        <time>2022-01-16T06:48:50Z</time>
      </trkpt>
      <trkpt lat="45.22457" lon="5.99913">
        <ele>1362.6</ele>
        <time>2022-01-16T06:48:54Z</time>
      </trkpt>
      <trkpt lat="45.22457" lon="5.99915">
        <ele>1363.6</ele>
        <time>2022-01-16T06:48:56Z</time>
      </trkpt>
      <trkpt lat="45.22458" lon="5.99916">
        <ele>1363.8</ele>
        <time>2022-01-16T06:48:57Z</time>
      </trkpt>
      <trkpt lat="45.22458" lon="5.99917">
        <ele>1364.2</ele>
        <time>2022-01-16T06:48:58Z</time>
      </trkpt>
      <trkpt lat="45.2246" lon="5.99921">
        <ele>1365.2</ele>
        <time>2022-01-16T06:49:01Z</time>
      </trkpt>
      <trkpt lat="45.22461" lon="5.9993">
        <ele>1366.4</ele>
        <time>2022-01-16T06:49:06Z</time>
      </trkpt>
      <trkpt lat="45.22462" lon="5.99935">
        <ele>1367.4</ele>
        <time>2022-01-16T06:49:09Z</time>
      </trkpt>
      <trkpt lat="45.22462" lon="5.99937">
        <ele>1368.6</ele>
        <time>2022-01-16T06:49:12Z</time>
      </trkpt>
      <trkpt lat="45.22461" lon="5.99938">
        <ele>1368.6</ele>
        <time>2022-01-16T06:49:13Z</time>
      </trkpt>
      <trkpt lat="45.2246" lon="5.99943">
        <ele>1369.6</ele>
        <time>2022-01-16T06:49:17Z</time>
      </trkpt>
      <trkpt lat="45.22461" lon="5.99946">
        <ele>1369.6</ele>
        <time>2022-01-16T06:49:19Z</time>
      </trkpt>
      <trkpt lat="45.22462" lon="5.99951">
        <ele>1371.2</ele>
        <time>2022-01-16T06:49:22Z</time>
      </trkpt>
      <trkpt lat="45.22462" lon="5.99954">
        <ele>1371.6</ele>
        <time>2022-01-16T06:49:24Z</time>
      </trkpt>
      <trkpt lat="45.22461" lon="5.99958">
        <ele>1371.8</ele>
        <time>2022-01-16T06:49:26Z</time>
      </trkpt>
      <trkpt lat="45.2246" lon="5.99961">
        <ele>1372.2</ele>
        <time>2022-01-16T06:49:28Z</time>
      </trkpt>
      <trkpt lat="45.22459" lon="5.99967">
        <ele>1372.6</ele>
        <time>2022-01-16T06:49:32Z</time>
      </trkpt>
      <trkpt lat="45.22458" lon="5.99968">
        <ele>1373.6</ele>
        <time>2022-01-16T06:49:34Z</time>
      </trkpt>
      <trkpt lat="45.22455" lon="5.99973">
        <ele>1374.4</ele>
        <time>2022-01-16T06:49:38Z</time>
      </trkpt>
      <trkpt lat="45.22454" lon="5.99974">
        <ele>1374.8</ele>
        <time>2022-01-16T06:49:39Z</time>
      </trkpt>
      <trkpt lat="45.22453" lon="5.99974">
        <ele>1375</ele>
        <time>2022-01-16T06:49:40Z</time>
      </trkpt>
      <trkpt lat="45.22452" lon="5.99977">
        <ele>1375.2</ele>
        <time>2022-01-16T06:49:42Z</time>
      </trkpt>
      <trkpt lat="45.22451" lon="5.99977">
        <ele>1375.4</ele>
        <time>2022-01-16T06:49:43Z</time>
      </trkpt>
      <trkpt lat="45.22452" lon="5.99979">
        <ele>1376.2</ele>
        <time>2022-01-16T06:49:45Z</time>
      </trkpt>
      <trkpt lat="45.22452" lon="5.99983">
        <ele>1376.4</ele>
        <time>2022-01-16T06:49:48Z</time>
      </trkpt>
      <trkpt lat="45.2245" lon="5.99988">
        <ele>1377.4</ele>
        <time>2022-01-16T06:49:51Z</time>
      </trkpt>
      <trkpt lat="45.22449" lon="5.99995">
        <ele>1378</ele>
        <time>2022-01-16T06:49:55Z</time>
      </trkpt>
      <trkpt lat="45.22448" lon="5.99997">
        <ele>1378.4</ele>
        <time>2022-01-16T06:49:57Z</time>
      </trkpt>
      <trkpt lat="45.22448" lon="5.99999">
        <ele>1379</ele>
        <time>2022-01-16T06:49:58Z</time>
      </trkpt>
      <trkpt lat="45.22447" lon="6.00002">
        <ele>1379.2</ele>
        <time>2022-01-16T06:50:00Z</time>
      </trkpt>
      <trkpt lat="45.22446" lon="6.00004">
        <ele>1379.6</ele>
        <time>2022-01-16T06:50:01Z</time>
      </trkpt>
      <trkpt lat="45.22444" lon="6.00011">
        <ele>1380.8</ele>
        <time>2022-01-16T06:50:06Z</time>
      </trkpt>
      <trkpt lat="45.22441" lon="6.00015">
        <ele>1381.6</ele>
        <time>2022-01-16T06:50:09Z</time>
      </trkpt>
      <trkpt lat="45.22441" lon="6.00017">
        <ele>1382</ele>
        <time>2022-01-16T06:50:10Z</time>
      </trkpt>
      <trkpt lat="45.2244" lon="6.00021">
        <ele>1382.8</ele>
        <time>2022-01-16T06:50:13Z</time>
      </trkpt>
      <trkpt lat="45.2244" lon="6.00024">
        <ele>1383.4</ele>
        <time>2022-01-16T06:50:15Z</time>
      </trkpt>
      <trkpt lat="45.22439" lon="6.00027">
        <ele>1384.4</ele>
        <time>2022-01-16T06:50:19Z</time>
      </trkpt>
      <trkpt lat="45.22437" lon="6.00027">
        <ele>1385.6</ele>
        <time>2022-01-16T06:50:22Z</time>
      </trkpt>
      <trkpt lat="45.22437" lon="6.00028">
        <ele>1386.6</ele>
        <time>2022-01-16T06:50:26Z</time>
      </trkpt>
      <trkpt lat="45.22438" lon="6.00029">
        <ele>1386.6</ele>
        <time>2022-01-16T06:50:27Z</time>
      </trkpt>
      <trkpt lat="45.22438" lon="6.00033">
        <ele>1387.8</ele>
        <time>2022-01-16T06:50:31Z</time>
      </trkpt>
      <trkpt lat="45.22438" lon="6.00036">
        <ele>1388.4</ele>
        <time>2022-01-16T06:50:33Z</time>
      </trkpt>
      <trkpt lat="45.22438" lon="6.00037">
        <ele>1389</ele>
        <time>2022-01-16T06:50:34Z</time>
      </trkpt>
      <trkpt lat="45.22437" lon="6.00043">
        <ele>1390</ele>
        <time>2022-01-16T06:50:38Z</time>
      </trkpt>
      <trkpt lat="45.22438" lon="6.00046">
        <ele>1391.2</ele>
        <time>2022-01-16T06:50:41Z</time>
      </trkpt>
      <trkpt lat="45.22436" lon="6.0005">
        <ele>1391.4</ele>
        <time>2022-01-16T06:50:44Z</time>
      </trkpt>
      <trkpt lat="45.22436" lon="6.00053">
        <ele>1392.2</ele>
        <time>2022-01-16T06:50:46Z</time>
      </trkpt>
      <trkpt lat="45.22436" lon="6.00056">
        <ele>1392.4</ele>
        <time>2022-01-16T06:50:49Z</time>
      </trkpt>
      <trkpt lat="45.22436" lon="6.00057">
        <ele>1393.4</ele>
        <time>2022-01-16T06:50:50Z</time>
      </trkpt>
      <trkpt lat="45.22437" lon="6.0006">
        <ele>1394.8</ele>
        <time>2022-01-16T06:50:54Z</time>
      </trkpt>
      <trkpt lat="45.22437" lon="6.0006">
        <ele>1395</ele>
        <time>2022-01-16T06:50:55Z</time>
      </trkpt>
      <trkpt lat="45.22439" lon="6.00058">
        <ele>1396</ele>
        <time>2022-01-16T06:51:00Z</time>
      </trkpt>
      <trkpt lat="45.22441" lon="6.00058">
        <ele>1396.6</ele>
        <time>2022-01-16T06:51:02Z</time>
      </trkpt>
      <trkpt lat="45.22443" lon="6.00061">
        <ele>1397.4</ele>
        <time>2022-01-16T06:51:04Z</time>
      </trkpt>
      <trkpt lat="45.22444" lon="6.00066">
        <ele>1398.2</ele>
        <time>2022-01-16T06:51:08Z</time>
      </trkpt>
      <trkpt lat="45.22444" lon="6.00067">
        <ele>1398.8</ele>
        <time>2022-01-16T06:51:09Z</time>
      </trkpt>
      <trkpt lat="45.22443" lon="6.00073">
        <ele>1400</ele>
        <time>2022-01-16T06:51:14Z</time>
      </trkpt>
      <trkpt lat="45.22443" lon="6.00078">
        <ele>1401.2</ele>
        <time>2022-01-16T06:51:17Z</time>
      </trkpt>
      <trkpt lat="45.22444" lon="6.00079">
        <ele>1402.4</ele>
        <time>2022-01-16T06:51:21Z</time>
      </trkpt>
      <trkpt lat="45.22448" lon="6.00079">
        <ele>1403.6</ele>
        <time>2022-01-16T06:51:26Z</time>
      </trkpt>
      <trkpt lat="45.2245" lon="6.00079">
        <ele>1404.4</ele>
        <time>2022-01-16T06:51:29Z</time>
      </trkpt>
      <trkpt lat="45.22451" lon="6.00079">
        <ele>1405</ele>
        <time>2022-01-16T06:51:30Z</time>
      </trkpt>
      <trkpt lat="45.22451" lon="6.00082">
        <ele>1405.2</ele>
        <time>2022-01-16T06:51:32Z</time>
      </trkpt>
      <trkpt lat="45.22449" lon="6.00088">
        <ele>1405.6</ele>
        <time>2022-01-16T06:51:35Z</time>
      </trkpt>
      <trkpt lat="45.22448" lon="6.0009">
        <ele>1405.6</ele>
        <time>2022-01-16T06:51:36Z</time>
      </trkpt>
      <trkpt lat="45.22448" lon="6.00092">
        <ele>1406</ele>
        <time>2022-01-16T06:51:37Z</time>
      </trkpt>
      <trkpt lat="45.22446" lon="6.00098">
        <ele>1406.6</ele>
        <time>2022-01-16T06:51:41Z</time>
      </trkpt>
      <trkpt lat="45.22443" lon="6.00102">
        <ele>1407.4</ele>
        <time>2022-01-16T06:51:44Z</time>
      </trkpt>
      <trkpt lat="45.22437" lon="6.00106">
        <ele>1408.6</ele>
        <time>2022-01-16T06:51:49Z</time>
      </trkpt>
      <trkpt lat="45.22434" lon="6.00107">
        <ele>1408.6</ele>
        <time>2022-01-16T06:51:51Z</time>
      </trkpt>
      <trkpt lat="45.22431" lon="6.00112">
        <ele>1409.4</ele>
        <time>2022-01-16T06:51:55Z</time>
      </trkpt>
      <trkpt lat="45.2243" lon="6.00114">
        <ele>1409.8</ele>
        <time>2022-01-16T06:51:56Z</time>
      </trkpt>
      <trkpt lat="45.22424" lon="6.00121">
        <ele>1410.8</ele>
        <time>2022-01-16T06:52:02Z</time>
      </trkpt>
      <trkpt lat="45.22423" lon="6.00122">
        <ele>1411</ele>
        <time>2022-01-16T06:52:03Z</time>
      </trkpt>
      <trkpt lat="45.22417" lon="6.00131">
        <ele>1411.6</ele>
        <time>2022-01-16T06:52:09Z</time>
      </trkpt>
      <trkpt lat="45.22416" lon="6.00133">
        <ele>1412.2</ele>
        <time>2022-01-16T06:52:10Z</time>
      </trkpt>
      <trkpt lat="45.22411" lon="6.00139">
        <ele>1413.2</ele>
        <time>2022-01-16T06:52:14Z</time>
      </trkpt>
      <trkpt lat="45.22408" lon="6.00142">
        <ele>1413.8</ele>
        <time>2022-01-16T06:52:17Z</time>
      </trkpt>
      <trkpt lat="45.22403" lon="6.00147">
        <ele>1414.2</ele>
        <time>2022-01-16T06:52:21Z</time>
      </trkpt>
      <trkpt lat="45.22402" lon="6.00147">
        <ele>1414.6</ele>
        <time>2022-01-16T06:52:22Z</time>
      </trkpt>
      <trkpt lat="45.224" lon="6.00148">
        <ele>1414.8</ele>
        <time>2022-01-16T06:52:24Z</time>
      </trkpt>
      <trkpt lat="45.22395" lon="6.00151">
        <ele>1415.6</ele>
        <time>2022-01-16T06:52:28Z</time>
      </trkpt>
      <trkpt lat="45.22389" lon="6.00154">
        <ele>1416</ele>
        <time>2022-01-16T06:52:31Z</time>
      </trkpt>
      <trkpt lat="45.22383" lon="6.00157">
        <ele>1416.4</ele>
        <time>2022-01-16T06:52:34Z</time>
      </trkpt>
      <trkpt lat="45.22382" lon="6.00158">
        <ele>1416.6</ele>
        <time>2022-01-16T06:52:35Z</time>
      </trkpt>
      <trkpt lat="45.22378" lon="6.00159">
        <ele>1417.6</ele>
        <time>2022-01-16T06:52:38Z</time>
      </trkpt>
      <trkpt lat="45.22373" lon="6.00161">
        <ele>1418</ele>
        <time>2022-01-16T06:52:41Z</time>
      </trkpt>
      <trkpt lat="45.22368" lon="6.00164">
        <ele>1418.2</ele>
        <time>2022-01-16T06:52:45Z</time>
      </trkpt>
      <trkpt lat="45.22367" lon="6.00165">
        <ele>1418.6</ele>
        <time>2022-01-16T06:52:46Z</time>
      </trkpt>
      <trkpt lat="45.22364" lon="6.0017">
        <ele>1419</ele>
        <time>2022-01-16T06:52:49Z</time>
      </trkpt>
      <trkpt lat="45.22362" lon="6.0017">
        <ele>1419</ele>
        <time>2022-01-16T06:52:50Z</time>
      </trkpt>
      <trkpt lat="45.22359" lon="6.00173">
        <ele>1419.8</ele>
        <time>2022-01-16T06:52:53Z</time>
      </trkpt>
      <trkpt lat="45.22355" lon="6.00176">
        <ele>1420.2</ele>
        <time>2022-01-16T06:52:56Z</time>
      </trkpt>
      <trkpt lat="45.22351" lon="6.0018">
        <ele>1420.8</ele>
        <time>2022-01-16T06:53:00Z</time>
      </trkpt>
      <trkpt lat="45.22345" lon="6.00183">
        <ele>1421.6</ele>
        <time>2022-01-16T06:53:05Z</time>
      </trkpt>
      <trkpt lat="45.22341" lon="6.00186">
        <ele>1422</ele>
        <time>2022-01-16T06:53:09Z</time>
      </trkpt>
      <trkpt lat="45.2234" lon="6.00187">
        <ele>1422</ele>
        <time>2022-01-16T06:53:10Z</time>
      </trkpt>
      <trkpt lat="45.22337" lon="6.00195">
        <ele>1422.6</ele>
        <time>2022-01-16T06:53:15Z</time>
      </trkpt>
      <trkpt lat="45.22336" lon="6.00196">
        <ele>1422.8</ele>
        <time>2022-01-16T06:53:16Z</time>
      </trkpt>
      <trkpt lat="45.22331" lon="6.00205">
        <ele>1423.8</ele>
        <time>2022-01-16T06:53:21Z</time>
      </trkpt>
      <trkpt lat="45.22329" lon="6.00207">
        <ele>1424.2</ele>
        <time>2022-01-16T06:53:25Z</time>
      </trkpt>
      <trkpt lat="45.22329" lon="6.00205">
        <ele>1424.4</ele>
        <time>2022-01-16T06:53:31Z</time>
      </trkpt>
      <trkpt lat="45.22329" lon="6.00205">
        <ele>1424.4</ele>
        <time>2022-01-16T06:53:32Z</time>
      </trkpt>
      <trkpt lat="45.22328" lon="6.00206">
        <ele>1424.2</ele>
        <time>2022-01-16T06:53:38Z</time>
      </trkpt>
      <trkpt lat="45.22328" lon="6.00206">
        <ele>1424.4</ele>
        <time>2022-01-16T06:53:41Z</time>
      </trkpt>
      <trkpt lat="45.22328" lon="6.00206">
        <ele>1424.6</ele>
        <time>2022-01-16T06:53:47Z</time>
      </trkpt>
      <trkpt lat="45.22328" lon="6.00207">
        <ele>1424.6</ele>
        <time>2022-01-16T06:53:53Z</time>
      </trkpt>
      <trkpt lat="45.22328" lon="6.00207">
        <ele>1424.4</ele>
        <time>2022-01-16T06:53:57Z</time>
      </trkpt>
      <trkpt lat="45.22328" lon="6.00207">
        <ele>1424.2</ele>
        <time>2022-01-16T06:53:59Z</time>
      </trkpt>
      <trkpt lat="45.22327" lon="6.00207">
        <ele>1424.2</ele>
        <time>2022-01-16T06:54:01Z</time>
      </trkpt>
      <trkpt lat="45.22327" lon="6.00207">
        <ele>1424.2</ele>
        <time>2022-01-16T06:54:03Z</time>
      </trkpt>
      <trkpt lat="45.22327" lon="6.00208">
        <ele>1423.8</ele>
        <time>2022-01-16T06:54:06Z</time>
      </trkpt>
      <trkpt lat="45.22326" lon="6.00208">
        <ele>1423.8</ele>
        <time>2022-01-16T06:54:11Z</time>
      </trkpt>
      <trkpt lat="45.22324" lon="6.00208">
        <ele>1423.8</ele>
        <time>2022-01-16T06:54:17Z</time>
      </trkpt>
      <trkpt lat="45.22324" lon="6.00208">
        <ele>1423.6</ele>
        <time>2022-01-16T06:54:19Z</time>
      </trkpt>
      <trkpt lat="45.22324" lon="6.00208">
        <ele>1423.4</ele>
        <time>2022-01-16T06:54:22Z</time>
      </trkpt>
      <trkpt lat="45.22324" lon="6.00208">
        <ele>1423.4</ele>
        <time>2022-01-16T06:54:24Z</time>
      </trkpt>
      <trkpt lat="45.22323" lon="6.00209">
        <ele>1423</ele>
        <time>2022-01-16T06:54:29Z</time>
      </trkpt>
      <trkpt lat="45.22323" lon="6.00209">
        <ele>1423</ele>
        <time>2022-01-16T06:54:31Z</time>
      </trkpt>
      <trkpt lat="45.22323" lon="6.00209">
        <ele>1423.2</ele>
        <time>2022-01-16T06:54:37Z</time>
      </trkpt>
      <trkpt lat="45.22323" lon="6.00209">
        <ele>1423.4</ele>
        <time>2022-01-16T06:54:42Z</time>
      </trkpt>
      <trkpt lat="45.22323" lon="6.00209">
        <ele>1423.4</ele>
        <time>2022-01-16T06:54:46Z</time>
      </trkpt>
      <trkpt lat="45.22323" lon="6.00209">
        <ele>1423.2</ele>
        <time>2022-01-16T06:54:52Z</time>
      </trkpt>
      <trkpt lat="45.22323" lon="6.00209">
        <ele>1423.2</ele>
        <time>2022-01-16T06:54:54Z</time>
      </trkpt>
      <trkpt lat="45.22324" lon="6.00209">
        <ele>1423.2</ele>
        <time>2022-01-16T06:55:00Z</time>
      </trkpt>
      <trkpt lat="45.22324" lon="6.00208">
        <ele>1423.2</ele>
        <time>2022-01-16T06:55:06Z</time>
      </trkpt>
      <trkpt lat="45.22324" lon="6.00208">
        <ele>1422.8</ele>
        <time>2022-01-16T06:55:11Z</time>
      </trkpt>
      <trkpt lat="45.22324" lon="6.00208">
        <ele>1423</ele>
        <time>2022-01-16T06:55:13Z</time>
      </trkpt>
      <trkpt lat="45.22324" lon="6.00208">
        <ele>1423.2</ele>
        <time>2022-01-16T06:55:15Z</time>
      </trkpt>
      <trkpt lat="45.22322" lon="6.0021">
        <ele>1423.2</ele>
        <time>2022-01-16T06:55:17Z</time>
      </trkpt>
      <trkpt lat="45.22319" lon="6.00211">
        <ele>1423.8</ele>
        <time>2022-01-16T06:55:19Z</time>
      </trkpt>
      <trkpt lat="45.22316" lon="6.00213">
        <ele>1424</ele>
        <time>2022-01-16T06:55:21Z</time>
      </trkpt>
      <trkpt lat="45.2231" lon="6.00216">
        <ele>1424.6</ele>
        <time>2022-01-16T06:55:26Z</time>
      </trkpt>
      <trkpt lat="45.22309" lon="6.00216">
        <ele>1424.8</ele>
        <time>2022-01-16T06:55:27Z</time>
      </trkpt>
      <trkpt lat="45.22308" lon="6.00217">
        <ele>1424.8</ele>
        <time>2022-01-16T06:55:28Z</time>
      </trkpt>
      <trkpt lat="45.22306" lon="6.00219">
        <ele>1425.4</ele>
        <time>2022-01-16T06:55:30Z</time>
      </trkpt>
      <trkpt lat="45.22305" lon="6.0022">
        <ele>1425.8</ele>
        <time>2022-01-16T06:55:31Z</time>
      </trkpt>
      <trkpt lat="45.22304" lon="6.00222">
        <ele>1426.2</ele>
        <time>2022-01-16T06:55:33Z</time>
      </trkpt>
      <trkpt lat="45.22303" lon="6.00224">
        <ele>1426.6</ele>
        <time>2022-01-16T06:55:35Z</time>
      </trkpt>
      <trkpt lat="45.22302" lon="6.00224">
        <ele>1427.2</ele>
        <time>2022-01-16T06:55:36Z</time>
      </trkpt>
      <trkpt lat="45.22301" lon="6.00226">
        <ele>1427.6</ele>
        <time>2022-01-16T06:55:38Z</time>
      </trkpt>
      <trkpt lat="45.22301" lon="6.00228">
        <ele>1427.8</ele>
        <time>2022-01-16T06:55:40Z</time>
      </trkpt>
      <trkpt lat="45.22301" lon="6.00229">
        <ele>1428.4</ele>
        <time>2022-01-16T06:55:42Z</time>
      </trkpt>
      <trkpt lat="45.22303" lon="6.00233">
        <ele>1429.2</ele>
        <time>2022-01-16T06:55:45Z</time>
      </trkpt>
      <trkpt lat="45.22303" lon="6.00234">
        <ele>1429.8</ele>
        <time>2022-01-16T06:55:46Z</time>
      </trkpt>
      <trkpt lat="45.22302" lon="6.00237">
        <ele>1430.2</ele>
        <time>2022-01-16T06:55:48Z</time>
      </trkpt>
      <trkpt lat="45.22302" lon="6.00239">
        <ele>1430.2</ele>
        <time>2022-01-16T06:55:49Z</time>
      </trkpt>
      <trkpt lat="45.22302" lon="6.00241">
        <ele>1431.4</ele>
        <time>2022-01-16T06:55:51Z</time>
      </trkpt>
      <trkpt lat="45.22303" lon="6.00244">
        <ele>1431.6</ele>
        <time>2022-01-16T06:55:53Z</time>
      </trkpt>
      <trkpt lat="45.22303" lon="6.00245">
        <ele>1431.6</ele>
        <time>2022-01-16T06:55:54Z</time>
      </trkpt>
      <trkpt lat="45.22303" lon="6.00245">
        <ele>1432.6</ele>
        <time>2022-01-16T06:55:55Z</time>
      </trkpt>
      <trkpt lat="45.22304" lon="6.00251">
        <ele>1433.2</ele>
        <time>2022-01-16T06:55:59Z</time>
      </trkpt>
      <trkpt lat="45.22304" lon="6.00252">
        <ele>1433.4</ele>
        <time>2022-01-16T06:56:00Z</time>
      </trkpt>
      <trkpt lat="45.22304" lon="6.00254">
        <ele>1434</ele>
        <time>2022-01-16T06:56:02Z</time>
      </trkpt>
      <trkpt lat="45.22305" lon="6.00257">
        <ele>1435</ele>
        <time>2022-01-16T06:56:05Z</time>
      </trkpt>
      <trkpt lat="45.22305" lon="6.00258">
        <ele>1435.4</ele>
        <time>2022-01-16T06:56:06Z</time>
      </trkpt>
      <trkpt lat="45.22308" lon="6.00264">
        <ele>1436.2</ele>
        <time>2022-01-16T06:56:12Z</time>
      </trkpt>
      <trkpt lat="45.22309" lon="6.00265">
        <ele>1437.2</ele>
        <time>2022-01-16T06:56:13Z</time>
      </trkpt>
      <trkpt lat="45.22309" lon="6.00266">
        <ele>1437.4</ele>
        <time>2022-01-16T06:56:14Z</time>
      </trkpt>
      <trkpt lat="45.22312" lon="6.00269">
        <ele>1438.4</ele>
        <time>2022-01-16T06:56:17Z</time>
      </trkpt>
      <trkpt lat="45.22315" lon="6.00275">
        <ele>1439.6</ele>
        <time>2022-01-16T06:56:22Z</time>
      </trkpt>
      <trkpt lat="45.22316" lon="6.00277">
        <ele>1439.6</ele>
        <time>2022-01-16T06:56:23Z</time>
      </trkpt>
      <trkpt lat="45.22316" lon="6.00282">
        <ele>1440.6</ele>
        <time>2022-01-16T06:56:27Z</time>
      </trkpt>
      <trkpt lat="45.22317" lon="6.00286">
        <ele>1441.2</ele>
        <time>2022-01-16T06:56:30Z</time>
      </trkpt>
      <trkpt lat="45.22317" lon="6.00287">
        <ele>1441.8</ele>
        <time>2022-01-16T06:56:31Z</time>
      </trkpt>
      <trkpt lat="45.22317" lon="6.00289">
        <ele>1441.8</ele>
        <time>2022-01-16T06:56:32Z</time>
      </trkpt>
      <trkpt lat="45.22318" lon="6.003">
        <ele>1442.8</ele>
        <time>2022-01-16T06:56:38Z</time>
      </trkpt>
      <trkpt lat="45.22318" lon="6.00303">
        <ele>1443.6</ele>
        <time>2022-01-16T06:56:40Z</time>
      </trkpt>
      <trkpt lat="45.22318" lon="6.00307">
        <ele>1444</ele>
        <time>2022-01-16T06:56:42Z</time>
      </trkpt>
      <trkpt lat="45.22318" lon="6.00311">
        <ele>1445</ele>
        <time>2022-01-16T06:56:45Z</time>
      </trkpt>
      <trkpt lat="45.22317" lon="6.0032">
        <ele>1446</ele>
        <time>2022-01-16T06:56:51Z</time>
      </trkpt>
      <trkpt lat="45.22317" lon="6.00329">
        <ele>1447.2</ele>
        <time>2022-01-16T06:56:57Z</time>
      </trkpt>
      <trkpt lat="45.22316" lon="6.00335">
        <ele>1447.6</ele>
        <time>2022-01-16T06:57:00Z</time>
      </trkpt>
      <trkpt lat="45.22315" lon="6.00338">
        <ele>1448.4</ele>
        <time>2022-01-16T06:57:03Z</time>
      </trkpt>
      <trkpt lat="45.22315" lon="6.00345">
        <ele>1449.2</ele>
        <time>2022-01-16T06:57:07Z</time>
      </trkpt>
      <trkpt lat="45.22315" lon="6.00347">
        <ele>1449.6</ele>
        <time>2022-01-16T06:57:08Z</time>
      </trkpt>
      <trkpt lat="45.22313" lon="6.00354">
        <ele>1450.6</ele>
        <time>2022-01-16T06:57:13Z</time>
      </trkpt>
      <trkpt lat="45.22311" lon="6.00356">
        <ele>1451.6</ele>
        <time>2022-01-16T06:57:15Z</time>
      </trkpt>
      <trkpt lat="45.22309" lon="6.00361">
        <ele>1451.8</ele>
        <time>2022-01-16T06:57:19Z</time>
      </trkpt>
      <trkpt lat="45.22309" lon="6.00362">
        <ele>1452.8</ele>
        <time>2022-01-16T06:57:20Z</time>
      </trkpt>
      <trkpt lat="45.22308" lon="6.00367">
        <ele>1453.2</ele>
        <time>2022-01-16T06:57:23Z</time>
      </trkpt>
      <trkpt lat="45.22309" lon="6.00371">
        <ele>1453.2</ele>
        <time>2022-01-16T06:57:26Z</time>
      </trkpt>
      <trkpt lat="45.2231" lon="6.00373">
        <ele>1454.2</ele>
        <time>2022-01-16T06:57:27Z</time>
      </trkpt>
      <trkpt lat="45.2231" lon="6.00375">
        <ele>1454.4</ele>
        <time>2022-01-16T06:57:29Z</time>
      </trkpt>
      <trkpt lat="45.22309" lon="6.00377">
        <ele>1454.8</ele>
        <time>2022-01-16T06:57:30Z</time>
      </trkpt>
      <trkpt lat="45.22309" lon="6.00379">
        <ele>1455.2</ele>
        <time>2022-01-16T06:57:31Z</time>
      </trkpt>
      <trkpt lat="45.22304" lon="6.00383">
        <ele>1456.2</ele>
        <time>2022-01-16T06:57:35Z</time>
      </trkpt>
      <trkpt lat="45.22297" lon="6.00387">
        <ele>1457.2</ele>
        <time>2022-01-16T06:57:39Z</time>
      </trkpt>
      <trkpt lat="45.22296" lon="6.00389">
        <ele>1457.4</ele>
        <time>2022-01-16T06:57:40Z</time>
      </trkpt>
      <trkpt lat="45.22295" lon="6.00391">
        <ele>1458.2</ele>
        <time>2022-01-16T06:57:42Z</time>
      </trkpt>
      <trkpt lat="45.22295" lon="6.00392">
        <ele>1459.4</ele>
        <time>2022-01-16T06:57:44Z</time>
      </trkpt>
      <trkpt lat="45.22295" lon="6.00393">
        <ele>1459.8</ele>
        <time>2022-01-16T06:57:45Z</time>
      </trkpt>
      <trkpt lat="45.22296" lon="6.00394">
        <ele>1459.8</ele>
        <time>2022-01-16T06:57:46Z</time>
      </trkpt>
      <trkpt lat="45.22296" lon="6.00399">
        <ele>1460.6</ele>
        <time>2022-01-16T06:57:50Z</time>
      </trkpt>
      <trkpt lat="45.22296" lon="6.00404">
        <ele>1461.6</ele>
        <time>2022-01-16T06:57:54Z</time>
      </trkpt>
      <trkpt lat="45.22296" lon="6.00405">
        <ele>1462</ele>
        <time>2022-01-16T06:57:55Z</time>
      </trkpt>
      <trkpt lat="45.22295" lon="6.00411">
        <ele>1463.2</ele>
        <time>2022-01-16T06:58:00Z</time>
      </trkpt>
      <trkpt lat="45.22294" lon="6.00412">
        <ele>1463.4</ele>
        <time>2022-01-16T06:58:01Z</time>
      </trkpt>
      <trkpt lat="45.22292" lon="6.00413">
        <ele>1464</ele>
        <time>2022-01-16T06:58:03Z</time>
      </trkpt>
      <trkpt lat="45.22291" lon="6.00414">
        <ele>1464.2</ele>
        <time>2022-01-16T06:58:04Z</time>
      </trkpt>
      <trkpt lat="45.22288" lon="6.00416">
        <ele>1465.6</ele>
        <time>2022-01-16T06:58:06Z</time>
      </trkpt>
      <trkpt lat="45.22281" lon="6.0042">
        <ele>1466.4</ele>
        <time>2022-01-16T06:58:12Z</time>
      </trkpt>
      <trkpt lat="45.22279" lon="6.00421">
        <ele>1466.6</ele>
        <time>2022-01-16T06:58:13Z</time>
      </trkpt>
      <trkpt lat="45.22279" lon="6.00422">
        <ele>1467</ele>
        <time>2022-01-16T06:58:14Z</time>
      </trkpt>
      <trkpt lat="45.22279" lon="6.00422">
        <ele>1468</ele>
        <time>2022-01-16T06:58:17Z</time>
      </trkpt>
      <trkpt lat="45.2228" lon="6.00423">
        <ele>1468.2</ele>
        <time>2022-01-16T06:58:18Z</time>
      </trkpt>
      <trkpt lat="45.22279" lon="6.00426">
        <ele>1469</ele>
        <time>2022-01-16T06:58:21Z</time>
      </trkpt>
      <trkpt lat="45.22278" lon="6.00427">
        <ele>1469.2</ele>
        <time>2022-01-16T06:58:22Z</time>
      </trkpt>
      <trkpt lat="45.22275" lon="6.00429">
        <ele>1470</ele>
        <time>2022-01-16T06:58:24Z</time>
      </trkpt>
      <trkpt lat="45.22275" lon="6.00429">
        <ele>1470.4</ele>
        <time>2022-01-16T06:58:25Z</time>
      </trkpt>
      <trkpt lat="45.22271" lon="6.00432">
        <ele>1471.8</ele>
        <time>2022-01-16T06:58:30Z</time>
      </trkpt>
      <trkpt lat="45.22271" lon="6.00433">
        <ele>1473</ele>
        <time>2022-01-16T06:58:32Z</time>
      </trkpt>
      <trkpt lat="45.22271" lon="6.00434">
        <ele>1473.2</ele>
        <time>2022-01-16T06:58:33Z</time>
      </trkpt>
      <trkpt lat="45.2227" lon="6.00437">
        <ele>1473.8</ele>
        <time>2022-01-16T06:58:36Z</time>
      </trkpt>
      <trkpt lat="45.22268" lon="6.00439">
        <ele>1474</ele>
        <time>2022-01-16T06:58:38Z</time>
      </trkpt>
      <trkpt lat="45.22265" lon="6.00441">
        <ele>1474.6</ele>
        <time>2022-01-16T06:58:40Z</time>
      </trkpt>
      <trkpt lat="45.22263" lon="6.00442">
        <ele>1475</ele>
        <time>2022-01-16T06:58:42Z</time>
      </trkpt>
      <trkpt lat="45.22258" lon="6.00443">
        <ele>1476.4</ele>
        <time>2022-01-16T06:58:46Z</time>
      </trkpt>
      <trkpt lat="45.22255" lon="6.00443">
        <ele>1476.8</ele>
        <time>2022-01-16T06:58:48Z</time>
      </trkpt>
      <trkpt lat="45.22252" lon="6.00443">
        <ele>1477.4</ele>
        <time>2022-01-16T06:58:51Z</time>
      </trkpt>
      <trkpt lat="45.22248" lon="6.00446">
        <ele>1478.8</ele>
        <time>2022-01-16T06:58:55Z</time>
      </trkpt>
      <trkpt lat="45.22247" lon="6.00447">
        <ele>1479</ele>
        <time>2022-01-16T06:58:56Z</time>
      </trkpt>
      <trkpt lat="45.22246" lon="6.00446">
        <ele>1479</ele>
        <time>2022-01-16T06:58:57Z</time>
      </trkpt>
      <trkpt lat="45.22244" lon="6.00446">
        <ele>1479.8</ele>
        <time>2022-01-16T06:58:59Z</time>
      </trkpt>
      <trkpt lat="45.22239" lon="6.00446">
        <ele>1480.8</ele>
        <time>2022-01-16T06:59:03Z</time>
      </trkpt>
      <trkpt lat="45.22238" lon="6.00446">
        <ele>1480.8</ele>
        <time>2022-01-16T06:59:04Z</time>
      </trkpt>
      <trkpt lat="45.22236" lon="6.00444">
        <ele>1481.4</ele>
        <time>2022-01-16T06:59:06Z</time>
      </trkpt>
      <trkpt lat="45.22236" lon="6.00443">
        <ele>1482.2</ele>
        <time>2022-01-16T06:59:07Z</time>
      </trkpt>
      <trkpt lat="45.22234" lon="6.00442">
        <ele>1483</ele>
        <time>2022-01-16T06:59:09Z</time>
      </trkpt>
      <trkpt lat="45.22233" lon="6.00442">
        <ele>1483</ele>
        <time>2022-01-16T06:59:10Z</time>
      </trkpt>
      <trkpt lat="45.22232" lon="6.00443">
        <ele>1483.4</ele>
        <time>2022-01-16T06:59:11Z</time>
      </trkpt>
      <trkpt lat="45.2223" lon="6.00443">
        <ele>1483.8</ele>
        <time>2022-01-16T06:59:13Z</time>
      </trkpt>
      <trkpt lat="45.22229" lon="6.00444">
        <ele>1484.4</ele>
        <time>2022-01-16T06:59:15Z</time>
      </trkpt>
      <trkpt lat="45.22228" lon="6.00445">
        <ele>1484.4</ele>
        <time>2022-01-16T06:59:16Z</time>
      </trkpt>
      <trkpt lat="45.22228" lon="6.00445">
        <ele>1485.6</ele>
        <time>2022-01-16T06:59:17Z</time>
      </trkpt>
      <trkpt lat="45.22228" lon="6.00448">
        <ele>1485.8</ele>
        <time>2022-01-16T06:59:20Z</time>
      </trkpt>
      <trkpt lat="45.22229" lon="6.00449">
        <ele>1487</ele>
        <time>2022-01-16T06:59:21Z</time>
      </trkpt>
      <trkpt lat="45.2223" lon="6.00451">
        <ele>1487.4</ele>
        <time>2022-01-16T06:59:24Z</time>
      </trkpt>
      <trkpt lat="45.22232" lon="6.00453">
        <ele>1487.8</ele>
        <time>2022-01-16T06:59:27Z</time>
      </trkpt>
      <trkpt lat="45.22232" lon="6.00454">
        <ele>1488.2</ele>
        <time>2022-01-16T06:59:28Z</time>
      </trkpt>
      <trkpt lat="45.22232" lon="6.00455">
        <ele>1489.8</ele>
        <time>2022-01-16T06:59:31Z</time>
      </trkpt>
      <trkpt lat="45.22234" lon="6.00458">
        <ele>1490</ele>
        <time>2022-01-16T06:59:33Z</time>
      </trkpt>
      <trkpt lat="45.22234" lon="6.00459">
        <ele>1490.8</ele>
        <time>2022-01-16T06:59:34Z</time>
      </trkpt>
      <trkpt lat="45.22239" lon="6.00464">
        <ele>1491.8</ele>
        <time>2022-01-16T06:59:38Z</time>
      </trkpt>
      <trkpt lat="45.22239" lon="6.00466">
        <ele>1493</ele>
        <time>2022-01-16T06:59:40Z</time>
      </trkpt>
      <trkpt lat="45.22238" lon="6.0047">
        <ele>1493.4</ele>
        <time>2022-01-16T06:59:43Z</time>
      </trkpt>
      <trkpt lat="45.22237" lon="6.00473">
        <ele>1493.6</ele>
        <time>2022-01-16T06:59:45Z</time>
      </trkpt>
      <trkpt lat="45.22236" lon="6.00474">
        <ele>1494.2</ele>
        <time>2022-01-16T06:59:46Z</time>
      </trkpt>
      <trkpt lat="45.22235" lon="6.00481">
        <ele>1495.2</ele>
        <time>2022-01-16T06:59:51Z</time>
      </trkpt>
      <trkpt lat="45.22235" lon="6.00483">
        <ele>1496.6</ele>
        <time>2022-01-16T06:59:52Z</time>
      </trkpt>
      <trkpt lat="45.22236" lon="6.00484">
        <ele>1496.6</ele>
        <time>2022-01-16T06:59:53Z</time>
      </trkpt>
      <trkpt lat="45.22236" lon="6.0049">
        <ele>1497.6</ele>
        <time>2022-01-16T06:59:58Z</time>
      </trkpt>
      <trkpt lat="45.22236" lon="6.00492">
        <ele>1497.6</ele>
        <time>2022-01-16T06:59:59Z</time>
      </trkpt>
      <trkpt lat="45.22236" lon="6.00493">
        <ele>1497.6</ele>
        <time>2022-01-16T07:00:00Z</time>
      </trkpt>
      <trkpt lat="45.22237" lon="6.00494">
        <ele>1498.8</ele>
        <time>2022-01-16T07:00:01Z</time>
      </trkpt>
      <trkpt lat="45.22239" lon="6.00499">
        <ele>1499.6</ele>
        <time>2022-01-16T07:00:06Z</time>
      </trkpt>
      <trkpt lat="45.22239" lon="6.005">
        <ele>1499.8</ele>
        <time>2022-01-16T07:00:07Z</time>
      </trkpt>
      <trkpt lat="45.22239" lon="6.00503">
        <ele>1500.2</ele>
        <time>2022-01-16T07:00:09Z</time>
      </trkpt>
      <trkpt lat="45.22239" lon="6.00504">
        <ele>1500.8</ele>
        <time>2022-01-16T07:00:10Z</time>
      </trkpt>
      <trkpt lat="45.22239" lon="6.00507">
        <ele>1501.2</ele>
        <time>2022-01-16T07:00:12Z</time>
      </trkpt>
      <trkpt lat="45.2224" lon="6.00509">
        <ele>1501.4</ele>
        <time>2022-01-16T07:00:14Z</time>
      </trkpt>
      <trkpt lat="45.2224" lon="6.0051">
        <ele>1502</ele>
        <time>2022-01-16T07:00:15Z</time>
      </trkpt>
      <trkpt lat="45.2224" lon="6.00513">
        <ele>1502</ele>
        <time>2022-01-16T07:00:17Z</time>
      </trkpt>
      <trkpt lat="45.22238" lon="6.00515">
        <ele>1502.4</ele>
        <time>2022-01-16T07:00:19Z</time>
      </trkpt>
      <trkpt lat="45.22237" lon="6.00515">
        <ele>1502.4</ele>
        <time>2022-01-16T07:00:20Z</time>
      </trkpt>
      <trkpt lat="45.22233" lon="6.00516">
        <ele>1503</ele>
        <time>2022-01-16T07:00:22Z</time>
      </trkpt>
      <trkpt lat="45.22226" lon="6.00515">
        <ele>1504</ele>
        <time>2022-01-16T07:00:28Z</time>
      </trkpt>
      <trkpt lat="45.22225" lon="6.00515">
        <ele>1504</ele>
        <time>2022-01-16T07:00:29Z</time>
      </trkpt>
      <trkpt lat="45.22224" lon="6.00516">
        <ele>1504.2</ele>
        <time>2022-01-16T07:00:30Z</time>
      </trkpt>
      <trkpt lat="45.22221" lon="6.00519">
        <ele>1505.8</ele>
        <time>2022-01-16T07:00:34Z</time>
      </trkpt>
      <trkpt lat="45.22219" lon="6.00521">
        <ele>1506.6</ele>
        <time>2022-01-16T07:00:37Z</time>
      </trkpt>
      <trkpt lat="45.22221" lon="6.00524">
        <ele>1507.2</ele>
        <time>2022-01-16T07:00:39Z</time>
      </trkpt>
      <trkpt lat="45.22221" lon="6.00526">
        <ele>1507.8</ele>
        <time>2022-01-16T07:00:41Z</time>
      </trkpt>
      <trkpt lat="45.22222" lon="6.00527">
        <ele>1508.4</ele>
        <time>2022-01-16T07:00:42Z</time>
      </trkpt>
      <trkpt lat="45.22222" lon="6.00532">
        <ele>1509.8</ele>
        <time>2022-01-16T07:00:46Z</time>
      </trkpt>
      <trkpt lat="45.22222" lon="6.00536">
        <ele>1510.2</ele>
        <time>2022-01-16T07:00:49Z</time>
      </trkpt>
      <trkpt lat="45.22222" lon="6.00538">
        <ele>1511.2</ele>
        <time>2022-01-16T07:00:51Z</time>
      </trkpt>
      <trkpt lat="45.22222" lon="6.00541">
        <ele>1511.6</ele>
        <time>2022-01-16T07:00:53Z</time>
      </trkpt>
      <trkpt lat="45.22223" lon="6.00543">
        <ele>1512</ele>
        <time>2022-01-16T07:00:55Z</time>
      </trkpt>
      <trkpt lat="45.22223" lon="6.00544">
        <ele>1512.4</ele>
        <time>2022-01-16T07:00:56Z</time>
      </trkpt>
      <trkpt lat="45.22223" lon="6.00548">
        <ele>1513.6</ele>
        <time>2022-01-16T07:00:59Z</time>
      </trkpt>
      <trkpt lat="45.22223" lon="6.00552">
        <ele>1514</ele>
        <time>2022-01-16T07:01:02Z</time>
      </trkpt>
      <trkpt lat="45.22223" lon="6.00556">
        <ele>1515</ele>
        <time>2022-01-16T07:01:06Z</time>
      </trkpt>
      <trkpt lat="45.22223" lon="6.00557">
        <ele>1516.4</ele>
        <time>2022-01-16T07:01:07Z</time>
      </trkpt>
      <trkpt lat="45.22224" lon="6.00559">
        <ele>1516.4</ele>
        <time>2022-01-16T07:01:09Z</time>
      </trkpt>
      <trkpt lat="45.22224" lon="6.0056">
        <ele>1516.6</ele>
        <time>2022-01-16T07:01:10Z</time>
      </trkpt>
      <trkpt lat="45.22225" lon="6.00566">
        <ele>1517.8</ele>
        <time>2022-01-16T07:01:14Z</time>
      </trkpt>
      <trkpt lat="45.22224" lon="6.0057">
        <ele>1518.6</ele>
        <time>2022-01-16T07:01:18Z</time>
      </trkpt>
      <trkpt lat="45.22225" lon="6.00571">
        <ele>1518.8</ele>
        <time>2022-01-16T07:01:19Z</time>
      </trkpt>
      <trkpt lat="45.22225" lon="6.00575">
        <ele>1520</ele>
        <time>2022-01-16T07:01:22Z</time>
      </trkpt>
      <trkpt lat="45.22223" lon="6.00578">
        <ele>1520.2</ele>
        <time>2022-01-16T07:01:24Z</time>
      </trkpt>
      <trkpt lat="45.22222" lon="6.00582">
        <ele>1521.2</ele>
        <time>2022-01-16T07:01:27Z</time>
      </trkpt>
      <trkpt lat="45.2222" lon="6.00587">
        <ele>1522.4</ele>
        <time>2022-01-16T07:01:31Z</time>
      </trkpt>
      <trkpt lat="45.22217" lon="6.00593">
        <ele>1523.6</ele>
        <time>2022-01-16T07:01:37Z</time>
      </trkpt>
      <trkpt lat="45.22215" lon="6.00596">
        <ele>1524</ele>
        <time>2022-01-16T07:01:39Z</time>
      </trkpt>
      <trkpt lat="45.22212" lon="6.00601">
        <ele>1525.2</ele>
        <time>2022-01-16T07:01:43Z</time>
      </trkpt>
      <trkpt lat="45.22209" lon="6.00606">
        <ele>1526.2</ele>
        <time>2022-01-16T07:01:48Z</time>
      </trkpt>
      <trkpt lat="45.22208" lon="6.00608">
        <ele>1526.2</ele>
        <time>2022-01-16T07:01:49Z</time>
      </trkpt>
      <trkpt lat="45.22207" lon="6.0061">
        <ele>1527</ele>
        <time>2022-01-16T07:01:51Z</time>
      </trkpt>
      <trkpt lat="45.22206" lon="6.00611">
        <ele>1527.4</ele>
        <time>2022-01-16T07:01:52Z</time>
      </trkpt>
      <trkpt lat="45.22205" lon="6.00612">
        <ele>1527.4</ele>
        <time>2022-01-16T07:01:53Z</time>
      </trkpt>
      <trkpt lat="45.22204" lon="6.00614">
        <ele>1527.4</ele>
        <time>2022-01-16T07:01:54Z</time>
      </trkpt>
      <trkpt lat="45.22201" lon="6.00622">
        <ele>1528</ele>
        <time>2022-01-16T07:01:59Z</time>
      </trkpt>
      <trkpt lat="45.222" lon="6.00624">
        <ele>1528.6</ele>
        <time>2022-01-16T07:02:01Z</time>
      </trkpt>
      <trkpt lat="45.222" lon="6.00628">
        <ele>1529.2</ele>
        <time>2022-01-16T07:02:04Z</time>
      </trkpt>
      <trkpt lat="45.22199" lon="6.0063">
        <ele>1529.8</ele>
        <time>2022-01-16T07:02:06Z</time>
      </trkpt>
      <trkpt lat="45.22197" lon="6.00632">
        <ele>1530.6</ele>
        <time>2022-01-16T07:02:09Z</time>
      </trkpt>
      <trkpt lat="45.22197" lon="6.00633">
        <ele>1531</ele>
        <time>2022-01-16T07:02:10Z</time>
      </trkpt>
      <trkpt lat="45.22197" lon="6.00634">
        <ele>1531.2</ele>
        <time>2022-01-16T07:02:11Z</time>
      </trkpt>
      <trkpt lat="45.22196" lon="6.00639">
        <ele>1532.6</ele>
        <time>2022-01-16T07:02:14Z</time>
      </trkpt>
      <trkpt lat="45.22195" lon="6.00644">
        <ele>1533</ele>
        <time>2022-01-16T07:02:18Z</time>
      </trkpt>
      <trkpt lat="45.22196" lon="6.00646">
        <ele>1533.2</ele>
        <time>2022-01-16T07:02:19Z</time>
      </trkpt>
      <trkpt lat="45.22197" lon="6.00649">
        <ele>1533.8</ele>
        <time>2022-01-16T07:02:21Z</time>
      </trkpt>
      <trkpt lat="45.22197" lon="6.00657">
        <ele>1534.8</ele>
        <time>2022-01-16T07:02:26Z</time>
      </trkpt>
      <trkpt lat="45.22196" lon="6.00658">
        <ele>1534.8</ele>
        <time>2022-01-16T07:02:28Z</time>
      </trkpt>
      <trkpt lat="45.22197" lon="6.00661">
        <ele>1536</ele>
        <time>2022-01-16T07:02:30Z</time>
      </trkpt>
      <trkpt lat="45.22198" lon="6.00664">
        <ele>1536.2</ele>
        <time>2022-01-16T07:02:32Z</time>
      </trkpt>
      <trkpt lat="45.22198" lon="6.00669">
        <ele>1536.8</ele>
        <time>2022-01-16T07:02:35Z</time>
      </trkpt>
      <trkpt lat="45.22198" lon="6.0067">
        <ele>1537.2</ele>
        <time>2022-01-16T07:02:36Z</time>
      </trkpt>
      <trkpt lat="45.22197" lon="6.00675">
        <ele>1538.4</ele>
        <time>2022-01-16T07:02:40Z</time>
      </trkpt>
      <trkpt lat="45.22198" lon="6.00676">
        <ele>1538.6</ele>
        <time>2022-01-16T07:02:41Z</time>
      </trkpt>
      <trkpt lat="45.22198" lon="6.00679">
        <ele>1539</ele>
        <time>2022-01-16T07:02:43Z</time>
      </trkpt>
      <trkpt lat="45.22198" lon="6.00681">
        <ele>1539.4</ele>
        <time>2022-01-16T07:02:45Z</time>
      </trkpt>
      <trkpt lat="45.22198" lon="6.00682">
        <ele>1539.8</ele>
        <time>2022-01-16T07:02:46Z</time>
      </trkpt>
      <trkpt lat="45.22199" lon="6.00684">
        <ele>1540.6</ele>
        <time>2022-01-16T07:02:48Z</time>
      </trkpt>
      <trkpt lat="45.22198" lon="6.00686">
        <ele>1540.8</ele>
        <time>2022-01-16T07:02:49Z</time>
      </trkpt>
      <trkpt lat="45.22196" lon="6.00687">
        <ele>1540.8</ele>
        <time>2022-01-16T07:02:50Z</time>
      </trkpt>
      <trkpt lat="45.22196" lon="6.00692">
        <ele>1541.2</ele>
        <time>2022-01-16T07:02:53Z</time>
      </trkpt>
      <trkpt lat="45.22195" lon="6.00693">
        <ele>1541.8</ele>
        <time>2022-01-16T07:02:54Z</time>
      </trkpt>
      <trkpt lat="45.22196" lon="6.00698">
        <ele>1543.4</ele>
        <time>2022-01-16T07:02:57Z</time>
      </trkpt>
      <trkpt lat="45.22196" lon="6.00703">
        <ele>1543.6</ele>
        <time>2022-01-16T07:03:00Z</time>
      </trkpt>
      <trkpt lat="45.22196" lon="6.00706">
        <ele>1544.6</ele>
        <time>2022-01-16T07:03:02Z</time>
      </trkpt>
      <trkpt lat="45.22196" lon="6.0071">
        <ele>1545</ele>
        <time>2022-01-16T07:03:05Z</time>
      </trkpt>
      <trkpt lat="45.22196" lon="6.00712">
        <ele>1546</ele>
        <time>2022-01-16T07:03:06Z</time>
      </trkpt>
      <trkpt lat="45.22195" lon="6.00712">
        <ele>1546.2</ele>
        <time>2022-01-16T07:03:07Z</time>
      </trkpt>
      <trkpt lat="45.22195" lon="6.0072">
        <ele>1547</ele>
        <time>2022-01-16T07:03:11Z</time>
      </trkpt>
      <trkpt lat="45.22198" lon="6.00726">
        <ele>1548</ele>
        <time>2022-01-16T07:03:15Z</time>
      </trkpt>
      <trkpt lat="45.22198" lon="6.00727">
        <ele>1548.4</ele>
        <time>2022-01-16T07:03:16Z</time>
      </trkpt>
      <trkpt lat="45.22198" lon="6.0073">
        <ele>1549</ele>
        <time>2022-01-16T07:03:18Z</time>
      </trkpt>
      <trkpt lat="45.22199" lon="6.00734">
        <ele>1550</ele>
        <time>2022-01-16T07:03:22Z</time>
      </trkpt>
      <trkpt lat="45.222" lon="6.00739">
        <ele>1550.6</ele>
        <time>2022-01-16T07:03:25Z</time>
      </trkpt>
      <trkpt lat="45.222" lon="6.00742">
        <ele>1551.4</ele>
        <time>2022-01-16T07:03:27Z</time>
      </trkpt>
      <trkpt lat="45.222" lon="6.00748">
        <ele>1552.2</ele>
        <time>2022-01-16T07:03:31Z</time>
      </trkpt>
      <trkpt lat="45.222" lon="6.0075">
        <ele>1552.4</ele>
        <time>2022-01-16T07:03:32Z</time>
      </trkpt>
      <trkpt lat="45.22199" lon="6.00755">
        <ele>1553.6</ele>
        <time>2022-01-16T07:03:35Z</time>
      </trkpt>
      <trkpt lat="45.22198" lon="6.0076">
        <ele>1554.4</ele>
        <time>2022-01-16T07:03:39Z</time>
      </trkpt>
      <trkpt lat="45.22198" lon="6.00761">
        <ele>1554.8</ele>
        <time>2022-01-16T07:03:40Z</time>
      </trkpt>
      <trkpt lat="45.22199" lon="6.00768">
        <ele>1556.2</ele>
        <time>2022-01-16T07:03:45Z</time>
      </trkpt>
      <trkpt lat="45.22201" lon="6.00778">
        <ele>1557.4</ele>
        <time>2022-01-16T07:03:51Z</time>
      </trkpt>
      <trkpt lat="45.22201" lon="6.00779">
        <ele>1557.4</ele>
        <time>2022-01-16T07:03:52Z</time>
      </trkpt>
      <trkpt lat="45.22201" lon="6.00783">
        <ele>1557.6</ele>
        <time>2022-01-16T07:03:54Z</time>
      </trkpt>
      <trkpt lat="45.22204" lon="6.00792">
        <ele>1558.8</ele>
        <time>2022-01-16T07:04:00Z</time>
      </trkpt>
      <trkpt lat="45.22207" lon="6.008">
        <ele>1559.8</ele>
        <time>2022-01-16T07:04:05Z</time>
      </trkpt>
      <trkpt lat="45.22208" lon="6.00801">
        <ele>1560.2</ele>
        <time>2022-01-16T07:04:06Z</time>
      </trkpt>
      <trkpt lat="45.22209" lon="6.00805">
        <ele>1561.2</ele>
        <time>2022-01-16T07:04:10Z</time>
      </trkpt>
      <trkpt lat="45.2221" lon="6.00807">
        <ele>1562.2</ele>
        <time>2022-01-16T07:04:12Z</time>
      </trkpt>
      <trkpt lat="45.2221" lon="6.00809">
        <ele>1562.2</ele>
        <time>2022-01-16T07:04:13Z</time>
      </trkpt>
      <trkpt lat="45.22211" lon="6.0081">
        <ele>1562.4</ele>
        <time>2022-01-16T07:04:14Z</time>
      </trkpt>
      <trkpt lat="45.22212" lon="6.00815">
        <ele>1563.4</ele>
        <time>2022-01-16T07:04:17Z</time>
      </trkpt>
      <trkpt lat="45.22214" lon="6.00819">
        <ele>1564.4</ele>
        <time>2022-01-16T07:04:20Z</time>
      </trkpt>
      <trkpt lat="45.22216" lon="6.00821">
        <ele>1564.6</ele>
        <time>2022-01-16T07:04:22Z</time>
      </trkpt>
      <trkpt lat="45.22217" lon="6.00823">
        <ele>1565.2</ele>
        <time>2022-01-16T07:04:24Z</time>
      </trkpt>
      <trkpt lat="45.22217" lon="6.00824">
        <ele>1565.6</ele>
        <time>2022-01-16T07:04:25Z</time>
      </trkpt>
      <trkpt lat="45.2222" lon="6.00828">
        <ele>1566.6</ele>
        <time>2022-01-16T07:04:28Z</time>
      </trkpt>
      <trkpt lat="45.22221" lon="6.00829">
        <ele>1567</ele>
        <time>2022-01-16T07:04:29Z</time>
      </trkpt>
      <trkpt lat="45.22223" lon="6.00836">
        <ele>1568</ele>
        <time>2022-01-16T07:04:34Z</time>
      </trkpt>
      <trkpt lat="45.22225" lon="6.00841">
        <ele>1568.6</ele>
        <time>2022-01-16T07:04:37Z</time>
      </trkpt>
      <trkpt lat="45.22225" lon="6.00842">
        <ele>1569</ele>
        <time>2022-01-16T07:04:38Z</time>
      </trkpt>
      <trkpt lat="45.22227" lon="6.00847">
        <ele>1570.2</ele>
        <time>2022-01-16T07:04:42Z</time>
      </trkpt>
      <trkpt lat="45.22229" lon="6.00853">
        <ele>1571.2</ele>
        <time>2022-01-16T07:04:46Z</time>
      </trkpt>
      <trkpt lat="45.22229" lon="6.00854">
        <ele>1571.4</ele>
        <time>2022-01-16T07:04:47Z</time>
      </trkpt>
      <trkpt lat="45.22231" lon="6.00858">
        <ele>1572.6</ele>
        <time>2022-01-16T07:04:50Z</time>
      </trkpt>
      <trkpt lat="45.22232" lon="6.0086">
        <ele>1572.8</ele>
        <time>2022-01-16T07:04:52Z</time>
      </trkpt>
      <trkpt lat="45.22236" lon="6.00868">
        <ele>1573.6</ele>
        <time>2022-01-16T07:04:57Z</time>
      </trkpt>
      <trkpt lat="45.22239" lon="6.00872">
        <ele>1574.8</ele>
        <time>2022-01-16T07:05:01Z</time>
      </trkpt>
      <trkpt lat="45.22239" lon="6.00874">
        <ele>1574.8</ele>
        <time>2022-01-16T07:05:02Z</time>
      </trkpt>
      <trkpt lat="45.2224" lon="6.00876">
        <ele>1575.8</ele>
        <time>2022-01-16T07:05:04Z</time>
      </trkpt>
      <trkpt lat="45.22243" lon="6.00882">
        <ele>1577.2</ele>
        <time>2022-01-16T07:05:09Z</time>
      </trkpt>
      <trkpt lat="45.22243" lon="6.00884">
        <ele>1577.6</ele>
        <time>2022-01-16T07:05:10Z</time>
      </trkpt>
      <trkpt lat="45.22244" lon="6.00889">
        <ele>1578.4</ele>
        <time>2022-01-16T07:05:14Z</time>
      </trkpt>
      <trkpt lat="45.22244" lon="6.00893">
        <ele>1578.8</ele>
        <time>2022-01-16T07:05:17Z</time>
      </trkpt>
      <trkpt lat="45.22245" lon="6.00895">
        <ele>1579.4</ele>
        <time>2022-01-16T07:05:20Z</time>
      </trkpt>
      <trkpt lat="45.22247" lon="6.00899">
        <ele>1580.6</ele>
        <time>2022-01-16T07:05:23Z</time>
      </trkpt>
      <trkpt lat="45.22247" lon="6.009">
        <ele>1580.8</ele>
        <time>2022-01-16T07:05:24Z</time>
      </trkpt>
      <trkpt lat="45.22248" lon="6.00902">
        <ele>1581.2</ele>
        <time>2022-01-16T07:05:26Z</time>
      </trkpt>
      <trkpt lat="45.22248" lon="6.00903">
        <ele>1581.8</ele>
        <time>2022-01-16T07:05:27Z</time>
      </trkpt>
      <trkpt lat="45.2225" lon="6.00906">
        <ele>1582.6</ele>
        <time>2022-01-16T07:05:31Z</time>
      </trkpt>
      <trkpt lat="45.2225" lon="6.00911">
        <ele>1583.6</ele>
        <time>2022-01-16T07:05:35Z</time>
      </trkpt>
      <trkpt lat="45.22249" lon="6.00912">
        <ele>1583.8</ele>
        <time>2022-01-16T07:05:36Z</time>
      </trkpt>
      <trkpt lat="45.22249" lon="6.00913">
        <ele>1583.8</ele>
        <time>2022-01-16T07:05:37Z</time>
      </trkpt>
      <trkpt lat="45.22247" lon="6.00915">
        <ele>1584.6</ele>
        <time>2022-01-16T07:05:40Z</time>
      </trkpt>
      <trkpt lat="45.22247" lon="6.00917">
        <ele>1585.6</ele>
        <time>2022-01-16T07:05:41Z</time>
      </trkpt>
      <trkpt lat="45.22245" lon="6.00922">
        <ele>1586.6</ele>
        <time>2022-01-16T07:05:46Z</time>
      </trkpt>
      <trkpt lat="45.22245" lon="6.00923">
        <ele>1587.4</ele>
        <time>2022-01-16T07:05:49Z</time>
      </trkpt>
      <trkpt lat="45.22245" lon="6.00924">
        <ele>1587.6</ele>
        <time>2022-01-16T07:05:50Z</time>
      </trkpt>
      <trkpt lat="45.22243" lon="6.00928">
        <ele>1588.4</ele>
        <time>2022-01-16T07:05:53Z</time>
      </trkpt>
      <trkpt lat="45.22241" lon="6.0093">
        <ele>1589</ele>
        <time>2022-01-16T07:05:55Z</time>
      </trkpt>
      <trkpt lat="45.22237" lon="6.00931">
        <ele>1590.2</ele>
        <time>2022-01-16T07:05:59Z</time>
      </trkpt>
      <trkpt lat="45.22232" lon="6.00931">
        <ele>1591.6</ele>
        <time>2022-01-16T07:06:04Z</time>
      </trkpt>
      <trkpt lat="45.22231" lon="6.00932">
        <ele>1591.6</ele>
        <time>2022-01-16T07:06:05Z</time>
      </trkpt>
      <trkpt lat="45.22228" lon="6.00937">
        <ele>1592.8</ele>
        <time>2022-01-16T07:06:10Z</time>
      </trkpt>
      <trkpt lat="45.22229" lon="6.00943">
        <ele>1593.8</ele>
        <time>2022-01-16T07:06:15Z</time>
      </trkpt>
      <trkpt lat="45.2223" lon="6.00944">
        <ele>1594.4</ele>
        <time>2022-01-16T07:06:16Z</time>
      </trkpt>
      <trkpt lat="45.2223" lon="6.00945">
        <ele>1594.8</ele>
        <time>2022-01-16T07:06:17Z</time>
      </trkpt>
      <trkpt lat="45.2223" lon="6.00947">
        <ele>1595.4</ele>
        <time>2022-01-16T07:06:19Z</time>
      </trkpt>
      <trkpt lat="45.2223" lon="6.00952">
        <ele>1596.4</ele>
        <time>2022-01-16T07:06:23Z</time>
      </trkpt>
      <trkpt lat="45.2223" lon="6.00954">
        <ele>1596.6</ele>
        <time>2022-01-16T07:06:25Z</time>
      </trkpt>
      <trkpt lat="45.22229" lon="6.00956">
        <ele>1597.6</ele>
        <time>2022-01-16T07:06:27Z</time>
      </trkpt>
      <trkpt lat="45.22229" lon="6.00961">
        <ele>1599</ele>
        <time>2022-01-16T07:06:31Z</time>
      </trkpt>
      <trkpt lat="45.22229" lon="6.00963">
        <ele>1599</ele>
        <time>2022-01-16T07:06:33Z</time>
      </trkpt>
      <trkpt lat="45.22229" lon="6.00963">
        <ele>1599.4</ele>
        <time>2022-01-16T07:06:34Z</time>
      </trkpt>
      <trkpt lat="45.22229" lon="6.00965">
        <ele>1600.2</ele>
        <time>2022-01-16T07:06:36Z</time>
      </trkpt>
      <trkpt lat="45.22228" lon="6.00967">
        <ele>1600.4</ele>
        <time>2022-01-16T07:06:37Z</time>
      </trkpt>
      <trkpt lat="45.22228" lon="6.00971">
        <ele>1601.2</ele>
        <time>2022-01-16T07:06:40Z</time>
      </trkpt>
      <trkpt lat="45.22228" lon="6.00973">
        <ele>1601.4</ele>
        <time>2022-01-16T07:06:41Z</time>
      </trkpt>
      <trkpt lat="45.22228" lon="6.00976">
        <ele>1601.8</ele>
        <time>2022-01-16T07:06:43Z</time>
      </trkpt>
      <trkpt lat="45.22229" lon="6.00977">
        <ele>1602.6</ele>
        <time>2022-01-16T07:06:44Z</time>
      </trkpt>
      <trkpt lat="45.22229" lon="6.0098">
        <ele>1602.8</ele>
        <time>2022-01-16T07:06:46Z</time>
      </trkpt>
      <trkpt lat="45.2223" lon="6.00982">
        <ele>1603.2</ele>
        <time>2022-01-16T07:06:47Z</time>
      </trkpt>
      <trkpt lat="45.2223" lon="6.00984">
        <ele>1604</ele>
        <time>2022-01-16T07:06:49Z</time>
      </trkpt>
      <trkpt lat="45.2223" lon="6.00993">
        <ele>1605</ele>
        <time>2022-01-16T07:06:54Z</time>
      </trkpt>
      <trkpt lat="45.2223" lon="6.00994">
        <ele>1605.6</ele>
        <time>2022-01-16T07:06:55Z</time>
      </trkpt>
      <trkpt lat="45.2223" lon="6.00999">
        <ele>1606.4</ele>
        <time>2022-01-16T07:06:58Z</time>
      </trkpt>
      <trkpt lat="45.22233" lon="6.01007">
        <ele>1606.6</ele>
        <time>2022-01-16T07:07:03Z</time>
      </trkpt>
      <trkpt lat="45.22234" lon="6.0101">
        <ele>1607.4</ele>
        <time>2022-01-16T07:07:05Z</time>
      </trkpt>
      <trkpt lat="45.22236" lon="6.01021">
        <ele>1608.4</ele>
        <time>2022-01-16T07:07:11Z</time>
      </trkpt>
      <trkpt lat="45.22235" lon="6.01027">
        <ele>1609.6</ele>
        <time>2022-01-16T07:07:15Z</time>
      </trkpt>
      <trkpt lat="45.22235" lon="6.01029">
        <ele>1609.6</ele>
        <time>2022-01-16T07:07:16Z</time>
      </trkpt>
      <trkpt lat="45.22234" lon="6.01034">
        <ele>1610.4</ele>
        <time>2022-01-16T07:07:19Z</time>
      </trkpt>
      <trkpt lat="45.22234" lon="6.01035">
        <ele>1611.2</ele>
        <time>2022-01-16T07:07:20Z</time>
      </trkpt>
      <trkpt lat="45.22233" lon="6.0104">
        <ele>1611.8</ele>
        <time>2022-01-16T07:07:23Z</time>
      </trkpt>
      <trkpt lat="45.22232" lon="6.01044">
        <ele>1612.4</ele>
        <time>2022-01-16T07:07:26Z</time>
      </trkpt>
      <trkpt lat="45.22234" lon="6.01051">
        <ele>1613.2</ele>
        <time>2022-01-16T07:07:30Z</time>
      </trkpt>
      <trkpt lat="45.22235" lon="6.01055">
        <ele>1613.6</ele>
        <time>2022-01-16T07:07:32Z</time>
      </trkpt>
      <trkpt lat="45.22237" lon="6.01064">
        <ele>1614.6</ele>
        <time>2022-01-16T07:07:37Z</time>
      </trkpt>
      <trkpt lat="45.22236" lon="6.01065">
        <ele>1615</ele>
        <time>2022-01-16T07:07:38Z</time>
      </trkpt>
      <trkpt lat="45.22237" lon="6.01073">
        <ele>1616.2</ele>
        <time>2022-01-16T07:07:43Z</time>
      </trkpt>
      <trkpt lat="45.22237" lon="6.01075">
        <ele>1616.2</ele>
        <time>2022-01-16T07:07:45Z</time>
      </trkpt>
      <trkpt lat="45.22237" lon="6.01085">
        <ele>1617.4</ele>
        <time>2022-01-16T07:07:50Z</time>
      </trkpt>
      <trkpt lat="45.22238" lon="6.0109">
        <ele>1618.4</ele>
        <time>2022-01-16T07:07:54Z</time>
      </trkpt>
      <trkpt lat="45.22238" lon="6.01091">
        <ele>1618.4</ele>
        <time>2022-01-16T07:07:55Z</time>
      </trkpt>
      <trkpt lat="45.22239" lon="6.01095">
        <ele>1619.6</ele>
        <time>2022-01-16T07:07:58Z</time>
      </trkpt>
      <trkpt lat="45.22242" lon="6.01101">
        <ele>1621.4</ele>
        <time>2022-01-16T07:08:03Z</time>
      </trkpt>
      <trkpt lat="45.22242" lon="6.01103">
        <ele>1621.4</ele>
        <time>2022-01-16T07:08:04Z</time>
      </trkpt>
      <trkpt lat="45.22243" lon="6.01107">
        <ele>1622.2</ele>
        <time>2022-01-16T07:08:07Z</time>
      </trkpt>
      <trkpt lat="45.22243" lon="6.01108">
        <ele>1622.4</ele>
        <time>2022-01-16T07:08:08Z</time>
      </trkpt>
      <trkpt lat="45.22244" lon="6.01113">
        <ele>1623.4</ele>
        <time>2022-01-16T07:08:11Z</time>
      </trkpt>
      <trkpt lat="45.22244" lon="6.01114">
        <ele>1623.4</ele>
        <time>2022-01-16T07:08:12Z</time>
      </trkpt>
      <trkpt lat="45.22244" lon="6.01116">
        <ele>1623.4</ele>
        <time>2022-01-16T07:08:13Z</time>
      </trkpt>
      <trkpt lat="45.22244" lon="6.0112">
        <ele>1624.6</ele>
        <time>2022-01-16T07:08:16Z</time>
      </trkpt>
      <trkpt lat="45.22245" lon="6.01125">
        <ele>1624.8</ele>
        <time>2022-01-16T07:08:19Z</time>
      </trkpt>
      <trkpt lat="45.22243" lon="6.01134">
        <ele>1625.6</ele>
        <time>2022-01-16T07:08:24Z</time>
      </trkpt>
      <trkpt lat="45.22243" lon="6.01136">
        <ele>1626</ele>
        <time>2022-01-16T07:08:25Z</time>
      </trkpt>
      <trkpt lat="45.22243" lon="6.01139">
        <ele>1626.4</ele>
        <time>2022-01-16T07:08:27Z</time>
      </trkpt>
      <trkpt lat="45.22242" lon="6.01149">
        <ele>1627</ele>
        <time>2022-01-16T07:08:33Z</time>
      </trkpt>
      <trkpt lat="45.22242" lon="6.01151">
        <ele>1627.2</ele>
        <time>2022-01-16T07:08:34Z</time>
      </trkpt>
      <trkpt lat="45.22243" lon="6.01154">
        <ele>1627.8</ele>
        <time>2022-01-16T07:08:36Z</time>
      </trkpt>
      <trkpt lat="45.22244" lon="6.01161">
        <ele>1628.2</ele>
        <time>2022-01-16T07:08:40Z</time>
      </trkpt>
      <trkpt lat="45.22242" lon="6.0117">
        <ele>1629.4</ele>
        <time>2022-01-16T07:08:46Z</time>
      </trkpt>
      <trkpt lat="45.22243" lon="6.01179">
        <ele>1630.6</ele>
        <time>2022-01-16T07:08:51Z</time>
      </trkpt>
      <trkpt lat="45.22243" lon="6.01181">
        <ele>1630.6</ele>
        <time>2022-01-16T07:08:52Z</time>
      </trkpt>
      <trkpt lat="45.22243" lon="6.01186">
        <ele>1631.4</ele>
        <time>2022-01-16T07:08:56Z</time>
      </trkpt>
      <trkpt lat="45.22243" lon="6.01187">
        <ele>1631.6</ele>
        <time>2022-01-16T07:08:57Z</time>
      </trkpt>
      <trkpt lat="45.22244" lon="6.01189">
        <ele>1631.8</ele>
        <time>2022-01-16T07:08:58Z</time>
      </trkpt>
      <trkpt lat="45.22245" lon="6.01195">
        <ele>1632.8</ele>
        <time>2022-01-16T07:09:02Z</time>
      </trkpt>
      <trkpt lat="45.22245" lon="6.01203">
        <ele>1634.2</ele>
        <time>2022-01-16T07:09:08Z</time>
      </trkpt>
      <trkpt lat="45.22245" lon="6.01204">
        <ele>1634.2</ele>
        <time>2022-01-16T07:09:09Z</time>
      </trkpt>
      <trkpt lat="45.22245" lon="6.01205">
        <ele>1635.2</ele>
        <time>2022-01-16T07:09:10Z</time>
      </trkpt>
      <trkpt lat="45.22246" lon="6.0121">
        <ele>1636.8</ele>
        <time>2022-01-16T07:09:15Z</time>
      </trkpt>
      <trkpt lat="45.22246" lon="6.01212">
        <ele>1636.8</ele>
        <time>2022-01-16T07:09:16Z</time>
      </trkpt>
      <trkpt lat="45.22247" lon="6.01216">
        <ele>1638.2</ele>
        <time>2022-01-16T07:09:20Z</time>
      </trkpt>
      <trkpt lat="45.22248" lon="6.01217">
        <ele>1638.4</ele>
        <time>2022-01-16T07:09:21Z</time>
      </trkpt>
      <trkpt lat="45.22248" lon="6.01222">
        <ele>1639.2</ele>
        <time>2022-01-16T07:09:24Z</time>
      </trkpt>
      <trkpt lat="45.22247" lon="6.01223">
        <ele>1639.4</ele>
        <time>2022-01-16T07:09:25Z</time>
      </trkpt>
      <trkpt lat="45.22247" lon="6.01224">
        <ele>1640.2</ele>
        <time>2022-01-16T07:09:27Z</time>
      </trkpt>
      <trkpt lat="45.22246" lon="6.01225">
        <ele>1640.4</ele>
        <time>2022-01-16T07:09:28Z</time>
      </trkpt>
      <trkpt lat="45.22245" lon="6.01227">
        <ele>1641.2</ele>
        <time>2022-01-16T07:09:30Z</time>
      </trkpt>
      <trkpt lat="45.22244" lon="6.01227">
        <ele>1641.6</ele>
        <time>2022-01-16T07:09:31Z</time>
      </trkpt>
      <trkpt lat="45.22244" lon="6.01228">
        <ele>1641.8</ele>
        <time>2022-01-16T07:09:32Z</time>
      </trkpt>
      <trkpt lat="45.22242" lon="6.01232">
        <ele>1642.4</ele>
        <time>2022-01-16T07:09:35Z</time>
      </trkpt>
      <trkpt lat="45.22243" lon="6.01233">
        <ele>1642.8</ele>
        <time>2022-01-16T07:09:36Z</time>
      </trkpt>
      <trkpt lat="45.22242" lon="6.01235">
        <ele>1643.6</ele>
        <time>2022-01-16T07:09:38Z</time>
      </trkpt>
      <trkpt lat="45.22241" lon="6.01239">
        <ele>1644.2</ele>
        <time>2022-01-16T07:09:41Z</time>
      </trkpt>
      <trkpt lat="45.22238" lon="6.01244">
        <ele>1645.2</ele>
        <time>2022-01-16T07:09:45Z</time>
      </trkpt>
      <trkpt lat="45.22237" lon="6.01244">
        <ele>1645.2</ele>
        <time>2022-01-16T07:09:46Z</time>
      </trkpt>
      <trkpt lat="45.22236" lon="6.01249">
        <ele>1646.4</ele>
        <time>2022-01-16T07:09:50Z</time>
      </trkpt>
      <trkpt lat="45.22237" lon="6.01249">
        <ele>1646.6</ele>
        <time>2022-01-16T07:09:51Z</time>
      </trkpt>
      <trkpt lat="45.22235" lon="6.01255">
        <ele>1647.8</ele>
        <time>2022-01-16T07:09:56Z</time>
      </trkpt>
      <trkpt lat="45.22235" lon="6.01256">
        <ele>1648.2</ele>
        <time>2022-01-16T07:09:57Z</time>
      </trkpt>
      <trkpt lat="45.22235" lon="6.0126">
        <ele>1649</ele>
        <time>2022-01-16T07:10:00Z</time>
      </trkpt>
      <trkpt lat="45.22234" lon="6.01266">
        <ele>1650</ele>
        <time>2022-01-16T07:10:04Z</time>
      </trkpt>
      <trkpt lat="45.22234" lon="6.01268">
        <ele>1650.6</ele>
        <time>2022-01-16T07:10:06Z</time>
      </trkpt>
      <trkpt lat="45.22235" lon="6.0127">
        <ele>1650.8</ele>
        <time>2022-01-16T07:10:07Z</time>
      </trkpt>
      <trkpt lat="45.22235" lon="6.01272">
        <ele>1651.2</ele>
        <time>2022-01-16T07:10:09Z</time>
      </trkpt>
      <trkpt lat="45.22234" lon="6.01274">
        <ele>1651.4</ele>
        <time>2022-01-16T07:10:11Z</time>
      </trkpt>
      <trkpt lat="45.22233" lon="6.01276">
        <ele>1652.4</ele>
        <time>2022-01-16T07:10:13Z</time>
      </trkpt>
      <trkpt lat="45.22233" lon="6.01278">
        <ele>1652.6</ele>
        <time>2022-01-16T07:10:15Z</time>
      </trkpt>
      <trkpt lat="45.22233" lon="6.0128">
        <ele>1653</ele>
        <time>2022-01-16T07:10:16Z</time>
      </trkpt>
      <trkpt lat="45.22233" lon="6.01282">
        <ele>1653.6</ele>
        <time>2022-01-16T07:10:18Z</time>
      </trkpt>
      <trkpt lat="45.22234" lon="6.01286">
        <ele>1654.6</ele>
        <time>2022-01-16T07:10:21Z</time>
      </trkpt>
      <trkpt lat="45.22234" lon="6.01287">
        <ele>1654.8</ele>
        <time>2022-01-16T07:10:22Z</time>
      </trkpt>
      <trkpt lat="45.22236" lon="6.01294">
        <ele>1655.8</ele>
        <time>2022-01-16T07:10:27Z</time>
      </trkpt>
      <trkpt lat="45.22238" lon="6.01298">
        <ele>1656.6</ele>
        <time>2022-01-16T07:10:30Z</time>
      </trkpt>
      <trkpt lat="45.22238" lon="6.01299">
        <ele>1657</ele>
        <time>2022-01-16T07:10:31Z</time>
      </trkpt>
      <trkpt lat="45.22239" lon="6.01302">
        <ele>1658.2</ele>
        <time>2022-01-16T07:10:35Z</time>
      </trkpt>
      <trkpt lat="45.2224" lon="6.01304">
        <ele>1658.2</ele>
        <time>2022-01-16T07:10:37Z</time>
      </trkpt>
      <trkpt lat="45.22241" lon="6.01305">
        <ele>1659</ele>
        <time>2022-01-16T07:10:38Z</time>
      </trkpt>
      <trkpt lat="45.22241" lon="6.01307">
        <ele>1659.2</ele>
        <time>2022-01-16T07:10:40Z</time>
      </trkpt>
      <trkpt lat="45.22243" lon="6.01309">
        <ele>1660.4</ele>
        <time>2022-01-16T07:10:45Z</time>
      </trkpt>
      <trkpt lat="45.22244" lon="6.01309">
        <ele>1660.6</ele>
        <time>2022-01-16T07:10:46Z</time>
      </trkpt>
      <trkpt lat="45.22245" lon="6.01309">
        <ele>1661.4</ele>
        <time>2022-01-16T07:10:48Z</time>
      </trkpt>
      <trkpt lat="45.22251" lon="6.01309">
        <ele>1662.6</ele>
        <time>2022-01-16T07:10:54Z</time>
      </trkpt>
      <trkpt lat="45.22252" lon="6.01308">
        <ele>1662.8</ele>
        <time>2022-01-16T07:10:55Z</time>
      </trkpt>
      <trkpt lat="45.22256" lon="6.01306">
        <ele>1663.8</ele>
        <time>2022-01-16T07:11:00Z</time>
      </trkpt>
      <trkpt lat="45.22256" lon="6.01304">
        <ele>1664.2</ele>
        <time>2022-01-16T07:11:02Z</time>
      </trkpt>
      <trkpt lat="45.22257" lon="6.01304">
        <ele>1664.4</ele>
        <time>2022-01-16T07:11:03Z</time>
      </trkpt>
      <trkpt lat="45.22258" lon="6.01303">
        <ele>1664.8</ele>
        <time>2022-01-16T07:11:04Z</time>
      </trkpt>
      <trkpt lat="45.22262" lon="6.01302">
        <ele>1665.8</ele>
        <time>2022-01-16T07:11:08Z</time>
      </trkpt>
      <trkpt lat="45.22263" lon="6.01301">
        <ele>1666</ele>
        <time>2022-01-16T07:11:09Z</time>
      </trkpt>
      <trkpt lat="45.22267" lon="6.01299">
        <ele>1666.8</ele>
        <time>2022-01-16T07:11:13Z</time>
      </trkpt>
      <trkpt lat="45.22268" lon="6.01299">
        <ele>1667.2</ele>
        <time>2022-01-16T07:11:14Z</time>
      </trkpt>
      <trkpt lat="45.22269" lon="6.01299">
        <ele>1667.2</ele>
        <time>2022-01-16T07:11:15Z</time>
      </trkpt>
      <trkpt lat="45.22271" lon="6.01297">
        <ele>1668</ele>
        <time>2022-01-16T07:11:18Z</time>
      </trkpt>
      <trkpt lat="45.22273" lon="6.01298">
        <ele>1668</ele>
        <time>2022-01-16T07:11:19Z</time>
      </trkpt>
      <trkpt lat="45.22275" lon="6.013">
        <ele>1668.2</ele>
        <time>2022-01-16T07:11:20Z</time>
      </trkpt>
      <trkpt lat="45.22277" lon="6.01303">
        <ele>1668.4</ele>
        <time>2022-01-16T07:11:22Z</time>
      </trkpt>
      <trkpt lat="45.22277" lon="6.01307">
        <ele>1668.8</ele>
        <time>2022-01-16T07:11:24Z</time>
      </trkpt>
      <trkpt lat="45.22277" lon="6.0131">
        <ele>1670</ele>
        <time>2022-01-16T07:11:26Z</time>
      </trkpt>
      <trkpt lat="45.22276" lon="6.0132">
        <ele>1671.4</ele>
        <time>2022-01-16T07:11:31Z</time>
      </trkpt>
      <trkpt lat="45.22277" lon="6.01322">
        <ele>1671.4</ele>
        <time>2022-01-16T07:11:32Z</time>
      </trkpt>
      <trkpt lat="45.22276" lon="6.01323">
        <ele>1671.4</ele>
        <time>2022-01-16T07:11:33Z</time>
      </trkpt>
      <trkpt lat="45.22276" lon="6.01325">
        <ele>1671.6</ele>
        <time>2022-01-16T07:11:34Z</time>
      </trkpt>
      <trkpt lat="45.22275" lon="6.01329">
        <ele>1672.4</ele>
        <time>2022-01-16T07:11:37Z</time>
      </trkpt>
      <trkpt lat="45.22275" lon="6.0133">
        <ele>1672.4</ele>
        <time>2022-01-16T07:11:38Z</time>
      </trkpt>
      <trkpt lat="45.22275" lon="6.01336">
        <ele>1673.6</ele>
        <time>2022-01-16T07:11:42Z</time>
      </trkpt>
      <trkpt lat="45.22276" lon="6.01339">
        <ele>1674</ele>
        <time>2022-01-16T07:11:44Z</time>
      </trkpt>
      <trkpt lat="45.22276" lon="6.01344">
        <ele>1674.8</ele>
        <time>2022-01-16T07:11:46Z</time>
      </trkpt>
      <trkpt lat="45.22273" lon="6.01351">
        <ele>1675.6</ele>
        <time>2022-01-16T07:11:50Z</time>
      </trkpt>
      <trkpt lat="45.22273" lon="6.01355">
        <ele>1675.8</ele>
        <time>2022-01-16T07:11:52Z</time>
      </trkpt>
      <trkpt lat="45.22272" lon="6.01358">
        <ele>1675.8</ele>
        <time>2022-01-16T07:11:54Z</time>
      </trkpt>
      <trkpt lat="45.2227" lon="6.01363">
        <ele>1676.4</ele>
        <time>2022-01-16T07:11:57Z</time>
      </trkpt>
      <trkpt lat="45.22269" lon="6.01365">
        <ele>1676.8</ele>
        <time>2022-01-16T07:11:59Z</time>
      </trkpt>
      <trkpt lat="45.22268" lon="6.01366">
        <ele>1677</ele>
        <time>2022-01-16T07:12:00Z</time>
      </trkpt>
      <trkpt lat="45.22262" lon="6.01369">
        <ele>1677.6</ele>
        <time>2022-01-16T07:12:04Z</time>
      </trkpt>
      <trkpt lat="45.22261" lon="6.01369">
        <ele>1677.8</ele>
        <time>2022-01-16T07:12:05Z</time>
      </trkpt>
      <trkpt lat="45.22256" lon="6.01374">
        <ele>1679</ele>
        <time>2022-01-16T07:12:10Z</time>
      </trkpt>
      <trkpt lat="45.22252" lon="6.01376">
        <ele>1680</ele>
        <time>2022-01-16T07:12:13Z</time>
      </trkpt>
      <trkpt lat="45.22252" lon="6.01377">
        <ele>1680.2</ele>
        <time>2022-01-16T07:12:14Z</time>
      </trkpt>
      <trkpt lat="45.22249" lon="6.0138">
        <ele>1681.2</ele>
        <time>2022-01-16T07:12:18Z</time>
      </trkpt>
      <trkpt lat="45.22242" lon="6.01382">
        <ele>1682.4</ele>
        <time>2022-01-16T07:12:23Z</time>
      </trkpt>
      <trkpt lat="45.22237" lon="6.0139">
        <ele>1683.4</ele>
        <time>2022-01-16T07:12:29Z</time>
      </trkpt>
      <trkpt lat="45.22235" lon="6.01392">
        <ele>1683.8</ele>
        <time>2022-01-16T07:12:31Z</time>
      </trkpt>
      <trkpt lat="45.22233" lon="6.01395">
        <ele>1684.2</ele>
        <time>2022-01-16T07:12:34Z</time>
      </trkpt>
      <trkpt lat="45.22233" lon="6.01396">
        <ele>1684.6</ele>
        <time>2022-01-16T07:12:35Z</time>
      </trkpt>
      <trkpt lat="45.22232" lon="6.01398">
        <ele>1684.8</ele>
        <time>2022-01-16T07:12:36Z</time>
      </trkpt>
      <trkpt lat="45.22232" lon="6.014">
        <ele>1685.6</ele>
        <time>2022-01-16T07:12:38Z</time>
      </trkpt>
      <trkpt lat="45.22231" lon="6.01402">
        <ele>1686</ele>
        <time>2022-01-16T07:12:39Z</time>
      </trkpt>
      <trkpt lat="45.2223" lon="6.01407">
        <ele>1686.6</ele>
        <time>2022-01-16T07:12:43Z</time>
      </trkpt>
      <trkpt lat="45.22229" lon="6.01409">
        <ele>1687</ele>
        <time>2022-01-16T07:12:44Z</time>
      </trkpt>
      <trkpt lat="45.22229" lon="6.01411">
        <ele>1687.6</ele>
        <time>2022-01-16T07:12:46Z</time>
      </trkpt>
      <trkpt lat="45.22229" lon="6.01413">
        <ele>1688.2</ele>
        <time>2022-01-16T07:12:48Z</time>
      </trkpt>
      <trkpt lat="45.22227" lon="6.01418">
        <ele>1689</ele>
        <time>2022-01-16T07:12:51Z</time>
      </trkpt>
      <trkpt lat="45.22227" lon="6.01419">
        <ele>1689.2</ele>
        <time>2022-01-16T07:12:52Z</time>
      </trkpt>
      <trkpt lat="45.22225" lon="6.01425">
        <ele>1690.2</ele>
        <time>2022-01-16T07:12:56Z</time>
      </trkpt>
      <trkpt lat="45.22225" lon="6.01429">
        <ele>1690.8</ele>
        <time>2022-01-16T07:12:58Z</time>
      </trkpt>
      <trkpt lat="45.22225" lon="6.0143">
        <ele>1691.4</ele>
        <time>2022-01-16T07:12:59Z</time>
      </trkpt>
      <trkpt lat="45.22228" lon="6.01442">
        <ele>1692</ele>
        <time>2022-01-16T07:13:05Z</time>
      </trkpt>
      <trkpt lat="45.22229" lon="6.01449">
        <ele>1692</ele>
        <time>2022-01-16T07:13:08Z</time>
      </trkpt>
      <trkpt lat="45.22234" lon="6.01462">
        <ele>1692.4</ele>
        <time>2022-01-16T07:13:14Z</time>
      </trkpt>
      <trkpt lat="45.22236" lon="6.01466">
        <ele>1692.6</ele>
        <time>2022-01-16T07:13:16Z</time>
      </trkpt>
      <trkpt lat="45.22237" lon="6.01474">
        <ele>1693</ele>
        <time>2022-01-16T07:13:20Z</time>
      </trkpt>
      <trkpt lat="45.22237" lon="6.01476">
        <ele>1693</ele>
        <time>2022-01-16T07:13:21Z</time>
      </trkpt>
      <trkpt lat="45.22239" lon="6.01481">
        <ele>1693.4</ele>
        <time>2022-01-16T07:13:24Z</time>
      </trkpt>
      <trkpt lat="45.22239" lon="6.01485">
        <ele>1693.6</ele>
        <time>2022-01-16T07:13:26Z</time>
      </trkpt>
      <trkpt lat="45.22239" lon="6.01489">
        <ele>1693.8</ele>
        <time>2022-01-16T07:13:28Z</time>
      </trkpt>
      <trkpt lat="45.22239" lon="6.01497">
        <ele>1694</ele>
        <time>2022-01-16T07:13:32Z</time>
      </trkpt>
      <trkpt lat="45.22241" lon="6.01509">
        <ele>1694.2</ele>
        <time>2022-01-16T07:13:37Z</time>
      </trkpt>
      <trkpt lat="45.22243" lon="6.01525">
        <ele>1694.4</ele>
        <time>2022-01-16T07:13:43Z</time>
      </trkpt>
      <trkpt lat="45.22244" lon="6.01529">
        <ele>1694.2</ele>
        <time>2022-01-16T07:13:45Z</time>
      </trkpt>
      <trkpt lat="45.22245" lon="6.01543">
        <ele>1694</ele>
        <time>2022-01-16T07:13:51Z</time>
      </trkpt>
      <trkpt lat="45.22246" lon="6.01548">
        <ele>1694.2</ele>
        <time>2022-01-16T07:13:53Z</time>
      </trkpt>
      <trkpt lat="45.22248" lon="6.01557">
        <ele>1694.4</ele>
        <time>2022-01-16T07:13:57Z</time>
      </trkpt>
      <trkpt lat="45.22247" lon="6.01566">
        <ele>1694.4</ele>
        <time>2022-01-16T07:14:01Z</time>
      </trkpt>
      <trkpt lat="45.2225" lon="6.01576">
        <ele>1694.6</ele>
        <time>2022-01-16T07:14:06Z</time>
      </trkpt>
      <trkpt lat="45.22253" lon="6.0159">
        <ele>1694.8</ele>
        <time>2022-01-16T07:14:12Z</time>
      </trkpt>
      <trkpt lat="45.22253" lon="6.01592">
        <ele>1694.8</ele>
        <time>2022-01-16T07:14:13Z</time>
      </trkpt>
      <trkpt lat="45.22254" lon="6.01595">
        <ele>1694.8</ele>
        <time>2022-01-16T07:14:14Z</time>
      </trkpt>
      <trkpt lat="45.22257" lon="6.01606">
        <ele>1695</ele>
        <time>2022-01-16T07:14:19Z</time>
      </trkpt>
      <trkpt lat="45.22258" lon="6.01621">
        <ele>1695</ele>
        <time>2022-01-16T07:14:25Z</time>
      </trkpt>
      <trkpt lat="45.22259" lon="6.01627">
        <ele>1695.2</ele>
        <time>2022-01-16T07:14:27Z</time>
      </trkpt>
      <trkpt lat="45.2226" lon="6.01645">
        <ele>1694.4</ele>
        <time>2022-01-16T07:14:33Z</time>
      </trkpt>
      <trkpt lat="45.22261" lon="6.01648">
        <ele>1694.4</ele>
        <time>2022-01-16T07:14:34Z</time>
      </trkpt>
      <trkpt lat="45.22261" lon="6.01661">
        <ele>1693.6</ele>
        <time>2022-01-16T07:14:38Z</time>
      </trkpt>
      <trkpt lat="45.22261" lon="6.01667">
        <ele>1693.4</ele>
        <time>2022-01-16T07:14:40Z</time>
      </trkpt>
      <trkpt lat="45.22262" lon="6.01676">
        <ele>1692.8</ele>
        <time>2022-01-16T07:14:43Z</time>
      </trkpt>
      <trkpt lat="45.22262" lon="6.0169">
        <ele>1692.4</ele>
        <time>2022-01-16T07:14:48Z</time>
      </trkpt>
      <trkpt lat="45.22262" lon="6.01692">
        <ele>1692.4</ele>
        <time>2022-01-16T07:14:49Z</time>
      </trkpt>
      <trkpt lat="45.22262" lon="6.01701">
        <ele>1692.2</ele>
        <time>2022-01-16T07:14:52Z</time>
      </trkpt>
      <trkpt lat="45.22263" lon="6.01715">
        <ele>1692</ele>
        <time>2022-01-16T07:14:58Z</time>
      </trkpt>
      <trkpt lat="45.22263" lon="6.01717">
        <ele>1692</ele>
        <time>2022-01-16T07:14:59Z</time>
      </trkpt>
      <trkpt lat="45.22263" lon="6.01731">
        <ele>1692.4</ele>
        <time>2022-01-16T07:15:05Z</time>
      </trkpt>
      <trkpt lat="45.22262" lon="6.01734">
        <ele>1692.4</ele>
        <time>2022-01-16T07:15:06Z</time>
      </trkpt>
      <trkpt lat="45.22262" lon="6.01738">
        <ele>1692.4</ele>
        <time>2022-01-16T07:15:07Z</time>
      </trkpt>
      <trkpt lat="45.22261" lon="6.0175">
        <ele>1691.8</ele>
        <time>2022-01-16T07:15:12Z</time>
      </trkpt>
      <trkpt lat="45.22261" lon="6.01755">
        <ele>1691.8</ele>
        <time>2022-01-16T07:15:15Z</time>
      </trkpt>
      <trkpt lat="45.2226" lon="6.01758">
        <ele>1692.4</ele>
        <time>2022-01-16T07:15:17Z</time>
      </trkpt>
      <trkpt lat="45.22261" lon="6.0176">
        <ele>1692.6</ele>
        <time>2022-01-16T07:15:18Z</time>
      </trkpt>
      <trkpt lat="45.22262" lon="6.0177">
        <ele>1693.6</ele>
        <time>2022-01-16T07:15:24Z</time>
      </trkpt>
      <trkpt lat="45.22262" lon="6.01772">
        <ele>1694.6</ele>
        <time>2022-01-16T07:15:26Z</time>
      </trkpt>
      <trkpt lat="45.22262" lon="6.01775">
        <ele>1695.2</ele>
        <time>2022-01-16T07:15:29Z</time>
      </trkpt>
      <trkpt lat="45.22263" lon="6.01777">
        <ele>1695.6</ele>
        <time>2022-01-16T07:15:31Z</time>
      </trkpt>
      <trkpt lat="45.22264" lon="6.01781">
        <ele>1696.8</ele>
        <time>2022-01-16T07:15:35Z</time>
      </trkpt>
      <trkpt lat="45.22265" lon="6.01783">
        <ele>1697</ele>
        <time>2022-01-16T07:15:37Z</time>
      </trkpt>
      <trkpt lat="45.22266" lon="6.01785">
        <ele>1698.2</ele>
        <time>2022-01-16T07:15:39Z</time>
      </trkpt>
      <trkpt lat="45.22267" lon="6.0179">
        <ele>1699</ele>
        <time>2022-01-16T07:15:43Z</time>
      </trkpt>
      <trkpt lat="45.22267" lon="6.01791">
        <ele>1699.2</ele>
        <time>2022-01-16T07:15:44Z</time>
      </trkpt>
      <trkpt lat="45.22269" lon="6.01793">
        <ele>1700</ele>
        <time>2022-01-16T07:15:46Z</time>
      </trkpt>
      <trkpt lat="45.2227" lon="6.01796">
        <ele>1700.6</ele>
        <time>2022-01-16T07:15:48Z</time>
      </trkpt>
      <trkpt lat="45.22269" lon="6.01802">
        <ele>1701.8</ele>
        <time>2022-01-16T07:15:52Z</time>
      </trkpt>
      <trkpt lat="45.22269" lon="6.01802">
        <ele>1701.8</ele>
        <time>2022-01-16T07:15:53Z</time>
      </trkpt>
      <trkpt lat="45.22268" lon="6.01808">
        <ele>1703.2</ele>
        <time>2022-01-16T07:15:58Z</time>
      </trkpt>
      <trkpt lat="45.22269" lon="6.0181">
        <ele>1703.2</ele>
        <time>2022-01-16T07:15:59Z</time>
      </trkpt>
      <trkpt lat="45.22269" lon="6.01812">
        <ele>1703.6</ele>
        <time>2022-01-16T07:16:01Z</time>
      </trkpt>
      <trkpt lat="45.22269" lon="6.01816">
        <ele>1704.6</ele>
        <time>2022-01-16T07:16:04Z</time>
      </trkpt>
      <trkpt lat="45.22267" lon="6.01819">
        <ele>1705.6</ele>
        <time>2022-01-16T07:16:07Z</time>
      </trkpt>
      <trkpt lat="45.22266" lon="6.0182">
        <ele>1705.8</ele>
        <time>2022-01-16T07:16:08Z</time>
      </trkpt>
      <trkpt lat="45.22263" lon="6.01821">
        <ele>1707.2</ele>
        <time>2022-01-16T07:16:11Z</time>
      </trkpt>
      <trkpt lat="45.22261" lon="6.01823">
        <ele>1707.8</ele>
        <time>2022-01-16T07:16:14Z</time>
      </trkpt>
      <trkpt lat="45.2226" lon="6.01823">
        <ele>1708</ele>
        <time>2022-01-16T07:16:15Z</time>
      </trkpt>
      <trkpt lat="45.22253" lon="6.0183">
        <ele>1708</ele>
        <time>2022-01-16T07:16:21Z</time>
      </trkpt>
      <trkpt lat="45.22247" lon="6.0184">
        <ele>1708.2</ele>
        <time>2022-01-16T07:16:27Z</time>
      </trkpt>
      <trkpt lat="45.22247" lon="6.01842">
        <ele>1708.2</ele>
        <time>2022-01-16T07:16:28Z</time>
      </trkpt>
      <trkpt lat="45.22246" lon="6.01844">
        <ele>1708.4</ele>
        <time>2022-01-16T07:16:29Z</time>
      </trkpt>
      <trkpt lat="45.22246" lon="6.01852">
        <ele>1709.4</ele>
        <time>2022-01-16T07:16:34Z</time>
      </trkpt>
      <trkpt lat="45.22246" lon="6.01853">
        <ele>1709.6</ele>
        <time>2022-01-16T07:16:35Z</time>
      </trkpt>
      <trkpt lat="45.22245" lon="6.01861">
        <ele>1710.8</ele>
        <time>2022-01-16T07:16:40Z</time>
      </trkpt>
      <trkpt lat="45.22246" lon="6.01864">
        <ele>1711.4</ele>
        <time>2022-01-16T07:16:42Z</time>
      </trkpt>
      <trkpt lat="45.22246" lon="6.01867">
        <ele>1712.2</ele>
        <time>2022-01-16T07:16:44Z</time>
      </trkpt>
      <trkpt lat="45.22247" lon="6.0188">
        <ele>1712.2</ele>
        <time>2022-01-16T07:16:50Z</time>
      </trkpt>
      <trkpt lat="45.22247" lon="6.01884">
        <ele>1712.2</ele>
        <time>2022-01-16T07:16:52Z</time>
      </trkpt>
      <trkpt lat="45.22246" lon="6.01896">
        <ele>1713</ele>
        <time>2022-01-16T07:16:58Z</time>
      </trkpt>
      <trkpt lat="45.22246" lon="6.01899">
        <ele>1713.8</ele>
        <time>2022-01-16T07:17:00Z</time>
      </trkpt>
      <trkpt lat="45.22247" lon="6.0191">
        <ele>1714.4</ele>
        <time>2022-01-16T07:17:06Z</time>
      </trkpt>
      <trkpt lat="45.22248" lon="6.01916">
        <ele>1714.8</ele>
        <time>2022-01-16T07:17:09Z</time>
      </trkpt>
      <trkpt lat="45.22248" lon="6.01917">
        <ele>1715.2</ele>
        <time>2022-01-16T07:17:10Z</time>
      </trkpt>
      <trkpt lat="45.22249" lon="6.0192">
        <ele>1715.4</ele>
        <time>2022-01-16T07:17:12Z</time>
      </trkpt>
      <trkpt lat="45.22249" lon="6.01926">
        <ele>1716</ele>
        <time>2022-01-16T07:17:15Z</time>
      </trkpt>
      <trkpt lat="45.22248" lon="6.01936">
        <ele>1717.2</ele>
        <time>2022-01-16T07:17:20Z</time>
      </trkpt>
      <trkpt lat="45.22248" lon="6.01949">
        <ele>1717.2</ele>
        <time>2022-01-16T07:17:26Z</time>
      </trkpt>
      <trkpt lat="45.22246" lon="6.01956">
        <ele>1717.2</ele>
        <time>2022-01-16T07:17:29Z</time>
      </trkpt>
      <trkpt lat="45.22245" lon="6.0197">
        <ele>1717.8</ele>
        <time>2022-01-16T07:17:35Z</time>
      </trkpt>
      <trkpt lat="45.22246" lon="6.01976">
        <ele>1718.2</ele>
        <time>2022-01-16T07:17:38Z</time>
      </trkpt>
      <trkpt lat="45.22246" lon="6.01978">
        <ele>1718.4</ele>
        <time>2022-01-16T07:17:39Z</time>
      </trkpt>
      <trkpt lat="45.22248" lon="6.01985">
        <ele>1718.8</ele>
        <time>2022-01-16T07:17:43Z</time>
      </trkpt>
      <trkpt lat="45.22248" lon="6.01991">
        <ele>1719.6</ele>
        <time>2022-01-16T07:17:47Z</time>
      </trkpt>
      <trkpt lat="45.22248" lon="6.01994">
        <ele>1720</ele>
        <time>2022-01-16T07:17:50Z</time>
      </trkpt>
      <trkpt lat="45.22252" lon="6.02002">
        <ele>1721.6</ele>
        <time>2022-01-16T07:17:56Z</time>
      </trkpt>
      <trkpt lat="45.22253" lon="6.02007">
        <ele>1722.4</ele>
        <time>2022-01-16T07:17:59Z</time>
      </trkpt>
      <trkpt lat="45.22252" lon="6.0201">
        <ele>1722.8</ele>
        <time>2022-01-16T07:18:01Z</time>
      </trkpt>
      <trkpt lat="45.22252" lon="6.02015">
        <ele>1723.6</ele>
        <time>2022-01-16T07:18:05Z</time>
      </trkpt>
      <trkpt lat="45.22252" lon="6.02016">
        <ele>1723.8</ele>
        <time>2022-01-16T07:18:06Z</time>
      </trkpt>
      <trkpt lat="45.22252" lon="6.02022">
        <ele>1724.8</ele>
        <time>2022-01-16T07:18:09Z</time>
      </trkpt>
      <trkpt lat="45.2225" lon="6.02027">
        <ele>1725.4</ele>
        <time>2022-01-16T07:18:12Z</time>
      </trkpt>
      <trkpt lat="45.2225" lon="6.02029">
        <ele>1725.6</ele>
        <time>2022-01-16T07:18:13Z</time>
      </trkpt>
      <trkpt lat="45.2225" lon="6.0203">
        <ele>1725.8</ele>
        <time>2022-01-16T07:18:14Z</time>
      </trkpt>
      <trkpt lat="45.22249" lon="6.02038">
        <ele>1727</ele>
        <time>2022-01-16T07:18:19Z</time>
      </trkpt>
      <trkpt lat="45.2225" lon="6.0204">
        <ele>1728.2</ele>
        <time>2022-01-16T07:18:21Z</time>
      </trkpt>
      <trkpt lat="45.2225" lon="6.02048">
        <ele>1729.4</ele>
        <time>2022-01-16T07:18:26Z</time>
      </trkpt>
      <trkpt lat="45.2225" lon="6.02051">
        <ele>1729.6</ele>
        <time>2022-01-16T07:18:28Z</time>
      </trkpt>
      <trkpt lat="45.22249" lon="6.02053">
        <ele>1730.4</ele>
        <time>2022-01-16T07:18:30Z</time>
      </trkpt>
      <trkpt lat="45.22248" lon="6.02056">
        <ele>1730.6</ele>
        <time>2022-01-16T07:18:32Z</time>
      </trkpt>
      <trkpt lat="45.22248" lon="6.02058">
        <ele>1731.4</ele>
        <time>2022-01-16T07:18:33Z</time>
      </trkpt>
      <trkpt lat="45.22248" lon="6.02059">
        <ele>1731.6</ele>
        <time>2022-01-16T07:18:34Z</time>
      </trkpt>
      <trkpt lat="45.22247" lon="6.02064">
        <ele>1733</ele>
        <time>2022-01-16T07:18:38Z</time>
      </trkpt>
      <trkpt lat="45.22247" lon="6.02067">
        <ele>1733.2</ele>
        <time>2022-01-16T07:18:40Z</time>
      </trkpt>
      <trkpt lat="45.22247" lon="6.0207">
        <ele>1734.2</ele>
        <time>2022-01-16T07:18:43Z</time>
      </trkpt>
      <trkpt lat="45.22247" lon="6.02072">
        <ele>1734.4</ele>
        <time>2022-01-16T07:18:44Z</time>
      </trkpt>
      <trkpt lat="45.22248" lon="6.02075">
        <ele>1734.8</ele>
        <time>2022-01-16T07:18:46Z</time>
      </trkpt>
      <trkpt lat="45.22248" lon="6.02077">
        <ele>1735.2</ele>
        <time>2022-01-16T07:18:47Z</time>
      </trkpt>
      <trkpt lat="45.22246" lon="6.02084">
        <ele>1736.4</ele>
        <time>2022-01-16T07:18:53Z</time>
      </trkpt>
      <trkpt lat="45.22246" lon="6.02088">
        <ele>1737.6</ele>
        <time>2022-01-16T07:18:56Z</time>
      </trkpt>
      <trkpt lat="45.22247" lon="6.02093">
        <ele>1738.4</ele>
        <time>2022-01-16T07:19:01Z</time>
      </trkpt>
      <trkpt lat="45.22247" lon="6.02095">
        <ele>1738.6</ele>
        <time>2022-01-16T07:19:03Z</time>
      </trkpt>
      <trkpt lat="45.22247" lon="6.02101">
        <ele>1739.8</ele>
        <time>2022-01-16T07:19:07Z</time>
      </trkpt>
      <trkpt lat="45.22247" lon="6.02104">
        <ele>1740.2</ele>
        <time>2022-01-16T07:19:09Z</time>
      </trkpt>
      <trkpt lat="45.22247" lon="6.0211">
        <ele>1740.8</ele>
        <time>2022-01-16T07:19:12Z</time>
      </trkpt>
      <trkpt lat="45.22248" lon="6.02121">
        <ele>1741.4</ele>
        <time>2022-01-16T07:19:18Z</time>
      </trkpt>
      <trkpt lat="45.22248" lon="6.02122">
        <ele>1741.8</ele>
        <time>2022-01-16T07:19:19Z</time>
      </trkpt>
      <trkpt lat="45.22248" lon="6.02129">
        <ele>1741.8</ele>
        <time>2022-01-16T07:19:22Z</time>
      </trkpt>
      <trkpt lat="45.22247" lon="6.02137">
        <ele>1742.2</ele>
        <time>2022-01-16T07:19:26Z</time>
      </trkpt>
      <trkpt lat="45.22247" lon="6.02141">
        <ele>1742.4</ele>
        <time>2022-01-16T07:19:28Z</time>
      </trkpt>
      <trkpt lat="45.22246" lon="6.02144">
        <ele>1742.6</ele>
        <time>2022-01-16T07:19:30Z</time>
      </trkpt>
      <trkpt lat="45.22244" lon="6.02147">
        <ele>1743</ele>
        <time>2022-01-16T07:19:32Z</time>
      </trkpt>
      <trkpt lat="45.22244" lon="6.0215">
        <ele>1743</ele>
        <time>2022-01-16T07:19:34Z</time>
      </trkpt>
      <trkpt lat="45.22243" lon="6.02155">
        <ele>1743.4</ele>
        <time>2022-01-16T07:19:37Z</time>
      </trkpt>
      <trkpt lat="45.22242" lon="6.02156">
        <ele>1744.4</ele>
        <time>2022-01-16T07:19:38Z</time>
      </trkpt>
      <trkpt lat="45.22241" lon="6.02157">
        <ele>1744.4</ele>
        <time>2022-01-16T07:19:39Z</time>
      </trkpt>
      <trkpt lat="45.22241" lon="6.02158">
        <ele>1744.6</ele>
        <time>2022-01-16T07:19:40Z</time>
      </trkpt>
      <trkpt lat="45.22237" lon="6.02163">
        <ele>1746</ele>
        <time>2022-01-16T07:19:45Z</time>
      </trkpt>
      <trkpt lat="45.22237" lon="6.02166">
        <ele>1746.2</ele>
        <time>2022-01-16T07:19:47Z</time>
      </trkpt>
      <trkpt lat="45.22232" lon="6.02173">
        <ele>1747</ele>
        <time>2022-01-16T07:19:53Z</time>
      </trkpt>
      <trkpt lat="45.22231" lon="6.02174">
        <ele>1747</ele>
        <time>2022-01-16T07:19:54Z</time>
      </trkpt>
      <trkpt lat="45.22225" lon="6.02181">
        <ele>1747.6</ele>
        <time>2022-01-16T07:20:00Z</time>
      </trkpt>
      <trkpt lat="45.22221" lon="6.02185">
        <ele>1748</ele>
        <time>2022-01-16T07:20:03Z</time>
      </trkpt>
      <trkpt lat="45.2222" lon="6.02186">
        <ele>1748.4</ele>
        <time>2022-01-16T07:20:04Z</time>
      </trkpt>
      <trkpt lat="45.22219" lon="6.02188">
        <ele>1749</ele>
        <time>2022-01-16T07:20:06Z</time>
      </trkpt>
      <trkpt lat="45.22215" lon="6.02194">
        <ele>1749.8</ele>
        <time>2022-01-16T07:20:10Z</time>
      </trkpt>
      <trkpt lat="45.22214" lon="6.02196">
        <ele>1750</ele>
        <time>2022-01-16T07:20:12Z</time>
      </trkpt>
      <trkpt lat="45.22214" lon="6.02198">
        <ele>1750.6</ele>
        <time>2022-01-16T07:20:14Z</time>
      </trkpt>
      <trkpt lat="45.22214" lon="6.02199">
        <ele>1750.8</ele>
        <time>2022-01-16T07:20:15Z</time>
      </trkpt>
      <trkpt lat="45.22215" lon="6.02205">
        <ele>1751</ele>
        <time>2022-01-16T07:20:19Z</time>
      </trkpt>
      <trkpt lat="45.22214" lon="6.02206">
        <ele>1750</ele>
        <time>2022-01-16T07:20:23Z</time>
      </trkpt>
      <trkpt lat="45.22215" lon="6.02208">
        <ele>1750</ele>
        <time>2022-01-16T07:20:26Z</time>
      </trkpt>
      <trkpt lat="45.22213" lon="6.02208">
        <ele>1750.2</ele>
        <time>2022-01-16T07:20:31Z</time>
      </trkpt>
      <trkpt lat="45.22214" lon="6.02209">
        <ele>1750.4</ele>
        <time>2022-01-16T07:20:33Z</time>
      </trkpt>
      <trkpt lat="45.22214" lon="6.02209">
        <ele>1750.8</ele>
        <time>2022-01-16T07:20:36Z</time>
      </trkpt>
      <trkpt lat="45.22215" lon="6.02213">
        <ele>1751</ele>
        <time>2022-01-16T07:20:39Z</time>
      </trkpt>
      <trkpt lat="45.22215" lon="6.02215">
        <ele>1751.2</ele>
        <time>2022-01-16T07:20:40Z</time>
      </trkpt>
      <trkpt lat="45.22216" lon="6.02223">
        <ele>1751.8</ele>
        <time>2022-01-16T07:20:44Z</time>
      </trkpt>
      <trkpt lat="45.22216" lon="6.02225">
        <ele>1752</ele>
        <time>2022-01-16T07:20:45Z</time>
      </trkpt>
      <trkpt lat="45.22214" lon="6.02229">
        <ele>1752.4</ele>
        <time>2022-01-16T07:20:47Z</time>
      </trkpt>
      <trkpt lat="45.22212" lon="6.02235">
        <ele>1753</ele>
        <time>2022-01-16T07:20:51Z</time>
      </trkpt>
      <trkpt lat="45.2221" lon="6.02238">
        <ele>1754.2</ele>
        <time>2022-01-16T07:20:54Z</time>
      </trkpt>
      <trkpt lat="45.22208" lon="6.0224">
        <ele>1754.2</ele>
        <time>2022-01-16T07:20:56Z</time>
      </trkpt>
      <trkpt lat="45.22203" lon="6.02246">
        <ele>1755.6</ele>
        <time>2022-01-16T07:21:01Z</time>
      </trkpt>
      <trkpt lat="45.222" lon="6.02247">
        <ele>1756.2</ele>
        <time>2022-01-16T07:21:04Z</time>
      </trkpt>
      <trkpt lat="45.222" lon="6.02248">
        <ele>1756.8</ele>
        <time>2022-01-16T07:21:05Z</time>
      </trkpt>
      <trkpt lat="45.22196" lon="6.02252">
        <ele>1757.8</ele>
        <time>2022-01-16T07:21:10Z</time>
      </trkpt>
      <trkpt lat="45.22195" lon="6.02253">
        <ele>1758</ele>
        <time>2022-01-16T07:21:11Z</time>
      </trkpt>
      <trkpt lat="45.22195" lon="6.02254">
        <ele>1758.2</ele>
        <time>2022-01-16T07:21:12Z</time>
      </trkpt>
      <trkpt lat="45.22193" lon="6.02256">
        <ele>1759.2</ele>
        <time>2022-01-16T07:21:15Z</time>
      </trkpt>
      <trkpt lat="45.22191" lon="6.02258">
        <ele>1760.4</ele>
        <time>2022-01-16T07:21:18Z</time>
      </trkpt>
      <trkpt lat="45.2219" lon="6.02258">
        <ele>1760.4</ele>
        <time>2022-01-16T07:21:19Z</time>
      </trkpt>
      <trkpt lat="45.22189" lon="6.02257">
        <ele>1760.4</ele>
        <time>2022-01-16T07:21:20Z</time>
      </trkpt>
      <trkpt lat="45.22181" lon="6.02262">
        <ele>1761.4</ele>
        <time>2022-01-16T07:21:26Z</time>
      </trkpt>
      <trkpt lat="45.22175" lon="6.02264">
        <ele>1762.6</ele>
        <time>2022-01-16T07:21:31Z</time>
      </trkpt>
      <trkpt lat="45.22174" lon="6.02265">
        <ele>1763</ele>
        <time>2022-01-16T07:21:33Z</time>
      </trkpt>
      <trkpt lat="45.2217" lon="6.02265">
        <ele>1763.6</ele>
        <time>2022-01-16T07:21:36Z</time>
      </trkpt>
      <trkpt lat="45.22163" lon="6.02266">
        <ele>1764.4</ele>
        <time>2022-01-16T07:21:42Z</time>
      </trkpt>
      <trkpt lat="45.22162" lon="6.02266">
        <ele>1764.8</ele>
        <time>2022-01-16T07:21:43Z</time>
      </trkpt>
      <trkpt lat="45.22159" lon="6.02265">
        <ele>1765.2</ele>
        <time>2022-01-16T07:21:45Z</time>
      </trkpt>
      <trkpt lat="45.22157" lon="6.02264">
        <ele>1766.2</ele>
        <time>2022-01-16T07:21:48Z</time>
      </trkpt>
      <trkpt lat="45.22153" lon="6.02264">
        <ele>1767</ele>
        <time>2022-01-16T07:21:52Z</time>
      </trkpt>
      <trkpt lat="45.22151" lon="6.02265">
        <ele>1767.6</ele>
        <time>2022-01-16T07:21:54Z</time>
      </trkpt>
      <trkpt lat="45.22148" lon="6.02266">
        <ele>1768.8</ele>
        <time>2022-01-16T07:21:58Z</time>
      </trkpt>
      <trkpt lat="45.22148" lon="6.02267">
        <ele>1768.8</ele>
        <time>2022-01-16T07:21:59Z</time>
      </trkpt>
      <trkpt lat="45.22148" lon="6.02269">
        <ele>1770.2</ele>
        <time>2022-01-16T07:22:02Z</time>
      </trkpt>
      <trkpt lat="45.22149" lon="6.02272">
        <ele>1771.2</ele>
        <time>2022-01-16T07:22:05Z</time>
      </trkpt>
      <trkpt lat="45.22149" lon="6.02275">
        <ele>1771.6</ele>
        <time>2022-01-16T07:22:07Z</time>
      </trkpt>
      <trkpt lat="45.22149" lon="6.02277">
        <ele>1772</ele>
        <time>2022-01-16T07:22:09Z</time>
      </trkpt>
      <trkpt lat="45.22148" lon="6.02281">
        <ele>1772.6</ele>
        <time>2022-01-16T07:22:12Z</time>
      </trkpt>
      <trkpt lat="45.22149" lon="6.02287">
        <ele>1773.8</ele>
        <time>2022-01-16T07:22:16Z</time>
      </trkpt>
      <trkpt lat="45.22152" lon="6.02292">
        <ele>1774.4</ele>
        <time>2022-01-16T07:22:19Z</time>
      </trkpt>
      <trkpt lat="45.22152" lon="6.02295">
        <ele>1774.8</ele>
        <time>2022-01-16T07:22:21Z</time>
      </trkpt>
      <trkpt lat="45.22151" lon="6.02296">
        <ele>1774.8</ele>
        <time>2022-01-16T07:22:22Z</time>
      </trkpt>
      <trkpt lat="45.22148" lon="6.02299">
        <ele>1775.6</ele>
        <time>2022-01-16T07:22:25Z</time>
      </trkpt>
      <trkpt lat="45.22144" lon="6.02299">
        <ele>1775.8</ele>
        <time>2022-01-16T07:22:28Z</time>
      </trkpt>
      <trkpt lat="45.22144" lon="6.023">
        <ele>1776.4</ele>
        <time>2022-01-16T07:22:29Z</time>
      </trkpt>
      <trkpt lat="45.22141" lon="6.02299">
        <ele>1776.6</ele>
        <time>2022-01-16T07:22:31Z</time>
      </trkpt>
      <trkpt lat="45.22138" lon="6.02299">
        <ele>1777.2</ele>
        <time>2022-01-16T07:22:33Z</time>
      </trkpt>
      <trkpt lat="45.22136" lon="6.02299">
        <ele>1777.6</ele>
        <time>2022-01-16T07:22:34Z</time>
      </trkpt>
      <trkpt lat="45.22133" lon="6.02301">
        <ele>1778.2</ele>
        <time>2022-01-16T07:22:37Z</time>
      </trkpt>
      <trkpt lat="45.22131" lon="6.023">
        <ele>1778.6</ele>
        <time>2022-01-16T07:22:39Z</time>
      </trkpt>
      <trkpt lat="45.22127" lon="6.023">
        <ele>1779.8</ele>
        <time>2022-01-16T07:22:44Z</time>
      </trkpt>
      <trkpt lat="45.22126" lon="6.023">
        <ele>1780.2</ele>
        <time>2022-01-16T07:22:45Z</time>
      </trkpt>
      <trkpt lat="45.22121" lon="6.02299">
        <ele>1781.2</ele>
        <time>2022-01-16T07:22:48Z</time>
      </trkpt>
      <trkpt lat="45.22117" lon="6.02298">
        <ele>1781.8</ele>
        <time>2022-01-16T07:22:51Z</time>
      </trkpt>
      <trkpt lat="45.22114" lon="6.02297">
        <ele>1782.8</ele>
        <time>2022-01-16T07:22:54Z</time>
      </trkpt>
      <trkpt lat="45.22113" lon="6.02296">
        <ele>1783.2</ele>
        <time>2022-01-16T07:22:55Z</time>
      </trkpt>
      <trkpt lat="45.22111" lon="6.02295">
        <ele>1783.6</ele>
        <time>2022-01-16T07:22:58Z</time>
      </trkpt>
      <trkpt lat="45.2211" lon="6.02295">
        <ele>1783.8</ele>
        <time>2022-01-16T07:22:59Z</time>
      </trkpt>
      <trkpt lat="45.22111" lon="6.02297">
        <ele>1785</ele>
        <time>2022-01-16T07:23:02Z</time>
      </trkpt>
      <trkpt lat="45.22111" lon="6.02297">
        <ele>1785</ele>
        <time>2022-01-16T07:23:03Z</time>
      </trkpt>
      <trkpt lat="45.2211" lon="6.02298">
        <ele>1785.4</ele>
        <time>2022-01-16T07:23:04Z</time>
      </trkpt>
      <trkpt lat="45.2211" lon="6.02299">
        <ele>1786</ele>
        <time>2022-01-16T07:23:05Z</time>
      </trkpt>
      <trkpt lat="45.2211" lon="6.02305">
        <ele>1787</ele>
        <time>2022-01-16T07:23:10Z</time>
      </trkpt>
      <trkpt lat="45.2211" lon="6.02306">
        <ele>1787</ele>
        <time>2022-01-16T07:23:11Z</time>
      </trkpt>
      <trkpt lat="45.22112" lon="6.02312">
        <ele>1788.4</ele>
        <time>2022-01-16T07:23:16Z</time>
      </trkpt>
      <trkpt lat="45.22112" lon="6.02313">
        <ele>1789</ele>
        <time>2022-01-16T07:23:17Z</time>
      </trkpt>
      <trkpt lat="45.22112" lon="6.02316">
        <ele>1789.4</ele>
        <time>2022-01-16T07:23:21Z</time>
      </trkpt>
      <trkpt lat="45.22111" lon="6.02319">
        <ele>1790</ele>
        <time>2022-01-16T07:23:24Z</time>
      </trkpt>
      <trkpt lat="45.2211" lon="6.02319">
        <ele>1790.4</ele>
        <time>2022-01-16T07:23:25Z</time>
      </trkpt>
      <trkpt lat="45.22105" lon="6.0232">
        <ele>1791.6</ele>
        <time>2022-01-16T07:23:29Z</time>
      </trkpt>
      <trkpt lat="45.22103" lon="6.0232">
        <ele>1791.6</ele>
        <time>2022-01-16T07:23:30Z</time>
      </trkpt>
      <trkpt lat="45.22095" lon="6.02321">
        <ele>1792.8</ele>
        <time>2022-01-16T07:23:35Z</time>
      </trkpt>
      <trkpt lat="45.22089" lon="6.02321">
        <ele>1793.8</ele>
        <time>2022-01-16T07:23:40Z</time>
      </trkpt>
      <trkpt lat="45.22088" lon="6.02321">
        <ele>1794</ele>
        <time>2022-01-16T07:23:41Z</time>
      </trkpt>
      <trkpt lat="45.22083" lon="6.02319">
        <ele>1795</ele>
        <time>2022-01-16T07:23:46Z</time>
      </trkpt>
      <trkpt lat="45.22079" lon="6.02319">
        <ele>1796.2</ele>
        <time>2022-01-16T07:23:49Z</time>
      </trkpt>
      <trkpt lat="45.22079" lon="6.02319">
        <ele>1796.2</ele>
        <time>2022-01-16T07:23:50Z</time>
      </trkpt>
      <trkpt lat="45.22077" lon="6.02321">
        <ele>1797.8</ele>
        <time>2022-01-16T07:23:53Z</time>
      </trkpt>
      <trkpt lat="45.22077" lon="6.02323">
        <ele>1797.8</ele>
        <time>2022-01-16T07:23:55Z</time>
      </trkpt>
      <trkpt lat="45.22078" lon="6.02326">
        <ele>1799</ele>
        <time>2022-01-16T07:23:58Z</time>
      </trkpt>
      <trkpt lat="45.22077" lon="6.02327">
        <ele>1799.4</ele>
        <time>2022-01-16T07:23:59Z</time>
      </trkpt>
      <trkpt lat="45.22078" lon="6.02333">
        <ele>1800</ele>
        <time>2022-01-16T07:24:03Z</time>
      </trkpt>
      <trkpt lat="45.22077" lon="6.02337">
        <ele>1800.4</ele>
        <time>2022-01-16T07:24:06Z</time>
      </trkpt>
      <trkpt lat="45.22077" lon="6.02338">
        <ele>1801.2</ele>
        <time>2022-01-16T07:24:07Z</time>
      </trkpt>
      <trkpt lat="45.22075" lon="6.02345">
        <ele>1802.4</ele>
        <time>2022-01-16T07:24:13Z</time>
      </trkpt>
      <trkpt lat="45.22075" lon="6.02347">
        <ele>1803</ele>
        <time>2022-01-16T07:24:15Z</time>
      </trkpt>
      <trkpt lat="45.22073" lon="6.0235">
        <ele>1803.6</ele>
        <time>2022-01-16T07:24:18Z</time>
      </trkpt>
      <trkpt lat="45.2207" lon="6.02353">
        <ele>1805</ele>
        <time>2022-01-16T07:24:22Z</time>
      </trkpt>
      <trkpt lat="45.2207" lon="6.02354">
        <ele>1805.2</ele>
        <time>2022-01-16T07:24:23Z</time>
      </trkpt>
      <trkpt lat="45.22069" lon="6.02357">
        <ele>1806</ele>
        <time>2022-01-16T07:24:27Z</time>
      </trkpt>
      <trkpt lat="45.22068" lon="6.02359">
        <ele>1806.2</ele>
        <time>2022-01-16T07:24:28Z</time>
      </trkpt>
      <trkpt lat="45.22066" lon="6.02362">
        <ele>1808</ele>
        <time>2022-01-16T07:24:32Z</time>
      </trkpt>
      <trkpt lat="45.22064" lon="6.02365">
        <ele>1809</ele>
        <time>2022-01-16T07:24:37Z</time>
      </trkpt>
      <trkpt lat="45.22063" lon="6.02367">
        <ele>1809.4</ele>
        <time>2022-01-16T07:24:38Z</time>
      </trkpt>
      <trkpt lat="45.2206" lon="6.02369">
        <ele>1810.2</ele>
        <time>2022-01-16T07:24:42Z</time>
      </trkpt>
      <trkpt lat="45.22057" lon="6.02368">
        <ele>1811</ele>
        <time>2022-01-16T07:24:46Z</time>
      </trkpt>
      <trkpt lat="45.22056" lon="6.02366">
        <ele>1811</ele>
        <time>2022-01-16T07:24:49Z</time>
      </trkpt>
      <trkpt lat="45.22054" lon="6.02366">
        <ele>1811</ele>
        <time>2022-01-16T07:24:55Z</time>
      </trkpt>
      <trkpt lat="45.22055" lon="6.02367">
        <ele>1811</ele>
        <time>2022-01-16T07:24:59Z</time>
      </trkpt>
      <trkpt lat="45.22055" lon="6.02367">
        <ele>1811</ele>
        <time>2022-01-16T07:25:02Z</time>
      </trkpt>
      <trkpt lat="45.22055" lon="6.02367">
        <ele>1811</ele>
        <time>2022-01-16T07:25:04Z</time>
      </trkpt>
      <trkpt lat="45.22055" lon="6.02367">
        <ele>1811</ele>
        <time>2022-01-16T07:25:06Z</time>
      </trkpt>
      <trkpt lat="45.22055" lon="6.02367">
        <ele>1811</ele>
        <time>2022-01-16T07:25:07Z</time>
      </trkpt>
      <trkpt lat="45.22055" lon="6.02367">
        <ele>1811</ele>
        <time>2022-01-16T07:25:10Z</time>
      </trkpt>
      <trkpt lat="45.22055" lon="6.02367">
        <ele>1811</ele>
        <time>2022-01-16T07:25:11Z</time>
      </trkpt>
      <trkpt lat="45.22054" lon="6.02367">
        <ele>1811</ele>
        <time>2022-01-16T07:25:14Z</time>
      </trkpt>
      <trkpt lat="45.22053" lon="6.02368">
        <ele>1811.2</ele>
        <time>2022-01-16T07:25:16Z</time>
      </trkpt>
      <trkpt lat="45.22052" lon="6.0237">
        <ele>1811.4</ele>
        <time>2022-01-16T07:25:18Z</time>
      </trkpt>
      <trkpt lat="45.22052" lon="6.0237">
        <ele>1811.6</ele>
        <time>2022-01-16T07:25:19Z</time>
      </trkpt>
      <trkpt lat="45.22052" lon="6.0237">
        <ele>1811.6</ele>
        <time>2022-01-16T07:25:21Z</time>
      </trkpt>
      <trkpt lat="45.22052" lon="6.0237">
        <ele>1811.6</ele>
        <time>2022-01-16T07:25:22Z</time>
      </trkpt>
      <trkpt lat="45.22052" lon="6.0237">
        <ele>1811.6</ele>
        <time>2022-01-16T07:25:23Z</time>
      </trkpt>
      <trkpt lat="45.22052" lon="6.0237">
        <ele>1811.4</ele>
        <time>2022-01-16T07:25:27Z</time>
      </trkpt>
      <trkpt lat="45.22052" lon="6.0237">
        <ele>1811.4</ele>
        <time>2022-01-16T07:25:28Z</time>
      </trkpt>
      <trkpt lat="45.22052" lon="6.0237">
        <ele>1811.4</ele>
        <time>2022-01-16T07:25:29Z</time>
      </trkpt>
      <trkpt lat="45.22052" lon="6.0237">
        <ele>1811.6</ele>
        <time>2022-01-16T07:25:31Z</time>
      </trkpt>
      <trkpt lat="45.22052" lon="6.0237">
        <ele>1811.6</ele>
        <time>2022-01-16T07:25:32Z</time>
      </trkpt>
      <trkpt lat="45.22052" lon="6.0237">
        <ele>1811.6</ele>
        <time>2022-01-16T07:25:33Z</time>
      </trkpt>
      <trkpt lat="45.22053" lon="6.02369">
        <ele>1811.6</ele>
        <time>2022-01-16T07:25:37Z</time>
      </trkpt>
      <trkpt lat="45.22053" lon="6.02369">
        <ele>1811.6</ele>
        <time>2022-01-16T07:25:39Z</time>
      </trkpt>
      <trkpt lat="45.22053" lon="6.0237">
        <ele>1811.6</ele>
        <time>2022-01-16T07:25:43Z</time>
      </trkpt>
      <trkpt lat="45.22053" lon="6.0237">
        <ele>1811.6</ele>
        <time>2022-01-16T07:25:48Z</time>
      </trkpt>
      <trkpt lat="45.22053" lon="6.0237">
        <ele>1811.6</ele>
        <time>2022-01-16T07:25:51Z</time>
      </trkpt>
      <trkpt lat="45.22054" lon="6.0237">
        <ele>1811.6</ele>
        <time>2022-01-16T07:25:57Z</time>
      </trkpt>
      <trkpt lat="45.22055" lon="6.0237">
        <ele>1811.6</ele>
        <time>2022-01-16T07:25:59Z</time>
      </trkpt>
      <trkpt lat="45.22055" lon="6.0237">
        <ele>1811.6</ele>
        <time>2022-01-16T07:26:02Z</time>
      </trkpt>
      <trkpt lat="45.22056" lon="6.0237">
        <ele>1811.8</ele>
        <time>2022-01-16T07:26:08Z</time>
      </trkpt>
      <trkpt lat="45.22056" lon="6.0237">
        <ele>1811.6</ele>
        <time>2022-01-16T07:26:14Z</time>
      </trkpt>
      <trkpt lat="45.22053" lon="6.02371">
        <ele>1812</ele>
        <time>2022-01-16T07:26:20Z</time>
      </trkpt>
      <trkpt lat="45.22051" lon="6.0237">
        <ele>1812.2</ele>
        <time>2022-01-16T07:26:21Z</time>
      </trkpt>
      <trkpt lat="45.22049" lon="6.0237">
        <ele>1812.4</ele>
        <time>2022-01-16T07:26:22Z</time>
      </trkpt>
      <trkpt lat="45.22042" lon="6.02373">
        <ele>1813.4</ele>
        <time>2022-01-16T07:26:26Z</time>
      </trkpt>
      <trkpt lat="45.22039" lon="6.02374">
        <ele>1814.8</ele>
        <time>2022-01-16T07:26:29Z</time>
      </trkpt>
      <trkpt lat="45.22036" lon="6.02374">
        <ele>1815</ele>
        <time>2022-01-16T07:26:31Z</time>
      </trkpt>
      <trkpt lat="45.22034" lon="6.02374">
        <ele>1815.6</ele>
        <time>2022-01-16T07:26:33Z</time>
      </trkpt>
      <trkpt lat="45.22033" lon="6.02375">
        <ele>1815.8</ele>
        <time>2022-01-16T07:26:34Z</time>
      </trkpt>
      <trkpt lat="45.22031" lon="6.02375">
        <ele>1816.2</ele>
        <time>2022-01-16T07:26:36Z</time>
      </trkpt>
      <trkpt lat="45.22031" lon="6.02374">
        <ele>1817.2</ele>
        <time>2022-01-16T07:26:37Z</time>
      </trkpt>
      <trkpt lat="45.2203" lon="6.02374">
        <ele>1817.6</ele>
        <time>2022-01-16T07:26:38Z</time>
      </trkpt>
      <trkpt lat="45.22029" lon="6.02374">
        <ele>1817.8</ele>
        <time>2022-01-16T07:26:39Z</time>
      </trkpt>
      <trkpt lat="45.22027" lon="6.02376">
        <ele>1818</ele>
        <time>2022-01-16T07:26:41Z</time>
      </trkpt>
      <trkpt lat="45.22026" lon="6.02376">
        <ele>1819</ele>
        <time>2022-01-16T07:26:43Z</time>
      </trkpt>
      <trkpt lat="45.22025" lon="6.02375">
        <ele>1819.4</ele>
        <time>2022-01-16T07:26:45Z</time>
      </trkpt>
      <trkpt lat="45.22024" lon="6.02373">
        <ele>1819.6</ele>
        <time>2022-01-16T07:26:47Z</time>
      </trkpt>
      <trkpt lat="45.22024" lon="6.02372">
        <ele>1820.4</ele>
        <time>2022-01-16T07:26:48Z</time>
      </trkpt>
      <trkpt lat="45.22023" lon="6.0237">
        <ele>1821.2</ele>
        <time>2022-01-16T07:26:50Z</time>
      </trkpt>
      <trkpt lat="45.22022" lon="6.02369">
        <ele>1821.2</ele>
        <time>2022-01-16T07:26:51Z</time>
      </trkpt>
      <trkpt lat="45.22021" lon="6.02368">
        <ele>1821.2</ele>
        <time>2022-01-16T07:26:52Z</time>
      </trkpt>
      <trkpt lat="45.2202" lon="6.02367">
        <ele>1821.6</ele>
        <time>2022-01-16T07:26:54Z</time>
      </trkpt>
      <trkpt lat="45.22017" lon="6.02365">
        <ele>1822.6</ele>
        <time>2022-01-16T07:26:58Z</time>
      </trkpt>
      <trkpt lat="45.22016" lon="6.02364">
        <ele>1822.8</ele>
        <time>2022-01-16T07:26:59Z</time>
      </trkpt>
      <trkpt lat="45.22014" lon="6.02364">
        <ele>1823.2</ele>
        <time>2022-01-16T07:27:01Z</time>
      </trkpt>
      <trkpt lat="45.22013" lon="6.02365">
        <ele>1823.8</ele>
        <time>2022-01-16T07:27:04Z</time>
      </trkpt>
      <trkpt lat="45.22012" lon="6.02366">
        <ele>1824.6</ele>
        <time>2022-01-16T07:27:07Z</time>
      </trkpt>
      <trkpt lat="45.22011" lon="6.02366">
        <ele>1825.6</ele>
        <time>2022-01-16T07:27:09Z</time>
      </trkpt>
      <trkpt lat="45.2201" lon="6.02369">
        <ele>1826.6</ele>
        <time>2022-01-16T07:27:13Z</time>
      </trkpt>
      <trkpt lat="45.22008" lon="6.0237">
        <ele>1826.8</ele>
        <time>2022-01-16T07:27:15Z</time>
      </trkpt>
      <trkpt lat="45.22007" lon="6.02371">
        <ele>1828</ele>
        <time>2022-01-16T07:27:17Z</time>
      </trkpt>
      <trkpt lat="45.22007" lon="6.02374">
        <ele>1828</ele>
        <time>2022-01-16T07:27:20Z</time>
      </trkpt>
      <trkpt lat="45.22006" lon="6.02377">
        <ele>1829.2</ele>
        <time>2022-01-16T07:27:23Z</time>
      </trkpt>
      <trkpt lat="45.22005" lon="6.02379">
        <ele>1829.6</ele>
        <time>2022-01-16T07:27:25Z</time>
      </trkpt>
      <trkpt lat="45.22004" lon="6.0238">
        <ele>1829.6</ele>
        <time>2022-01-16T07:27:26Z</time>
      </trkpt>
      <trkpt lat="45.22003" lon="6.02381">
        <ele>1830.4</ele>
        <time>2022-01-16T07:27:28Z</time>
      </trkpt>
      <trkpt lat="45.21998" lon="6.02384">
        <ele>1831</ele>
        <time>2022-01-16T07:27:32Z</time>
      </trkpt>
      <trkpt lat="45.21998" lon="6.02384">
        <ele>1831.6</ele>
        <time>2022-01-16T07:27:33Z</time>
      </trkpt>
      <trkpt lat="45.21996" lon="6.02383">
        <ele>1831.8</ele>
        <time>2022-01-16T07:27:35Z</time>
      </trkpt>
      <trkpt lat="45.21994" lon="6.02382">
        <ele>1832.4</ele>
        <time>2022-01-16T07:27:37Z</time>
      </trkpt>
      <trkpt lat="45.21993" lon="6.02382">
        <ele>1832.6</ele>
        <time>2022-01-16T07:27:38Z</time>
      </trkpt>
      <trkpt lat="45.21992" lon="6.02382">
        <ele>1832.8</ele>
        <time>2022-01-16T07:27:39Z</time>
      </trkpt>
      <trkpt lat="45.2199" lon="6.02381">
        <ele>1834</ele>
        <time>2022-01-16T07:27:42Z</time>
      </trkpt>
      <trkpt lat="45.21987" lon="6.0238">
        <ele>1835</ele>
        <time>2022-01-16T07:27:47Z</time>
      </trkpt>
      <trkpt lat="45.21983" lon="6.0238">
        <ele>1836.2</ele>
        <time>2022-01-16T07:27:51Z</time>
      </trkpt>
      <trkpt lat="45.21981" lon="6.02381">
        <ele>1837.2</ele>
        <time>2022-01-16T07:27:54Z</time>
      </trkpt>
      <trkpt lat="45.21981" lon="6.02381">
        <ele>1837.4</ele>
        <time>2022-01-16T07:27:55Z</time>
      </trkpt>
      <trkpt lat="45.21979" lon="6.02384">
        <ele>1838.2</ele>
        <time>2022-01-16T07:27:58Z</time>
      </trkpt>
      <trkpt lat="45.21979" lon="6.02385">
        <ele>1838.6</ele>
        <time>2022-01-16T07:27:59Z</time>
      </trkpt>
      <trkpt lat="45.21979" lon="6.02386">
        <ele>1839.6</ele>
        <time>2022-01-16T07:28:00Z</time>
      </trkpt>
      <trkpt lat="45.21979" lon="6.0239">
        <ele>1840.2</ele>
        <time>2022-01-16T07:28:03Z</time>
      </trkpt>
      <trkpt lat="45.21978" lon="6.02395">
        <ele>1840.8</ele>
        <time>2022-01-16T07:28:07Z</time>
      </trkpt>
      <trkpt lat="45.21978" lon="6.02399">
        <ele>1841.6</ele>
        <time>2022-01-16T07:28:10Z</time>
      </trkpt>
      <trkpt lat="45.21978" lon="6.02405">
        <ele>1841.6</ele>
        <time>2022-01-16T07:28:13Z</time>
      </trkpt>
      <trkpt lat="45.21978" lon="6.02408">
        <ele>1842</ele>
        <time>2022-01-16T07:28:15Z</time>
      </trkpt>
      <trkpt lat="45.21979" lon="6.02411">
        <ele>1842.2</ele>
        <time>2022-01-16T07:28:18Z</time>
      </trkpt>
      <trkpt lat="45.21982" lon="6.02414">
        <ele>1843.2</ele>
        <time>2022-01-16T07:28:22Z</time>
      </trkpt>
      <trkpt lat="45.21982" lon="6.02417">
        <ele>1844.2</ele>
        <time>2022-01-16T07:28:25Z</time>
      </trkpt>
      <trkpt lat="45.21983" lon="6.02419">
        <ele>1844.2</ele>
        <time>2022-01-16T07:28:26Z</time>
      </trkpt>
      <trkpt lat="45.21984" lon="6.02424">
        <ele>1845.4</ele>
        <time>2022-01-16T07:28:30Z</time>
      </trkpt>
      <trkpt lat="45.21984" lon="6.02427">
        <ele>1846.6</ele>
        <time>2022-01-16T07:28:33Z</time>
      </trkpt>
      <trkpt lat="45.21985" lon="6.02428">
        <ele>1846.6</ele>
        <time>2022-01-16T07:28:34Z</time>
      </trkpt>
      <trkpt lat="45.21986" lon="6.02433">
        <ele>1847.6</ele>
        <time>2022-01-16T07:28:38Z</time>
      </trkpt>
      <trkpt lat="45.21986" lon="6.02435">
        <ele>1848.6</ele>
        <time>2022-01-16T07:28:41Z</time>
      </trkpt>
      <trkpt lat="45.21987" lon="6.02436">
        <ele>1848.8</ele>
        <time>2022-01-16T07:28:42Z</time>
      </trkpt>
      <trkpt lat="45.21988" lon="6.0244">
        <ele>1849.8</ele>
        <time>2022-01-16T07:28:45Z</time>
      </trkpt>
      <trkpt lat="45.21988" lon="6.02445">
        <ele>1850.6</ele>
        <time>2022-01-16T07:28:50Z</time>
      </trkpt>
      <trkpt lat="45.21988" lon="6.02447">
        <ele>1851</ele>
        <time>2022-01-16T07:28:51Z</time>
      </trkpt>
      <trkpt lat="45.21988" lon="6.02449">
        <ele>1852</ele>
        <time>2022-01-16T07:28:53Z</time>
      </trkpt>
      <trkpt lat="45.21988" lon="6.02451">
        <ele>1852.2</ele>
        <time>2022-01-16T07:28:55Z</time>
      </trkpt>
      <trkpt lat="45.21989" lon="6.02457">
        <ele>1853</ele>
        <time>2022-01-16T07:29:00Z</time>
      </trkpt>
      <trkpt lat="45.21989" lon="6.02459">
        <ele>1854</ele>
        <time>2022-01-16T07:29:02Z</time>
      </trkpt>
      <trkpt lat="45.21989" lon="6.02461">
        <ele>1854</ele>
        <time>2022-01-16T07:29:03Z</time>
      </trkpt>
      <trkpt lat="45.21989" lon="6.02462">
        <ele>1854.2</ele>
        <time>2022-01-16T07:29:04Z</time>
      </trkpt>
      <trkpt lat="45.21989" lon="6.02466">
        <ele>1855.2</ele>
        <time>2022-01-16T07:29:07Z</time>
      </trkpt>
      <trkpt lat="45.2199" lon="6.02469">
        <ele>1855.8</ele>
        <time>2022-01-16T07:29:10Z</time>
      </trkpt>
      <trkpt lat="45.2199" lon="6.02471">
        <ele>1856.2</ele>
        <time>2022-01-16T07:29:11Z</time>
      </trkpt>
      <trkpt lat="45.2199" lon="6.02471">
        <ele>1856.6</ele>
        <time>2022-01-16T07:29:12Z</time>
      </trkpt>
      <trkpt lat="45.2199" lon="6.02472">
        <ele>1857</ele>
        <time>2022-01-16T07:29:13Z</time>
      </trkpt>
      <trkpt lat="45.21991" lon="6.02475">
        <ele>1857.2</ele>
        <time>2022-01-16T07:29:15Z</time>
      </trkpt>
      <trkpt lat="45.21992" lon="6.02475">
        <ele>1858</ele>
        <time>2022-01-16T07:29:16Z</time>
      </trkpt>
      <trkpt lat="45.21993" lon="6.02482">
        <ele>1859.4</ele>
        <time>2022-01-16T07:29:22Z</time>
      </trkpt>
      <trkpt lat="45.21991" lon="6.02489">
        <ele>1860.2</ele>
        <time>2022-01-16T07:29:28Z</time>
      </trkpt>
      <trkpt lat="45.21989" lon="6.02489">
        <ele>1860.4</ele>
        <time>2022-01-16T07:29:30Z</time>
      </trkpt>
      <trkpt lat="45.21985" lon="6.02489">
        <ele>1861.2</ele>
        <time>2022-01-16T07:29:33Z</time>
      </trkpt>
      <trkpt lat="45.21983" lon="6.02489">
        <ele>1861.4</ele>
        <time>2022-01-16T07:29:35Z</time>
      </trkpt>
      <trkpt lat="45.2198" lon="6.02488">
        <ele>1862.4</ele>
        <time>2022-01-16T07:29:38Z</time>
      </trkpt>
      <trkpt lat="45.21979" lon="6.02488">
        <ele>1862.6</ele>
        <time>2022-01-16T07:29:39Z</time>
      </trkpt>
      <trkpt lat="45.21976" lon="6.02487">
        <ele>1863.6</ele>
        <time>2022-01-16T07:29:42Z</time>
      </trkpt>
      <trkpt lat="45.21972" lon="6.02486">
        <ele>1864.8</ele>
        <time>2022-01-16T07:29:46Z</time>
      </trkpt>
      <trkpt lat="45.2197" lon="6.02486">
        <ele>1865</ele>
        <time>2022-01-16T07:29:47Z</time>
      </trkpt>
      <trkpt lat="45.2197" lon="6.02486">
        <ele>1865</ele>
        <time>2022-01-16T07:29:48Z</time>
      </trkpt>
      <trkpt lat="45.21969" lon="6.02485">
        <ele>1865</ele>
        <time>2022-01-16T07:29:49Z</time>
      </trkpt>
      <trkpt lat="45.21967" lon="6.02485">
        <ele>1866</ele>
        <time>2022-01-16T07:29:51Z</time>
      </trkpt>
      <trkpt lat="45.21965" lon="6.02485">
        <ele>1866.4</ele>
        <time>2022-01-16T07:29:53Z</time>
      </trkpt>
      <trkpt lat="45.21962" lon="6.02484">
        <ele>1867.2</ele>
        <time>2022-01-16T07:29:56Z</time>
      </trkpt>
      <trkpt lat="45.21958" lon="6.02483">
        <ele>1868.6</ele>
        <time>2022-01-16T07:30:01Z</time>
      </trkpt>
      <trkpt lat="45.21956" lon="6.02482">
        <ele>1869.4</ele>
        <time>2022-01-16T07:30:03Z</time>
      </trkpt>
      <trkpt lat="45.21954" lon="6.02481">
        <ele>1870</ele>
        <time>2022-01-16T07:30:05Z</time>
      </trkpt>
      <trkpt lat="45.21951" lon="6.0248">
        <ele>1871.4</ele>
        <time>2022-01-16T07:30:09Z</time>
      </trkpt>
      <trkpt lat="45.21949" lon="6.02478">
        <ele>1871.6</ele>
        <time>2022-01-16T07:30:11Z</time>
      </trkpt>
      <trkpt lat="45.21947" lon="6.02476">
        <ele>1872.4</ele>
        <time>2022-01-16T07:30:14Z</time>
      </trkpt>
      <trkpt lat="45.21947" lon="6.02474">
        <ele>1873.6</ele>
        <time>2022-01-16T07:30:17Z</time>
      </trkpt>
      <trkpt lat="45.21944" lon="6.02472">
        <ele>1874.4</ele>
        <time>2022-01-16T07:30:20Z</time>
      </trkpt>
      <trkpt lat="45.21943" lon="6.02472">
        <ele>1874.6</ele>
        <time>2022-01-16T07:30:21Z</time>
      </trkpt>
      <trkpt lat="45.2194" lon="6.0247">
        <ele>1875.8</ele>
        <time>2022-01-16T07:30:24Z</time>
      </trkpt>
      <trkpt lat="45.21936" lon="6.02469">
        <ele>1876.4</ele>
        <time>2022-01-16T07:30:28Z</time>
      </trkpt>
      <trkpt lat="45.21932" lon="6.02466">
        <ele>1877</ele>
        <time>2022-01-16T07:30:32Z</time>
      </trkpt>
      <trkpt lat="45.2193" lon="6.02466">
        <ele>1878.2</ele>
        <time>2022-01-16T07:30:34Z</time>
      </trkpt>
      <trkpt lat="45.21928" lon="6.02465">
        <ele>1878.8</ele>
        <time>2022-01-16T07:30:37Z</time>
      </trkpt>
      <trkpt lat="45.21926" lon="6.02466">
        <ele>1879</ele>
        <time>2022-01-16T07:30:38Z</time>
      </trkpt>
      <trkpt lat="45.21926" lon="6.02466">
        <ele>1879.4</ele>
        <time>2022-01-16T07:30:39Z</time>
      </trkpt>
      <trkpt lat="45.21923" lon="6.02465">
        <ele>1880.4</ele>
        <time>2022-01-16T07:30:42Z</time>
      </trkpt>
      <trkpt lat="45.21922" lon="6.02464">
        <ele>1880.6</ele>
        <time>2022-01-16T07:30:43Z</time>
      </trkpt>
      <trkpt lat="45.21919" lon="6.02462">
        <ele>1881.8</ele>
        <time>2022-01-16T07:30:47Z</time>
      </trkpt>
      <trkpt lat="45.21915" lon="6.02461">
        <ele>1882.6</ele>
        <time>2022-01-16T07:30:51Z</time>
      </trkpt>
      <trkpt lat="45.21914" lon="6.0246">
        <ele>1883</ele>
        <time>2022-01-16T07:30:52Z</time>
      </trkpt>
      <trkpt lat="45.21911" lon="6.02457">
        <ele>1883.8</ele>
        <time>2022-01-16T07:30:56Z</time>
      </trkpt>
      <trkpt lat="45.2191" lon="6.02457">
        <ele>1884.2</ele>
        <time>2022-01-16T07:30:57Z</time>
      </trkpt>
      <trkpt lat="45.2191" lon="6.02456">
        <ele>1884.2</ele>
        <time>2022-01-16T07:30:58Z</time>
      </trkpt>
      <trkpt lat="45.21909" lon="6.02454">
        <ele>1885.6</ele>
        <time>2022-01-16T07:31:00Z</time>
      </trkpt>
      <trkpt lat="45.21907" lon="6.02453">
        <ele>1885.8</ele>
        <time>2022-01-16T07:31:02Z</time>
      </trkpt>
      <trkpt lat="45.21905" lon="6.0245">
        <ele>1887.2</ele>
        <time>2022-01-16T07:31:06Z</time>
      </trkpt>
      <trkpt lat="45.21902" lon="6.02448">
        <ele>1887.6</ele>
        <time>2022-01-16T07:31:10Z</time>
      </trkpt>
      <trkpt lat="45.219" lon="6.02448">
        <ele>1888.4</ele>
        <time>2022-01-16T07:31:11Z</time>
      </trkpt>
      <trkpt lat="45.21897" lon="6.02447">
        <ele>1889.8</ele>
        <time>2022-01-16T07:31:15Z</time>
      </trkpt>
      <trkpt lat="45.21893" lon="6.02446">
        <ele>1890.4</ele>
        <time>2022-01-16T07:31:18Z</time>
      </trkpt>
      <trkpt lat="45.21893" lon="6.02445">
        <ele>1890.8</ele>
        <time>2022-01-16T07:31:19Z</time>
      </trkpt>
      <trkpt lat="45.21892" lon="6.02444">
        <ele>1891.2</ele>
        <time>2022-01-16T07:31:20Z</time>
      </trkpt>
      <trkpt lat="45.2189" lon="6.02444">
        <ele>1891.2</ele>
        <time>2022-01-16T07:31:22Z</time>
      </trkpt>
      <trkpt lat="45.21887" lon="6.0244">
        <ele>1892.2</ele>
        <time>2022-01-16T07:31:26Z</time>
      </trkpt>
      <trkpt lat="45.21886" lon="6.02439">
        <ele>1892.6</ele>
        <time>2022-01-16T07:31:27Z</time>
      </trkpt>
      <trkpt lat="45.21884" lon="6.02437">
        <ele>1893.6</ele>
        <time>2022-01-16T07:31:30Z</time>
      </trkpt>
      <trkpt lat="45.21883" lon="6.02435">
        <ele>1894.4</ele>
        <time>2022-01-16T07:31:33Z</time>
      </trkpt>
      <trkpt lat="45.21882" lon="6.02434">
        <ele>1895</ele>
        <time>2022-01-16T07:31:34Z</time>
      </trkpt>
      <trkpt lat="45.2188" lon="6.02431">
        <ele>1896</ele>
        <time>2022-01-16T07:31:37Z</time>
      </trkpt>
      <trkpt lat="45.21877" lon="6.02429">
        <ele>1896.8</ele>
        <time>2022-01-16T07:31:40Z</time>
      </trkpt>
      <trkpt lat="45.21876" lon="6.02428">
        <ele>1897</ele>
        <time>2022-01-16T07:31:42Z</time>
      </trkpt>
      <trkpt lat="45.21875" lon="6.02427">
        <ele>1897.4</ele>
        <time>2022-01-16T07:31:43Z</time>
      </trkpt>
      <trkpt lat="45.21874" lon="6.02425">
        <ele>1898.2</ele>
        <time>2022-01-16T07:31:45Z</time>
      </trkpt>
      <trkpt lat="45.21873" lon="6.02424">
        <ele>1898.2</ele>
        <time>2022-01-16T07:31:46Z</time>
      </trkpt>
      <trkpt lat="45.21872" lon="6.02423">
        <ele>1899.2</ele>
        <time>2022-01-16T07:31:48Z</time>
      </trkpt>
      <trkpt lat="45.2187" lon="6.02422">
        <ele>1900</ele>
        <time>2022-01-16T07:31:51Z</time>
      </trkpt>
      <trkpt lat="45.21869" lon="6.02422">
        <ele>1900.4</ele>
        <time>2022-01-16T07:31:52Z</time>
      </trkpt>
      <trkpt lat="45.21869" lon="6.02421">
        <ele>1900.4</ele>
        <time>2022-01-16T07:31:53Z</time>
      </trkpt>
      <trkpt lat="45.21865" lon="6.02419">
        <ele>1901.6</ele>
        <time>2022-01-16T07:31:57Z</time>
      </trkpt>
      <trkpt lat="45.21863" lon="6.02417">
        <ele>1902.6</ele>
        <time>2022-01-16T07:32:00Z</time>
      </trkpt>
      <trkpt lat="45.21862" lon="6.02417">
        <ele>1902.6</ele>
        <time>2022-01-16T07:32:01Z</time>
      </trkpt>
      <trkpt lat="45.21861" lon="6.02415">
        <ele>1903.4</ele>
        <time>2022-01-16T07:32:03Z</time>
      </trkpt>
      <trkpt lat="45.2186" lon="6.02413">
        <ele>1903.8</ele>
        <time>2022-01-16T07:32:05Z</time>
      </trkpt>
      <trkpt lat="45.21858" lon="6.02413">
        <ele>1905</ele>
        <time>2022-01-16T07:32:07Z</time>
      </trkpt>
      <trkpt lat="45.21855" lon="6.02412">
        <ele>1905.4</ele>
        <time>2022-01-16T07:32:10Z</time>
      </trkpt>
      <trkpt lat="45.21854" lon="6.02412">
        <ele>1905.4</ele>
        <time>2022-01-16T07:32:11Z</time>
      </trkpt>
      <trkpt lat="45.21853" lon="6.02412">
        <ele>1906</ele>
        <time>2022-01-16T07:32:13Z</time>
      </trkpt>
      <trkpt lat="45.21849" lon="6.02411">
        <ele>1907.4</ele>
        <time>2022-01-16T07:32:18Z</time>
      </trkpt>
      <trkpt lat="45.21849" lon="6.0241">
        <ele>1908.2</ele>
        <time>2022-01-16T07:32:19Z</time>
      </trkpt>
      <trkpt lat="45.21848" lon="6.0241">
        <ele>1908.4</ele>
        <time>2022-01-16T07:32:20Z</time>
      </trkpt>
      <trkpt lat="45.21844" lon="6.02408">
        <ele>1909.8</ele>
        <time>2022-01-16T07:32:25Z</time>
      </trkpt>
      <trkpt lat="45.21843" lon="6.02407">
        <ele>1910.6</ele>
        <time>2022-01-16T07:32:26Z</time>
      </trkpt>
      <trkpt lat="45.21843" lon="6.02407">
        <ele>1910.8</ele>
        <time>2022-01-16T07:32:27Z</time>
      </trkpt>
      <trkpt lat="45.2184" lon="6.02402">
        <ele>1911.8</ele>
        <time>2022-01-16T07:32:33Z</time>
      </trkpt>
      <trkpt lat="45.21839" lon="6.02402">
        <ele>1913</ele>
        <time>2022-01-16T07:32:34Z</time>
      </trkpt>
      <trkpt lat="45.21835" lon="6.02398">
        <ele>1913.4</ele>
        <time>2022-01-16T07:32:39Z</time>
      </trkpt>
      <trkpt lat="45.21835" lon="6.02397">
        <ele>1914.2</ele>
        <time>2022-01-16T07:32:40Z</time>
      </trkpt>
      <trkpt lat="45.21834" lon="6.02394">
        <ele>1915.2</ele>
        <time>2022-01-16T07:32:43Z</time>
      </trkpt>
      <trkpt lat="45.21831" lon="6.02391">
        <ele>1916.4</ele>
        <time>2022-01-16T07:32:48Z</time>
      </trkpt>
      <trkpt lat="45.2183" lon="6.0239">
        <ele>1916.8</ele>
        <time>2022-01-16T07:32:49Z</time>
      </trkpt>
      <trkpt lat="45.21829" lon="6.02389">
        <ele>1917.6</ele>
        <time>2022-01-16T07:32:51Z</time>
      </trkpt>
      <trkpt lat="45.21827" lon="6.02388">
        <ele>1918</ele>
        <time>2022-01-16T07:32:53Z</time>
      </trkpt>
      <trkpt lat="45.21824" lon="6.02385">
        <ele>1918.8</ele>
        <time>2022-01-16T07:32:57Z</time>
      </trkpt>
      <trkpt lat="45.21824" lon="6.02385">
        <ele>1919.4</ele>
        <time>2022-01-16T07:32:58Z</time>
      </trkpt>
      <trkpt lat="45.21822" lon="6.02383">
        <ele>1919.8</ele>
        <time>2022-01-16T07:33:01Z</time>
      </trkpt>
      <trkpt lat="45.21821" lon="6.02378">
        <ele>1921</ele>
        <time>2022-01-16T07:33:05Z</time>
      </trkpt>
      <trkpt lat="45.2182" lon="6.02377">
        <ele>1921.2</ele>
        <time>2022-01-16T07:33:06Z</time>
      </trkpt>
      <trkpt lat="45.2182" lon="6.02374">
        <ele>1921.6</ele>
        <time>2022-01-16T07:33:08Z</time>
      </trkpt>
      <trkpt lat="45.21821" lon="6.02371">
        <ele>1922.6</ele>
        <time>2022-01-16T07:33:11Z</time>
      </trkpt>
      <trkpt lat="45.21823" lon="6.02368">
        <ele>1922.8</ele>
        <time>2022-01-16T07:33:14Z</time>
      </trkpt>
      <trkpt lat="45.21825" lon="6.02374">
        <ele>1923.2</ele>
        <time>2022-01-16T07:33:20Z</time>
      </trkpt>
      <trkpt lat="45.21826" lon="6.02382">
        <ele>1923.6</ele>
        <time>2022-01-16T07:33:25Z</time>
      </trkpt>
      <trkpt lat="45.21827" lon="6.02386">
        <ele>1924</ele>
        <time>2022-01-16T07:33:28Z</time>
      </trkpt>
      <trkpt lat="45.21827" lon="6.02389">
        <ele>1924.2</ele>
        <time>2022-01-16T07:33:30Z</time>
      </trkpt>
      <trkpt lat="45.21829" lon="6.02393">
        <ele>1924.8</ele>
        <time>2022-01-16T07:33:34Z</time>
      </trkpt>
      <trkpt lat="45.2183" lon="6.02396">
        <ele>1925.4</ele>
        <time>2022-01-16T07:33:37Z</time>
      </trkpt>
      <trkpt lat="45.2183" lon="6.02396">
        <ele>1926</ele>
        <time>2022-01-16T07:33:38Z</time>
      </trkpt>
      <trkpt lat="45.21831" lon="6.02397">
        <ele>1926</ele>
        <time>2022-01-16T07:33:39Z</time>
      </trkpt>
      <trkpt lat="45.21832" lon="6.02401">
        <ele>1927.2</ele>
        <time>2022-01-16T07:33:43Z</time>
      </trkpt>
      <trkpt lat="45.21833" lon="6.02404">
        <ele>1927.6</ele>
        <time>2022-01-16T07:33:45Z</time>
      </trkpt>
      <trkpt lat="45.21834" lon="6.02408">
        <ele>1928.4</ele>
        <time>2022-01-16T07:33:48Z</time>
      </trkpt>
      <trkpt lat="45.21835" lon="6.02412">
        <ele>1929.4</ele>
        <time>2022-01-16T07:33:52Z</time>
      </trkpt>
      <trkpt lat="45.21836" lon="6.02415">
        <ele>1929.6</ele>
        <time>2022-01-16T07:33:54Z</time>
      </trkpt>
      <trkpt lat="45.21837" lon="6.02419">
        <ele>1930.6</ele>
        <time>2022-01-16T07:33:57Z</time>
      </trkpt>
      <trkpt lat="45.21838" lon="6.02423">
        <ele>1931</ele>
        <time>2022-01-16T07:34:00Z</time>
      </trkpt>
      <trkpt lat="45.21841" lon="6.02429">
        <ele>1931.8</ele>
        <time>2022-01-16T07:34:04Z</time>
      </trkpt>
      <trkpt lat="45.21843" lon="6.02435">
        <ele>1932.8</ele>
        <time>2022-01-16T07:34:08Z</time>
      </trkpt>
      <trkpt lat="45.21844" lon="6.02438">
        <ele>1933.2</ele>
        <time>2022-01-16T07:34:10Z</time>
      </trkpt>
      <trkpt lat="45.21846" lon="6.02443">
        <ele>1934</ele>
        <time>2022-01-16T07:34:14Z</time>
      </trkpt>
      <trkpt lat="45.21847" lon="6.02447">
        <ele>1935</ele>
        <time>2022-01-16T07:34:17Z</time>
      </trkpt>
      <trkpt lat="45.21848" lon="6.02448">
        <ele>1935.2</ele>
        <time>2022-01-16T07:34:18Z</time>
      </trkpt>
      <trkpt lat="45.21848" lon="6.02455">
        <ele>1936.4</ele>
        <time>2022-01-16T07:34:23Z</time>
      </trkpt>
      <trkpt lat="45.2185" lon="6.02459">
        <ele>1937</ele>
        <time>2022-01-16T07:34:26Z</time>
      </trkpt>
      <trkpt lat="45.2185" lon="6.02462">
        <ele>1937.4</ele>
        <time>2022-01-16T07:34:28Z</time>
      </trkpt>
      <trkpt lat="45.2185" lon="6.02467">
        <ele>1938.6</ele>
        <time>2022-01-16T07:34:32Z</time>
      </trkpt>
      <trkpt lat="45.21851" lon="6.02471">
        <ele>1939.8</ele>
        <time>2022-01-16T07:34:36Z</time>
      </trkpt>
      <trkpt lat="45.21851" lon="6.02474">
        <ele>1940.4</ele>
        <time>2022-01-16T07:34:38Z</time>
      </trkpt>
      <trkpt lat="45.21851" lon="6.02475">
        <ele>1940.6</ele>
        <time>2022-01-16T07:34:40Z</time>
      </trkpt>
      <trkpt lat="45.21851" lon="6.02477">
        <ele>1941</ele>
        <time>2022-01-16T07:34:41Z</time>
      </trkpt>
      <trkpt lat="45.21852" lon="6.02482">
        <ele>1942.4</ele>
        <time>2022-01-16T07:34:46Z</time>
      </trkpt>
      <trkpt lat="45.21853" lon="6.02487">
        <ele>1943.4</ele>
        <time>2022-01-16T07:34:50Z</time>
      </trkpt>
      <trkpt lat="45.21853" lon="6.0249">
        <ele>1944.2</ele>
        <time>2022-01-16T07:34:53Z</time>
      </trkpt>
      <trkpt lat="45.21853" lon="6.02493">
        <ele>1945.4</ele>
        <time>2022-01-16T07:34:55Z</time>
      </trkpt>
      <trkpt lat="45.21853" lon="6.02495">
        <ele>1945.8</ele>
        <time>2022-01-16T07:34:57Z</time>
      </trkpt>
      <trkpt lat="45.21853" lon="6.02497">
        <ele>1946.6</ele>
        <time>2022-01-16T07:35:00Z</time>
      </trkpt>
      <trkpt lat="45.21854" lon="6.02501">
        <ele>1947.4</ele>
        <time>2022-01-16T07:35:03Z</time>
      </trkpt>
      <trkpt lat="45.21854" lon="6.02502">
        <ele>1947.8</ele>
        <time>2022-01-16T07:35:04Z</time>
      </trkpt>
      <trkpt lat="45.21855" lon="6.02505">
        <ele>1948.4</ele>
        <time>2022-01-16T07:35:06Z</time>
      </trkpt>
      <trkpt lat="45.21855" lon="6.02507">
        <ele>1949.2</ele>
        <time>2022-01-16T07:35:08Z</time>
      </trkpt>
      <trkpt lat="45.21856" lon="6.02511">
        <ele>1950.2</ele>
        <time>2022-01-16T07:35:12Z</time>
      </trkpt>
      <trkpt lat="45.21856" lon="6.02513">
        <ele>1950.6</ele>
        <time>2022-01-16T07:35:14Z</time>
      </trkpt>
      <trkpt lat="45.21856" lon="6.02516">
        <ele>1951.8</ele>
        <time>2022-01-16T07:35:17Z</time>
      </trkpt>
      <trkpt lat="45.21857" lon="6.02521">
        <ele>1952.8</ele>
        <time>2022-01-16T07:35:21Z</time>
      </trkpt>
      <trkpt lat="45.21857" lon="6.02522">
        <ele>1953</ele>
        <time>2022-01-16T07:35:22Z</time>
      </trkpt>
      <trkpt lat="45.21857" lon="6.02526">
        <ele>1954</ele>
        <time>2022-01-16T07:35:26Z</time>
      </trkpt>
      <trkpt lat="45.21857" lon="6.02526">
        <ele>1954.2</ele>
        <time>2022-01-16T07:35:27Z</time>
      </trkpt>
      <trkpt lat="45.21857" lon="6.02527">
        <ele>1955</ele>
        <time>2022-01-16T07:35:33Z</time>
      </trkpt>
      <trkpt lat="45.21858" lon="6.02528">
        <ele>1955</ele>
        <time>2022-01-16T07:35:39Z</time>
      </trkpt>
      <trkpt lat="45.21857" lon="6.02528">
        <ele>1955</ele>
        <time>2022-01-16T07:35:45Z</time>
      </trkpt>
      <trkpt lat="45.21857" lon="6.02528">
        <ele>1955</ele>
        <time>2022-01-16T07:35:46Z</time>
      </trkpt>
      <trkpt lat="45.21857" lon="6.02528">
        <ele>1955</ele>
        <time>2022-01-16T07:35:48Z</time>
      </trkpt>
      <trkpt lat="45.21857" lon="6.02528">
        <ele>1955.2</ele>
        <time>2022-01-16T07:35:51Z</time>
      </trkpt>
      <trkpt lat="45.21857" lon="6.02528">
        <ele>1955</ele>
        <time>2022-01-16T07:35:55Z</time>
      </trkpt>
      <trkpt lat="45.21857" lon="6.02528">
        <ele>1955</ele>
        <time>2022-01-16T07:35:59Z</time>
      </trkpt>
      <trkpt lat="45.21857" lon="6.02533">
        <ele>1956</ele>
        <time>2022-01-16T07:36:05Z</time>
      </trkpt>
      <trkpt lat="45.21856" lon="6.02534">
        <ele>1956.8</ele>
        <time>2022-01-16T07:36:06Z</time>
      </trkpt>
      <trkpt lat="45.21855" lon="6.02535">
        <ele>1957</ele>
        <time>2022-01-16T07:36:07Z</time>
      </trkpt>
      <trkpt lat="45.2185" lon="6.02536">
        <ele>1957.4</ele>
        <time>2022-01-16T07:36:11Z</time>
      </trkpt>
      <trkpt lat="45.2185" lon="6.02535">
        <ele>1958</ele>
        <time>2022-01-16T07:36:12Z</time>
      </trkpt>
      <trkpt lat="45.21852" lon="6.02537">
        <ele>1958.6</ele>
        <time>2022-01-16T07:36:16Z</time>
      </trkpt>
      <trkpt lat="45.21852" lon="6.02539">
        <ele>1959.2</ele>
        <time>2022-01-16T07:36:17Z</time>
      </trkpt>
      <trkpt lat="45.21852" lon="6.02542">
        <ele>1960.2</ele>
        <time>2022-01-16T07:36:20Z</time>
      </trkpt>
      <trkpt lat="45.21852" lon="6.02543">
        <ele>1960.6</ele>
        <time>2022-01-16T07:36:21Z</time>
      </trkpt>
      <trkpt lat="45.21852" lon="6.02546">
        <ele>1960.8</ele>
        <time>2022-01-16T07:36:23Z</time>
      </trkpt>
      <trkpt lat="45.21851" lon="6.02548">
        <ele>1961.6</ele>
        <time>2022-01-16T07:36:25Z</time>
      </trkpt>
      <trkpt lat="45.21852" lon="6.02551">
        <ele>1962.2</ele>
        <time>2022-01-16T07:36:27Z</time>
      </trkpt>
      <trkpt lat="45.21852" lon="6.02553">
        <ele>1962.8</ele>
        <time>2022-01-16T07:36:28Z</time>
      </trkpt>
      <trkpt lat="45.21853" lon="6.02555">
        <ele>1963</ele>
        <time>2022-01-16T07:36:30Z</time>
      </trkpt>
      <trkpt lat="45.21852" lon="6.02559">
        <ele>1963.8</ele>
        <time>2022-01-16T07:36:33Z</time>
      </trkpt>
      <trkpt lat="45.21852" lon="6.02563">
        <ele>1964.6</ele>
        <time>2022-01-16T07:36:37Z</time>
      </trkpt>
      <trkpt lat="45.21853" lon="6.02565">
        <ele>1964.8</ele>
        <time>2022-01-16T07:36:39Z</time>
      </trkpt>
      <trkpt lat="45.21855" lon="6.02572">
        <ele>1966</ele>
        <time>2022-01-16T07:36:44Z</time>
      </trkpt>
      <trkpt lat="45.21855" lon="6.02574">
        <ele>1967</ele>
        <time>2022-01-16T07:36:46Z</time>
      </trkpt>
      <trkpt lat="45.21855" lon="6.02575">
        <ele>1967.2</ele>
        <time>2022-01-16T07:36:47Z</time>
      </trkpt>
      <trkpt lat="45.21854" lon="6.02581">
        <ele>1968.4</ele>
        <time>2022-01-16T07:36:51Z</time>
      </trkpt>
      <trkpt lat="45.21854" lon="6.02583">
        <ele>1968.4</ele>
        <time>2022-01-16T07:36:52Z</time>
      </trkpt>
      <trkpt lat="45.21854" lon="6.02594">
        <ele>1969.6</ele>
        <time>2022-01-16T07:36:58Z</time>
      </trkpt>
      <trkpt lat="45.21854" lon="6.02598">
        <ele>1969.6</ele>
        <time>2022-01-16T07:37:00Z</time>
      </trkpt>
      <trkpt lat="45.21852" lon="6.02603">
        <ele>1970</ele>
        <time>2022-01-16T07:37:04Z</time>
      </trkpt>
      <trkpt lat="45.2185" lon="6.02608">
        <ele>1971</ele>
        <time>2022-01-16T07:37:07Z</time>
      </trkpt>
      <trkpt lat="45.2185" lon="6.02614">
        <ele>1972.2</ele>
        <time>2022-01-16T07:37:11Z</time>
      </trkpt>
      <trkpt lat="45.21849" lon="6.02618">
        <ele>1973.2</ele>
        <time>2022-01-16T07:37:15Z</time>
      </trkpt>
      <trkpt lat="45.21845" lon="6.02624">
        <ele>1973.8</ele>
        <time>2022-01-16T07:37:19Z</time>
      </trkpt>
      <trkpt lat="45.21845" lon="6.02627">
        <ele>1974.2</ele>
        <time>2022-01-16T07:37:21Z</time>
      </trkpt>
      <trkpt lat="45.21845" lon="6.02634">
        <ele>1975.4</ele>
        <time>2022-01-16T07:37:25Z</time>
      </trkpt>
      <trkpt lat="45.21844" lon="6.02635">
        <ele>1975.6</ele>
        <time>2022-01-16T07:37:26Z</time>
      </trkpt>
      <trkpt lat="45.21844" lon="6.02639">
        <ele>1976</ele>
        <time>2022-01-16T07:37:28Z</time>
      </trkpt>
      <trkpt lat="45.21843" lon="6.02643">
        <ele>1977</ele>
        <time>2022-01-16T07:37:31Z</time>
      </trkpt>
      <trkpt lat="45.2184" lon="6.02655">
        <ele>1977.6</ele>
        <time>2022-01-16T07:37:37Z</time>
      </trkpt>
      <trkpt lat="45.21839" lon="6.02659">
        <ele>1977.8</ele>
        <time>2022-01-16T07:37:39Z</time>
      </trkpt>
      <trkpt lat="45.21837" lon="6.02673">
        <ele>1977.4</ele>
        <time>2022-01-16T07:37:44Z</time>
      </trkpt>
      <trkpt lat="45.21834" lon="6.02686">
        <ele>1976.8</ele>
        <time>2022-01-16T07:37:50Z</time>
      </trkpt>
      <trkpt lat="45.21834" lon="6.02689">
        <ele>1977.2</ele>
        <time>2022-01-16T07:37:52Z</time>
      </trkpt>
      <trkpt lat="45.21834" lon="6.02697">
        <ele>1977.8</ele>
        <time>2022-01-16T07:37:56Z</time>
      </trkpt>
      <trkpt lat="45.21833" lon="6.027">
        <ele>1978</ele>
        <time>2022-01-16T07:37:58Z</time>
      </trkpt>
      <trkpt lat="45.21832" lon="6.02702">
        <ele>1978</ele>
        <time>2022-01-16T07:37:59Z</time>
      </trkpt>
      <trkpt lat="45.21831" lon="6.02713">
        <ele>1979</ele>
        <time>2022-01-16T07:38:05Z</time>
      </trkpt>
      <trkpt lat="45.21831" lon="6.02717">
        <ele>1979.6</ele>
        <time>2022-01-16T07:38:07Z</time>
      </trkpt>
      <trkpt lat="45.21831" lon="6.02727">
        <ele>1980.6</ele>
        <time>2022-01-16T07:38:13Z</time>
      </trkpt>
      <trkpt lat="45.21831" lon="6.02729">
        <ele>1980.8</ele>
        <time>2022-01-16T07:38:14Z</time>
      </trkpt>
      <trkpt lat="45.2183" lon="6.02731">
        <ele>1980.8</ele>
        <time>2022-01-16T07:38:15Z</time>
      </trkpt>
      <trkpt lat="45.21829" lon="6.02737">
        <ele>1981.6</ele>
        <time>2022-01-16T07:38:19Z</time>
      </trkpt>
      <trkpt lat="45.21828" lon="6.02746">
        <ele>1982.6</ele>
        <time>2022-01-16T07:38:24Z</time>
      </trkpt>
      <trkpt lat="45.21827" lon="6.02748">
        <ele>1982.8</ele>
        <time>2022-01-16T07:38:25Z</time>
      </trkpt>
      <trkpt lat="45.21827" lon="6.02756">
        <ele>1984.2</ele>
        <time>2022-01-16T07:38:30Z</time>
      </trkpt>
      <trkpt lat="45.21828" lon="6.02761">
        <ele>1984.6</ele>
        <time>2022-01-16T07:38:33Z</time>
      </trkpt>
      <trkpt lat="45.21827" lon="6.02772">
        <ele>1985</ele>
        <time>2022-01-16T07:38:39Z</time>
      </trkpt>
      <trkpt lat="45.21826" lon="6.02774">
        <ele>1985.2</ele>
        <time>2022-01-16T07:38:40Z</time>
      </trkpt>
      <trkpt lat="45.21824" lon="6.02784">
        <ele>1986.2</ele>
        <time>2022-01-16T07:38:46Z</time>
      </trkpt>
      <trkpt lat="45.21824" lon="6.02788">
        <ele>1986.4</ele>
        <time>2022-01-16T07:38:48Z</time>
      </trkpt>
      <trkpt lat="45.2182" lon="6.02799">
        <ele>1986.8</ele>
        <time>2022-01-16T07:38:54Z</time>
      </trkpt>
      <trkpt lat="45.21819" lon="6.02805">
        <ele>1987.6</ele>
        <time>2022-01-16T07:38:57Z</time>
      </trkpt>
      <trkpt lat="45.21816" lon="6.02811">
        <ele>1988.4</ele>
        <time>2022-01-16T07:39:01Z</time>
      </trkpt>
      <trkpt lat="45.21815" lon="6.02814">
        <ele>1988.4</ele>
        <time>2022-01-16T07:39:03Z</time>
      </trkpt>
      <trkpt lat="45.21814" lon="6.02815">
        <ele>1988.8</ele>
        <time>2022-01-16T07:39:04Z</time>
      </trkpt>
      <trkpt lat="45.21813" lon="6.0282">
        <ele>1989.6</ele>
        <time>2022-01-16T07:39:07Z</time>
      </trkpt>
      <trkpt lat="45.21811" lon="6.02824">
        <ele>1990.2</ele>
        <time>2022-01-16T07:39:09Z</time>
      </trkpt>
      <trkpt lat="45.21808" lon="6.02831">
        <ele>1991.4</ele>
        <time>2022-01-16T07:39:14Z</time>
      </trkpt>
      <trkpt lat="45.21805" lon="6.0284">
        <ele>1992.6</ele>
        <time>2022-01-16T07:39:20Z</time>
      </trkpt>
      <trkpt lat="45.21801" lon="6.02845">
        <ele>1993</ele>
        <time>2022-01-16T07:39:24Z</time>
      </trkpt>
      <trkpt lat="45.21799" lon="6.02848">
        <ele>1993.6</ele>
        <time>2022-01-16T07:39:26Z</time>
      </trkpt>
      <trkpt lat="45.21799" lon="6.02851">
        <ele>1994.2</ele>
        <time>2022-01-16T07:39:28Z</time>
      </trkpt>
      <trkpt lat="45.21796" lon="6.02857">
        <ele>1994.4</ele>
        <time>2022-01-16T07:39:32Z</time>
      </trkpt>
      <trkpt lat="45.21794" lon="6.02861">
        <ele>1995.4</ele>
        <time>2022-01-16T07:39:35Z</time>
      </trkpt>
      <trkpt lat="45.21792" lon="6.02866">
        <ele>1995.8</ele>
        <time>2022-01-16T07:39:39Z</time>
      </trkpt>
      <trkpt lat="45.21791" lon="6.02869">
        <ele>1996.6</ele>
        <time>2022-01-16T07:39:41Z</time>
      </trkpt>
      <trkpt lat="45.21789" lon="6.02873">
        <ele>1997.2</ele>
        <time>2022-01-16T07:39:44Z</time>
      </trkpt>
      <trkpt lat="45.21788" lon="6.02874">
        <ele>1997.2</ele>
        <time>2022-01-16T07:39:45Z</time>
      </trkpt>
      <trkpt lat="45.21787" lon="6.02877">
        <ele>1997.6</ele>
        <time>2022-01-16T07:39:47Z</time>
      </trkpt>
      <trkpt lat="45.21785" lon="6.02882">
        <ele>1998.6</ele>
        <time>2022-01-16T07:39:51Z</time>
      </trkpt>
      <trkpt lat="45.21782" lon="6.02885">
        <ele>1999.8</ele>
        <time>2022-01-16T07:39:54Z</time>
      </trkpt>
      <trkpt lat="45.21779" lon="6.02893">
        <ele>2001</ele>
        <time>2022-01-16T07:40:00Z</time>
      </trkpt>
      <trkpt lat="45.21779" lon="6.02895">
        <ele>2001</ele>
        <time>2022-01-16T07:40:01Z</time>
      </trkpt>
      <trkpt lat="45.21777" lon="6.02899">
        <ele>2002.2</ele>
        <time>2022-01-16T07:40:05Z</time>
      </trkpt>
      <trkpt lat="45.21774" lon="6.02903">
        <ele>2003.2</ele>
        <time>2022-01-16T07:40:09Z</time>
      </trkpt>
      <trkpt lat="45.21774" lon="6.02905">
        <ele>2003.6</ele>
        <time>2022-01-16T07:40:10Z</time>
      </trkpt>
      <trkpt lat="45.21774" lon="6.02906">
        <ele>2003.8</ele>
        <time>2022-01-16T07:40:11Z</time>
      </trkpt>
      <trkpt lat="45.21775" lon="6.02911">
        <ele>2004.8</ele>
        <time>2022-01-16T07:40:15Z</time>
      </trkpt>
      <trkpt lat="45.21775" lon="6.02913">
        <ele>2005.4</ele>
        <time>2022-01-16T07:40:17Z</time>
      </trkpt>
      <trkpt lat="45.21775" lon="6.02917">
        <ele>2006.2</ele>
        <time>2022-01-16T07:40:19Z</time>
      </trkpt>
      <trkpt lat="45.21774" lon="6.02918">
        <ele>2006.2</ele>
        <time>2022-01-16T07:40:20Z</time>
      </trkpt>
      <trkpt lat="45.21772" lon="6.02919">
        <ele>2007.2</ele>
        <time>2022-01-16T07:40:22Z</time>
      </trkpt>
      <trkpt lat="45.2177" lon="6.0292">
        <ele>2007.4</ele>
        <time>2022-01-16T07:40:25Z</time>
      </trkpt>
      <trkpt lat="45.21767" lon="6.02922">
        <ele>2008.8</ele>
        <time>2022-01-16T07:40:28Z</time>
      </trkpt>
      <trkpt lat="45.21767" lon="6.02923">
        <ele>2009</ele>
        <time>2022-01-16T07:40:29Z</time>
      </trkpt>
      <trkpt lat="45.21766" lon="6.02924">
        <ele>2009.2</ele>
        <time>2022-01-16T07:40:30Z</time>
      </trkpt>
      <trkpt lat="45.21766" lon="6.02926">
        <ele>2010</ele>
        <time>2022-01-16T07:40:32Z</time>
      </trkpt>
      <trkpt lat="45.21766" lon="6.02928">
        <ele>2010.6</ele>
        <time>2022-01-16T07:40:35Z</time>
      </trkpt>
      <trkpt lat="45.21766" lon="6.02929">
        <ele>2011.6</ele>
        <time>2022-01-16T07:40:36Z</time>
      </trkpt>
      <trkpt lat="45.21764" lon="6.02935">
        <ele>2012.2</ele>
        <time>2022-01-16T07:40:41Z</time>
      </trkpt>
      <trkpt lat="45.21757" lon="6.0294">
        <ele>2012.4</ele>
        <time>2022-01-16T07:40:47Z</time>
      </trkpt>
      <trkpt lat="45.21754" lon="6.0294">
        <ele>2012.4</ele>
        <time>2022-01-16T07:40:48Z</time>
      </trkpt>
      <trkpt lat="45.21746" lon="6.02937">
        <ele>2012</ele>
        <time>2022-01-16T07:40:53Z</time>
      </trkpt>
      <trkpt lat="45.21741" lon="6.02936">
        <ele>2012.2</ele>
        <time>2022-01-16T07:40:57Z</time>
      </trkpt>
      <trkpt lat="45.21738" lon="6.02935">
        <ele>2012.4</ele>
        <time>2022-01-16T07:40:59Z</time>
      </trkpt>
      <trkpt lat="45.21738" lon="6.02935">
        <ele>2012.6</ele>
        <time>2022-01-16T07:41:00Z</time>
      </trkpt>
      <trkpt lat="45.21738" lon="6.02935">
        <ele>2012.8</ele>
        <time>2022-01-16T07:41:02Z</time>
      </trkpt>
      <trkpt lat="45.21738" lon="6.02936">
        <ele>2012.8</ele>
        <time>2022-01-16T07:41:04Z</time>
      </trkpt>
      <trkpt lat="45.21739" lon="6.02937">
        <ele>2012.8</ele>
        <time>2022-01-16T07:41:05Z</time>
      </trkpt>
      <trkpt lat="45.21741" lon="6.02936">
        <ele>2012.8</ele>
        <time>2022-01-16T07:41:09Z</time>
      </trkpt>
      <trkpt lat="45.21741" lon="6.02937">
        <ele>2012.8</ele>
        <time>2022-01-16T07:41:11Z</time>
      </trkpt>
      <trkpt lat="45.21741" lon="6.02939">
        <ele>2012.8</ele>
        <time>2022-01-16T07:41:12Z</time>
      </trkpt>
      <trkpt lat="45.21743" lon="6.02942">
        <ele>2012.6</ele>
        <time>2022-01-16T07:41:13Z</time>
      </trkpt>
      <trkpt lat="45.21745" lon="6.02945">
        <ele>2012</ele>
        <time>2022-01-16T07:41:14Z</time>
      </trkpt>
      <trkpt lat="45.21748" lon="6.02949">
        <ele>2010.4</ele>
        <time>2022-01-16T07:41:16Z</time>
      </trkpt>
      <trkpt lat="45.21748" lon="6.02953">
        <ele>2010</ele>
        <time>2022-01-16T07:41:18Z</time>
      </trkpt>
      <trkpt lat="45.21747" lon="6.02954">
        <ele>2009.8</ele>
        <time>2022-01-16T07:41:19Z</time>
      </trkpt>
      <trkpt lat="45.21744" lon="6.02954">
        <ele>2009</ele>
        <time>2022-01-16T07:41:21Z</time>
      </trkpt>
      <trkpt lat="45.21742" lon="6.02953">
        <ele>2008.4</ele>
        <time>2022-01-16T07:41:23Z</time>
      </trkpt>
      <trkpt lat="45.21741" lon="6.02952">
        <ele>2007.8</ele>
        <time>2022-01-16T07:41:25Z</time>
      </trkpt>
      <trkpt lat="45.21739" lon="6.0295">
        <ele>2007.4</ele>
        <time>2022-01-16T07:41:28Z</time>
      </trkpt>
      <trkpt lat="45.21738" lon="6.02949">
        <ele>2006.8</ele>
        <time>2022-01-16T07:41:29Z</time>
      </trkpt>
      <trkpt lat="45.21734" lon="6.02948">
        <ele>2005.6</ele>
        <time>2022-01-16T07:41:32Z</time>
      </trkpt>
      <trkpt lat="45.21731" lon="6.02948">
        <ele>2004.8</ele>
        <time>2022-01-16T07:41:34Z</time>
      </trkpt>
      <trkpt lat="45.21725" lon="6.02948">
        <ele>2004.8</ele>
        <time>2022-01-16T07:41:36Z</time>
      </trkpt>
      <trkpt lat="45.21721" lon="6.02948">
        <ele>2004.2</ele>
        <time>2022-01-16T07:41:37Z</time>
      </trkpt>
      <trkpt lat="45.21715" lon="6.02948">
        <ele>2002.4</ele>
        <time>2022-01-16T07:41:39Z</time>
      </trkpt>
      <trkpt lat="45.2171" lon="6.02947">
        <ele>2002.4</ele>
        <time>2022-01-16T07:41:41Z</time>
      </trkpt>
      <trkpt lat="45.21707" lon="6.02947">
        <ele>2002.4</ele>
        <time>2022-01-16T07:41:43Z</time>
      </trkpt>
      <trkpt lat="45.21705" lon="6.02947">
        <ele>2002.6</ele>
        <time>2022-01-16T07:41:44Z</time>
      </trkpt>
      <trkpt lat="45.21704" lon="6.02947">
        <ele>2002.6</ele>
        <time>2022-01-16T07:41:45Z</time>
      </trkpt>
      <trkpt lat="45.21697" lon="6.02945">
        <ele>2003.8</ele>
        <time>2022-01-16T07:41:50Z</time>
      </trkpt>
      <trkpt lat="45.21695" lon="6.02944">
        <ele>2004</ele>
        <time>2022-01-16T07:41:52Z</time>
      </trkpt>
      <trkpt lat="45.21691" lon="6.02942">
        <ele>2005.2</ele>
        <time>2022-01-16T07:41:56Z</time>
      </trkpt>
      <trkpt lat="45.2169" lon="6.02942">
        <ele>2005.2</ele>
        <time>2022-01-16T07:41:57Z</time>
      </trkpt>
      <trkpt lat="45.21686" lon="6.02939">
        <ele>2006.6</ele>
        <time>2022-01-16T07:42:02Z</time>
      </trkpt>
      <trkpt lat="45.21685" lon="6.02938">
        <ele>2006.8</ele>
        <time>2022-01-16T07:42:03Z</time>
      </trkpt>
      <trkpt lat="45.21681" lon="6.02933">
        <ele>2007.6</ele>
        <time>2022-01-16T07:42:07Z</time>
      </trkpt>
      <trkpt lat="45.2168" lon="6.0293">
        <ele>2007.8</ele>
        <time>2022-01-16T07:42:09Z</time>
      </trkpt>
      <trkpt lat="45.21679" lon="6.02924">
        <ele>2008</ele>
        <time>2022-01-16T07:42:12Z</time>
      </trkpt>
      <trkpt lat="45.21675" lon="6.02919">
        <ele>2009</ele>
        <time>2022-01-16T07:42:16Z</time>
      </trkpt>
      <trkpt lat="45.21672" lon="6.02915">
        <ele>2010</ele>
        <time>2022-01-16T07:42:20Z</time>
      </trkpt>
      <trkpt lat="45.21672" lon="6.02914">
        <ele>2010</ele>
        <time>2022-01-16T07:42:21Z</time>
      </trkpt>
      <trkpt lat="45.21667" lon="6.02912">
        <ele>2011.4</ele>
        <time>2022-01-16T07:42:25Z</time>
      </trkpt>
      <trkpt lat="45.21665" lon="6.02912">
        <ele>2011.4</ele>
        <time>2022-01-16T07:42:27Z</time>
      </trkpt>
      <trkpt lat="45.21662" lon="6.02911">
        <ele>2012.4</ele>
        <time>2022-01-16T07:42:31Z</time>
      </trkpt>
      <trkpt lat="45.21664" lon="6.02907">
        <ele>2012.4</ele>
        <time>2022-01-16T07:42:34Z</time>
      </trkpt>
      <trkpt lat="45.21669" lon="6.02905">
        <ele>2013.4</ele>
        <time>2022-01-16T07:42:40Z</time>
      </trkpt>
      <trkpt lat="45.2167" lon="6.02905">
        <ele>2013.8</ele>
        <time>2022-01-16T07:42:41Z</time>
      </trkpt>
      <trkpt lat="45.21674" lon="6.02902">
        <ele>2015.2</ele>
        <time>2022-01-16T07:42:47Z</time>
      </trkpt>
      <trkpt lat="45.21674" lon="6.02903">
        <ele>2015.2</ele>
        <time>2022-01-16T07:42:48Z</time>
      </trkpt>
      <trkpt lat="45.2167" lon="6.02901">
        <ele>2016.6</ele>
        <time>2022-01-16T07:42:53Z</time>
      </trkpt>
      <trkpt lat="45.21669" lon="6.029">
        <ele>2017</ele>
        <time>2022-01-16T07:42:54Z</time>
      </trkpt>
      <trkpt lat="45.21663" lon="6.029">
        <ele>2018</ele>
        <time>2022-01-16T07:42:59Z</time>
      </trkpt>
      <trkpt lat="45.2166" lon="6.02898">
        <ele>2018.4</ele>
        <time>2022-01-16T07:43:02Z</time>
      </trkpt>
      <trkpt lat="45.21661" lon="6.02897">
        <ele>2018.8</ele>
        <time>2022-01-16T07:43:04Z</time>
      </trkpt>
      <trkpt lat="45.21664" lon="6.02894">
        <ele>2019</ele>
        <time>2022-01-16T07:43:07Z</time>
      </trkpt>
      <trkpt lat="45.21667" lon="6.02892">
        <ele>2020.2</ele>
        <time>2022-01-16T07:43:09Z</time>
      </trkpt>
      <trkpt lat="45.21673" lon="6.02889">
        <ele>2021</ele>
        <time>2022-01-16T07:43:15Z</time>
      </trkpt>
      <trkpt lat="45.21673" lon="6.02888">
        <ele>2021.6</ele>
        <time>2022-01-16T07:43:16Z</time>
      </trkpt>
      <trkpt lat="45.21669" lon="6.02887">
        <ele>2022.8</ele>
        <time>2022-01-16T07:43:21Z</time>
      </trkpt>
      <trkpt lat="45.21666" lon="6.02886">
        <ele>2023.4</ele>
        <time>2022-01-16T07:43:24Z</time>
      </trkpt>
      <trkpt lat="45.21663" lon="6.02886">
        <ele>2024</ele>
        <time>2022-01-16T07:43:27Z</time>
      </trkpt>
      <trkpt lat="45.21662" lon="6.02886">
        <ele>2024.4</ele>
        <time>2022-01-16T07:43:28Z</time>
      </trkpt>
      <trkpt lat="45.21659" lon="6.02887">
        <ele>2024.6</ele>
        <time>2022-01-16T07:43:30Z</time>
      </trkpt>
      <trkpt lat="45.21658" lon="6.02887">
        <ele>2025.4</ele>
        <time>2022-01-16T07:43:31Z</time>
      </trkpt>
      <trkpt lat="45.21653" lon="6.02887">
        <ele>2025.6</ele>
        <time>2022-01-16T07:43:35Z</time>
      </trkpt>
      <trkpt lat="45.21649" lon="6.02888">
        <ele>2026.4</ele>
        <time>2022-01-16T07:43:39Z</time>
      </trkpt>
      <trkpt lat="45.21648" lon="6.02888">
        <ele>2026.6</ele>
        <time>2022-01-16T07:43:40Z</time>
      </trkpt>
      <trkpt lat="45.21645" lon="6.02888">
        <ele>2027.4</ele>
        <time>2022-01-16T07:43:43Z</time>
      </trkpt>
      <trkpt lat="45.21644" lon="6.02887">
        <ele>2027.8</ele>
        <time>2022-01-16T07:43:44Z</time>
      </trkpt>
      <trkpt lat="45.21641" lon="6.02887">
        <ele>2028.6</ele>
        <time>2022-01-16T07:43:47Z</time>
      </trkpt>
      <trkpt lat="45.21637" lon="6.02886">
        <ele>2029</ele>
        <time>2022-01-16T07:43:51Z</time>
      </trkpt>
      <trkpt lat="45.21637" lon="6.02883">
        <ele>2029.6</ele>
        <time>2022-01-16T07:43:54Z</time>
      </trkpt>
      <trkpt lat="45.21638" lon="6.02882">
        <ele>2030.2</ele>
        <time>2022-01-16T07:43:55Z</time>
      </trkpt>
      <trkpt lat="45.2164" lon="6.02878">
        <ele>2030.6</ele>
        <time>2022-01-16T07:43:59Z</time>
      </trkpt>
      <trkpt lat="45.21642" lon="6.02876">
        <ele>2031</ele>
        <time>2022-01-16T07:44:01Z</time>
      </trkpt>
      <trkpt lat="45.21646" lon="6.02872">
        <ele>2032</ele>
        <time>2022-01-16T07:44:06Z</time>
      </trkpt>
      <trkpt lat="45.21646" lon="6.02872">
        <ele>2032</ele>
        <time>2022-01-16T07:44:07Z</time>
      </trkpt>
      <trkpt lat="45.21646" lon="6.02872">
        <ele>2033.2</ele>
        <time>2022-01-16T07:44:08Z</time>
      </trkpt>
      <trkpt lat="45.21642" lon="6.02872">
        <ele>2034.4</ele>
        <time>2022-01-16T07:44:13Z</time>
      </trkpt>
      <trkpt lat="45.21636" lon="6.02871">
        <ele>2035.6</ele>
        <time>2022-01-16T07:44:18Z</time>
      </trkpt>
      <trkpt lat="45.21636" lon="6.02871">
        <ele>2035.8</ele>
        <time>2022-01-16T07:44:19Z</time>
      </trkpt>
      <trkpt lat="45.21635" lon="6.0287">
        <ele>2035.8</ele>
        <time>2022-01-16T07:44:20Z</time>
      </trkpt>
      <trkpt lat="45.21636" lon="6.02866">
        <ele>2036.2</ele>
        <time>2022-01-16T07:44:24Z</time>
      </trkpt>
      <trkpt lat="45.21637" lon="6.02864">
        <ele>2036.4</ele>
        <time>2022-01-16T07:44:25Z</time>
      </trkpt>
      <trkpt lat="45.21637" lon="6.02861">
        <ele>2036.8</ele>
        <time>2022-01-16T07:44:27Z</time>
      </trkpt>
      <trkpt lat="45.21639" lon="6.02858">
        <ele>2037.6</ele>
        <time>2022-01-16T07:44:30Z</time>
      </trkpt>
      <trkpt lat="45.21639" lon="6.02857">
        <ele>2037.8</ele>
        <time>2022-01-16T07:44:31Z</time>
      </trkpt>
      <trkpt lat="45.21641" lon="6.02855">
        <ele>2039.4</ele>
        <time>2022-01-16T07:44:33Z</time>
      </trkpt>
      <trkpt lat="45.21641" lon="6.02855">
        <ele>2040</ele>
        <time>2022-01-16T07:44:35Z</time>
      </trkpt>
      <trkpt lat="45.21639" lon="6.02854">
        <ele>2040.2</ele>
        <time>2022-01-16T07:44:37Z</time>
      </trkpt>
      <trkpt lat="45.21637" lon="6.02854">
        <ele>2040.8</ele>
        <time>2022-01-16T07:44:39Z</time>
      </trkpt>
      <trkpt lat="45.21633" lon="6.02851">
        <ele>2041.2</ele>
        <time>2022-01-16T07:44:43Z</time>
      </trkpt>
      <trkpt lat="45.21632" lon="6.0285">
        <ele>2042</ele>
        <time>2022-01-16T07:44:44Z</time>
      </trkpt>
      <trkpt lat="45.21628" lon="6.02848">
        <ele>2043</ele>
        <time>2022-01-16T07:44:48Z</time>
      </trkpt>
      <trkpt lat="45.21625" lon="6.02845">
        <ele>2044</ele>
        <time>2022-01-16T07:44:52Z</time>
      </trkpt>
      <trkpt lat="45.21623" lon="6.02843">
        <ele>2044.2</ele>
        <time>2022-01-16T07:44:54Z</time>
      </trkpt>
      <trkpt lat="45.21618" lon="6.02839">
        <ele>2045.2</ele>
        <time>2022-01-16T07:44:59Z</time>
      </trkpt>
      <trkpt lat="45.21616" lon="6.02838">
        <ele>2046</ele>
        <time>2022-01-16T07:45:01Z</time>
      </trkpt>
      <trkpt lat="45.21615" lon="6.02837">
        <ele>2046.4</ele>
        <time>2022-01-16T07:45:02Z</time>
      </trkpt>
      <trkpt lat="45.21611" lon="6.02834">
        <ele>2047.6</ele>
        <time>2022-01-16T07:45:07Z</time>
      </trkpt>
      <trkpt lat="45.2161" lon="6.02834">
        <ele>2047.6</ele>
        <time>2022-01-16T07:45:08Z</time>
      </trkpt>
      <trkpt lat="45.21608" lon="6.0283">
        <ele>2048.6</ele>
        <time>2022-01-16T07:45:12Z</time>
      </trkpt>
      <trkpt lat="45.21607" lon="6.02829">
        <ele>2049.4</ele>
        <time>2022-01-16T07:45:14Z</time>
      </trkpt>
      <trkpt lat="45.21607" lon="6.02828">
        <ele>2049.6</ele>
        <time>2022-01-16T07:45:15Z</time>
      </trkpt>
      <trkpt lat="45.21606" lon="6.02825">
        <ele>2050.8</ele>
        <time>2022-01-16T07:45:18Z</time>
      </trkpt>
      <trkpt lat="45.21602" lon="6.02824">
        <ele>2051.6</ele>
        <time>2022-01-16T07:45:22Z</time>
      </trkpt>
      <trkpt lat="45.21602" lon="6.02824">
        <ele>2052.4</ele>
        <time>2022-01-16T07:45:23Z</time>
      </trkpt>
      <trkpt lat="45.21599" lon="6.02821">
        <ele>2053.8</ele>
        <time>2022-01-16T07:45:27Z</time>
      </trkpt>
      <trkpt lat="45.21596" lon="6.02818">
        <ele>2054.8</ele>
        <time>2022-01-16T07:45:31Z</time>
      </trkpt>
      <trkpt lat="45.21596" lon="6.02817">
        <ele>2055.4</ele>
        <time>2022-01-16T07:45:33Z</time>
      </trkpt>
      <trkpt lat="45.21592" lon="6.02814">
        <ele>2056.4</ele>
        <time>2022-01-16T07:45:38Z</time>
      </trkpt>
      <trkpt lat="45.21587" lon="6.02814">
        <ele>2057.4</ele>
        <time>2022-01-16T07:45:43Z</time>
      </trkpt>
      <trkpt lat="45.21586" lon="6.02815">
        <ele>2057.6</ele>
        <time>2022-01-16T07:45:44Z</time>
      </trkpt>
      <trkpt lat="45.21585" lon="6.02816">
        <ele>2058</ele>
        <time>2022-01-16T07:45:46Z</time>
      </trkpt>
      <trkpt lat="45.21583" lon="6.02818">
        <ele>2059</ele>
        <time>2022-01-16T07:45:49Z</time>
      </trkpt>
      <trkpt lat="45.2158" lon="6.0282">
        <ele>2060</ele>
        <time>2022-01-16T07:45:52Z</time>
      </trkpt>
      <trkpt lat="45.21578" lon="6.0282">
        <ele>2060.6</ele>
        <time>2022-01-16T07:45:55Z</time>
      </trkpt>
      <trkpt lat="45.21576" lon="6.02817">
        <ele>2060.8</ele>
        <time>2022-01-16T07:45:58Z</time>
      </trkpt>
      <trkpt lat="45.21573" lon="6.02814">
        <ele>2061.8</ele>
        <time>2022-01-16T07:46:01Z</time>
      </trkpt>
      <trkpt lat="45.21571" lon="6.02813">
        <ele>2063</ele>
        <time>2022-01-16T07:46:04Z</time>
      </trkpt>
      <trkpt lat="45.21569" lon="6.02812">
        <ele>2063.4</ele>
        <time>2022-01-16T07:46:06Z</time>
      </trkpt>
      <trkpt lat="45.21568" lon="6.02812">
        <ele>2064</ele>
        <time>2022-01-16T07:46:07Z</time>
      </trkpt>
      <trkpt lat="45.21565" lon="6.02808">
        <ele>2064.8</ele>
        <time>2022-01-16T07:46:11Z</time>
      </trkpt>
      <trkpt lat="45.21563" lon="6.02808">
        <ele>2065.2</ele>
        <time>2022-01-16T07:46:13Z</time>
      </trkpt>
      <trkpt lat="45.21555" lon="6.02808">
        <ele>2066.2</ele>
        <time>2022-01-16T07:46:18Z</time>
      </trkpt>
      <trkpt lat="45.21547" lon="6.02806">
        <ele>2066.8</ele>
        <time>2022-01-16T07:46:24Z</time>
      </trkpt>
      <trkpt lat="45.21541" lon="6.02806">
        <ele>2067.2</ele>
        <time>2022-01-16T07:46:28Z</time>
      </trkpt>
      <trkpt lat="45.21536" lon="6.02807">
        <ele>2067.6</ele>
        <time>2022-01-16T07:46:32Z</time>
      </trkpt>
      <trkpt lat="45.21534" lon="6.02806">
        <ele>2068.4</ele>
        <time>2022-01-16T07:46:35Z</time>
      </trkpt>
      <trkpt lat="45.2153" lon="6.02806">
        <ele>2069.6</ele>
        <time>2022-01-16T07:46:39Z</time>
      </trkpt>
      <trkpt lat="45.21528" lon="6.02806">
        <ele>2070.2</ele>
        <time>2022-01-16T07:46:41Z</time>
      </trkpt>
      <trkpt lat="45.21525" lon="6.02806">
        <ele>2071</ele>
        <time>2022-01-16T07:46:44Z</time>
      </trkpt>
      <trkpt lat="45.21521" lon="6.02806">
        <ele>2072.2</ele>
        <time>2022-01-16T07:46:48Z</time>
      </trkpt>
      <trkpt lat="45.2152" lon="6.02805">
        <ele>2072.4</ele>
        <time>2022-01-16T07:46:49Z</time>
      </trkpt>
      <trkpt lat="45.21516" lon="6.02805">
        <ele>2073.4</ele>
        <time>2022-01-16T07:46:52Z</time>
      </trkpt>
      <trkpt lat="45.21511" lon="6.02802">
        <ele>2074.8</ele>
        <time>2022-01-16T07:46:57Z</time>
      </trkpt>
      <trkpt lat="45.21509" lon="6.02799">
        <ele>2075.4</ele>
        <time>2022-01-16T07:47:00Z</time>
      </trkpt>
      <trkpt lat="45.21508" lon="6.02798">
        <ele>2076.2</ele>
        <time>2022-01-16T07:47:01Z</time>
      </trkpt>
      <trkpt lat="45.21506" lon="6.02797">
        <ele>2076.4</ele>
        <time>2022-01-16T07:47:03Z</time>
      </trkpt>
      <trkpt lat="45.21503" lon="6.02793">
        <ele>2077.2</ele>
        <time>2022-01-16T07:47:09Z</time>
      </trkpt>
      <trkpt lat="45.21502" lon="6.02791">
        <ele>2077.2</ele>
        <time>2022-01-16T07:47:11Z</time>
      </trkpt>
      <trkpt lat="45.21499" lon="6.02788">
        <ele>2078.4</ele>
        <time>2022-01-16T07:47:14Z</time>
      </trkpt>
      <trkpt lat="45.21498" lon="6.02785">
        <ele>2078.8</ele>
        <time>2022-01-16T07:47:16Z</time>
      </trkpt>
      <trkpt lat="45.21498" lon="6.02782">
        <ele>2079.4</ele>
        <time>2022-01-16T07:47:18Z</time>
      </trkpt>
      <trkpt lat="45.21499" lon="6.02781">
        <ele>2079.4</ele>
        <time>2022-01-16T07:47:19Z</time>
      </trkpt>
      <trkpt lat="45.21501" lon="6.02777">
        <ele>2079.6</ele>
        <time>2022-01-16T07:47:22Z</time>
      </trkpt>
      <trkpt lat="45.21502" lon="6.02773">
        <ele>2080.6</ele>
        <time>2022-01-16T07:47:25Z</time>
      </trkpt>
      <trkpt lat="45.21502" lon="6.02768">
        <ele>2082</ele>
        <time>2022-01-16T07:47:28Z</time>
      </trkpt>
      <trkpt lat="45.21502" lon="6.02767">
        <ele>2082.2</ele>
        <time>2022-01-16T07:47:29Z</time>
      </trkpt>
      <trkpt lat="45.21501" lon="6.02765">
        <ele>2082.6</ele>
        <time>2022-01-16T07:47:30Z</time>
      </trkpt>
      <trkpt lat="45.21498" lon="6.02762">
        <ele>2083.2</ele>
        <time>2022-01-16T07:47:33Z</time>
      </trkpt>
      <trkpt lat="45.21495" lon="6.02759">
        <ele>2084.4</ele>
        <time>2022-01-16T07:47:36Z</time>
      </trkpt>
      <trkpt lat="45.21493" lon="6.02755">
        <ele>2084.8</ele>
        <time>2022-01-16T07:47:39Z</time>
      </trkpt>
      <trkpt lat="45.21491" lon="6.02752">
        <ele>2085.8</ele>
        <time>2022-01-16T07:47:42Z</time>
      </trkpt>
      <trkpt lat="45.21488" lon="6.02749">
        <ele>2086.8</ele>
        <time>2022-01-16T07:47:46Z</time>
      </trkpt>
      <trkpt lat="45.21487" lon="6.02748">
        <ele>2087.2</ele>
        <time>2022-01-16T07:47:47Z</time>
      </trkpt>
      <trkpt lat="45.21484" lon="6.02743">
        <ele>2088</ele>
        <time>2022-01-16T07:47:51Z</time>
      </trkpt>
      <trkpt lat="45.21483" lon="6.02735">
        <ele>2088.6</ele>
        <time>2022-01-16T07:47:56Z</time>
      </trkpt>
      <trkpt lat="45.21483" lon="6.02734">
        <ele>2089.6</ele>
        <time>2022-01-16T07:47:57Z</time>
      </trkpt>
      <trkpt lat="45.21485" lon="6.02727">
        <ele>2090.6</ele>
        <time>2022-01-16T07:48:02Z</time>
      </trkpt>
      <trkpt lat="45.21484" lon="6.02724">
        <ele>2091.4</ele>
        <time>2022-01-16T07:48:04Z</time>
      </trkpt>
      <trkpt lat="45.21483" lon="6.0272">
        <ele>2091.8</ele>
        <time>2022-01-16T07:48:07Z</time>
      </trkpt>
      <trkpt lat="45.21482" lon="6.02716">
        <ele>2092.8</ele>
        <time>2022-01-16T07:48:10Z</time>
      </trkpt>
      <trkpt lat="45.21482" lon="6.02716">
        <ele>2092.8</ele>
        <time>2022-01-16T07:48:11Z</time>
      </trkpt>
      <trkpt lat="45.21481" lon="6.02716">
        <ele>2093.8</ele>
        <time>2022-01-16T07:48:12Z</time>
      </trkpt>
      <trkpt lat="45.21477" lon="6.02715">
        <ele>2095</ele>
        <time>2022-01-16T07:48:16Z</time>
      </trkpt>
      <trkpt lat="45.21476" lon="6.02715">
        <ele>2095.2</ele>
        <time>2022-01-16T07:48:17Z</time>
      </trkpt>
      <trkpt lat="45.21474" lon="6.0271">
        <ele>2096.8</ele>
        <time>2022-01-16T07:48:21Z</time>
      </trkpt>
      <trkpt lat="45.21472" lon="6.02704">
        <ele>2097.8</ele>
        <time>2022-01-16T07:48:26Z</time>
      </trkpt>
      <trkpt lat="45.21472" lon="6.02702">
        <ele>2098</ele>
        <time>2022-01-16T07:48:27Z</time>
      </trkpt>
      <trkpt lat="45.21473" lon="6.02694">
        <ele>2098.8</ele>
        <time>2022-01-16T07:48:32Z</time>
      </trkpt>
      <trkpt lat="45.21472" lon="6.02692">
        <ele>2099.8</ele>
        <time>2022-01-16T07:48:34Z</time>
      </trkpt>
      <trkpt lat="45.21471" lon="6.02689">
        <ele>2099.8</ele>
        <time>2022-01-16T07:48:36Z</time>
      </trkpt>
      <trkpt lat="45.2147" lon="6.02685">
        <ele>2100.8</ele>
        <time>2022-01-16T07:48:39Z</time>
      </trkpt>
      <trkpt lat="45.2147" lon="6.02677">
        <ele>2101.6</ele>
        <time>2022-01-16T07:48:44Z</time>
      </trkpt>
      <trkpt lat="45.21469" lon="6.02674">
        <ele>2102.4</ele>
        <time>2022-01-16T07:48:46Z</time>
      </trkpt>
      <trkpt lat="45.21467" lon="6.02668">
        <ele>2103.8</ele>
        <time>2022-01-16T07:48:51Z</time>
      </trkpt>
      <trkpt lat="45.21466" lon="6.02666">
        <ele>2104</ele>
        <time>2022-01-16T07:48:52Z</time>
      </trkpt>
      <trkpt lat="45.21465" lon="6.02666">
        <ele>2104.2</ele>
        <time>2022-01-16T07:48:53Z</time>
      </trkpt>
      <trkpt lat="45.21464" lon="6.02665">
        <ele>2105</ele>
        <time>2022-01-16T07:48:55Z</time>
      </trkpt>
      <trkpt lat="45.21462" lon="6.02663">
        <ele>2105.2</ele>
        <time>2022-01-16T07:48:57Z</time>
      </trkpt>
      <trkpt lat="45.21461" lon="6.02662">
        <ele>2106.4</ele>
        <time>2022-01-16T07:48:59Z</time>
      </trkpt>
      <trkpt lat="45.21457" lon="6.02659">
        <ele>2107</ele>
        <time>2022-01-16T07:49:03Z</time>
      </trkpt>
      <trkpt lat="45.21457" lon="6.02658">
        <ele>2107.4</ele>
        <time>2022-01-16T07:49:04Z</time>
      </trkpt>
      <trkpt lat="45.21454" lon="6.02657">
        <ele>2108.4</ele>
        <time>2022-01-16T07:49:07Z</time>
      </trkpt>
      <trkpt lat="45.2145" lon="6.02653">
        <ele>2110</ele>
        <time>2022-01-16T07:49:12Z</time>
      </trkpt>
      <trkpt lat="45.21447" lon="6.02647">
        <ele>2111.2</ele>
        <time>2022-01-16T07:49:17Z</time>
      </trkpt>
      <trkpt lat="45.21444" lon="6.02643">
        <ele>2112.4</ele>
        <time>2022-01-16T07:49:21Z</time>
      </trkpt>
      <trkpt lat="45.21443" lon="6.02642">
        <ele>2112.6</ele>
        <time>2022-01-16T07:49:22Z</time>
      </trkpt>
      <trkpt lat="45.2144" lon="6.02636">
        <ele>2113.8</ele>
        <time>2022-01-16T07:49:27Z</time>
      </trkpt>
      <trkpt lat="45.21438" lon="6.02631">
        <ele>2114.8</ele>
        <time>2022-01-16T07:49:31Z</time>
      </trkpt>
      <trkpt lat="45.21437" lon="6.02629">
        <ele>2115.4</ele>
        <time>2022-01-16T07:49:32Z</time>
      </trkpt>
      <trkpt lat="45.21435" lon="6.02622">
        <ele>2116.8</ele>
        <time>2022-01-16T07:49:38Z</time>
      </trkpt>
      <trkpt lat="45.21435" lon="6.02621">
        <ele>2116.8</ele>
        <time>2022-01-16T07:49:39Z</time>
      </trkpt>
      <trkpt lat="45.21432" lon="6.02617">
        <ele>2117.6</ele>
        <time>2022-01-16T07:49:45Z</time>
      </trkpt>
      <trkpt lat="45.21432" lon="6.02617">
        <ele>2117.6</ele>
        <time>2022-01-16T07:49:47Z</time>
      </trkpt>
      <trkpt lat="45.21433" lon="6.02616">
        <ele>2117.8</ele>
        <time>2022-01-16T07:49:52Z</time>
      </trkpt>
      <trkpt lat="45.21432" lon="6.02616">
        <ele>2117.8</ele>
        <time>2022-01-16T07:49:57Z</time>
      </trkpt>
      <trkpt lat="45.21432" lon="6.02616">
        <ele>2117.8</ele>
        <time>2022-01-16T07:49:59Z</time>
      </trkpt>
      <trkpt lat="45.21432" lon="6.02616">
        <ele>2117.8</ele>
        <time>2022-01-16T07:50:01Z</time>
      </trkpt>
      <trkpt lat="45.21432" lon="6.02616">
        <ele>2118</ele>
        <time>2022-01-16T07:50:03Z</time>
      </trkpt>
      <trkpt lat="45.21432" lon="6.02616">
        <ele>2118</ele>
        <time>2022-01-16T07:50:05Z</time>
      </trkpt>
      <trkpt lat="45.21433" lon="6.02616">
        <ele>2117.8</ele>
        <time>2022-01-16T07:50:11Z</time>
      </trkpt>
      <trkpt lat="45.21433" lon="6.02616">
        <ele>2117.8</ele>
        <time>2022-01-16T07:50:16Z</time>
      </trkpt>
      <trkpt lat="45.21433" lon="6.02615">
        <ele>2117.8</ele>
        <time>2022-01-16T07:50:22Z</time>
      </trkpt>
      <trkpt lat="45.21433" lon="6.02615">
        <ele>2118</ele>
        <time>2022-01-16T07:50:26Z</time>
      </trkpt>
      <trkpt lat="45.21431" lon="6.02607">
        <ele>2118</ele>
        <time>2022-01-16T07:50:32Z</time>
      </trkpt>
      <trkpt lat="45.21427" lon="6.02597">
        <ele>2118</ele>
        <time>2022-01-16T07:50:36Z</time>
      </trkpt>
      <trkpt lat="45.21426" lon="6.02594">
        <ele>2118</ele>
        <time>2022-01-16T07:50:37Z</time>
      </trkpt>
      <trkpt lat="45.21425" lon="6.02591">
        <ele>2118</ele>
        <time>2022-01-16T07:50:38Z</time>
      </trkpt>
      <trkpt lat="45.21423" lon="6.02584">
        <ele>2118</ele>
        <time>2022-01-16T07:50:41Z</time>
      </trkpt>
      <trkpt lat="45.21422" lon="6.02581">
        <ele>2117.6</ele>
        <time>2022-01-16T07:50:43Z</time>
      </trkpt>
      <trkpt lat="45.21417" lon="6.02576">
        <ele>2118.8</ele>
        <time>2022-01-16T07:50:48Z</time>
      </trkpt>
      <trkpt lat="45.21409" lon="6.02573">
        <ele>2120</ele>
        <time>2022-01-16T07:50:53Z</time>
      </trkpt>
      <trkpt lat="45.21405" lon="6.02571">
        <ele>2120.6</ele>
        <time>2022-01-16T07:50:57Z</time>
      </trkpt>
      <trkpt lat="45.21397" lon="6.02564">
        <ele>2120.8</ele>
        <time>2022-01-16T07:51:03Z</time>
      </trkpt>
      <trkpt lat="45.21396" lon="6.02563">
        <ele>2121</ele>
        <time>2022-01-16T07:51:04Z</time>
      </trkpt>
      <trkpt lat="45.21394" lon="6.0256">
        <ele>2121</ele>
        <time>2022-01-16T07:51:06Z</time>
      </trkpt>
      <trkpt lat="45.21387" lon="6.02551">
        <ele>2121.8</ele>
        <time>2022-01-16T07:51:12Z</time>
      </trkpt>
      <trkpt lat="45.21383" lon="6.02547">
        <ele>2122</ele>
        <time>2022-01-16T07:51:15Z</time>
      </trkpt>
      <trkpt lat="45.21378" lon="6.02542">
        <ele>2122.2</ele>
        <time>2022-01-16T07:51:19Z</time>
      </trkpt>
      <trkpt lat="45.21372" lon="6.02534">
        <ele>2122.6</ele>
        <time>2022-01-16T07:51:25Z</time>
      </trkpt>
      <trkpt lat="45.2137" lon="6.02532">
        <ele>2123.2</ele>
        <time>2022-01-16T07:51:27Z</time>
      </trkpt>
      <trkpt lat="45.21363" lon="6.02529">
        <ele>2123.6</ele>
        <time>2022-01-16T07:51:31Z</time>
      </trkpt>
      <trkpt lat="45.21362" lon="6.02529">
        <ele>2123.6</ele>
        <time>2022-01-16T07:51:32Z</time>
      </trkpt>
      <trkpt lat="45.21358" lon="6.02524">
        <ele>2124.2</ele>
        <time>2022-01-16T07:51:36Z</time>
      </trkpt>
      <trkpt lat="45.21357" lon="6.02524">
        <ele>2124.6</ele>
        <time>2022-01-16T07:51:37Z</time>
      </trkpt>
      <trkpt lat="45.21356" lon="6.02523">
        <ele>2125.4</ele>
        <time>2022-01-16T07:51:41Z</time>
      </trkpt>
      <trkpt lat="45.21355" lon="6.02524">
        <ele>2125.4</ele>
        <time>2022-01-16T07:51:43Z</time>
      </trkpt>
      <trkpt lat="45.21355" lon="6.02523">
        <ele>2125.2</ele>
        <time>2022-01-16T07:51:49Z</time>
      </trkpt>
      <trkpt lat="45.21355" lon="6.02523">
        <ele>2125</ele>
        <time>2022-01-16T07:51:55Z</time>
      </trkpt>
      <trkpt lat="45.21355" lon="6.02523">
        <ele>2125.2</ele>
        <time>2022-01-16T07:51:57Z</time>
      </trkpt>
      <trkpt lat="45.21355" lon="6.02523">
        <ele>2125.2</ele>
        <time>2022-01-16T07:52:00Z</time>
      </trkpt>
      <trkpt lat="45.21355" lon="6.02523">
        <ele>2125.2</ele>
        <time>2022-01-16T07:52:02Z</time>
      </trkpt>
      <trkpt lat="45.21355" lon="6.02523">
        <ele>2125.2</ele>
        <time>2022-01-16T07:52:04Z</time>
      </trkpt>
      <trkpt lat="45.21355" lon="6.02523">
        <ele>2125.2</ele>
        <time>2022-01-16T07:52:05Z</time>
      </trkpt>
      <trkpt lat="45.21355" lon="6.02523">
        <ele>2125</ele>
        <time>2022-01-16T07:52:11Z</time>
      </trkpt>
      <trkpt lat="45.21356" lon="6.02522">
        <ele>2124.8</ele>
        <time>2022-01-16T07:52:17Z</time>
      </trkpt>
      <trkpt lat="45.21357" lon="6.02521">
        <ele>2124.4</ele>
        <time>2022-01-16T07:52:18Z</time>
      </trkpt>
      <trkpt lat="45.21357" lon="6.02519">
        <ele>2124.2</ele>
        <time>2022-01-16T07:52:19Z</time>
      </trkpt>
      <trkpt lat="45.21358" lon="6.02518">
        <ele>2124.2</ele>
        <time>2022-01-16T07:52:20Z</time>
      </trkpt>
      <trkpt lat="45.21359" lon="6.02517">
        <ele>2124</ele>
        <time>2022-01-16T07:52:22Z</time>
      </trkpt>
      <trkpt lat="45.21359" lon="6.02516">
        <ele>2124</ele>
        <time>2022-01-16T07:52:23Z</time>
      </trkpt>
      <trkpt lat="45.21359" lon="6.02516">
        <ele>2124</ele>
        <time>2022-01-16T07:52:24Z</time>
      </trkpt>
      <trkpt lat="45.2136" lon="6.02515">
        <ele>2124</ele>
        <time>2022-01-16T07:52:25Z</time>
      </trkpt>
      <trkpt lat="45.21362" lon="6.02515">
        <ele>2124.2</ele>
        <time>2022-01-16T07:52:31Z</time>
      </trkpt>
      <trkpt lat="45.21362" lon="6.02516">
        <ele>2124.2</ele>
        <time>2022-01-16T07:52:32Z</time>
      </trkpt>
      <trkpt lat="45.21363" lon="6.02518">
        <ele>2124.2</ele>
        <time>2022-01-16T07:52:33Z</time>
      </trkpt>
      <trkpt lat="45.21363" lon="6.02519">
        <ele>2124</ele>
        <time>2022-01-16T07:52:34Z</time>
      </trkpt>
      <trkpt lat="45.21364" lon="6.02523">
        <ele>2124</ele>
        <time>2022-01-16T07:52:38Z</time>
      </trkpt>
      <trkpt lat="45.21366" lon="6.02524">
        <ele>2124</ele>
        <time>2022-01-16T07:52:39Z</time>
      </trkpt>
      <trkpt lat="45.21369" lon="6.02527">
        <ele>2123.8</ele>
        <time>2022-01-16T07:52:41Z</time>
      </trkpt>
      <trkpt lat="45.21371" lon="6.02527">
        <ele>2123.4</ele>
        <time>2022-01-16T07:52:43Z</time>
      </trkpt>
      <trkpt lat="45.21371" lon="6.02527">
        <ele>2123.4</ele>
        <time>2022-01-16T07:52:45Z</time>
      </trkpt>
      <trkpt lat="45.2137" lon="6.02527">
        <ele>2123.4</ele>
        <time>2022-01-16T07:52:46Z</time>
      </trkpt>
      <trkpt lat="45.21368" lon="6.02526">
        <ele>2123.4</ele>
        <time>2022-01-16T07:52:47Z</time>
      </trkpt>
      <trkpt lat="45.21365" lon="6.02524">
        <ele>2124</ele>
        <time>2022-01-16T07:52:49Z</time>
      </trkpt>
      <trkpt lat="45.21364" lon="6.02523">
        <ele>2124</ele>
        <time>2022-01-16T07:52:50Z</time>
      </trkpt>
      <trkpt lat="45.21362" lon="6.02521">
        <ele>2124.2</ele>
        <time>2022-01-16T07:52:52Z</time>
      </trkpt>
      <trkpt lat="45.21362" lon="6.02519">
        <ele>2124.2</ele>
        <time>2022-01-16T07:52:53Z</time>
      </trkpt>
      <trkpt lat="45.21362" lon="6.02516">
        <ele>2124.2</ele>
        <time>2022-01-16T07:52:55Z</time>
      </trkpt>
      <trkpt lat="45.21362" lon="6.02513">
        <ele>2123.8</ele>
        <time>2022-01-16T07:52:58Z</time>
      </trkpt>
      <trkpt lat="45.21362" lon="6.02513">
        <ele>2123.8</ele>
        <time>2022-01-16T07:52:59Z</time>
      </trkpt>
      <trkpt lat="45.21361" lon="6.02514">
        <ele>2123.8</ele>
        <time>2022-01-16T07:53:00Z</time>
      </trkpt>
      <trkpt lat="45.2136" lon="6.02515">
        <ele>2123.6</ele>
        <time>2022-01-16T07:53:03Z</time>
      </trkpt>
      <trkpt lat="45.21359" lon="6.02515">
        <ele>2123.8</ele>
        <time>2022-01-16T07:53:09Z</time>
      </trkpt>
      <trkpt lat="45.21359" lon="6.02515">
        <ele>2123.8</ele>
        <time>2022-01-16T07:53:10Z</time>
      </trkpt>
      <trkpt lat="45.21359" lon="6.02515">
        <ele>2123.8</ele>
        <time>2022-01-16T07:53:13Z</time>
      </trkpt>
      <trkpt lat="45.21359" lon="6.02515">
        <ele>2123.8</ele>
        <time>2022-01-16T07:53:15Z</time>
      </trkpt>
      <trkpt lat="45.21359" lon="6.02515">
        <ele>2123.8</ele>
        <time>2022-01-16T07:53:16Z</time>
      </trkpt>
      <trkpt lat="45.2136" lon="6.02515">
        <ele>2123.8</ele>
        <time>2022-01-16T07:53:22Z</time>
      </trkpt>
      <trkpt lat="45.2136" lon="6.02515">
        <ele>2123.6</ele>
        <time>2022-01-16T07:53:28Z</time>
      </trkpt>
      <trkpt lat="45.2136" lon="6.02515">
        <ele>2123.4</ele>
        <time>2022-01-16T07:53:30Z</time>
      </trkpt>
      <trkpt lat="45.2136" lon="6.02515">
        <ele>2123.4</ele>
        <time>2022-01-16T07:53:31Z</time>
      </trkpt>
      <trkpt lat="45.2136" lon="6.02515">
        <ele>2123.2</ele>
        <time>2022-01-16T07:53:33Z</time>
      </trkpt>
      <trkpt lat="45.2136" lon="6.02515">
        <ele>2123.2</ele>
        <time>2022-01-16T07:53:35Z</time>
      </trkpt>
      <trkpt lat="45.2136" lon="6.02515">
        <ele>2123</ele>
        <time>2022-01-16T07:53:38Z</time>
      </trkpt>
      <trkpt lat="45.2136" lon="6.02515">
        <ele>2122.8</ele>
        <time>2022-01-16T07:53:40Z</time>
      </trkpt>
      <trkpt lat="45.2136" lon="6.02515">
        <ele>2123.4</ele>
        <time>2022-01-16T07:53:44Z</time>
      </trkpt>
      <trkpt lat="45.2136" lon="6.02516">
        <ele>2123.4</ele>
        <time>2022-01-16T07:53:45Z</time>
      </trkpt>
      <trkpt lat="45.21361" lon="6.02516">
        <ele>2123.6</ele>
        <time>2022-01-16T07:53:47Z</time>
      </trkpt>
      <trkpt lat="45.21361" lon="6.02516">
        <ele>2123.6</ele>
        <time>2022-01-16T07:53:49Z</time>
      </trkpt>
      <trkpt lat="45.21361" lon="6.02517">
        <ele>2123.8</ele>
        <time>2022-01-16T07:53:55Z</time>
      </trkpt>
      <trkpt lat="45.21361" lon="6.02517">
        <ele>2123.4</ele>
        <time>2022-01-16T07:53:58Z</time>
      </trkpt>
      <trkpt lat="45.21361" lon="6.02517">
        <ele>2123.4</ele>
        <time>2022-01-16T07:54:04Z</time>
      </trkpt>
      <trkpt lat="45.21356" lon="6.02514">
        <ele>2123</ele>
        <time>2022-01-16T07:54:07Z</time>
      </trkpt>
      <trkpt lat="45.21354" lon="6.02512">
        <ele>2123</ele>
        <time>2022-01-16T07:54:08Z</time>
      </trkpt>
      <trkpt lat="45.2135" lon="6.02506">
        <ele>2121.2</ele>
        <time>2022-01-16T07:54:10Z</time>
      </trkpt>
      <trkpt lat="45.21347" lon="6.02503">
        <ele>2120.4</ele>
        <time>2022-01-16T07:54:11Z</time>
      </trkpt>
      <trkpt lat="45.21344" lon="6.02499">
        <ele>2119.8</ele>
        <time>2022-01-16T07:54:12Z</time>
      </trkpt>
      <trkpt lat="45.2134" lon="6.02492">
        <ele>2118.6</ele>
        <time>2022-01-16T07:54:14Z</time>
      </trkpt>
      <trkpt lat="45.21334" lon="6.02484">
        <ele>2117.2</ele>
        <time>2022-01-16T07:54:16Z</time>
      </trkpt>
      <trkpt lat="45.21329" lon="6.02476">
        <ele>2115.4</ele>
        <time>2022-01-16T07:54:18Z</time>
      </trkpt>
      <trkpt lat="45.21319" lon="6.02463">
        <ele>2112.4</ele>
        <time>2022-01-16T07:54:21Z</time>
      </trkpt>
      <trkpt lat="45.21317" lon="6.02459">
        <ele>2112</ele>
        <time>2022-01-16T07:54:22Z</time>
      </trkpt>
      <trkpt lat="45.21315" lon="6.02455">
        <ele>2110.8</ele>
        <time>2022-01-16T07:54:23Z</time>
      </trkpt>
      <trkpt lat="45.21307" lon="6.02442">
        <ele>2109.6</ele>
        <time>2022-01-16T07:54:26Z</time>
      </trkpt>
      <trkpt lat="45.21305" lon="6.02437">
        <ele>2108.6</ele>
        <time>2022-01-16T07:54:27Z</time>
      </trkpt>
      <trkpt lat="45.21303" lon="6.02432">
        <ele>2107.2</ele>
        <time>2022-01-16T07:54:28Z</time>
      </trkpt>
      <trkpt lat="45.21299" lon="6.02424">
        <ele>2105.2</ele>
        <time>2022-01-16T07:54:30Z</time>
      </trkpt>
      <trkpt lat="45.21297" lon="6.02423">
        <ele>2104.4</ele>
        <time>2022-01-16T07:54:33Z</time>
      </trkpt>
      <trkpt lat="45.21297" lon="6.02423">
        <ele>2104.2</ele>
        <time>2022-01-16T07:54:34Z</time>
      </trkpt>
      <trkpt lat="45.2129" lon="6.02416">
        <ele>2102.6</ele>
        <time>2022-01-16T07:54:38Z</time>
      </trkpt>
      <trkpt lat="45.21289" lon="6.02415">
        <ele>2101.6</ele>
        <time>2022-01-16T07:54:39Z</time>
      </trkpt>
      <trkpt lat="45.21288" lon="6.02414">
        <ele>2100.6</ele>
        <time>2022-01-16T07:54:40Z</time>
      </trkpt>
      <trkpt lat="45.21286" lon="6.02413">
        <ele>2100.4</ele>
        <time>2022-01-16T07:54:41Z</time>
      </trkpt>
      <trkpt lat="45.21281" lon="6.02408">
        <ele>2099</ele>
        <time>2022-01-16T07:54:43Z</time>
      </trkpt>
      <trkpt lat="45.21278" lon="6.02405">
        <ele>2098</ele>
        <time>2022-01-16T07:54:44Z</time>
      </trkpt>
      <trkpt lat="45.21273" lon="6.02399">
        <ele>2095.8</ele>
        <time>2022-01-16T07:54:46Z</time>
      </trkpt>
      <trkpt lat="45.21269" lon="6.02393">
        <ele>2094</ele>
        <time>2022-01-16T07:54:48Z</time>
      </trkpt>
      <trkpt lat="45.21263" lon="6.02386">
        <ele>2093.2</ele>
        <time>2022-01-16T07:54:50Z</time>
      </trkpt>
      <trkpt lat="45.21261" lon="6.02381">
        <ele>2091.8</ele>
        <time>2022-01-16T07:54:51Z</time>
      </trkpt>
      <trkpt lat="45.21258" lon="6.02376">
        <ele>2089.4</ele>
        <time>2022-01-16T07:54:52Z</time>
      </trkpt>
      <trkpt lat="45.21254" lon="6.02365">
        <ele>2086.6</ele>
        <time>2022-01-16T07:54:54Z</time>
      </trkpt>
      <trkpt lat="45.21253" lon="6.0236">
        <ele>2086.6</ele>
        <time>2022-01-16T07:54:55Z</time>
      </trkpt>
      <trkpt lat="45.21245" lon="6.02351">
        <ele>2084.6</ele>
        <time>2022-01-16T07:54:58Z</time>
      </trkpt>
      <trkpt lat="45.21243" lon="6.02349">
        <ele>2084.2</ele>
        <time>2022-01-16T07:54:59Z</time>
      </trkpt>
      <trkpt lat="45.21241" lon="6.02348">
        <ele>2083.4</ele>
        <time>2022-01-16T07:55:00Z</time>
      </trkpt>
      <trkpt lat="45.21238" lon="6.02347">
        <ele>2081.8</ele>
        <time>2022-01-16T07:55:01Z</time>
      </trkpt>
      <trkpt lat="45.21231" lon="6.02346">
        <ele>2080.6</ele>
        <time>2022-01-16T07:55:03Z</time>
      </trkpt>
      <trkpt lat="45.21229" lon="6.02345">
        <ele>2079.6</ele>
        <time>2022-01-16T07:55:04Z</time>
      </trkpt>
      <trkpt lat="45.21228" lon="6.02345">
        <ele>2078.6</ele>
        <time>2022-01-16T07:55:05Z</time>
      </trkpt>
      <trkpt lat="45.21224" lon="6.02344">
        <ele>2078.2</ele>
        <time>2022-01-16T07:55:07Z</time>
      </trkpt>
      <trkpt lat="45.21221" lon="6.02343">
        <ele>2077</ele>
        <time>2022-01-16T07:55:08Z</time>
      </trkpt>
      <trkpt lat="45.21221" lon="6.02342">
        <ele>2076</ele>
        <time>2022-01-16T07:55:09Z</time>
      </trkpt>
      <trkpt lat="45.2122" lon="6.02341">
        <ele>2075.4</ele>
        <time>2022-01-16T07:55:11Z</time>
      </trkpt>
      <trkpt lat="45.2122" lon="6.02341">
        <ele>2075</ele>
        <time>2022-01-16T07:55:12Z</time>
      </trkpt>
      <trkpt lat="45.2122" lon="6.02342">
        <ele>2074.8</ele>
        <time>2022-01-16T07:55:13Z</time>
      </trkpt>
      <trkpt lat="45.21213" lon="6.02337">
        <ele>2073.6</ele>
        <time>2022-01-16T07:55:17Z</time>
      </trkpt>
      <trkpt lat="45.21211" lon="6.02334">
        <ele>2072</ele>
        <time>2022-01-16T07:55:18Z</time>
      </trkpt>
      <trkpt lat="45.2121" lon="6.0233">
        <ele>2070.8</ele>
        <time>2022-01-16T07:55:19Z</time>
      </trkpt>
      <trkpt lat="45.21207" lon="6.02324">
        <ele>2069.8</ele>
        <time>2022-01-16T07:55:21Z</time>
      </trkpt>
      <trkpt lat="45.21198" lon="6.02313">
        <ele>2068.6</ele>
        <time>2022-01-16T07:55:25Z</time>
      </trkpt>
      <trkpt lat="45.21194" lon="6.0231">
        <ele>2068.2</ele>
        <time>2022-01-16T07:55:26Z</time>
      </trkpt>
      <trkpt lat="45.21191" lon="6.02308">
        <ele>2066</ele>
        <time>2022-01-16T07:55:27Z</time>
      </trkpt>
      <trkpt lat="45.21188" lon="6.02305">
        <ele>2064.8</ele>
        <time>2022-01-16T07:55:28Z</time>
      </trkpt>
      <trkpt lat="45.21186" lon="6.02303">
        <ele>2063.8</ele>
        <time>2022-01-16T07:55:29Z</time>
      </trkpt>
      <trkpt lat="45.21183" lon="6.02299">
        <ele>2062.6</ele>
        <time>2022-01-16T07:55:30Z</time>
      </trkpt>
      <trkpt lat="45.21178" lon="6.02294">
        <ele>2060.4</ele>
        <time>2022-01-16T07:55:33Z</time>
      </trkpt>
      <trkpt lat="45.21176" lon="6.0229">
        <ele>2059.6</ele>
        <time>2022-01-16T07:55:34Z</time>
      </trkpt>
      <trkpt lat="45.21174" lon="6.02287">
        <ele>2059</ele>
        <time>2022-01-16T07:55:35Z</time>
      </trkpt>
      <trkpt lat="45.21167" lon="6.02278">
        <ele>2057.6</ele>
        <time>2022-01-16T07:55:37Z</time>
      </trkpt>
      <trkpt lat="45.21152" lon="6.02265">
        <ele>2055.4</ele>
        <time>2022-01-16T07:55:40Z</time>
      </trkpt>
      <trkpt lat="45.21142" lon="6.02255">
        <ele>2053.4</ele>
        <time>2022-01-16T07:55:42Z</time>
      </trkpt>
      <trkpt lat="45.21138" lon="6.0225">
        <ele>2051.8</ele>
        <time>2022-01-16T07:55:43Z</time>
      </trkpt>
      <trkpt lat="45.2113" lon="6.02241">
        <ele>2050.6</ele>
        <time>2022-01-16T07:55:45Z</time>
      </trkpt>
      <trkpt lat="45.21127" lon="6.02236">
        <ele>2050.6</ele>
        <time>2022-01-16T07:55:46Z</time>
      </trkpt>
      <trkpt lat="45.21125" lon="6.02231">
        <ele>2050.2</ele>
        <time>2022-01-16T07:55:47Z</time>
      </trkpt>
      <trkpt lat="45.21123" lon="6.02226">
        <ele>2049.6</ele>
        <time>2022-01-16T07:55:48Z</time>
      </trkpt>
      <trkpt lat="45.2112" lon="6.02214">
        <ele>2048.2</ele>
        <time>2022-01-16T07:55:50Z</time>
      </trkpt>
      <trkpt lat="45.21118" lon="6.02199">
        <ele>2046</ele>
        <time>2022-01-16T07:55:52Z</time>
      </trkpt>
      <trkpt lat="45.21116" lon="6.02183">
        <ele>2045.6</ele>
        <time>2022-01-16T07:55:54Z</time>
      </trkpt>
      <trkpt lat="45.21113" lon="6.02175">
        <ele>2044.8</ele>
        <time>2022-01-16T07:55:55Z</time>
      </trkpt>
      <trkpt lat="45.2111" lon="6.02168">
        <ele>2043.8</ele>
        <time>2022-01-16T07:55:56Z</time>
      </trkpt>
      <trkpt lat="45.21105" lon="6.02162">
        <ele>2041.6</ele>
        <time>2022-01-16T07:55:57Z</time>
      </trkpt>
      <trkpt lat="45.21099" lon="6.02157">
        <ele>2040.4</ele>
        <time>2022-01-16T07:55:59Z</time>
      </trkpt>
      <trkpt lat="45.21092" lon="6.02154">
        <ele>2039.8</ele>
        <time>2022-01-16T07:56:01Z</time>
      </trkpt>
      <trkpt lat="45.21086" lon="6.02149">
        <ele>2039.2</ele>
        <time>2022-01-16T07:56:04Z</time>
      </trkpt>
      <trkpt lat="45.21077" lon="6.0214">
        <ele>2038.4</ele>
        <time>2022-01-16T07:56:07Z</time>
      </trkpt>
      <trkpt lat="45.21072" lon="6.02135">
        <ele>2038.4</ele>
        <time>2022-01-16T07:56:08Z</time>
      </trkpt>
      <trkpt lat="45.21067" lon="6.02129">
        <ele>2037.6</ele>
        <time>2022-01-16T07:56:09Z</time>
      </trkpt>
      <trkpt lat="45.21061" lon="6.02124">
        <ele>2036.4</ele>
        <time>2022-01-16T07:56:10Z</time>
      </trkpt>
      <trkpt lat="45.2105" lon="6.02117">
        <ele>2035.8</ele>
        <time>2022-01-16T07:56:12Z</time>
      </trkpt>
      <trkpt lat="45.21045" lon="6.02115">
        <ele>2034.2</ele>
        <time>2022-01-16T07:56:13Z</time>
      </trkpt>
      <trkpt lat="45.21041" lon="6.02114">
        <ele>2032.8</ele>
        <time>2022-01-16T07:56:14Z</time>
      </trkpt>
      <trkpt lat="45.21033" lon="6.02113">
        <ele>2032.4</ele>
        <time>2022-01-16T07:56:16Z</time>
      </trkpt>
      <trkpt lat="45.2103" lon="6.02113">
        <ele>2032</ele>
        <time>2022-01-16T07:56:17Z</time>
      </trkpt>
      <trkpt lat="45.21026" lon="6.02113">
        <ele>2031.6</ele>
        <time>2022-01-16T07:56:18Z</time>
      </trkpt>
      <trkpt lat="45.21022" lon="6.02113">
        <ele>2031</ele>
        <time>2022-01-16T07:56:19Z</time>
      </trkpt>
      <trkpt lat="45.21019" lon="6.02113">
        <ele>2030.4</ele>
        <time>2022-01-16T07:56:20Z</time>
      </trkpt>
      <trkpt lat="45.21014" lon="6.02113">
        <ele>2029.4</ele>
        <time>2022-01-16T07:56:22Z</time>
      </trkpt>
      <trkpt lat="45.21013" lon="6.02113">
        <ele>2029.4</ele>
        <time>2022-01-16T07:56:23Z</time>
      </trkpt>
      <trkpt lat="45.21013" lon="6.02114">
        <ele>2029</ele>
        <time>2022-01-16T07:56:25Z</time>
      </trkpt>
      <trkpt lat="45.21013" lon="6.02116">
        <ele>2029</ele>
        <time>2022-01-16T07:56:27Z</time>
      </trkpt>
      <trkpt lat="45.21012" lon="6.02117">
        <ele>2029.2</ele>
        <time>2022-01-16T07:56:29Z</time>
      </trkpt>
      <trkpt lat="45.21012" lon="6.02118">
        <ele>2029.2</ele>
        <time>2022-01-16T07:56:31Z</time>
      </trkpt>
      <trkpt lat="45.21012" lon="6.02118">
        <ele>2029.2</ele>
        <time>2022-01-16T07:56:33Z</time>
      </trkpt>
      <trkpt lat="45.21012" lon="6.02118">
        <ele>2029.2</ele>
        <time>2022-01-16T07:56:34Z</time>
      </trkpt>
      <trkpt lat="45.21013" lon="6.02118">
        <ele>2029.2</ele>
        <time>2022-01-16T07:56:40Z</time>
      </trkpt>
      <trkpt lat="45.21013" lon="6.02118">
        <ele>2029</ele>
        <time>2022-01-16T07:56:44Z</time>
      </trkpt>
      <trkpt lat="45.21013" lon="6.02118">
        <ele>2029</ele>
        <time>2022-01-16T07:56:46Z</time>
      </trkpt>
      <trkpt lat="45.21013" lon="6.02118">
        <ele>2029</ele>
        <time>2022-01-16T07:56:47Z</time>
      </trkpt>
      <trkpt lat="45.21013" lon="6.02118">
        <ele>2029.2</ele>
        <time>2022-01-16T07:56:53Z</time>
      </trkpt>
      <trkpt lat="45.21013" lon="6.02118">
        <ele>2029.2</ele>
        <time>2022-01-16T07:56:54Z</time>
      </trkpt>
      <trkpt lat="45.21013" lon="6.02118">
        <ele>2029.2</ele>
        <time>2022-01-16T07:56:55Z</time>
      </trkpt>
      <trkpt lat="45.21013" lon="6.02118">
        <ele>2029.2</ele>
        <time>2022-01-16T07:56:56Z</time>
      </trkpt>
      <trkpt lat="45.21013" lon="6.02117">
        <ele>2029.2</ele>
        <time>2022-01-16T07:56:58Z</time>
      </trkpt>
      <trkpt lat="45.21013" lon="6.02117">
        <ele>2029.2</ele>
        <time>2022-01-16T07:56:59Z</time>
      </trkpt>
      <trkpt lat="45.21013" lon="6.02117">
        <ele>2029.2</ele>
        <time>2022-01-16T07:57:00Z</time>
      </trkpt>
      <trkpt lat="45.21013" lon="6.02117">
        <ele>2029.2</ele>
        <time>2022-01-16T07:57:02Z</time>
      </trkpt>
      <trkpt lat="45.21014" lon="6.02117">
        <ele>2029.2</ele>
        <time>2022-01-16T07:57:08Z</time>
      </trkpt>
      <trkpt lat="45.21014" lon="6.02117">
        <ele>2029.2</ele>
        <time>2022-01-16T07:57:09Z</time>
      </trkpt>
      <trkpt lat="45.21014" lon="6.02116">
        <ele>2029.4</ele>
        <time>2022-01-16T07:57:14Z</time>
      </trkpt>
      <trkpt lat="45.21014" lon="6.02116">
        <ele>2029.4</ele>
        <time>2022-01-16T07:57:15Z</time>
      </trkpt>
      <trkpt lat="45.21015" lon="6.02116">
        <ele>2029.4</ele>
        <time>2022-01-16T07:57:16Z</time>
      </trkpt>
      <trkpt lat="45.21015" lon="6.02116">
        <ele>2029.4</ele>
        <time>2022-01-16T07:57:19Z</time>
      </trkpt>
      <trkpt lat="45.21014" lon="6.02117">
        <ele>2028.4</ele>
        <time>2022-01-16T07:57:23Z</time>
      </trkpt>
      <trkpt lat="45.21011" lon="6.02119">
        <ele>2028.2</ele>
        <time>2022-01-16T07:57:24Z</time>
      </trkpt>
      <trkpt lat="45.21007" lon="6.02122">
        <ele>2027.6</ele>
        <time>2022-01-16T07:57:25Z</time>
      </trkpt>
      <trkpt lat="45.21004" lon="6.02123">
        <ele>2027</ele>
        <time>2022-01-16T07:57:26Z</time>
      </trkpt>
      <trkpt lat="45.21" lon="6.02125">
        <ele>2025.6</ele>
        <time>2022-01-16T07:57:27Z</time>
      </trkpt>
      <trkpt lat="45.20993" lon="6.02128">
        <ele>2025</ele>
        <time>2022-01-16T07:57:29Z</time>
      </trkpt>
      <trkpt lat="45.2099" lon="6.0213">
        <ele>2025</ele>
        <time>2022-01-16T07:57:30Z</time>
      </trkpt>
      <trkpt lat="45.20986" lon="6.02131">
        <ele>2023.6</ele>
        <time>2022-01-16T07:57:31Z</time>
      </trkpt>
      <trkpt lat="45.20979" lon="6.02133">
        <ele>2022.6</ele>
        <time>2022-01-16T07:57:33Z</time>
      </trkpt>
      <trkpt lat="45.20975" lon="6.02134">
        <ele>2022.2</ele>
        <time>2022-01-16T07:57:34Z</time>
      </trkpt>
      <trkpt lat="45.20968" lon="6.02135">
        <ele>2020.6</ele>
        <time>2022-01-16T07:57:36Z</time>
      </trkpt>
      <trkpt lat="45.2096" lon="6.02133">
        <ele>2019.6</ele>
        <time>2022-01-16T07:57:39Z</time>
      </trkpt>
      <trkpt lat="45.20958" lon="6.02132">
        <ele>2019.4</ele>
        <time>2022-01-16T07:57:40Z</time>
      </trkpt>
      <trkpt lat="45.20958" lon="6.0213">
        <ele>2018.2</ele>
        <time>2022-01-16T07:57:42Z</time>
      </trkpt>
      <trkpt lat="45.20958" lon="6.02129">
        <ele>2018</ele>
        <time>2022-01-16T07:57:43Z</time>
      </trkpt>
      <trkpt lat="45.20952" lon="6.0213">
        <ele>2017.8</ele>
        <time>2022-01-16T07:57:49Z</time>
      </trkpt>
      <trkpt lat="45.20949" lon="6.0213">
        <ele>2017</ele>
        <time>2022-01-16T07:57:50Z</time>
      </trkpt>
      <trkpt lat="45.20938" lon="6.02126">
        <ele>2015.8</ele>
        <time>2022-01-16T07:57:53Z</time>
      </trkpt>
      <trkpt lat="45.20932" lon="6.02127">
        <ele>2014.4</ele>
        <time>2022-01-16T07:57:55Z</time>
      </trkpt>
      <trkpt lat="45.2093" lon="6.02126">
        <ele>2013.6</ele>
        <time>2022-01-16T07:57:57Z</time>
      </trkpt>
      <trkpt lat="45.2093" lon="6.02125">
        <ele>2013.6</ele>
        <time>2022-01-16T07:57:58Z</time>
      </trkpt>
      <trkpt lat="45.20929" lon="6.02125">
        <ele>2013.4</ele>
        <time>2022-01-16T07:58:00Z</time>
      </trkpt>
      <trkpt lat="45.20929" lon="6.02125">
        <ele>2013.2</ele>
        <time>2022-01-16T07:58:01Z</time>
      </trkpt>
      <trkpt lat="45.20929" lon="6.02125">
        <ele>2013.2</ele>
        <time>2022-01-16T07:58:02Z</time>
      </trkpt>
      <trkpt lat="45.2093" lon="6.02125">
        <ele>2013.2</ele>
        <time>2022-01-16T07:58:03Z</time>
      </trkpt>
      <trkpt lat="45.20932" lon="6.02126">
        <ele>2013.2</ele>
        <time>2022-01-16T07:58:08Z</time>
      </trkpt>
      <trkpt lat="45.20932" lon="6.02125">
        <ele>2013</ele>
        <time>2022-01-16T07:58:10Z</time>
      </trkpt>
      <trkpt lat="45.20933" lon="6.02125">
        <ele>2013</ele>
        <time>2022-01-16T07:58:13Z</time>
      </trkpt>
      <trkpt lat="45.20933" lon="6.02125">
        <ele>2013</ele>
        <time>2022-01-16T07:58:15Z</time>
      </trkpt>
      <trkpt lat="45.20931" lon="6.02126">
        <ele>2013</ele>
        <time>2022-01-16T07:58:18Z</time>
      </trkpt>
      <trkpt lat="45.20931" lon="6.02126">
        <ele>2013.2</ele>
        <time>2022-01-16T07:58:20Z</time>
      </trkpt>
      <trkpt lat="45.20931" lon="6.02126">
        <ele>2013.2</ele>
        <time>2022-01-16T07:58:22Z</time>
      </trkpt>
      <trkpt lat="45.20931" lon="6.02126">
        <ele>2013.2</ele>
        <time>2022-01-16T07:58:23Z</time>
      </trkpt>
      <trkpt lat="45.20931" lon="6.02126">
        <ele>2013.2</ele>
        <time>2022-01-16T07:58:25Z</time>
      </trkpt>
      <trkpt lat="45.20931" lon="6.02126">
        <ele>2013</ele>
        <time>2022-01-16T07:58:27Z</time>
      </trkpt>
      <trkpt lat="45.20931" lon="6.02126">
        <ele>2013</ele>
        <time>2022-01-16T07:58:31Z</time>
      </trkpt>
      <trkpt lat="45.20931" lon="6.02126">
        <ele>2012.8</ele>
        <time>2022-01-16T07:58:35Z</time>
      </trkpt>
      <trkpt lat="45.20931" lon="6.02126">
        <ele>2013</ele>
        <time>2022-01-16T07:58:36Z</time>
      </trkpt>
      <trkpt lat="45.2093" lon="6.02126">
        <ele>2013.2</ele>
        <time>2022-01-16T07:58:42Z</time>
      </trkpt>
      <trkpt lat="45.2093" lon="6.02126">
        <ele>2013.4</ele>
        <time>2022-01-16T07:58:44Z</time>
      </trkpt>
      <trkpt lat="45.2093" lon="6.02126">
        <ele>2013.4</ele>
        <time>2022-01-16T07:58:48Z</time>
      </trkpt>
      <trkpt lat="45.2093" lon="6.02127">
        <ele>2013.4</ele>
        <time>2022-01-16T07:58:50Z</time>
      </trkpt>
      <trkpt lat="45.2093" lon="6.02127">
        <ele>2013.2</ele>
        <time>2022-01-16T07:58:52Z</time>
      </trkpt>
      <trkpt lat="45.2093" lon="6.02127">
        <ele>2013.2</ele>
        <time>2022-01-16T07:58:54Z</time>
      </trkpt>
      <trkpt lat="45.2093" lon="6.02127">
        <ele>2013</ele>
        <time>2022-01-16T07:58:57Z</time>
      </trkpt>
      <trkpt lat="45.2093" lon="6.02127">
        <ele>2013</ele>
        <time>2022-01-16T07:58:58Z</time>
      </trkpt>
      <trkpt lat="45.20929" lon="6.02127">
        <ele>2013</ele>
        <time>2022-01-16T07:59:00Z</time>
      </trkpt>
      <trkpt lat="45.20929" lon="6.02127">
        <ele>2013</ele>
        <time>2022-01-16T07:59:03Z</time>
      </trkpt>
      <trkpt lat="45.20929" lon="6.02128">
        <ele>2013.2</ele>
        <time>2022-01-16T07:59:06Z</time>
      </trkpt>
      <trkpt lat="45.20929" lon="6.02128">
        <ele>2013.2</ele>
        <time>2022-01-16T07:59:07Z</time>
      </trkpt>
      <trkpt lat="45.20928" lon="6.02128">
        <ele>2013.2</ele>
        <time>2022-01-16T07:59:08Z</time>
      </trkpt>
      <trkpt lat="45.20928" lon="6.02128">
        <ele>2013.2</ele>
        <time>2022-01-16T07:59:09Z</time>
      </trkpt>
      <trkpt lat="45.20928" lon="6.02128">
        <ele>2013.2</ele>
        <time>2022-01-16T07:59:12Z</time>
      </trkpt>
      <trkpt lat="45.20928" lon="6.02128">
        <ele>2013.2</ele>
        <time>2022-01-16T07:59:16Z</time>
      </trkpt>
      <trkpt lat="45.20928" lon="6.02128">
        <ele>2013.2</ele>
        <time>2022-01-16T07:59:19Z</time>
      </trkpt>
      <trkpt lat="45.20928" lon="6.02128">
        <ele>2013.2</ele>
        <time>2022-01-16T07:59:21Z</time>
      </trkpt>
      <trkpt lat="45.20928" lon="6.02128">
        <ele>2013.2</ele>
        <time>2022-01-16T07:59:24Z</time>
      </trkpt>
      <trkpt lat="45.20928" lon="6.02128">
        <ele>2013.2</ele>
        <time>2022-01-16T07:59:30Z</time>
      </trkpt>
      <trkpt lat="45.20928" lon="6.02127">
        <ele>2013.2</ele>
        <time>2022-01-16T07:59:34Z</time>
      </trkpt>
      <trkpt lat="45.20928" lon="6.02127">
        <ele>2013.2</ele>
        <time>2022-01-16T07:59:38Z</time>
      </trkpt>
      <trkpt lat="45.20928" lon="6.02127">
        <ele>2013.2</ele>
        <time>2022-01-16T07:59:39Z</time>
      </trkpt>
      <trkpt lat="45.20928" lon="6.02127">
        <ele>2013.2</ele>
        <time>2022-01-16T07:59:40Z</time>
      </trkpt>
      <trkpt lat="45.20928" lon="6.02127">
        <ele>2013.2</ele>
        <time>2022-01-16T07:59:41Z</time>
      </trkpt>
      <trkpt lat="45.20928" lon="6.02127">
        <ele>2013.2</ele>
        <time>2022-01-16T07:59:42Z</time>
      </trkpt>
      <trkpt lat="45.20929" lon="6.02128">
        <ele>2013.2</ele>
        <time>2022-01-16T07:59:48Z</time>
      </trkpt>
      <trkpt lat="45.20929" lon="6.02128">
        <ele>2013.2</ele>
        <time>2022-01-16T07:59:50Z</time>
      </trkpt>
      <trkpt lat="45.20929" lon="6.02127">
        <ele>2013.2</ele>
        <time>2022-01-16T07:59:56Z</time>
      </trkpt>
      <trkpt lat="45.20929" lon="6.02127">
        <ele>2013.2</ele>
        <time>2022-01-16T07:59:58Z</time>
      </trkpt>
      <trkpt lat="45.20929" lon="6.02127">
        <ele>2013.2</ele>
        <time>2022-01-16T07:59:59Z</time>
      </trkpt>
      <trkpt lat="45.20929" lon="6.02127">
        <ele>2013.2</ele>
        <time>2022-01-16T08:00:00Z</time>
      </trkpt>
      <trkpt lat="45.20927" lon="6.02126">
        <ele>2013.2</ele>
        <time>2022-01-16T08:00:02Z</time>
      </trkpt>
      <trkpt lat="45.20925" lon="6.02124">
        <ele>2013.2</ele>
        <time>2022-01-16T08:00:04Z</time>
      </trkpt>
      <trkpt lat="45.20923" lon="6.02122">
        <ele>2013.2</ele>
        <time>2022-01-16T08:00:06Z</time>
      </trkpt>
      <trkpt lat="45.20921" lon="6.0212">
        <ele>2014</ele>
        <time>2022-01-16T08:00:08Z</time>
      </trkpt>
      <trkpt lat="45.20919" lon="6.02118">
        <ele>2014.6</ele>
        <time>2022-01-16T08:00:11Z</time>
      </trkpt>
      <trkpt lat="45.20917" lon="6.02117">
        <ele>2014.8</ele>
        <time>2022-01-16T08:00:13Z</time>
      </trkpt>
      <trkpt lat="45.20914" lon="6.02116">
        <ele>2015.8</ele>
        <time>2022-01-16T08:00:17Z</time>
      </trkpt>
      <trkpt lat="45.20914" lon="6.02116">
        <ele>2015.8</ele>
        <time>2022-01-16T08:00:18Z</time>
      </trkpt>
      <trkpt lat="45.20913" lon="6.02115">
        <ele>2016</ele>
        <time>2022-01-16T08:00:20Z</time>
      </trkpt>
      <trkpt lat="45.20911" lon="6.02114">
        <ele>2016.8</ele>
        <time>2022-01-16T08:00:23Z</time>
      </trkpt>
      <trkpt lat="45.20909" lon="6.02112">
        <ele>2017.2</ele>
        <time>2022-01-16T08:00:26Z</time>
      </trkpt>
      <trkpt lat="45.20907" lon="6.02111">
        <ele>2018</ele>
        <time>2022-01-16T08:00:29Z</time>
      </trkpt>
      <trkpt lat="45.20908" lon="6.02108">
        <ele>2018</ele>
        <time>2022-01-16T08:00:32Z</time>
      </trkpt>
      <trkpt lat="45.20913" lon="6.02105">
        <ele>2018.6</ele>
        <time>2022-01-16T08:00:38Z</time>
      </trkpt>
      <trkpt lat="45.20915" lon="6.02104">
        <ele>2019</ele>
        <time>2022-01-16T08:00:40Z</time>
      </trkpt>
      <trkpt lat="45.2092" lon="6.02101">
        <ele>2019.8</ele>
        <time>2022-01-16T08:00:45Z</time>
      </trkpt>
      <trkpt lat="45.20923" lon="6.021">
        <ele>2020.8</ele>
        <time>2022-01-16T08:00:48Z</time>
      </trkpt>
      <trkpt lat="45.20929" lon="6.02096">
        <ele>2021.4</ele>
        <time>2022-01-16T08:00:54Z</time>
      </trkpt>
      <trkpt lat="45.20931" lon="6.02095">
        <ele>2022.2</ele>
        <time>2022-01-16T08:00:56Z</time>
      </trkpt>
      <trkpt lat="45.20937" lon="6.02092">
        <ele>2023.2</ele>
        <time>2022-01-16T08:01:02Z</time>
      </trkpt>
      <trkpt lat="45.20938" lon="6.02091">
        <ele>2023.2</ele>
        <time>2022-01-16T08:01:04Z</time>
      </trkpt>
      <trkpt lat="45.20939" lon="6.02091">
        <ele>2023.6</ele>
        <time>2022-01-16T08:01:05Z</time>
      </trkpt>
      <trkpt lat="45.20942" lon="6.02089">
        <ele>2023.6</ele>
        <time>2022-01-16T08:01:09Z</time>
      </trkpt>
      <trkpt lat="45.20942" lon="6.02088">
        <ele>2023.8</ele>
        <time>2022-01-16T08:01:10Z</time>
      </trkpt>
      <trkpt lat="45.20942" lon="6.02088">
        <ele>2024.4</ele>
        <time>2022-01-16T08:01:12Z</time>
      </trkpt>
      <trkpt lat="45.20939" lon="6.02086">
        <ele>2025.2</ele>
        <time>2022-01-16T08:01:16Z</time>
      </trkpt>
      <trkpt lat="45.20938" lon="6.02086">
        <ele>2025.6</ele>
        <time>2022-01-16T08:01:17Z</time>
      </trkpt>
      <trkpt lat="45.20936" lon="6.02084">
        <ele>2026.6</ele>
        <time>2022-01-16T08:01:20Z</time>
      </trkpt>
      <trkpt lat="45.20933" lon="6.02083">
        <ele>2027.6</ele>
        <time>2022-01-16T08:01:24Z</time>
      </trkpt>
      <trkpt lat="45.20931" lon="6.02082">
        <ele>2027.8</ele>
        <time>2022-01-16T08:01:26Z</time>
      </trkpt>
      <trkpt lat="45.20929" lon="6.02082">
        <ele>2029</ele>
        <time>2022-01-16T08:01:28Z</time>
      </trkpt>
      <trkpt lat="45.20927" lon="6.02079">
        <ele>2029.4</ele>
        <time>2022-01-16T08:01:32Z</time>
      </trkpt>
      <trkpt lat="45.20926" lon="6.02077">
        <ele>2029.6</ele>
        <time>2022-01-16T08:01:34Z</time>
      </trkpt>
      <trkpt lat="45.20923" lon="6.02074">
        <ele>2030.2</ele>
        <time>2022-01-16T08:01:37Z</time>
      </trkpt>
      <trkpt lat="45.2092" lon="6.02073">
        <ele>2031</ele>
        <time>2022-01-16T08:01:40Z</time>
      </trkpt>
      <trkpt lat="45.20919" lon="6.02073">
        <ele>2031</ele>
        <time>2022-01-16T08:01:42Z</time>
      </trkpt>
      <trkpt lat="45.20918" lon="6.02073">
        <ele>2031.4</ele>
        <time>2022-01-16T08:01:43Z</time>
      </trkpt>
      <trkpt lat="45.20917" lon="6.02072">
        <ele>2032</ele>
        <time>2022-01-16T08:01:45Z</time>
      </trkpt>
      <trkpt lat="45.20916" lon="6.02071">
        <ele>2032.6</ele>
        <time>2022-01-16T08:01:47Z</time>
      </trkpt>
      <trkpt lat="45.20911" lon="6.0207">
        <ele>2033.6</ele>
        <time>2022-01-16T08:01:52Z</time>
      </trkpt>
      <trkpt lat="45.20909" lon="6.02067">
        <ele>2034</ele>
        <time>2022-01-16T08:01:55Z</time>
      </trkpt>
      <trkpt lat="45.20907" lon="6.02065">
        <ele>2035.2</ele>
        <time>2022-01-16T08:01:59Z</time>
      </trkpt>
      <trkpt lat="45.20907" lon="6.02064">
        <ele>2035.2</ele>
        <time>2022-01-16T08:02:00Z</time>
      </trkpt>
      <trkpt lat="45.20908" lon="6.02057">
        <ele>2036.2</ele>
        <time>2022-01-16T08:02:06Z</time>
      </trkpt>
      <trkpt lat="45.20908" lon="6.02056">
        <ele>2036.2</ele>
        <time>2022-01-16T08:02:07Z</time>
      </trkpt>
      <trkpt lat="45.2091" lon="6.02053">
        <ele>2037.2</ele>
        <time>2022-01-16T08:02:11Z</time>
      </trkpt>
      <trkpt lat="45.2091" lon="6.02051">
        <ele>2037.2</ele>
        <time>2022-01-16T08:02:12Z</time>
      </trkpt>
      <trkpt lat="45.20913" lon="6.02049">
        <ele>2037.8</ele>
        <time>2022-01-16T08:02:15Z</time>
      </trkpt>
      <trkpt lat="45.20916" lon="6.02047">
        <ele>2037.8</ele>
        <time>2022-01-16T08:02:17Z</time>
      </trkpt>
      <trkpt lat="45.20918" lon="6.02045">
        <ele>2037.8</ele>
        <time>2022-01-16T08:02:19Z</time>
      </trkpt>
      <trkpt lat="45.2092" lon="6.02042">
        <ele>2038.2</ele>
        <time>2022-01-16T08:02:21Z</time>
      </trkpt>
      <trkpt lat="45.20921" lon="6.02041">
        <ele>2038.4</ele>
        <time>2022-01-16T08:02:23Z</time>
      </trkpt>
      <trkpt lat="45.20924" lon="6.0204">
        <ele>2038.4</ele>
        <time>2022-01-16T08:02:25Z</time>
      </trkpt>
      <trkpt lat="45.20925" lon="6.02039">
        <ele>2038.8</ele>
        <time>2022-01-16T08:02:27Z</time>
      </trkpt>
      <trkpt lat="45.20926" lon="6.02039">
        <ele>2038.8</ele>
        <time>2022-01-16T08:02:28Z</time>
      </trkpt>
      <trkpt lat="45.20929" lon="6.0204">
        <ele>2039</ele>
        <time>2022-01-16T08:02:34Z</time>
      </trkpt>
      <trkpt lat="45.2093" lon="6.0204">
        <ele>2039</ele>
        <time>2022-01-16T08:02:35Z</time>
      </trkpt>
      <trkpt lat="45.20929" lon="6.02039">
        <ele>2039.2</ele>
        <time>2022-01-16T08:02:39Z</time>
      </trkpt>
      <trkpt lat="45.2093" lon="6.02039">
        <ele>2039</ele>
        <time>2022-01-16T08:02:42Z</time>
      </trkpt>
      <trkpt lat="45.20931" lon="6.02042">
        <ele>2038.8</ele>
        <time>2022-01-16T08:02:44Z</time>
      </trkpt>
      <trkpt lat="45.20931" lon="6.02043">
        <ele>2038.8</ele>
        <time>2022-01-16T08:02:45Z</time>
      </trkpt>
      <trkpt lat="45.20931" lon="6.02044">
        <ele>2038.8</ele>
        <time>2022-01-16T08:02:47Z</time>
      </trkpt>
      <trkpt lat="45.20931" lon="6.02043">
        <ele>2039</ele>
        <time>2022-01-16T08:02:51Z</time>
      </trkpt>
      <trkpt lat="45.20931" lon="6.02043">
        <ele>2039</ele>
        <time>2022-01-16T08:02:53Z</time>
      </trkpt>
      <trkpt lat="45.20931" lon="6.02043">
        <ele>2039</ele>
        <time>2022-01-16T08:02:54Z</time>
      </trkpt>
      <trkpt lat="45.20931" lon="6.02043">
        <ele>2039.2</ele>
        <time>2022-01-16T08:02:58Z</time>
      </trkpt>
      <trkpt lat="45.20931" lon="6.02043">
        <ele>2039</ele>
        <time>2022-01-16T08:03:00Z</time>
      </trkpt>
      <trkpt lat="45.20931" lon="6.02043">
        <ele>2039</ele>
        <time>2022-01-16T08:03:01Z</time>
      </trkpt>
      <trkpt lat="45.20931" lon="6.02043">
        <ele>2039</ele>
        <time>2022-01-16T08:03:02Z</time>
      </trkpt>
      <trkpt lat="45.20933" lon="6.02042">
        <ele>2039</ele>
        <time>2022-01-16T08:03:05Z</time>
      </trkpt>
      <trkpt lat="45.20935" lon="6.02041">
        <ele>2039.4</ele>
        <time>2022-01-16T08:03:06Z</time>
      </trkpt>
      <trkpt lat="45.20936" lon="6.02041">
        <ele>2039.6</ele>
        <time>2022-01-16T08:03:07Z</time>
      </trkpt>
      <trkpt lat="45.20939" lon="6.0204">
        <ele>2039.6</ele>
        <time>2022-01-16T08:03:09Z</time>
      </trkpt>
      <trkpt lat="45.20944" lon="6.02038">
        <ele>2040.6</ele>
        <time>2022-01-16T08:03:12Z</time>
      </trkpt>
      <trkpt lat="45.20945" lon="6.02037">
        <ele>2040.8</ele>
        <time>2022-01-16T08:03:13Z</time>
      </trkpt>
      <trkpt lat="45.20947" lon="6.02037">
        <ele>2041.2</ele>
        <time>2022-01-16T08:03:15Z</time>
      </trkpt>
      <trkpt lat="45.20948" lon="6.02036">
        <ele>2041.2</ele>
        <time>2022-01-16T08:03:16Z</time>
      </trkpt>
      <trkpt lat="45.20949" lon="6.02035">
        <ele>2041.6</ele>
        <time>2022-01-16T08:03:17Z</time>
      </trkpt>
      <trkpt lat="45.20954" lon="6.02034">
        <ele>2042.2</ele>
        <time>2022-01-16T08:03:20Z</time>
      </trkpt>
      <trkpt lat="45.20957" lon="6.02032">
        <ele>2043.4</ele>
        <time>2022-01-16T08:03:24Z</time>
      </trkpt>
      <trkpt lat="45.20959" lon="6.02031">
        <ele>2044.4</ele>
        <time>2022-01-16T08:03:27Z</time>
      </trkpt>
      <trkpt lat="45.20962" lon="6.0203">
        <ele>2044.4</ele>
        <time>2022-01-16T08:03:30Z</time>
      </trkpt>
      <trkpt lat="45.20964" lon="6.02029">
        <ele>2045.2</ele>
        <time>2022-01-16T08:03:32Z</time>
      </trkpt>
      <trkpt lat="45.20965" lon="6.02029">
        <ele>2045.4</ele>
        <time>2022-01-16T08:03:33Z</time>
      </trkpt>
      <trkpt lat="45.20967" lon="6.02027">
        <ele>2045.8</ele>
        <time>2022-01-16T08:03:35Z</time>
      </trkpt>
      <trkpt lat="45.20969" lon="6.02026">
        <ele>2046.2</ele>
        <time>2022-01-16T08:03:36Z</time>
      </trkpt>
      <trkpt lat="45.2097" lon="6.02026">
        <ele>2046.4</ele>
        <time>2022-01-16T08:03:37Z</time>
      </trkpt>
      <trkpt lat="45.20972" lon="6.02025">
        <ele>2046.8</ele>
        <time>2022-01-16T08:03:39Z</time>
      </trkpt>
      <trkpt lat="45.20975" lon="6.02022">
        <ele>2047</ele>
        <time>2022-01-16T08:03:42Z</time>
      </trkpt>
      <trkpt lat="45.20977" lon="6.02021">
        <ele>2047</ele>
        <time>2022-01-16T08:03:43Z</time>
      </trkpt>
      <trkpt lat="45.20981" lon="6.02019">
        <ele>2047</ele>
        <time>2022-01-16T08:03:46Z</time>
      </trkpt>
      <trkpt lat="45.20989" lon="6.02016">
        <ele>2046.8</ele>
        <time>2022-01-16T08:03:51Z</time>
      </trkpt>
      <trkpt lat="45.20991" lon="6.02014">
        <ele>2046.8</ele>
        <time>2022-01-16T08:03:53Z</time>
      </trkpt>
      <trkpt lat="45.20997" lon="6.02011">
        <ele>2047.8</ele>
        <time>2022-01-16T08:03:59Z</time>
      </trkpt>
      <trkpt lat="45.20998" lon="6.0201">
        <ele>2047.8</ele>
        <time>2022-01-16T08:04:00Z</time>
      </trkpt>
      <trkpt lat="45.20998" lon="6.02008">
        <ele>2048.2</ele>
        <time>2022-01-16T08:04:01Z</time>
      </trkpt>
      <trkpt lat="45.21001" lon="6.02003">
        <ele>2048.8</ele>
        <time>2022-01-16T08:04:05Z</time>
      </trkpt>
      <trkpt lat="45.21002" lon="6.02002">
        <ele>2048.8</ele>
        <time>2022-01-16T08:04:06Z</time>
      </trkpt>
      <trkpt lat="45.21005" lon="6.01998">
        <ele>2049.6</ele>
        <time>2022-01-16T08:04:10Z</time>
      </trkpt>
      <trkpt lat="45.21005" lon="6.01998">
        <ele>2050</ele>
        <time>2022-01-16T08:04:11Z</time>
      </trkpt>
      <trkpt lat="45.21006" lon="6.01996">
        <ele>2050</ele>
        <time>2022-01-16T08:04:12Z</time>
      </trkpt>
      <trkpt lat="45.21007" lon="6.01993">
        <ele>2050.2</ele>
        <time>2022-01-16T08:04:14Z</time>
      </trkpt>
      <trkpt lat="45.21007" lon="6.01991">
        <ele>2051</ele>
        <time>2022-01-16T08:04:15Z</time>
      </trkpt>
      <trkpt lat="45.21007" lon="6.0199">
        <ele>2051.2</ele>
        <time>2022-01-16T08:04:16Z</time>
      </trkpt>
      <trkpt lat="45.21008" lon="6.0199">
        <ele>2051.6</ele>
        <time>2022-01-16T08:04:17Z</time>
      </trkpt>
      <trkpt lat="45.21011" lon="6.0199">
        <ele>2051.8</ele>
        <time>2022-01-16T08:04:20Z</time>
      </trkpt>
      <trkpt lat="45.21013" lon="6.01991">
        <ele>2052.2</ele>
        <time>2022-01-16T08:04:22Z</time>
      </trkpt>
      <trkpt lat="45.21015" lon="6.0199">
        <ele>2052.6</ele>
        <time>2022-01-16T08:04:24Z</time>
      </trkpt>
      <trkpt lat="45.21019" lon="6.01989">
        <ele>2053.4</ele>
        <time>2022-01-16T08:04:28Z</time>
      </trkpt>
      <trkpt lat="45.21021" lon="6.01988">
        <ele>2053.6</ele>
        <time>2022-01-16T08:04:30Z</time>
      </trkpt>
      <trkpt lat="45.21023" lon="6.01988">
        <ele>2054</ele>
        <time>2022-01-16T08:04:32Z</time>
      </trkpt>
      <trkpt lat="45.21025" lon="6.01988">
        <ele>2054.4</ele>
        <time>2022-01-16T08:04:34Z</time>
      </trkpt>
      <trkpt lat="45.21027" lon="6.01987">
        <ele>2054.8</ele>
        <time>2022-01-16T08:04:36Z</time>
      </trkpt>
      <trkpt lat="45.21027" lon="6.01986">
        <ele>2055</ele>
        <time>2022-01-16T08:04:37Z</time>
      </trkpt>
      <trkpt lat="45.21032" lon="6.01987">
        <ele>2055.4</ele>
        <time>2022-01-16T08:04:41Z</time>
      </trkpt>
      <trkpt lat="45.21036" lon="6.01988">
        <ele>2055.6</ele>
        <time>2022-01-16T08:04:44Z</time>
      </trkpt>
      <trkpt lat="45.21038" lon="6.01987">
        <ele>2056.2</ele>
        <time>2022-01-16T08:04:46Z</time>
      </trkpt>
      <trkpt lat="45.21042" lon="6.01986">
        <ele>2057</ele>
        <time>2022-01-16T08:04:50Z</time>
      </trkpt>
      <trkpt lat="45.21044" lon="6.01987">
        <ele>2057.4</ele>
        <time>2022-01-16T08:04:52Z</time>
      </trkpt>
      <trkpt lat="45.21045" lon="6.01987">
        <ele>2058</ele>
        <time>2022-01-16T08:04:55Z</time>
      </trkpt>
      <trkpt lat="45.21044" lon="6.01987">
        <ele>2058</ele>
        <time>2022-01-16T08:04:56Z</time>
      </trkpt>
      <trkpt lat="45.21043" lon="6.01985">
        <ele>2059</ele>
        <time>2022-01-16T08:04:58Z</time>
      </trkpt>
      <trkpt lat="45.2104" lon="6.01978">
        <ele>2060</ele>
        <time>2022-01-16T08:05:04Z</time>
      </trkpt>
      <trkpt lat="45.2104" lon="6.01976">
        <ele>2060.6</ele>
        <time>2022-01-16T08:05:06Z</time>
      </trkpt>
      <trkpt lat="45.21038" lon="6.01971">
        <ele>2061.2</ele>
        <time>2022-01-16T08:05:10Z</time>
      </trkpt>
      <trkpt lat="45.21037" lon="6.0197">
        <ele>2061.8</ele>
        <time>2022-01-16T08:05:12Z</time>
      </trkpt>
      <trkpt lat="45.21036" lon="6.01966">
        <ele>2062.2</ele>
        <time>2022-01-16T08:05:15Z</time>
      </trkpt>
      <trkpt lat="45.21034" lon="6.0196">
        <ele>2063.4</ele>
        <time>2022-01-16T08:05:20Z</time>
      </trkpt>
      <trkpt lat="45.21032" lon="6.01958">
        <ele>2063.6</ele>
        <time>2022-01-16T08:05:23Z</time>
      </trkpt>
      <trkpt lat="45.21031" lon="6.01955">
        <ele>2064.8</ele>
        <time>2022-01-16T08:05:26Z</time>
      </trkpt>
      <trkpt lat="45.21031" lon="6.01954">
        <ele>2064.8</ele>
        <time>2022-01-16T08:05:27Z</time>
      </trkpt>
      <trkpt lat="45.21034" lon="6.01953">
        <ele>2065</ele>
        <time>2022-01-16T08:05:30Z</time>
      </trkpt>
      <trkpt lat="45.21036" lon="6.01953">
        <ele>2065.4</ele>
        <time>2022-01-16T08:05:32Z</time>
      </trkpt>
      <trkpt lat="45.21037" lon="6.01954">
        <ele>2065.4</ele>
        <time>2022-01-16T08:05:33Z</time>
      </trkpt>
      <trkpt lat="45.21039" lon="6.01953">
        <ele>2065.8</ele>
        <time>2022-01-16T08:05:35Z</time>
      </trkpt>
      <trkpt lat="45.2104" lon="6.01953">
        <ele>2066.6</ele>
        <time>2022-01-16T08:05:37Z</time>
      </trkpt>
      <trkpt lat="45.21041" lon="6.01952">
        <ele>2066.8</ele>
        <time>2022-01-16T08:05:38Z</time>
      </trkpt>
      <trkpt lat="45.21042" lon="6.0195">
        <ele>2067.2</ele>
        <time>2022-01-16T08:05:40Z</time>
      </trkpt>
      <trkpt lat="45.21044" lon="6.01949">
        <ele>2067.4</ele>
        <time>2022-01-16T08:05:42Z</time>
      </trkpt>
      <trkpt lat="45.21047" lon="6.0195">
        <ele>2067.8</ele>
        <time>2022-01-16T08:05:44Z</time>
      </trkpt>
      <trkpt lat="45.21048" lon="6.0195">
        <ele>2068</ele>
        <time>2022-01-16T08:05:45Z</time>
      </trkpt>
      <trkpt lat="45.21052" lon="6.01951">
        <ele>2069</ele>
        <time>2022-01-16T08:05:49Z</time>
      </trkpt>
      <trkpt lat="45.21053" lon="6.01951">
        <ele>2069</ele>
        <time>2022-01-16T08:05:50Z</time>
      </trkpt>
      <trkpt lat="45.21059" lon="6.0195">
        <ele>2070.4</ele>
        <time>2022-01-16T08:05:55Z</time>
      </trkpt>
      <trkpt lat="45.21062" lon="6.0195">
        <ele>2070.8</ele>
        <time>2022-01-16T08:05:58Z</time>
      </trkpt>
      <trkpt lat="45.21065" lon="6.01952">
        <ele>2071.8</ele>
        <time>2022-01-16T08:06:01Z</time>
      </trkpt>
      <trkpt lat="45.21065" lon="6.01953">
        <ele>2072</ele>
        <time>2022-01-16T08:06:03Z</time>
      </trkpt>
      <trkpt lat="45.21066" lon="6.01954">
        <ele>2072</ele>
        <time>2022-01-16T08:06:04Z</time>
      </trkpt>
      <trkpt lat="45.21069" lon="6.01952">
        <ele>2072.8</ele>
        <time>2022-01-16T08:06:09Z</time>
      </trkpt>
      <trkpt lat="45.21069" lon="6.01952">
        <ele>2073.2</ele>
        <time>2022-01-16T08:06:10Z</time>
      </trkpt>
      <trkpt lat="45.21072" lon="6.01949">
        <ele>2074</ele>
        <time>2022-01-16T08:06:15Z</time>
      </trkpt>
      <trkpt lat="45.21075" lon="6.01948">
        <ele>2074.4</ele>
        <time>2022-01-16T08:06:18Z</time>
      </trkpt>
      <trkpt lat="45.21078" lon="6.01949">
        <ele>2075.2</ele>
        <time>2022-01-16T08:06:21Z</time>
      </trkpt>
      <trkpt lat="45.21081" lon="6.01949">
        <ele>2075.6</ele>
        <time>2022-01-16T08:06:24Z</time>
      </trkpt>
      <trkpt lat="45.21088" lon="6.0195">
        <ele>2076</ele>
        <time>2022-01-16T08:06:30Z</time>
      </trkpt>
      <trkpt lat="45.21089" lon="6.0195">
        <ele>2076.2</ele>
        <time>2022-01-16T08:06:32Z</time>
      </trkpt>
      <trkpt lat="45.2109" lon="6.01949">
        <ele>2076.4</ele>
        <time>2022-01-16T08:06:33Z</time>
      </trkpt>
      <trkpt lat="45.21091" lon="6.01949">
        <ele>2076.8</ele>
        <time>2022-01-16T08:06:34Z</time>
      </trkpt>
      <trkpt lat="45.21095" lon="6.01952">
        <ele>2077.6</ele>
        <time>2022-01-16T08:06:37Z</time>
      </trkpt>
      <trkpt lat="45.21096" lon="6.01953">
        <ele>2077.8</ele>
        <time>2022-01-16T08:06:38Z</time>
      </trkpt>
      <trkpt lat="45.21103" lon="6.01959">
        <ele>2078.6</ele>
        <time>2022-01-16T08:06:43Z</time>
      </trkpt>
      <trkpt lat="45.21103" lon="6.01961">
        <ele>2079.4</ele>
        <time>2022-01-16T08:06:45Z</time>
      </trkpt>
      <trkpt lat="45.21102" lon="6.01959">
        <ele>2080.6</ele>
        <time>2022-01-16T08:06:48Z</time>
      </trkpt>
      <trkpt lat="45.21101" lon="6.01956">
        <ele>2081</ele>
        <time>2022-01-16T08:06:51Z</time>
      </trkpt>
      <trkpt lat="45.211" lon="6.01953">
        <ele>2081.8</ele>
        <time>2022-01-16T08:06:54Z</time>
      </trkpt>
      <trkpt lat="45.21098" lon="6.01948">
        <ele>2082.4</ele>
        <time>2022-01-16T08:06:58Z</time>
      </trkpt>
      <trkpt lat="45.21097" lon="6.01947">
        <ele>2082.8</ele>
        <time>2022-01-16T08:06:59Z</time>
      </trkpt>
      <trkpt lat="45.21095" lon="6.01945">
        <ele>2083.4</ele>
        <time>2022-01-16T08:07:02Z</time>
      </trkpt>
      <trkpt lat="45.21095" lon="6.01944">
        <ele>2083.8</ele>
        <time>2022-01-16T08:07:03Z</time>
      </trkpt>
      <trkpt lat="45.21094" lon="6.01943">
        <ele>2084.2</ele>
        <time>2022-01-16T08:07:04Z</time>
      </trkpt>
      <trkpt lat="45.2109" lon="6.0194">
        <ele>2085</ele>
        <time>2022-01-16T08:07:10Z</time>
      </trkpt>
      <trkpt lat="45.21089" lon="6.01939">
        <ele>2085.4</ele>
        <time>2022-01-16T08:07:12Z</time>
      </trkpt>
      <trkpt lat="45.21089" lon="6.01938">
        <ele>2085.6</ele>
        <time>2022-01-16T08:07:13Z</time>
      </trkpt>
      <trkpt lat="45.21089" lon="6.01936">
        <ele>2086.2</ele>
        <time>2022-01-16T08:07:15Z</time>
      </trkpt>
      <trkpt lat="45.2109" lon="6.01932">
        <ele>2087.2</ele>
        <time>2022-01-16T08:07:21Z</time>
      </trkpt>
      <trkpt lat="45.2109" lon="6.01931">
        <ele>2087.4</ele>
        <time>2022-01-16T08:07:22Z</time>
      </trkpt>
      <trkpt lat="45.21096" lon="6.01929">
        <ele>2087.6</ele>
        <time>2022-01-16T08:07:27Z</time>
      </trkpt>
      <trkpt lat="45.21103" lon="6.01927">
        <ele>2087.8</ele>
        <time>2022-01-16T08:07:33Z</time>
      </trkpt>
      <trkpt lat="45.21105" lon="6.01928">
        <ele>2087.8</ele>
        <time>2022-01-16T08:07:35Z</time>
      </trkpt>
      <trkpt lat="45.21112" lon="6.01927">
        <ele>2088.4</ele>
        <time>2022-01-16T08:07:41Z</time>
      </trkpt>
      <trkpt lat="45.21115" lon="6.01926">
        <ele>2088.6</ele>
        <time>2022-01-16T08:07:44Z</time>
      </trkpt>
      <trkpt lat="45.21117" lon="6.01926">
        <ele>2089</ele>
        <time>2022-01-16T08:07:46Z</time>
      </trkpt>
      <trkpt lat="45.21121" lon="6.01928">
        <ele>2089.8</ele>
        <time>2022-01-16T08:07:50Z</time>
      </trkpt>
      <trkpt lat="45.21128" lon="6.01936">
        <ele>2090.8</ele>
        <time>2022-01-16T08:07:56Z</time>
      </trkpt>
      <trkpt lat="45.21128" lon="6.01938">
        <ele>2090.8</ele>
        <time>2022-01-16T08:07:57Z</time>
      </trkpt>
      <trkpt lat="45.21131" lon="6.01945">
        <ele>2091.6</ele>
        <time>2022-01-16T08:08:03Z</time>
      </trkpt>
      <trkpt lat="45.21133" lon="6.01948">
        <ele>2092</ele>
        <time>2022-01-16T08:08:05Z</time>
      </trkpt>
      <trkpt lat="45.21135" lon="6.01953">
        <ele>2092.4</ele>
        <time>2022-01-16T08:08:08Z</time>
      </trkpt>
      <trkpt lat="45.21136" lon="6.01956">
        <ele>2092.6</ele>
        <time>2022-01-16T08:08:10Z</time>
      </trkpt>
      <trkpt lat="45.21137" lon="6.01959">
        <ele>2093.4</ele>
        <time>2022-01-16T08:08:12Z</time>
      </trkpt>
      <trkpt lat="45.21139" lon="6.01962">
        <ele>2094.4</ele>
        <time>2022-01-16T08:08:16Z</time>
      </trkpt>
      <trkpt lat="45.2114" lon="6.01963">
        <ele>2094.4</ele>
        <time>2022-01-16T08:08:17Z</time>
      </trkpt>
      <trkpt lat="45.21142" lon="6.01964">
        <ele>2094.8</ele>
        <time>2022-01-16T08:08:19Z</time>
      </trkpt>
      <trkpt lat="45.21146" lon="6.01964">
        <ele>2095.6</ele>
        <time>2022-01-16T08:08:23Z</time>
      </trkpt>
      <trkpt lat="45.21151" lon="6.01966">
        <ele>2096.6</ele>
        <time>2022-01-16T08:08:27Z</time>
      </trkpt>
      <trkpt lat="45.21153" lon="6.01969">
        <ele>2097</ele>
        <time>2022-01-16T08:08:30Z</time>
      </trkpt>
      <trkpt lat="45.21155" lon="6.0197">
        <ele>2097.6</ele>
        <time>2022-01-16T08:08:31Z</time>
      </trkpt>
      <trkpt lat="45.21159" lon="6.01976">
        <ele>2099</ele>
        <time>2022-01-16T08:08:36Z</time>
      </trkpt>
      <trkpt lat="45.21162" lon="6.01981">
        <ele>2100</ele>
        <time>2022-01-16T08:08:40Z</time>
      </trkpt>
      <trkpt lat="45.21167" lon="6.01987">
        <ele>2101.2</ele>
        <time>2022-01-16T08:08:46Z</time>
      </trkpt>
      <trkpt lat="45.21171" lon="6.01991">
        <ele>2102.2</ele>
        <time>2022-01-16T08:08:51Z</time>
      </trkpt>
      <trkpt lat="45.21171" lon="6.01992">
        <ele>2102.2</ele>
        <time>2022-01-16T08:08:52Z</time>
      </trkpt>
      <trkpt lat="45.21173" lon="6.01993">
        <ele>2103.4</ele>
        <time>2022-01-16T08:08:54Z</time>
      </trkpt>
      <trkpt lat="45.21174" lon="6.01993">
        <ele>2103.6</ele>
        <time>2022-01-16T08:08:55Z</time>
      </trkpt>
      <trkpt lat="45.21177" lon="6.01995">
        <ele>2104.4</ele>
        <time>2022-01-16T08:08:58Z</time>
      </trkpt>
      <trkpt lat="45.21179" lon="6.01994">
        <ele>2106.2</ele>
        <time>2022-01-16T08:09:02Z</time>
      </trkpt>
      <trkpt lat="45.21179" lon="6.01991">
        <ele>2106.6</ele>
        <time>2022-01-16T08:09:04Z</time>
      </trkpt>
      <trkpt lat="45.21179" lon="6.01987">
        <ele>2107.4</ele>
        <time>2022-01-16T08:09:07Z</time>
      </trkpt>
      <trkpt lat="45.21178" lon="6.01983">
        <ele>2107.6</ele>
        <time>2022-01-16T08:09:09Z</time>
      </trkpt>
      <trkpt lat="45.21178" lon="6.01977">
        <ele>2108.4</ele>
        <time>2022-01-16T08:09:13Z</time>
      </trkpt>
      <trkpt lat="45.21177" lon="6.01969">
        <ele>2109.4</ele>
        <time>2022-01-16T08:09:19Z</time>
      </trkpt>
      <trkpt lat="45.21177" lon="6.01966">
        <ele>2109.6</ele>
        <time>2022-01-16T08:09:21Z</time>
      </trkpt>
      <trkpt lat="45.21177" lon="6.01957">
        <ele>2110.8</ele>
        <time>2022-01-16T08:09:27Z</time>
      </trkpt>
      <trkpt lat="45.21177" lon="6.01955">
        <ele>2111</ele>
        <time>2022-01-16T08:09:28Z</time>
      </trkpt>
      <trkpt lat="45.21177" lon="6.0195">
        <ele>2111.8</ele>
        <time>2022-01-16T08:09:32Z</time>
      </trkpt>
      <trkpt lat="45.21177" lon="6.01948">
        <ele>2112</ele>
        <time>2022-01-16T08:09:34Z</time>
      </trkpt>
      <trkpt lat="45.21177" lon="6.01947">
        <ele>2112</ele>
        <time>2022-01-16T08:09:35Z</time>
      </trkpt>
      <trkpt lat="45.21179" lon="6.01948">
        <ele>2112</ele>
        <time>2022-01-16T08:09:37Z</time>
      </trkpt>
      <trkpt lat="45.21182" lon="6.01952">
        <ele>2112.6</ele>
        <time>2022-01-16T08:09:41Z</time>
      </trkpt>
      <trkpt lat="45.21183" lon="6.01955">
        <ele>2112.8</ele>
        <time>2022-01-16T08:09:43Z</time>
      </trkpt>
      <trkpt lat="45.21188" lon="6.01962">
        <ele>2113.8</ele>
        <time>2022-01-16T08:09:49Z</time>
      </trkpt>
      <trkpt lat="45.21189" lon="6.01963">
        <ele>2114</ele>
        <time>2022-01-16T08:09:50Z</time>
      </trkpt>
      <trkpt lat="45.21193" lon="6.01966">
        <ele>2115.2</ele>
        <time>2022-01-16T08:09:55Z</time>
      </trkpt>
      <trkpt lat="45.21193" lon="6.01966">
        <ele>2116</ele>
        <time>2022-01-16T08:09:57Z</time>
      </trkpt>
      <trkpt lat="45.21193" lon="6.01965">
        <ele>2116.4</ele>
        <time>2022-01-16T08:09:58Z</time>
      </trkpt>
      <trkpt lat="45.21193" lon="6.01962">
        <ele>2117.4</ele>
        <time>2022-01-16T08:10:01Z</time>
      </trkpt>
      <trkpt lat="45.21193" lon="6.01958">
        <ele>2117.8</ele>
        <time>2022-01-16T08:10:04Z</time>
      </trkpt>
      <trkpt lat="45.21192" lon="6.01953">
        <ele>2118.4</ele>
        <time>2022-01-16T08:10:07Z</time>
      </trkpt>
      <trkpt lat="45.21193" lon="6.0195">
        <ele>2119.2</ele>
        <time>2022-01-16T08:10:09Z</time>
      </trkpt>
      <trkpt lat="45.21194" lon="6.0195">
        <ele>2119.4</ele>
        <time>2022-01-16T08:10:12Z</time>
      </trkpt>
      <trkpt lat="45.21197" lon="6.01952">
        <ele>2120</ele>
        <time>2022-01-16T08:10:16Z</time>
      </trkpt>
      <trkpt lat="45.212" lon="6.01956">
        <ele>2120.4</ele>
        <time>2022-01-16T08:10:19Z</time>
      </trkpt>
      <trkpt lat="45.21203" lon="6.01961">
        <ele>2121.6</ele>
        <time>2022-01-16T08:10:24Z</time>
      </trkpt>
      <trkpt lat="45.21204" lon="6.01963">
        <ele>2121.6</ele>
        <time>2022-01-16T08:10:25Z</time>
      </trkpt>
      <trkpt lat="45.21206" lon="6.01967">
        <ele>2122.8</ele>
        <time>2022-01-16T08:10:28Z</time>
      </trkpt>
      <trkpt lat="45.21209" lon="6.01972">
        <ele>2123.4</ele>
        <time>2022-01-16T08:10:32Z</time>
      </trkpt>
      <trkpt lat="45.2121" lon="6.01973">
        <ele>2123.4</ele>
        <time>2022-01-16T08:10:33Z</time>
      </trkpt>
      <trkpt lat="45.21211" lon="6.01974">
        <ele>2123.8</ele>
        <time>2022-01-16T08:10:34Z</time>
      </trkpt>
      <trkpt lat="45.21212" lon="6.01975">
        <ele>2123.8</ele>
        <time>2022-01-16T08:10:35Z</time>
      </trkpt>
      <trkpt lat="45.21216" lon="6.01978">
        <ele>2125</ele>
        <time>2022-01-16T08:10:39Z</time>
      </trkpt>
      <trkpt lat="45.21216" lon="6.01978">
        <ele>2125.2</ele>
        <time>2022-01-16T08:10:40Z</time>
      </trkpt>
      <trkpt lat="45.21218" lon="6.0198">
        <ele>2126</ele>
        <time>2022-01-16T08:10:42Z</time>
      </trkpt>
      <trkpt lat="45.21219" lon="6.0198">
        <ele>2126.8</ele>
        <time>2022-01-16T08:10:43Z</time>
      </trkpt>
      <trkpt lat="45.21218" lon="6.01979">
        <ele>2126.8</ele>
        <time>2022-01-16T08:10:45Z</time>
      </trkpt>
      <trkpt lat="45.21218" lon="6.01978">
        <ele>2126.8</ele>
        <time>2022-01-16T08:10:46Z</time>
      </trkpt>
      <trkpt lat="45.21217" lon="6.01977">
        <ele>2128</ele>
        <time>2022-01-16T08:10:47Z</time>
      </trkpt>
      <trkpt lat="45.21217" lon="6.01975">
        <ele>2128</ele>
        <time>2022-01-16T08:10:48Z</time>
      </trkpt>
      <trkpt lat="45.21217" lon="6.01968">
        <ele>2128.6</ele>
        <time>2022-01-16T08:10:53Z</time>
      </trkpt>
      <trkpt lat="45.21217" lon="6.01966">
        <ele>2129.2</ele>
        <time>2022-01-16T08:10:55Z</time>
      </trkpt>
      <trkpt lat="45.21216" lon="6.01959">
        <ele>2130.2</ele>
        <time>2022-01-16T08:10:59Z</time>
      </trkpt>
      <trkpt lat="45.21216" lon="6.01956">
        <ele>2130.6</ele>
        <time>2022-01-16T08:11:01Z</time>
      </trkpt>
      <trkpt lat="45.21216" lon="6.01952">
        <ele>2131.4</ele>
        <time>2022-01-16T08:11:04Z</time>
      </trkpt>
      <trkpt lat="45.21219" lon="6.01948">
        <ele>2132.4</ele>
        <time>2022-01-16T08:11:10Z</time>
      </trkpt>
      <trkpt lat="45.21222" lon="6.01952">
        <ele>2133</ele>
        <time>2022-01-16T08:11:15Z</time>
      </trkpt>
      <trkpt lat="45.21223" lon="6.01953">
        <ele>2133</ele>
        <time>2022-01-16T08:11:16Z</time>
      </trkpt>
      <trkpt lat="45.21225" lon="6.01954">
        <ele>2133.4</ele>
        <time>2022-01-16T08:11:18Z</time>
      </trkpt>
      <trkpt lat="45.21227" lon="6.01954">
        <ele>2133.8</ele>
        <time>2022-01-16T08:11:20Z</time>
      </trkpt>
      <trkpt lat="45.21228" lon="6.01953">
        <ele>2134.2</ele>
        <time>2022-01-16T08:11:22Z</time>
      </trkpt>
      <trkpt lat="45.21227" lon="6.01952">
        <ele>2134.8</ele>
        <time>2022-01-16T08:11:23Z</time>
      </trkpt>
      <trkpt lat="45.21227" lon="6.01948">
        <ele>2136.6</ele>
        <time>2022-01-16T08:11:26Z</time>
      </trkpt>
      <trkpt lat="45.21227" lon="6.01945">
        <ele>2136.6</ele>
        <time>2022-01-16T08:11:28Z</time>
      </trkpt>
      <trkpt lat="45.21226" lon="6.01935">
        <ele>2137.6</ele>
        <time>2022-01-16T08:11:34Z</time>
      </trkpt>
      <trkpt lat="45.21227" lon="6.01935">
        <ele>2138</ele>
        <time>2022-01-16T08:11:35Z</time>
      </trkpt>
      <trkpt lat="45.21227" lon="6.01933">
        <ele>2138</ele>
        <time>2022-01-16T08:11:36Z</time>
      </trkpt>
      <trkpt lat="45.21228" lon="6.01927">
        <ele>2139.8</ele>
        <time>2022-01-16T08:11:40Z</time>
      </trkpt>
      <trkpt lat="45.21232" lon="6.01921">
        <ele>2139.8</ele>
        <time>2022-01-16T08:11:45Z</time>
      </trkpt>
      <trkpt lat="45.21234" lon="6.01915">
        <ele>2140.8</ele>
        <time>2022-01-16T08:11:50Z</time>
      </trkpt>
      <trkpt lat="45.21234" lon="6.01911">
        <ele>2141.8</ele>
        <time>2022-01-16T08:11:53Z</time>
      </trkpt>
      <trkpt lat="45.21234" lon="6.0191">
        <ele>2141.8</ele>
        <time>2022-01-16T08:11:54Z</time>
      </trkpt>
      <trkpt lat="45.21234" lon="6.01902">
        <ele>2142.8</ele>
        <time>2022-01-16T08:11:59Z</time>
      </trkpt>
      <trkpt lat="45.21234" lon="6.01898">
        <ele>2143.4</ele>
        <time>2022-01-16T08:12:02Z</time>
      </trkpt>
      <trkpt lat="45.21234" lon="6.01896">
        <ele>2144.2</ele>
        <time>2022-01-16T08:12:04Z</time>
      </trkpt>
      <trkpt lat="45.21238" lon="6.01896">
        <ele>2144.4</ele>
        <time>2022-01-16T08:12:07Z</time>
      </trkpt>
      <trkpt lat="45.2124" lon="6.01896">
        <ele>2145.2</ele>
        <time>2022-01-16T08:12:09Z</time>
      </trkpt>
      <trkpt lat="45.21243" lon="6.01898">
        <ele>2145.6</ele>
        <time>2022-01-16T08:12:11Z</time>
      </trkpt>
      <trkpt lat="45.21244" lon="6.01898">
        <ele>2146.2</ele>
        <time>2022-01-16T08:12:13Z</time>
      </trkpt>
      <trkpt lat="45.21243" lon="6.01898">
        <ele>2146.2</ele>
        <time>2022-01-16T08:12:14Z</time>
      </trkpt>
      <trkpt lat="45.21241" lon="6.01891">
        <ele>2147</ele>
        <time>2022-01-16T08:12:19Z</time>
      </trkpt>
      <trkpt lat="45.2124" lon="6.01888">
        <ele>2147.4</ele>
        <time>2022-01-16T08:12:21Z</time>
      </trkpt>
      <trkpt lat="45.21235" lon="6.01882">
        <ele>2148.4</ele>
        <time>2022-01-16T08:12:26Z</time>
      </trkpt>
      <trkpt lat="45.21233" lon="6.0188">
        <ele>2148.8</ele>
        <time>2022-01-16T08:12:28Z</time>
      </trkpt>
      <trkpt lat="45.2123" lon="6.01875">
        <ele>2149.8</ele>
        <time>2022-01-16T08:12:32Z</time>
      </trkpt>
      <trkpt lat="45.21229" lon="6.01873">
        <ele>2150.2</ele>
        <time>2022-01-16T08:12:34Z</time>
      </trkpt>
      <trkpt lat="45.21226" lon="6.01867">
        <ele>2151</ele>
        <time>2022-01-16T08:12:38Z</time>
      </trkpt>
      <trkpt lat="45.21224" lon="6.01861">
        <ele>2151.8</ele>
        <time>2022-01-16T08:12:42Z</time>
      </trkpt>
      <trkpt lat="45.21224" lon="6.01858">
        <ele>2152</ele>
        <time>2022-01-16T08:12:44Z</time>
      </trkpt>
      <trkpt lat="45.21222" lon="6.01849">
        <ele>2153</ele>
        <time>2022-01-16T08:12:50Z</time>
      </trkpt>
      <trkpt lat="45.21221" lon="6.01848">
        <ele>2153.6</ele>
        <time>2022-01-16T08:12:51Z</time>
      </trkpt>
      <trkpt lat="45.2122" lon="6.01843">
        <ele>2154</ele>
        <time>2022-01-16T08:12:54Z</time>
      </trkpt>
      <trkpt lat="45.21219" lon="6.0184">
        <ele>2154.8</ele>
        <time>2022-01-16T08:12:56Z</time>
      </trkpt>
      <trkpt lat="45.21216" lon="6.01832">
        <ele>2155.8</ele>
        <time>2022-01-16T08:13:02Z</time>
      </trkpt>
      <trkpt lat="45.21215" lon="6.0183">
        <ele>2156.4</ele>
        <time>2022-01-16T08:13:04Z</time>
      </trkpt>
      <trkpt lat="45.21212" lon="6.01823">
        <ele>2157</ele>
        <time>2022-01-16T08:13:09Z</time>
      </trkpt>
      <trkpt lat="45.21211" lon="6.01822">
        <ele>2157.2</ele>
        <time>2022-01-16T08:13:10Z</time>
      </trkpt>
      <trkpt lat="45.2121" lon="6.01819">
        <ele>2158</ele>
        <time>2022-01-16T08:13:12Z</time>
      </trkpt>
      <trkpt lat="45.2121" lon="6.01817">
        <ele>2158.2</ele>
        <time>2022-01-16T08:13:13Z</time>
      </trkpt>
      <trkpt lat="45.21209" lon="6.01809">
        <ele>2159.4</ele>
        <time>2022-01-16T08:13:19Z</time>
      </trkpt>
      <trkpt lat="45.21208" lon="6.01803">
        <ele>2160.2</ele>
        <time>2022-01-16T08:13:23Z</time>
      </trkpt>
      <trkpt lat="45.21208" lon="6.01801">
        <ele>2160.4</ele>
        <time>2022-01-16T08:13:24Z</time>
      </trkpt>
      <trkpt lat="45.21207" lon="6.01793">
        <ele>2161.4</ele>
        <time>2022-01-16T08:13:29Z</time>
      </trkpt>
      <trkpt lat="45.21207" lon="6.01784">
        <ele>2162.6</ele>
        <time>2022-01-16T08:13:34Z</time>
      </trkpt>
      <trkpt lat="45.21208" lon="6.01775">
        <ele>2163.4</ele>
        <time>2022-01-16T08:13:40Z</time>
      </trkpt>
      <trkpt lat="45.21208" lon="6.01772">
        <ele>2163.8</ele>
        <time>2022-01-16T08:13:42Z</time>
      </trkpt>
      <trkpt lat="45.2121" lon="6.01768">
        <ele>2164</ele>
        <time>2022-01-16T08:13:44Z</time>
      </trkpt>
      <trkpt lat="45.21213" lon="6.01761">
        <ele>2165</ele>
        <time>2022-01-16T08:13:49Z</time>
      </trkpt>
      <trkpt lat="45.21215" lon="6.01756">
        <ele>2166</ele>
        <time>2022-01-16T08:13:53Z</time>
      </trkpt>
      <trkpt lat="45.21221" lon="6.0175">
        <ele>2167</ele>
        <time>2022-01-16T08:13:59Z</time>
      </trkpt>
      <trkpt lat="45.21226" lon="6.01744">
        <ele>2168.4</ele>
        <time>2022-01-16T08:14:05Z</time>
      </trkpt>
      <trkpt lat="45.21228" lon="6.01741">
        <ele>2169.6</ele>
        <time>2022-01-16T08:14:08Z</time>
      </trkpt>
      <trkpt lat="45.21229" lon="6.0174">
        <ele>2169.8</ele>
        <time>2022-01-16T08:14:09Z</time>
      </trkpt>
      <trkpt lat="45.21232" lon="6.01733">
        <ele>2171</ele>
        <time>2022-01-16T08:14:14Z</time>
      </trkpt>
      <trkpt lat="45.21232" lon="6.0173">
        <ele>2171.6</ele>
        <time>2022-01-16T08:14:17Z</time>
      </trkpt>
      <trkpt lat="45.21234" lon="6.01728">
        <ele>2172.2</ele>
        <time>2022-01-16T08:14:19Z</time>
      </trkpt>
      <trkpt lat="45.21237" lon="6.01723">
        <ele>2173.8</ele>
        <time>2022-01-16T08:14:24Z</time>
      </trkpt>
      <trkpt lat="45.21238" lon="6.01721">
        <ele>2174</ele>
        <time>2022-01-16T08:14:25Z</time>
      </trkpt>
      <trkpt lat="45.21241" lon="6.01716">
        <ele>2174.8</ele>
        <time>2022-01-16T08:14:30Z</time>
      </trkpt>
      <trkpt lat="45.21244" lon="6.0171">
        <ele>2175.8</ele>
        <time>2022-01-16T08:14:35Z</time>
      </trkpt>
      <trkpt lat="45.21244" lon="6.01709">
        <ele>2176.2</ele>
        <time>2022-01-16T08:14:36Z</time>
      </trkpt>
      <trkpt lat="45.21246" lon="6.01706">
        <ele>2176.6</ele>
        <time>2022-01-16T08:14:39Z</time>
      </trkpt>
      <trkpt lat="45.21248" lon="6.01705">
        <ele>2177.2</ele>
        <time>2022-01-16T08:14:42Z</time>
      </trkpt>
      <trkpt lat="45.2125" lon="6.01701">
        <ele>2178.4</ele>
        <time>2022-01-16T08:14:46Z</time>
      </trkpt>
      <trkpt lat="45.21252" lon="6.01699">
        <ele>2179.8</ele>
        <time>2022-01-16T08:14:49Z</time>
      </trkpt>
      <trkpt lat="45.21253" lon="6.01699">
        <ele>2179.8</ele>
        <time>2022-01-16T08:14:50Z</time>
      </trkpt>
      <trkpt lat="45.21255" lon="6.01698">
        <ele>2181.2</ele>
        <time>2022-01-16T08:14:54Z</time>
      </trkpt>
      <trkpt lat="45.21254" lon="6.01696">
        <ele>2182</ele>
        <time>2022-01-16T08:14:56Z</time>
      </trkpt>
      <trkpt lat="45.21253" lon="6.01694">
        <ele>2182.2</ele>
        <time>2022-01-16T08:14:57Z</time>
      </trkpt>
      <trkpt lat="45.21252" lon="6.01688">
        <ele>2183.4</ele>
        <time>2022-01-16T08:15:03Z</time>
      </trkpt>
      <trkpt lat="45.21249" lon="6.01687">
        <ele>2183.8</ele>
        <time>2022-01-16T08:15:05Z</time>
      </trkpt>
      <trkpt lat="45.21248" lon="6.01687">
        <ele>2184.2</ele>
        <time>2022-01-16T08:15:06Z</time>
      </trkpt>
      <trkpt lat="45.21247" lon="6.01687">
        <ele>2184.8</ele>
        <time>2022-01-16T08:15:07Z</time>
      </trkpt>
      <trkpt lat="45.21246" lon="6.01684">
        <ele>2185.6</ele>
        <time>2022-01-16T08:15:10Z</time>
      </trkpt>
      <trkpt lat="45.21246" lon="6.01683">
        <ele>2186.2</ele>
        <time>2022-01-16T08:15:12Z</time>
      </trkpt>
      <trkpt lat="45.21247" lon="6.01682">
        <ele>2186.4</ele>
        <time>2022-01-16T08:15:13Z</time>
      </trkpt>
      <trkpt lat="45.21249" lon="6.01674">
        <ele>2187.4</ele>
        <time>2022-01-16T08:15:19Z</time>
      </trkpt>
      <trkpt lat="45.2125" lon="6.01674">
        <ele>2188</ele>
        <time>2022-01-16T08:15:20Z</time>
      </trkpt>
      <trkpt lat="45.2125" lon="6.01671">
        <ele>2188.8</ele>
        <time>2022-01-16T08:15:22Z</time>
      </trkpt>
      <trkpt lat="45.21253" lon="6.01667">
        <ele>2189.2</ele>
        <time>2022-01-16T08:15:26Z</time>
      </trkpt>
      <trkpt lat="45.21253" lon="6.01667">
        <ele>2189.8</ele>
        <time>2022-01-16T08:15:27Z</time>
      </trkpt>
      <trkpt lat="45.21253" lon="6.01666">
        <ele>2190.2</ele>
        <time>2022-01-16T08:15:28Z</time>
      </trkpt>
      <trkpt lat="45.21252" lon="6.01665">
        <ele>2190.8</ele>
        <time>2022-01-16T08:15:30Z</time>
      </trkpt>
      <trkpt lat="45.21252" lon="6.01664">
        <ele>2191</ele>
        <time>2022-01-16T08:15:31Z</time>
      </trkpt>
      <trkpt lat="45.2125" lon="6.01663">
        <ele>2191.8</ele>
        <time>2022-01-16T08:15:34Z</time>
      </trkpt>
      <trkpt lat="45.21248" lon="6.0166">
        <ele>2193.2</ele>
        <time>2022-01-16T08:15:37Z</time>
      </trkpt>
      <trkpt lat="45.21246" lon="6.01658">
        <ele>2193.4</ele>
        <time>2022-01-16T08:15:39Z</time>
      </trkpt>
      <trkpt lat="45.21242" lon="6.01658">
        <ele>2194.2</ele>
        <time>2022-01-16T08:15:42Z</time>
      </trkpt>
      <trkpt lat="45.21242" lon="6.01655">
        <ele>2195</ele>
        <time>2022-01-16T08:15:45Z</time>
      </trkpt>
      <trkpt lat="45.2124" lon="6.01654">
        <ele>2195</ele>
        <time>2022-01-16T08:15:47Z</time>
      </trkpt>
      <trkpt lat="45.21239" lon="6.01653">
        <ele>2195.8</ele>
        <time>2022-01-16T08:15:48Z</time>
      </trkpt>
      <trkpt lat="45.21235" lon="6.01647">
        <ele>2197.4</ele>
        <time>2022-01-16T08:15:53Z</time>
      </trkpt>
      <trkpt lat="45.21235" lon="6.01647">
        <ele>2197.4</ele>
        <time>2022-01-16T08:15:54Z</time>
      </trkpt>
      <trkpt lat="45.21235" lon="6.01645">
        <ele>2197.4</ele>
        <time>2022-01-16T08:15:55Z</time>
      </trkpt>
      <trkpt lat="45.21235" lon="6.01643">
        <ele>2197.8</ele>
        <time>2022-01-16T08:15:57Z</time>
      </trkpt>
      <trkpt lat="45.21237" lon="6.01638">
        <ele>2198.8</ele>
        <time>2022-01-16T08:16:00Z</time>
      </trkpt>
      <trkpt lat="45.21241" lon="6.01633">
        <ele>2200.4</ele>
        <time>2022-01-16T08:16:06Z</time>
      </trkpt>
      <trkpt lat="45.21243" lon="6.01628">
        <ele>2201.2</ele>
        <time>2022-01-16T08:16:10Z</time>
      </trkpt>
      <trkpt lat="45.21244" lon="6.01624">
        <ele>2202.2</ele>
        <time>2022-01-16T08:16:13Z</time>
      </trkpt>
      <trkpt lat="45.21247" lon="6.0162">
        <ele>2204</ele>
        <time>2022-01-16T08:16:18Z</time>
      </trkpt>
      <trkpt lat="45.21247" lon="6.01619">
        <ele>2204</ele>
        <time>2022-01-16T08:16:19Z</time>
      </trkpt>
      <trkpt lat="45.21247" lon="6.01617">
        <ele>2204.6</ele>
        <time>2022-01-16T08:16:23Z</time>
      </trkpt>
      <trkpt lat="45.21246" lon="6.01615">
        <ele>2205.6</ele>
        <time>2022-01-16T08:16:25Z</time>
      </trkpt>
      <trkpt lat="45.21245" lon="6.01614">
        <ele>2206</ele>
        <time>2022-01-16T08:16:27Z</time>
      </trkpt>
      <trkpt lat="45.21244" lon="6.01614">
        <ele>2206.6</ele>
        <time>2022-01-16T08:16:29Z</time>
      </trkpt>
      <trkpt lat="45.2124" lon="6.01612">
        <ele>2208</ele>
        <time>2022-01-16T08:16:34Z</time>
      </trkpt>
      <trkpt lat="45.21238" lon="6.01611">
        <ele>2208.2</ele>
        <time>2022-01-16T08:16:36Z</time>
      </trkpt>
      <trkpt lat="45.21236" lon="6.0161">
        <ele>2209</ele>
        <time>2022-01-16T08:16:39Z</time>
      </trkpt>
      <trkpt lat="45.21235" lon="6.01609">
        <ele>2209.6</ele>
        <time>2022-01-16T08:16:41Z</time>
      </trkpt>
      <trkpt lat="45.21231" lon="6.01607">
        <ele>2210.2</ele>
        <time>2022-01-16T08:16:45Z</time>
      </trkpt>
      <trkpt lat="45.2123" lon="6.01605">
        <ele>2211</ele>
        <time>2022-01-16T08:16:47Z</time>
      </trkpt>
      <trkpt lat="45.21228" lon="6.01604">
        <ele>2211.4</ele>
        <time>2022-01-16T08:16:49Z</time>
      </trkpt>
      <trkpt lat="45.21227" lon="6.01604">
        <ele>2211.6</ele>
        <time>2022-01-16T08:16:50Z</time>
      </trkpt>
      <trkpt lat="45.21226" lon="6.01605">
        <ele>2211.6</ele>
        <time>2022-01-16T08:16:51Z</time>
      </trkpt>
      <trkpt lat="45.21226" lon="6.01604">
        <ele>2212.4</ele>
        <time>2022-01-16T08:16:52Z</time>
      </trkpt>
      <trkpt lat="45.21227" lon="6.01602">
        <ele>2212.8</ele>
        <time>2022-01-16T08:16:56Z</time>
      </trkpt>
      <trkpt lat="45.2123" lon="6.01599">
        <ele>2213.6</ele>
        <time>2022-01-16T08:17:00Z</time>
      </trkpt>
      <trkpt lat="45.21231" lon="6.01595">
        <ele>2214</ele>
        <time>2022-01-16T08:17:03Z</time>
      </trkpt>
      <trkpt lat="45.21232" lon="6.01592">
        <ele>2215</ele>
        <time>2022-01-16T08:17:05Z</time>
      </trkpt>
      <trkpt lat="45.21235" lon="6.0159">
        <ele>2215.4</ele>
        <time>2022-01-16T08:17:08Z</time>
      </trkpt>
      <trkpt lat="45.21236" lon="6.01589">
        <ele>2216</ele>
        <time>2022-01-16T08:17:09Z</time>
      </trkpt>
      <trkpt lat="45.21236" lon="6.01589">
        <ele>2217.2</ele>
        <time>2022-01-16T08:17:14Z</time>
      </trkpt>
      <trkpt lat="45.21229" lon="6.01589">
        <ele>2218</ele>
        <time>2022-01-16T08:17:20Z</time>
      </trkpt>
      <trkpt lat="45.21227" lon="6.01589">
        <ele>2218.2</ele>
        <time>2022-01-16T08:17:22Z</time>
      </trkpt>
      <trkpt lat="45.21223" lon="6.01589">
        <ele>2219.2</ele>
        <time>2022-01-16T08:17:26Z</time>
      </trkpt>
      <trkpt lat="45.21222" lon="6.01589">
        <ele>2219.4</ele>
        <time>2022-01-16T08:17:27Z</time>
      </trkpt>
      <trkpt lat="45.21219" lon="6.0159">
        <ele>2220.6</ele>
        <time>2022-01-16T08:17:30Z</time>
      </trkpt>
      <trkpt lat="45.21217" lon="6.01589">
        <ele>2221</ele>
        <time>2022-01-16T08:17:32Z</time>
      </trkpt>
      <trkpt lat="45.21216" lon="6.01588">
        <ele>2221.6</ele>
        <time>2022-01-16T08:17:34Z</time>
      </trkpt>
      <trkpt lat="45.21213" lon="6.01584">
        <ele>2222.8</ele>
        <time>2022-01-16T08:17:39Z</time>
      </trkpt>
      <trkpt lat="45.21212" lon="6.0158">
        <ele>2223.8</ele>
        <time>2022-01-16T08:17:42Z</time>
      </trkpt>
      <trkpt lat="45.21212" lon="6.01578">
        <ele>2223.8</ele>
        <time>2022-01-16T08:17:43Z</time>
      </trkpt>
      <trkpt lat="45.21213" lon="6.01572">
        <ele>2224.8</ele>
        <time>2022-01-16T08:17:47Z</time>
      </trkpt>
      <trkpt lat="45.21214" lon="6.0157">
        <ele>2225</ele>
        <time>2022-01-16T08:17:48Z</time>
      </trkpt>
      <trkpt lat="45.21215" lon="6.01567">
        <ele>2225.6</ele>
        <time>2022-01-16T08:17:50Z</time>
      </trkpt>
      <trkpt lat="45.21216" lon="6.01565">
        <ele>2225.6</ele>
        <time>2022-01-16T08:17:51Z</time>
      </trkpt>
      <trkpt lat="45.21218" lon="6.01562">
        <ele>2226</ele>
        <time>2022-01-16T08:17:54Z</time>
      </trkpt>
      <trkpt lat="45.21219" lon="6.01561">
        <ele>2226.6</ele>
        <time>2022-01-16T08:17:55Z</time>
      </trkpt>
      <trkpt lat="45.2122" lon="6.0156">
        <ele>2226.6</ele>
        <time>2022-01-16T08:17:56Z</time>
      </trkpt>
      <trkpt lat="45.21222" lon="6.01557">
        <ele>2227.8</ele>
        <time>2022-01-16T08:17:59Z</time>
      </trkpt>
      <trkpt lat="45.21223" lon="6.01555">
        <ele>2228</ele>
        <time>2022-01-16T08:18:01Z</time>
      </trkpt>
      <trkpt lat="45.21228" lon="6.01562">
        <ele>2228.6</ele>
        <time>2022-01-16T08:18:07Z</time>
      </trkpt>
      <trkpt lat="45.21228" lon="6.01562">
        <ele>2228.6</ele>
        <time>2022-01-16T08:18:08Z</time>
      </trkpt>
      <trkpt lat="45.21228" lon="6.01562">
        <ele>2228.6</ele>
        <time>2022-01-16T08:18:10Z</time>
      </trkpt>
      <trkpt lat="45.21229" lon="6.01563">
        <ele>2228.6</ele>
        <time>2022-01-16T08:18:16Z</time>
      </trkpt>
      <trkpt lat="45.2123" lon="6.01562">
        <ele>2228.4</ele>
        <time>2022-01-16T08:18:19Z</time>
      </trkpt>
      <trkpt lat="45.21228" lon="6.01561">
        <ele>2228.4</ele>
        <time>2022-01-16T08:18:21Z</time>
      </trkpt>
      <trkpt lat="45.21228" lon="6.0156">
        <ele>2228.4</ele>
        <time>2022-01-16T08:18:27Z</time>
      </trkpt>
      <trkpt lat="45.21228" lon="6.0156">
        <ele>2228.4</ele>
        <time>2022-01-16T08:18:31Z</time>
      </trkpt>
      <trkpt lat="45.21228" lon="6.01561">
        <ele>2228.6</ele>
        <time>2022-01-16T08:18:34Z</time>
      </trkpt>
      <trkpt lat="45.21227" lon="6.01561">
        <ele>2228.4</ele>
        <time>2022-01-16T08:18:40Z</time>
      </trkpt>
      <trkpt lat="45.21226" lon="6.0156">
        <ele>2228.2</ele>
        <time>2022-01-16T08:18:46Z</time>
      </trkpt>
      <trkpt lat="45.21226" lon="6.0156">
        <ele>2228.2</ele>
        <time>2022-01-16T08:18:50Z</time>
      </trkpt>
      <trkpt lat="45.21226" lon="6.0156">
        <ele>2228.2</ele>
        <time>2022-01-16T08:18:52Z</time>
      </trkpt>
      <trkpt lat="45.21226" lon="6.0156">
        <ele>2228.2</ele>
        <time>2022-01-16T08:18:54Z</time>
      </trkpt>
      <trkpt lat="45.21226" lon="6.0156">
        <ele>2228.4</ele>
        <time>2022-01-16T08:18:58Z</time>
      </trkpt>
      <trkpt lat="45.21226" lon="6.0156">
        <ele>2229</ele>
        <time>2022-01-16T08:18:59Z</time>
      </trkpt>
      <trkpt lat="45.21228" lon="6.01559">
        <ele>2229.6</ele>
        <time>2022-01-16T08:19:01Z</time>
      </trkpt>
      <trkpt lat="45.21228" lon="6.01558">
        <ele>2229.8</ele>
        <time>2022-01-16T08:19:02Z</time>
      </trkpt>
      <trkpt lat="45.21229" lon="6.01557">
        <ele>2230.2</ele>
        <time>2022-01-16T08:19:03Z</time>
      </trkpt>
      <trkpt lat="45.2123" lon="6.01556">
        <ele>2230.4</ele>
        <time>2022-01-16T08:19:04Z</time>
      </trkpt>
      <trkpt lat="45.21232" lon="6.01552">
        <ele>2230.8</ele>
        <time>2022-01-16T08:19:07Z</time>
      </trkpt>
      <trkpt lat="45.21233" lon="6.0155">
        <ele>2231.8</ele>
        <time>2022-01-16T08:19:09Z</time>
      </trkpt>
      <trkpt lat="45.21233" lon="6.01545">
        <ele>2232.6</ele>
        <time>2022-01-16T08:19:11Z</time>
      </trkpt>
      <trkpt lat="45.21233" lon="6.01542">
        <ele>2233</ele>
        <time>2022-01-16T08:19:13Z</time>
      </trkpt>
      <trkpt lat="45.21234" lon="6.01538">
        <ele>2233.8</ele>
        <time>2022-01-16T08:19:16Z</time>
      </trkpt>
      <trkpt lat="45.21235" lon="6.01538">
        <ele>2234.2</ele>
        <time>2022-01-16T08:19:17Z</time>
      </trkpt>
      <trkpt lat="45.21236" lon="6.01537">
        <ele>2234.4</ele>
        <time>2022-01-16T08:19:18Z</time>
      </trkpt>
      <trkpt lat="45.21236" lon="6.01537">
        <ele>2234.8</ele>
        <time>2022-01-16T08:19:19Z</time>
      </trkpt>
      <trkpt lat="45.21237" lon="6.01535">
        <ele>2235.4</ele>
        <time>2022-01-16T08:19:22Z</time>
      </trkpt>
      <trkpt lat="45.21239" lon="6.01535">
        <ele>2235.8</ele>
        <time>2022-01-16T08:19:24Z</time>
      </trkpt>
      <trkpt lat="45.2124" lon="6.01533">
        <ele>2236.4</ele>
        <time>2022-01-16T08:19:26Z</time>
      </trkpt>
      <trkpt lat="45.21241" lon="6.01532">
        <ele>2236.8</ele>
        <time>2022-01-16T08:19:28Z</time>
      </trkpt>
      <trkpt lat="45.21242" lon="6.01532">
        <ele>2237.4</ele>
        <time>2022-01-16T08:19:31Z</time>
      </trkpt>
      <trkpt lat="45.21243" lon="6.01531">
        <ele>2238</ele>
        <time>2022-01-16T08:19:34Z</time>
      </trkpt>
      <trkpt lat="45.21242" lon="6.0153">
        <ele>2239</ele>
        <time>2022-01-16T08:19:38Z</time>
      </trkpt>
      <trkpt lat="45.21243" lon="6.01524">
        <ele>2240</ele>
        <time>2022-01-16T08:19:42Z</time>
      </trkpt>
      <trkpt lat="45.21243" lon="6.01519">
        <ele>2241.4</ele>
        <time>2022-01-16T08:19:47Z</time>
      </trkpt>
      <trkpt lat="45.21244" lon="6.01515">
        <ele>2242.2</ele>
        <time>2022-01-16T08:19:53Z</time>
      </trkpt>
      <trkpt lat="45.21244" lon="6.01513">
        <ele>2243</ele>
        <time>2022-01-16T08:19:54Z</time>
      </trkpt>
      <trkpt lat="45.21244" lon="6.01509">
        <ele>2244.2</ele>
        <time>2022-01-16T08:19:59Z</time>
      </trkpt>
      <trkpt lat="45.21243" lon="6.01506">
        <ele>2245.4</ele>
        <time>2022-01-16T08:20:03Z</time>
      </trkpt>
      <trkpt lat="45.21243" lon="6.01502">
        <ele>2246.4</ele>
        <time>2022-01-16T08:20:07Z</time>
      </trkpt>
      <trkpt lat="45.21243" lon="6.015">
        <ele>2246.6</ele>
        <time>2022-01-16T08:20:08Z</time>
      </trkpt>
      <trkpt lat="45.21241" lon="6.01497">
        <ele>2247.8</ele>
        <time>2022-01-16T08:20:12Z</time>
      </trkpt>
      <trkpt lat="45.21241" lon="6.01496">
        <ele>2248.2</ele>
        <time>2022-01-16T08:20:15Z</time>
      </trkpt>
      <trkpt lat="45.21245" lon="6.01496">
        <ele>2248.8</ele>
        <time>2022-01-16T08:20:19Z</time>
      </trkpt>
      <trkpt lat="45.21246" lon="6.01495">
        <ele>2249</ele>
        <time>2022-01-16T08:20:21Z</time>
      </trkpt>
      <trkpt lat="45.21249" lon="6.01496">
        <ele>2250.2</ele>
        <time>2022-01-16T08:20:24Z</time>
      </trkpt>
      <trkpt lat="45.21251" lon="6.01495">
        <ele>2250.8</ele>
        <time>2022-01-16T08:20:27Z</time>
      </trkpt>
      <trkpt lat="45.21252" lon="6.01494">
        <ele>2251.4</ele>
        <time>2022-01-16T08:20:29Z</time>
      </trkpt>
      <trkpt lat="45.21253" lon="6.01494">
        <ele>2251.6</ele>
        <time>2022-01-16T08:20:31Z</time>
      </trkpt>
      <trkpt lat="45.21255" lon="6.01494">
        <ele>2252.4</ele>
        <time>2022-01-16T08:20:34Z</time>
      </trkpt>
      <trkpt lat="45.21257" lon="6.01493">
        <ele>2253.2</ele>
        <time>2022-01-16T08:20:37Z</time>
      </trkpt>
      <trkpt lat="45.21258" lon="6.01493">
        <ele>2253.8</ele>
        <time>2022-01-16T08:20:38Z</time>
      </trkpt>
      <trkpt lat="45.2126" lon="6.01492">
        <ele>2254.6</ele>
        <time>2022-01-16T08:20:42Z</time>
      </trkpt>
      <trkpt lat="45.21262" lon="6.01494">
        <ele>2254.8</ele>
        <time>2022-01-16T08:20:44Z</time>
      </trkpt>
      <trkpt lat="45.21265" lon="6.01495">
        <ele>2255.8</ele>
        <time>2022-01-16T08:20:47Z</time>
      </trkpt>
      <trkpt lat="45.21268" lon="6.01496">
        <ele>2256.4</ele>
        <time>2022-01-16T08:20:50Z</time>
      </trkpt>
      <trkpt lat="45.21269" lon="6.01497">
        <ele>2257</ele>
        <time>2022-01-16T08:20:52Z</time>
      </trkpt>
      <trkpt lat="45.21274" lon="6.015">
        <ele>2258.2</ele>
        <time>2022-01-16T08:20:57Z</time>
      </trkpt>
      <trkpt lat="45.21274" lon="6.01499">
        <ele>2258.4</ele>
        <time>2022-01-16T08:20:59Z</time>
      </trkpt>
      <trkpt lat="45.21273" lon="6.01499">
        <ele>2258.8</ele>
        <time>2022-01-16T08:21:02Z</time>
      </trkpt>
      <trkpt lat="45.21275" lon="6.01498">
        <ele>2258.8</ele>
        <time>2022-01-16T08:21:08Z</time>
      </trkpt>
      <trkpt lat="45.21274" lon="6.01497">
        <ele>2259.4</ele>
        <time>2022-01-16T08:21:09Z</time>
      </trkpt>
      <trkpt lat="45.21274" lon="6.01496">
        <ele>2259.4</ele>
        <time>2022-01-16T08:21:10Z</time>
      </trkpt>
      <trkpt lat="45.21274" lon="6.01492">
        <ele>2260.6</ele>
        <time>2022-01-16T08:21:14Z</time>
      </trkpt>
      <trkpt lat="45.21275" lon="6.01489">
        <ele>2261.6</ele>
        <time>2022-01-16T08:21:19Z</time>
      </trkpt>
      <trkpt lat="45.21276" lon="6.01484">
        <ele>2263</ele>
        <time>2022-01-16T08:21:25Z</time>
      </trkpt>
      <trkpt lat="45.21281" lon="6.01488">
        <ele>2264.4</ele>
        <time>2022-01-16T08:21:31Z</time>
      </trkpt>
      <trkpt lat="45.21282" lon="6.01489">
        <ele>2264.4</ele>
        <time>2022-01-16T08:21:32Z</time>
      </trkpt>
      <trkpt lat="45.21287" lon="6.01493">
        <ele>2265</ele>
        <time>2022-01-16T08:21:38Z</time>
      </trkpt>
      <trkpt lat="45.21288" lon="6.01493">
        <ele>2265.4</ele>
        <time>2022-01-16T08:21:39Z</time>
      </trkpt>
      <trkpt lat="45.2129" lon="6.01496">
        <ele>2266.2</ele>
        <time>2022-01-16T08:21:42Z</time>
      </trkpt>
      <trkpt lat="45.21291" lon="6.01496">
        <ele>2266.6</ele>
        <time>2022-01-16T08:21:43Z</time>
      </trkpt>
      <trkpt lat="45.21292" lon="6.01498">
        <ele>2267.2</ele>
        <time>2022-01-16T08:21:45Z</time>
      </trkpt>
      <trkpt lat="45.21294" lon="6.01498">
        <ele>2267.8</ele>
        <time>2022-01-16T08:21:49Z</time>
      </trkpt>
      <trkpt lat="45.21295" lon="6.01498">
        <ele>2267.8</ele>
        <time>2022-01-16T08:21:50Z</time>
      </trkpt>
      <trkpt lat="45.21298" lon="6.01499">
        <ele>2269</ele>
        <time>2022-01-16T08:21:54Z</time>
      </trkpt>
      <trkpt lat="45.213" lon="6.01497">
        <ele>2270</ele>
        <time>2022-01-16T08:21:59Z</time>
      </trkpt>
      <trkpt lat="45.213" lon="6.01496">
        <ele>2270.2</ele>
        <time>2022-01-16T08:22:00Z</time>
      </trkpt>
      <trkpt lat="45.21297" lon="6.01494">
        <ele>2271.2</ele>
        <time>2022-01-16T08:22:04Z</time>
      </trkpt>
      <trkpt lat="45.21297" lon="6.01493">
        <ele>2271.2</ele>
        <time>2022-01-16T08:22:05Z</time>
      </trkpt>
      <trkpt lat="45.21294" lon="6.01485">
        <ele>2272.4</ele>
        <time>2022-01-16T08:22:11Z</time>
      </trkpt>
      <trkpt lat="45.21291" lon="6.01481">
        <ele>2272.8</ele>
        <time>2022-01-16T08:22:15Z</time>
      </trkpt>
      <trkpt lat="45.2129" lon="6.01478">
        <ele>2273.4</ele>
        <time>2022-01-16T08:22:18Z</time>
      </trkpt>
      <trkpt lat="45.21288" lon="6.01476">
        <ele>2274.4</ele>
        <time>2022-01-16T08:22:21Z</time>
      </trkpt>
      <trkpt lat="45.21288" lon="6.01475">
        <ele>2274.8</ele>
        <time>2022-01-16T08:22:22Z</time>
      </trkpt>
      <trkpt lat="45.21287" lon="6.01474">
        <ele>2274.8</ele>
        <time>2022-01-16T08:22:23Z</time>
      </trkpt>
      <trkpt lat="45.21285" lon="6.01471">
        <ele>2276.2</ele>
        <time>2022-01-16T08:22:28Z</time>
      </trkpt>
      <trkpt lat="45.21285" lon="6.01469">
        <ele>2277</ele>
        <time>2022-01-16T08:22:30Z</time>
      </trkpt>
      <trkpt lat="45.21284" lon="6.01468">
        <ele>2277.2</ele>
        <time>2022-01-16T08:22:31Z</time>
      </trkpt>
      <trkpt lat="45.21278" lon="6.01463">
        <ele>2277.4</ele>
        <time>2022-01-16T08:22:37Z</time>
      </trkpt>
      <trkpt lat="45.21277" lon="6.01463">
        <ele>2277.4</ele>
        <time>2022-01-16T08:22:38Z</time>
      </trkpt>
      <trkpt lat="45.21274" lon="6.01461">
        <ele>2278</ele>
        <time>2022-01-16T08:22:42Z</time>
      </trkpt>
      <trkpt lat="45.21273" lon="6.01459">
        <ele>2278.4</ele>
        <time>2022-01-16T08:22:44Z</time>
      </trkpt>
      <trkpt lat="45.21273" lon="6.01458">
        <ele>2278.4</ele>
        <time>2022-01-16T08:22:45Z</time>
      </trkpt>
      <trkpt lat="45.21272" lon="6.01455">
        <ele>2279.4</ele>
        <time>2022-01-16T08:22:48Z</time>
      </trkpt>
      <trkpt lat="45.21272" lon="6.01453">
        <ele>2280</ele>
        <time>2022-01-16T08:22:51Z</time>
      </trkpt>
      <trkpt lat="45.21271" lon="6.0145">
        <ele>2280.4</ele>
        <time>2022-01-16T08:22:54Z</time>
      </trkpt>
      <trkpt lat="45.21273" lon="6.01447">
        <ele>2281.4</ele>
        <time>2022-01-16T08:22:59Z</time>
      </trkpt>
      <trkpt lat="45.21274" lon="6.01447">
        <ele>2281.6</ele>
        <time>2022-01-16T08:23:01Z</time>
      </trkpt>
      <trkpt lat="45.21278" lon="6.01448">
        <ele>2282.4</ele>
        <time>2022-01-16T08:23:05Z</time>
      </trkpt>
      <trkpt lat="45.21279" lon="6.01448">
        <ele>2282.6</ele>
        <time>2022-01-16T08:23:07Z</time>
      </trkpt>
      <trkpt lat="45.21281" lon="6.01447">
        <ele>2283.8</ele>
        <time>2022-01-16T08:23:12Z</time>
      </trkpt>
      <trkpt lat="45.2128" lon="6.01442">
        <ele>2284.8</ele>
        <time>2022-01-16T08:23:18Z</time>
      </trkpt>
      <trkpt lat="45.21279" lon="6.01441">
        <ele>2285.4</ele>
        <time>2022-01-16T08:23:19Z</time>
      </trkpt>
      <trkpt lat="45.21278" lon="6.01438">
        <ele>2286.4</ele>
        <time>2022-01-16T08:23:24Z</time>
      </trkpt>
      <trkpt lat="45.21277" lon="6.01437">
        <ele>2286.6</ele>
        <time>2022-01-16T08:23:25Z</time>
      </trkpt>
      <trkpt lat="45.21276" lon="6.01435">
        <ele>2287.4</ele>
        <time>2022-01-16T08:23:28Z</time>
      </trkpt>
      <trkpt lat="45.21275" lon="6.01435">
        <ele>2287.8</ele>
        <time>2022-01-16T08:23:29Z</time>
      </trkpt>
      <trkpt lat="45.21271" lon="6.01432">
        <ele>2289</ele>
        <time>2022-01-16T08:23:35Z</time>
      </trkpt>
      <trkpt lat="45.21269" lon="6.01429">
        <ele>2290.2</ele>
        <time>2022-01-16T08:23:40Z</time>
      </trkpt>
      <trkpt lat="45.21268" lon="6.01428">
        <ele>2290.4</ele>
        <time>2022-01-16T08:23:41Z</time>
      </trkpt>
      <trkpt lat="45.21266" lon="6.01427">
        <ele>2291.4</ele>
        <time>2022-01-16T08:23:44Z</time>
      </trkpt>
      <trkpt lat="45.21263" lon="6.01423">
        <ele>2292</ele>
        <time>2022-01-16T08:23:48Z</time>
      </trkpt>
      <trkpt lat="45.21262" lon="6.0142">
        <ele>2292.8</ele>
        <time>2022-01-16T08:23:51Z</time>
      </trkpt>
      <trkpt lat="45.21258" lon="6.01416">
        <ele>2293.8</ele>
        <time>2022-01-16T08:23:56Z</time>
      </trkpt>
      <trkpt lat="45.21256" lon="6.01414">
        <ele>2294.2</ele>
        <time>2022-01-16T08:23:58Z</time>
      </trkpt>
      <trkpt lat="45.21256" lon="6.01413">
        <ele>2294.4</ele>
        <time>2022-01-16T08:23:59Z</time>
      </trkpt>
      <trkpt lat="45.21256" lon="6.01413">
        <ele>2294.4</ele>
        <time>2022-01-16T08:24:00Z</time>
      </trkpt>
      <trkpt lat="45.21256" lon="6.01409">
        <ele>2295</ele>
        <time>2022-01-16T08:24:02Z</time>
      </trkpt>
      <trkpt lat="45.21256" lon="6.01407">
        <ele>2296</ele>
        <time>2022-01-16T08:24:04Z</time>
      </trkpt>
      <trkpt lat="45.21257" lon="6.01403">
        <ele>2296.4</ele>
        <time>2022-01-16T08:24:07Z</time>
      </trkpt>
      <trkpt lat="45.21257" lon="6.01402">
        <ele>2297.2</ele>
        <time>2022-01-16T08:24:10Z</time>
      </trkpt>
      <trkpt lat="45.21257" lon="6.01402">
        <ele>2297.2</ele>
        <time>2022-01-16T08:24:12Z</time>
      </trkpt>
      <trkpt lat="45.21255" lon="6.01402">
        <ele>2297.4</ele>
        <time>2022-01-16T08:24:18Z</time>
      </trkpt>
      <trkpt lat="45.21254" lon="6.01401">
        <ele>2298.2</ele>
        <time>2022-01-16T08:24:20Z</time>
      </trkpt>
      <trkpt lat="45.21253" lon="6.01403">
        <ele>2298.4</ele>
        <time>2022-01-16T08:24:22Z</time>
      </trkpt>
      <trkpt lat="45.21249" lon="6.01402">
        <ele>2299.6</ele>
        <time>2022-01-16T08:24:26Z</time>
      </trkpt>
      <trkpt lat="45.21245" lon="6.01399">
        <ele>2301</ele>
        <time>2022-01-16T08:24:30Z</time>
      </trkpt>
      <trkpt lat="45.21242" lon="6.01397">
        <ele>2302.2</ele>
        <time>2022-01-16T08:24:35Z</time>
      </trkpt>
      <trkpt lat="45.21241" lon="6.01397">
        <ele>2302.4</ele>
        <time>2022-01-16T08:24:37Z</time>
      </trkpt>
      <trkpt lat="45.2124" lon="6.01396">
        <ele>2302.6</ele>
        <time>2022-01-16T08:24:38Z</time>
      </trkpt>
      <trkpt lat="45.21239" lon="6.01395">
        <ele>2303.2</ele>
        <time>2022-01-16T08:24:40Z</time>
      </trkpt>
      <trkpt lat="45.21239" lon="6.01393">
        <ele>2303.8</ele>
        <time>2022-01-16T08:24:43Z</time>
      </trkpt>
      <trkpt lat="45.2124" lon="6.01392">
        <ele>2304.4</ele>
        <time>2022-01-16T08:24:45Z</time>
      </trkpt>
      <trkpt lat="45.21243" lon="6.01389">
        <ele>2305.4</ele>
        <time>2022-01-16T08:24:50Z</time>
      </trkpt>
      <trkpt lat="45.21244" lon="6.01388">
        <ele>2305.8</ele>
        <time>2022-01-16T08:24:51Z</time>
      </trkpt>
      <trkpt lat="45.21248" lon="6.01385">
        <ele>2307</ele>
        <time>2022-01-16T08:24:56Z</time>
      </trkpt>
      <trkpt lat="45.2125" lon="6.01384">
        <ele>2307.8</ele>
        <time>2022-01-16T08:24:58Z</time>
      </trkpt>
      <trkpt lat="45.21251" lon="6.01383">
        <ele>2308.2</ele>
        <time>2022-01-16T08:25:01Z</time>
      </trkpt>
      <trkpt lat="45.2125" lon="6.01383">
        <ele>2308.8</ele>
        <time>2022-01-16T08:25:04Z</time>
      </trkpt>
      <trkpt lat="45.21248" lon="6.01381">
        <ele>2309.6</ele>
        <time>2022-01-16T08:25:08Z</time>
      </trkpt>
      <trkpt lat="45.21245" lon="6.01381">
        <ele>2310.2</ele>
        <time>2022-01-16T08:25:10Z</time>
      </trkpt>
      <trkpt lat="45.21243" lon="6.01379">
        <ele>2310.6</ele>
        <time>2022-01-16T08:25:12Z</time>
      </trkpt>
      <trkpt lat="45.21241" lon="6.01379">
        <ele>2311.2</ele>
        <time>2022-01-16T08:25:15Z</time>
      </trkpt>
      <trkpt lat="45.21239" lon="6.01378">
        <ele>2311.8</ele>
        <time>2022-01-16T08:25:18Z</time>
      </trkpt>
      <trkpt lat="45.21236" lon="6.01376">
        <ele>2312.2</ele>
        <time>2022-01-16T08:25:21Z</time>
      </trkpt>
      <trkpt lat="45.21235" lon="6.01376">
        <ele>2313</ele>
        <time>2022-01-16T08:25:23Z</time>
      </trkpt>
      <trkpt lat="45.21231" lon="6.01376">
        <ele>2313.8</ele>
        <time>2022-01-16T08:25:27Z</time>
      </trkpt>
      <trkpt lat="45.21231" lon="6.01375">
        <ele>2314.2</ele>
        <time>2022-01-16T08:25:28Z</time>
      </trkpt>
      <trkpt lat="45.2123" lon="6.01373">
        <ele>2314.6</ele>
        <time>2022-01-16T08:25:31Z</time>
      </trkpt>
      <trkpt lat="45.2123" lon="6.01372">
        <ele>2314.6</ele>
        <time>2022-01-16T08:25:32Z</time>
      </trkpt>
      <trkpt lat="45.2123" lon="6.01371">
        <ele>2315.2</ele>
        <time>2022-01-16T08:25:33Z</time>
      </trkpt>
      <trkpt lat="45.21234" lon="6.01368">
        <ele>2316</ele>
        <time>2022-01-16T08:25:39Z</time>
      </trkpt>
      <trkpt lat="45.21234" lon="6.01368">
        <ele>2316.4</ele>
        <time>2022-01-16T08:25:40Z</time>
      </trkpt>
      <trkpt lat="45.21231" lon="6.01369">
        <ele>2317.2</ele>
        <time>2022-01-16T08:25:46Z</time>
      </trkpt>
      <trkpt lat="45.2123" lon="6.0137">
        <ele>2318</ele>
        <time>2022-01-16T08:25:49Z</time>
      </trkpt>
      <trkpt lat="45.21229" lon="6.01368">
        <ele>2318.8</ele>
        <time>2022-01-16T08:25:53Z</time>
      </trkpt>
      <trkpt lat="45.21228" lon="6.01367">
        <ele>2319.2</ele>
        <time>2022-01-16T08:25:54Z</time>
      </trkpt>
      <trkpt lat="45.21231" lon="6.01364">
        <ele>2320</ele>
        <time>2022-01-16T08:26:00Z</time>
      </trkpt>
      <trkpt lat="45.21231" lon="6.01363">
        <ele>2320.2</ele>
        <time>2022-01-16T08:26:02Z</time>
      </trkpt>
      <trkpt lat="45.21233" lon="6.0136">
        <ele>2321.4</ele>
        <time>2022-01-16T08:26:06Z</time>
      </trkpt>
      <trkpt lat="45.21234" lon="6.01357">
        <ele>2321.8</ele>
        <time>2022-01-16T08:26:09Z</time>
      </trkpt>
      <trkpt lat="45.21234" lon="6.01355">
        <ele>2322.6</ele>
        <time>2022-01-16T08:26:14Z</time>
      </trkpt>
      <trkpt lat="45.21234" lon="6.01355">
        <ele>2323.2</ele>
        <time>2022-01-16T08:26:16Z</time>
      </trkpt>
      <trkpt lat="45.21232" lon="6.01356">
        <ele>2323.6</ele>
        <time>2022-01-16T08:26:19Z</time>
      </trkpt>
      <trkpt lat="45.21229" lon="6.01356">
        <ele>2324.4</ele>
        <time>2022-01-16T08:26:24Z</time>
      </trkpt>
      <trkpt lat="45.21228" lon="6.01355">
        <ele>2325</ele>
        <time>2022-01-16T08:26:25Z</time>
      </trkpt>
      <trkpt lat="45.21228" lon="6.01355">
        <ele>2325.4</ele>
        <time>2022-01-16T08:26:26Z</time>
      </trkpt>
      <trkpt lat="45.21225" lon="6.01356">
        <ele>2326</ele>
        <time>2022-01-16T08:26:30Z</time>
      </trkpt>
      <trkpt lat="45.21224" lon="6.01356">
        <ele>2326.2</ele>
        <time>2022-01-16T08:26:31Z</time>
      </trkpt>
      <trkpt lat="45.21222" lon="6.01356">
        <ele>2327.2</ele>
        <time>2022-01-16T08:26:35Z</time>
      </trkpt>
      <trkpt lat="45.21221" lon="6.01356">
        <ele>2327.6</ele>
        <time>2022-01-16T08:26:37Z</time>
      </trkpt>
      <trkpt lat="45.21219" lon="6.01355">
        <ele>2328.2</ele>
        <time>2022-01-16T08:26:41Z</time>
      </trkpt>
      <trkpt lat="45.21219" lon="6.01355">
        <ele>2328.4</ele>
        <time>2022-01-16T08:26:42Z</time>
      </trkpt>
      <trkpt lat="45.21218" lon="6.01354">
        <ele>2329.2</ele>
        <time>2022-01-16T08:26:45Z</time>
      </trkpt>
      <trkpt lat="45.21217" lon="6.01354">
        <ele>2329.4</ele>
        <time>2022-01-16T08:26:46Z</time>
      </trkpt>
      <trkpt lat="45.21215" lon="6.01353">
        <ele>2330.2</ele>
        <time>2022-01-16T08:26:52Z</time>
      </trkpt>
      <trkpt lat="45.21214" lon="6.01353">
        <ele>2330.4</ele>
        <time>2022-01-16T08:26:53Z</time>
      </trkpt>
      <trkpt lat="45.21214" lon="6.01354">
        <ele>2330.8</ele>
        <time>2022-01-16T08:26:54Z</time>
      </trkpt>
      <trkpt lat="45.21214" lon="6.01352">
        <ele>2331</ele>
        <time>2022-01-16T08:27:00Z</time>
      </trkpt>
      <trkpt lat="45.21214" lon="6.01352">
        <ele>2331</ele>
        <time>2022-01-16T08:27:03Z</time>
      </trkpt>
      <trkpt lat="45.21214" lon="6.01352">
        <ele>2331</ele>
        <time>2022-01-16T08:27:08Z</time>
      </trkpt>
      <trkpt lat="45.21214" lon="6.01352">
        <ele>2331.4</ele>
        <time>2022-01-16T08:27:13Z</time>
      </trkpt>
      <trkpt lat="45.21213" lon="6.01352">
        <ele>2332</ele>
        <time>2022-01-16T08:27:19Z</time>
      </trkpt>
      <trkpt lat="45.21213" lon="6.01351">
        <ele>2332.6</ele>
        <time>2022-01-16T08:27:23Z</time>
      </trkpt>
      <trkpt lat="45.21213" lon="6.01349">
        <ele>2333.8</ele>
        <time>2022-01-16T08:27:29Z</time>
      </trkpt>
      <trkpt lat="45.21212" lon="6.01349">
        <ele>2334</ele>
        <time>2022-01-16T08:27:30Z</time>
      </trkpt>
      <trkpt lat="45.21212" lon="6.01349">
        <ele>2334</ele>
        <time>2022-01-16T08:27:32Z</time>
      </trkpt>
      <trkpt lat="45.21211" lon="6.01348">
        <ele>2333.8</ele>
        <time>2022-01-16T08:27:38Z</time>
      </trkpt>
      <trkpt lat="45.21209" lon="6.01345">
        <ele>2333.8</ele>
        <time>2022-01-16T08:27:44Z</time>
      </trkpt>
      <trkpt lat="45.21209" lon="6.01344">
        <ele>2333.6</ele>
        <time>2022-01-16T08:27:45Z</time>
      </trkpt>
      <trkpt lat="45.21209" lon="6.01343">
        <ele>2333.6</ele>
        <time>2022-01-16T08:27:47Z</time>
      </trkpt>
      <trkpt lat="45.21209" lon="6.01343">
        <ele>2333.6</ele>
        <time>2022-01-16T08:27:48Z</time>
      </trkpt>
      <trkpt lat="45.21209" lon="6.01343">
        <ele>2333.6</ele>
        <time>2022-01-16T08:27:49Z</time>
      </trkpt>
      <trkpt lat="45.21208" lon="6.01343">
        <ele>2333.6</ele>
        <time>2022-01-16T08:27:50Z</time>
      </trkpt>
      <trkpt lat="45.21208" lon="6.01343">
        <ele>2333.6</ele>
        <time>2022-01-16T08:27:51Z</time>
      </trkpt>
      <trkpt lat="45.21208" lon="6.01342">
        <ele>2333.8</ele>
        <time>2022-01-16T08:27:57Z</time>
      </trkpt>
      <trkpt lat="45.21208" lon="6.01342">
        <ele>2333.8</ele>
        <time>2022-01-16T08:28:00Z</time>
      </trkpt>
      <trkpt lat="45.21208" lon="6.01342">
        <ele>2333.8</ele>
        <time>2022-01-16T08:28:06Z</time>
      </trkpt>
      <trkpt lat="45.21208" lon="6.01342">
        <ele>2333.8</ele>
        <time>2022-01-16T08:28:08Z</time>
      </trkpt>
      <trkpt lat="45.21207" lon="6.01342">
        <ele>2333.8</ele>
        <time>2022-01-16T08:28:14Z</time>
      </trkpt>
      <trkpt lat="45.21207" lon="6.01342">
        <ele>2333.6</ele>
        <time>2022-01-16T08:28:17Z</time>
      </trkpt>
      <trkpt lat="45.21207" lon="6.01342">
        <ele>2333.6</ele>
        <time>2022-01-16T08:28:19Z</time>
      </trkpt>
      <trkpt lat="45.21207" lon="6.01342">
        <ele>2333.6</ele>
        <time>2022-01-16T08:28:20Z</time>
      </trkpt>
      <trkpt lat="45.21207" lon="6.01342">
        <ele>2334.2</ele>
        <time>2022-01-16T08:28:26Z</time>
      </trkpt>
      <trkpt lat="45.21207" lon="6.01342">
        <ele>2334.2</ele>
        <time>2022-01-16T08:28:28Z</time>
      </trkpt>
      <trkpt lat="45.21207" lon="6.01342">
        <ele>2334.2</ele>
        <time>2022-01-16T08:28:29Z</time>
      </trkpt>
      <trkpt lat="45.21207" lon="6.01342">
        <ele>2334.4</ele>
        <time>2022-01-16T08:28:32Z</time>
      </trkpt>
      <trkpt lat="45.21207" lon="6.01342">
        <ele>2334.4</ele>
        <time>2022-01-16T08:28:38Z</time>
      </trkpt>
      <trkpt lat="45.21207" lon="6.01342">
        <ele>2334.6</ele>
        <time>2022-01-16T08:28:41Z</time>
      </trkpt>
      <trkpt lat="45.21207" lon="6.01342">
        <ele>2334.6</ele>
        <time>2022-01-16T08:28:47Z</time>
      </trkpt>
      <trkpt lat="45.21207" lon="6.01342">
        <ele>2335.2</ele>
        <time>2022-01-16T08:28:49Z</time>
      </trkpt>
      <trkpt lat="45.21202" lon="6.01335">
        <ele>2335.2</ele>
        <time>2022-01-16T08:28:53Z</time>
      </trkpt>
      <trkpt lat="45.21201" lon="6.0133">
        <ele>2333.8</ele>
        <time>2022-01-16T08:28:54Z</time>
      </trkpt>
      <trkpt lat="45.212" lon="6.01324">
        <ele>2331.8</ele>
        <time>2022-01-16T08:28:55Z</time>
      </trkpt>
      <trkpt lat="45.21198" lon="6.01312">
        <ele>2330.6</ele>
        <time>2022-01-16T08:28:57Z</time>
      </trkpt>
      <trkpt lat="45.21198" lon="6.01302">
        <ele>2329.6</ele>
        <time>2022-01-16T08:29:00Z</time>
      </trkpt>
      <trkpt lat="45.21198" lon="6.01302">
        <ele>2329.6</ele>
        <time>2022-01-16T08:29:01Z</time>
      </trkpt>
      <trkpt lat="45.21196" lon="6.01301">
        <ele>2329.6</ele>
        <time>2022-01-16T08:29:07Z</time>
      </trkpt>
      <trkpt lat="45.21193" lon="6.01294">
        <ele>2329.4</ele>
        <time>2022-01-16T08:29:09Z</time>
      </trkpt>
      <trkpt lat="45.21191" lon="6.01288">
        <ele>2325.8</ele>
        <time>2022-01-16T08:29:10Z</time>
      </trkpt>
      <trkpt lat="45.21191" lon="6.01275">
        <ele>2324.8</ele>
        <time>2022-01-16T08:29:12Z</time>
      </trkpt>
      <trkpt lat="45.21192" lon="6.01263">
        <ele>2323.2</ele>
        <time>2022-01-16T08:29:14Z</time>
      </trkpt>
      <trkpt lat="45.21193" lon="6.01259">
        <ele>2322</ele>
        <time>2022-01-16T08:29:16Z</time>
      </trkpt>
      <trkpt lat="45.21193" lon="6.01258">
        <ele>2321.8</ele>
        <time>2022-01-16T08:29:18Z</time>
      </trkpt>
      <trkpt lat="45.21193" lon="6.01258">
        <ele>2321.8</ele>
        <time>2022-01-16T08:29:21Z</time>
      </trkpt>
      <trkpt lat="45.21193" lon="6.01258">
        <ele>2321.8</ele>
        <time>2022-01-16T08:29:23Z</time>
      </trkpt>
      <trkpt lat="45.21193" lon="6.01258">
        <ele>2321.8</ele>
        <time>2022-01-16T08:29:24Z</time>
      </trkpt>
      <trkpt lat="45.21192" lon="6.01257">
        <ele>2321.8</ele>
        <time>2022-01-16T08:29:27Z</time>
      </trkpt>
      <trkpt lat="45.2119" lon="6.01249">
        <ele>2321.4</ele>
        <time>2022-01-16T08:29:29Z</time>
      </trkpt>
      <trkpt lat="45.21188" lon="6.01243">
        <ele>2319.4</ele>
        <time>2022-01-16T08:29:30Z</time>
      </trkpt>
      <trkpt lat="45.21185" lon="6.01229">
        <ele>2317.6</ele>
        <time>2022-01-16T08:29:32Z</time>
      </trkpt>
      <trkpt lat="45.21184" lon="6.01223">
        <ele>2315.8</ele>
        <time>2022-01-16T08:29:33Z</time>
      </trkpt>
      <trkpt lat="45.21182" lon="6.01217">
        <ele>2315.4</ele>
        <time>2022-01-16T08:29:34Z</time>
      </trkpt>
      <trkpt lat="45.21178" lon="6.01201">
        <ele>2314.4</ele>
        <time>2022-01-16T08:29:36Z</time>
      </trkpt>
      <trkpt lat="45.21176" lon="6.01191">
        <ele>2312</ele>
        <time>2022-01-16T08:29:37Z</time>
      </trkpt>
      <trkpt lat="45.21174" lon="6.0118">
        <ele>2310.6</ele>
        <time>2022-01-16T08:29:38Z</time>
      </trkpt>
      <trkpt lat="45.21174" lon="6.0117">
        <ele>2310.6</ele>
        <time>2022-01-16T08:29:39Z</time>
      </trkpt>
      <trkpt lat="45.21173" lon="6.0116">
        <ele>2307.6</ele>
        <time>2022-01-16T08:29:40Z</time>
      </trkpt>
      <trkpt lat="45.21172" lon="6.01144">
        <ele>2307.4</ele>
        <time>2022-01-16T08:29:42Z</time>
      </trkpt>
      <trkpt lat="45.21171" lon="6.01137">
        <ele>2307</ele>
        <time>2022-01-16T08:29:43Z</time>
      </trkpt>
      <trkpt lat="45.21169" lon="6.01129">
        <ele>2304.4</ele>
        <time>2022-01-16T08:29:44Z</time>
      </trkpt>
      <trkpt lat="45.21166" lon="6.0112">
        <ele>2303.2</ele>
        <time>2022-01-16T08:29:45Z</time>
      </trkpt>
      <trkpt lat="45.21164" lon="6.0111">
        <ele>2300.2</ele>
        <time>2022-01-16T08:29:46Z</time>
      </trkpt>
      <trkpt lat="45.21162" lon="6.011">
        <ele>2296</ele>
        <time>2022-01-16T08:29:47Z</time>
      </trkpt>
      <trkpt lat="45.21159" lon="6.01089">
        <ele>2292.6</ele>
        <time>2022-01-16T08:29:48Z</time>
      </trkpt>
      <trkpt lat="45.21156" lon="6.01077">
        <ele>2291.6</ele>
        <time>2022-01-16T08:29:49Z</time>
      </trkpt>
      <trkpt lat="45.21152" lon="6.01066">
        <ele>2290</ele>
        <time>2022-01-16T08:29:50Z</time>
      </trkpt>
      <trkpt lat="45.21149" lon="6.01055">
        <ele>2287</ele>
        <time>2022-01-16T08:29:51Z</time>
      </trkpt>
      <trkpt lat="45.21146" lon="6.01045">
        <ele>2287</ele>
        <time>2022-01-16T08:29:52Z</time>
      </trkpt>
      <trkpt lat="45.21143" lon="6.01037">
        <ele>2287</ele>
        <time>2022-01-16T08:29:53Z</time>
      </trkpt>
      <trkpt lat="45.21137" lon="6.01024">
        <ele>2287</ele>
        <time>2022-01-16T08:29:55Z</time>
      </trkpt>
      <trkpt lat="45.21133" lon="6.01017">
        <ele>2287</ele>
        <time>2022-01-16T08:29:56Z</time>
      </trkpt>
      <trkpt lat="45.21129" lon="6.01012">
        <ele>2288</ele>
        <time>2022-01-16T08:29:57Z</time>
      </trkpt>
      <trkpt lat="45.21122" lon="6.01002">
        <ele>2286.4</ele>
        <time>2022-01-16T08:29:59Z</time>
      </trkpt>
      <trkpt lat="45.21119" lon="6.00998">
        <ele>2286</ele>
        <time>2022-01-16T08:30:00Z</time>
      </trkpt>
      <trkpt lat="45.21111" lon="6.0099">
        <ele>2285.2</ele>
        <time>2022-01-16T08:30:02Z</time>
      </trkpt>
      <trkpt lat="45.21108" lon="6.00986">
        <ele>2283</ele>
        <time>2022-01-16T08:30:03Z</time>
      </trkpt>
      <trkpt lat="45.21094" lon="6.00974">
        <ele>2281.8</ele>
        <time>2022-01-16T08:30:06Z</time>
      </trkpt>
      <trkpt lat="45.21089" lon="6.00971">
        <ele>2281.4</ele>
        <time>2022-01-16T08:30:07Z</time>
      </trkpt>
      <trkpt lat="45.21085" lon="6.00968">
        <ele>2280.4</ele>
        <time>2022-01-16T08:30:08Z</time>
      </trkpt>
      <trkpt lat="45.21079" lon="6.00963">
        <ele>2280</ele>
        <time>2022-01-16T08:30:09Z</time>
      </trkpt>
      <trkpt lat="45.21069" lon="6.00955">
        <ele>2278.6</ele>
        <time>2022-01-16T08:30:11Z</time>
      </trkpt>
      <trkpt lat="45.21065" lon="6.00952">
        <ele>2277.4</ele>
        <time>2022-01-16T08:30:12Z</time>
      </trkpt>
      <trkpt lat="45.2106" lon="6.00948">
        <ele>2275.4</ele>
        <time>2022-01-16T08:30:13Z</time>
      </trkpt>
      <trkpt lat="45.21049" lon="6.00941">
        <ele>2274.4</ele>
        <time>2022-01-16T08:30:15Z</time>
      </trkpt>
      <trkpt lat="45.21042" lon="6.00939">
        <ele>2273.4</ele>
        <time>2022-01-16T08:30:16Z</time>
      </trkpt>
      <trkpt lat="45.21034" lon="6.00939">
        <ele>2271.6</ele>
        <time>2022-01-16T08:30:17Z</time>
      </trkpt>
      <trkpt lat="45.21026" lon="6.0094">
        <ele>2271.4</ele>
        <time>2022-01-16T08:30:18Z</time>
      </trkpt>
      <trkpt lat="45.21018" lon="6.00942">
        <ele>2270.6</ele>
        <time>2022-01-16T08:30:19Z</time>
      </trkpt>
      <trkpt lat="45.21011" lon="6.00945">
        <ele>2268.4</ele>
        <time>2022-01-16T08:30:20Z</time>
      </trkpt>
      <trkpt lat="45.21005" lon="6.00948">
        <ele>2266.4</ele>
        <time>2022-01-16T08:30:21Z</time>
      </trkpt>
      <trkpt lat="45.20999" lon="6.00951">
        <ele>2265</ele>
        <time>2022-01-16T08:30:22Z</time>
      </trkpt>
      <trkpt lat="45.20984" lon="6.00961">
        <ele>2262.4</ele>
        <time>2022-01-16T08:30:25Z</time>
      </trkpt>
      <trkpt lat="45.20975" lon="6.00967">
        <ele>2262</ele>
        <time>2022-01-16T08:30:27Z</time>
      </trkpt>
      <trkpt lat="45.20971" lon="6.0097">
        <ele>2261.4</ele>
        <time>2022-01-16T08:30:28Z</time>
      </trkpt>
      <trkpt lat="45.20964" lon="6.00976">
        <ele>2261</ele>
        <time>2022-01-16T08:30:30Z</time>
      </trkpt>
      <trkpt lat="45.2096" lon="6.00979">
        <ele>2260</ele>
        <time>2022-01-16T08:30:31Z</time>
      </trkpt>
      <trkpt lat="45.20951" lon="6.00985">
        <ele>2259</ele>
        <time>2022-01-16T08:30:33Z</time>
      </trkpt>
      <trkpt lat="45.20946" lon="6.00989">
        <ele>2258.6</ele>
        <time>2022-01-16T08:30:34Z</time>
      </trkpt>
      <trkpt lat="45.20941" lon="6.00993">
        <ele>2257.6</ele>
        <time>2022-01-16T08:30:35Z</time>
      </trkpt>
      <trkpt lat="45.20935" lon="6.00997">
        <ele>2256.6</ele>
        <time>2022-01-16T08:30:36Z</time>
      </trkpt>
      <trkpt lat="45.20929" lon="6.01002">
        <ele>2255.4</ele>
        <time>2022-01-16T08:30:37Z</time>
      </trkpt>
      <trkpt lat="45.20917" lon="6.01013">
        <ele>2254</ele>
        <time>2022-01-16T08:30:39Z</time>
      </trkpt>
      <trkpt lat="45.20911" lon="6.01019">
        <ele>2250</ele>
        <time>2022-01-16T08:30:40Z</time>
      </trkpt>
      <trkpt lat="45.209" lon="6.01027">
        <ele>2248.2</ele>
        <time>2022-01-16T08:30:42Z</time>
      </trkpt>
      <trkpt lat="45.20898" lon="6.01032">
        <ele>2247.4</ele>
        <time>2022-01-16T08:30:43Z</time>
      </trkpt>
      <trkpt lat="45.20899" lon="6.01038">
        <ele>2245.2</ele>
        <time>2022-01-16T08:30:44Z</time>
      </trkpt>
      <trkpt lat="45.20898" lon="6.01044">
        <ele>2242</ele>
        <time>2022-01-16T08:30:45Z</time>
      </trkpt>
      <trkpt lat="45.20896" lon="6.0105">
        <ele>2240.4</ele>
        <time>2022-01-16T08:30:46Z</time>
      </trkpt>
      <trkpt lat="45.20893" lon="6.01056">
        <ele>2239.2</ele>
        <time>2022-01-16T08:30:47Z</time>
      </trkpt>
      <trkpt lat="45.2089" lon="6.01062">
        <ele>2238.2</ele>
        <time>2022-01-16T08:30:48Z</time>
      </trkpt>
      <trkpt lat="45.20887" lon="6.01069">
        <ele>2237.4</ele>
        <time>2022-01-16T08:30:49Z</time>
      </trkpt>
      <trkpt lat="45.20883" lon="6.01076">
        <ele>2235.4</ele>
        <time>2022-01-16T08:30:50Z</time>
      </trkpt>
      <trkpt lat="45.20879" lon="6.01083">
        <ele>2232.4</ele>
        <time>2022-01-16T08:30:51Z</time>
      </trkpt>
      <trkpt lat="45.20875" lon="6.01089">
        <ele>2230</ele>
        <time>2022-01-16T08:30:52Z</time>
      </trkpt>
      <trkpt lat="45.20873" lon="6.01095">
        <ele>2228.6</ele>
        <time>2022-01-16T08:30:53Z</time>
      </trkpt>
      <trkpt lat="45.20872" lon="6.01112">
        <ele>2225.6</ele>
        <time>2022-01-16T08:30:55Z</time>
      </trkpt>
      <trkpt lat="45.2087" lon="6.0112">
        <ele>2221.8</ele>
        <time>2022-01-16T08:30:56Z</time>
      </trkpt>
      <trkpt lat="45.20868" lon="6.01129">
        <ele>2220.6</ele>
        <time>2022-01-16T08:30:57Z</time>
      </trkpt>
      <trkpt lat="45.20866" lon="6.01137">
        <ele>2219</ele>
        <time>2022-01-16T08:30:58Z</time>
      </trkpt>
      <trkpt lat="45.20864" lon="6.01147">
        <ele>2217.4</ele>
        <time>2022-01-16T08:30:59Z</time>
      </trkpt>
      <trkpt lat="45.20858" lon="6.01166">
        <ele>2212.6</ele>
        <time>2022-01-16T08:31:01Z</time>
      </trkpt>
      <trkpt lat="45.20855" lon="6.01174">
        <ele>2210.2</ele>
        <time>2022-01-16T08:31:02Z</time>
      </trkpt>
      <trkpt lat="45.20853" lon="6.01187">
        <ele>2209</ele>
        <time>2022-01-16T08:31:04Z</time>
      </trkpt>
      <trkpt lat="45.20855" lon="6.01193">
        <ele>2206.8</ele>
        <time>2022-01-16T08:31:05Z</time>
      </trkpt>
      <trkpt lat="45.20856" lon="6.01198">
        <ele>2203.2</ele>
        <time>2022-01-16T08:31:06Z</time>
      </trkpt>
      <trkpt lat="45.20859" lon="6.01201">
        <ele>2201</ele>
        <time>2022-01-16T08:31:07Z</time>
      </trkpt>
      <trkpt lat="45.20862" lon="6.01206">
        <ele>2199</ele>
        <time>2022-01-16T08:31:08Z</time>
      </trkpt>
      <trkpt lat="45.20864" lon="6.01211">
        <ele>2193.8</ele>
        <time>2022-01-16T08:31:09Z</time>
      </trkpt>
      <trkpt lat="45.20863" lon="6.01217">
        <ele>2192.6</ele>
        <time>2022-01-16T08:31:10Z</time>
      </trkpt>
      <trkpt lat="45.20861" lon="6.01225">
        <ele>2191.6</ele>
        <time>2022-01-16T08:31:11Z</time>
      </trkpt>
      <trkpt lat="45.20857" lon="6.01234">
        <ele>2188</ele>
        <time>2022-01-16T08:31:12Z</time>
      </trkpt>
      <trkpt lat="45.20853" lon="6.01241">
        <ele>2186.2</ele>
        <time>2022-01-16T08:31:13Z</time>
      </trkpt>
      <trkpt lat="45.20848" lon="6.01248">
        <ele>2184.6</ele>
        <time>2022-01-16T08:31:14Z</time>
      </trkpt>
      <trkpt lat="45.20844" lon="6.01254">
        <ele>2183.4</ele>
        <time>2022-01-16T08:31:15Z</time>
      </trkpt>
      <trkpt lat="45.20836" lon="6.01265">
        <ele>2181.2</ele>
        <time>2022-01-16T08:31:17Z</time>
      </trkpt>
      <trkpt lat="45.2083" lon="6.01272">
        <ele>2179.4</ele>
        <time>2022-01-16T08:31:19Z</time>
      </trkpt>
      <trkpt lat="45.20827" lon="6.01278">
        <ele>2178</ele>
        <time>2022-01-16T08:31:21Z</time>
      </trkpt>
      <trkpt lat="45.20828" lon="6.01281">
        <ele>2177.4</ele>
        <time>2022-01-16T08:31:22Z</time>
      </trkpt>
      <trkpt lat="45.2083" lon="6.01281">
        <ele>2174.4</ele>
        <time>2022-01-16T08:31:23Z</time>
      </trkpt>
      <trkpt lat="45.20833" lon="6.01283">
        <ele>2171.2</ele>
        <time>2022-01-16T08:31:24Z</time>
      </trkpt>
      <trkpt lat="45.20835" lon="6.01287">
        <ele>2170.8</ele>
        <time>2022-01-16T08:31:25Z</time>
      </trkpt>
      <trkpt lat="45.20831" lon="6.01294">
        <ele>2168.4</ele>
        <time>2022-01-16T08:31:27Z</time>
      </trkpt>
      <trkpt lat="45.20828" lon="6.01298">
        <ele>2168</ele>
        <time>2022-01-16T08:31:28Z</time>
      </trkpt>
      <trkpt lat="45.20823" lon="6.01302">
        <ele>2167.4</ele>
        <time>2022-01-16T08:31:29Z</time>
      </trkpt>
      <trkpt lat="45.20818" lon="6.01304">
        <ele>2166.2</ele>
        <time>2022-01-16T08:31:30Z</time>
      </trkpt>
      <trkpt lat="45.20807" lon="6.01309">
        <ele>2164.6</ele>
        <time>2022-01-16T08:31:32Z</time>
      </trkpt>
      <trkpt lat="45.20797" lon="6.01313">
        <ele>2162.4</ele>
        <time>2022-01-16T08:31:34Z</time>
      </trkpt>
      <trkpt lat="45.20792" lon="6.01316">
        <ele>2161.2</ele>
        <time>2022-01-16T08:31:35Z</time>
      </trkpt>
      <trkpt lat="45.20787" lon="6.01319">
        <ele>2160.2</ele>
        <time>2022-01-16T08:31:36Z</time>
      </trkpt>
      <trkpt lat="45.20782" lon="6.01321">
        <ele>2159.6</ele>
        <time>2022-01-16T08:31:37Z</time>
      </trkpt>
      <trkpt lat="45.20776" lon="6.01324">
        <ele>2157.4</ele>
        <time>2022-01-16T08:31:38Z</time>
      </trkpt>
      <trkpt lat="45.2077" lon="6.01328">
        <ele>2156.4</ele>
        <time>2022-01-16T08:31:39Z</time>
      </trkpt>
      <trkpt lat="45.20765" lon="6.01332">
        <ele>2155.6</ele>
        <time>2022-01-16T08:31:40Z</time>
      </trkpt>
      <trkpt lat="45.20759" lon="6.01338">
        <ele>2153.8</ele>
        <time>2022-01-16T08:31:41Z</time>
      </trkpt>
      <trkpt lat="45.20749" lon="6.01351">
        <ele>2152.2</ele>
        <time>2022-01-16T08:31:43Z</time>
      </trkpt>
      <trkpt lat="45.20744" lon="6.01356">
        <ele>2151</ele>
        <time>2022-01-16T08:31:44Z</time>
      </trkpt>
      <trkpt lat="45.20742" lon="6.01361">
        <ele>2149.4</ele>
        <time>2022-01-16T08:31:45Z</time>
      </trkpt>
      <trkpt lat="45.20742" lon="6.01364">
        <ele>2148.8</ele>
        <time>2022-01-16T08:31:46Z</time>
      </trkpt>
      <trkpt lat="45.20746" lon="6.01367">
        <ele>2146.6</ele>
        <time>2022-01-16T08:31:47Z</time>
      </trkpt>
      <trkpt lat="45.20748" lon="6.01372">
        <ele>2143.6</ele>
        <time>2022-01-16T08:31:48Z</time>
      </trkpt>
      <trkpt lat="45.20749" lon="6.01378">
        <ele>2139.8</ele>
        <time>2022-01-16T08:31:49Z</time>
      </trkpt>
      <trkpt lat="45.20747" lon="6.01384">
        <ele>2138.2</ele>
        <time>2022-01-16T08:31:50Z</time>
      </trkpt>
      <trkpt lat="45.20744" lon="6.0139">
        <ele>2136.6</ele>
        <time>2022-01-16T08:31:51Z</time>
      </trkpt>
      <trkpt lat="45.20738" lon="6.01403">
        <ele>2135.2</ele>
        <time>2022-01-16T08:31:53Z</time>
      </trkpt>
      <trkpt lat="45.20734" lon="6.01409">
        <ele>2134.4</ele>
        <time>2022-01-16T08:31:54Z</time>
      </trkpt>
      <trkpt lat="45.20732" lon="6.01414">
        <ele>2133.6</ele>
        <time>2022-01-16T08:31:55Z</time>
      </trkpt>
      <trkpt lat="45.2073" lon="6.01417">
        <ele>2131.6</ele>
        <time>2022-01-16T08:31:57Z</time>
      </trkpt>
      <trkpt lat="45.20731" lon="6.01417">
        <ele>2130.2</ele>
        <time>2022-01-16T08:31:59Z</time>
      </trkpt>
      <trkpt lat="45.20731" lon="6.01417">
        <ele>2130.2</ele>
        <time>2022-01-16T08:32:00Z</time>
      </trkpt>
      <trkpt lat="45.20731" lon="6.01417">
        <ele>2130.2</ele>
        <time>2022-01-16T08:32:01Z</time>
      </trkpt>
      <trkpt lat="45.20731" lon="6.01417">
        <ele>2130.2</ele>
        <time>2022-01-16T08:32:02Z</time>
      </trkpt>
      <trkpt lat="45.20732" lon="6.01417">
        <ele>2130.2</ele>
        <time>2022-01-16T08:32:04Z</time>
      </trkpt>
      <trkpt lat="45.20729" lon="6.0142">
        <ele>2130</ele>
        <time>2022-01-16T08:32:07Z</time>
      </trkpt>
      <trkpt lat="45.20721" lon="6.01426">
        <ele>2129</ele>
        <time>2022-01-16T08:32:11Z</time>
      </trkpt>
      <trkpt lat="45.20718" lon="6.01428">
        <ele>2129</ele>
        <time>2022-01-16T08:32:12Z</time>
      </trkpt>
      <trkpt lat="45.20711" lon="6.01431">
        <ele>2127.2</ele>
        <time>2022-01-16T08:32:14Z</time>
      </trkpt>
      <trkpt lat="45.20702" lon="6.01433">
        <ele>2126</ele>
        <time>2022-01-16T08:32:16Z</time>
      </trkpt>
      <trkpt lat="45.20697" lon="6.01434">
        <ele>2124.4</ele>
        <time>2022-01-16T08:32:17Z</time>
      </trkpt>
      <trkpt lat="45.20686" lon="6.01436">
        <ele>2122.6</ele>
        <time>2022-01-16T08:32:19Z</time>
      </trkpt>
      <trkpt lat="45.20681" lon="6.01436">
        <ele>2121.2</ele>
        <time>2022-01-16T08:32:20Z</time>
      </trkpt>
      <trkpt lat="45.20676" lon="6.01437">
        <ele>2120.8</ele>
        <time>2022-01-16T08:32:21Z</time>
      </trkpt>
      <trkpt lat="45.20665" lon="6.01438">
        <ele>2119</ele>
        <time>2022-01-16T08:32:23Z</time>
      </trkpt>
      <trkpt lat="45.2066" lon="6.01437">
        <ele>2118</ele>
        <time>2022-01-16T08:32:24Z</time>
      </trkpt>
      <trkpt lat="45.20654" lon="6.01435">
        <ele>2116.6</ele>
        <time>2022-01-16T08:32:25Z</time>
      </trkpt>
      <trkpt lat="45.20648" lon="6.01433">
        <ele>2116</ele>
        <time>2022-01-16T08:32:26Z</time>
      </trkpt>
      <trkpt lat="45.20642" lon="6.0143">
        <ele>2114.6</ele>
        <time>2022-01-16T08:32:27Z</time>
      </trkpt>
      <trkpt lat="45.20636" lon="6.01427">
        <ele>2113.6</ele>
        <time>2022-01-16T08:32:28Z</time>
      </trkpt>
      <trkpt lat="45.20624" lon="6.01421">
        <ele>2112</ele>
        <time>2022-01-16T08:32:30Z</time>
      </trkpt>
      <trkpt lat="45.20618" lon="6.01419">
        <ele>2110.2</ele>
        <time>2022-01-16T08:32:31Z</time>
      </trkpt>
      <trkpt lat="45.20612" lon="6.01415">
        <ele>2109</ele>
        <time>2022-01-16T08:32:32Z</time>
      </trkpt>
      <trkpt lat="45.20598" lon="6.01408">
        <ele>2108.2</ele>
        <time>2022-01-16T08:32:34Z</time>
      </trkpt>
      <trkpt lat="45.20591" lon="6.01407">
        <ele>2106.6</ele>
        <time>2022-01-16T08:32:35Z</time>
      </trkpt>
      <trkpt lat="45.20586" lon="6.01408">
        <ele>2106</ele>
        <time>2022-01-16T08:32:36Z</time>
      </trkpt>
      <trkpt lat="45.20578" lon="6.0141">
        <ele>2104.8</ele>
        <time>2022-01-16T08:32:37Z</time>
      </trkpt>
      <trkpt lat="45.20573" lon="6.01413">
        <ele>2103.4</ele>
        <time>2022-01-16T08:32:38Z</time>
      </trkpt>
      <trkpt lat="45.20567" lon="6.01417">
        <ele>2102</ele>
        <time>2022-01-16T08:32:39Z</time>
      </trkpt>
      <trkpt lat="45.20554" lon="6.01426">
        <ele>2100.4</ele>
        <time>2022-01-16T08:32:41Z</time>
      </trkpt>
      <trkpt lat="45.20541" lon="6.01435">
        <ele>2098.2</ele>
        <time>2022-01-16T08:32:43Z</time>
      </trkpt>
      <trkpt lat="45.20535" lon="6.0144">
        <ele>2098</ele>
        <time>2022-01-16T08:32:44Z</time>
      </trkpt>
      <trkpt lat="45.20526" lon="6.01448">
        <ele>2094</ele>
        <time>2022-01-16T08:32:46Z</time>
      </trkpt>
      <trkpt lat="45.20523" lon="6.01449">
        <ele>2093.6</ele>
        <time>2022-01-16T08:32:47Z</time>
      </trkpt>
      <trkpt lat="45.20521" lon="6.0145">
        <ele>2091.2</ele>
        <time>2022-01-16T08:32:48Z</time>
      </trkpt>
      <trkpt lat="45.20519" lon="6.01451">
        <ele>2091</ele>
        <time>2022-01-16T08:32:49Z</time>
      </trkpt>
      <trkpt lat="45.20518" lon="6.01454">
        <ele>2090.8</ele>
        <time>2022-01-16T08:32:50Z</time>
      </trkpt>
      <trkpt lat="45.2052" lon="6.01458">
        <ele>2090.8</ele>
        <time>2022-01-16T08:32:51Z</time>
      </trkpt>
      <trkpt lat="45.20524" lon="6.01462">
        <ele>2089.2</ele>
        <time>2022-01-16T08:32:52Z</time>
      </trkpt>
      <trkpt lat="45.20527" lon="6.01467">
        <ele>2088.6</ele>
        <time>2022-01-16T08:32:53Z</time>
      </trkpt>
      <trkpt lat="45.20529" lon="6.01474">
        <ele>2084</ele>
        <time>2022-01-16T08:32:54Z</time>
      </trkpt>
      <trkpt lat="45.2053" lon="6.01482">
        <ele>2083.6</ele>
        <time>2022-01-16T08:32:55Z</time>
      </trkpt>
      <trkpt lat="45.20532" lon="6.01491">
        <ele>2081.8</ele>
        <time>2022-01-16T08:32:56Z</time>
      </trkpt>
      <trkpt lat="45.20534" lon="6.01499">
        <ele>2079</ele>
        <time>2022-01-16T08:32:57Z</time>
      </trkpt>
      <trkpt lat="45.20537" lon="6.01511">
        <ele>2077.8</ele>
        <time>2022-01-16T08:32:58Z</time>
      </trkpt>
      <trkpt lat="45.20537" lon="6.01519">
        <ele>2070.4</ele>
        <time>2022-01-16T08:32:59Z</time>
      </trkpt>
      <trkpt lat="45.20534" lon="6.01528">
        <ele>2069.4</ele>
        <time>2022-01-16T08:33:00Z</time>
      </trkpt>
      <trkpt lat="45.20529" lon="6.01535">
        <ele>2069.2</ele>
        <time>2022-01-16T08:33:01Z</time>
      </trkpt>
      <trkpt lat="45.20524" lon="6.01538">
        <ele>2068.2</ele>
        <time>2022-01-16T08:33:02Z</time>
      </trkpt>
      <trkpt lat="45.20519" lon="6.01539">
        <ele>2065.8</ele>
        <time>2022-01-16T08:33:03Z</time>
      </trkpt>
      <trkpt lat="45.2051" lon="6.01536">
        <ele>2065</ele>
        <time>2022-01-16T08:33:05Z</time>
      </trkpt>
      <trkpt lat="45.20504" lon="6.01532">
        <ele>2064.4</ele>
        <time>2022-01-16T08:33:06Z</time>
      </trkpt>
      <trkpt lat="45.20498" lon="6.01528">
        <ele>2063.6</ele>
        <time>2022-01-16T08:33:07Z</time>
      </trkpt>
      <trkpt lat="45.20492" lon="6.01523">
        <ele>2063.2</ele>
        <time>2022-01-16T08:33:08Z</time>
      </trkpt>
      <trkpt lat="45.20485" lon="6.01519">
        <ele>2062.6</ele>
        <time>2022-01-16T08:33:09Z</time>
      </trkpt>
      <trkpt lat="45.20479" lon="6.01516">
        <ele>2060.6</ele>
        <time>2022-01-16T08:33:10Z</time>
      </trkpt>
      <trkpt lat="45.20473" lon="6.01515">
        <ele>2060.6</ele>
        <time>2022-01-16T08:33:11Z</time>
      </trkpt>
      <trkpt lat="45.20462" lon="6.01514">
        <ele>2056.6</ele>
        <time>2022-01-16T08:33:13Z</time>
      </trkpt>
      <trkpt lat="45.2046" lon="6.01514">
        <ele>2056.2</ele>
        <time>2022-01-16T08:33:14Z</time>
      </trkpt>
      <trkpt lat="45.2046" lon="6.01515">
        <ele>2054.8</ele>
        <time>2022-01-16T08:33:15Z</time>
      </trkpt>
      <trkpt lat="45.20459" lon="6.01515">
        <ele>2054.8</ele>
        <time>2022-01-16T08:33:17Z</time>
      </trkpt>
      <trkpt lat="45.20459" lon="6.01516">
        <ele>2054.6</ele>
        <time>2022-01-16T08:33:20Z</time>
      </trkpt>
      <trkpt lat="45.20459" lon="6.01516">
        <ele>2054.4</ele>
        <time>2022-01-16T08:33:21Z</time>
      </trkpt>
      <trkpt lat="45.20459" lon="6.01516">
        <ele>2054</ele>
        <time>2022-01-16T08:33:22Z</time>
      </trkpt>
      <trkpt lat="45.20459" lon="6.01515">
        <ele>2054</ele>
        <time>2022-01-16T08:33:25Z</time>
      </trkpt>
      <trkpt lat="45.20459" lon="6.01512">
        <ele>2054.2</ele>
        <time>2022-01-16T08:33:29Z</time>
      </trkpt>
      <trkpt lat="45.20458" lon="6.01511">
        <ele>2054.2</ele>
        <time>2022-01-16T08:33:32Z</time>
      </trkpt>
      <trkpt lat="45.20458" lon="6.01511">
        <ele>2054.4</ele>
        <time>2022-01-16T08:33:34Z</time>
      </trkpt>
      <trkpt lat="45.20458" lon="6.01511">
        <ele>2054.2</ele>
        <time>2022-01-16T08:33:36Z</time>
      </trkpt>
      <trkpt lat="45.20459" lon="6.01511">
        <ele>2054.2</ele>
        <time>2022-01-16T08:33:38Z</time>
      </trkpt>
      <trkpt lat="45.20459" lon="6.01512">
        <ele>2054</ele>
        <time>2022-01-16T08:33:41Z</time>
      </trkpt>
      <trkpt lat="45.20459" lon="6.01512">
        <ele>2053.8</ele>
        <time>2022-01-16T08:33:43Z</time>
      </trkpt>
      <trkpt lat="45.20459" lon="6.01512">
        <ele>2053.8</ele>
        <time>2022-01-16T08:33:46Z</time>
      </trkpt>
      <trkpt lat="45.20459" lon="6.01512">
        <ele>2054</ele>
        <time>2022-01-16T08:33:51Z</time>
      </trkpt>
      <trkpt lat="45.20459" lon="6.01512">
        <ele>2053.6</ele>
        <time>2022-01-16T08:33:55Z</time>
      </trkpt>
      <trkpt lat="45.20459" lon="6.01512">
        <ele>2053.6</ele>
        <time>2022-01-16T08:33:57Z</time>
      </trkpt>
      <trkpt lat="45.20459" lon="6.01512">
        <ele>2053.8</ele>
        <time>2022-01-16T08:33:58Z</time>
      </trkpt>
      <trkpt lat="45.20459" lon="6.01514">
        <ele>2053.8</ele>
        <time>2022-01-16T08:34:01Z</time>
      </trkpt>
      <trkpt lat="45.2046" lon="6.01516">
        <ele>2053.8</ele>
        <time>2022-01-16T08:34:06Z</time>
      </trkpt>
      <trkpt lat="45.2046" lon="6.01516">
        <ele>2053.8</ele>
        <time>2022-01-16T08:34:08Z</time>
      </trkpt>
      <trkpt lat="45.20461" lon="6.01516">
        <ele>2053.4</ele>
        <time>2022-01-16T08:34:14Z</time>
      </trkpt>
      <trkpt lat="45.20461" lon="6.01516">
        <ele>2053.6</ele>
        <time>2022-01-16T08:34:19Z</time>
      </trkpt>
      <trkpt lat="45.20461" lon="6.01516">
        <ele>2053.6</ele>
        <time>2022-01-16T08:34:23Z</time>
      </trkpt>
      <trkpt lat="45.20461" lon="6.01516">
        <ele>2053.8</ele>
        <time>2022-01-16T08:34:29Z</time>
      </trkpt>
      <trkpt lat="45.20461" lon="6.01516">
        <ele>2053.6</ele>
        <time>2022-01-16T08:34:31Z</time>
      </trkpt>
      <trkpt lat="45.20461" lon="6.01515">
        <ele>2053</ele>
        <time>2022-01-16T08:34:35Z</time>
      </trkpt>
      <trkpt lat="45.20461" lon="6.01515">
        <ele>2053.2</ele>
        <time>2022-01-16T08:34:37Z</time>
      </trkpt>
      <trkpt lat="45.20461" lon="6.01516">
        <ele>2053.4</ele>
        <time>2022-01-16T08:34:40Z</time>
      </trkpt>
      <trkpt lat="45.20461" lon="6.01516">
        <ele>2053.4</ele>
        <time>2022-01-16T08:34:42Z</time>
      </trkpt>
      <trkpt lat="45.20461" lon="6.01516">
        <ele>2053.6</ele>
        <time>2022-01-16T08:34:43Z</time>
      </trkpt>
      <trkpt lat="45.20461" lon="6.01516">
        <ele>2053.6</ele>
        <time>2022-01-16T08:34:44Z</time>
      </trkpt>
      <trkpt lat="45.20461" lon="6.01516">
        <ele>2053.6</ele>
        <time>2022-01-16T08:34:48Z</time>
      </trkpt>
      <trkpt lat="45.20461" lon="6.01516">
        <ele>2053.6</ele>
        <time>2022-01-16T08:34:52Z</time>
      </trkpt>
      <trkpt lat="45.20461" lon="6.01516">
        <ele>2053.4</ele>
        <time>2022-01-16T08:34:58Z</time>
      </trkpt>
      <trkpt lat="45.20461" lon="6.01516">
        <ele>2053.4</ele>
        <time>2022-01-16T08:35:01Z</time>
      </trkpt>
      <trkpt lat="45.2046" lon="6.01516">
        <ele>2053.6</ele>
        <time>2022-01-16T08:35:07Z</time>
      </trkpt>
      <trkpt lat="45.2046" lon="6.01516">
        <ele>2053.6</ele>
        <time>2022-01-16T08:35:11Z</time>
      </trkpt>
      <trkpt lat="45.2046" lon="6.01516">
        <ele>2053.6</ele>
        <time>2022-01-16T08:35:12Z</time>
      </trkpt>
      <trkpt lat="45.2046" lon="6.01516">
        <ele>2053.4</ele>
        <time>2022-01-16T08:35:14Z</time>
      </trkpt>
      <trkpt lat="45.2046" lon="6.01516">
        <ele>2053</ele>
        <time>2022-01-16T08:35:20Z</time>
      </trkpt>
      <trkpt lat="45.2046" lon="6.01516">
        <ele>2053</ele>
        <time>2022-01-16T08:35:22Z</time>
      </trkpt>
      <trkpt lat="45.2046" lon="6.01516">
        <ele>2053</ele>
        <time>2022-01-16T08:35:23Z</time>
      </trkpt>
      <trkpt lat="45.2046" lon="6.01515">
        <ele>2053.2</ele>
        <time>2022-01-16T08:35:28Z</time>
      </trkpt>
      <trkpt lat="45.2046" lon="6.01515">
        <ele>2053.2</ele>
        <time>2022-01-16T08:35:32Z</time>
      </trkpt>
      <trkpt lat="45.20461" lon="6.01514">
        <ele>2053.2</ele>
        <time>2022-01-16T08:35:35Z</time>
      </trkpt>
      <trkpt lat="45.20461" lon="6.01514">
        <ele>2053.2</ele>
        <time>2022-01-16T08:35:38Z</time>
      </trkpt>
      <trkpt lat="45.20461" lon="6.01514">
        <ele>2053.2</ele>
        <time>2022-01-16T08:35:40Z</time>
      </trkpt>
      <trkpt lat="45.20461" lon="6.01514">
        <ele>2053.2</ele>
        <time>2022-01-16T08:35:46Z</time>
      </trkpt>
      <trkpt lat="45.20457" lon="6.01514">
        <ele>2053.2</ele>
        <time>2022-01-16T08:35:51Z</time>
      </trkpt>
      <trkpt lat="45.20453" lon="6.01514">
        <ele>2053.2</ele>
        <time>2022-01-16T08:35:54Z</time>
      </trkpt>
      <trkpt lat="45.2045" lon="6.01515">
        <ele>2053.2</ele>
        <time>2022-01-16T08:35:57Z</time>
      </trkpt>
      <trkpt lat="45.20449" lon="6.01515">
        <ele>2053.2</ele>
        <time>2022-01-16T08:36:00Z</time>
      </trkpt>
      <trkpt lat="45.2045" lon="6.01515">
        <ele>2053.2</ele>
        <time>2022-01-16T08:36:06Z</time>
      </trkpt>
      <trkpt lat="45.2045" lon="6.01515">
        <ele>2053.2</ele>
        <time>2022-01-16T08:36:09Z</time>
      </trkpt>
      <trkpt lat="45.20449" lon="6.01515">
        <ele>2053.2</ele>
        <time>2022-01-16T08:36:15Z</time>
      </trkpt>
      <trkpt lat="45.20446" lon="6.01515">
        <ele>2053.2</ele>
        <time>2022-01-16T08:36:18Z</time>
      </trkpt>
      <trkpt lat="45.20438" lon="6.01515">
        <ele>2053.2</ele>
        <time>2022-01-16T08:36:24Z</time>
      </trkpt>
      <trkpt lat="45.20432" lon="6.01516">
        <ele>2053.4</ele>
        <time>2022-01-16T08:36:30Z</time>
      </trkpt>
      <trkpt lat="45.20431" lon="6.01517">
        <ele>2053.6</ele>
        <time>2022-01-16T08:36:31Z</time>
      </trkpt>
      <trkpt lat="45.20427" lon="6.01517">
        <ele>2055</ele>
        <time>2022-01-16T08:36:35Z</time>
      </trkpt>
      <trkpt lat="45.20428" lon="6.01514">
        <ele>2055</ele>
        <time>2022-01-16T08:36:37Z</time>
      </trkpt>
      <trkpt lat="45.2043" lon="6.01509">
        <ele>2056</ele>
        <time>2022-01-16T08:36:41Z</time>
      </trkpt>
      <trkpt lat="45.20431" lon="6.01506">
        <ele>2056.2</ele>
        <time>2022-01-16T08:36:43Z</time>
      </trkpt>
      <trkpt lat="45.20431" lon="6.01505">
        <ele>2056.4</ele>
        <time>2022-01-16T08:36:44Z</time>
      </trkpt>
      <trkpt lat="45.20433" lon="6.01501">
        <ele>2057.2</ele>
        <time>2022-01-16T08:36:47Z</time>
      </trkpt>
      <trkpt lat="45.20436" lon="6.01498">
        <ele>2057.6</ele>
        <time>2022-01-16T08:36:50Z</time>
      </trkpt>
      <trkpt lat="45.20437" lon="6.01495">
        <ele>2058.4</ele>
        <time>2022-01-16T08:36:53Z</time>
      </trkpt>
      <trkpt lat="45.20438" lon="6.01493">
        <ele>2059.4</ele>
        <time>2022-01-16T08:36:56Z</time>
      </trkpt>
      <trkpt lat="45.20439" lon="6.01492">
        <ele>2059.8</ele>
        <time>2022-01-16T08:36:57Z</time>
      </trkpt>
      <trkpt lat="45.2044" lon="6.01489">
        <ele>2060.8</ele>
        <time>2022-01-16T08:37:00Z</time>
      </trkpt>
      <trkpt lat="45.20442" lon="6.01485">
        <ele>2061.4</ele>
        <time>2022-01-16T08:37:03Z</time>
      </trkpt>
      <trkpt lat="45.20442" lon="6.01484">
        <ele>2061.8</ele>
        <time>2022-01-16T08:37:04Z</time>
      </trkpt>
      <trkpt lat="45.20444" lon="6.01481">
        <ele>2062.4</ele>
        <time>2022-01-16T08:37:07Z</time>
      </trkpt>
      <trkpt lat="45.20444" lon="6.01478">
        <ele>2063</ele>
        <time>2022-01-16T08:37:09Z</time>
      </trkpt>
      <trkpt lat="45.20444" lon="6.01477">
        <ele>2064</ele>
        <time>2022-01-16T08:37:10Z</time>
      </trkpt>
      <trkpt lat="45.20445" lon="6.01476">
        <ele>2064</ele>
        <time>2022-01-16T08:37:11Z</time>
      </trkpt>
      <trkpt lat="45.20446" lon="6.01475">
        <ele>2064</ele>
        <time>2022-01-16T08:37:12Z</time>
      </trkpt>
      <trkpt lat="45.20447" lon="6.01472">
        <ele>2065</ele>
        <time>2022-01-16T08:37:15Z</time>
      </trkpt>
      <trkpt lat="45.20448" lon="6.0147">
        <ele>2065.8</ele>
        <time>2022-01-16T08:37:17Z</time>
      </trkpt>
      <trkpt lat="45.20449" lon="6.01469">
        <ele>2066.6</ele>
        <time>2022-01-16T08:37:18Z</time>
      </trkpt>
      <trkpt lat="45.2045" lon="6.01467">
        <ele>2067.2</ele>
        <time>2022-01-16T08:37:21Z</time>
      </trkpt>
      <trkpt lat="45.20451" lon="6.01466">
        <ele>2068.8</ele>
        <time>2022-01-16T08:37:23Z</time>
      </trkpt>
      <trkpt lat="45.20451" lon="6.01466">
        <ele>2068.8</ele>
        <time>2022-01-16T08:37:25Z</time>
      </trkpt>
      <trkpt lat="45.20451" lon="6.01466">
        <ele>2069</ele>
        <time>2022-01-16T08:37:27Z</time>
      </trkpt>
      <trkpt lat="45.20449" lon="6.01465">
        <ele>2070.2</ele>
        <time>2022-01-16T08:37:29Z</time>
      </trkpt>
      <trkpt lat="45.20446" lon="6.01464">
        <ele>2070.6</ele>
        <time>2022-01-16T08:37:32Z</time>
      </trkpt>
      <trkpt lat="45.20444" lon="6.01464">
        <ele>2071.4</ele>
        <time>2022-01-16T08:37:35Z</time>
      </trkpt>
      <trkpt lat="45.20441" lon="6.01462">
        <ele>2072.6</ele>
        <time>2022-01-16T08:37:39Z</time>
      </trkpt>
      <trkpt lat="45.2044" lon="6.01461">
        <ele>2072.8</ele>
        <time>2022-01-16T08:37:40Z</time>
      </trkpt>
      <trkpt lat="45.20438" lon="6.01456">
        <ele>2073.6</ele>
        <time>2022-01-16T08:37:44Z</time>
      </trkpt>
      <trkpt lat="45.20437" lon="6.01455">
        <ele>2074.8</ele>
        <time>2022-01-16T08:37:45Z</time>
      </trkpt>
      <trkpt lat="45.20437" lon="6.01451">
        <ele>2074.2</ele>
        <time>2022-01-16T08:37:47Z</time>
      </trkpt>
      <trkpt lat="45.20437" lon="6.01448">
        <ele>2075.4</ele>
        <time>2022-01-16T08:37:50Z</time>
      </trkpt>
      <trkpt lat="45.20436" lon="6.01443">
        <ele>2075.8</ele>
        <time>2022-01-16T08:37:54Z</time>
      </trkpt>
      <trkpt lat="45.20435" lon="6.01441">
        <ele>2075.8</ele>
        <time>2022-01-16T08:37:56Z</time>
      </trkpt>
      <trkpt lat="45.20434" lon="6.01436">
        <ele>2077</ele>
        <time>2022-01-16T08:38:00Z</time>
      </trkpt>
      <trkpt lat="45.20434" lon="6.01433">
        <ele>2077.6</ele>
        <time>2022-01-16T08:38:02Z</time>
      </trkpt>
      <trkpt lat="45.20434" lon="6.01432">
        <ele>2078</ele>
        <time>2022-01-16T08:38:03Z</time>
      </trkpt>
      <trkpt lat="45.20434" lon="6.01422">
        <ele>2079.2</ele>
        <time>2022-01-16T08:38:09Z</time>
      </trkpt>
      <trkpt lat="45.20434" lon="6.01417">
        <ele>2079.2</ele>
        <time>2022-01-16T08:38:12Z</time>
      </trkpt>
      <trkpt lat="45.20434" lon="6.01407">
        <ele>2080</ele>
        <time>2022-01-16T08:38:18Z</time>
      </trkpt>
      <trkpt lat="45.20434" lon="6.01406">
        <ele>2080.4</ele>
        <time>2022-01-16T08:38:19Z</time>
      </trkpt>
      <trkpt lat="45.20434" lon="6.01402">
        <ele>2081</ele>
        <time>2022-01-16T08:38:21Z</time>
      </trkpt>
      <trkpt lat="45.20433" lon="6.01396">
        <ele>2081.8</ele>
        <time>2022-01-16T08:38:25Z</time>
      </trkpt>
      <trkpt lat="45.20431" lon="6.01388">
        <ele>2082.2</ele>
        <time>2022-01-16T08:38:30Z</time>
      </trkpt>
      <trkpt lat="45.2043" lon="6.01387">
        <ele>2082</ele>
        <time>2022-01-16T08:38:31Z</time>
      </trkpt>
      <trkpt lat="45.20428" lon="6.01383">
        <ele>2082.8</ele>
        <time>2022-01-16T08:38:34Z</time>
      </trkpt>
      <trkpt lat="45.20425" lon="6.01379">
        <ele>2083.8</ele>
        <time>2022-01-16T08:38:38Z</time>
      </trkpt>
      <trkpt lat="45.20425" lon="6.01379">
        <ele>2084.2</ele>
        <time>2022-01-16T08:38:39Z</time>
      </trkpt>
      <trkpt lat="45.20422" lon="6.01377">
        <ele>2085</ele>
        <time>2022-01-16T08:38:42Z</time>
      </trkpt>
      <trkpt lat="45.20421" lon="6.01376">
        <ele>2085.2</ele>
        <time>2022-01-16T08:38:43Z</time>
      </trkpt>
      <trkpt lat="45.2042" lon="6.01374">
        <ele>2086.4</ele>
        <time>2022-01-16T08:38:45Z</time>
      </trkpt>
      <trkpt lat="45.20417" lon="6.01369">
        <ele>2086.4</ele>
        <time>2022-01-16T08:38:49Z</time>
      </trkpt>
      <trkpt lat="45.20414" lon="6.0136">
        <ele>2087</ele>
        <time>2022-01-16T08:38:55Z</time>
      </trkpt>
      <trkpt lat="45.20413" lon="6.01357">
        <ele>2087.8</ele>
        <time>2022-01-16T08:38:57Z</time>
      </trkpt>
      <trkpt lat="45.20413" lon="6.01355">
        <ele>2088.4</ele>
        <time>2022-01-16T08:38:58Z</time>
      </trkpt>
      <trkpt lat="45.20412" lon="6.01349">
        <ele>2089</ele>
        <time>2022-01-16T08:39:02Z</time>
      </trkpt>
      <trkpt lat="45.20412" lon="6.01344">
        <ele>2090.2</ele>
        <time>2022-01-16T08:39:05Z</time>
      </trkpt>
      <trkpt lat="45.20411" lon="6.01338">
        <ele>2090.8</ele>
        <time>2022-01-16T08:39:09Z</time>
      </trkpt>
      <trkpt lat="45.20411" lon="6.01336">
        <ele>2091.8</ele>
        <time>2022-01-16T08:39:10Z</time>
      </trkpt>
      <trkpt lat="45.2041" lon="6.01331">
        <ele>2092</ele>
        <time>2022-01-16T08:39:13Z</time>
      </trkpt>
      <trkpt lat="45.20409" lon="6.01325">
        <ele>2093</ele>
        <time>2022-01-16T08:39:17Z</time>
      </trkpt>
      <trkpt lat="45.20408" lon="6.01318">
        <ele>2093.6</ele>
        <time>2022-01-16T08:39:21Z</time>
      </trkpt>
      <trkpt lat="45.20406" lon="6.01309">
        <ele>2094</ele>
        <time>2022-01-16T08:39:27Z</time>
      </trkpt>
      <trkpt lat="45.20404" lon="6.01306">
        <ele>2094.6</ele>
        <time>2022-01-16T08:39:29Z</time>
      </trkpt>
      <trkpt lat="45.20404" lon="6.01303">
        <ele>2094.6</ele>
        <time>2022-01-16T08:39:31Z</time>
      </trkpt>
      <trkpt lat="45.20405" lon="6.01293">
        <ele>2095.6</ele>
        <time>2022-01-16T08:39:37Z</time>
      </trkpt>
      <trkpt lat="45.20405" lon="6.01291">
        <ele>2095.8</ele>
        <time>2022-01-16T08:39:38Z</time>
      </trkpt>
      <trkpt lat="45.20405" lon="6.0129">
        <ele>2095.8</ele>
        <time>2022-01-16T08:39:39Z</time>
      </trkpt>
      <trkpt lat="45.20405" lon="6.01288">
        <ele>2096.6</ele>
        <time>2022-01-16T08:39:40Z</time>
      </trkpt>
      <trkpt lat="45.20405" lon="6.01287">
        <ele>2096.8</ele>
        <time>2022-01-16T08:39:41Z</time>
      </trkpt>
      <trkpt lat="45.20405" lon="6.01286">
        <ele>2097.2</ele>
        <time>2022-01-16T08:39:42Z</time>
      </trkpt>
      <trkpt lat="45.20404" lon="6.01284">
        <ele>2098.4</ele>
        <time>2022-01-16T08:39:44Z</time>
      </trkpt>
      <trkpt lat="45.20404" lon="6.01283">
        <ele>2098.4</ele>
        <time>2022-01-16T08:39:45Z</time>
      </trkpt>
      <trkpt lat="45.20403" lon="6.01283">
        <ele>2098.6</ele>
        <time>2022-01-16T08:39:46Z</time>
      </trkpt>
      <trkpt lat="45.20401" lon="6.0128">
        <ele>2099.6</ele>
        <time>2022-01-16T08:39:49Z</time>
      </trkpt>
      <trkpt lat="45.204" lon="6.01279">
        <ele>2100</ele>
        <time>2022-01-16T08:39:51Z</time>
      </trkpt>
      <trkpt lat="45.204" lon="6.01278">
        <ele>2100.2</ele>
        <time>2022-01-16T08:39:52Z</time>
      </trkpt>
      <trkpt lat="45.20399" lon="6.01275">
        <ele>2101</ele>
        <time>2022-01-16T08:39:55Z</time>
      </trkpt>
      <trkpt lat="45.20397" lon="6.01269">
        <ele>2102.4</ele>
        <time>2022-01-16T08:39:59Z</time>
      </trkpt>
      <trkpt lat="45.20396" lon="6.01267">
        <ele>2102.4</ele>
        <time>2022-01-16T08:40:01Z</time>
      </trkpt>
      <trkpt lat="45.20395" lon="6.0126">
        <ele>2103.6</ele>
        <time>2022-01-16T08:40:05Z</time>
      </trkpt>
      <trkpt lat="45.20393" lon="6.01254">
        <ele>2104.6</ele>
        <time>2022-01-16T08:40:10Z</time>
      </trkpt>
      <trkpt lat="45.20393" lon="6.01253">
        <ele>2105.4</ele>
        <time>2022-01-16T08:40:11Z</time>
      </trkpt>
      <trkpt lat="45.2039" lon="6.01246">
        <ele>2106.2</ele>
        <time>2022-01-16T08:40:17Z</time>
      </trkpt>
      <trkpt lat="45.2039" lon="6.01245">
        <ele>2106.6</ele>
        <time>2022-01-16T08:40:18Z</time>
      </trkpt>
      <trkpt lat="45.2039" lon="6.01244">
        <ele>2106.8</ele>
        <time>2022-01-16T08:40:19Z</time>
      </trkpt>
      <trkpt lat="45.20388" lon="6.01238">
        <ele>2107.6</ele>
        <time>2022-01-16T08:40:23Z</time>
      </trkpt>
      <trkpt lat="45.20387" lon="6.01236">
        <ele>2108.6</ele>
        <time>2022-01-16T08:40:25Z</time>
      </trkpt>
      <trkpt lat="45.20386" lon="6.01231">
        <ele>2109.2</ele>
        <time>2022-01-16T08:40:29Z</time>
      </trkpt>
      <trkpt lat="45.20385" lon="6.0123">
        <ele>2109.6</ele>
        <time>2022-01-16T08:40:30Z</time>
      </trkpt>
      <trkpt lat="45.20385" lon="6.0123">
        <ele>2110</ele>
        <time>2022-01-16T08:40:31Z</time>
      </trkpt>
      <trkpt lat="45.20383" lon="6.01227">
        <ele>2110.6</ele>
        <time>2022-01-16T08:40:34Z</time>
      </trkpt>
      <trkpt lat="45.20382" lon="6.01223">
        <ele>2111.2</ele>
        <time>2022-01-16T08:40:37Z</time>
      </trkpt>
      <trkpt lat="45.20382" lon="6.01222">
        <ele>2111.2</ele>
        <time>2022-01-16T08:40:38Z</time>
      </trkpt>
      <trkpt lat="45.20384" lon="6.01216">
        <ele>2112</ele>
        <time>2022-01-16T08:40:42Z</time>
      </trkpt>
      <trkpt lat="45.20385" lon="6.01214">
        <ele>2112.8</ele>
        <time>2022-01-16T08:40:44Z</time>
      </trkpt>
      <trkpt lat="45.20386" lon="6.01211">
        <ele>2112.8</ele>
        <time>2022-01-16T08:40:46Z</time>
      </trkpt>
      <trkpt lat="45.20387" lon="6.0121">
        <ele>2113.6</ele>
        <time>2022-01-16T08:40:48Z</time>
      </trkpt>
      <trkpt lat="45.20388" lon="6.0121">
        <ele>2113.6</ele>
        <time>2022-01-16T08:40:49Z</time>
      </trkpt>
      <trkpt lat="45.20391" lon="6.01211">
        <ele>2114.2</ele>
        <time>2022-01-16T08:40:51Z</time>
      </trkpt>
      <trkpt lat="45.20393" lon="6.01212">
        <ele>2115.2</ele>
        <time>2022-01-16T08:40:56Z</time>
      </trkpt>
      <trkpt lat="45.20398" lon="6.01214">
        <ele>2116.4</ele>
        <time>2022-01-16T08:41:01Z</time>
      </trkpt>
      <trkpt lat="45.204" lon="6.01215">
        <ele>2117</ele>
        <time>2022-01-16T08:41:04Z</time>
      </trkpt>
      <trkpt lat="45.20402" lon="6.01216">
        <ele>2117.4</ele>
        <time>2022-01-16T08:41:06Z</time>
      </trkpt>
      <trkpt lat="45.20405" lon="6.01217">
        <ele>2119</ele>
        <time>2022-01-16T08:41:11Z</time>
      </trkpt>
      <trkpt lat="45.20405" lon="6.01215">
        <ele>2120.4</ele>
        <time>2022-01-16T08:41:16Z</time>
      </trkpt>
      <trkpt lat="45.20404" lon="6.01214">
        <ele>2120.8</ele>
        <time>2022-01-16T08:41:17Z</time>
      </trkpt>
      <trkpt lat="45.20403" lon="6.01212">
        <ele>2121</ele>
        <time>2022-01-16T08:41:19Z</time>
      </trkpt>
      <trkpt lat="45.20402" lon="6.01207">
        <ele>2121.6</ele>
        <time>2022-01-16T08:41:22Z</time>
      </trkpt>
      <trkpt lat="45.20401" lon="6.01205">
        <ele>2121.8</ele>
        <time>2022-01-16T08:41:24Z</time>
      </trkpt>
      <trkpt lat="45.204" lon="6.01199">
        <ele>2123</ele>
        <time>2022-01-16T08:41:28Z</time>
      </trkpt>
      <trkpt lat="45.20398" lon="6.01196">
        <ele>2123.4</ele>
        <time>2022-01-16T08:41:31Z</time>
      </trkpt>
      <trkpt lat="45.20398" lon="6.01194">
        <ele>2124</ele>
        <time>2022-01-16T08:41:33Z</time>
      </trkpt>
      <trkpt lat="45.20396" lon="6.0119">
        <ele>2124.8</ele>
        <time>2022-01-16T08:41:37Z</time>
      </trkpt>
      <trkpt lat="45.20396" lon="6.01189">
        <ele>2125</ele>
        <time>2022-01-16T08:41:38Z</time>
      </trkpt>
      <trkpt lat="45.20394" lon="6.01184">
        <ele>2126.2</ele>
        <time>2022-01-16T08:41:42Z</time>
      </trkpt>
      <trkpt lat="45.20392" lon="6.01181">
        <ele>2127.2</ele>
        <time>2022-01-16T08:41:46Z</time>
      </trkpt>
      <trkpt lat="45.20389" lon="6.01178">
        <ele>2128.2</ele>
        <time>2022-01-16T08:41:51Z</time>
      </trkpt>
      <trkpt lat="45.20389" lon="6.01176">
        <ele>2128.2</ele>
        <time>2022-01-16T08:41:53Z</time>
      </trkpt>
      <trkpt lat="45.20388" lon="6.01172">
        <ele>2129.2</ele>
        <time>2022-01-16T08:41:55Z</time>
      </trkpt>
      <trkpt lat="45.20388" lon="6.01171">
        <ele>2129.4</ele>
        <time>2022-01-16T08:41:56Z</time>
      </trkpt>
      <trkpt lat="45.20389" lon="6.01168">
        <ele>2129.6</ele>
        <time>2022-01-16T08:41:59Z</time>
      </trkpt>
      <trkpt lat="45.2039" lon="6.01165">
        <ele>2130.6</ele>
        <time>2022-01-16T08:42:02Z</time>
      </trkpt>
      <trkpt lat="45.2039" lon="6.01162">
        <ele>2131.6</ele>
        <time>2022-01-16T08:42:05Z</time>
      </trkpt>
      <trkpt lat="45.2039" lon="6.01161">
        <ele>2131.8</ele>
        <time>2022-01-16T08:42:06Z</time>
      </trkpt>
      <trkpt lat="45.20391" lon="6.01158">
        <ele>2132.8</ele>
        <time>2022-01-16T08:42:09Z</time>
      </trkpt>
      <trkpt lat="45.2039" lon="6.01153">
        <ele>2134</ele>
        <time>2022-01-16T08:42:13Z</time>
      </trkpt>
      <trkpt lat="45.20389" lon="6.01149">
        <ele>2134.8</ele>
        <time>2022-01-16T08:42:17Z</time>
      </trkpt>
      <trkpt lat="45.20389" lon="6.01148">
        <ele>2135.2</ele>
        <time>2022-01-16T08:42:18Z</time>
      </trkpt>
      <trkpt lat="45.20387" lon="6.01143">
        <ele>2136.4</ele>
        <time>2022-01-16T08:42:22Z</time>
      </trkpt>
      <trkpt lat="45.20384" lon="6.01138">
        <ele>2137.6</ele>
        <time>2022-01-16T08:42:28Z</time>
      </trkpt>
      <trkpt lat="45.20384" lon="6.01136">
        <ele>2137.8</ele>
        <time>2022-01-16T08:42:29Z</time>
      </trkpt>
      <trkpt lat="45.20382" lon="6.01132">
        <ele>2138.8</ele>
        <time>2022-01-16T08:42:33Z</time>
      </trkpt>
      <trkpt lat="45.20381" lon="6.01132">
        <ele>2139.2</ele>
        <time>2022-01-16T08:42:34Z</time>
      </trkpt>
      <trkpt lat="45.2038" lon="6.01129">
        <ele>2139.8</ele>
        <time>2022-01-16T08:42:37Z</time>
      </trkpt>
      <trkpt lat="45.20379" lon="6.01128">
        <ele>2140</ele>
        <time>2022-01-16T08:42:38Z</time>
      </trkpt>
      <trkpt lat="45.2038" lon="6.01123">
        <ele>2141</ele>
        <time>2022-01-16T08:42:42Z</time>
      </trkpt>
      <trkpt lat="45.20381" lon="6.01122">
        <ele>2141</ele>
        <time>2022-01-16T08:42:43Z</time>
      </trkpt>
      <trkpt lat="45.20382" lon="6.01119">
        <ele>2141.8</ele>
        <time>2022-01-16T08:42:46Z</time>
      </trkpt>
      <trkpt lat="45.20383" lon="6.01118">
        <ele>2142.6</ele>
        <time>2022-01-16T08:42:47Z</time>
      </trkpt>
      <trkpt lat="45.20383" lon="6.01115">
        <ele>2143.4</ele>
        <time>2022-01-16T08:42:51Z</time>
      </trkpt>
      <trkpt lat="45.20382" lon="6.01114">
        <ele>2143.8</ele>
        <time>2022-01-16T08:42:52Z</time>
      </trkpt>
      <trkpt lat="45.2038" lon="6.01112">
        <ele>2145</ele>
        <time>2022-01-16T08:42:57Z</time>
      </trkpt>
      <trkpt lat="45.20378" lon="6.01111">
        <ele>2145.4</ele>
        <time>2022-01-16T08:43:00Z</time>
      </trkpt>
      <trkpt lat="45.20377" lon="6.0111">
        <ele>2146.6</ele>
        <time>2022-01-16T08:43:02Z</time>
      </trkpt>
      <trkpt lat="45.20377" lon="6.01105">
        <ele>2147.4</ele>
        <time>2022-01-16T08:43:06Z</time>
      </trkpt>
      <trkpt lat="45.20377" lon="6.01104">
        <ele>2147.6</ele>
        <time>2022-01-16T08:43:07Z</time>
      </trkpt>
      <trkpt lat="45.2038" lon="6.011">
        <ele>2149</ele>
        <time>2022-01-16T08:43:11Z</time>
      </trkpt>
      <trkpt lat="45.2038" lon="6.01099">
        <ele>2149.2</ele>
        <time>2022-01-16T08:43:12Z</time>
      </trkpt>
      <trkpt lat="45.20381" lon="6.01097">
        <ele>2150</ele>
        <time>2022-01-16T08:43:14Z</time>
      </trkpt>
      <trkpt lat="45.20381" lon="6.01096">
        <ele>2150</ele>
        <time>2022-01-16T08:43:15Z</time>
      </trkpt>
      <trkpt lat="45.20383" lon="6.01093">
        <ele>2150.6</ele>
        <time>2022-01-16T08:43:18Z</time>
      </trkpt>
      <trkpt lat="45.20384" lon="6.01091">
        <ele>2151.2</ele>
        <time>2022-01-16T08:43:20Z</time>
      </trkpt>
      <trkpt lat="45.20386" lon="6.01089">
        <ele>2152</ele>
        <time>2022-01-16T08:43:24Z</time>
      </trkpt>
      <trkpt lat="45.20387" lon="6.01087">
        <ele>2152.8</ele>
        <time>2022-01-16T08:43:26Z</time>
      </trkpt>
      <trkpt lat="45.20388" lon="6.01087">
        <ele>2153</ele>
        <time>2022-01-16T08:43:27Z</time>
      </trkpt>
      <trkpt lat="45.20388" lon="6.01087">
        <ele>2153</ele>
        <time>2022-01-16T08:43:28Z</time>
      </trkpt>
      <trkpt lat="45.2039" lon="6.01086">
        <ele>2153.8</ele>
        <time>2022-01-16T08:43:31Z</time>
      </trkpt>
      <trkpt lat="45.20391" lon="6.01086">
        <ele>2155</ele>
        <time>2022-01-16T08:43:35Z</time>
      </trkpt>
      <trkpt lat="45.20391" lon="6.01085">
        <ele>2155.2</ele>
        <time>2022-01-16T08:43:36Z</time>
      </trkpt>
      <trkpt lat="45.2039" lon="6.01082">
        <ele>2156.6</ele>
        <time>2022-01-16T08:43:39Z</time>
      </trkpt>
      <trkpt lat="45.20389" lon="6.01077">
        <ele>2157.2</ele>
        <time>2022-01-16T08:43:43Z</time>
      </trkpt>
      <trkpt lat="45.20389" lon="6.01074">
        <ele>2157.8</ele>
        <time>2022-01-16T08:43:45Z</time>
      </trkpt>
      <trkpt lat="45.20388" lon="6.0107">
        <ele>2158.8</ele>
        <time>2022-01-16T08:43:49Z</time>
      </trkpt>
      <trkpt lat="45.20388" lon="6.01066">
        <ele>2159.4</ele>
        <time>2022-01-16T08:43:52Z</time>
      </trkpt>
      <trkpt lat="45.20387" lon="6.01064">
        <ele>2160</ele>
        <time>2022-01-16T08:43:54Z</time>
      </trkpt>
      <trkpt lat="45.20385" lon="6.01056">
        <ele>2160.8</ele>
        <time>2022-01-16T08:44:00Z</time>
      </trkpt>
      <trkpt lat="45.20384" lon="6.01054">
        <ele>2161</ele>
        <time>2022-01-16T08:44:01Z</time>
      </trkpt>
      <trkpt lat="45.20384" lon="6.01053">
        <ele>2161.4</ele>
        <time>2022-01-16T08:44:02Z</time>
      </trkpt>
      <trkpt lat="45.20384" lon="6.01043">
        <ele>2162.4</ele>
        <time>2022-01-16T08:44:08Z</time>
      </trkpt>
      <trkpt lat="45.20385" lon="6.01041">
        <ele>2162.6</ele>
        <time>2022-01-16T08:44:09Z</time>
      </trkpt>
      <trkpt lat="45.20385" lon="6.0104">
        <ele>2162.8</ele>
        <time>2022-01-16T08:44:10Z</time>
      </trkpt>
      <trkpt lat="45.20386" lon="6.01031">
        <ele>2163.8</ele>
        <time>2022-01-16T08:44:16Z</time>
      </trkpt>
      <trkpt lat="45.20385" lon="6.01029">
        <ele>2164</ele>
        <time>2022-01-16T08:44:18Z</time>
      </trkpt>
      <trkpt lat="45.20384" lon="6.01028">
        <ele>2164.2</ele>
        <time>2022-01-16T08:44:19Z</time>
      </trkpt>
      <trkpt lat="45.20381" lon="6.01026">
        <ele>2165.6</ele>
        <time>2022-01-16T08:44:23Z</time>
      </trkpt>
      <trkpt lat="45.20377" lon="6.01023">
        <ele>2166.2</ele>
        <time>2022-01-16T08:44:27Z</time>
      </trkpt>
      <trkpt lat="45.20376" lon="6.01022">
        <ele>2166.2</ele>
        <time>2022-01-16T08:44:28Z</time>
      </trkpt>
      <trkpt lat="45.20376" lon="6.01021">
        <ele>2166.8</ele>
        <time>2022-01-16T08:44:29Z</time>
      </trkpt>
      <trkpt lat="45.20372" lon="6.01012">
        <ele>2167.4</ele>
        <time>2022-01-16T08:44:35Z</time>
      </trkpt>
      <trkpt lat="45.20371" lon="6.01008">
        <ele>2168</ele>
        <time>2022-01-16T08:44:38Z</time>
      </trkpt>
      <trkpt lat="45.20368" lon="6.00999">
        <ele>2168.8</ele>
        <time>2022-01-16T08:44:44Z</time>
      </trkpt>
      <trkpt lat="45.20368" lon="6.00998">
        <ele>2169</ele>
        <time>2022-01-16T08:44:45Z</time>
      </trkpt>
      <trkpt lat="45.20367" lon="6.00996">
        <ele>2169.4</ele>
        <time>2022-01-16T08:44:46Z</time>
      </trkpt>
      <trkpt lat="45.20366" lon="6.00992">
        <ele>2170.6</ele>
        <time>2022-01-16T08:44:50Z</time>
      </trkpt>
      <trkpt lat="45.20365" lon="6.00989">
        <ele>2171.2</ele>
        <time>2022-01-16T08:44:52Z</time>
      </trkpt>
      <trkpt lat="45.20364" lon="6.00987">
        <ele>2171.8</ele>
        <time>2022-01-16T08:44:55Z</time>
      </trkpt>
      <trkpt lat="45.20363" lon="6.00984">
        <ele>2173</ele>
        <time>2022-01-16T08:44:58Z</time>
      </trkpt>
      <trkpt lat="45.20362" lon="6.00982">
        <ele>2173.8</ele>
        <time>2022-01-16T08:45:00Z</time>
      </trkpt>
      <trkpt lat="45.20361" lon="6.0098">
        <ele>2174</ele>
        <time>2022-01-16T08:45:02Z</time>
      </trkpt>
      <trkpt lat="45.20358" lon="6.00974">
        <ele>2175.2</ele>
        <time>2022-01-16T08:45:08Z</time>
      </trkpt>
      <trkpt lat="45.20356" lon="6.00972">
        <ele>2176.4</ele>
        <time>2022-01-16T08:45:10Z</time>
      </trkpt>
      <trkpt lat="45.20353" lon="6.00967">
        <ele>2177.8</ele>
        <time>2022-01-16T08:45:15Z</time>
      </trkpt>
      <trkpt lat="45.20352" lon="6.00965">
        <ele>2178</ele>
        <time>2022-01-16T08:45:17Z</time>
      </trkpt>
      <trkpt lat="45.20351" lon="6.00962">
        <ele>2179.2</ele>
        <time>2022-01-16T08:45:20Z</time>
      </trkpt>
      <trkpt lat="45.20348" lon="6.00956">
        <ele>2181</ele>
        <time>2022-01-16T08:45:26Z</time>
      </trkpt>
      <trkpt lat="45.20347" lon="6.00955">
        <ele>2181</ele>
        <time>2022-01-16T08:45:27Z</time>
      </trkpt>
      <trkpt lat="45.20345" lon="6.0095">
        <ele>2182.2</ele>
        <time>2022-01-16T08:45:31Z</time>
      </trkpt>
      <trkpt lat="45.20345" lon="6.00945">
        <ele>2183.2</ele>
        <time>2022-01-16T08:45:35Z</time>
      </trkpt>
      <trkpt lat="45.20344" lon="6.00943">
        <ele>2183.4</ele>
        <time>2022-01-16T08:45:37Z</time>
      </trkpt>
      <trkpt lat="45.20343" lon="6.00942">
        <ele>2184.4</ele>
        <time>2022-01-16T08:45:39Z</time>
      </trkpt>
      <trkpt lat="45.20343" lon="6.0094">
        <ele>2185.6</ele>
        <time>2022-01-16T08:45:41Z</time>
      </trkpt>
      <trkpt lat="45.20342" lon="6.00936">
        <ele>2186</ele>
        <time>2022-01-16T08:45:45Z</time>
      </trkpt>
      <trkpt lat="45.20341" lon="6.00932">
        <ele>2187</ele>
        <time>2022-01-16T08:45:48Z</time>
      </trkpt>
      <trkpt lat="45.20338" lon="6.00923">
        <ele>2188.2</ele>
        <time>2022-01-16T08:45:54Z</time>
      </trkpt>
      <trkpt lat="45.20335" lon="6.00914">
        <ele>2189.2</ele>
        <time>2022-01-16T08:46:00Z</time>
      </trkpt>
      <trkpt lat="45.20335" lon="6.00912">
        <ele>2189.8</ele>
        <time>2022-01-16T08:46:01Z</time>
      </trkpt>
      <trkpt lat="45.20334" lon="6.00909">
        <ele>2190</ele>
        <time>2022-01-16T08:46:03Z</time>
      </trkpt>
      <trkpt lat="45.20334" lon="6.00907">
        <ele>2191</ele>
        <time>2022-01-16T08:46:05Z</time>
      </trkpt>
      <trkpt lat="45.20333" lon="6.00901">
        <ele>2192</ele>
        <time>2022-01-16T08:46:10Z</time>
      </trkpt>
      <trkpt lat="45.20333" lon="6.009">
        <ele>2192.4</ele>
        <time>2022-01-16T08:46:11Z</time>
      </trkpt>
      <trkpt lat="45.20333" lon="6.00896">
        <ele>2192.6</ele>
        <time>2022-01-16T08:46:14Z</time>
      </trkpt>
      <trkpt lat="45.20333" lon="6.00894">
        <ele>2193.2</ele>
        <time>2022-01-16T08:46:15Z</time>
      </trkpt>
      <trkpt lat="45.20332" lon="6.00887">
        <ele>2194.4</ele>
        <time>2022-01-16T08:46:19Z</time>
      </trkpt>
      <trkpt lat="45.20332" lon="6.00883">
        <ele>2195.6</ele>
        <time>2022-01-16T08:46:24Z</time>
      </trkpt>
      <trkpt lat="45.20331" lon="6.00879">
        <ele>2196.6</ele>
        <time>2022-01-16T08:46:27Z</time>
      </trkpt>
      <trkpt lat="45.20331" lon="6.00873">
        <ele>2197.8</ele>
        <time>2022-01-16T08:46:32Z</time>
      </trkpt>
      <trkpt lat="45.2033" lon="6.00865">
        <ele>2198.6</ele>
        <time>2022-01-16T08:46:37Z</time>
      </trkpt>
      <trkpt lat="45.2033" lon="6.00864">
        <ele>2199.2</ele>
        <time>2022-01-16T08:46:38Z</time>
      </trkpt>
      <trkpt lat="45.2033" lon="6.00859">
        <ele>2200.2</ele>
        <time>2022-01-16T08:46:42Z</time>
      </trkpt>
      <trkpt lat="45.20329" lon="6.00854">
        <ele>2200.8</ele>
        <time>2022-01-16T08:46:46Z</time>
      </trkpt>
      <trkpt lat="45.20329" lon="6.00851">
        <ele>2201.4</ele>
        <time>2022-01-16T08:46:48Z</time>
      </trkpt>
      <trkpt lat="45.2033" lon="6.00843">
        <ele>2202</ele>
        <time>2022-01-16T08:46:53Z</time>
      </trkpt>
      <trkpt lat="45.2033" lon="6.00839">
        <ele>2202.4</ele>
        <time>2022-01-16T08:46:55Z</time>
      </trkpt>
      <trkpt lat="45.20328" lon="6.00831">
        <ele>2202.6</ele>
        <time>2022-01-16T08:47:01Z</time>
      </trkpt>
      <trkpt lat="45.20327" lon="6.0083">
        <ele>2204</ele>
        <time>2022-01-16T08:47:03Z</time>
      </trkpt>
      <trkpt lat="45.20324" lon="6.00827">
        <ele>2205</ele>
        <time>2022-01-16T08:47:07Z</time>
      </trkpt>
      <trkpt lat="45.20321" lon="6.00825">
        <ele>2205.6</ele>
        <time>2022-01-16T08:47:10Z</time>
      </trkpt>
      <trkpt lat="45.2032" lon="6.00824">
        <ele>2206.2</ele>
        <time>2022-01-16T08:47:11Z</time>
      </trkpt>
      <trkpt lat="45.20317" lon="6.00821">
        <ele>2206.6</ele>
        <time>2022-01-16T08:47:15Z</time>
      </trkpt>
      <trkpt lat="45.20315" lon="6.00819">
        <ele>2207.2</ele>
        <time>2022-01-16T08:47:17Z</time>
      </trkpt>
      <trkpt lat="45.20314" lon="6.00819">
        <ele>2207.8</ele>
        <time>2022-01-16T08:47:18Z</time>
      </trkpt>
      <trkpt lat="45.20311" lon="6.00815">
        <ele>2208.4</ele>
        <time>2022-01-16T08:47:22Z</time>
      </trkpt>
      <trkpt lat="45.20308" lon="6.00813">
        <ele>2209.2</ele>
        <time>2022-01-16T08:47:25Z</time>
      </trkpt>
      <trkpt lat="45.20308" lon="6.00813">
        <ele>2209.4</ele>
        <time>2022-01-16T08:47:26Z</time>
      </trkpt>
      <trkpt lat="45.20304" lon="6.00812">
        <ele>2211</ele>
        <time>2022-01-16T08:47:31Z</time>
      </trkpt>
      <trkpt lat="45.20302" lon="6.0081">
        <ele>2211</ele>
        <time>2022-01-16T08:47:33Z</time>
      </trkpt>
      <trkpt lat="45.20301" lon="6.00809">
        <ele>2211.2</ele>
        <time>2022-01-16T08:47:34Z</time>
      </trkpt>
      <trkpt lat="45.20301" lon="6.00803">
        <ele>2212</ele>
        <time>2022-01-16T08:47:38Z</time>
      </trkpt>
      <trkpt lat="45.203" lon="6.00798">
        <ele>2212.8</ele>
        <time>2022-01-16T08:47:42Z</time>
      </trkpt>
      <trkpt lat="45.203" lon="6.00796">
        <ele>2213.6</ele>
        <time>2022-01-16T08:47:44Z</time>
      </trkpt>
      <trkpt lat="45.20299" lon="6.00792">
        <ele>2214.6</ele>
        <time>2022-01-16T08:47:48Z</time>
      </trkpt>
      <trkpt lat="45.20298" lon="6.00789">
        <ele>2215</ele>
        <time>2022-01-16T08:47:50Z</time>
      </trkpt>
      <trkpt lat="45.20297" lon="6.00787">
        <ele>2215.8</ele>
        <time>2022-01-16T08:47:52Z</time>
      </trkpt>
      <trkpt lat="45.20295" lon="6.00781">
        <ele>2216.8</ele>
        <time>2022-01-16T08:47:57Z</time>
      </trkpt>
      <trkpt lat="45.20294" lon="6.00779">
        <ele>2216.8</ele>
        <time>2022-01-16T08:47:59Z</time>
      </trkpt>
      <trkpt lat="45.20291" lon="6.00775">
        <ele>2218</ele>
        <time>2022-01-16T08:48:03Z</time>
      </trkpt>
      <trkpt lat="45.2029" lon="6.00774">
        <ele>2218.4</ele>
        <time>2022-01-16T08:48:04Z</time>
      </trkpt>
      <trkpt lat="45.20287" lon="6.00773">
        <ele>2218.8</ele>
        <time>2022-01-16T08:48:07Z</time>
      </trkpt>
      <trkpt lat="45.20286" lon="6.00773">
        <ele>2219</ele>
        <time>2022-01-16T08:48:08Z</time>
      </trkpt>
      <trkpt lat="45.20283" lon="6.00771">
        <ele>2219.4</ele>
        <time>2022-01-16T08:48:11Z</time>
      </trkpt>
      <trkpt lat="45.20282" lon="6.00769">
        <ele>2220.2</ele>
        <time>2022-01-16T08:48:13Z</time>
      </trkpt>
      <trkpt lat="45.2028" lon="6.00768">
        <ele>2221</ele>
        <time>2022-01-16T08:48:15Z</time>
      </trkpt>
      <trkpt lat="45.2028" lon="6.00768">
        <ele>2221.6</ele>
        <time>2022-01-16T08:48:16Z</time>
      </trkpt>
      <trkpt lat="45.20279" lon="6.00765">
        <ele>2222.2</ele>
        <time>2022-01-16T08:48:18Z</time>
      </trkpt>
      <trkpt lat="45.20279" lon="6.00759">
        <ele>2222.4</ele>
        <time>2022-01-16T08:48:21Z</time>
      </trkpt>
      <trkpt lat="45.20279" lon="6.00756">
        <ele>2222.8</ele>
        <time>2022-01-16T08:48:23Z</time>
      </trkpt>
      <trkpt lat="45.2028" lon="6.00753">
        <ele>2223.8</ele>
        <time>2022-01-16T08:48:26Z</time>
      </trkpt>
      <trkpt lat="45.2028" lon="6.0075">
        <ele>2224.2</ele>
        <time>2022-01-16T08:48:29Z</time>
      </trkpt>
      <trkpt lat="45.2028" lon="6.00746">
        <ele>2225.6</ele>
        <time>2022-01-16T08:48:32Z</time>
      </trkpt>
      <trkpt lat="45.2028" lon="6.00744">
        <ele>2226</ele>
        <time>2022-01-16T08:48:35Z</time>
      </trkpt>
      <trkpt lat="45.20281" lon="6.00741">
        <ele>2227.4</ele>
        <time>2022-01-16T08:48:38Z</time>
      </trkpt>
      <trkpt lat="45.20279" lon="6.00735">
        <ele>2228.4</ele>
        <time>2022-01-16T08:48:43Z</time>
      </trkpt>
      <trkpt lat="45.20278" lon="6.00726">
        <ele>2229.4</ele>
        <time>2022-01-16T08:48:49Z</time>
      </trkpt>
      <trkpt lat="45.20278" lon="6.00726">
        <ele>2229.6</ele>
        <time>2022-01-16T08:48:50Z</time>
      </trkpt>
      <trkpt lat="45.20277" lon="6.00723">
        <ele>2230.4</ele>
        <time>2022-01-16T08:48:52Z</time>
      </trkpt>
      <trkpt lat="45.20276" lon="6.00721">
        <ele>2231</ele>
        <time>2022-01-16T08:48:54Z</time>
      </trkpt>
      <trkpt lat="45.20275" lon="6.00716">
        <ele>2232.2</ele>
        <time>2022-01-16T08:48:58Z</time>
      </trkpt>
      <trkpt lat="45.20274" lon="6.00711">
        <ele>2233</ele>
        <time>2022-01-16T08:49:02Z</time>
      </trkpt>
      <trkpt lat="45.20273" lon="6.00709">
        <ele>2233.6</ele>
        <time>2022-01-16T08:49:04Z</time>
      </trkpt>
      <trkpt lat="45.20271" lon="6.00707">
        <ele>2234.2</ele>
        <time>2022-01-16T08:49:07Z</time>
      </trkpt>
      <trkpt lat="45.2027" lon="6.00704">
        <ele>2235</ele>
        <time>2022-01-16T08:49:10Z</time>
      </trkpt>
      <trkpt lat="45.20271" lon="6.00703">
        <ele>2235.2</ele>
        <time>2022-01-16T08:49:11Z</time>
      </trkpt>
      <trkpt lat="45.20271" lon="6.00702">
        <ele>2235.2</ele>
        <time>2022-01-16T08:49:12Z</time>
      </trkpt>
      <trkpt lat="45.20272" lon="6.00699">
        <ele>2236.2</ele>
        <time>2022-01-16T08:49:15Z</time>
      </trkpt>
      <trkpt lat="45.20272" lon="6.00696">
        <ele>2236.2</ele>
        <time>2022-01-16T08:49:17Z</time>
      </trkpt>
      <trkpt lat="45.20273" lon="6.00691">
        <ele>2237.4</ele>
        <time>2022-01-16T08:49:20Z</time>
      </trkpt>
      <trkpt lat="45.20273" lon="6.00688">
        <ele>2238.2</ele>
        <time>2022-01-16T08:49:23Z</time>
      </trkpt>
      <trkpt lat="45.20273" lon="6.00688">
        <ele>2239</ele>
        <time>2022-01-16T08:49:24Z</time>
      </trkpt>
      <trkpt lat="45.20272" lon="6.00686">
        <ele>2239.4</ele>
        <time>2022-01-16T08:49:26Z</time>
      </trkpt>
      <trkpt lat="45.20272" lon="6.00684">
        <ele>2240.6</ele>
        <time>2022-01-16T08:49:28Z</time>
      </trkpt>
      <trkpt lat="45.20271" lon="6.00683">
        <ele>2240.8</ele>
        <time>2022-01-16T08:49:29Z</time>
      </trkpt>
      <trkpt lat="45.20271" lon="6.00682">
        <ele>2240.8</ele>
        <time>2022-01-16T08:49:30Z</time>
      </trkpt>
      <trkpt lat="45.2027" lon="6.00679">
        <ele>2241.8</ele>
        <time>2022-01-16T08:49:34Z</time>
      </trkpt>
      <trkpt lat="45.20269" lon="6.00677">
        <ele>2242.6</ele>
        <time>2022-01-16T08:49:37Z</time>
      </trkpt>
      <trkpt lat="45.20269" lon="6.00676">
        <ele>2243</ele>
        <time>2022-01-16T08:49:38Z</time>
      </trkpt>
      <trkpt lat="45.20268" lon="6.00667">
        <ele>2244.2</ele>
        <time>2022-01-16T08:49:44Z</time>
      </trkpt>
      <trkpt lat="45.20268" lon="6.00665">
        <ele>2244.8</ele>
        <time>2022-01-16T08:49:46Z</time>
      </trkpt>
      <trkpt lat="45.20268" lon="6.00663">
        <ele>2245.2</ele>
        <time>2022-01-16T08:49:48Z</time>
      </trkpt>
      <trkpt lat="45.20268" lon="6.00657">
        <ele>2246.4</ele>
        <time>2022-01-16T08:49:54Z</time>
      </trkpt>
      <trkpt lat="45.20268" lon="6.00655">
        <ele>2246.8</ele>
        <time>2022-01-16T08:49:56Z</time>
      </trkpt>
      <trkpt lat="45.20268" lon="6.00652">
        <ele>2247.6</ele>
        <time>2022-01-16T08:49:58Z</time>
      </trkpt>
      <trkpt lat="45.20268" lon="6.00648">
        <ele>2248.6</ele>
        <time>2022-01-16T08:50:01Z</time>
      </trkpt>
      <trkpt lat="45.20269" lon="6.00647">
        <ele>2248.8</ele>
        <time>2022-01-16T08:50:02Z</time>
      </trkpt>
      <trkpt lat="45.20269" lon="6.00645">
        <ele>2249</ele>
        <time>2022-01-16T08:50:03Z</time>
      </trkpt>
      <trkpt lat="45.20269" lon="6.00642">
        <ele>2250</ele>
        <time>2022-01-16T08:50:05Z</time>
      </trkpt>
      <trkpt lat="45.20269" lon="6.00635">
        <ele>2250.8</ele>
        <time>2022-01-16T08:50:09Z</time>
      </trkpt>
      <trkpt lat="45.2027" lon="6.00631">
        <ele>2251.2</ele>
        <time>2022-01-16T08:50:12Z</time>
      </trkpt>
      <trkpt lat="45.20272" lon="6.00628">
        <ele>2252</ele>
        <time>2022-01-16T08:50:15Z</time>
      </trkpt>
      <trkpt lat="45.20272" lon="6.00626">
        <ele>2252.2</ele>
        <time>2022-01-16T08:50:17Z</time>
      </trkpt>
      <trkpt lat="45.20273" lon="6.00622">
        <ele>2253</ele>
        <time>2022-01-16T08:50:19Z</time>
      </trkpt>
      <trkpt lat="45.20274" lon="6.00618">
        <ele>2254</ele>
        <time>2022-01-16T08:50:22Z</time>
      </trkpt>
      <trkpt lat="45.20277" lon="6.00614">
        <ele>2255</ele>
        <time>2022-01-16T08:50:26Z</time>
      </trkpt>
      <trkpt lat="45.20277" lon="6.0061">
        <ele>2256.2</ele>
        <time>2022-01-16T08:50:31Z</time>
      </trkpt>
      <trkpt lat="45.20278" lon="6.00605">
        <ele>2257.2</ele>
        <time>2022-01-16T08:50:35Z</time>
      </trkpt>
      <trkpt lat="45.2028" lon="6.00602">
        <ele>2258.4</ele>
        <time>2022-01-16T08:50:39Z</time>
      </trkpt>
      <trkpt lat="45.2028" lon="6.00598">
        <ele>2259.4</ele>
        <time>2022-01-16T08:50:42Z</time>
      </trkpt>
      <trkpt lat="45.20281" lon="6.00597">
        <ele>2259.6</ele>
        <time>2022-01-16T08:50:43Z</time>
      </trkpt>
      <trkpt lat="45.20282" lon="6.00592">
        <ele>2260.6</ele>
        <time>2022-01-16T08:50:47Z</time>
      </trkpt>
      <trkpt lat="45.20283" lon="6.0059">
        <ele>2261.6</ele>
        <time>2022-01-16T08:50:50Z</time>
      </trkpt>
      <trkpt lat="45.20283" lon="6.00588">
        <ele>2262.2</ele>
        <time>2022-01-16T08:50:52Z</time>
      </trkpt>
      <trkpt lat="45.20284" lon="6.00583">
        <ele>2263</ele>
        <time>2022-01-16T08:50:56Z</time>
      </trkpt>
      <trkpt lat="45.20285" lon="6.00583">
        <ele>2263.4</ele>
        <time>2022-01-16T08:50:57Z</time>
      </trkpt>
      <trkpt lat="45.20285" lon="6.00579">
        <ele>2264.6</ele>
        <time>2022-01-16T08:51:01Z</time>
      </trkpt>
      <trkpt lat="45.20286" lon="6.00575">
        <ele>2265</ele>
        <time>2022-01-16T08:51:04Z</time>
      </trkpt>
      <trkpt lat="45.20286" lon="6.00571">
        <ele>2265.6</ele>
        <time>2022-01-16T08:51:08Z</time>
      </trkpt>
      <trkpt lat="45.20287" lon="6.00568">
        <ele>2266.6</ele>
        <time>2022-01-16T08:51:11Z</time>
      </trkpt>
      <trkpt lat="45.20287" lon="6.00567">
        <ele>2266.8</ele>
        <time>2022-01-16T08:51:12Z</time>
      </trkpt>
      <trkpt lat="45.20286" lon="6.00561">
        <ele>2267.8</ele>
        <time>2022-01-16T08:51:17Z</time>
      </trkpt>
      <trkpt lat="45.20288" lon="6.00556">
        <ele>2269</ele>
        <time>2022-01-16T08:51:21Z</time>
      </trkpt>
      <trkpt lat="45.20287" lon="6.00552">
        <ele>2270</ele>
        <time>2022-01-16T08:51:24Z</time>
      </trkpt>
      <trkpt lat="45.20288" lon="6.00549">
        <ele>2271.2</ele>
        <time>2022-01-16T08:51:28Z</time>
      </trkpt>
      <trkpt lat="45.20288" lon="6.00547">
        <ele>2271.2</ele>
        <time>2022-01-16T08:51:29Z</time>
      </trkpt>
      <trkpt lat="45.20288" lon="6.00543">
        <ele>2272.2</ele>
        <time>2022-01-16T08:51:33Z</time>
      </trkpt>
      <trkpt lat="45.20288" lon="6.0054">
        <ele>2272.8</ele>
        <time>2022-01-16T08:51:37Z</time>
      </trkpt>
      <trkpt lat="45.20288" lon="6.00539">
        <ele>2273.2</ele>
        <time>2022-01-16T08:51:38Z</time>
      </trkpt>
      <trkpt lat="45.20288" lon="6.00538">
        <ele>2273.2</ele>
        <time>2022-01-16T08:51:39Z</time>
      </trkpt>
      <trkpt lat="45.20288" lon="6.00536">
        <ele>2274.4</ele>
        <time>2022-01-16T08:51:42Z</time>
      </trkpt>
      <trkpt lat="45.20288" lon="6.0053">
        <ele>2275.2</ele>
        <time>2022-01-16T08:51:47Z</time>
      </trkpt>
      <trkpt lat="45.20288" lon="6.00529">
        <ele>2275.8</ele>
        <time>2022-01-16T08:51:48Z</time>
      </trkpt>
      <trkpt lat="45.20288" lon="6.00523">
        <ele>2277.2</ele>
        <time>2022-01-16T08:51:54Z</time>
      </trkpt>
      <trkpt lat="45.20289" lon="6.00523">
        <ele>2277.6</ele>
        <time>2022-01-16T08:51:59Z</time>
      </trkpt>
      <trkpt lat="45.20293" lon="6.00525">
        <ele>2277.8</ele>
        <time>2022-01-16T08:52:05Z</time>
      </trkpt>
      <trkpt lat="45.20293" lon="6.00527">
        <ele>2278.2</ele>
        <time>2022-01-16T08:52:08Z</time>
      </trkpt>
      <trkpt lat="45.20293" lon="6.00528">
        <ele>2278.8</ele>
        <time>2022-01-16T08:52:12Z</time>
      </trkpt>
      <trkpt lat="45.20292" lon="6.00528">
        <ele>2278.6</ele>
        <time>2022-01-16T08:52:15Z</time>
      </trkpt>
      <trkpt lat="45.20293" lon="6.00528">
        <ele>2278.6</ele>
        <time>2022-01-16T08:52:18Z</time>
      </trkpt>
      <trkpt lat="45.20293" lon="6.00528">
        <ele>2278.4</ele>
        <time>2022-01-16T08:52:21Z</time>
      </trkpt>
      <trkpt lat="45.20293" lon="6.00528">
        <ele>2278.6</ele>
        <time>2022-01-16T08:52:27Z</time>
      </trkpt>
      <trkpt lat="45.20293" lon="6.00528">
        <ele>2278.8</ele>
        <time>2022-01-16T08:52:32Z</time>
      </trkpt>
      <trkpt lat="45.20294" lon="6.00528">
        <ele>2278.8</ele>
        <time>2022-01-16T08:52:38Z</time>
      </trkpt>
      <trkpt lat="45.20295" lon="6.00529">
        <ele>2279.6</ele>
        <time>2022-01-16T08:52:42Z</time>
      </trkpt>
      <trkpt lat="45.20299" lon="6.0053">
        <ele>2280.4</ele>
        <time>2022-01-16T08:52:45Z</time>
      </trkpt>
      <trkpt lat="45.203" lon="6.00531">
        <ele>2280.6</ele>
        <time>2022-01-16T08:52:46Z</time>
      </trkpt>
      <trkpt lat="45.20301" lon="6.00532">
        <ele>2281</ele>
        <time>2022-01-16T08:52:47Z</time>
      </trkpt>
      <trkpt lat="45.20301" lon="6.00531">
        <ele>2281.4</ele>
        <time>2022-01-16T08:52:50Z</time>
      </trkpt>
      <trkpt lat="45.20301" lon="6.0053">
        <ele>2282.2</ele>
        <time>2022-01-16T08:52:52Z</time>
      </trkpt>
      <trkpt lat="45.20298" lon="6.00522">
        <ele>2284</ele>
        <time>2022-01-16T08:52:57Z</time>
      </trkpt>
      <trkpt lat="45.20298" lon="6.00521">
        <ele>2284.4</ele>
        <time>2022-01-16T08:52:58Z</time>
      </trkpt>
      <trkpt lat="45.20296" lon="6.00512">
        <ele>2284.8</ele>
        <time>2022-01-16T08:53:04Z</time>
      </trkpt>
      <trkpt lat="45.20295" lon="6.00509">
        <ele>2285.2</ele>
        <time>2022-01-16T08:53:06Z</time>
      </trkpt>
      <trkpt lat="45.20295" lon="6.00506">
        <ele>2286</ele>
        <time>2022-01-16T08:53:09Z</time>
      </trkpt>
      <trkpt lat="45.20295" lon="6.00501">
        <ele>2286.8</ele>
        <time>2022-01-16T08:53:14Z</time>
      </trkpt>
      <trkpt lat="45.20295" lon="6.00497">
        <ele>2287.4</ele>
        <time>2022-01-16T08:53:17Z</time>
      </trkpt>
      <trkpt lat="45.20295" lon="6.00494">
        <ele>2288.4</ele>
        <time>2022-01-16T08:53:19Z</time>
      </trkpt>
      <trkpt lat="45.20295" lon="6.00489">
        <ele>2289.6</ele>
        <time>2022-01-16T08:53:23Z</time>
      </trkpt>
      <trkpt lat="45.20295" lon="6.00486">
        <ele>2290.6</ele>
        <time>2022-01-16T08:53:26Z</time>
      </trkpt>
      <trkpt lat="45.20295" lon="6.00485">
        <ele>2290.8</ele>
        <time>2022-01-16T08:53:27Z</time>
      </trkpt>
      <trkpt lat="45.20295" lon="6.0048">
        <ele>2292</ele>
        <time>2022-01-16T08:53:32Z</time>
      </trkpt>
      <trkpt lat="45.20296" lon="6.00478">
        <ele>2292.8</ele>
        <time>2022-01-16T08:53:35Z</time>
      </trkpt>
      <trkpt lat="45.20296" lon="6.00477">
        <ele>2293</ele>
        <time>2022-01-16T08:53:36Z</time>
      </trkpt>
      <trkpt lat="45.20297" lon="6.00473">
        <ele>2294.2</ele>
        <time>2022-01-16T08:53:40Z</time>
      </trkpt>
      <trkpt lat="45.20297" lon="6.00468">
        <ele>2295.4</ele>
        <time>2022-01-16T08:53:44Z</time>
      </trkpt>
      <trkpt lat="45.20297" lon="6.00467">
        <ele>2295.4</ele>
        <time>2022-01-16T08:53:47Z</time>
      </trkpt>
      <trkpt lat="45.20297" lon="6.00467">
        <ele>2295.8</ele>
        <time>2022-01-16T08:53:49Z</time>
      </trkpt>
      <trkpt lat="45.20296" lon="6.00466">
        <ele>2296</ele>
        <time>2022-01-16T08:53:55Z</time>
      </trkpt>
      <trkpt lat="45.20296" lon="6.00466">
        <ele>2296</ele>
        <time>2022-01-16T08:53:56Z</time>
      </trkpt>
      <trkpt lat="45.20295" lon="6.00467">
        <ele>2295.8</ele>
        <time>2022-01-16T08:54:02Z</time>
      </trkpt>
      <trkpt lat="45.20295" lon="6.00467">
        <ele>2295.8</ele>
        <time>2022-01-16T08:54:03Z</time>
      </trkpt>
      <trkpt lat="45.20295" lon="6.00467">
        <ele>2295.6</ele>
        <time>2022-01-16T08:54:09Z</time>
      </trkpt>
      <trkpt lat="45.20295" lon="6.00467">
        <ele>2295.6</ele>
        <time>2022-01-16T08:54:13Z</time>
      </trkpt>
      <trkpt lat="45.20295" lon="6.00467">
        <ele>2295.6</ele>
        <time>2022-01-16T08:54:14Z</time>
      </trkpt>
      <trkpt lat="45.20295" lon="6.00467">
        <ele>2296</ele>
        <time>2022-01-16T08:54:16Z</time>
      </trkpt>
      <trkpt lat="45.20296" lon="6.00467">
        <ele>2296</ele>
        <time>2022-01-16T08:54:18Z</time>
      </trkpt>
      <trkpt lat="45.20296" lon="6.00467">
        <ele>2296</ele>
        <time>2022-01-16T08:54:20Z</time>
      </trkpt>
      <trkpt lat="45.20296" lon="6.00467">
        <ele>2296</ele>
        <time>2022-01-16T08:54:22Z</time>
      </trkpt>
      <trkpt lat="45.20296" lon="6.00467">
        <ele>2296</ele>
        <time>2022-01-16T08:54:23Z</time>
      </trkpt>
      <trkpt lat="45.20296" lon="6.00467">
        <ele>2295.8</ele>
        <time>2022-01-16T08:54:29Z</time>
      </trkpt>
      <trkpt lat="45.20297" lon="6.00466">
        <ele>2295.8</ele>
        <time>2022-01-16T08:54:31Z</time>
      </trkpt>
      <trkpt lat="45.20297" lon="6.00465">
        <ele>2295.8</ele>
        <time>2022-01-16T08:54:32Z</time>
      </trkpt>
      <trkpt lat="45.20297" lon="6.00465">
        <ele>2295.8</ele>
        <time>2022-01-16T08:54:33Z</time>
      </trkpt>
      <trkpt lat="45.20297" lon="6.00465">
        <ele>2295.8</ele>
        <time>2022-01-16T08:54:34Z</time>
      </trkpt>
      <trkpt lat="45.20297" lon="6.00465">
        <ele>2295.8</ele>
        <time>2022-01-16T08:54:35Z</time>
      </trkpt>
      <trkpt lat="45.20297" lon="6.00465">
        <ele>2295.8</ele>
        <time>2022-01-16T08:54:37Z</time>
      </trkpt>
      <trkpt lat="45.20297" lon="6.00465">
        <ele>2295.8</ele>
        <time>2022-01-16T08:54:38Z</time>
      </trkpt>
      <trkpt lat="45.20297" lon="6.00465">
        <ele>2295.8</ele>
        <time>2022-01-16T08:54:39Z</time>
      </trkpt>
      <trkpt lat="45.20297" lon="6.00465">
        <ele>2295.6</ele>
        <time>2022-01-16T08:54:45Z</time>
      </trkpt>
      <trkpt lat="45.20297" lon="6.00465">
        <ele>2295.6</ele>
        <time>2022-01-16T08:54:47Z</time>
      </trkpt>
      <trkpt lat="45.20297" lon="6.00465">
        <ele>2295.6</ele>
        <time>2022-01-16T08:54:48Z</time>
      </trkpt>
      <trkpt lat="45.20297" lon="6.00465">
        <ele>2295.6</ele>
        <time>2022-01-16T08:54:49Z</time>
      </trkpt>
      <trkpt lat="45.20297" lon="6.00465">
        <ele>2295.6</ele>
        <time>2022-01-16T08:54:50Z</time>
      </trkpt>
      <trkpt lat="45.20297" lon="6.00466">
        <ele>2295.8</ele>
        <time>2022-01-16T08:54:53Z</time>
      </trkpt>
      <trkpt lat="45.20297" lon="6.00466">
        <ele>2295.2</ele>
        <time>2022-01-16T08:54:55Z</time>
      </trkpt>
      <trkpt lat="45.20297" lon="6.00466">
        <ele>2295.2</ele>
        <time>2022-01-16T08:54:57Z</time>
      </trkpt>
      <trkpt lat="45.20298" lon="6.00467">
        <ele>2295.2</ele>
        <time>2022-01-16T08:55:01Z</time>
      </trkpt>
      <trkpt lat="45.20298" lon="6.00467">
        <ele>2295.2</ele>
        <time>2022-01-16T08:55:05Z</time>
      </trkpt>
      <trkpt lat="45.20298" lon="6.00467">
        <ele>2295.2</ele>
        <time>2022-01-16T08:55:11Z</time>
      </trkpt>
      <trkpt lat="45.20298" lon="6.00465">
        <ele>2295.2</ele>
        <time>2022-01-16T08:55:17Z</time>
      </trkpt>
      <trkpt lat="45.20298" lon="6.00463">
        <ele>2295.2</ele>
        <time>2022-01-16T08:55:22Z</time>
      </trkpt>
      <trkpt lat="45.20298" lon="6.00463">
        <ele>2295.2</ele>
        <time>2022-01-16T08:55:28Z</time>
      </trkpt>
      <trkpt lat="45.20298" lon="6.00463">
        <ele>2295.2</ele>
        <time>2022-01-16T08:55:32Z</time>
      </trkpt>
      <trkpt lat="45.20297" lon="6.00461">
        <ele>2295.2</ele>
        <time>2022-01-16T08:55:38Z</time>
      </trkpt>
      <trkpt lat="45.20297" lon="6.0046">
        <ele>2295.2</ele>
        <time>2022-01-16T08:55:40Z</time>
      </trkpt>
      <trkpt lat="45.20297" lon="6.0046">
        <ele>2295.2</ele>
        <time>2022-01-16T08:55:44Z</time>
      </trkpt>
      <trkpt lat="45.20297" lon="6.0046">
        <ele>2295.2</ele>
        <time>2022-01-16T08:55:48Z</time>
      </trkpt>
      <trkpt lat="45.20297" lon="6.0046">
        <ele>2295.2</ele>
        <time>2022-01-16T08:55:49Z</time>
      </trkpt>
      <trkpt lat="45.20297" lon="6.0046">
        <ele>2295.2</ele>
        <time>2022-01-16T08:55:53Z</time>
      </trkpt>
      <trkpt lat="45.20297" lon="6.0046">
        <ele>2295.2</ele>
        <time>2022-01-16T08:55:56Z</time>
      </trkpt>
      <trkpt lat="45.20296" lon="6.00457">
        <ele>2295.2</ele>
        <time>2022-01-16T08:56:00Z</time>
      </trkpt>
      <trkpt lat="45.20295" lon="6.00456">
        <ele>2295.2</ele>
        <time>2022-01-16T08:56:06Z</time>
      </trkpt>
      <trkpt lat="45.20294" lon="6.00456">
        <ele>2295.2</ele>
        <time>2022-01-16T08:56:12Z</time>
      </trkpt>
      <trkpt lat="45.20295" lon="6.00453">
        <ele>2295.2</ele>
        <time>2022-01-16T08:56:17Z</time>
      </trkpt>
      <trkpt lat="45.20295" lon="6.00449">
        <ele>2295.2</ele>
        <time>2022-01-16T08:56:20Z</time>
      </trkpt>
      <trkpt lat="45.20295" lon="6.00443">
        <ele>2296.6</ele>
        <time>2022-01-16T08:56:24Z</time>
      </trkpt>
      <trkpt lat="45.20295" lon="6.00439">
        <ele>2297</ele>
        <time>2022-01-16T08:56:27Z</time>
      </trkpt>
      <trkpt lat="45.20294" lon="6.00436">
        <ele>2297.4</ele>
        <time>2022-01-16T08:56:29Z</time>
      </trkpt>
      <trkpt lat="45.20295" lon="6.00436">
        <ele>2298</ele>
        <time>2022-01-16T08:56:30Z</time>
      </trkpt>
      <trkpt lat="45.20294" lon="6.00434">
        <ele>2298.4</ele>
        <time>2022-01-16T08:56:32Z</time>
      </trkpt>
      <trkpt lat="45.20294" lon="6.00432">
        <ele>2298.8</ele>
        <time>2022-01-16T08:56:35Z</time>
      </trkpt>
      <trkpt lat="45.20294" lon="6.0043">
        <ele>2299.4</ele>
        <time>2022-01-16T08:56:36Z</time>
      </trkpt>
      <trkpt lat="45.20294" lon="6.00427">
        <ele>2300</ele>
        <time>2022-01-16T08:56:39Z</time>
      </trkpt>
      <trkpt lat="45.20294" lon="6.00426">
        <ele>2300.4</ele>
        <time>2022-01-16T08:56:40Z</time>
      </trkpt>
      <trkpt lat="45.20293" lon="6.00424">
        <ele>2300.8</ele>
        <time>2022-01-16T08:56:42Z</time>
      </trkpt>
      <trkpt lat="45.20292" lon="6.00422">
        <ele>2301.8</ele>
        <time>2022-01-16T08:56:45Z</time>
      </trkpt>
      <trkpt lat="45.20291" lon="6.00419">
        <ele>2302.6</ele>
        <time>2022-01-16T08:56:49Z</time>
      </trkpt>
      <trkpt lat="45.20291" lon="6.00418">
        <ele>2302.8</ele>
        <time>2022-01-16T08:56:50Z</time>
      </trkpt>
      <trkpt lat="45.20291" lon="6.00417">
        <ele>2303.4</ele>
        <time>2022-01-16T08:56:51Z</time>
      </trkpt>
      <trkpt lat="45.2029" lon="6.00416">
        <ele>2304.4</ele>
        <time>2022-01-16T08:56:53Z</time>
      </trkpt>
      <trkpt lat="45.20289" lon="6.00414">
        <ele>2304.6</ele>
        <time>2022-01-16T08:56:56Z</time>
      </trkpt>
      <trkpt lat="45.20289" lon="6.00411">
        <ele>2305.2</ele>
        <time>2022-01-16T08:56:59Z</time>
      </trkpt>
      <trkpt lat="45.20289" lon="6.00409">
        <ele>2305.6</ele>
        <time>2022-01-16T08:57:01Z</time>
      </trkpt>
      <trkpt lat="45.20288" lon="6.00407">
        <ele>2307</ele>
        <time>2022-01-16T08:57:03Z</time>
      </trkpt>
      <trkpt lat="45.20288" lon="6.00399">
        <ele>2307.4</ele>
        <time>2022-01-16T08:57:09Z</time>
      </trkpt>
      <trkpt lat="45.20288" lon="6.00397">
        <ele>2308</ele>
        <time>2022-01-16T08:57:11Z</time>
      </trkpt>
      <trkpt lat="45.20288" lon="6.00394">
        <ele>2309.2</ele>
        <time>2022-01-16T08:57:14Z</time>
      </trkpt>
      <trkpt lat="45.20287" lon="6.00389">
        <ele>2310.4</ele>
        <time>2022-01-16T08:57:19Z</time>
      </trkpt>
      <trkpt lat="45.20288" lon="6.00387">
        <ele>2311</ele>
        <time>2022-01-16T08:57:22Z</time>
      </trkpt>
      <trkpt lat="45.20289" lon="6.00386">
        <ele>2311.6</ele>
        <time>2022-01-16T08:57:23Z</time>
      </trkpt>
      <trkpt lat="45.20287" lon="6.00386">
        <ele>2313</ele>
        <time>2022-01-16T08:57:27Z</time>
      </trkpt>
      <trkpt lat="45.20287" lon="6.00387">
        <ele>2313.4</ele>
        <time>2022-01-16T08:57:28Z</time>
      </trkpt>
      <trkpt lat="45.20285" lon="6.00388">
        <ele>2314.2</ele>
        <time>2022-01-16T08:57:31Z</time>
      </trkpt>
      <trkpt lat="45.20282" lon="6.00391">
        <ele>2315</ele>
        <time>2022-01-16T08:57:35Z</time>
      </trkpt>
      <trkpt lat="45.20281" lon="6.00391">
        <ele>2315.4</ele>
        <time>2022-01-16T08:57:36Z</time>
      </trkpt>
      <trkpt lat="45.20278" lon="6.00392">
        <ele>2316.6</ele>
        <time>2022-01-16T08:57:41Z</time>
      </trkpt>
      <trkpt lat="45.20276" lon="6.00392">
        <ele>2317.4</ele>
        <time>2022-01-16T08:57:43Z</time>
      </trkpt>
      <trkpt lat="45.20275" lon="6.00394">
        <ele>2317.6</ele>
        <time>2022-01-16T08:57:45Z</time>
      </trkpt>
      <trkpt lat="45.20271" lon="6.00395">
        <ele>2319.2</ele>
        <time>2022-01-16T08:57:49Z</time>
      </trkpt>
      <trkpt lat="45.20271" lon="6.00396">
        <ele>2319.2</ele>
        <time>2022-01-16T08:57:50Z</time>
      </trkpt>
      <trkpt lat="45.20266" lon="6.00397">
        <ele>2320.2</ele>
        <time>2022-01-16T08:57:55Z</time>
      </trkpt>
      <trkpt lat="45.20263" lon="6.00397">
        <ele>2321.2</ele>
        <time>2022-01-16T08:57:59Z</time>
      </trkpt>
      <trkpt lat="45.20258" lon="6.004">
        <ele>2322.2</ele>
        <time>2022-01-16T08:58:04Z</time>
      </trkpt>
      <trkpt lat="45.20257" lon="6.00398">
        <ele>2322.4</ele>
        <time>2022-01-16T08:58:06Z</time>
      </trkpt>
      <trkpt lat="45.20257" lon="6.00398">
        <ele>2322.6</ele>
        <time>2022-01-16T08:58:07Z</time>
      </trkpt>
      <trkpt lat="45.20257" lon="6.00392">
        <ele>2323.6</ele>
        <time>2022-01-16T08:58:11Z</time>
      </trkpt>
      <trkpt lat="45.20258" lon="6.00387">
        <ele>2324.6</ele>
        <time>2022-01-16T08:58:14Z</time>
      </trkpt>
      <trkpt lat="45.20258" lon="6.00386">
        <ele>2324.8</ele>
        <time>2022-01-16T08:58:15Z</time>
      </trkpt>
      <trkpt lat="45.20258" lon="6.0038">
        <ele>2325.6</ele>
        <time>2022-01-16T08:58:19Z</time>
      </trkpt>
      <trkpt lat="45.20259" lon="6.00379">
        <ele>2326.2</ele>
        <time>2022-01-16T08:58:20Z</time>
      </trkpt>
      <trkpt lat="45.20259" lon="6.00376">
        <ele>2326.8</ele>
        <time>2022-01-16T08:58:23Z</time>
      </trkpt>
      <trkpt lat="45.20259" lon="6.00376">
        <ele>2327.2</ele>
        <time>2022-01-16T08:58:24Z</time>
      </trkpt>
      <trkpt lat="45.20259" lon="6.0037">
        <ele>2328.4</ele>
        <time>2022-01-16T08:58:28Z</time>
      </trkpt>
      <trkpt lat="45.20259" lon="6.00367">
        <ele>2329</ele>
        <time>2022-01-16T08:58:30Z</time>
      </trkpt>
      <trkpt lat="45.20259" lon="6.00364">
        <ele>2329.8</ele>
        <time>2022-01-16T08:58:33Z</time>
      </trkpt>
      <trkpt lat="45.2026" lon="6.00362">
        <ele>2330.2</ele>
        <time>2022-01-16T08:58:35Z</time>
      </trkpt>
      <trkpt lat="45.2026" lon="6.00361">
        <ele>2331</ele>
        <time>2022-01-16T08:58:36Z</time>
      </trkpt>
      <trkpt lat="45.20261" lon="6.00358">
        <ele>2332</ele>
        <time>2022-01-16T08:58:39Z</time>
      </trkpt>
      <trkpt lat="45.20261" lon="6.00355">
        <ele>2332.2</ele>
        <time>2022-01-16T08:58:41Z</time>
      </trkpt>
      <trkpt lat="45.20262" lon="6.00353">
        <ele>2333.2</ele>
        <time>2022-01-16T08:58:43Z</time>
      </trkpt>
      <trkpt lat="45.20263" lon="6.00347">
        <ele>2334.4</ele>
        <time>2022-01-16T08:58:48Z</time>
      </trkpt>
      <trkpt lat="45.20263" lon="6.00346">
        <ele>2335.2</ele>
        <time>2022-01-16T08:58:49Z</time>
      </trkpt>
      <trkpt lat="45.20263" lon="6.00344">
        <ele>2335.6</ele>
        <time>2022-01-16T08:58:51Z</time>
      </trkpt>
      <trkpt lat="45.20263" lon="6.00344">
        <ele>2335.6</ele>
        <time>2022-01-16T08:58:52Z</time>
      </trkpt>
      <trkpt lat="45.20262" lon="6.00345">
        <ele>2336</ele>
        <time>2022-01-16T08:58:54Z</time>
      </trkpt>
      <trkpt lat="45.20262" lon="6.00347">
        <ele>2336.6</ele>
        <time>2022-01-16T08:58:57Z</time>
      </trkpt>
      <trkpt lat="45.2026" lon="6.00347">
        <ele>2337.6</ele>
        <time>2022-01-16T08:58:59Z</time>
      </trkpt>
      <trkpt lat="45.20258" lon="6.00347">
        <ele>2337.8</ele>
        <time>2022-01-16T08:59:01Z</time>
      </trkpt>
      <trkpt lat="45.20256" lon="6.00346">
        <ele>2338.6</ele>
        <time>2022-01-16T08:59:04Z</time>
      </trkpt>
      <trkpt lat="45.20256" lon="6.00346">
        <ele>2338.8</ele>
        <time>2022-01-16T08:59:05Z</time>
      </trkpt>
      <trkpt lat="45.20254" lon="6.00346">
        <ele>2339.4</ele>
        <time>2022-01-16T08:59:07Z</time>
      </trkpt>
      <trkpt lat="45.20252" lon="6.00344">
        <ele>2340</ele>
        <time>2022-01-16T08:59:10Z</time>
      </trkpt>
      <trkpt lat="45.20249" lon="6.00342">
        <ele>2341</ele>
        <time>2022-01-16T08:59:14Z</time>
      </trkpt>
      <trkpt lat="45.20245" lon="6.0034">
        <ele>2342.4</ele>
        <time>2022-01-16T08:59:20Z</time>
      </trkpt>
      <trkpt lat="45.20244" lon="6.00339">
        <ele>2342.6</ele>
        <time>2022-01-16T08:59:21Z</time>
      </trkpt>
      <trkpt lat="45.20243" lon="6.00339">
        <ele>2342.8</ele>
        <time>2022-01-16T08:59:22Z</time>
      </trkpt>
      <trkpt lat="45.20243" lon="6.00338">
        <ele>2342.8</ele>
        <time>2022-01-16T08:59:23Z</time>
      </trkpt>
      <trkpt lat="45.2024" lon="6.00336">
        <ele>2343.8</ele>
        <time>2022-01-16T08:59:27Z</time>
      </trkpt>
      <trkpt lat="45.20239" lon="6.00335">
        <ele>2344</ele>
        <time>2022-01-16T08:59:28Z</time>
      </trkpt>
      <trkpt lat="45.20236" lon="6.00333">
        <ele>2345</ele>
        <time>2022-01-16T08:59:33Z</time>
      </trkpt>
      <trkpt lat="45.20235" lon="6.00332">
        <ele>2345.2</ele>
        <time>2022-01-16T08:59:34Z</time>
      </trkpt>
      <trkpt lat="45.20235" lon="6.00331">
        <ele>2345.6</ele>
        <time>2022-01-16T08:59:35Z</time>
      </trkpt>
      <trkpt lat="45.20233" lon="6.0033">
        <ele>2345.8</ele>
        <time>2022-01-16T08:59:37Z</time>
      </trkpt>
      <trkpt lat="45.20233" lon="6.00329">
        <ele>2346.2</ele>
        <time>2022-01-16T08:59:38Z</time>
      </trkpt>
      <trkpt lat="45.2023" lon="6.00328">
        <ele>2346.4</ele>
        <time>2022-01-16T08:59:40Z</time>
      </trkpt>
      <trkpt lat="45.20229" lon="6.00328">
        <ele>2347</ele>
        <time>2022-01-16T08:59:42Z</time>
      </trkpt>
      <trkpt lat="45.20228" lon="6.00328">
        <ele>2347.4</ele>
        <time>2022-01-16T08:59:43Z</time>
      </trkpt>
      <trkpt lat="45.20227" lon="6.00327">
        <ele>2347.4</ele>
        <time>2022-01-16T08:59:44Z</time>
      </trkpt>
      <trkpt lat="45.20227" lon="6.00326">
        <ele>2347.8</ele>
        <time>2022-01-16T08:59:46Z</time>
      </trkpt>
      <trkpt lat="45.20227" lon="6.00325">
        <ele>2347.8</ele>
        <time>2022-01-16T08:59:47Z</time>
      </trkpt>
      <trkpt lat="45.20229" lon="6.00321">
        <ele>2348.4</ele>
        <time>2022-01-16T08:59:51Z</time>
      </trkpt>
      <trkpt lat="45.2023" lon="6.00318">
        <ele>2349</ele>
        <time>2022-01-16T08:59:54Z</time>
      </trkpt>
      <trkpt lat="45.20232" lon="6.00317">
        <ele>2349.6</ele>
        <time>2022-01-16T08:59:56Z</time>
      </trkpt>
      <trkpt lat="45.20234" lon="6.00313">
        <ele>2350.4</ele>
        <time>2022-01-16T08:59:59Z</time>
      </trkpt>
      <trkpt lat="45.20235" lon="6.00311">
        <ele>2351</ele>
        <time>2022-01-16T09:00:01Z</time>
      </trkpt>
      <trkpt lat="45.20235" lon="6.00309">
        <ele>2352</ele>
        <time>2022-01-16T09:00:04Z</time>
      </trkpt>
      <trkpt lat="45.20234" lon="6.00306">
        <ele>2352.8</ele>
        <time>2022-01-16T09:00:06Z</time>
      </trkpt>
      <trkpt lat="45.20235" lon="6.00304">
        <ele>2353.2</ele>
        <time>2022-01-16T09:00:08Z</time>
      </trkpt>
      <trkpt lat="45.20235" lon="6.00301">
        <ele>2354.4</ele>
        <time>2022-01-16T09:00:11Z</time>
      </trkpt>
      <trkpt lat="45.20235" lon="6.003">
        <ele>2354.4</ele>
        <time>2022-01-16T09:00:12Z</time>
      </trkpt>
      <trkpt lat="45.20235" lon="6.00295">
        <ele>2356</ele>
        <time>2022-01-16T09:00:17Z</time>
      </trkpt>
      <trkpt lat="45.20235" lon="6.00293">
        <ele>2356</ele>
        <time>2022-01-16T09:00:18Z</time>
      </trkpt>
      <trkpt lat="45.20235" lon="6.00291">
        <ele>2357.4</ele>
        <time>2022-01-16T09:00:21Z</time>
      </trkpt>
      <trkpt lat="45.20235" lon="6.00289">
        <ele>2357.8</ele>
        <time>2022-01-16T09:00:22Z</time>
      </trkpt>
      <trkpt lat="45.20235" lon="6.00287">
        <ele>2358.2</ele>
        <time>2022-01-16T09:00:24Z</time>
      </trkpt>
      <trkpt lat="45.20235" lon="6.00283">
        <ele>2358.6</ele>
        <time>2022-01-16T09:00:27Z</time>
      </trkpt>
      <trkpt lat="45.20234" lon="6.00275">
        <ele>2359.4</ele>
        <time>2022-01-16T09:00:33Z</time>
      </trkpt>
      <trkpt lat="45.20234" lon="6.00275">
        <ele>2360</ele>
        <time>2022-01-16T09:00:34Z</time>
      </trkpt>
      <trkpt lat="45.20234" lon="6.00273">
        <ele>2360.4</ele>
        <time>2022-01-16T09:00:35Z</time>
      </trkpt>
      <trkpt lat="45.20235" lon="6.00267">
        <ele>2361.2</ele>
        <time>2022-01-16T09:00:40Z</time>
      </trkpt>
      <trkpt lat="45.20235" lon="6.00264">
        <ele>2361.6</ele>
        <time>2022-01-16T09:00:42Z</time>
      </trkpt>
      <trkpt lat="45.20235" lon="6.0026">
        <ele>2362.4</ele>
        <time>2022-01-16T09:00:45Z</time>
      </trkpt>
      <trkpt lat="45.20235" lon="6.00253">
        <ele>2363.6</ele>
        <time>2022-01-16T09:00:50Z</time>
      </trkpt>
      <trkpt lat="45.20235" lon="6.00251">
        <ele>2363.6</ele>
        <time>2022-01-16T09:00:51Z</time>
      </trkpt>
      <trkpt lat="45.20235" lon="6.00247">
        <ele>2364.8</ele>
        <time>2022-01-16T09:00:55Z</time>
      </trkpt>
      <trkpt lat="45.20235" lon="6.00245">
        <ele>2365.2</ele>
        <time>2022-01-16T09:00:57Z</time>
      </trkpt>
      <trkpt lat="45.20236" lon="6.00243">
        <ele>2365.8</ele>
        <time>2022-01-16T09:00:59Z</time>
      </trkpt>
      <trkpt lat="45.20236" lon="6.0024">
        <ele>2367</ele>
        <time>2022-01-16T09:01:02Z</time>
      </trkpt>
      <trkpt lat="45.20237" lon="6.00238">
        <ele>2367.2</ele>
        <time>2022-01-16T09:01:04Z</time>
      </trkpt>
      <trkpt lat="45.20238" lon="6.00232">
        <ele>2368.2</ele>
        <time>2022-01-16T09:01:08Z</time>
      </trkpt>
      <trkpt lat="45.20238" lon="6.00231">
        <ele>2368.4</ele>
        <time>2022-01-16T09:01:09Z</time>
      </trkpt>
      <trkpt lat="45.20239" lon="6.00228">
        <ele>2369.2</ele>
        <time>2022-01-16T09:01:12Z</time>
      </trkpt>
      <trkpt lat="45.2024" lon="6.00224">
        <ele>2370.4</ele>
        <time>2022-01-16T09:01:16Z</time>
      </trkpt>
      <trkpt lat="45.20242" lon="6.00222">
        <ele>2371.2</ele>
        <time>2022-01-16T09:01:18Z</time>
      </trkpt>
      <trkpt lat="45.20243" lon="6.00221">
        <ele>2371.2</ele>
        <time>2022-01-16T09:01:19Z</time>
      </trkpt>
      <trkpt lat="45.20243" lon="6.00221">
        <ele>2371.6</ele>
        <time>2022-01-16T09:01:20Z</time>
      </trkpt>
      <trkpt lat="45.20244" lon="6.00221">
        <ele>2372</ele>
        <time>2022-01-16T09:01:22Z</time>
      </trkpt>
      <trkpt lat="45.20243" lon="6.00221">
        <ele>2372.6</ele>
        <time>2022-01-16T09:01:25Z</time>
      </trkpt>
      <trkpt lat="45.20241" lon="6.00222">
        <ele>2373.4</ele>
        <time>2022-01-16T09:01:27Z</time>
      </trkpt>
      <trkpt lat="45.20241" lon="6.00222">
        <ele>2373.8</ele>
        <time>2022-01-16T09:01:28Z</time>
      </trkpt>
      <trkpt lat="45.20238" lon="6.00221">
        <ele>2375</ele>
        <time>2022-01-16T09:01:33Z</time>
      </trkpt>
      <trkpt lat="45.20237" lon="6.00221">
        <ele>2375.2</ele>
        <time>2022-01-16T09:01:34Z</time>
      </trkpt>
      <trkpt lat="45.20234" lon="6.00222">
        <ele>2375.6</ele>
        <time>2022-01-16T09:01:37Z</time>
      </trkpt>
      <trkpt lat="45.20232" lon="6.00224">
        <ele>2376.2</ele>
        <time>2022-01-16T09:01:39Z</time>
      </trkpt>
      <trkpt lat="45.20229" lon="6.00227">
        <ele>2377.4</ele>
        <time>2022-01-16T09:01:43Z</time>
      </trkpt>
      <trkpt lat="45.20226" lon="6.00228">
        <ele>2377.8</ele>
        <time>2022-01-16T09:01:46Z</time>
      </trkpt>
      <trkpt lat="45.20227" lon="6.00223">
        <ele>2378.2</ele>
        <time>2022-01-16T09:01:50Z</time>
      </trkpt>
      <trkpt lat="45.20228" lon="6.00217">
        <ele>2378.4</ele>
        <time>2022-01-16T09:01:54Z</time>
      </trkpt>
      <trkpt lat="45.20228" lon="6.00211">
        <ele>2379.4</ele>
        <time>2022-01-16T09:01:58Z</time>
      </trkpt>
      <trkpt lat="45.20229" lon="6.00209">
        <ele>2379.8</ele>
        <time>2022-01-16T09:01:59Z</time>
      </trkpt>
      <trkpt lat="45.20229" lon="6.00207">
        <ele>2380.6</ele>
        <time>2022-01-16T09:02:01Z</time>
      </trkpt>
      <trkpt lat="45.20232" lon="6.00203">
        <ele>2381.2</ele>
        <time>2022-01-16T09:02:05Z</time>
      </trkpt>
      <trkpt lat="45.20232" lon="6.00202">
        <ele>2382</ele>
        <time>2022-01-16T09:02:06Z</time>
      </trkpt>
      <trkpt lat="45.20234" lon="6.00202">
        <ele>2382.2</ele>
        <time>2022-01-16T09:02:07Z</time>
      </trkpt>
      <trkpt lat="45.20235" lon="6.002">
        <ele>2383</ele>
        <time>2022-01-16T09:02:09Z</time>
      </trkpt>
      <trkpt lat="45.20236" lon="6.00199">
        <ele>2383.2</ele>
        <time>2022-01-16T09:02:10Z</time>
      </trkpt>
      <trkpt lat="45.20236" lon="6.00199">
        <ele>2383.8</ele>
        <time>2022-01-16T09:02:12Z</time>
      </trkpt>
      <trkpt lat="45.20236" lon="6.00199">
        <ele>2384.2</ele>
        <time>2022-01-16T09:02:13Z</time>
      </trkpt>
      <trkpt lat="45.20235" lon="6.00199">
        <ele>2385.2</ele>
        <time>2022-01-16T09:02:16Z</time>
      </trkpt>
      <trkpt lat="45.20233" lon="6.00198">
        <ele>2385.8</ele>
        <time>2022-01-16T09:02:18Z</time>
      </trkpt>
      <trkpt lat="45.20231" lon="6.00197">
        <ele>2386.4</ele>
        <time>2022-01-16T09:02:21Z</time>
      </trkpt>
      <trkpt lat="45.20228" lon="6.00197">
        <ele>2387.6</ele>
        <time>2022-01-16T09:02:25Z</time>
      </trkpt>
      <trkpt lat="45.20225" lon="6.00197">
        <ele>2388.8</ele>
        <time>2022-01-16T09:02:29Z</time>
      </trkpt>
      <trkpt lat="45.20223" lon="6.00199">
        <ele>2388.8</ele>
        <time>2022-01-16T09:02:31Z</time>
      </trkpt>
      <trkpt lat="45.20222" lon="6.00196">
        <ele>2389.2</ele>
        <time>2022-01-16T09:02:35Z</time>
      </trkpt>
      <trkpt lat="45.20223" lon="6.00189">
        <ele>2390.2</ele>
        <time>2022-01-16T09:02:40Z</time>
      </trkpt>
      <trkpt lat="45.20223" lon="6.00187">
        <ele>2390.6</ele>
        <time>2022-01-16T09:02:42Z</time>
      </trkpt>
      <trkpt lat="45.20224" lon="6.00184">
        <ele>2391.4</ele>
        <time>2022-01-16T09:02:44Z</time>
      </trkpt>
      <trkpt lat="45.20225" lon="6.00177">
        <ele>2392.8</ele>
        <time>2022-01-16T09:02:49Z</time>
      </trkpt>
      <trkpt lat="45.20226" lon="6.00174">
        <ele>2393.2</ele>
        <time>2022-01-16T09:02:51Z</time>
      </trkpt>
      <trkpt lat="45.20226" lon="6.00171">
        <ele>2394.4</ele>
        <time>2022-01-16T09:02:54Z</time>
      </trkpt>
      <trkpt lat="45.20226" lon="6.00167">
        <ele>2395</ele>
        <time>2022-01-16T09:02:57Z</time>
      </trkpt>
      <trkpt lat="45.20226" lon="6.00165">
        <ele>2395.4</ele>
        <time>2022-01-16T09:02:58Z</time>
      </trkpt>
      <trkpt lat="45.20227" lon="6.0016">
        <ele>2397</ele>
        <time>2022-01-16T09:03:03Z</time>
      </trkpt>
      <trkpt lat="45.20226" lon="6.00159">
        <ele>2397.2</ele>
        <time>2022-01-16T09:03:04Z</time>
      </trkpt>
      <trkpt lat="45.20225" lon="6.00159">
        <ele>2398.6</ele>
        <time>2022-01-16T09:03:08Z</time>
      </trkpt>
      <trkpt lat="45.20224" lon="6.00159">
        <ele>2398.6</ele>
        <time>2022-01-16T09:03:09Z</time>
      </trkpt>
      <trkpt lat="45.20222" lon="6.00161">
        <ele>2399.6</ele>
        <time>2022-01-16T09:03:12Z</time>
      </trkpt>
      <trkpt lat="45.20219" lon="6.00163">
        <ele>2400.4</ele>
        <time>2022-01-16T09:03:16Z</time>
      </trkpt>
      <trkpt lat="45.20218" lon="6.00163">
        <ele>2400.6</ele>
        <time>2022-01-16T09:03:17Z</time>
      </trkpt>
      <trkpt lat="45.20216" lon="6.00165">
        <ele>2402</ele>
        <time>2022-01-16T09:03:21Z</time>
      </trkpt>
      <trkpt lat="45.20215" lon="6.00166">
        <ele>2402</ele>
        <time>2022-01-16T09:03:22Z</time>
      </trkpt>
      <trkpt lat="45.2021" lon="6.0017">
        <ele>2403</ele>
        <time>2022-01-16T09:03:28Z</time>
      </trkpt>
      <trkpt lat="45.2021" lon="6.00171">
        <ele>2403.4</ele>
        <time>2022-01-16T09:03:29Z</time>
      </trkpt>
      <trkpt lat="45.20209" lon="6.00172">
        <ele>2404.2</ele>
        <time>2022-01-16T09:03:31Z</time>
      </trkpt>
      <trkpt lat="45.20207" lon="6.00173">
        <ele>2404.8</ele>
        <time>2022-01-16T09:03:33Z</time>
      </trkpt>
      <trkpt lat="45.20206" lon="6.00175">
        <ele>2405.8</ele>
        <time>2022-01-16T09:03:37Z</time>
      </trkpt>
      <trkpt lat="45.20204" lon="6.00177">
        <ele>2406.2</ele>
        <time>2022-01-16T09:03:40Z</time>
      </trkpt>
      <trkpt lat="45.20204" lon="6.00175">
        <ele>2406.8</ele>
        <time>2022-01-16T09:03:43Z</time>
      </trkpt>
      <trkpt lat="45.20204" lon="6.00172">
        <ele>2407.2</ele>
        <time>2022-01-16T09:03:46Z</time>
      </trkpt>
      <trkpt lat="45.20204" lon="6.00168">
        <ele>2407.4</ele>
        <time>2022-01-16T09:03:48Z</time>
      </trkpt>
      <trkpt lat="45.20204" lon="6.00163">
        <ele>2408</ele>
        <time>2022-01-16T09:03:51Z</time>
      </trkpt>
      <trkpt lat="45.20203" lon="6.00161">
        <ele>2408.8</ele>
        <time>2022-01-16T09:03:53Z</time>
      </trkpt>
      <trkpt lat="45.20203" lon="6.00159">
        <ele>2409</ele>
        <time>2022-01-16T09:03:55Z</time>
      </trkpt>
      <trkpt lat="45.20204" lon="6.00155">
        <ele>2410</ele>
        <time>2022-01-16T09:03:58Z</time>
      </trkpt>
      <trkpt lat="45.20204" lon="6.00153">
        <ele>2410.6</ele>
        <time>2022-01-16T09:04:00Z</time>
      </trkpt>
      <trkpt lat="45.20204" lon="6.0015">
        <ele>2411.2</ele>
        <time>2022-01-16T09:04:02Z</time>
      </trkpt>
      <trkpt lat="45.20206" lon="6.00146">
        <ele>2412.2</ele>
        <time>2022-01-16T09:04:06Z</time>
      </trkpt>
      <trkpt lat="45.20206" lon="6.00143">
        <ele>2413</ele>
        <time>2022-01-16T09:04:09Z</time>
      </trkpt>
      <trkpt lat="45.20207" lon="6.00143">
        <ele>2413.4</ele>
        <time>2022-01-16T09:04:11Z</time>
      </trkpt>
      <trkpt lat="45.20205" lon="6.00144">
        <ele>2413.6</ele>
        <time>2022-01-16T09:04:14Z</time>
      </trkpt>
      <trkpt lat="45.20203" lon="6.00145">
        <ele>2414.6</ele>
        <time>2022-01-16T09:04:18Z</time>
      </trkpt>
      <trkpt lat="45.20201" lon="6.00146">
        <ele>2415.2</ele>
        <time>2022-01-16T09:04:20Z</time>
      </trkpt>
      <trkpt lat="45.20199" lon="6.00148">
        <ele>2416.2</ele>
        <time>2022-01-16T09:04:23Z</time>
      </trkpt>
      <trkpt lat="45.20198" lon="6.00149">
        <ele>2416.2</ele>
        <time>2022-01-16T09:04:24Z</time>
      </trkpt>
      <trkpt lat="45.20197" lon="6.00149">
        <ele>2417</ele>
        <time>2022-01-16T09:04:26Z</time>
      </trkpt>
      <trkpt lat="45.20196" lon="6.00149">
        <ele>2417</ele>
        <time>2022-01-16T09:04:27Z</time>
      </trkpt>
      <trkpt lat="45.20195" lon="6.0015">
        <ele>2417.4</ele>
        <time>2022-01-16T09:04:28Z</time>
      </trkpt>
      <trkpt lat="45.20193" lon="6.00152">
        <ele>2418.4</ele>
        <time>2022-01-16T09:04:32Z</time>
      </trkpt>
      <trkpt lat="45.20193" lon="6.00151">
        <ele>2418.4</ele>
        <time>2022-01-16T09:04:34Z</time>
      </trkpt>
      <trkpt lat="45.20193" lon="6.00147">
        <ele>2419</ele>
        <time>2022-01-16T09:04:37Z</time>
      </trkpt>
      <trkpt lat="45.20194" lon="6.00143">
        <ele>2419.6</ele>
        <time>2022-01-16T09:04:40Z</time>
      </trkpt>
      <trkpt lat="45.20193" lon="6.00141">
        <ele>2419.6</ele>
        <time>2022-01-16T09:04:41Z</time>
      </trkpt>
      <trkpt lat="45.20194" lon="6.00137">
        <ele>2420.8</ele>
        <time>2022-01-16T09:04:44Z</time>
      </trkpt>
      <trkpt lat="45.20195" lon="6.00135">
        <ele>2421</ele>
        <time>2022-01-16T09:04:46Z</time>
      </trkpt>
      <trkpt lat="45.20195" lon="6.00132">
        <ele>2422.2</ele>
        <time>2022-01-16T09:04:51Z</time>
      </trkpt>
      <trkpt lat="45.20195" lon="6.00133">
        <ele>2422.4</ele>
        <time>2022-01-16T09:04:52Z</time>
      </trkpt>
      <trkpt lat="45.20193" lon="6.00133">
        <ele>2423.4</ele>
        <time>2022-01-16T09:04:55Z</time>
      </trkpt>
      <trkpt lat="45.20189" lon="6.00134">
        <ele>2424</ele>
        <time>2022-01-16T09:04:59Z</time>
      </trkpt>
      <trkpt lat="45.20189" lon="6.00134">
        <ele>2424.6</ele>
        <time>2022-01-16T09:05:00Z</time>
      </trkpt>
      <trkpt lat="45.20186" lon="6.00134">
        <ele>2425.8</ele>
        <time>2022-01-16T09:05:05Z</time>
      </trkpt>
      <trkpt lat="45.20186" lon="6.00133">
        <ele>2426.2</ele>
        <time>2022-01-16T09:05:07Z</time>
      </trkpt>
      <trkpt lat="45.20186" lon="6.0013">
        <ele>2426.8</ele>
        <time>2022-01-16T09:05:11Z</time>
      </trkpt>
      <trkpt lat="45.20186" lon="6.00129">
        <ele>2427.2</ele>
        <time>2022-01-16T09:05:12Z</time>
      </trkpt>
      <trkpt lat="45.20186" lon="6.00128">
        <ele>2427.4</ele>
        <time>2022-01-16T09:05:13Z</time>
      </trkpt>
      <trkpt lat="45.20186" lon="6.00123">
        <ele>2428.6</ele>
        <time>2022-01-16T09:05:18Z</time>
      </trkpt>
      <trkpt lat="45.20185" lon="6.00122">
        <ele>2428.6</ele>
        <time>2022-01-16T09:05:19Z</time>
      </trkpt>
      <trkpt lat="45.20183" lon="6.00121">
        <ele>2430</ele>
        <time>2022-01-16T09:05:23Z</time>
      </trkpt>
      <trkpt lat="45.2018" lon="6.0012">
        <ele>2430.8</ele>
        <time>2022-01-16T09:05:26Z</time>
      </trkpt>
      <trkpt lat="45.20178" lon="6.00119">
        <ele>2431.2</ele>
        <time>2022-01-16T09:05:28Z</time>
      </trkpt>
      <trkpt lat="45.20175" lon="6.00117">
        <ele>2432.2</ele>
        <time>2022-01-16T09:05:33Z</time>
      </trkpt>
      <trkpt lat="45.20174" lon="6.00116">
        <ele>2432.6</ele>
        <time>2022-01-16T09:05:37Z</time>
      </trkpt>
      <trkpt lat="45.20174" lon="6.00115">
        <ele>2432.6</ele>
        <time>2022-01-16T09:05:43Z</time>
      </trkpt>
      <trkpt lat="45.20173" lon="6.00114">
        <ele>2432.6</ele>
        <time>2022-01-16T09:05:45Z</time>
      </trkpt>
      <trkpt lat="45.20172" lon="6.00111">
        <ele>2433.4</ele>
        <time>2022-01-16T09:05:48Z</time>
      </trkpt>
      <trkpt lat="45.20172" lon="6.00109">
        <ele>2434</ele>
        <time>2022-01-16T09:05:50Z</time>
      </trkpt>
      <trkpt lat="45.20172" lon="6.00107">
        <ele>2434</ele>
        <time>2022-01-16T09:05:51Z</time>
      </trkpt>
      <trkpt lat="45.20172" lon="6.00106">
        <ele>2434.4</ele>
        <time>2022-01-16T09:05:52Z</time>
      </trkpt>
      <trkpt lat="45.20172" lon="6.00105">
        <ele>2434.6</ele>
        <time>2022-01-16T09:05:53Z</time>
      </trkpt>
      <trkpt lat="45.20172" lon="6.00105">
        <ele>2434.6</ele>
        <time>2022-01-16T09:05:55Z</time>
      </trkpt>
      <trkpt lat="45.20171" lon="6.00105">
        <ele>2434.8</ele>
        <time>2022-01-16T09:05:58Z</time>
      </trkpt>
      <trkpt lat="45.20171" lon="6.00105">
        <ele>2434.8</ele>
        <time>2022-01-16T09:06:00Z</time>
      </trkpt>
      <trkpt lat="45.20171" lon="6.00104">
        <ele>2434.8</ele>
        <time>2022-01-16T09:06:02Z</time>
      </trkpt>
      <trkpt lat="45.20172" lon="6.001">
        <ele>2435</ele>
        <time>2022-01-16T09:06:06Z</time>
      </trkpt>
      <trkpt lat="45.20173" lon="6.00093">
        <ele>2435.2</ele>
        <time>2022-01-16T09:06:10Z</time>
      </trkpt>
      <trkpt lat="45.20175" lon="6.0009">
        <ele>2435.6</ele>
        <time>2022-01-16T09:06:12Z</time>
      </trkpt>
      <trkpt lat="45.20175" lon="6.00089">
        <ele>2436.2</ele>
        <time>2022-01-16T09:06:13Z</time>
      </trkpt>
      <trkpt lat="45.20175" lon="6.00088">
        <ele>2436.6</ele>
        <time>2022-01-16T09:06:14Z</time>
      </trkpt>
      <trkpt lat="45.20179" lon="6.00082">
        <ele>2437.8</ele>
        <time>2022-01-16T09:06:20Z</time>
      </trkpt>
      <trkpt lat="45.20182" lon="6.00079">
        <ele>2438.6</ele>
        <time>2022-01-16T09:06:24Z</time>
      </trkpt>
      <trkpt lat="45.20182" lon="6.00078">
        <ele>2439.6</ele>
        <time>2022-01-16T09:06:25Z</time>
      </trkpt>
      <trkpt lat="45.20183" lon="6.00077">
        <ele>2440.2</ele>
        <time>2022-01-16T09:06:27Z</time>
      </trkpt>
      <trkpt lat="45.20182" lon="6.00077">
        <ele>2440.6</ele>
        <time>2022-01-16T09:06:30Z</time>
      </trkpt>
      <trkpt lat="45.20181" lon="6.00077">
        <ele>2441</ele>
        <time>2022-01-16T09:06:33Z</time>
      </trkpt>
      <trkpt lat="45.20178" lon="6.00075">
        <ele>2442</ele>
        <time>2022-01-16T09:06:37Z</time>
      </trkpt>
      <trkpt lat="45.20176" lon="6.00075">
        <ele>2443.2</ele>
        <time>2022-01-16T09:06:40Z</time>
      </trkpt>
      <trkpt lat="45.20175" lon="6.00075">
        <ele>2443.2</ele>
        <time>2022-01-16T09:06:41Z</time>
      </trkpt>
      <trkpt lat="45.20174" lon="6.00075">
        <ele>2443.6</ele>
        <time>2022-01-16T09:06:43Z</time>
      </trkpt>
      <trkpt lat="45.20172" lon="6.00074">
        <ele>2444.2</ele>
        <time>2022-01-16T09:06:45Z</time>
      </trkpt>
      <trkpt lat="45.20171" lon="6.00074">
        <ele>2444.4</ele>
        <time>2022-01-16T09:06:46Z</time>
      </trkpt>
      <trkpt lat="45.2017" lon="6.00074">
        <ele>2444.6</ele>
        <time>2022-01-16T09:06:47Z</time>
      </trkpt>
      <trkpt lat="45.20168" lon="6.00073">
        <ele>2444.6</ele>
        <time>2022-01-16T09:06:49Z</time>
      </trkpt>
      <trkpt lat="45.20167" lon="6.00074">
        <ele>2445.4</ele>
        <time>2022-01-16T09:06:51Z</time>
      </trkpt>
      <trkpt lat="45.20165" lon="6.00074">
        <ele>2445.4</ele>
        <time>2022-01-16T09:06:53Z</time>
      </trkpt>
      <trkpt lat="45.20163" lon="6.00073">
        <ele>2446.4</ele>
        <time>2022-01-16T09:06:56Z</time>
      </trkpt>
      <trkpt lat="45.20163" lon="6.00071">
        <ele>2447.6</ele>
        <time>2022-01-16T09:06:59Z</time>
      </trkpt>
      <trkpt lat="45.20164" lon="6.00065">
        <ele>2448</ele>
        <time>2022-01-16T09:07:03Z</time>
      </trkpt>
      <trkpt lat="45.20164" lon="6.00061">
        <ele>2448.4</ele>
        <time>2022-01-16T09:07:05Z</time>
      </trkpt>
      <trkpt lat="45.20165" lon="6.0006">
        <ele>2448.8</ele>
        <time>2022-01-16T09:07:06Z</time>
      </trkpt>
      <trkpt lat="45.20163" lon="6.00051">
        <ele>2449.4</ele>
        <time>2022-01-16T09:07:10Z</time>
      </trkpt>
      <trkpt lat="45.20164" lon="6.0005">
        <ele>2450</ele>
        <time>2022-01-16T09:07:12Z</time>
      </trkpt>
      <trkpt lat="45.20164" lon="6.00047">
        <ele>2450.2</ele>
        <time>2022-01-16T09:07:14Z</time>
      </trkpt>
      <trkpt lat="45.20165" lon="6.00044">
        <ele>2451</ele>
        <time>2022-01-16T09:07:16Z</time>
      </trkpt>
      <trkpt lat="45.20168" lon="6.00044">
        <ele>2451.6</ele>
        <time>2022-01-16T09:07:18Z</time>
      </trkpt>
      <trkpt lat="45.20169" lon="6.00043">
        <ele>2451.8</ele>
        <time>2022-01-16T09:07:19Z</time>
      </trkpt>
      <trkpt lat="45.20171" lon="6.00042">
        <ele>2452.8</ele>
        <time>2022-01-16T09:07:22Z</time>
      </trkpt>
      <trkpt lat="45.20172" lon="6.00043">
        <ele>2453</ele>
        <time>2022-01-16T09:07:24Z</time>
      </trkpt>
      <trkpt lat="45.20172" lon="6.00043">
        <ele>2453</ele>
        <time>2022-01-16T09:07:25Z</time>
      </trkpt>
      <trkpt lat="45.2017" lon="6.00043">
        <ele>2454</ele>
        <time>2022-01-16T09:07:29Z</time>
      </trkpt>
      <trkpt lat="45.20169" lon="6.00043">
        <ele>2454.2</ele>
        <time>2022-01-16T09:07:30Z</time>
      </trkpt>
      <trkpt lat="45.20166" lon="6.00042">
        <ele>2455</ele>
        <time>2022-01-16T09:07:34Z</time>
      </trkpt>
      <trkpt lat="45.20163" lon="6.00042">
        <ele>2455.8</ele>
        <time>2022-01-16T09:07:38Z</time>
      </trkpt>
      <trkpt lat="45.20162" lon="6.00042">
        <ele>2455.8</ele>
        <time>2022-01-16T09:07:39Z</time>
      </trkpt>
      <trkpt lat="45.20161" lon="6.00042">
        <ele>2456.4</ele>
        <time>2022-01-16T09:07:40Z</time>
      </trkpt>
      <trkpt lat="45.20159" lon="6.00042">
        <ele>2456.8</ele>
        <time>2022-01-16T09:07:43Z</time>
      </trkpt>
      <trkpt lat="45.20157" lon="6.00042">
        <ele>2457.8</ele>
        <time>2022-01-16T09:07:46Z</time>
      </trkpt>
      <trkpt lat="45.20155" lon="6.00044">
        <ele>2458.8</ele>
        <time>2022-01-16T09:07:50Z</time>
      </trkpt>
      <trkpt lat="45.20153" lon="6.00044">
        <ele>2459.2</ele>
        <time>2022-01-16T09:07:52Z</time>
      </trkpt>
      <trkpt lat="45.20154" lon="6.00043">
        <ele>2459.2</ele>
        <time>2022-01-16T09:07:53Z</time>
      </trkpt>
      <trkpt lat="45.20154" lon="6.00042">
        <ele>2459.4</ele>
        <time>2022-01-16T09:07:54Z</time>
      </trkpt>
      <trkpt lat="45.20156" lon="6.00035">
        <ele>2460</ele>
        <time>2022-01-16T09:07:58Z</time>
      </trkpt>
      <trkpt lat="45.20156" lon="6.00027">
        <ele>2460.4</ele>
        <time>2022-01-16T09:08:02Z</time>
      </trkpt>
      <trkpt lat="45.20156" lon="6.00026">
        <ele>2460.8</ele>
        <time>2022-01-16T09:08:03Z</time>
      </trkpt>
      <trkpt lat="45.20156" lon="6.00024">
        <ele>2461</ele>
        <time>2022-01-16T09:08:04Z</time>
      </trkpt>
      <trkpt lat="45.20157" lon="6.00022">
        <ele>2461.4</ele>
        <time>2022-01-16T09:08:06Z</time>
      </trkpt>
      <trkpt lat="45.20159" lon="6.00021">
        <ele>2462.2</ele>
        <time>2022-01-16T09:08:08Z</time>
      </trkpt>
      <trkpt lat="45.2016" lon="6.0002">
        <ele>2462.6</ele>
        <time>2022-01-16T09:08:09Z</time>
      </trkpt>
      <trkpt lat="45.20161" lon="6.0002">
        <ele>2463.2</ele>
        <time>2022-01-16T09:08:11Z</time>
      </trkpt>
      <trkpt lat="45.20162" lon="6.0002">
        <ele>2463.4</ele>
        <time>2022-01-16T09:08:12Z</time>
      </trkpt>
      <trkpt lat="45.20161" lon="6.0002">
        <ele>2463.4</ele>
        <time>2022-01-16T09:08:13Z</time>
      </trkpt>
      <trkpt lat="45.20161" lon="6.00021">
        <ele>2464.6</ele>
        <time>2022-01-16T09:08:16Z</time>
      </trkpt>
      <trkpt lat="45.2016" lon="6.00021">
        <ele>2465</ele>
        <time>2022-01-16T09:08:18Z</time>
      </trkpt>
      <trkpt lat="45.20157" lon="6.0002">
        <ele>2466.2</ele>
        <time>2022-01-16T09:08:23Z</time>
      </trkpt>
      <trkpt lat="45.20156" lon="6.00019">
        <ele>2466.6</ele>
        <time>2022-01-16T09:08:25Z</time>
      </trkpt>
      <trkpt lat="45.20153" lon="6.0002">
        <ele>2467.4</ele>
        <time>2022-01-16T09:08:28Z</time>
      </trkpt>
      <trkpt lat="45.20151" lon="6.0002">
        <ele>2468</ele>
        <time>2022-01-16T09:08:31Z</time>
      </trkpt>
      <trkpt lat="45.2015" lon="6.0002">
        <ele>2468.4</ele>
        <time>2022-01-16T09:08:33Z</time>
      </trkpt>
      <trkpt lat="45.20147" lon="6.00021">
        <ele>2469.2</ele>
        <time>2022-01-16T09:08:36Z</time>
      </trkpt>
      <trkpt lat="45.20147" lon="6.0002">
        <ele>2469.4</ele>
        <time>2022-01-16T09:08:37Z</time>
      </trkpt>
      <trkpt lat="45.20148" lon="6.00017">
        <ele>2469.6</ele>
        <time>2022-01-16T09:08:39Z</time>
      </trkpt>
      <trkpt lat="45.20148" lon="6.00012">
        <ele>2470.4</ele>
        <time>2022-01-16T09:08:43Z</time>
      </trkpt>
      <trkpt lat="45.20147" lon="6.00009">
        <ele>2470.6</ele>
        <time>2022-01-16T09:08:44Z</time>
      </trkpt>
      <trkpt lat="45.20147" lon="6.00008">
        <ele>2471.2</ele>
        <time>2022-01-16T09:08:45Z</time>
      </trkpt>
      <trkpt lat="45.20147" lon="6.00005">
        <ele>2471.4</ele>
        <time>2022-01-16T09:08:47Z</time>
      </trkpt>
      <trkpt lat="45.20147" lon="5.99998">
        <ele>2472.4</ele>
        <time>2022-01-16T09:08:51Z</time>
      </trkpt>
      <trkpt lat="45.20147" lon="5.99997">
        <ele>2472.8</ele>
        <time>2022-01-16T09:08:52Z</time>
      </trkpt>
      <trkpt lat="45.20147" lon="5.99994">
        <ele>2473.4</ele>
        <time>2022-01-16T09:08:55Z</time>
      </trkpt>
      <trkpt lat="45.20147" lon="5.9999">
        <ele>2474.4</ele>
        <time>2022-01-16T09:08:59Z</time>
      </trkpt>
      <trkpt lat="45.20146" lon="5.99988">
        <ele>2475.2</ele>
        <time>2022-01-16T09:09:01Z</time>
      </trkpt>
      <trkpt lat="45.20146" lon="5.99987">
        <ele>2475.2</ele>
        <time>2022-01-16T09:09:02Z</time>
      </trkpt>
      <trkpt lat="45.20144" lon="5.99982">
        <ele>2476.8</ele>
        <time>2022-01-16T09:09:06Z</time>
      </trkpt>
      <trkpt lat="45.20143" lon="5.99977">
        <ele>2477.8</ele>
        <time>2022-01-16T09:09:10Z</time>
      </trkpt>
      <trkpt lat="45.20143" lon="5.99975">
        <ele>2478.4</ele>
        <time>2022-01-16T09:09:12Z</time>
      </trkpt>
      <trkpt lat="45.20142" lon="5.99972">
        <ele>2479</ele>
        <time>2022-01-16T09:09:14Z</time>
      </trkpt>
      <trkpt lat="45.20142" lon="5.99972">
        <ele>2479.2</ele>
        <time>2022-01-16T09:09:15Z</time>
      </trkpt>
      <trkpt lat="45.20141" lon="5.99968">
        <ele>2480.2</ele>
        <time>2022-01-16T09:09:18Z</time>
      </trkpt>
      <trkpt lat="45.2014" lon="5.99967">
        <ele>2480.4</ele>
        <time>2022-01-16T09:09:19Z</time>
      </trkpt>
      <trkpt lat="45.2014" lon="5.99966">
        <ele>2480.6</ele>
        <time>2022-01-16T09:09:20Z</time>
      </trkpt>
      <trkpt lat="45.20139" lon="5.99963">
        <ele>2481</ele>
        <time>2022-01-16T09:09:22Z</time>
      </trkpt>
      <trkpt lat="45.20138" lon="5.99958">
        <ele>2481.4</ele>
        <time>2022-01-16T09:09:25Z</time>
      </trkpt>
      <trkpt lat="45.20138" lon="5.99956">
        <ele>2481.4</ele>
        <time>2022-01-16T09:09:26Z</time>
      </trkpt>
      <trkpt lat="45.20137" lon="5.99948">
        <ele>2482.2</ele>
        <time>2022-01-16T09:09:32Z</time>
      </trkpt>
      <trkpt lat="45.20136" lon="5.99946">
        <ele>2482.6</ele>
        <time>2022-01-16T09:09:34Z</time>
      </trkpt>
      <trkpt lat="45.20136" lon="5.99943">
        <ele>2482.8</ele>
        <time>2022-01-16T09:09:37Z</time>
      </trkpt>
      <trkpt lat="45.20136" lon="5.99943">
        <ele>2483.4</ele>
        <time>2022-01-16T09:09:43Z</time>
      </trkpt>
      <trkpt lat="45.20136" lon="5.99943">
        <ele>2483.2</ele>
        <time>2022-01-16T09:09:45Z</time>
      </trkpt>
      <trkpt lat="45.20136" lon="5.99943">
        <ele>2483.8</ele>
        <time>2022-01-16T09:09:50Z</time>
      </trkpt>
      <trkpt lat="45.20136" lon="5.99943">
        <ele>2483.6</ele>
        <time>2022-01-16T09:09:53Z</time>
      </trkpt>
      <trkpt lat="45.20136" lon="5.99943">
        <ele>2483.4</ele>
        <time>2022-01-16T09:09:56Z</time>
      </trkpt>
      <trkpt lat="45.20136" lon="5.99943">
        <ele>2483.2</ele>
        <time>2022-01-16T09:09:57Z</time>
      </trkpt>
      <trkpt lat="45.20136" lon="5.99943">
        <ele>2483.4</ele>
        <time>2022-01-16T09:10:03Z</time>
      </trkpt>
      <trkpt lat="45.20136" lon="5.99943">
        <ele>2483.6</ele>
        <time>2022-01-16T09:10:04Z</time>
      </trkpt>
      <trkpt lat="45.20136" lon="5.99943">
        <ele>2484</ele>
        <time>2022-01-16T09:10:05Z</time>
      </trkpt>
      <trkpt lat="45.20136" lon="5.99943">
        <ele>2483.8</ele>
        <time>2022-01-16T09:10:06Z</time>
      </trkpt>
      <trkpt lat="45.20136" lon="5.99943">
        <ele>2483.8</ele>
        <time>2022-01-16T09:10:10Z</time>
      </trkpt>
      <trkpt lat="45.20136" lon="5.99943">
        <ele>2483.8</ele>
        <time>2022-01-16T09:10:13Z</time>
      </trkpt>
      <trkpt lat="45.20136" lon="5.99943">
        <ele>2483.6</ele>
        <time>2022-01-16T09:10:18Z</time>
      </trkpt>
      <trkpt lat="45.20136" lon="5.99943">
        <ele>2483.6</ele>
        <time>2022-01-16T09:10:21Z</time>
      </trkpt>
      <trkpt lat="45.20137" lon="5.99943">
        <ele>2483.6</ele>
        <time>2022-01-16T09:10:22Z</time>
      </trkpt>
      <trkpt lat="45.20137" lon="5.99943">
        <ele>2484</ele>
        <time>2022-01-16T09:10:28Z</time>
      </trkpt>
      <trkpt lat="45.20137" lon="5.99943">
        <ele>2484</ele>
        <time>2022-01-16T09:10:30Z</time>
      </trkpt>
      <trkpt lat="45.20137" lon="5.99943">
        <ele>2483.8</ele>
        <time>2022-01-16T09:10:34Z</time>
      </trkpt>
      <trkpt lat="45.20137" lon="5.99943">
        <ele>2483.8</ele>
        <time>2022-01-16T09:10:35Z</time>
      </trkpt>
      <trkpt lat="45.20137" lon="5.99942">
        <ele>2484.2</ele>
        <time>2022-01-16T09:10:40Z</time>
      </trkpt>
      <trkpt lat="45.20137" lon="5.99942">
        <ele>2484.4</ele>
        <time>2022-01-16T09:10:42Z</time>
      </trkpt>
      <trkpt lat="45.20137" lon="5.99942">
        <ele>2484.6</ele>
        <time>2022-01-16T09:10:48Z</time>
      </trkpt>
      <trkpt lat="45.20137" lon="5.99942">
        <ele>2484.8</ele>
        <time>2022-01-16T09:10:49Z</time>
      </trkpt>
      <trkpt lat="45.20137" lon="5.99941">
        <ele>2484.8</ele>
        <time>2022-01-16T09:10:52Z</time>
      </trkpt>
      <trkpt lat="45.20132" lon="5.99936">
        <ele>2484.8</ele>
        <time>2022-01-16T09:10:54Z</time>
      </trkpt>
      <trkpt lat="45.2013" lon="5.99934">
        <ele>2483.8</ele>
        <time>2022-01-16T09:10:55Z</time>
      </trkpt>
      <trkpt lat="45.20125" lon="5.99926">
        <ele>2482.8</ele>
        <time>2022-01-16T09:10:57Z</time>
      </trkpt>
      <trkpt lat="45.2012" lon="5.99915">
        <ele>2481.6</ele>
        <time>2022-01-16T09:10:59Z</time>
      </trkpt>
      <trkpt lat="45.20115" lon="5.99904">
        <ele>2480</ele>
        <time>2022-01-16T09:11:01Z</time>
      </trkpt>
      <trkpt lat="45.20111" lon="5.99896">
        <ele>2479</ele>
        <time>2022-01-16T09:11:03Z</time>
      </trkpt>
      <trkpt lat="45.20111" lon="5.99888">
        <ele>2477.6</ele>
        <time>2022-01-16T09:11:05Z</time>
      </trkpt>
      <trkpt lat="45.20113" lon="5.99887">
        <ele>2475.2</ele>
        <time>2022-01-16T09:11:06Z</time>
      </trkpt>
      <trkpt lat="45.20115" lon="5.99884">
        <ele>2474</ele>
        <time>2022-01-16T09:11:07Z</time>
      </trkpt>
      <trkpt lat="45.20115" lon="5.99881">
        <ele>2473.4</ele>
        <time>2022-01-16T09:11:08Z</time>
      </trkpt>
      <trkpt lat="45.20114" lon="5.99876">
        <ele>2471.6</ele>
        <time>2022-01-16T09:11:09Z</time>
      </trkpt>
      <trkpt lat="45.20112" lon="5.99871">
        <ele>2471</ele>
        <time>2022-01-16T09:11:10Z</time>
      </trkpt>
      <trkpt lat="45.20109" lon="5.99866">
        <ele>2470.4</ele>
        <time>2022-01-16T09:11:11Z</time>
      </trkpt>
      <trkpt lat="45.20106" lon="5.99861">
        <ele>2469.8</ele>
        <time>2022-01-16T09:11:12Z</time>
      </trkpt>
      <trkpt lat="45.20104" lon="5.99857">
        <ele>2469</ele>
        <time>2022-01-16T09:11:13Z</time>
      </trkpt>
      <trkpt lat="45.20103" lon="5.99852">
        <ele>2468.8</ele>
        <time>2022-01-16T09:11:14Z</time>
      </trkpt>
      <trkpt lat="45.20106" lon="5.99848">
        <ele>2465.2</ele>
        <time>2022-01-16T09:11:15Z</time>
      </trkpt>
      <trkpt lat="45.2011" lon="5.9984">
        <ele>2463.6</ele>
        <time>2022-01-16T09:11:17Z</time>
      </trkpt>
      <trkpt lat="45.20109" lon="5.99834">
        <ele>2463.6</ele>
        <time>2022-01-16T09:11:18Z</time>
      </trkpt>
      <trkpt lat="45.20107" lon="5.99828">
        <ele>2463.2</ele>
        <time>2022-01-16T09:11:19Z</time>
      </trkpt>
      <trkpt lat="45.20103" lon="5.99823">
        <ele>2460.4</ele>
        <time>2022-01-16T09:11:20Z</time>
      </trkpt>
      <trkpt lat="45.20094" lon="5.99815">
        <ele>2459.4</ele>
        <time>2022-01-16T09:11:22Z</time>
      </trkpt>
      <trkpt lat="45.20089" lon="5.99811">
        <ele>2459</ele>
        <time>2022-01-16T09:11:23Z</time>
      </trkpt>
      <trkpt lat="45.2008" lon="5.99802">
        <ele>2456.8</ele>
        <time>2022-01-16T09:11:25Z</time>
      </trkpt>
      <trkpt lat="45.20081" lon="5.99797">
        <ele>2453.4</ele>
        <time>2022-01-16T09:11:26Z</time>
      </trkpt>
      <trkpt lat="45.20082" lon="5.99794">
        <ele>2452.6</ele>
        <time>2022-01-16T09:11:27Z</time>
      </trkpt>
      <trkpt lat="45.20084" lon="5.9979">
        <ele>2451.6</ele>
        <time>2022-01-16T09:11:28Z</time>
      </trkpt>
      <trkpt lat="45.20084" lon="5.99786">
        <ele>2451</ele>
        <time>2022-01-16T09:11:29Z</time>
      </trkpt>
      <trkpt lat="45.20083" lon="5.99781">
        <ele>2449.2</ele>
        <time>2022-01-16T09:11:30Z</time>
      </trkpt>
      <trkpt lat="45.20075" lon="5.9977">
        <ele>2448.2</ele>
        <time>2022-01-16T09:11:32Z</time>
      </trkpt>
      <trkpt lat="45.2007" lon="5.99765">
        <ele>2446.6</ele>
        <time>2022-01-16T09:11:33Z</time>
      </trkpt>
      <trkpt lat="45.20061" lon="5.99758">
        <ele>2444.8</ele>
        <time>2022-01-16T09:11:35Z</time>
      </trkpt>
      <trkpt lat="45.20052" lon="5.99748">
        <ele>2443</ele>
        <time>2022-01-16T09:11:37Z</time>
      </trkpt>
      <trkpt lat="45.20043" lon="5.99737">
        <ele>2441.6</ele>
        <time>2022-01-16T09:11:39Z</time>
      </trkpt>
      <trkpt lat="45.20039" lon="5.99733">
        <ele>2440.2</ele>
        <time>2022-01-16T09:11:40Z</time>
      </trkpt>
      <trkpt lat="45.20036" lon="5.99729">
        <ele>2439</ele>
        <time>2022-01-16T09:11:41Z</time>
      </trkpt>
      <trkpt lat="45.20034" lon="5.99723">
        <ele>2438</ele>
        <time>2022-01-16T09:11:42Z</time>
      </trkpt>
      <trkpt lat="45.20035" lon="5.99718">
        <ele>2437</ele>
        <time>2022-01-16T09:11:43Z</time>
      </trkpt>
      <trkpt lat="45.20038" lon="5.99711">
        <ele>2433.8</ele>
        <time>2022-01-16T09:11:44Z</time>
      </trkpt>
      <trkpt lat="45.20039" lon="5.99706">
        <ele>2433.6</ele>
        <time>2022-01-16T09:11:45Z</time>
      </trkpt>
      <trkpt lat="45.20036" lon="5.99701">
        <ele>2430.4</ele>
        <time>2022-01-16T09:11:46Z</time>
      </trkpt>
      <trkpt lat="45.20033" lon="5.99698">
        <ele>2429</ele>
        <time>2022-01-16T09:11:47Z</time>
      </trkpt>
      <trkpt lat="45.20025" lon="5.99691">
        <ele>2428</ele>
        <time>2022-01-16T09:11:49Z</time>
      </trkpt>
      <trkpt lat="45.20022" lon="5.99688">
        <ele>2426</ele>
        <time>2022-01-16T09:11:50Z</time>
      </trkpt>
      <trkpt lat="45.20018" lon="5.99686">
        <ele>2425.8</ele>
        <time>2022-01-16T09:11:51Z</time>
      </trkpt>
      <trkpt lat="45.20013" lon="5.99685">
        <ele>2424.4</ele>
        <time>2022-01-16T09:11:52Z</time>
      </trkpt>
      <trkpt lat="45.20007" lon="5.99684">
        <ele>2423.8</ele>
        <time>2022-01-16T09:11:53Z</time>
      </trkpt>
      <trkpt lat="45.20001" lon="5.99684">
        <ele>2423.4</ele>
        <time>2022-01-16T09:11:54Z</time>
      </trkpt>
      <trkpt lat="45.19994" lon="5.99684">
        <ele>2422.2</ele>
        <time>2022-01-16T09:11:55Z</time>
      </trkpt>
      <trkpt lat="45.19981" lon="5.99683">
        <ele>2420.2</ele>
        <time>2022-01-16T09:11:57Z</time>
      </trkpt>
      <trkpt lat="45.19975" lon="5.99683">
        <ele>2418.8</ele>
        <time>2022-01-16T09:11:58Z</time>
      </trkpt>
      <trkpt lat="45.19969" lon="5.99683">
        <ele>2417.8</ele>
        <time>2022-01-16T09:11:59Z</time>
      </trkpt>
      <trkpt lat="45.19963" lon="5.99683">
        <ele>2417</ele>
        <time>2022-01-16T09:12:00Z</time>
      </trkpt>
      <trkpt lat="45.19957" lon="5.99682">
        <ele>2416</ele>
        <time>2022-01-16T09:12:01Z</time>
      </trkpt>
      <trkpt lat="45.19943" lon="5.9968">
        <ele>2413.6</ele>
        <time>2022-01-16T09:12:03Z</time>
      </trkpt>
      <trkpt lat="45.19936" lon="5.99678">
        <ele>2412.2</ele>
        <time>2022-01-16T09:12:04Z</time>
      </trkpt>
      <trkpt lat="45.1993" lon="5.99674">
        <ele>2410.2</ele>
        <time>2022-01-16T09:12:05Z</time>
      </trkpt>
      <trkpt lat="45.19921" lon="5.99666">
        <ele>2408.6</ele>
        <time>2022-01-16T09:12:07Z</time>
      </trkpt>
      <trkpt lat="45.19915" lon="5.99663">
        <ele>2407.4</ele>
        <time>2022-01-16T09:12:08Z</time>
      </trkpt>
      <trkpt lat="45.19908" lon="5.99663">
        <ele>2406.8</ele>
        <time>2022-01-16T09:12:09Z</time>
      </trkpt>
      <trkpt lat="45.19901" lon="5.99662">
        <ele>2405.6</ele>
        <time>2022-01-16T09:12:10Z</time>
      </trkpt>
      <trkpt lat="45.19894" lon="5.99661">
        <ele>2403.8</ele>
        <time>2022-01-16T09:12:11Z</time>
      </trkpt>
      <trkpt lat="45.19887" lon="5.9966">
        <ele>2402.6</ele>
        <time>2022-01-16T09:12:12Z</time>
      </trkpt>
      <trkpt lat="45.19871" lon="5.99656">
        <ele>2400.4</ele>
        <time>2022-01-16T09:12:14Z</time>
      </trkpt>
      <trkpt lat="45.19864" lon="5.99651">
        <ele>2399.8</ele>
        <time>2022-01-16T09:12:15Z</time>
      </trkpt>
      <trkpt lat="45.1986" lon="5.99645">
        <ele>2398.6</ele>
        <time>2022-01-16T09:12:16Z</time>
      </trkpt>
      <trkpt lat="45.19859" lon="5.9964">
        <ele>2394.4</ele>
        <time>2022-01-16T09:12:17Z</time>
      </trkpt>
      <trkpt lat="45.19853" lon="5.99626">
        <ele>2392.2</ele>
        <time>2022-01-16T09:12:19Z</time>
      </trkpt>
      <trkpt lat="45.1985" lon="5.99618">
        <ele>2390</ele>
        <time>2022-01-16T09:12:20Z</time>
      </trkpt>
      <trkpt lat="45.1985" lon="5.99609">
        <ele>2388.2</ele>
        <time>2022-01-16T09:12:21Z</time>
      </trkpt>
      <trkpt lat="45.19852" lon="5.99602">
        <ele>2385.2</ele>
        <time>2022-01-16T09:12:22Z</time>
      </trkpt>
      <trkpt lat="45.19851" lon="5.99588">
        <ele>2383.2</ele>
        <time>2022-01-16T09:12:24Z</time>
      </trkpt>
      <trkpt lat="45.1985" lon="5.9958">
        <ele>2379.8</ele>
        <time>2022-01-16T09:12:25Z</time>
      </trkpt>
      <trkpt lat="45.19849" lon="5.9957">
        <ele>2378</ele>
        <time>2022-01-16T09:12:26Z</time>
      </trkpt>
      <trkpt lat="45.19849" lon="5.99561">
        <ele>2378</ele>
        <time>2022-01-16T09:12:27Z</time>
      </trkpt>
      <trkpt lat="45.19849" lon="5.99552">
        <ele>2372.6</ele>
        <time>2022-01-16T09:12:28Z</time>
      </trkpt>
      <trkpt lat="45.19848" lon="5.99542">
        <ele>2371.8</ele>
        <time>2022-01-16T09:12:29Z</time>
      </trkpt>
      <trkpt lat="45.19849" lon="5.99531">
        <ele>2371</ele>
        <time>2022-01-16T09:12:30Z</time>
      </trkpt>
      <trkpt lat="45.19851" lon="5.99522">
        <ele>2366.2</ele>
        <time>2022-01-16T09:12:31Z</time>
      </trkpt>
      <trkpt lat="45.19851" lon="5.99505">
        <ele>2363.8</ele>
        <time>2022-01-16T09:12:33Z</time>
      </trkpt>
      <trkpt lat="45.1985" lon="5.99498">
        <ele>2361.2</ele>
        <time>2022-01-16T09:12:34Z</time>
      </trkpt>
      <trkpt lat="45.19851" lon="5.99492">
        <ele>2360.8</ele>
        <time>2022-01-16T09:12:35Z</time>
      </trkpt>
      <trkpt lat="45.19855" lon="5.99487">
        <ele>2360.2</ele>
        <time>2022-01-16T09:12:36Z</time>
      </trkpt>
      <trkpt lat="45.19859" lon="5.99483">
        <ele>2359.8</ele>
        <time>2022-01-16T09:12:37Z</time>
      </trkpt>
      <trkpt lat="45.19865" lon="5.99478">
        <ele>2358.6</ele>
        <time>2022-01-16T09:12:39Z</time>
      </trkpt>
      <trkpt lat="45.19865" lon="5.99475">
        <ele>2358.4</ele>
        <time>2022-01-16T09:12:40Z</time>
      </trkpt>
      <trkpt lat="45.19863" lon="5.9947">
        <ele>2357.2</ele>
        <time>2022-01-16T09:12:41Z</time>
      </trkpt>
      <trkpt lat="45.19862" lon="5.99464">
        <ele>2354.4</ele>
        <time>2022-01-16T09:12:42Z</time>
      </trkpt>
      <trkpt lat="45.19863" lon="5.99458">
        <ele>2351</ele>
        <time>2022-01-16T09:12:43Z</time>
      </trkpt>
      <trkpt lat="45.19866" lon="5.99454">
        <ele>2349.2</ele>
        <time>2022-01-16T09:12:44Z</time>
      </trkpt>
      <trkpt lat="45.19869" lon="5.99452">
        <ele>2347.4</ele>
        <time>2022-01-16T09:12:45Z</time>
      </trkpt>
      <trkpt lat="45.19872" lon="5.99449">
        <ele>2347.4</ele>
        <time>2022-01-16T09:12:47Z</time>
      </trkpt>
      <trkpt lat="45.19872" lon="5.99448">
        <ele>2347</ele>
        <time>2022-01-16T09:12:48Z</time>
      </trkpt>
      <trkpt lat="45.19875" lon="5.99448">
        <ele>2347</ele>
        <time>2022-01-16T09:12:51Z</time>
      </trkpt>
      <trkpt lat="45.19874" lon="5.99448">
        <ele>2346.8</ele>
        <time>2022-01-16T09:12:53Z</time>
      </trkpt>
      <trkpt lat="45.19873" lon="5.99447">
        <ele>2346.6</ele>
        <time>2022-01-16T09:12:59Z</time>
      </trkpt>
      <trkpt lat="45.19872" lon="5.99448">
        <ele>2346.6</ele>
        <time>2022-01-16T09:13:01Z</time>
      </trkpt>
      <trkpt lat="45.19872" lon="5.9945">
        <ele>2346.6</ele>
        <time>2022-01-16T09:13:03Z</time>
      </trkpt>
      <trkpt lat="45.19873" lon="5.9945">
        <ele>2346.4</ele>
        <time>2022-01-16T09:13:09Z</time>
      </trkpt>
      <trkpt lat="45.19873" lon="5.9945">
        <ele>2346.4</ele>
        <time>2022-01-16T09:13:10Z</time>
      </trkpt>
      <trkpt lat="45.19873" lon="5.9945">
        <ele>2346.2</ele>
        <time>2022-01-16T09:13:12Z</time>
      </trkpt>
      <trkpt lat="45.19872" lon="5.9945">
        <ele>2346.4</ele>
        <time>2022-01-16T09:13:13Z</time>
      </trkpt>
      <trkpt lat="45.19871" lon="5.9945">
        <ele>2346.4</ele>
        <time>2022-01-16T09:13:15Z</time>
      </trkpt>
      <trkpt lat="45.1987" lon="5.9945">
        <ele>2346.6</ele>
        <time>2022-01-16T09:13:17Z</time>
      </trkpt>
      <trkpt lat="45.1987" lon="5.9945">
        <ele>2346.6</ele>
        <time>2022-01-16T09:13:19Z</time>
      </trkpt>
      <trkpt lat="45.1987" lon="5.9945">
        <ele>2346.6</ele>
        <time>2022-01-16T09:13:24Z</time>
      </trkpt>
      <trkpt lat="45.1987" lon="5.9945">
        <ele>2346.6</ele>
        <time>2022-01-16T09:13:28Z</time>
      </trkpt>
      <trkpt lat="45.1987" lon="5.99449">
        <ele>2346.2</ele>
        <time>2022-01-16T09:13:32Z</time>
      </trkpt>
      <trkpt lat="45.1987" lon="5.99449">
        <ele>2346.2</ele>
        <time>2022-01-16T09:13:38Z</time>
      </trkpt>
      <trkpt lat="45.19871" lon="5.99448">
        <ele>2346.2</ele>
        <time>2022-01-16T09:13:44Z</time>
      </trkpt>
      <trkpt lat="45.19871" lon="5.99448">
        <ele>2346.2</ele>
        <time>2022-01-16T09:13:47Z</time>
      </trkpt>
      <trkpt lat="45.19872" lon="5.99448">
        <ele>2346.2</ele>
        <time>2022-01-16T09:13:50Z</time>
      </trkpt>
      <trkpt lat="45.19875" lon="5.99447">
        <ele>2345.8</ele>
        <time>2022-01-16T09:13:56Z</time>
      </trkpt>
      <trkpt lat="45.19876" lon="5.99447">
        <ele>2345.8</ele>
        <time>2022-01-16T09:14:02Z</time>
      </trkpt>
      <trkpt lat="45.19877" lon="5.99447">
        <ele>2346</ele>
        <time>2022-01-16T09:14:07Z</time>
      </trkpt>
      <trkpt lat="45.19877" lon="5.99447">
        <ele>2345.8</ele>
        <time>2022-01-16T09:14:13Z</time>
      </trkpt>
      <trkpt lat="45.19877" lon="5.99447">
        <ele>2345.8</ele>
        <time>2022-01-16T09:14:19Z</time>
      </trkpt>
      <trkpt lat="45.19877" lon="5.99447">
        <ele>2345.8</ele>
        <time>2022-01-16T09:14:21Z</time>
      </trkpt>
      <trkpt lat="45.19877" lon="5.99447">
        <ele>2345.8</ele>
        <time>2022-01-16T09:14:23Z</time>
      </trkpt>
      <trkpt lat="45.19877" lon="5.99449">
        <ele>2346</ele>
        <time>2022-01-16T09:14:29Z</time>
      </trkpt>
      <trkpt lat="45.19877" lon="5.99449">
        <ele>2345.8</ele>
        <time>2022-01-16T09:14:31Z</time>
      </trkpt>
      <trkpt lat="45.19877" lon="5.99449">
        <ele>2345.6</ele>
        <time>2022-01-16T09:14:32Z</time>
      </trkpt>
      <trkpt lat="45.19877" lon="5.99449">
        <ele>2345.6</ele>
        <time>2022-01-16T09:14:33Z</time>
      </trkpt>
      <trkpt lat="45.19878" lon="5.99449">
        <ele>2345.6</ele>
        <time>2022-01-16T09:14:35Z</time>
      </trkpt>
      <trkpt lat="45.19878" lon="5.99449">
        <ele>2345.6</ele>
        <time>2022-01-16T09:14:36Z</time>
      </trkpt>
      <trkpt lat="45.19878" lon="5.99449">
        <ele>2345.8</ele>
        <time>2022-01-16T09:14:38Z</time>
      </trkpt>
      <trkpt lat="45.19878" lon="5.99449">
        <ele>2345.8</ele>
        <time>2022-01-16T09:14:39Z</time>
      </trkpt>
      <trkpt lat="45.19878" lon="5.99449">
        <ele>2345.6</ele>
        <time>2022-01-16T09:14:44Z</time>
      </trkpt>
      <trkpt lat="45.19878" lon="5.99449">
        <ele>2345.6</ele>
        <time>2022-01-16T09:14:50Z</time>
      </trkpt>
      <trkpt lat="45.19878" lon="5.99449">
        <ele>2345.6</ele>
        <time>2022-01-16T09:14:51Z</time>
      </trkpt>
      <trkpt lat="45.19878" lon="5.99449">
        <ele>2345.4</ele>
        <time>2022-01-16T09:14:56Z</time>
      </trkpt>
      <trkpt lat="45.19877" lon="5.99449">
        <ele>2345.6</ele>
        <time>2022-01-16T09:15:02Z</time>
      </trkpt>
      <trkpt lat="45.19877" lon="5.99449">
        <ele>2345.4</ele>
        <time>2022-01-16T09:15:08Z</time>
      </trkpt>
      <trkpt lat="45.19877" lon="5.99449">
        <ele>2345.2</ele>
        <time>2022-01-16T09:15:14Z</time>
      </trkpt>
      <trkpt lat="45.19876" lon="5.9945">
        <ele>2345.2</ele>
        <time>2022-01-16T09:15:20Z</time>
      </trkpt>
      <trkpt lat="45.19876" lon="5.9945">
        <ele>2345.2</ele>
        <time>2022-01-16T09:15:23Z</time>
      </trkpt>
      <trkpt lat="45.19876" lon="5.9945">
        <ele>2345.2</ele>
        <time>2022-01-16T09:15:25Z</time>
      </trkpt>
      <trkpt lat="45.19875" lon="5.9945">
        <ele>2345.2</ele>
        <time>2022-01-16T09:15:26Z</time>
      </trkpt>
      <trkpt lat="45.19875" lon="5.9945">
        <ele>2345.2</ele>
        <time>2022-01-16T09:15:27Z</time>
      </trkpt>
      <trkpt lat="45.19874" lon="5.99451">
        <ele>2345.2</ele>
        <time>2022-01-16T09:15:30Z</time>
      </trkpt>
      <trkpt lat="45.19874" lon="5.99451">
        <ele>2345.2</ele>
        <time>2022-01-16T09:15:32Z</time>
      </trkpt>
      <trkpt lat="45.19874" lon="5.99451">
        <ele>2345.2</ele>
        <time>2022-01-16T09:15:34Z</time>
      </trkpt>
      <trkpt lat="45.19874" lon="5.99451">
        <ele>2345.2</ele>
        <time>2022-01-16T09:15:35Z</time>
      </trkpt>
      <trkpt lat="45.19874" lon="5.99451">
        <ele>2345</ele>
        <time>2022-01-16T09:15:39Z</time>
      </trkpt>
      <trkpt lat="45.19874" lon="5.99451">
        <ele>2344.8</ele>
        <time>2022-01-16T09:15:44Z</time>
      </trkpt>
      <trkpt lat="45.19874" lon="5.99451">
        <ele>2344.8</ele>
        <time>2022-01-16T09:15:48Z</time>
      </trkpt>
      <trkpt lat="45.19874" lon="5.99451">
        <ele>2345</ele>
        <time>2022-01-16T09:15:54Z</time>
      </trkpt>
      <trkpt lat="45.19873" lon="5.99451">
        <ele>2344.8</ele>
        <time>2022-01-16T09:16:00Z</time>
      </trkpt>
      <trkpt lat="45.19873" lon="5.99451">
        <ele>2344.8</ele>
        <time>2022-01-16T09:16:04Z</time>
      </trkpt>
      <trkpt lat="45.19873" lon="5.99451">
        <ele>2345</ele>
        <time>2022-01-16T09:16:08Z</time>
      </trkpt>
      <trkpt lat="45.19873" lon="5.99451">
        <ele>2345</ele>
        <time>2022-01-16T09:16:11Z</time>
      </trkpt>
      <trkpt lat="45.19874" lon="5.99451">
        <ele>2345</ele>
        <time>2022-01-16T09:16:14Z</time>
      </trkpt>
      <trkpt lat="45.19874" lon="5.99451">
        <ele>2345.2</ele>
        <time>2022-01-16T09:16:16Z</time>
      </trkpt>
      <trkpt lat="45.19874" lon="5.99451">
        <ele>2345.6</ele>
        <time>2022-01-16T09:16:19Z</time>
      </trkpt>
      <trkpt lat="45.1987" lon="5.99446">
        <ele>2345.8</ele>
        <time>2022-01-16T09:16:24Z</time>
      </trkpt>
      <trkpt lat="45.19863" lon="5.99437">
        <ele>2346</ele>
        <time>2022-01-16T09:16:30Z</time>
      </trkpt>
      <trkpt lat="45.19861" lon="5.99434">
        <ele>2346.2</ele>
        <time>2022-01-16T09:16:32Z</time>
      </trkpt>
      <trkpt lat="45.1986" lon="5.99429">
        <ele>2346.4</ele>
        <time>2022-01-16T09:16:35Z</time>
      </trkpt>
      <trkpt lat="45.19859" lon="5.99426">
        <ele>2346.8</ele>
        <time>2022-01-16T09:16:37Z</time>
      </trkpt>
      <trkpt lat="45.19858" lon="5.99425">
        <ele>2346.8</ele>
        <time>2022-01-16T09:16:38Z</time>
      </trkpt>
      <trkpt lat="45.19856" lon="5.99424">
        <ele>2347.2</ele>
        <time>2022-01-16T09:16:40Z</time>
      </trkpt>
      <trkpt lat="45.19856" lon="5.99424">
        <ele>2347.6</ele>
        <time>2022-01-16T09:16:41Z</time>
      </trkpt>
      <trkpt lat="45.19855" lon="5.99421">
        <ele>2348.2</ele>
        <time>2022-01-16T09:16:43Z</time>
      </trkpt>
      <trkpt lat="45.19854" lon="5.99419">
        <ele>2348.8</ele>
        <time>2022-01-16T09:16:45Z</time>
      </trkpt>
      <trkpt lat="45.19854" lon="5.99412">
        <ele>2350</ele>
        <time>2022-01-16T09:16:49Z</time>
      </trkpt>
      <trkpt lat="45.19854" lon="5.9941">
        <ele>2350.8</ele>
        <time>2022-01-16T09:16:50Z</time>
      </trkpt>
      <trkpt lat="45.19852" lon="5.99405">
        <ele>2351</ele>
        <time>2022-01-16T09:16:53Z</time>
      </trkpt>
      <trkpt lat="45.19852" lon="5.994">
        <ele>2351.8</ele>
        <time>2022-01-16T09:16:56Z</time>
      </trkpt>
      <trkpt lat="45.19852" lon="5.99398">
        <ele>2351.8</ele>
        <time>2022-01-16T09:16:57Z</time>
      </trkpt>
      <trkpt lat="45.19851" lon="5.99396">
        <ele>2351.8</ele>
        <time>2022-01-16T09:16:58Z</time>
      </trkpt>
      <trkpt lat="45.1985" lon="5.99393">
        <ele>2352.2</ele>
        <time>2022-01-16T09:17:00Z</time>
      </trkpt>
      <trkpt lat="45.1985" lon="5.99388">
        <ele>2352.2</ele>
        <time>2022-01-16T09:17:03Z</time>
      </trkpt>
      <trkpt lat="45.19847" lon="5.9938">
        <ele>2352.6</ele>
        <time>2022-01-16T09:17:08Z</time>
      </trkpt>
      <trkpt lat="45.19847" lon="5.99379">
        <ele>2352.6</ele>
        <time>2022-01-16T09:17:09Z</time>
      </trkpt>
      <trkpt lat="45.19846" lon="5.99368">
        <ele>2353</ele>
        <time>2022-01-16T09:17:15Z</time>
      </trkpt>
      <trkpt lat="45.19846" lon="5.99366">
        <ele>2353.2</ele>
        <time>2022-01-16T09:17:16Z</time>
      </trkpt>
      <trkpt lat="45.19845" lon="5.99365">
        <ele>2353.8</ele>
        <time>2022-01-16T09:17:18Z</time>
      </trkpt>
      <trkpt lat="45.19843" lon="5.99364">
        <ele>2354.2</ele>
        <time>2022-01-16T09:17:20Z</time>
      </trkpt>
      <trkpt lat="45.19843" lon="5.99363">
        <ele>2354.6</ele>
        <time>2022-01-16T09:17:22Z</time>
      </trkpt>
      <trkpt lat="45.19841" lon="5.99362">
        <ele>2355.2</ele>
        <time>2022-01-16T09:17:24Z</time>
      </trkpt>
      <trkpt lat="45.1984" lon="5.99361">
        <ele>2355.8</ele>
        <time>2022-01-16T09:17:26Z</time>
      </trkpt>
      <trkpt lat="45.19839" lon="5.99359">
        <ele>2356.2</ele>
        <time>2022-01-16T09:17:28Z</time>
      </trkpt>
      <trkpt lat="45.19838" lon="5.99359">
        <ele>2356.6</ele>
        <time>2022-01-16T09:17:29Z</time>
      </trkpt>
      <trkpt lat="45.19838" lon="5.99359">
        <ele>2356.6</ele>
        <time>2022-01-16T09:17:30Z</time>
      </trkpt>
      <trkpt lat="45.19836" lon="5.99358">
        <ele>2357.2</ele>
        <time>2022-01-16T09:17:32Z</time>
      </trkpt>
      <trkpt lat="45.19835" lon="5.99357">
        <ele>2358.2</ele>
        <time>2022-01-16T09:17:35Z</time>
      </trkpt>
      <trkpt lat="45.19834" lon="5.99356">
        <ele>2358.6</ele>
        <time>2022-01-16T09:17:36Z</time>
      </trkpt>
      <trkpt lat="45.19829" lon="5.99357">
        <ele>2359.4</ele>
        <time>2022-01-16T09:17:40Z</time>
      </trkpt>
      <trkpt lat="45.19828" lon="5.99358">
        <ele>2359.6</ele>
        <time>2022-01-16T09:17:41Z</time>
      </trkpt>
      <trkpt lat="45.19825" lon="5.99358">
        <ele>2360.2</ele>
        <time>2022-01-16T09:17:44Z</time>
      </trkpt>
      <trkpt lat="45.19825" lon="5.99354">
        <ele>2361.2</ele>
        <time>2022-01-16T09:17:46Z</time>
      </trkpt>
      <trkpt lat="45.19827" lon="5.99349">
        <ele>2361.4</ele>
        <time>2022-01-16T09:17:47Z</time>
      </trkpt>
      <trkpt lat="45.19832" lon="5.9934">
        <ele>2362.2</ele>
        <time>2022-01-16T09:17:52Z</time>
      </trkpt>
      <trkpt lat="45.19834" lon="5.99339">
        <ele>2363</ele>
        <time>2022-01-16T09:17:54Z</time>
      </trkpt>
      <trkpt lat="45.19834" lon="5.99338">
        <ele>2363.6</ele>
        <time>2022-01-16T09:17:55Z</time>
      </trkpt>
      <trkpt lat="45.19839" lon="5.99331">
        <ele>2364.2</ele>
        <time>2022-01-16T09:18:00Z</time>
      </trkpt>
      <trkpt lat="45.19842" lon="5.99318">
        <ele>2364.8</ele>
        <time>2022-01-16T09:18:04Z</time>
      </trkpt>
      <trkpt lat="45.19843" lon="5.99312">
        <ele>2365.4</ele>
        <time>2022-01-16T09:18:07Z</time>
      </trkpt>
      <trkpt lat="45.19844" lon="5.99306">
        <ele>2366</ele>
        <time>2022-01-16T09:18:11Z</time>
      </trkpt>
      <trkpt lat="45.19844" lon="5.99304">
        <ele>2366.2</ele>
        <time>2022-01-16T09:18:13Z</time>
      </trkpt>
      <trkpt lat="45.19845" lon="5.993">
        <ele>2366.6</ele>
        <time>2022-01-16T09:18:15Z</time>
      </trkpt>
      <trkpt lat="45.19844" lon="5.99298">
        <ele>2367.6</ele>
        <time>2022-01-16T09:18:18Z</time>
      </trkpt>
      <trkpt lat="45.19842" lon="5.99299">
        <ele>2367.8</ele>
        <time>2022-01-16T09:18:20Z</time>
      </trkpt>
      <trkpt lat="45.19842" lon="5.99299">
        <ele>2367.8</ele>
        <time>2022-01-16T09:18:21Z</time>
      </trkpt>
      <trkpt lat="45.19841" lon="5.99295">
        <ele>2368.8</ele>
        <time>2022-01-16T09:18:24Z</time>
      </trkpt>
      <trkpt lat="45.19841" lon="5.99293">
        <ele>2369.6</ele>
        <time>2022-01-16T09:18:26Z</time>
      </trkpt>
      <trkpt lat="45.1984" lon="5.99292">
        <ele>2369.6</ele>
        <time>2022-01-16T09:18:27Z</time>
      </trkpt>
      <trkpt lat="45.1984" lon="5.99289">
        <ele>2370.4</ele>
        <time>2022-01-16T09:18:30Z</time>
      </trkpt>
      <trkpt lat="45.19839" lon="5.99285">
        <ele>2371</ele>
        <time>2022-01-16T09:18:33Z</time>
      </trkpt>
      <trkpt lat="45.19839" lon="5.99281">
        <ele>2371.4</ele>
        <time>2022-01-16T09:18:36Z</time>
      </trkpt>
      <trkpt lat="45.19841" lon="5.99277">
        <ele>2372.6</ele>
        <time>2022-01-16T09:18:40Z</time>
      </trkpt>
      <trkpt lat="45.19841" lon="5.99276">
        <ele>2372.6</ele>
        <time>2022-01-16T09:18:41Z</time>
      </trkpt>
      <trkpt lat="45.19842" lon="5.99277">
        <ele>2372.8</ele>
        <time>2022-01-16T09:18:44Z</time>
      </trkpt>
      <trkpt lat="45.19842" lon="5.99278">
        <ele>2372.8</ele>
        <time>2022-01-16T09:18:46Z</time>
      </trkpt>
      <trkpt lat="45.19844" lon="5.9928">
        <ele>2372.8</ele>
        <time>2022-01-16T09:18:49Z</time>
      </trkpt>
      <trkpt lat="45.19843" lon="5.99274">
        <ele>2373.6</ele>
        <time>2022-01-16T09:18:55Z</time>
      </trkpt>
      <trkpt lat="45.19842" lon="5.99269">
        <ele>2374.6</ele>
        <time>2022-01-16T09:18:58Z</time>
      </trkpt>
      <trkpt lat="45.19842" lon="5.99269">
        <ele>2374.6</ele>
        <time>2022-01-16T09:18:59Z</time>
      </trkpt>
      <trkpt lat="45.19841" lon="5.99265">
        <ele>2375.8</ele>
        <time>2022-01-16T09:19:02Z</time>
      </trkpt>
      <trkpt lat="45.1984" lon="5.99257">
        <ele>2377</ele>
        <time>2022-01-16T09:19:08Z</time>
      </trkpt>
      <trkpt lat="45.19839" lon="5.9925">
        <ele>2378</ele>
        <time>2022-01-16T09:19:12Z</time>
      </trkpt>
      <trkpt lat="45.19838" lon="5.99249">
        <ele>2378</ele>
        <time>2022-01-16T09:19:13Z</time>
      </trkpt>
      <trkpt lat="45.19838" lon="5.99247">
        <ele>2378.6</ele>
        <time>2022-01-16T09:19:14Z</time>
      </trkpt>
      <trkpt lat="45.19838" lon="5.99246">
        <ele>2378.6</ele>
        <time>2022-01-16T09:19:15Z</time>
      </trkpt>
      <trkpt lat="45.19837" lon="5.99243">
        <ele>2379</ele>
        <time>2022-01-16T09:19:17Z</time>
      </trkpt>
      <trkpt lat="45.19837" lon="5.99239">
        <ele>2379.6</ele>
        <time>2022-01-16T09:19:20Z</time>
      </trkpt>
      <trkpt lat="45.19836" lon="5.99235">
        <ele>2380.2</ele>
        <time>2022-01-16T09:19:23Z</time>
      </trkpt>
      <trkpt lat="45.19835" lon="5.9923">
        <ele>2380.8</ele>
        <time>2022-01-16T09:19:26Z</time>
      </trkpt>
      <trkpt lat="45.19835" lon="5.99223">
        <ele>2381.8</ele>
        <time>2022-01-16T09:19:31Z</time>
      </trkpt>
      <trkpt lat="45.19835" lon="5.99221">
        <ele>2382</ele>
        <time>2022-01-16T09:19:32Z</time>
      </trkpt>
      <trkpt lat="45.19835" lon="5.99219">
        <ele>2382</ele>
        <time>2022-01-16T09:19:33Z</time>
      </trkpt>
      <trkpt lat="45.19835" lon="5.99214">
        <ele>2382.4</ele>
        <time>2022-01-16T09:19:36Z</time>
      </trkpt>
      <trkpt lat="45.19834" lon="5.99211">
        <ele>2382.8</ele>
        <time>2022-01-16T09:19:38Z</time>
      </trkpt>
      <trkpt lat="45.19835" lon="5.99208">
        <ele>2383.4</ele>
        <time>2022-01-16T09:19:40Z</time>
      </trkpt>
      <trkpt lat="45.19834" lon="5.99206">
        <ele>2383.8</ele>
        <time>2022-01-16T09:19:41Z</time>
      </trkpt>
      <trkpt lat="45.19834" lon="5.99199">
        <ele>2384.2</ele>
        <time>2022-01-16T09:19:45Z</time>
      </trkpt>
      <trkpt lat="45.19833" lon="5.99197">
        <ele>2384.6</ele>
        <time>2022-01-16T09:19:46Z</time>
      </trkpt>
      <trkpt lat="45.19834" lon="5.99196">
        <ele>2384.8</ele>
        <time>2022-01-16T09:19:47Z</time>
      </trkpt>
      <trkpt lat="45.19834" lon="5.99193">
        <ele>2385.4</ele>
        <time>2022-01-16T09:19:49Z</time>
      </trkpt>
      <trkpt lat="45.19834" lon="5.99188">
        <ele>2386</ele>
        <time>2022-01-16T09:19:52Z</time>
      </trkpt>
      <trkpt lat="45.19834" lon="5.99181">
        <ele>2387</ele>
        <time>2022-01-16T09:19:57Z</time>
      </trkpt>
      <trkpt lat="45.19833" lon="5.99179">
        <ele>2387.6</ele>
        <time>2022-01-16T09:19:59Z</time>
      </trkpt>
      <trkpt lat="45.19831" lon="5.99177">
        <ele>2388.2</ele>
        <time>2022-01-16T09:20:02Z</time>
      </trkpt>
      <trkpt lat="45.19828" lon="5.99174">
        <ele>2389.4</ele>
        <time>2022-01-16T09:20:07Z</time>
      </trkpt>
      <trkpt lat="45.19825" lon="5.99169">
        <ele>2390.4</ele>
        <time>2022-01-16T09:20:12Z</time>
      </trkpt>
      <trkpt lat="45.19824" lon="5.99167">
        <ele>2390.8</ele>
        <time>2022-01-16T09:20:14Z</time>
      </trkpt>
      <trkpt lat="45.19822" lon="5.99163">
        <ele>2391.6</ele>
        <time>2022-01-16T09:20:17Z</time>
      </trkpt>
      <trkpt lat="45.19818" lon="5.99154">
        <ele>2392.8</ele>
        <time>2022-01-16T09:20:23Z</time>
      </trkpt>
      <trkpt lat="45.19817" lon="5.99153">
        <ele>2393.4</ele>
        <time>2022-01-16T09:20:25Z</time>
      </trkpt>
      <trkpt lat="45.19815" lon="5.9915">
        <ele>2393.4</ele>
        <time>2022-01-16T09:20:27Z</time>
      </trkpt>
      <trkpt lat="45.19813" lon="5.99147">
        <ele>2394</ele>
        <time>2022-01-16T09:20:30Z</time>
      </trkpt>
      <trkpt lat="45.1981" lon="5.99144">
        <ele>2394.6</ele>
        <time>2022-01-16T09:20:34Z</time>
      </trkpt>
      <trkpt lat="45.19809" lon="5.99142">
        <ele>2395</ele>
        <time>2022-01-16T09:20:36Z</time>
      </trkpt>
      <trkpt lat="45.19803" lon="5.99137">
        <ele>2396</ele>
        <time>2022-01-16T09:20:42Z</time>
      </trkpt>
      <trkpt lat="45.19802" lon="5.99136">
        <ele>2396.4</ele>
        <time>2022-01-16T09:20:43Z</time>
      </trkpt>
      <trkpt lat="45.19797" lon="5.99132">
        <ele>2397</ele>
        <time>2022-01-16T09:20:49Z</time>
      </trkpt>
      <trkpt lat="45.19796" lon="5.99131">
        <ele>2397.4</ele>
        <time>2022-01-16T09:20:50Z</time>
      </trkpt>
      <trkpt lat="45.19795" lon="5.9913">
        <ele>2397.6</ele>
        <time>2022-01-16T09:20:52Z</time>
      </trkpt>
      <trkpt lat="45.1979" lon="5.99125">
        <ele>2398.8</ele>
        <time>2022-01-16T09:20:57Z</time>
      </trkpt>
      <trkpt lat="45.19786" lon="5.99121">
        <ele>2400</ele>
        <time>2022-01-16T09:21:02Z</time>
      </trkpt>
      <trkpt lat="45.19784" lon="5.9912">
        <ele>2400.6</ele>
        <time>2022-01-16T09:21:05Z</time>
      </trkpt>
      <trkpt lat="45.19782" lon="5.99118">
        <ele>2401</ele>
        <time>2022-01-16T09:21:07Z</time>
      </trkpt>
      <trkpt lat="45.19776" lon="5.99114">
        <ele>2402</ele>
        <time>2022-01-16T09:21:13Z</time>
      </trkpt>
      <trkpt lat="45.19775" lon="5.99114">
        <ele>2402</ele>
        <time>2022-01-16T09:21:14Z</time>
      </trkpt>
      <trkpt lat="45.1977" lon="5.9911">
        <ele>2402.6</ele>
        <time>2022-01-16T09:21:19Z</time>
      </trkpt>
      <trkpt lat="45.19768" lon="5.99107">
        <ele>2403.4</ele>
        <time>2022-01-16T09:21:22Z</time>
      </trkpt>
      <trkpt lat="45.19767" lon="5.99106">
        <ele>2403.6</ele>
        <time>2022-01-16T09:21:24Z</time>
      </trkpt>
      <trkpt lat="45.19765" lon="5.99106">
        <ele>2404.6</ele>
        <time>2022-01-16T09:21:26Z</time>
      </trkpt>
      <trkpt lat="45.19763" lon="5.99104">
        <ele>2404.8</ele>
        <time>2022-01-16T09:21:29Z</time>
      </trkpt>
      <trkpt lat="45.19761" lon="5.99104">
        <ele>2406</ele>
        <time>2022-01-16T09:21:32Z</time>
      </trkpt>
      <trkpt lat="45.19757" lon="5.99105">
        <ele>2406.4</ele>
        <time>2022-01-16T09:21:36Z</time>
      </trkpt>
      <trkpt lat="45.19756" lon="5.99105">
        <ele>2407</ele>
        <time>2022-01-16T09:21:37Z</time>
      </trkpt>
      <trkpt lat="45.19754" lon="5.99104">
        <ele>2407.6</ele>
        <time>2022-01-16T09:21:39Z</time>
      </trkpt>
      <trkpt lat="45.1975" lon="5.99105">
        <ele>2407.6</ele>
        <time>2022-01-16T09:21:42Z</time>
      </trkpt>
      <trkpt lat="45.1975" lon="5.99105">
        <ele>2408.4</ele>
        <time>2022-01-16T09:21:43Z</time>
      </trkpt>
      <trkpt lat="45.19749" lon="5.99105">
        <ele>2408.6</ele>
        <time>2022-01-16T09:21:44Z</time>
      </trkpt>
      <trkpt lat="45.19748" lon="5.99105">
        <ele>2408.8</ele>
        <time>2022-01-16T09:21:45Z</time>
      </trkpt>
      <trkpt lat="45.19749" lon="5.99105">
        <ele>2409.6</ele>
        <time>2022-01-16T09:21:46Z</time>
      </trkpt>
      <trkpt lat="45.19748" lon="5.99105">
        <ele>2409.6</ele>
        <time>2022-01-16T09:21:47Z</time>
      </trkpt>
      <trkpt lat="45.19748" lon="5.99106">
        <ele>2410</ele>
        <time>2022-01-16T09:21:48Z</time>
      </trkpt>
      <trkpt lat="45.19749" lon="5.99108">
        <ele>2410.8</ele>
        <time>2022-01-16T09:21:50Z</time>
      </trkpt>
      <trkpt lat="45.19749" lon="5.99111">
        <ele>2411.4</ele>
        <time>2022-01-16T09:21:54Z</time>
      </trkpt>
      <trkpt lat="45.1975" lon="5.99114">
        <ele>2412.4</ele>
        <time>2022-01-16T09:21:57Z</time>
      </trkpt>
      <trkpt lat="45.19751" lon="5.99116">
        <ele>2413</ele>
        <time>2022-01-16T09:21:59Z</time>
      </trkpt>
      <trkpt lat="45.1975" lon="5.99118">
        <ele>2413.2</ele>
        <time>2022-01-16T09:22:01Z</time>
      </trkpt>
      <trkpt lat="45.1975" lon="5.99119">
        <ele>2413.2</ele>
        <time>2022-01-16T09:22:02Z</time>
      </trkpt>
      <trkpt lat="45.19749" lon="5.99122">
        <ele>2413.6</ele>
        <time>2022-01-16T09:22:04Z</time>
      </trkpt>
      <trkpt lat="45.19748" lon="5.99126">
        <ele>2414.6</ele>
        <time>2022-01-16T09:22:08Z</time>
      </trkpt>
      <trkpt lat="45.19749" lon="5.9913">
        <ele>2415.8</ele>
        <time>2022-01-16T09:22:12Z</time>
      </trkpt>
      <trkpt lat="45.19748" lon="5.99136">
        <ele>2417</ele>
        <time>2022-01-16T09:22:17Z</time>
      </trkpt>
      <trkpt lat="45.19748" lon="5.99137">
        <ele>2417.2</ele>
        <time>2022-01-16T09:22:18Z</time>
      </trkpt>
      <trkpt lat="45.19748" lon="5.99143">
        <ele>2418</ele>
        <time>2022-01-16T09:22:23Z</time>
      </trkpt>
      <trkpt lat="45.19748" lon="5.99145">
        <ele>2418.2</ele>
        <time>2022-01-16T09:22:24Z</time>
      </trkpt>
      <trkpt lat="45.19748" lon="5.99147">
        <ele>2419.2</ele>
        <time>2022-01-16T09:22:26Z</time>
      </trkpt>
      <trkpt lat="45.19747" lon="5.99149">
        <ele>2419.2</ele>
        <time>2022-01-16T09:22:27Z</time>
      </trkpt>
      <trkpt lat="45.19745" lon="5.99153">
        <ele>2419.8</ele>
        <time>2022-01-16T09:22:31Z</time>
      </trkpt>
      <trkpt lat="45.19745" lon="5.99156">
        <ele>2420</ele>
        <time>2022-01-16T09:22:33Z</time>
      </trkpt>
      <trkpt lat="45.19745" lon="5.99157">
        <ele>2420.4</ele>
        <time>2022-01-16T09:22:34Z</time>
      </trkpt>
      <trkpt lat="45.19744" lon="5.99163">
        <ele>2421.2</ele>
        <time>2022-01-16T09:22:39Z</time>
      </trkpt>
      <trkpt lat="45.19744" lon="5.99164">
        <ele>2422</ele>
        <time>2022-01-16T09:22:40Z</time>
      </trkpt>
      <trkpt lat="45.19744" lon="5.9917">
        <ele>2422.8</ele>
        <time>2022-01-16T09:22:46Z</time>
      </trkpt>
      <trkpt lat="45.19744" lon="5.99173">
        <ele>2423.2</ele>
        <time>2022-01-16T09:22:49Z</time>
      </trkpt>
      <trkpt lat="45.19744" lon="5.99176">
        <ele>2424.2</ele>
        <time>2022-01-16T09:22:52Z</time>
      </trkpt>
      <trkpt lat="45.19744" lon="5.99177">
        <ele>2424.4</ele>
        <time>2022-01-16T09:22:53Z</time>
      </trkpt>
      <trkpt lat="45.19743" lon="5.99181">
        <ele>2425.6</ele>
        <time>2022-01-16T09:22:57Z</time>
      </trkpt>
      <trkpt lat="45.19743" lon="5.99185">
        <ele>2426.2</ele>
        <time>2022-01-16T09:23:00Z</time>
      </trkpt>
      <trkpt lat="45.19743" lon="5.99189">
        <ele>2427</ele>
        <time>2022-01-16T09:23:04Z</time>
      </trkpt>
      <trkpt lat="45.19742" lon="5.99193">
        <ele>2427.8</ele>
        <time>2022-01-16T09:23:08Z</time>
      </trkpt>
      <trkpt lat="45.19742" lon="5.99193">
        <ele>2428</ele>
        <time>2022-01-16T09:23:09Z</time>
      </trkpt>
      <trkpt lat="45.19739" lon="5.99192">
        <ele>2428.2</ele>
        <time>2022-01-16T09:23:13Z</time>
      </trkpt>
      <trkpt lat="45.19737" lon="5.99191">
        <ele>2428.6</ele>
        <time>2022-01-16T09:23:15Z</time>
      </trkpt>
      <trkpt lat="45.19736" lon="5.99189">
        <ele>2429.4</ele>
        <time>2022-01-16T09:23:17Z</time>
      </trkpt>
      <trkpt lat="45.19732" lon="5.99187">
        <ele>2430.4</ele>
        <time>2022-01-16T09:23:22Z</time>
      </trkpt>
      <trkpt lat="45.19729" lon="5.99184">
        <ele>2431.2</ele>
        <time>2022-01-16T09:23:25Z</time>
      </trkpt>
      <trkpt lat="45.19728" lon="5.99182">
        <ele>2431.6</ele>
        <time>2022-01-16T09:23:27Z</time>
      </trkpt>
      <trkpt lat="45.19727" lon="5.99181">
        <ele>2431.8</ele>
        <time>2022-01-16T09:23:28Z</time>
      </trkpt>
      <trkpt lat="45.19725" lon="5.99179">
        <ele>2432.4</ele>
        <time>2022-01-16T09:23:31Z</time>
      </trkpt>
      <trkpt lat="45.19724" lon="5.99179">
        <ele>2433.4</ele>
        <time>2022-01-16T09:23:33Z</time>
      </trkpt>
      <trkpt lat="45.19723" lon="5.99178">
        <ele>2433.6</ele>
        <time>2022-01-16T09:23:34Z</time>
      </trkpt>
      <trkpt lat="45.19722" lon="5.99178">
        <ele>2433.6</ele>
        <time>2022-01-16T09:23:35Z</time>
      </trkpt>
      <trkpt lat="45.19718" lon="5.99176">
        <ele>2434.6</ele>
        <time>2022-01-16T09:23:39Z</time>
      </trkpt>
      <trkpt lat="45.19716" lon="5.99174">
        <ele>2435.4</ele>
        <time>2022-01-16T09:23:42Z</time>
      </trkpt>
      <trkpt lat="45.19714" lon="5.99172">
        <ele>2436</ele>
        <time>2022-01-16T09:23:45Z</time>
      </trkpt>
      <trkpt lat="45.19713" lon="5.9917">
        <ele>2436.4</ele>
        <time>2022-01-16T09:23:47Z</time>
      </trkpt>
      <trkpt lat="45.1971" lon="5.9917">
        <ele>2437.6</ele>
        <time>2022-01-16T09:23:50Z</time>
      </trkpt>
      <trkpt lat="45.19706" lon="5.99166">
        <ele>2438.6</ele>
        <time>2022-01-16T09:23:56Z</time>
      </trkpt>
      <trkpt lat="45.19705" lon="5.99166">
        <ele>2439.2</ele>
        <time>2022-01-16T09:23:57Z</time>
      </trkpt>
      <trkpt lat="45.19703" lon="5.99164">
        <ele>2439.8</ele>
        <time>2022-01-16T09:24:00Z</time>
      </trkpt>
      <trkpt lat="45.19701" lon="5.99161">
        <ele>2440.4</ele>
        <time>2022-01-16T09:24:03Z</time>
      </trkpt>
      <trkpt lat="45.19698" lon="5.99158">
        <ele>2441.6</ele>
        <time>2022-01-16T09:24:07Z</time>
      </trkpt>
      <trkpt lat="45.19698" lon="5.99157">
        <ele>2441.6</ele>
        <time>2022-01-16T09:24:08Z</time>
      </trkpt>
      <trkpt lat="45.19697" lon="5.99156">
        <ele>2442.6</ele>
        <time>2022-01-16T09:24:11Z</time>
      </trkpt>
      <trkpt lat="45.19697" lon="5.99156">
        <ele>2442.8</ele>
        <time>2022-01-16T09:24:12Z</time>
      </trkpt>
      <trkpt lat="45.19697" lon="5.99156">
        <ele>2443</ele>
        <time>2022-01-16T09:24:13Z</time>
      </trkpt>
      <trkpt lat="45.19697" lon="5.99157">
        <ele>2443.6</ele>
        <time>2022-01-16T09:24:14Z</time>
      </trkpt>
      <trkpt lat="45.19698" lon="5.9916">
        <ele>2444.8</ele>
        <time>2022-01-16T09:24:17Z</time>
      </trkpt>
      <trkpt lat="45.19698" lon="5.99164">
        <ele>2445.2</ele>
        <time>2022-01-16T09:24:21Z</time>
      </trkpt>
      <trkpt lat="45.19699" lon="5.99167">
        <ele>2446.4</ele>
        <time>2022-01-16T09:24:24Z</time>
      </trkpt>
      <trkpt lat="45.19699" lon="5.9917">
        <ele>2447.4</ele>
        <time>2022-01-16T09:24:28Z</time>
      </trkpt>
      <trkpt lat="45.197" lon="5.99172">
        <ele>2447.4</ele>
        <time>2022-01-16T09:24:29Z</time>
      </trkpt>
      <trkpt lat="45.19701" lon="5.99175">
        <ele>2448.2</ele>
        <time>2022-01-16T09:24:32Z</time>
      </trkpt>
      <trkpt lat="45.19703" lon="5.99179">
        <ele>2448.8</ele>
        <time>2022-01-16T09:24:35Z</time>
      </trkpt>
      <trkpt lat="45.19705" lon="5.99185">
        <ele>2449.8</ele>
        <time>2022-01-16T09:24:40Z</time>
      </trkpt>
      <trkpt lat="45.19705" lon="5.99187">
        <ele>2450.4</ele>
        <time>2022-01-16T09:24:42Z</time>
      </trkpt>
      <trkpt lat="45.19704" lon="5.99187">
        <ele>2450.8</ele>
        <time>2022-01-16T09:24:46Z</time>
      </trkpt>
      <trkpt lat="45.19701" lon="5.99186">
        <ele>2451</ele>
        <time>2022-01-16T09:24:49Z</time>
      </trkpt>
      <trkpt lat="45.19697" lon="5.99184">
        <ele>2452</ele>
        <time>2022-01-16T09:24:54Z</time>
      </trkpt>
      <trkpt lat="45.19696" lon="5.99183">
        <ele>2452.6</ele>
        <time>2022-01-16T09:24:55Z</time>
      </trkpt>
      <trkpt lat="45.19693" lon="5.99181">
        <ele>2453.6</ele>
        <time>2022-01-16T09:24:58Z</time>
      </trkpt>
      <trkpt lat="45.1969" lon="5.99179">
        <ele>2453.8</ele>
        <time>2022-01-16T09:25:01Z</time>
      </trkpt>
      <trkpt lat="45.1969" lon="5.99178">
        <ele>2453.8</ele>
        <time>2022-01-16T09:25:02Z</time>
      </trkpt>
      <trkpt lat="45.19688" lon="5.99175">
        <ele>2454.6</ele>
        <time>2022-01-16T09:25:05Z</time>
      </trkpt>
      <trkpt lat="45.19685" lon="5.99172">
        <ele>2455.2</ele>
        <time>2022-01-16T09:25:08Z</time>
      </trkpt>
      <trkpt lat="45.19685" lon="5.99171">
        <ele>2455.8</ele>
        <time>2022-01-16T09:25:09Z</time>
      </trkpt>
      <trkpt lat="45.19683" lon="5.99169">
        <ele>2456.2</ele>
        <time>2022-01-16T09:25:12Z</time>
      </trkpt>
      <trkpt lat="45.19682" lon="5.99168">
        <ele>2456.2</ele>
        <time>2022-01-16T09:25:13Z</time>
      </trkpt>
      <trkpt lat="45.19678" lon="5.99167">
        <ele>2457.2</ele>
        <time>2022-01-16T09:25:15Z</time>
      </trkpt>
      <trkpt lat="45.19675" lon="5.99165">
        <ele>2458.2</ele>
        <time>2022-01-16T09:25:18Z</time>
      </trkpt>
      <trkpt lat="45.19676" lon="5.99165">
        <ele>2458.2</ele>
        <time>2022-01-16T09:25:20Z</time>
      </trkpt>
      <trkpt lat="45.19677" lon="5.99169">
        <ele>2459.6</ele>
        <time>2022-01-16T09:25:25Z</time>
      </trkpt>
      <trkpt lat="45.19678" lon="5.9917">
        <ele>2459.8</ele>
        <time>2022-01-16T09:25:26Z</time>
      </trkpt>
      <trkpt lat="45.19678" lon="5.99171">
        <ele>2460</ele>
        <time>2022-01-16T09:25:27Z</time>
      </trkpt>
      <trkpt lat="45.19679" lon="5.99173">
        <ele>2460.6</ele>
        <time>2022-01-16T09:25:29Z</time>
      </trkpt>
      <trkpt lat="45.19678" lon="5.99174">
        <ele>2460.8</ele>
        <time>2022-01-16T09:25:30Z</time>
      </trkpt>
      <trkpt lat="45.19679" lon="5.99175">
        <ele>2460.8</ele>
        <time>2022-01-16T09:25:31Z</time>
      </trkpt>
      <trkpt lat="45.19679" lon="5.99177">
        <ele>2461.6</ele>
        <time>2022-01-16T09:25:33Z</time>
      </trkpt>
      <trkpt lat="45.19678" lon="5.99178">
        <ele>2461.8</ele>
        <time>2022-01-16T09:25:34Z</time>
      </trkpt>
      <trkpt lat="45.19677" lon="5.99179">
        <ele>2461.8</ele>
        <time>2022-01-16T09:25:35Z</time>
      </trkpt>
      <trkpt lat="45.19676" lon="5.9918">
        <ele>2462.2</ele>
        <time>2022-01-16T09:25:36Z</time>
      </trkpt>
      <trkpt lat="45.19676" lon="5.99179">
        <ele>2463</ele>
        <time>2022-01-16T09:25:39Z</time>
      </trkpt>
      <trkpt lat="45.19676" lon="5.99178">
        <ele>2463.2</ele>
        <time>2022-01-16T09:25:40Z</time>
      </trkpt>
      <trkpt lat="45.19675" lon="5.99176">
        <ele>2463.2</ele>
        <time>2022-01-16T09:25:42Z</time>
      </trkpt>
      <trkpt lat="45.19673" lon="5.99172">
        <ele>2464</ele>
        <time>2022-01-16T09:25:46Z</time>
      </trkpt>
      <trkpt lat="45.19673" lon="5.99171">
        <ele>2464.4</ele>
        <time>2022-01-16T09:25:47Z</time>
      </trkpt>
      <trkpt lat="45.19671" lon="5.99169">
        <ele>2465.2</ele>
        <time>2022-01-16T09:25:50Z</time>
      </trkpt>
      <trkpt lat="45.19671" lon="5.99167">
        <ele>2466.2</ele>
        <time>2022-01-16T09:25:53Z</time>
      </trkpt>
      <trkpt lat="45.19671" lon="5.99172">
        <ele>2468</ele>
        <time>2022-01-16T09:25:59Z</time>
      </trkpt>
      <trkpt lat="45.19671" lon="5.99173">
        <ele>2468</ele>
        <time>2022-01-16T09:26:00Z</time>
      </trkpt>
      <trkpt lat="45.19671" lon="5.99177">
        <ele>2469</ele>
        <time>2022-01-16T09:26:04Z</time>
      </trkpt>
      <trkpt lat="45.19671" lon="5.99178">
        <ele>2469</ele>
        <time>2022-01-16T09:26:05Z</time>
      </trkpt>
      <trkpt lat="45.19671" lon="5.9918">
        <ele>2469.6</ele>
        <time>2022-01-16T09:26:07Z</time>
      </trkpt>
      <trkpt lat="45.19671" lon="5.99184">
        <ele>2470.2</ele>
        <time>2022-01-16T09:26:10Z</time>
      </trkpt>
      <trkpt lat="45.19671" lon="5.99185">
        <ele>2470.4</ele>
        <time>2022-01-16T09:26:11Z</time>
      </trkpt>
      <trkpt lat="45.19673" lon="5.9919">
        <ele>2471.4</ele>
        <time>2022-01-16T09:26:15Z</time>
      </trkpt>
      <trkpt lat="45.19674" lon="5.99193">
        <ele>2471.8</ele>
        <time>2022-01-16T09:26:18Z</time>
      </trkpt>
      <trkpt lat="45.19674" lon="5.99196">
        <ele>2472.4</ele>
        <time>2022-01-16T09:26:20Z</time>
      </trkpt>
      <trkpt lat="45.19675" lon="5.99198">
        <ele>2473.2</ele>
        <time>2022-01-16T09:26:24Z</time>
      </trkpt>
      <trkpt lat="45.19675" lon="5.99197">
        <ele>2473.6</ele>
        <time>2022-01-16T09:26:27Z</time>
      </trkpt>
      <trkpt lat="45.19673" lon="5.99194">
        <ele>2474.4</ele>
        <time>2022-01-16T09:26:31Z</time>
      </trkpt>
      <trkpt lat="45.19671" lon="5.99193">
        <ele>2474.8</ele>
        <time>2022-01-16T09:26:33Z</time>
      </trkpt>
      <trkpt lat="45.19668" lon="5.99192">
        <ele>2475.4</ele>
        <time>2022-01-16T09:26:36Z</time>
      </trkpt>
      <trkpt lat="45.19667" lon="5.99192">
        <ele>2476</ele>
        <time>2022-01-16T09:26:38Z</time>
      </trkpt>
      <trkpt lat="45.19665" lon="5.99194">
        <ele>2476.2</ele>
        <time>2022-01-16T09:26:40Z</time>
      </trkpt>
      <trkpt lat="45.19666" lon="5.99197">
        <ele>2477.2</ele>
        <time>2022-01-16T09:26:44Z</time>
      </trkpt>
      <trkpt lat="45.19668" lon="5.99202">
        <ele>2478.2</ele>
        <time>2022-01-16T09:26:48Z</time>
      </trkpt>
      <trkpt lat="45.19667" lon="5.99204">
        <ele>2478.8</ele>
        <time>2022-01-16T09:26:50Z</time>
      </trkpt>
      <trkpt lat="45.19668" lon="5.99207">
        <ele>2479.6</ele>
        <time>2022-01-16T09:26:53Z</time>
      </trkpt>
      <trkpt lat="45.19668" lon="5.99208">
        <ele>2480.2</ele>
        <time>2022-01-16T09:26:54Z</time>
      </trkpt>
      <trkpt lat="45.1967" lon="5.99214">
        <ele>2480.6</ele>
        <time>2022-01-16T09:26:59Z</time>
      </trkpt>
      <trkpt lat="45.1967" lon="5.99216">
        <ele>2481.2</ele>
        <time>2022-01-16T09:27:01Z</time>
      </trkpt>
      <trkpt lat="45.19671" lon="5.99222">
        <ele>2482.6</ele>
        <time>2022-01-16T09:27:07Z</time>
      </trkpt>
      <trkpt lat="45.19672" lon="5.99228">
        <ele>2483.8</ele>
        <time>2022-01-16T09:27:12Z</time>
      </trkpt>
      <trkpt lat="45.19673" lon="5.99233">
        <ele>2485</ele>
        <time>2022-01-16T09:27:16Z</time>
      </trkpt>
      <trkpt lat="45.19673" lon="5.99233">
        <ele>2485.2</ele>
        <time>2022-01-16T09:27:17Z</time>
      </trkpt>
      <trkpt lat="45.19673" lon="5.99238">
        <ele>2486.2</ele>
        <time>2022-01-16T09:27:20Z</time>
      </trkpt>
      <trkpt lat="45.19674" lon="5.99242">
        <ele>2487</ele>
        <time>2022-01-16T09:27:24Z</time>
      </trkpt>
      <trkpt lat="45.19674" lon="5.99243">
        <ele>2487.4</ele>
        <time>2022-01-16T09:27:25Z</time>
      </trkpt>
      <trkpt lat="45.19674" lon="5.99245">
        <ele>2487.4</ele>
        <time>2022-01-16T09:27:26Z</time>
      </trkpt>
      <trkpt lat="45.19674" lon="5.99248">
        <ele>2488</ele>
        <time>2022-01-16T09:27:29Z</time>
      </trkpt>
      <trkpt lat="45.19674" lon="5.99249">
        <ele>2488.2</ele>
        <time>2022-01-16T09:27:30Z</time>
      </trkpt>
      <trkpt lat="45.19674" lon="5.9925">
        <ele>2488.8</ele>
        <time>2022-01-16T09:27:31Z</time>
      </trkpt>
      <trkpt lat="45.19675" lon="5.99255">
        <ele>2489.6</ele>
        <time>2022-01-16T09:27:36Z</time>
      </trkpt>
      <trkpt lat="45.19675" lon="5.99256">
        <ele>2489.8</ele>
        <time>2022-01-16T09:27:37Z</time>
      </trkpt>
      <trkpt lat="45.19675" lon="5.99256">
        <ele>2490.2</ele>
        <time>2022-01-16T09:27:38Z</time>
      </trkpt>
      <trkpt lat="45.19673" lon="5.99258">
        <ele>2490.2</ele>
        <time>2022-01-16T09:27:44Z</time>
      </trkpt>
      <trkpt lat="45.19672" lon="5.99257">
        <ele>2490.6</ele>
        <time>2022-01-16T09:27:46Z</time>
      </trkpt>
      <trkpt lat="45.19671" lon="5.99256">
        <ele>2491.6</ele>
        <time>2022-01-16T09:27:47Z</time>
      </trkpt>
      <trkpt lat="45.19668" lon="5.99252">
        <ele>2492.6</ele>
        <time>2022-01-16T09:27:53Z</time>
      </trkpt>
      <trkpt lat="45.19666" lon="5.99251">
        <ele>2494</ele>
        <time>2022-01-16T09:27:56Z</time>
      </trkpt>
      <trkpt lat="45.19665" lon="5.99251">
        <ele>2495</ele>
        <time>2022-01-16T09:28:00Z</time>
      </trkpt>
      <trkpt lat="45.19665" lon="5.99252">
        <ele>2495</ele>
        <time>2022-01-16T09:28:01Z</time>
      </trkpt>
      <trkpt lat="45.19666" lon="5.99255">
        <ele>2496.2</ele>
        <time>2022-01-16T09:28:05Z</time>
      </trkpt>
      <trkpt lat="45.19666" lon="5.99258">
        <ele>2496.4</ele>
        <time>2022-01-16T09:28:07Z</time>
      </trkpt>
      <trkpt lat="45.19667" lon="5.99261">
        <ele>2497.2</ele>
        <time>2022-01-16T09:28:11Z</time>
      </trkpt>
      <trkpt lat="45.19666" lon="5.99264">
        <ele>2498.4</ele>
        <time>2022-01-16T09:28:14Z</time>
      </trkpt>
      <trkpt lat="45.19666" lon="5.9927">
        <ele>2499.4</ele>
        <time>2022-01-16T09:28:19Z</time>
      </trkpt>
      <trkpt lat="45.19665" lon="5.99272">
        <ele>2500.6</ele>
        <time>2022-01-16T09:28:22Z</time>
      </trkpt>
      <trkpt lat="45.19664" lon="5.99277">
        <ele>2501.6</ele>
        <time>2022-01-16T09:28:27Z</time>
      </trkpt>
      <trkpt lat="45.19665" lon="5.99279">
        <ele>2502.2</ele>
        <time>2022-01-16T09:28:29Z</time>
      </trkpt>
      <trkpt lat="45.19666" lon="5.99282">
        <ele>2502.6</ele>
        <time>2022-01-16T09:28:31Z</time>
      </trkpt>
      <trkpt lat="45.19665" lon="5.99284">
        <ele>2502.8</ele>
        <time>2022-01-16T09:28:33Z</time>
      </trkpt>
      <trkpt lat="45.19665" lon="5.99285">
        <ele>2503</ele>
        <time>2022-01-16T09:28:34Z</time>
      </trkpt>
      <trkpt lat="45.19665" lon="5.99288">
        <ele>2504</ele>
        <time>2022-01-16T09:28:36Z</time>
      </trkpt>
      <trkpt lat="45.19664" lon="5.9929">
        <ele>2504</ele>
        <time>2022-01-16T09:28:38Z</time>
      </trkpt>
      <trkpt lat="45.19662" lon="5.9929">
        <ele>2504.6</ele>
        <time>2022-01-16T09:28:40Z</time>
      </trkpt>
      <trkpt lat="45.1966" lon="5.99288">
        <ele>2505</ele>
        <time>2022-01-16T09:28:43Z</time>
      </trkpt>
      <trkpt lat="45.19658" lon="5.99285">
        <ele>2505.4</ele>
        <time>2022-01-16T09:28:47Z</time>
      </trkpt>
      <trkpt lat="45.19657" lon="5.99284">
        <ele>2506</ele>
        <time>2022-01-16T09:28:50Z</time>
      </trkpt>
      <trkpt lat="45.19657" lon="5.99285">
        <ele>2506.6</ele>
        <time>2022-01-16T09:28:53Z</time>
      </trkpt>
      <trkpt lat="45.19657" lon="5.99286">
        <ele>2507</ele>
        <time>2022-01-16T09:28:54Z</time>
      </trkpt>
      <trkpt lat="45.19658" lon="5.99292">
        <ele>2508</ele>
        <time>2022-01-16T09:28:59Z</time>
      </trkpt>
      <trkpt lat="45.19659" lon="5.99295">
        <ele>2509.2</ele>
        <time>2022-01-16T09:29:02Z</time>
      </trkpt>
      <trkpt lat="45.19659" lon="5.99296">
        <ele>2509.2</ele>
        <time>2022-01-16T09:29:03Z</time>
      </trkpt>
      <trkpt lat="45.19659" lon="5.99299">
        <ele>2509.6</ele>
        <time>2022-01-16T09:29:05Z</time>
      </trkpt>
      <trkpt lat="45.19659" lon="5.993">
        <ele>2509.6</ele>
        <time>2022-01-16T09:29:06Z</time>
      </trkpt>
      <trkpt lat="45.19659" lon="5.99302">
        <ele>2510.4</ele>
        <time>2022-01-16T09:29:08Z</time>
      </trkpt>
      <trkpt lat="45.1966" lon="5.9931">
        <ele>2511.6</ele>
        <time>2022-01-16T09:29:14Z</time>
      </trkpt>
      <trkpt lat="45.1966" lon="5.99312">
        <ele>2511.8</ele>
        <time>2022-01-16T09:29:16Z</time>
      </trkpt>
      <trkpt lat="45.1966" lon="5.99319">
        <ele>2513.2</ele>
        <time>2022-01-16T09:29:21Z</time>
      </trkpt>
      <trkpt lat="45.19661" lon="5.9932">
        <ele>2513.4</ele>
        <time>2022-01-16T09:29:22Z</time>
      </trkpt>
      <trkpt lat="45.19661" lon="5.99327">
        <ele>2514.2</ele>
        <time>2022-01-16T09:29:28Z</time>
      </trkpt>
      <trkpt lat="45.19661" lon="5.99328">
        <ele>2514.4</ele>
        <time>2022-01-16T09:29:29Z</time>
      </trkpt>
      <trkpt lat="45.19663" lon="5.99333">
        <ele>2515.4</ele>
        <time>2022-01-16T09:29:33Z</time>
      </trkpt>
      <trkpt lat="45.19663" lon="5.99334">
        <ele>2516</ele>
        <time>2022-01-16T09:29:34Z</time>
      </trkpt>
      <trkpt lat="45.19663" lon="5.99337">
        <ele>2516.2</ele>
        <time>2022-01-16T09:29:36Z</time>
      </trkpt>
      <trkpt lat="45.19664" lon="5.99341">
        <ele>2517.2</ele>
        <time>2022-01-16T09:29:40Z</time>
      </trkpt>
      <trkpt lat="45.19662" lon="5.99343">
        <ele>2517.6</ele>
        <time>2022-01-16T09:29:42Z</time>
      </trkpt>
      <trkpt lat="45.19661" lon="5.99343">
        <ele>2517.6</ele>
        <time>2022-01-16T09:29:43Z</time>
      </trkpt>
      <trkpt lat="45.19658" lon="5.99346">
        <ele>2518.6</ele>
        <time>2022-01-16T09:29:47Z</time>
      </trkpt>
      <trkpt lat="45.19655" lon="5.99348">
        <ele>2520</ele>
        <time>2022-01-16T09:29:51Z</time>
      </trkpt>
      <trkpt lat="45.19655" lon="5.99349">
        <ele>2520</ele>
        <time>2022-01-16T09:29:52Z</time>
      </trkpt>
      <trkpt lat="45.19655" lon="5.9935">
        <ele>2521.2</ele>
        <time>2022-01-16T09:29:54Z</time>
      </trkpt>
      <trkpt lat="45.19658" lon="5.99356">
        <ele>2522.4</ele>
        <time>2022-01-16T09:30:00Z</time>
      </trkpt>
      <trkpt lat="45.19659" lon="5.99358">
        <ele>2523.2</ele>
        <time>2022-01-16T09:30:01Z</time>
      </trkpt>
      <trkpt lat="45.19661" lon="5.9936">
        <ele>2523.8</ele>
        <time>2022-01-16T09:30:05Z</time>
      </trkpt>
      <trkpt lat="45.19661" lon="5.99361">
        <ele>2524.2</ele>
        <time>2022-01-16T09:30:06Z</time>
      </trkpt>
      <trkpt lat="45.19661" lon="5.99361">
        <ele>2524.2</ele>
        <time>2022-01-16T09:30:07Z</time>
      </trkpt>
      <trkpt lat="45.19663" lon="5.99362">
        <ele>2524.8</ele>
        <time>2022-01-16T09:30:09Z</time>
      </trkpt>
      <trkpt lat="45.19663" lon="5.99364">
        <ele>2525.2</ele>
        <time>2022-01-16T09:30:11Z</time>
      </trkpt>
      <trkpt lat="45.19663" lon="5.99364">
        <ele>2525.4</ele>
        <time>2022-01-16T09:30:12Z</time>
      </trkpt>
      <trkpt lat="45.19661" lon="5.99363">
        <ele>2525.4</ele>
        <time>2022-01-16T09:30:18Z</time>
      </trkpt>
      <trkpt lat="45.19661" lon="5.99363">
        <ele>2525.4</ele>
        <time>2022-01-16T09:30:20Z</time>
      </trkpt>
      <trkpt lat="45.19661" lon="5.99363">
        <ele>2526.2</ele>
        <time>2022-01-16T09:30:26Z</time>
      </trkpt>
      <trkpt lat="45.19661" lon="5.99363">
        <ele>2527.4</ele>
        <time>2022-01-16T09:30:29Z</time>
      </trkpt>
      <trkpt lat="45.19662" lon="5.99366">
        <ele>2527.4</ele>
        <time>2022-01-16T09:30:31Z</time>
      </trkpt>
      <trkpt lat="45.19662" lon="5.99368">
        <ele>2527.6</ele>
        <time>2022-01-16T09:30:33Z</time>
      </trkpt>
      <trkpt lat="45.19656" lon="5.99377">
        <ele>2527.8</ele>
        <time>2022-01-16T09:30:39Z</time>
      </trkpt>
      <trkpt lat="45.19656" lon="5.99378">
        <ele>2528.6</ele>
        <time>2022-01-16T09:30:41Z</time>
      </trkpt>
      <trkpt lat="45.19655" lon="5.99378">
        <ele>2528.6</ele>
        <time>2022-01-16T09:30:42Z</time>
      </trkpt>
      <trkpt lat="45.19652" lon="5.99379">
        <ele>2529.4</ele>
        <time>2022-01-16T09:30:45Z</time>
      </trkpt>
      <trkpt lat="45.1965" lon="5.99381">
        <ele>2529.8</ele>
        <time>2022-01-16T09:30:47Z</time>
      </trkpt>
      <trkpt lat="45.1965" lon="5.99382">
        <ele>2529.8</ele>
        <time>2022-01-16T09:30:48Z</time>
      </trkpt>
      <trkpt lat="45.19648" lon="5.99384">
        <ele>2530.8</ele>
        <time>2022-01-16T09:30:51Z</time>
      </trkpt>
      <trkpt lat="45.19647" lon="5.99384">
        <ele>2531</ele>
        <time>2022-01-16T09:30:52Z</time>
      </trkpt>
      <trkpt lat="45.19643" lon="5.99385">
        <ele>2532</ele>
        <time>2022-01-16T09:30:55Z</time>
      </trkpt>
      <trkpt lat="45.19642" lon="5.99385">
        <ele>2532.4</ele>
        <time>2022-01-16T09:30:57Z</time>
      </trkpt>
      <trkpt lat="45.19641" lon="5.99384">
        <ele>2533</ele>
        <time>2022-01-16T09:30:58Z</time>
      </trkpt>
      <trkpt lat="45.19638" lon="5.99384">
        <ele>2534.6</ele>
        <time>2022-01-16T09:31:03Z</time>
      </trkpt>
      <trkpt lat="45.19638" lon="5.99386">
        <ele>2535.6</ele>
        <time>2022-01-16T09:31:06Z</time>
      </trkpt>
      <trkpt lat="45.1964" lon="5.99388">
        <ele>2536.2</ele>
        <time>2022-01-16T09:31:09Z</time>
      </trkpt>
      <trkpt lat="45.19643" lon="5.99389">
        <ele>2536.8</ele>
        <time>2022-01-16T09:31:12Z</time>
      </trkpt>
      <trkpt lat="45.19645" lon="5.99392">
        <ele>2537.4</ele>
        <time>2022-01-16T09:31:16Z</time>
      </trkpt>
      <trkpt lat="45.19647" lon="5.99393">
        <ele>2538.2</ele>
        <time>2022-01-16T09:31:19Z</time>
      </trkpt>
      <trkpt lat="45.19646" lon="5.99393">
        <ele>2538.8</ele>
        <time>2022-01-16T09:31:23Z</time>
      </trkpt>
      <trkpt lat="45.19641" lon="5.99395">
        <ele>2539.2</ele>
        <time>2022-01-16T09:31:28Z</time>
      </trkpt>
      <trkpt lat="45.1964" lon="5.99395">
        <ele>2539.2</ele>
        <time>2022-01-16T09:31:29Z</time>
      </trkpt>
      <trkpt lat="45.19639" lon="5.99395">
        <ele>2539.6</ele>
        <time>2022-01-16T09:31:30Z</time>
      </trkpt>
      <trkpt lat="45.19634" lon="5.99394">
        <ele>2541</ele>
        <time>2022-01-16T09:31:35Z</time>
      </trkpt>
      <trkpt lat="45.19634" lon="5.99394">
        <ele>2541.2</ele>
        <time>2022-01-16T09:31:36Z</time>
      </trkpt>
      <trkpt lat="45.19634" lon="5.99394">
        <ele>2541.2</ele>
        <time>2022-01-16T09:31:37Z</time>
      </trkpt>
      <trkpt lat="45.19636" lon="5.99396">
        <ele>2542</ele>
        <time>2022-01-16T09:31:42Z</time>
      </trkpt>
      <trkpt lat="45.19637" lon="5.99397">
        <ele>2542</ele>
        <time>2022-01-16T09:31:43Z</time>
      </trkpt>
      <trkpt lat="45.19642" lon="5.994">
        <ele>2543.2</ele>
        <time>2022-01-16T09:31:48Z</time>
      </trkpt>
      <trkpt lat="45.19643" lon="5.99401">
        <ele>2543.6</ele>
        <time>2022-01-16T09:31:50Z</time>
      </trkpt>
      <trkpt lat="45.19646" lon="5.99402">
        <ele>2544.6</ele>
        <time>2022-01-16T09:31:54Z</time>
      </trkpt>
      <trkpt lat="45.19646" lon="5.99403">
        <ele>2544.8</ele>
        <time>2022-01-16T09:31:55Z</time>
      </trkpt>
      <trkpt lat="45.19647" lon="5.99403">
        <ele>2545.2</ele>
        <time>2022-01-16T09:31:56Z</time>
      </trkpt>
      <trkpt lat="45.19649" lon="5.99404">
        <ele>2545.8</ele>
        <time>2022-01-16T09:31:59Z</time>
      </trkpt>
      <trkpt lat="45.19648" lon="5.99405">
        <ele>2546</ele>
        <time>2022-01-16T09:32:00Z</time>
      </trkpt>
      <trkpt lat="45.19645" lon="5.99407">
        <ele>2546.8</ele>
        <time>2022-01-16T09:32:06Z</time>
      </trkpt>
      <trkpt lat="45.19645" lon="5.99408">
        <ele>2547</ele>
        <time>2022-01-16T09:32:07Z</time>
      </trkpt>
      <trkpt lat="45.19642" lon="5.99409">
        <ele>2548</ele>
        <time>2022-01-16T09:32:11Z</time>
      </trkpt>
      <trkpt lat="45.19643" lon="5.99409">
        <ele>2548.2</ele>
        <time>2022-01-16T09:32:14Z</time>
      </trkpt>
      <trkpt lat="45.19644" lon="5.99409">
        <ele>2549.2</ele>
        <time>2022-01-16T09:32:20Z</time>
      </trkpt>
      <trkpt lat="45.19645" lon="5.9941">
        <ele>2549.2</ele>
        <time>2022-01-16T09:32:21Z</time>
      </trkpt>
      <trkpt lat="45.19647" lon="5.99411">
        <ele>2550.4</ele>
        <time>2022-01-16T09:32:24Z</time>
      </trkpt>
      <trkpt lat="45.19648" lon="5.99412">
        <ele>2551.2</ele>
        <time>2022-01-16T09:32:27Z</time>
      </trkpt>
      <trkpt lat="45.19647" lon="5.99412">
        <ele>2551.4</ele>
        <time>2022-01-16T09:32:29Z</time>
      </trkpt>
      <trkpt lat="45.19643" lon="5.99416">
        <ele>2552</ele>
        <time>2022-01-16T09:32:34Z</time>
      </trkpt>
      <trkpt lat="45.19643" lon="5.99416">
        <ele>2552.2</ele>
        <time>2022-01-16T09:32:35Z</time>
      </trkpt>
      <trkpt lat="45.19643" lon="5.99416">
        <ele>2553</ele>
        <time>2022-01-16T09:32:36Z</time>
      </trkpt>
      <trkpt lat="45.19643" lon="5.99416">
        <ele>2553</ele>
        <time>2022-01-16T09:32:37Z</time>
      </trkpt>
      <trkpt lat="45.19643" lon="5.99416">
        <ele>2553.4</ele>
        <time>2022-01-16T09:32:40Z</time>
      </trkpt>
      <trkpt lat="45.19643" lon="5.99416">
        <ele>2554.4</ele>
        <time>2022-01-16T09:32:45Z</time>
      </trkpt>
      <trkpt lat="45.19644" lon="5.99416">
        <ele>2555.4</ele>
        <time>2022-01-16T09:32:50Z</time>
      </trkpt>
      <trkpt lat="45.19646" lon="5.99418">
        <ele>2555.6</ele>
        <time>2022-01-16T09:32:54Z</time>
      </trkpt>
      <trkpt lat="45.19646" lon="5.99422">
        <ele>2556.4</ele>
        <time>2022-01-16T09:33:00Z</time>
      </trkpt>
      <trkpt lat="45.19645" lon="5.99424">
        <ele>2556.6</ele>
        <time>2022-01-16T09:33:02Z</time>
      </trkpt>
      <trkpt lat="45.19642" lon="5.99426">
        <ele>2557.6</ele>
        <time>2022-01-16T09:33:06Z</time>
      </trkpt>
      <trkpt lat="45.19641" lon="5.99426">
        <ele>2557.8</ele>
        <time>2022-01-16T09:33:08Z</time>
      </trkpt>
      <trkpt lat="45.19639" lon="5.99426">
        <ele>2558.6</ele>
        <time>2022-01-16T09:33:11Z</time>
      </trkpt>
      <trkpt lat="45.19639" lon="5.99426">
        <ele>2559</ele>
        <time>2022-01-16T09:33:14Z</time>
      </trkpt>
      <trkpt lat="45.19641" lon="5.99429">
        <ele>2559.8</ele>
        <time>2022-01-16T09:33:18Z</time>
      </trkpt>
      <trkpt lat="45.19642" lon="5.9943">
        <ele>2560.2</ele>
        <time>2022-01-16T09:33:20Z</time>
      </trkpt>
      <trkpt lat="45.1964" lon="5.9943">
        <ele>2560.8</ele>
        <time>2022-01-16T09:33:23Z</time>
      </trkpt>
      <trkpt lat="45.19639" lon="5.99432">
        <ele>2561.2</ele>
        <time>2022-01-16T09:33:26Z</time>
      </trkpt>
      <trkpt lat="45.19636" lon="5.99432">
        <ele>2563</ele>
        <time>2022-01-16T09:33:30Z</time>
      </trkpt>
      <trkpt lat="45.19634" lon="5.99433">
        <ele>2563.2</ele>
        <time>2022-01-16T09:33:33Z</time>
      </trkpt>
      <trkpt lat="45.19637" lon="5.99437">
        <ele>2564</ele>
        <time>2022-01-16T09:33:39Z</time>
      </trkpt>
      <trkpt lat="45.19638" lon="5.99438">
        <ele>2564.2</ele>
        <time>2022-01-16T09:33:40Z</time>
      </trkpt>
      <trkpt lat="45.19642" lon="5.99441">
        <ele>2565.6</ele>
        <time>2022-01-16T09:33:46Z</time>
      </trkpt>
      <trkpt lat="45.19641" lon="5.99442">
        <ele>2566.2</ele>
        <time>2022-01-16T09:33:48Z</time>
      </trkpt>
      <trkpt lat="45.19636" lon="5.99443">
        <ele>2566.8</ele>
        <time>2022-01-16T09:33:54Z</time>
      </trkpt>
      <trkpt lat="45.19636" lon="5.99444">
        <ele>2567</ele>
        <time>2022-01-16T09:33:55Z</time>
      </trkpt>
      <trkpt lat="45.19634" lon="5.99444">
        <ele>2568</ele>
        <time>2022-01-16T09:33:58Z</time>
      </trkpt>
      <trkpt lat="45.1963" lon="5.99446">
        <ele>2569.2</ele>
        <time>2022-01-16T09:34:02Z</time>
      </trkpt>
      <trkpt lat="45.1963" lon="5.99447">
        <ele>2569.6</ele>
        <time>2022-01-16T09:34:03Z</time>
      </trkpt>
      <trkpt lat="45.19628" lon="5.99446">
        <ele>2570.8</ele>
        <time>2022-01-16T09:34:06Z</time>
      </trkpt>
      <trkpt lat="45.19629" lon="5.99447">
        <ele>2571</ele>
        <time>2022-01-16T09:34:08Z</time>
      </trkpt>
      <trkpt lat="45.19631" lon="5.99449">
        <ele>2571.8</ele>
        <time>2022-01-16T09:34:12Z</time>
      </trkpt>
      <trkpt lat="45.19631" lon="5.99453">
        <ele>2572.6</ele>
        <time>2022-01-16T09:34:16Z</time>
      </trkpt>
      <trkpt lat="45.19631" lon="5.99454">
        <ele>2572.8</ele>
        <time>2022-01-16T09:34:18Z</time>
      </trkpt>
      <trkpt lat="45.1963" lon="5.99454">
        <ele>2572.8</ele>
        <time>2022-01-16T09:34:20Z</time>
      </trkpt>
      <trkpt lat="45.1963" lon="5.99454">
        <ele>2573.4</ele>
        <time>2022-01-16T09:34:26Z</time>
      </trkpt>
      <trkpt lat="45.1963" lon="5.99454">
        <ele>2573.4</ele>
        <time>2022-01-16T09:34:27Z</time>
      </trkpt>
      <trkpt lat="45.19629" lon="5.99455">
        <ele>2573</ele>
        <time>2022-01-16T09:34:33Z</time>
      </trkpt>
      <trkpt lat="45.19629" lon="5.99455">
        <ele>2573</ele>
        <time>2022-01-16T09:34:35Z</time>
      </trkpt>
      <trkpt lat="45.19629" lon="5.99455">
        <ele>2572.8</ele>
        <time>2022-01-16T09:34:36Z</time>
      </trkpt>
      <trkpt lat="45.19629" lon="5.99455">
        <ele>2572.8</ele>
        <time>2022-01-16T09:34:38Z</time>
      </trkpt>
      <trkpt lat="45.19629" lon="5.99455">
        <ele>2572.8</ele>
        <time>2022-01-16T09:34:41Z</time>
      </trkpt>
      <trkpt lat="45.19629" lon="5.99455">
        <ele>2572.8</ele>
        <time>2022-01-16T09:34:43Z</time>
      </trkpt>
      <trkpt lat="45.19629" lon="5.99455">
        <ele>2572.6</ele>
        <time>2022-01-16T09:34:45Z</time>
      </trkpt>
      <trkpt lat="45.19629" lon="5.99455">
        <ele>2572.4</ele>
        <time>2022-01-16T09:34:47Z</time>
      </trkpt>
      <trkpt lat="45.19628" lon="5.99455">
        <ele>2571.8</ele>
        <time>2022-01-16T09:34:52Z</time>
      </trkpt>
      <trkpt lat="45.19628" lon="5.99455">
        <ele>2571.8</ele>
        <time>2022-01-16T09:34:54Z</time>
      </trkpt>
      <trkpt lat="45.19628" lon="5.99455">
        <ele>2571.6</ele>
        <time>2022-01-16T09:34:57Z</time>
      </trkpt>
      <trkpt lat="45.19628" lon="5.99455">
        <ele>2571.4</ele>
        <time>2022-01-16T09:34:59Z</time>
      </trkpt>
      <trkpt lat="45.19628" lon="5.99456">
        <ele>2571.4</ele>
        <time>2022-01-16T09:35:03Z</time>
      </trkpt>
      <trkpt lat="45.19628" lon="5.99457">
        <ele>2571.4</ele>
        <time>2022-01-16T09:35:06Z</time>
      </trkpt>
      <trkpt lat="45.19628" lon="5.99458">
        <ele>2571.4</ele>
        <time>2022-01-16T09:35:11Z</time>
      </trkpt>
      <trkpt lat="45.19629" lon="5.99458">
        <ele>2571.2</ele>
        <time>2022-01-16T09:35:16Z</time>
      </trkpt>
      <trkpt lat="45.19629" lon="5.99458">
        <ele>2571.2</ele>
        <time>2022-01-16T09:35:18Z</time>
      </trkpt>
      <trkpt lat="45.19629" lon="5.99458">
        <ele>2570.4</ele>
        <time>2022-01-16T09:35:24Z</time>
      </trkpt>
      <trkpt lat="45.19629" lon="5.99458">
        <ele>2570.4</ele>
        <time>2022-01-16T09:35:25Z</time>
      </trkpt>
      <trkpt lat="45.19629" lon="5.99458">
        <ele>2570.6</ele>
        <time>2022-01-16T09:35:27Z</time>
      </trkpt>
      <trkpt lat="45.19629" lon="5.99458">
        <ele>2570.6</ele>
        <time>2022-01-16T09:35:29Z</time>
      </trkpt>
      <trkpt lat="45.1963" lon="5.99458">
        <ele>2570.6</ele>
        <time>2022-01-16T09:35:32Z</time>
      </trkpt>
      <trkpt lat="45.1963" lon="5.99458">
        <ele>2570.6</ele>
        <time>2022-01-16T09:35:34Z</time>
      </trkpt>
      <trkpt lat="45.1963" lon="5.99458">
        <ele>2570.6</ele>
        <time>2022-01-16T09:35:37Z</time>
      </trkpt>
      <trkpt lat="45.1963" lon="5.99458">
        <ele>2570.2</ele>
        <time>2022-01-16T09:35:42Z</time>
      </trkpt>
      <trkpt lat="45.1963" lon="5.99458">
        <ele>2570.2</ele>
        <time>2022-01-16T09:35:46Z</time>
      </trkpt>
      <trkpt lat="45.1963" lon="5.99458">
        <ele>2570</ele>
        <time>2022-01-16T09:35:50Z</time>
      </trkpt>
      <trkpt lat="45.1963" lon="5.99458">
        <ele>2570</ele>
        <time>2022-01-16T09:35:53Z</time>
      </trkpt>
      <trkpt lat="45.1963" lon="5.99458">
        <ele>2569.6</ele>
        <time>2022-01-16T09:35:55Z</time>
      </trkpt>
      <trkpt lat="45.1963" lon="5.99458">
        <ele>2569.6</ele>
        <time>2022-01-16T09:35:56Z</time>
      </trkpt>
      <trkpt lat="45.1963" lon="5.99458">
        <ele>2569.2</ele>
        <time>2022-01-16T09:35:57Z</time>
      </trkpt>
      <trkpt lat="45.1963" lon="5.99457">
        <ele>2569.2</ele>
        <time>2022-01-16T09:36:02Z</time>
      </trkpt>
      <trkpt lat="45.1963" lon="5.99457">
        <ele>2569.8</ele>
        <time>2022-01-16T09:36:08Z</time>
      </trkpt>
      <trkpt lat="45.1963" lon="5.99457">
        <ele>2569.8</ele>
        <time>2022-01-16T09:36:10Z</time>
      </trkpt>
      <trkpt lat="45.1963" lon="5.99457">
        <ele>2569.6</ele>
        <time>2022-01-16T09:36:13Z</time>
      </trkpt>
      <trkpt lat="45.1963" lon="5.99458">
        <ele>2569.4</ele>
        <time>2022-01-16T09:36:15Z</time>
      </trkpt>
      <trkpt lat="45.1963" lon="5.99458">
        <ele>2569.6</ele>
        <time>2022-01-16T09:36:16Z</time>
      </trkpt>
      <trkpt lat="45.1963" lon="5.99458">
        <ele>2569.4</ele>
        <time>2022-01-16T09:36:18Z</time>
      </trkpt>
      <trkpt lat="45.1963" lon="5.99458">
        <ele>2569.4</ele>
        <time>2022-01-16T09:36:20Z</time>
      </trkpt>
      <trkpt lat="45.1963" lon="5.99458">
        <ele>2569.4</ele>
        <time>2022-01-16T09:36:22Z</time>
      </trkpt>
      <trkpt lat="45.1963" lon="5.99458">
        <ele>2569.4</ele>
        <time>2022-01-16T09:36:26Z</time>
      </trkpt>
      <trkpt lat="45.1963" lon="5.99458">
        <ele>2569.2</ele>
        <time>2022-01-16T09:36:30Z</time>
      </trkpt>
      <trkpt lat="45.1963" lon="5.9946">
        <ele>2569.6</ele>
        <time>2022-01-16T09:36:35Z</time>
      </trkpt>
      <trkpt lat="45.19631" lon="5.99461">
        <ele>2569.4</ele>
        <time>2022-01-16T09:36:41Z</time>
      </trkpt>
      <trkpt lat="45.19631" lon="5.99462">
        <ele>2569.2</ele>
        <time>2022-01-16T09:36:46Z</time>
      </trkpt>
      <trkpt lat="45.19631" lon="5.99462">
        <ele>2569.2</ele>
        <time>2022-01-16T09:36:48Z</time>
      </trkpt>
      <trkpt lat="45.19632" lon="5.99462">
        <ele>2569.2</ele>
        <time>2022-01-16T09:36:54Z</time>
      </trkpt>
      <trkpt lat="45.19632" lon="5.99462">
        <ele>2569</ele>
        <time>2022-01-16T09:36:57Z</time>
      </trkpt>
      <trkpt lat="45.19632" lon="5.99462">
        <ele>2569</ele>
        <time>2022-01-16T09:37:01Z</time>
      </trkpt>
      <trkpt lat="45.19632" lon="5.99462">
        <ele>2568.8</ele>
        <time>2022-01-16T09:37:03Z</time>
      </trkpt>
      <trkpt lat="45.19632" lon="5.99462">
        <ele>2568.8</ele>
        <time>2022-01-16T09:37:05Z</time>
      </trkpt>
      <trkpt lat="45.19632" lon="5.99461">
        <ele>2568.8</ele>
        <time>2022-01-16T09:37:08Z</time>
      </trkpt>
      <trkpt lat="45.19632" lon="5.99461">
        <ele>2568.8</ele>
        <time>2022-01-16T09:37:12Z</time>
      </trkpt>
      <trkpt lat="45.19632" lon="5.99462">
        <ele>2568.8</ele>
        <time>2022-01-16T09:37:18Z</time>
      </trkpt>
      <trkpt lat="45.19632" lon="5.99462">
        <ele>2568.8</ele>
        <time>2022-01-16T09:37:20Z</time>
      </trkpt>
      <trkpt lat="45.19632" lon="5.99462">
        <ele>2568.8</ele>
        <time>2022-01-16T09:37:23Z</time>
      </trkpt>
      <trkpt lat="45.19632" lon="5.99462">
        <ele>2568.2</ele>
        <time>2022-01-16T09:37:24Z</time>
      </trkpt>
      <trkpt lat="45.19631" lon="5.99462">
        <ele>2567.6</ele>
        <time>2022-01-16T09:37:26Z</time>
      </trkpt>
      <trkpt lat="45.19631" lon="5.99463">
        <ele>2566.8</ele>
        <time>2022-01-16T09:37:27Z</time>
      </trkpt>
      <trkpt lat="45.19629" lon="5.99465">
        <ele>2566.2</ele>
        <time>2022-01-16T09:37:29Z</time>
      </trkpt>
      <trkpt lat="45.19629" lon="5.99465">
        <ele>2566.2</ele>
        <time>2022-01-16T09:37:30Z</time>
      </trkpt>
      <trkpt lat="45.19628" lon="5.99467">
        <ele>2566</ele>
        <time>2022-01-16T09:37:31Z</time>
      </trkpt>
      <trkpt lat="45.19627" lon="5.99468">
        <ele>2565.8</ele>
        <time>2022-01-16T09:37:32Z</time>
      </trkpt>
      <trkpt lat="45.19625" lon="5.99468">
        <ele>2565</ele>
        <time>2022-01-16T09:37:34Z</time>
      </trkpt>
      <trkpt lat="45.19626" lon="5.99469">
        <ele>2564.6</ele>
        <time>2022-01-16T09:37:35Z</time>
      </trkpt>
      <trkpt lat="45.19626" lon="5.9947">
        <ele>2564.4</ele>
        <time>2022-01-16T09:37:36Z</time>
      </trkpt>
      <trkpt lat="45.19628" lon="5.99471">
        <ele>2564.2</ele>
        <time>2022-01-16T09:37:37Z</time>
      </trkpt>
      <trkpt lat="45.19629" lon="5.99473">
        <ele>2563.2</ele>
        <time>2022-01-16T09:37:38Z</time>
      </trkpt>
      <trkpt lat="45.1963" lon="5.99474">
        <ele>2562</ele>
        <time>2022-01-16T09:37:39Z</time>
      </trkpt>
      <trkpt lat="45.19631" lon="5.99475">
        <ele>2562</ele>
        <time>2022-01-16T09:37:41Z</time>
      </trkpt>
      <trkpt lat="45.19629" lon="5.99478">
        <ele>2561</ele>
        <time>2022-01-16T09:37:44Z</time>
      </trkpt>
      <trkpt lat="45.19629" lon="5.99478">
        <ele>2559.8</ele>
        <time>2022-01-16T09:37:45Z</time>
      </trkpt>
      <trkpt lat="45.19628" lon="5.99479">
        <ele>2558.6</ele>
        <time>2022-01-16T09:37:48Z</time>
      </trkpt>
      <trkpt lat="45.19626" lon="5.99481">
        <ele>2557.2</ele>
        <time>2022-01-16T09:37:50Z</time>
      </trkpt>
      <trkpt lat="45.19626" lon="5.99482">
        <ele>2556.2</ele>
        <time>2022-01-16T09:37:51Z</time>
      </trkpt>
      <trkpt lat="45.19627" lon="5.99484">
        <ele>2555.2</ele>
        <time>2022-01-16T09:37:54Z</time>
      </trkpt>
      <trkpt lat="45.19628" lon="5.99485">
        <ele>2553.6</ele>
        <time>2022-01-16T09:37:55Z</time>
      </trkpt>
      <trkpt lat="45.19629" lon="5.99485">
        <ele>2553.2</ele>
        <time>2022-01-16T09:37:56Z</time>
      </trkpt>
      <trkpt lat="45.19629" lon="5.99487">
        <ele>2552.4</ele>
        <time>2022-01-16T09:37:58Z</time>
      </trkpt>
      <trkpt lat="45.19629" lon="5.99488">
        <ele>2552</ele>
        <time>2022-01-16T09:37:59Z</time>
      </trkpt>
      <trkpt lat="45.19626" lon="5.9949">
        <ele>2551.2</ele>
        <time>2022-01-16T09:38:01Z</time>
      </trkpt>
      <trkpt lat="45.19624" lon="5.9949">
        <ele>2549.6</ele>
        <time>2022-01-16T09:38:02Z</time>
      </trkpt>
      <trkpt lat="45.19622" lon="5.99491">
        <ele>2548.6</ele>
        <time>2022-01-16T09:38:03Z</time>
      </trkpt>
      <trkpt lat="45.1962" lon="5.99492">
        <ele>2547.2</ele>
        <time>2022-01-16T09:38:04Z</time>
      </trkpt>
      <trkpt lat="45.19617" lon="5.99492">
        <ele>2545.4</ele>
        <time>2022-01-16T09:38:05Z</time>
      </trkpt>
      <trkpt lat="45.19613" lon="5.99493">
        <ele>2544.8</ele>
        <time>2022-01-16T09:38:06Z</time>
      </trkpt>
      <trkpt lat="45.1961" lon="5.99494">
        <ele>2544</ele>
        <time>2022-01-16T09:38:07Z</time>
      </trkpt>
      <trkpt lat="45.19602" lon="5.99498">
        <ele>2542.8</ele>
        <time>2022-01-16T09:38:09Z</time>
      </trkpt>
      <trkpt lat="45.19598" lon="5.995">
        <ele>2542.6</ele>
        <time>2022-01-16T09:38:10Z</time>
      </trkpt>
      <trkpt lat="45.19594" lon="5.99502">
        <ele>2540.4</ele>
        <time>2022-01-16T09:38:11Z</time>
      </trkpt>
      <trkpt lat="45.1959" lon="5.99505">
        <ele>2539</ele>
        <time>2022-01-16T09:38:12Z</time>
      </trkpt>
      <trkpt lat="45.19583" lon="5.99512">
        <ele>2535.6</ele>
        <time>2022-01-16T09:38:15Z</time>
      </trkpt>
      <trkpt lat="45.19584" lon="5.99515">
        <ele>2535.2</ele>
        <time>2022-01-16T09:38:16Z</time>
      </trkpt>
      <trkpt lat="45.19585" lon="5.99521">
        <ele>2532</ele>
        <time>2022-01-16T09:38:17Z</time>
      </trkpt>
      <trkpt lat="45.19584" lon="5.99527">
        <ele>2529.8</ele>
        <time>2022-01-16T09:38:18Z</time>
      </trkpt>
      <trkpt lat="45.19581" lon="5.99535">
        <ele>2528.6</ele>
        <time>2022-01-16T09:38:19Z</time>
      </trkpt>
      <trkpt lat="45.19579" lon="5.99541">
        <ele>2527.4</ele>
        <time>2022-01-16T09:38:20Z</time>
      </trkpt>
      <trkpt lat="45.19577" lon="5.99554">
        <ele>2525</ele>
        <time>2022-01-16T09:38:22Z</time>
      </trkpt>
      <trkpt lat="45.19577" lon="5.9956">
        <ele>2524</ele>
        <time>2022-01-16T09:38:23Z</time>
      </trkpt>
      <trkpt lat="45.19577" lon="5.99565">
        <ele>2523.4</ele>
        <time>2022-01-16T09:38:24Z</time>
      </trkpt>
      <trkpt lat="45.19576" lon="5.99569">
        <ele>2520.4</ele>
        <time>2022-01-16T09:38:25Z</time>
      </trkpt>
      <trkpt lat="45.19576" lon="5.99569">
        <ele>2519.2</ele>
        <time>2022-01-16T09:38:26Z</time>
      </trkpt>
      <trkpt lat="45.19576" lon="5.99569">
        <ele>2519</ele>
        <time>2022-01-16T09:38:27Z</time>
      </trkpt>
      <trkpt lat="45.19576" lon="5.99569">
        <ele>2519</ele>
        <time>2022-01-16T09:38:30Z</time>
      </trkpt>
      <trkpt lat="45.19577" lon="5.9957">
        <ele>2519</ele>
        <time>2022-01-16T09:38:31Z</time>
      </trkpt>
      <trkpt lat="45.19574" lon="5.9957">
        <ele>2519.2</ele>
        <time>2022-01-16T09:38:35Z</time>
      </trkpt>
      <trkpt lat="45.19575" lon="5.9957">
        <ele>2519.2</ele>
        <time>2022-01-16T09:38:38Z</time>
      </trkpt>
      <trkpt lat="45.1958" lon="5.99572">
        <ele>2517.8</ele>
        <time>2022-01-16T09:38:41Z</time>
      </trkpt>
      <trkpt lat="45.19584" lon="5.99571">
        <ele>2515.4</ele>
        <time>2022-01-16T09:38:42Z</time>
      </trkpt>
      <trkpt lat="45.19593" lon="5.99572">
        <ele>2514</ele>
        <time>2022-01-16T09:38:44Z</time>
      </trkpt>
      <trkpt lat="45.19598" lon="5.9958">
        <ele>2512.8</ele>
        <time>2022-01-16T09:38:46Z</time>
      </trkpt>
      <trkpt lat="45.19597" lon="5.99585">
        <ele>2510.8</ele>
        <time>2022-01-16T09:38:47Z</time>
      </trkpt>
      <trkpt lat="45.19593" lon="5.9959">
        <ele>2509.6</ele>
        <time>2022-01-16T09:38:48Z</time>
      </trkpt>
      <trkpt lat="45.19589" lon="5.99594">
        <ele>2507.8</ele>
        <time>2022-01-16T09:38:49Z</time>
      </trkpt>
      <trkpt lat="45.19586" lon="5.99596">
        <ele>2506.8</ele>
        <time>2022-01-16T09:38:50Z</time>
      </trkpt>
      <trkpt lat="45.19582" lon="5.996">
        <ele>2505.4</ele>
        <time>2022-01-16T09:38:51Z</time>
      </trkpt>
      <trkpt lat="45.19579" lon="5.99601">
        <ele>2505</ele>
        <time>2022-01-16T09:38:52Z</time>
      </trkpt>
      <trkpt lat="45.19578" lon="5.99602">
        <ele>2503.6</ele>
        <time>2022-01-16T09:38:53Z</time>
      </trkpt>
      <trkpt lat="45.19577" lon="5.99603">
        <ele>2503</ele>
        <time>2022-01-16T09:38:54Z</time>
      </trkpt>
      <trkpt lat="45.19577" lon="5.99606">
        <ele>2502.8</ele>
        <time>2022-01-16T09:38:55Z</time>
      </trkpt>
      <trkpt lat="45.1958" lon="5.99608">
        <ele>2500</ele>
        <time>2022-01-16T09:38:56Z</time>
      </trkpt>
      <trkpt lat="45.19584" lon="5.9961">
        <ele>2497</ele>
        <time>2022-01-16T09:38:57Z</time>
      </trkpt>
      <trkpt lat="45.1959" lon="5.99614">
        <ele>2495.6</ele>
        <time>2022-01-16T09:38:59Z</time>
      </trkpt>
      <trkpt lat="45.19591" lon="5.99617">
        <ele>2495.2</ele>
        <time>2022-01-16T09:39:00Z</time>
      </trkpt>
      <trkpt lat="45.19589" lon="5.99621">
        <ele>2493.4</ele>
        <time>2022-01-16T09:39:01Z</time>
      </trkpt>
      <trkpt lat="45.19586" lon="5.99625">
        <ele>2492</ele>
        <time>2022-01-16T09:39:02Z</time>
      </trkpt>
      <trkpt lat="45.19582" lon="5.99627">
        <ele>2491.2</ele>
        <time>2022-01-16T09:39:03Z</time>
      </trkpt>
      <trkpt lat="45.19578" lon="5.99629">
        <ele>2489.8</ele>
        <time>2022-01-16T09:39:04Z</time>
      </trkpt>
      <trkpt lat="45.19575" lon="5.99631">
        <ele>2488.4</ele>
        <time>2022-01-16T09:39:05Z</time>
      </trkpt>
      <trkpt lat="45.19573" lon="5.99634">
        <ele>2487.2</ele>
        <time>2022-01-16T09:39:06Z</time>
      </trkpt>
      <trkpt lat="45.19573" lon="5.99636">
        <ele>2486</ele>
        <time>2022-01-16T09:39:07Z</time>
      </trkpt>
      <trkpt lat="45.19575" lon="5.99639">
        <ele>2483.8</ele>
        <time>2022-01-16T09:39:08Z</time>
      </trkpt>
      <trkpt lat="45.19577" lon="5.99641">
        <ele>2481.4</ele>
        <time>2022-01-16T09:39:09Z</time>
      </trkpt>
      <trkpt lat="45.19579" lon="5.99644">
        <ele>2480</ele>
        <time>2022-01-16T09:39:10Z</time>
      </trkpt>
      <trkpt lat="45.19583" lon="5.99647">
        <ele>2479.6</ele>
        <time>2022-01-16T09:39:11Z</time>
      </trkpt>
      <trkpt lat="45.19587" lon="5.99651">
        <ele>2478.4</ele>
        <time>2022-01-16T09:39:12Z</time>
      </trkpt>
      <trkpt lat="45.19595" lon="5.99658">
        <ele>2476.8</ele>
        <time>2022-01-16T09:39:14Z</time>
      </trkpt>
      <trkpt lat="45.19597" lon="5.99663">
        <ele>2474</ele>
        <time>2022-01-16T09:39:15Z</time>
      </trkpt>
      <trkpt lat="45.19592" lon="5.9967">
        <ele>2472.6</ele>
        <time>2022-01-16T09:39:17Z</time>
      </trkpt>
      <trkpt lat="45.19587" lon="5.99671">
        <ele>2470.4</ele>
        <time>2022-01-16T09:39:18Z</time>
      </trkpt>
      <trkpt lat="45.19572" lon="5.99674">
        <ele>2469.4</ele>
        <time>2022-01-16T09:39:21Z</time>
      </trkpt>
      <trkpt lat="45.19568" lon="5.99675">
        <ele>2466.8</ele>
        <time>2022-01-16T09:39:22Z</time>
      </trkpt>
      <trkpt lat="45.19566" lon="5.99682">
        <ele>2465</ele>
        <time>2022-01-16T09:39:24Z</time>
      </trkpt>
      <trkpt lat="45.19569" lon="5.99686">
        <ele>2461.8</ele>
        <time>2022-01-16T09:39:25Z</time>
      </trkpt>
      <trkpt lat="45.19571" lon="5.99692">
        <ele>2459.6</ele>
        <time>2022-01-16T09:39:26Z</time>
      </trkpt>
      <trkpt lat="45.19569" lon="5.99697">
        <ele>2458.2</ele>
        <time>2022-01-16T09:39:27Z</time>
      </trkpt>
      <trkpt lat="45.19561" lon="5.99699">
        <ele>2455.4</ele>
        <time>2022-01-16T09:39:29Z</time>
      </trkpt>
      <trkpt lat="45.19556" lon="5.99699">
        <ele>2454.8</ele>
        <time>2022-01-16T09:39:30Z</time>
      </trkpt>
      <trkpt lat="45.19551" lon="5.99699">
        <ele>2453.2</ele>
        <time>2022-01-16T09:39:31Z</time>
      </trkpt>
      <trkpt lat="45.19547" lon="5.99699">
        <ele>2452</ele>
        <time>2022-01-16T09:39:32Z</time>
      </trkpt>
      <trkpt lat="45.19544" lon="5.99705">
        <ele>2450.4</ele>
        <time>2022-01-16T09:39:34Z</time>
      </trkpt>
      <trkpt lat="45.19544" lon="5.99711">
        <ele>2448.8</ele>
        <time>2022-01-16T09:39:35Z</time>
      </trkpt>
      <trkpt lat="45.19542" lon="5.99717">
        <ele>2443.4</ele>
        <time>2022-01-16T09:39:36Z</time>
      </trkpt>
      <trkpt lat="45.19538" lon="5.99723">
        <ele>2442</ele>
        <time>2022-01-16T09:39:37Z</time>
      </trkpt>
      <trkpt lat="45.19535" lon="5.99727">
        <ele>2441.8</ele>
        <time>2022-01-16T09:39:38Z</time>
      </trkpt>
      <trkpt lat="45.19532" lon="5.9973">
        <ele>2440.4</ele>
        <time>2022-01-16T09:39:39Z</time>
      </trkpt>
      <trkpt lat="45.19528" lon="5.99733">
        <ele>2440.2</ele>
        <time>2022-01-16T09:39:40Z</time>
      </trkpt>
      <trkpt lat="45.19525" lon="5.99734">
        <ele>2438.2</ele>
        <time>2022-01-16T09:39:42Z</time>
      </trkpt>
      <trkpt lat="45.19525" lon="5.99735">
        <ele>2437</ele>
        <time>2022-01-16T09:39:43Z</time>
      </trkpt>
      <trkpt lat="45.19525" lon="5.99733">
        <ele>2437</ele>
        <time>2022-01-16T09:39:46Z</time>
      </trkpt>
      <trkpt lat="45.19525" lon="5.99733">
        <ele>2437.2</ele>
        <time>2022-01-16T09:39:47Z</time>
      </trkpt>
      <trkpt lat="45.19525" lon="5.99733">
        <ele>2437.2</ele>
        <time>2022-01-16T09:39:48Z</time>
      </trkpt>
      <trkpt lat="45.19525" lon="5.99736">
        <ele>2437.2</ele>
        <time>2022-01-16T09:39:51Z</time>
      </trkpt>
      <trkpt lat="45.19523" lon="5.99743">
        <ele>2435.4</ele>
        <time>2022-01-16T09:39:54Z</time>
      </trkpt>
      <trkpt lat="45.19523" lon="5.99746">
        <ele>2433.8</ele>
        <time>2022-01-16T09:39:55Z</time>
      </trkpt>
      <trkpt lat="45.19522" lon="5.99749">
        <ele>2431.4</ele>
        <time>2022-01-16T09:39:56Z</time>
      </trkpt>
      <trkpt lat="45.19518" lon="5.99753">
        <ele>2429.4</ele>
        <time>2022-01-16T09:39:57Z</time>
      </trkpt>
      <trkpt lat="45.19514" lon="5.99757">
        <ele>2427.8</ele>
        <time>2022-01-16T09:39:58Z</time>
      </trkpt>
      <trkpt lat="45.19505" lon="5.99763">
        <ele>2424.8</ele>
        <time>2022-01-16T09:40:00Z</time>
      </trkpt>
      <trkpt lat="45.19498" lon="5.9977">
        <ele>2422.8</ele>
        <time>2022-01-16T09:40:02Z</time>
      </trkpt>
      <trkpt lat="45.19496" lon="5.99773">
        <ele>2420.2</ele>
        <time>2022-01-16T09:40:03Z</time>
      </trkpt>
      <trkpt lat="45.19497" lon="5.9978">
        <ele>2417.2</ele>
        <time>2022-01-16T09:40:05Z</time>
      </trkpt>
      <trkpt lat="45.19495" lon="5.99786">
        <ele>2415</ele>
        <time>2022-01-16T09:40:06Z</time>
      </trkpt>
      <trkpt lat="45.19493" lon="5.99791">
        <ele>2412.2</ele>
        <time>2022-01-16T09:40:07Z</time>
      </trkpt>
      <trkpt lat="45.1949" lon="5.99796">
        <ele>2410.4</ele>
        <time>2022-01-16T09:40:08Z</time>
      </trkpt>
      <trkpt lat="45.19485" lon="5.99805">
        <ele>2408.6</ele>
        <time>2022-01-16T09:40:09Z</time>
      </trkpt>
      <trkpt lat="45.19479" lon="5.99818">
        <ele>2406.2</ele>
        <time>2022-01-16T09:40:11Z</time>
      </trkpt>
      <trkpt lat="45.19479" lon="5.99821">
        <ele>2404.6</ele>
        <time>2022-01-16T09:40:12Z</time>
      </trkpt>
      <trkpt lat="45.19481" lon="5.99822">
        <ele>2401.6</ele>
        <time>2022-01-16T09:40:13Z</time>
      </trkpt>
      <trkpt lat="45.19485" lon="5.99821">
        <ele>2399</ele>
        <time>2022-01-16T09:40:14Z</time>
      </trkpt>
      <trkpt lat="45.1949" lon="5.99823">
        <ele>2398</ele>
        <time>2022-01-16T09:40:15Z</time>
      </trkpt>
      <trkpt lat="45.19492" lon="5.99827">
        <ele>2394.4</ele>
        <time>2022-01-16T09:40:16Z</time>
      </trkpt>
      <trkpt lat="45.19491" lon="5.99834">
        <ele>2393.8</ele>
        <time>2022-01-16T09:40:17Z</time>
      </trkpt>
      <trkpt lat="45.19488" lon="5.99841">
        <ele>2390.8</ele>
        <time>2022-01-16T09:40:18Z</time>
      </trkpt>
      <trkpt lat="45.19485" lon="5.99845">
        <ele>2388.8</ele>
        <time>2022-01-16T09:40:19Z</time>
      </trkpt>
      <trkpt lat="45.19484" lon="5.99847">
        <ele>2388.4</ele>
        <time>2022-01-16T09:40:20Z</time>
      </trkpt>
      <trkpt lat="45.1948" lon="5.99859">
        <ele>2387.6</ele>
        <time>2022-01-16T09:40:23Z</time>
      </trkpt>
      <trkpt lat="45.19482" lon="5.99863">
        <ele>2385.2</ele>
        <time>2022-01-16T09:40:24Z</time>
      </trkpt>
      <trkpt lat="45.19493" lon="5.99863">
        <ele>2381.2</ele>
        <time>2022-01-16T09:40:26Z</time>
      </trkpt>
      <trkpt lat="45.195" lon="5.99863">
        <ele>2378.6</ele>
        <time>2022-01-16T09:40:27Z</time>
      </trkpt>
      <trkpt lat="45.19506" lon="5.99863">
        <ele>2377.2</ele>
        <time>2022-01-16T09:40:28Z</time>
      </trkpt>
      <trkpt lat="45.19518" lon="5.99866">
        <ele>2376</ele>
        <time>2022-01-16T09:40:31Z</time>
      </trkpt>
      <trkpt lat="45.1952" lon="5.99867">
        <ele>2376</ele>
        <time>2022-01-16T09:40:32Z</time>
      </trkpt>
      <trkpt lat="45.19521" lon="5.9987">
        <ele>2376</ele>
        <time>2022-01-16T09:40:33Z</time>
      </trkpt>
      <trkpt lat="45.19521" lon="5.99873">
        <ele>2375.4</ele>
        <time>2022-01-16T09:40:34Z</time>
      </trkpt>
      <trkpt lat="45.19519" lon="5.99876">
        <ele>2374.6</ele>
        <time>2022-01-16T09:40:35Z</time>
      </trkpt>
      <trkpt lat="45.19512" lon="5.99885">
        <ele>2373.2</ele>
        <time>2022-01-16T09:40:39Z</time>
      </trkpt>
      <trkpt lat="45.19508" lon="5.9989">
        <ele>2373</ele>
        <time>2022-01-16T09:40:43Z</time>
      </trkpt>
      <trkpt lat="45.19508" lon="5.9989">
        <ele>2373</ele>
        <time>2022-01-16T09:40:44Z</time>
      </trkpt>
      <trkpt lat="45.19506" lon="5.9989">
        <ele>2372.4</ele>
        <time>2022-01-16T09:40:48Z</time>
      </trkpt>
      <trkpt lat="45.19507" lon="5.9989">
        <ele>2372.4</ele>
        <time>2022-01-16T09:40:51Z</time>
      </trkpt>
      <trkpt lat="45.19508" lon="5.99891">
        <ele>2372.2</ele>
        <time>2022-01-16T09:40:53Z</time>
      </trkpt>
      <trkpt lat="45.19508" lon="5.99889">
        <ele>2372.2</ele>
        <time>2022-01-16T09:40:55Z</time>
      </trkpt>
      <trkpt lat="45.19508" lon="5.99889">
        <ele>2372.2</ele>
        <time>2022-01-16T09:40:56Z</time>
      </trkpt>
      <trkpt lat="45.19508" lon="5.99889">
        <ele>2372.2</ele>
        <time>2022-01-16T09:40:58Z</time>
      </trkpt>
      <trkpt lat="45.19508" lon="5.99889">
        <ele>2372.2</ele>
        <time>2022-01-16T09:41:00Z</time>
      </trkpt>
      <trkpt lat="45.19508" lon="5.99889">
        <ele>2372.4</ele>
        <time>2022-01-16T09:41:02Z</time>
      </trkpt>
      <trkpt lat="45.19508" lon="5.99889">
        <ele>2372.4</ele>
        <time>2022-01-16T09:41:04Z</time>
      </trkpt>
      <trkpt lat="45.19508" lon="5.99889">
        <ele>2372.4</ele>
        <time>2022-01-16T09:41:10Z</time>
      </trkpt>
      <trkpt lat="45.19508" lon="5.99889">
        <ele>2372.2</ele>
        <time>2022-01-16T09:41:12Z</time>
      </trkpt>
      <trkpt lat="45.19507" lon="5.99891">
        <ele>2372.2</ele>
        <time>2022-01-16T09:41:18Z</time>
      </trkpt>
      <trkpt lat="45.19507" lon="5.99891">
        <ele>2372.2</ele>
        <time>2022-01-16T09:41:19Z</time>
      </trkpt>
      <trkpt lat="45.19507" lon="5.99891">
        <ele>2372.2</ele>
        <time>2022-01-16T09:41:20Z</time>
      </trkpt>
      <trkpt lat="45.19506" lon="5.99891">
        <ele>2372.2</ele>
        <time>2022-01-16T09:41:22Z</time>
      </trkpt>
      <trkpt lat="45.19506" lon="5.99891">
        <ele>2372.2</ele>
        <time>2022-01-16T09:41:24Z</time>
      </trkpt>
      <trkpt lat="45.19505" lon="5.99891">
        <ele>2372.2</ele>
        <time>2022-01-16T09:41:29Z</time>
      </trkpt>
      <trkpt lat="45.19503" lon="5.99892">
        <ele>2372.2</ele>
        <time>2022-01-16T09:41:31Z</time>
      </trkpt>
      <trkpt lat="45.19503" lon="5.99892">
        <ele>2372.2</ele>
        <time>2022-01-16T09:41:33Z</time>
      </trkpt>
      <trkpt lat="45.19503" lon="5.99892">
        <ele>2372.2</ele>
        <time>2022-01-16T09:41:35Z</time>
      </trkpt>
      <trkpt lat="45.19503" lon="5.99892">
        <ele>2372.2</ele>
        <time>2022-01-16T09:41:37Z</time>
      </trkpt>
      <trkpt lat="45.19503" lon="5.99894">
        <ele>2372.2</ele>
        <time>2022-01-16T09:41:42Z</time>
      </trkpt>
      <trkpt lat="45.19503" lon="5.99897">
        <ele>2372.2</ele>
        <time>2022-01-16T09:41:48Z</time>
      </trkpt>
      <trkpt lat="45.19503" lon="5.99897">
        <ele>2372.2</ele>
        <time>2022-01-16T09:41:50Z</time>
      </trkpt>
      <trkpt lat="45.19503" lon="5.99897">
        <ele>2372.2</ele>
        <time>2022-01-16T09:41:52Z</time>
      </trkpt>
      <trkpt lat="45.19503" lon="5.99897">
        <ele>2372.2</ele>
        <time>2022-01-16T09:41:53Z</time>
      </trkpt>
      <trkpt lat="45.19503" lon="5.99897">
        <ele>2372.2</ele>
        <time>2022-01-16T09:41:54Z</time>
      </trkpt>
      <trkpt lat="45.19503" lon="5.99898">
        <ele>2372.2</ele>
        <time>2022-01-16T09:41:56Z</time>
      </trkpt>
      <trkpt lat="45.19503" lon="5.99898">
        <ele>2372.2</ele>
        <time>2022-01-16T09:41:57Z</time>
      </trkpt>
      <trkpt lat="45.19503" lon="5.99898">
        <ele>2372.2</ele>
        <time>2022-01-16T09:41:58Z</time>
      </trkpt>
      <trkpt lat="45.19503" lon="5.99898">
        <ele>2372.2</ele>
        <time>2022-01-16T09:41:59Z</time>
      </trkpt>
      <trkpt lat="45.19503" lon="5.99898">
        <ele>2372.2</ele>
        <time>2022-01-16T09:42:00Z</time>
      </trkpt>
      <trkpt lat="45.19503" lon="5.99898">
        <ele>2372.2</ele>
        <time>2022-01-16T09:42:01Z</time>
      </trkpt>
      <trkpt lat="45.19503" lon="5.99898">
        <ele>2372.2</ele>
        <time>2022-01-16T09:42:02Z</time>
      </trkpt>
      <trkpt lat="45.19503" lon="5.99899">
        <ele>2372.2</ele>
        <time>2022-01-16T09:42:03Z</time>
      </trkpt>
      <trkpt lat="45.19503" lon="5.99899">
        <ele>2372.2</ele>
        <time>2022-01-16T09:42:04Z</time>
      </trkpt>
      <trkpt lat="45.19503" lon="5.99899">
        <ele>2372.2</ele>
        <time>2022-01-16T09:42:05Z</time>
      </trkpt>
      <trkpt lat="45.19503" lon="5.99899">
        <ele>2372.2</ele>
        <time>2022-01-16T09:42:06Z</time>
      </trkpt>
      <trkpt lat="45.19503" lon="5.99899">
        <ele>2372.2</ele>
        <time>2022-01-16T09:42:07Z</time>
      </trkpt>
      <trkpt lat="45.19503" lon="5.99899">
        <ele>2372.2</ele>
        <time>2022-01-16T09:42:08Z</time>
      </trkpt>
      <trkpt lat="45.19503" lon="5.99899">
        <ele>2372.2</ele>
        <time>2022-01-16T09:42:09Z</time>
      </trkpt>
      <trkpt lat="45.19504" lon="5.99899">
        <ele>2372.2</ele>
        <time>2022-01-16T09:42:10Z</time>
      </trkpt>
      <trkpt lat="45.19505" lon="5.99899">
        <ele>2372.2</ele>
        <time>2022-01-16T09:42:14Z</time>
      </trkpt>
      <trkpt lat="45.19505" lon="5.99899">
        <ele>2372.2</ele>
        <time>2022-01-16T09:42:16Z</time>
      </trkpt>
      <trkpt lat="45.19505" lon="5.99899">
        <ele>2372.2</ele>
        <time>2022-01-16T09:42:18Z</time>
      </trkpt>
      <trkpt lat="45.19505" lon="5.99899">
        <ele>2372.2</ele>
        <time>2022-01-16T09:42:20Z</time>
      </trkpt>
      <trkpt lat="45.19505" lon="5.99899">
        <ele>2372.2</ele>
        <time>2022-01-16T09:42:21Z</time>
      </trkpt>
      <trkpt lat="45.19505" lon="5.99898">
        <ele>2372.2</ele>
        <time>2022-01-16T09:42:24Z</time>
      </trkpt>
      <trkpt lat="45.19505" lon="5.99898">
        <ele>2372.2</ele>
        <time>2022-01-16T09:42:26Z</time>
      </trkpt>
      <trkpt lat="45.19505" lon="5.99898">
        <ele>2372.2</ele>
        <time>2022-01-16T09:42:27Z</time>
      </trkpt>
      <trkpt lat="45.19506" lon="5.99896">
        <ele>2372.2</ele>
        <time>2022-01-16T09:42:29Z</time>
      </trkpt>
      <trkpt lat="45.19506" lon="5.99896">
        <ele>2372.2</ele>
        <time>2022-01-16T09:42:30Z</time>
      </trkpt>
      <trkpt lat="45.19507" lon="5.99894">
        <ele>2372.2</ele>
        <time>2022-01-16T09:42:32Z</time>
      </trkpt>
      <trkpt lat="45.19508" lon="5.99894">
        <ele>2372.2</ele>
        <time>2022-01-16T09:42:34Z</time>
      </trkpt>
      <trkpt lat="45.19508" lon="5.99893">
        <ele>2372.2</ele>
        <time>2022-01-16T09:42:36Z</time>
      </trkpt>
      <trkpt lat="45.19509" lon="5.99892">
        <ele>2372.2</ele>
        <time>2022-01-16T09:42:42Z</time>
      </trkpt>
      <trkpt lat="45.19509" lon="5.99891">
        <ele>2372.2</ele>
        <time>2022-01-16T09:42:47Z</time>
      </trkpt>
      <trkpt lat="45.19509" lon="5.99891">
        <ele>2372.2</ele>
        <time>2022-01-16T09:42:51Z</time>
      </trkpt>
      <trkpt lat="45.19509" lon="5.99891">
        <ele>2372.2</ele>
        <time>2022-01-16T09:42:53Z</time>
      </trkpt>
      <trkpt lat="45.19509" lon="5.9989">
        <ele>2372.2</ele>
        <time>2022-01-16T09:42:55Z</time>
      </trkpt>
      <trkpt lat="45.19509" lon="5.9989">
        <ele>2372.2</ele>
        <time>2022-01-16T09:42:59Z</time>
      </trkpt>
      <trkpt lat="45.19509" lon="5.99889">
        <ele>2372.2</ele>
        <time>2022-01-16T09:43:01Z</time>
      </trkpt>
      <trkpt lat="45.19509" lon="5.99888">
        <ele>2372.2</ele>
        <time>2022-01-16T09:43:06Z</time>
      </trkpt>
      <trkpt lat="45.19508" lon="5.99888">
        <ele>2372.2</ele>
        <time>2022-01-16T09:43:10Z</time>
      </trkpt>
      <trkpt lat="45.19508" lon="5.99888">
        <ele>2372.2</ele>
        <time>2022-01-16T09:43:14Z</time>
      </trkpt>
      <trkpt lat="45.19507" lon="5.99888">
        <ele>2372.2</ele>
        <time>2022-01-16T09:43:19Z</time>
      </trkpt>
      <trkpt lat="45.19507" lon="5.99888">
        <ele>2372.2</ele>
        <time>2022-01-16T09:43:25Z</time>
      </trkpt>
      <trkpt lat="45.19507" lon="5.99888">
        <ele>2372.2</ele>
        <time>2022-01-16T09:43:27Z</time>
      </trkpt>
      <trkpt lat="45.19507" lon="5.99888">
        <ele>2372.2</ele>
        <time>2022-01-16T09:43:33Z</time>
      </trkpt>
      <trkpt lat="45.19507" lon="5.99888">
        <ele>2372.2</ele>
        <time>2022-01-16T09:43:39Z</time>
      </trkpt>
      <trkpt lat="45.19507" lon="5.99888">
        <ele>2372.2</ele>
        <time>2022-01-16T09:43:45Z</time>
      </trkpt>
      <trkpt lat="45.19507" lon="5.99888">
        <ele>2372.2</ele>
        <time>2022-01-16T09:43:48Z</time>
      </trkpt>
      <trkpt lat="45.19507" lon="5.99888">
        <ele>2372.2</ele>
        <time>2022-01-16T09:43:50Z</time>
      </trkpt>
      <trkpt lat="45.19507" lon="5.99887">
        <ele>2372.2</ele>
        <time>2022-01-16T09:43:56Z</time>
      </trkpt>
      <trkpt lat="45.19507" lon="5.99887">
        <ele>2372.2</ele>
        <time>2022-01-16T09:44:02Z</time>
      </trkpt>
      <trkpt lat="45.19508" lon="5.99887">
        <ele>2372.2</ele>
        <time>2022-01-16T09:44:07Z</time>
      </trkpt>
      <trkpt lat="45.19508" lon="5.99887">
        <ele>2372.2</ele>
        <time>2022-01-16T09:44:09Z</time>
      </trkpt>
      <trkpt lat="45.19508" lon="5.99888">
        <ele>2372.2</ele>
        <time>2022-01-16T09:44:15Z</time>
      </trkpt>
      <trkpt lat="45.19508" lon="5.99888">
        <ele>2372.2</ele>
        <time>2022-01-16T09:44:16Z</time>
      </trkpt>
      <trkpt lat="45.19508" lon="5.99888">
        <ele>2372.2</ele>
        <time>2022-01-16T09:44:17Z</time>
      </trkpt>
      <trkpt lat="45.19508" lon="5.99888">
        <ele>2372.2</ele>
        <time>2022-01-16T09:44:22Z</time>
      </trkpt>
      <trkpt lat="45.19508" lon="5.99888">
        <ele>2372.2</ele>
        <time>2022-01-16T09:44:24Z</time>
      </trkpt>
      <trkpt lat="45.19508" lon="5.99888">
        <ele>2372.2</ele>
        <time>2022-01-16T09:44:27Z</time>
      </trkpt>
      <trkpt lat="45.19508" lon="5.99888">
        <ele>2372.2</ele>
        <time>2022-01-16T09:44:29Z</time>
      </trkpt>
      <trkpt lat="45.19508" lon="5.99888">
        <ele>2372.2</ele>
        <time>2022-01-16T09:44:31Z</time>
      </trkpt>
      <trkpt lat="45.19508" lon="5.99888">
        <ele>2372.2</ele>
        <time>2022-01-16T09:44:32Z</time>
      </trkpt>
      <trkpt lat="45.19508" lon="5.99888">
        <ele>2372.2</ele>
        <time>2022-01-16T09:44:36Z</time>
      </trkpt>
      <trkpt lat="45.19508" lon="5.99888">
        <ele>2372.2</ele>
        <time>2022-01-16T09:44:42Z</time>
      </trkpt>
      <trkpt lat="45.19508" lon="5.99888">
        <ele>2372.2</ele>
        <time>2022-01-16T09:44:48Z</time>
      </trkpt>
      <trkpt lat="45.19508" lon="5.99888">
        <ele>2372.2</ele>
        <time>2022-01-16T09:44:54Z</time>
      </trkpt>
      <trkpt lat="45.19508" lon="5.99888">
        <ele>2372.2</ele>
        <time>2022-01-16T09:45:00Z</time>
      </trkpt>
      <trkpt lat="45.19508" lon="5.99888">
        <ele>2372.2</ele>
        <time>2022-01-16T09:45:01Z</time>
      </trkpt>
      <trkpt lat="45.19508" lon="5.99888">
        <ele>2372.2</ele>
        <time>2022-01-16T09:45:05Z</time>
      </trkpt>
      <trkpt lat="45.19508" lon="5.99888">
        <ele>2372.2</ele>
        <time>2022-01-16T09:45:11Z</time>
      </trkpt>
      <trkpt lat="45.19508" lon="5.99888">
        <ele>2372.2</ele>
        <time>2022-01-16T09:45:15Z</time>
      </trkpt>
      <trkpt lat="45.19508" lon="5.99888">
        <ele>2372.2</ele>
        <time>2022-01-16T09:45:18Z</time>
      </trkpt>
      <trkpt lat="45.19508" lon="5.99888">
        <ele>2372.2</ele>
        <time>2022-01-16T09:45:20Z</time>
      </trkpt>
      <trkpt lat="45.19508" lon="5.99888">
        <ele>2372.2</ele>
        <time>2022-01-16T09:45:23Z</time>
      </trkpt>
      <trkpt lat="45.19508" lon="5.99888">
        <ele>2372.2</ele>
        <time>2022-01-16T09:45:29Z</time>
      </trkpt>
      <trkpt lat="45.19508" lon="5.99888">
        <ele>2372.2</ele>
        <time>2022-01-16T09:45:35Z</time>
      </trkpt>
      <trkpt lat="45.19508" lon="5.99888">
        <ele>2372.2</ele>
        <time>2022-01-16T09:45:38Z</time>
      </trkpt>
      <trkpt lat="45.19508" lon="5.99888">
        <ele>2372.2</ele>
        <time>2022-01-16T09:45:39Z</time>
      </trkpt>
      <trkpt lat="45.19508" lon="5.99888">
        <ele>2372.2</ele>
        <time>2022-01-16T09:45:40Z</time>
      </trkpt>
      <trkpt lat="45.19508" lon="5.99888">
        <ele>2372.2</ele>
        <time>2022-01-16T09:45:41Z</time>
      </trkpt>
      <trkpt lat="45.19508" lon="5.99888">
        <ele>2372.2</ele>
        <time>2022-01-16T09:45:43Z</time>
      </trkpt>
      <trkpt lat="45.19508" lon="5.99888">
        <ele>2372.2</ele>
        <time>2022-01-16T09:45:45Z</time>
      </trkpt>
      <trkpt lat="45.19508" lon="5.99888">
        <ele>2372.2</ele>
        <time>2022-01-16T09:45:47Z</time>
      </trkpt>
      <trkpt lat="45.19508" lon="5.99888">
        <ele>2372.2</ele>
        <time>2022-01-16T09:45:53Z</time>
      </trkpt>
      <trkpt lat="45.19508" lon="5.99888">
        <ele>2372.2</ele>
        <time>2022-01-16T09:45:55Z</time>
      </trkpt>
      <trkpt lat="45.19508" lon="5.99888">
        <ele>2372.2</ele>
        <time>2022-01-16T09:46:01Z</time>
      </trkpt>
      <trkpt lat="45.19508" lon="5.99888">
        <ele>2372.2</ele>
        <time>2022-01-16T09:46:06Z</time>
      </trkpt>
      <trkpt lat="45.19508" lon="5.99888">
        <ele>2372.2</ele>
        <time>2022-01-16T09:46:08Z</time>
      </trkpt>
      <trkpt lat="45.19508" lon="5.99888">
        <ele>2372.2</ele>
        <time>2022-01-16T09:46:10Z</time>
      </trkpt>
      <trkpt lat="45.19506" lon="5.99884">
        <ele>2372.2</ele>
        <time>2022-01-16T09:46:14Z</time>
      </trkpt>
      <trkpt lat="45.19506" lon="5.99881">
        <ele>2372.2</ele>
        <time>2022-01-16T09:46:16Z</time>
      </trkpt>
      <trkpt lat="45.19506" lon="5.99879">
        <ele>2372.2</ele>
        <time>2022-01-16T09:46:17Z</time>
      </trkpt>
      <trkpt lat="45.19507" lon="5.99873">
        <ele>2372.8</ele>
        <time>2022-01-16T09:46:20Z</time>
      </trkpt>
      <trkpt lat="45.19508" lon="5.9987">
        <ele>2373.4</ele>
        <time>2022-01-16T09:46:22Z</time>
      </trkpt>
      <trkpt lat="45.19513" lon="5.99863">
        <ele>2374</ele>
        <time>2022-01-16T09:46:27Z</time>
      </trkpt>
      <trkpt lat="45.19515" lon="5.99861">
        <ele>2374.4</ele>
        <time>2022-01-16T09:46:30Z</time>
      </trkpt>
      <trkpt lat="45.19516" lon="5.9986">
        <ele>2374.8</ele>
        <time>2022-01-16T09:46:31Z</time>
      </trkpt>
      <trkpt lat="45.19519" lon="5.99857">
        <ele>2376.2</ele>
        <time>2022-01-16T09:46:36Z</time>
      </trkpt>
      <trkpt lat="45.19519" lon="5.99853">
        <ele>2376.6</ele>
        <time>2022-01-16T09:46:38Z</time>
      </trkpt>
      <trkpt lat="45.1952" lon="5.9985">
        <ele>2376.8</ele>
        <time>2022-01-16T09:46:40Z</time>
      </trkpt>
      <trkpt lat="45.1952" lon="5.99849">
        <ele>2377.2</ele>
        <time>2022-01-16T09:46:41Z</time>
      </trkpt>
      <trkpt lat="45.19522" lon="5.99848">
        <ele>2378.4</ele>
        <time>2022-01-16T09:46:45Z</time>
      </trkpt>
      <trkpt lat="45.19522" lon="5.99848">
        <ele>2378.4</ele>
        <time>2022-01-16T09:46:46Z</time>
      </trkpt>
      <trkpt lat="45.19522" lon="5.99847">
        <ele>2378.8</ele>
        <time>2022-01-16T09:46:47Z</time>
      </trkpt>
      <trkpt lat="45.1952" lon="5.99845">
        <ele>2379.6</ele>
        <time>2022-01-16T09:46:51Z</time>
      </trkpt>
      <trkpt lat="45.19516" lon="5.99843">
        <ele>2380.4</ele>
        <time>2022-01-16T09:46:56Z</time>
      </trkpt>
      <trkpt lat="45.19515" lon="5.99843">
        <ele>2380.8</ele>
        <time>2022-01-16T09:46:57Z</time>
      </trkpt>
      <trkpt lat="45.1951" lon="5.99841">
        <ele>2381.8</ele>
        <time>2022-01-16T09:47:03Z</time>
      </trkpt>
      <trkpt lat="45.19508" lon="5.9984">
        <ele>2383</ele>
        <time>2022-01-16T09:47:06Z</time>
      </trkpt>
      <trkpt lat="45.19502" lon="5.99838">
        <ele>2383.8</ele>
        <time>2022-01-16T09:47:12Z</time>
      </trkpt>
      <trkpt lat="45.19502" lon="5.99838">
        <ele>2384</ele>
        <time>2022-01-16T09:47:13Z</time>
      </trkpt>
      <trkpt lat="45.19501" lon="5.99838">
        <ele>2384.2</ele>
        <time>2022-01-16T09:47:14Z</time>
      </trkpt>
      <trkpt lat="45.195" lon="5.99838">
        <ele>2384.6</ele>
        <time>2022-01-16T09:47:15Z</time>
      </trkpt>
      <trkpt lat="45.19497" lon="5.99837">
        <ele>2385.2</ele>
        <time>2022-01-16T09:47:18Z</time>
      </trkpt>
      <trkpt lat="45.19496" lon="5.99837">
        <ele>2385.4</ele>
        <time>2022-01-16T09:47:20Z</time>
      </trkpt>
      <trkpt lat="45.19495" lon="5.99836">
        <ele>2386</ele>
        <time>2022-01-16T09:47:23Z</time>
      </trkpt>
      <trkpt lat="45.19496" lon="5.99834">
        <ele>2386.2</ele>
        <time>2022-01-16T09:47:26Z</time>
      </trkpt>
      <trkpt lat="45.19497" lon="5.9983">
        <ele>2387</ele>
        <time>2022-01-16T09:47:29Z</time>
      </trkpt>
      <trkpt lat="45.19499" lon="5.99827">
        <ele>2387.4</ele>
        <time>2022-01-16T09:47:31Z</time>
      </trkpt>
      <trkpt lat="45.19501" lon="5.99824">
        <ele>2388.2</ele>
        <time>2022-01-16T09:47:34Z</time>
      </trkpt>
      <trkpt lat="45.19502" lon="5.99822">
        <ele>2388.6</ele>
        <time>2022-01-16T09:47:36Z</time>
      </trkpt>
      <trkpt lat="45.19506" lon="5.99815">
        <ele>2389.4</ele>
        <time>2022-01-16T09:47:41Z</time>
      </trkpt>
      <trkpt lat="45.19507" lon="5.99814">
        <ele>2389.8</ele>
        <time>2022-01-16T09:47:42Z</time>
      </trkpt>
      <trkpt lat="45.19508" lon="5.99812">
        <ele>2390.8</ele>
        <time>2022-01-16T09:47:44Z</time>
      </trkpt>
      <trkpt lat="45.19509" lon="5.99812">
        <ele>2390.8</ele>
        <time>2022-01-16T09:47:45Z</time>
      </trkpt>
      <trkpt lat="45.1951" lon="5.9981">
        <ele>2391</ele>
        <time>2022-01-16T09:47:47Z</time>
      </trkpt>
      <trkpt lat="45.19511" lon="5.99809">
        <ele>2391.8</ele>
        <time>2022-01-16T09:47:50Z</time>
      </trkpt>
      <trkpt lat="45.19511" lon="5.99809">
        <ele>2392</ele>
        <time>2022-01-16T09:47:51Z</time>
      </trkpt>
      <trkpt lat="45.19511" lon="5.99811">
        <ele>2392</ele>
        <time>2022-01-16T09:47:52Z</time>
      </trkpt>
      <trkpt lat="45.19511" lon="5.99812">
        <ele>2392.2</ele>
        <time>2022-01-16T09:47:53Z</time>
      </trkpt>
      <trkpt lat="45.1951" lon="5.99813">
        <ele>2393.2</ele>
        <time>2022-01-16T09:47:55Z</time>
      </trkpt>
      <trkpt lat="45.19509" lon="5.99812">
        <ele>2393.6</ele>
        <time>2022-01-16T09:47:57Z</time>
      </trkpt>
      <trkpt lat="45.19508" lon="5.99811">
        <ele>2393.6</ele>
        <time>2022-01-16T09:47:58Z</time>
      </trkpt>
      <trkpt lat="45.19506" lon="5.99811">
        <ele>2394.6</ele>
        <time>2022-01-16T09:48:01Z</time>
      </trkpt>
      <trkpt lat="45.19504" lon="5.99812">
        <ele>2394.8</ele>
        <time>2022-01-16T09:48:04Z</time>
      </trkpt>
      <trkpt lat="45.19503" lon="5.99811">
        <ele>2394.8</ele>
        <time>2022-01-16T09:48:05Z</time>
      </trkpt>
      <trkpt lat="45.19502" lon="5.99811">
        <ele>2395.6</ele>
        <time>2022-01-16T09:48:07Z</time>
      </trkpt>
      <trkpt lat="45.19501" lon="5.99811">
        <ele>2395.6</ele>
        <time>2022-01-16T09:48:08Z</time>
      </trkpt>
      <trkpt lat="45.195" lon="5.99811">
        <ele>2395.8</ele>
        <time>2022-01-16T09:48:09Z</time>
      </trkpt>
      <trkpt lat="45.19498" lon="5.99811">
        <ele>2396</ele>
        <time>2022-01-16T09:48:11Z</time>
      </trkpt>
      <trkpt lat="45.19497" lon="5.9981">
        <ele>2396.4</ele>
        <time>2022-01-16T09:48:15Z</time>
      </trkpt>
      <trkpt lat="45.19496" lon="5.99811">
        <ele>2396.4</ele>
        <time>2022-01-16T09:48:17Z</time>
      </trkpt>
      <trkpt lat="45.19495" lon="5.99811">
        <ele>2396.8</ele>
        <time>2022-01-16T09:48:21Z</time>
      </trkpt>
      <trkpt lat="45.19493" lon="5.99813">
        <ele>2397.4</ele>
        <time>2022-01-16T09:48:25Z</time>
      </trkpt>
      <trkpt lat="45.19489" lon="5.99813">
        <ele>2397.6</ele>
        <time>2022-01-16T09:48:31Z</time>
      </trkpt>
      <trkpt lat="45.19488" lon="5.99813">
        <ele>2398.2</ele>
        <time>2022-01-16T09:48:32Z</time>
      </trkpt>
      <trkpt lat="45.19484" lon="5.99815">
        <ele>2399</ele>
        <time>2022-01-16T09:48:38Z</time>
      </trkpt>
      <trkpt lat="45.19484" lon="5.99815">
        <ele>2399.2</ele>
        <time>2022-01-16T09:48:39Z</time>
      </trkpt>
      <trkpt lat="45.19483" lon="5.99816">
        <ele>2399.4</ele>
        <time>2022-01-16T09:48:42Z</time>
      </trkpt>
      <trkpt lat="45.1948" lon="5.99818">
        <ele>2399.8</ele>
        <time>2022-01-16T09:48:45Z</time>
      </trkpt>
      <trkpt lat="45.19478" lon="5.99817">
        <ele>2400.2</ele>
        <time>2022-01-16T09:48:51Z</time>
      </trkpt>
      <trkpt lat="45.19478" lon="5.99817">
        <ele>2400.4</ele>
        <time>2022-01-16T09:48:52Z</time>
      </trkpt>
      <trkpt lat="45.19476" lon="5.99817">
        <ele>2400.8</ele>
        <time>2022-01-16T09:48:56Z</time>
      </trkpt>
      <trkpt lat="45.19474" lon="5.99818">
        <ele>2401.6</ele>
        <time>2022-01-16T09:49:00Z</time>
      </trkpt>
      <trkpt lat="45.19472" lon="5.99819">
        <ele>2402</ele>
        <time>2022-01-16T09:49:04Z</time>
      </trkpt>
      <trkpt lat="45.1947" lon="5.9982">
        <ele>2402.2</ele>
        <time>2022-01-16T09:49:06Z</time>
      </trkpt>
      <trkpt lat="45.19469" lon="5.99821">
        <ele>2402.8</ele>
        <time>2022-01-16T09:49:09Z</time>
      </trkpt>
      <trkpt lat="45.19467" lon="5.99822">
        <ele>2403.2</ele>
        <time>2022-01-16T09:49:14Z</time>
      </trkpt>
      <trkpt lat="45.19466" lon="5.99822">
        <ele>2404</ele>
        <time>2022-01-16T09:49:16Z</time>
      </trkpt>
      <trkpt lat="45.19462" lon="5.99825">
        <ele>2404.4</ele>
        <time>2022-01-16T09:49:21Z</time>
      </trkpt>
      <trkpt lat="45.19459" lon="5.99829">
        <ele>2405.2</ele>
        <time>2022-01-16T09:49:24Z</time>
      </trkpt>
      <trkpt lat="45.19457" lon="5.99831">
        <ele>2405.8</ele>
        <time>2022-01-16T09:49:28Z</time>
      </trkpt>
      <trkpt lat="45.19456" lon="5.99834">
        <ele>2406.4</ele>
        <time>2022-01-16T09:49:30Z</time>
      </trkpt>
      <trkpt lat="45.19453" lon="5.99838">
        <ele>2407.2</ele>
        <time>2022-01-16T09:49:34Z</time>
      </trkpt>
      <trkpt lat="45.19453" lon="5.99838">
        <ele>2407.4</ele>
        <time>2022-01-16T09:49:35Z</time>
      </trkpt>
      <trkpt lat="45.19452" lon="5.99839">
        <ele>2408</ele>
        <time>2022-01-16T09:49:37Z</time>
      </trkpt>
      <trkpt lat="45.19451" lon="5.99841">
        <ele>2408.6</ele>
        <time>2022-01-16T09:49:40Z</time>
      </trkpt>
      <trkpt lat="45.1945" lon="5.99842">
        <ele>2409.4</ele>
        <time>2022-01-16T09:49:43Z</time>
      </trkpt>
      <trkpt lat="45.19449" lon="5.99842">
        <ele>2409.6</ele>
        <time>2022-01-16T09:49:44Z</time>
      </trkpt>
      <trkpt lat="45.19448" lon="5.99843">
        <ele>2410.4</ele>
        <time>2022-01-16T09:49:46Z</time>
      </trkpt>
      <trkpt lat="45.19447" lon="5.99846">
        <ele>2410.8</ele>
        <time>2022-01-16T09:49:49Z</time>
      </trkpt>
      <trkpt lat="45.19445" lon="5.99847">
        <ele>2411.6</ele>
        <time>2022-01-16T09:49:54Z</time>
      </trkpt>
      <trkpt lat="45.19445" lon="5.99846">
        <ele>2411.8</ele>
        <time>2022-01-16T09:49:56Z</time>
      </trkpt>
      <trkpt lat="45.19445" lon="5.99843">
        <ele>2412.4</ele>
        <time>2022-01-16T09:50:02Z</time>
      </trkpt>
      <trkpt lat="45.19445" lon="5.99838">
        <ele>2413.4</ele>
        <time>2022-01-16T09:50:06Z</time>
      </trkpt>
      <trkpt lat="45.19445" lon="5.99835">
        <ele>2414.4</ele>
        <time>2022-01-16T09:50:10Z</time>
      </trkpt>
      <trkpt lat="45.19446" lon="5.99835">
        <ele>2414.6</ele>
        <time>2022-01-16T09:50:12Z</time>
      </trkpt>
      <trkpt lat="45.19445" lon="5.99836">
        <ele>2415.2</ele>
        <time>2022-01-16T09:50:16Z</time>
      </trkpt>
      <trkpt lat="45.19445" lon="5.99836">
        <ele>2415.4</ele>
        <time>2022-01-16T09:50:17Z</time>
      </trkpt>
      <trkpt lat="45.19443" lon="5.99839">
        <ele>2416.8</ele>
        <time>2022-01-16T09:50:22Z</time>
      </trkpt>
      <trkpt lat="45.19443" lon="5.9984">
        <ele>2417</ele>
        <time>2022-01-16T09:50:24Z</time>
      </trkpt>
      <trkpt lat="45.19439" lon="5.99842">
        <ele>2417.8</ele>
        <time>2022-01-16T09:50:28Z</time>
      </trkpt>
      <trkpt lat="45.19438" lon="5.99843">
        <ele>2418.2</ele>
        <time>2022-01-16T09:50:30Z</time>
      </trkpt>
      <trkpt lat="45.19437" lon="5.99842">
        <ele>2418.6</ele>
        <time>2022-01-16T09:50:35Z</time>
      </trkpt>
      <trkpt lat="45.19437" lon="5.99841">
        <ele>2418.8</ele>
        <time>2022-01-16T09:50:36Z</time>
      </trkpt>
      <trkpt lat="45.19438" lon="5.99836">
        <ele>2419.8</ele>
        <time>2022-01-16T09:50:41Z</time>
      </trkpt>
      <trkpt lat="45.19438" lon="5.99835">
        <ele>2420.6</ele>
        <time>2022-01-16T09:50:47Z</time>
      </trkpt>
      <trkpt lat="45.19438" lon="5.99835">
        <ele>2420.4</ele>
        <time>2022-01-16T09:50:48Z</time>
      </trkpt>
      <trkpt lat="45.19438" lon="5.99835">
        <ele>2421</ele>
        <time>2022-01-16T09:50:52Z</time>
      </trkpt>
      <trkpt lat="45.19438" lon="5.99835">
        <ele>2422.4</ele>
        <time>2022-01-16T09:50:57Z</time>
      </trkpt>
      <trkpt lat="45.19435" lon="5.99838">
        <ele>2422.8</ele>
        <time>2022-01-16T09:51:01Z</time>
      </trkpt>
      <trkpt lat="45.19433" lon="5.99838">
        <ele>2423.6</ele>
        <time>2022-01-16T09:51:04Z</time>
      </trkpt>
      <trkpt lat="45.19432" lon="5.99838">
        <ele>2423.8</ele>
        <time>2022-01-16T09:51:08Z</time>
      </trkpt>
      <trkpt lat="45.19433" lon="5.99834">
        <ele>2424.2</ele>
        <time>2022-01-16T09:51:13Z</time>
      </trkpt>
      <trkpt lat="45.19433" lon="5.99831">
        <ele>2425</ele>
        <time>2022-01-16T09:51:16Z</time>
      </trkpt>
      <trkpt lat="45.19434" lon="5.99828">
        <ele>2425.8</ele>
        <time>2022-01-16T09:51:19Z</time>
      </trkpt>
      <trkpt lat="45.19435" lon="5.99828">
        <ele>2426</ele>
        <time>2022-01-16T09:51:21Z</time>
      </trkpt>
      <trkpt lat="45.19434" lon="5.99828">
        <ele>2425.6</ele>
        <time>2022-01-16T09:51:25Z</time>
      </trkpt>
      <trkpt lat="45.19433" lon="5.9983">
        <ele>2426</ele>
        <time>2022-01-16T09:51:29Z</time>
      </trkpt>
      <trkpt lat="45.19431" lon="5.99832">
        <ele>2426.8</ele>
        <time>2022-01-16T09:51:32Z</time>
      </trkpt>
      <trkpt lat="45.19431" lon="5.99834">
        <ele>2427.2</ele>
        <time>2022-01-16T09:51:33Z</time>
      </trkpt>
      <trkpt lat="45.1943" lon="5.99836">
        <ele>2428.2</ele>
        <time>2022-01-16T09:51:37Z</time>
      </trkpt>
      <trkpt lat="45.19429" lon="5.99837">
        <ele>2428.6</ele>
        <time>2022-01-16T09:51:39Z</time>
      </trkpt>
      <trkpt lat="45.19429" lon="5.99836">
        <ele>2428.8</ele>
        <time>2022-01-16T09:51:44Z</time>
      </trkpt>
      <trkpt lat="45.19427" lon="5.99833">
        <ele>2429.2</ele>
        <time>2022-01-16T09:51:48Z</time>
      </trkpt>
      <trkpt lat="45.19426" lon="5.99831">
        <ele>2429.8</ele>
        <time>2022-01-16T09:51:51Z</time>
      </trkpt>
      <trkpt lat="45.19426" lon="5.9983">
        <ele>2430.6</ele>
        <time>2022-01-16T09:51:52Z</time>
      </trkpt>
      <trkpt lat="45.19426" lon="5.9983">
        <ele>2430.8</ele>
        <time>2022-01-16T09:51:53Z</time>
      </trkpt>
      <trkpt lat="45.19427" lon="5.9983">
        <ele>2430.8</ele>
        <time>2022-01-16T09:51:56Z</time>
      </trkpt>
      <trkpt lat="45.19427" lon="5.9983">
        <ele>2430.8</ele>
        <time>2022-01-16T09:52:02Z</time>
      </trkpt>
      <trkpt lat="45.19427" lon="5.9983">
        <ele>2431.6</ele>
        <time>2022-01-16T09:52:07Z</time>
      </trkpt>
      <trkpt lat="45.19427" lon="5.9983">
        <ele>2431.8</ele>
        <time>2022-01-16T09:52:09Z</time>
      </trkpt>
      <trkpt lat="45.19427" lon="5.9983">
        <ele>2432.8</ele>
        <time>2022-01-16T09:52:12Z</time>
      </trkpt>
      <trkpt lat="45.19425" lon="5.99833">
        <ele>2433.8</ele>
        <time>2022-01-16T09:52:17Z</time>
      </trkpt>
      <trkpt lat="45.19424" lon="5.99835">
        <ele>2434.2</ele>
        <time>2022-01-16T09:52:19Z</time>
      </trkpt>
      <trkpt lat="45.19423" lon="5.99832">
        <ele>2434.8</ele>
        <time>2022-01-16T09:52:25Z</time>
      </trkpt>
      <trkpt lat="45.19422" lon="5.99831">
        <ele>2434.8</ele>
        <time>2022-01-16T09:52:26Z</time>
      </trkpt>
      <trkpt lat="45.19422" lon="5.99827">
        <ele>2435.8</ele>
        <time>2022-01-16T09:52:32Z</time>
      </trkpt>
      <trkpt lat="45.19422" lon="5.99827">
        <ele>2435.8</ele>
        <time>2022-01-16T09:52:33Z</time>
      </trkpt>
      <trkpt lat="45.19423" lon="5.99827">
        <ele>2436</ele>
        <time>2022-01-16T09:52:37Z</time>
      </trkpt>
      <trkpt lat="45.19423" lon="5.99827">
        <ele>2436.2</ele>
        <time>2022-01-16T09:52:39Z</time>
      </trkpt>
      <trkpt lat="45.19423" lon="5.99827">
        <ele>2436.2</ele>
        <time>2022-01-16T09:52:40Z</time>
      </trkpt>
      <trkpt lat="45.19423" lon="5.99827">
        <ele>2436.2</ele>
        <time>2022-01-16T09:52:46Z</time>
      </trkpt>
      <trkpt lat="45.19423" lon="5.99827">
        <ele>2436.2</ele>
        <time>2022-01-16T09:52:52Z</time>
      </trkpt>
      <trkpt lat="45.19423" lon="5.99827">
        <ele>2436.2</ele>
        <time>2022-01-16T09:52:55Z</time>
      </trkpt>
      <trkpt lat="45.19422" lon="5.99828">
        <ele>2437</ele>
        <time>2022-01-16T09:52:57Z</time>
      </trkpt>
      <trkpt lat="45.19422" lon="5.99828">
        <ele>2438</ele>
        <time>2022-01-16T09:53:03Z</time>
      </trkpt>
      <trkpt lat="45.19422" lon="5.99829">
        <ele>2439</ele>
        <time>2022-01-16T09:53:09Z</time>
      </trkpt>
      <trkpt lat="45.19422" lon="5.99829">
        <ele>2439.2</ele>
        <time>2022-01-16T09:53:10Z</time>
      </trkpt>
      <trkpt lat="45.1942" lon="5.99829">
        <ele>2440</ele>
        <time>2022-01-16T09:53:16Z</time>
      </trkpt>
      <trkpt lat="45.19419" lon="5.99829">
        <ele>2440.2</ele>
        <time>2022-01-16T09:53:17Z</time>
      </trkpt>
      <trkpt lat="45.19419" lon="5.99828">
        <ele>2440.4</ele>
        <time>2022-01-16T09:53:23Z</time>
      </trkpt>
      <trkpt lat="45.19419" lon="5.99828">
        <ele>2440.4</ele>
        <time>2022-01-16T09:53:25Z</time>
      </trkpt>
      <trkpt lat="45.19419" lon="5.99828">
        <ele>2440.4</ele>
        <time>2022-01-16T09:53:27Z</time>
      </trkpt>
      <trkpt lat="45.19418" lon="5.99827">
        <ele>2440.8</ele>
        <time>2022-01-16T09:53:33Z</time>
      </trkpt>
      <trkpt lat="45.19417" lon="5.99827">
        <ele>2441.4</ele>
        <time>2022-01-16T09:53:35Z</time>
      </trkpt>
      <trkpt lat="45.19417" lon="5.99827">
        <ele>2442.4</ele>
        <time>2022-01-16T09:53:39Z</time>
      </trkpt>
      <trkpt lat="45.19417" lon="5.99828">
        <ele>2442.4</ele>
        <time>2022-01-16T09:53:45Z</time>
      </trkpt>
      <trkpt lat="45.19416" lon="5.9983">
        <ele>2442.2</ele>
        <time>2022-01-16T09:53:51Z</time>
      </trkpt>
      <trkpt lat="45.19416" lon="5.9983">
        <ele>2442.4</ele>
        <time>2022-01-16T09:53:57Z</time>
      </trkpt>
      <trkpt lat="45.19416" lon="5.9983">
        <ele>2442.2</ele>
        <time>2022-01-16T09:54:03Z</time>
      </trkpt>
      <trkpt lat="45.19416" lon="5.99831">
        <ele>2442.2</ele>
        <time>2022-01-16T09:54:09Z</time>
      </trkpt>
      <trkpt lat="45.19417" lon="5.99831">
        <ele>2442.2</ele>
        <time>2022-01-16T09:54:11Z</time>
      </trkpt>
      <trkpt lat="45.19416" lon="5.99833">
        <ele>2441.8</ele>
        <time>2022-01-16T09:54:15Z</time>
      </trkpt>
      <trkpt lat="45.19416" lon="5.99833">
        <ele>2441.8</ele>
        <time>2022-01-16T09:54:16Z</time>
      </trkpt>
      <trkpt lat="45.19416" lon="5.99833">
        <ele>2441.8</ele>
        <time>2022-01-16T09:54:17Z</time>
      </trkpt>
      <trkpt lat="45.19416" lon="5.99833">
        <ele>2441.8</ele>
        <time>2022-01-16T09:54:18Z</time>
      </trkpt>
      <trkpt lat="45.19416" lon="5.99833">
        <ele>2441.8</ele>
        <time>2022-01-16T09:54:22Z</time>
      </trkpt>
      <trkpt lat="45.19416" lon="5.99833">
        <ele>2441.4</ele>
        <time>2022-01-16T09:54:28Z</time>
      </trkpt>
      <trkpt lat="45.19415" lon="5.99833">
        <ele>2441.4</ele>
        <time>2022-01-16T09:54:32Z</time>
      </trkpt>
      <trkpt lat="45.19415" lon="5.99833">
        <ele>2441.4</ele>
        <time>2022-01-16T09:54:38Z</time>
      </trkpt>
      <trkpt lat="45.19415" lon="5.99834">
        <ele>2441.2</ele>
        <time>2022-01-16T09:54:42Z</time>
      </trkpt>
      <trkpt lat="45.19415" lon="5.99834">
        <ele>2441.2</ele>
        <time>2022-01-16T09:54:43Z</time>
      </trkpt>
      <trkpt lat="45.19415" lon="5.99834">
        <ele>2441.2</ele>
        <time>2022-01-16T09:54:44Z</time>
      </trkpt>
      <trkpt lat="45.19415" lon="5.99834">
        <ele>2441.2</ele>
        <time>2022-01-16T09:54:46Z</time>
      </trkpt>
      <trkpt lat="45.19414" lon="5.99834">
        <ele>2441.2</ele>
        <time>2022-01-16T09:54:48Z</time>
      </trkpt>
      <trkpt lat="45.19414" lon="5.99834">
        <ele>2441.2</ele>
        <time>2022-01-16T09:54:50Z</time>
      </trkpt>
      <trkpt lat="45.19414" lon="5.99834">
        <ele>2441.6</ele>
        <time>2022-01-16T09:54:56Z</time>
      </trkpt>
      <trkpt lat="45.19414" lon="5.99834">
        <ele>2441.4</ele>
        <time>2022-01-16T09:54:59Z</time>
      </trkpt>
      <trkpt lat="45.19414" lon="5.99834">
        <ele>2441.2</ele>
        <time>2022-01-16T09:55:01Z</time>
      </trkpt>
      <trkpt lat="45.19416" lon="5.99833">
        <ele>2441.2</ele>
        <time>2022-01-16T09:55:06Z</time>
      </trkpt>
      <trkpt lat="45.19416" lon="5.99832">
        <ele>2441.6</ele>
        <time>2022-01-16T09:55:10Z</time>
      </trkpt>
      <trkpt lat="45.19416" lon="5.99832">
        <ele>2441.8</ele>
        <time>2022-01-16T09:55:12Z</time>
      </trkpt>
      <trkpt lat="45.19416" lon="5.99832">
        <ele>2442.2</ele>
        <time>2022-01-16T09:55:16Z</time>
      </trkpt>
      <trkpt lat="45.19416" lon="5.99832">
        <ele>2442.4</ele>
        <time>2022-01-16T09:55:17Z</time>
      </trkpt>
      <trkpt lat="45.19416" lon="5.99832">
        <ele>2442.4</ele>
        <time>2022-01-16T09:55:20Z</time>
      </trkpt>
      <trkpt lat="45.19416" lon="5.99831">
        <ele>2443.6</ele>
        <time>2022-01-16T09:55:23Z</time>
      </trkpt>
      <trkpt lat="45.19416" lon="5.99831">
        <ele>2444</ele>
        <time>2022-01-16T09:55:25Z</time>
      </trkpt>
      <trkpt lat="45.19415" lon="5.99831">
        <ele>2444</ele>
        <time>2022-01-16T09:55:28Z</time>
      </trkpt>
      <trkpt lat="45.19414" lon="5.99831">
        <ele>2444.2</ele>
        <time>2022-01-16T09:55:30Z</time>
      </trkpt>
      <trkpt lat="45.19414" lon="5.99831">
        <ele>2444.6</ele>
        <time>2022-01-16T09:55:32Z</time>
      </trkpt>
      <trkpt lat="45.19414" lon="5.99831">
        <ele>2444.6</ele>
        <time>2022-01-16T09:55:34Z</time>
      </trkpt>
      <trkpt lat="45.19413" lon="5.99831">
        <ele>2444.8</ele>
        <time>2022-01-16T09:55:38Z</time>
      </trkpt>
      <trkpt lat="45.19412" lon="5.99831">
        <ele>2445.8</ele>
        <time>2022-01-16T09:55:44Z</time>
      </trkpt>
      <trkpt lat="45.19411" lon="5.99831">
        <ele>2446.4</ele>
        <time>2022-01-16T09:55:50Z</time>
      </trkpt>
      <trkpt lat="45.1941" lon="5.99831">
        <ele>2446.8</ele>
        <time>2022-01-16T09:55:55Z</time>
      </trkpt>
      <trkpt lat="45.1941" lon="5.99831">
        <ele>2447.4</ele>
        <time>2022-01-16T09:56:01Z</time>
      </trkpt>
      <trkpt lat="45.1941" lon="5.99831">
        <ele>2447.8</ele>
        <time>2022-01-16T09:56:07Z</time>
      </trkpt>
      <trkpt lat="45.19409" lon="5.99831">
        <ele>2448</ele>
        <time>2022-01-16T09:56:08Z</time>
      </trkpt>
      <trkpt lat="45.19409" lon="5.99831">
        <ele>2448.4</ele>
        <time>2022-01-16T09:56:14Z</time>
      </trkpt>
      <trkpt lat="45.19408" lon="5.99831">
        <ele>2449</ele>
        <time>2022-01-16T09:56:20Z</time>
      </trkpt>
      <trkpt lat="45.19408" lon="5.99831">
        <ele>2449.4</ele>
        <time>2022-01-16T09:56:23Z</time>
      </trkpt>
      <trkpt lat="45.19407" lon="5.99832">
        <ele>2450.4</ele>
        <time>2022-01-16T09:56:29Z</time>
      </trkpt>
      <trkpt lat="45.19406" lon="5.99832">
        <ele>2450.4</ele>
        <time>2022-01-16T09:56:35Z</time>
      </trkpt>
      <trkpt lat="45.19406" lon="5.99832">
        <ele>2450.4</ele>
        <time>2022-01-16T09:56:38Z</time>
      </trkpt>
      <trkpt lat="45.19405" lon="5.99833">
        <ele>2451.2</ele>
        <time>2022-01-16T09:56:44Z</time>
      </trkpt>
      <trkpt lat="45.19405" lon="5.99834">
        <ele>2451.6</ele>
        <time>2022-01-16T09:56:49Z</time>
      </trkpt>
      <trkpt lat="45.19405" lon="5.99834">
        <ele>2452</ele>
        <time>2022-01-16T09:56:55Z</time>
      </trkpt>
      <trkpt lat="45.19404" lon="5.99834">
        <ele>2451.8</ele>
        <time>2022-01-16T09:56:58Z</time>
      </trkpt>
      <trkpt lat="45.19404" lon="5.99834">
        <ele>2451.8</ele>
        <time>2022-01-16T09:57:04Z</time>
      </trkpt>
      <trkpt lat="45.19404" lon="5.99834">
        <ele>2451.8</ele>
        <time>2022-01-16T09:57:07Z</time>
      </trkpt>
      <trkpt lat="45.19404" lon="5.99834">
        <ele>2451.8</ele>
        <time>2022-01-16T09:57:13Z</time>
      </trkpt>
      <trkpt lat="45.19404" lon="5.99833">
        <ele>2452.2</ele>
        <time>2022-01-16T09:57:16Z</time>
      </trkpt>
      <trkpt lat="45.19404" lon="5.99833">
        <ele>2452.2</ele>
        <time>2022-01-16T09:57:22Z</time>
      </trkpt>
      <trkpt lat="45.19404" lon="5.99833">
        <ele>2452</ele>
        <time>2022-01-16T09:57:25Z</time>
      </trkpt>
      <trkpt lat="45.19404" lon="5.99832">
        <ele>2451.8</ele>
        <time>2022-01-16T09:57:29Z</time>
      </trkpt>
      <trkpt lat="45.19404" lon="5.99832">
        <ele>2451.8</ele>
        <time>2022-01-16T09:57:32Z</time>
      </trkpt>
      <trkpt lat="45.19404" lon="5.99832">
        <ele>2452</ele>
        <time>2022-01-16T09:57:35Z</time>
      </trkpt>
      <trkpt lat="45.19404" lon="5.99832">
        <ele>2451.8</ele>
        <time>2022-01-16T09:57:37Z</time>
      </trkpt>
      <trkpt lat="45.19404" lon="5.99832">
        <ele>2451.6</ele>
        <time>2022-01-16T09:57:42Z</time>
      </trkpt>
      <trkpt lat="45.19404" lon="5.99832">
        <ele>2451.6</ele>
        <time>2022-01-16T09:57:44Z</time>
      </trkpt>
      <trkpt lat="45.19404" lon="5.99832">
        <ele>2451.8</ele>
        <time>2022-01-16T09:57:46Z</time>
      </trkpt>
      <trkpt lat="45.19404" lon="5.99832">
        <ele>2451.8</ele>
        <time>2022-01-16T09:57:48Z</time>
      </trkpt>
      <trkpt lat="45.19404" lon="5.99832">
        <ele>2451.6</ele>
        <time>2022-01-16T09:57:50Z</time>
      </trkpt>
      <trkpt lat="45.19404" lon="5.99832">
        <ele>2451.2</ele>
        <time>2022-01-16T09:57:53Z</time>
      </trkpt>
      <trkpt lat="45.19404" lon="5.99832">
        <ele>2451.2</ele>
        <time>2022-01-16T09:57:56Z</time>
      </trkpt>
      <trkpt lat="45.19404" lon="5.99832">
        <ele>2451.4</ele>
        <time>2022-01-16T09:57:59Z</time>
      </trkpt>
      <trkpt lat="45.19404" lon="5.99832">
        <ele>2451.2</ele>
        <time>2022-01-16T09:58:05Z</time>
      </trkpt>
      <trkpt lat="45.19404" lon="5.99832">
        <ele>2451</ele>
        <time>2022-01-16T09:58:11Z</time>
      </trkpt>
      <trkpt lat="45.19404" lon="5.99832">
        <ele>2451</ele>
        <time>2022-01-16T09:58:12Z</time>
      </trkpt>
      <trkpt lat="45.19404" lon="5.99832">
        <ele>2451</ele>
        <time>2022-01-16T09:58:13Z</time>
      </trkpt>
      <trkpt lat="45.19404" lon="5.99832">
        <ele>2451.2</ele>
        <time>2022-01-16T09:58:14Z</time>
      </trkpt>
      <trkpt lat="45.19404" lon="5.99831">
        <ele>2451.2</ele>
        <time>2022-01-16T09:58:17Z</time>
      </trkpt>
      <trkpt lat="45.19404" lon="5.99831">
        <ele>2451</ele>
        <time>2022-01-16T09:58:23Z</time>
      </trkpt>
      <trkpt lat="45.19404" lon="5.99831">
        <ele>2450.8</ele>
        <time>2022-01-16T09:58:26Z</time>
      </trkpt>
      <trkpt lat="45.19404" lon="5.99831">
        <ele>2450.8</ele>
        <time>2022-01-16T09:58:27Z</time>
      </trkpt>
      <trkpt lat="45.19404" lon="5.99831">
        <ele>2450.8</ele>
        <time>2022-01-16T09:58:30Z</time>
      </trkpt>
      <trkpt lat="45.19404" lon="5.99831">
        <ele>2450.8</ele>
        <time>2022-01-16T09:58:32Z</time>
      </trkpt>
      <trkpt lat="45.19404" lon="5.99831">
        <ele>2450.8</ele>
        <time>2022-01-16T09:58:35Z</time>
      </trkpt>
      <trkpt lat="45.19404" lon="5.99831">
        <ele>2450.8</ele>
        <time>2022-01-16T09:58:36Z</time>
      </trkpt>
      <trkpt lat="45.19404" lon="5.99831">
        <ele>2450.8</ele>
        <time>2022-01-16T09:58:38Z</time>
      </trkpt>
      <trkpt lat="45.19404" lon="5.99831">
        <ele>2450.6</ele>
        <time>2022-01-16T09:58:41Z</time>
      </trkpt>
      <trkpt lat="45.19404" lon="5.99831">
        <ele>2450.6</ele>
        <time>2022-01-16T09:58:45Z</time>
      </trkpt>
      <trkpt lat="45.19404" lon="5.99831">
        <ele>2450.6</ele>
        <time>2022-01-16T09:58:46Z</time>
      </trkpt>
      <trkpt lat="45.19404" lon="5.99831">
        <ele>2450.6</ele>
        <time>2022-01-16T09:58:47Z</time>
      </trkpt>
      <trkpt lat="45.19404" lon="5.99831">
        <ele>2450.6</ele>
        <time>2022-01-16T09:58:50Z</time>
      </trkpt>
      <trkpt lat="45.19404" lon="5.99831">
        <ele>2450.6</ele>
        <time>2022-01-16T09:58:51Z</time>
      </trkpt>
      <trkpt lat="45.19404" lon="5.99831">
        <ele>2450.4</ele>
        <time>2022-01-16T09:58:53Z</time>
      </trkpt>
      <trkpt lat="45.19404" lon="5.99831">
        <ele>2450.4</ele>
        <time>2022-01-16T09:58:54Z</time>
      </trkpt>
      <trkpt lat="45.19404" lon="5.99831">
        <ele>2450.4</ele>
        <time>2022-01-16T09:58:56Z</time>
      </trkpt>
      <trkpt lat="45.19404" lon="5.99831">
        <ele>2450.4</ele>
        <time>2022-01-16T09:58:59Z</time>
      </trkpt>
      <trkpt lat="45.19404" lon="5.99831">
        <ele>2450.4</ele>
        <time>2022-01-16T09:59:00Z</time>
      </trkpt>
      <trkpt lat="45.19404" lon="5.99831">
        <ele>2450.2</ele>
        <time>2022-01-16T09:59:05Z</time>
      </trkpt>
      <trkpt lat="45.19404" lon="5.99831">
        <ele>2450.2</ele>
        <time>2022-01-16T09:59:08Z</time>
      </trkpt>
      <trkpt lat="45.19404" lon="5.99831">
        <ele>2450.2</ele>
        <time>2022-01-16T09:59:11Z</time>
      </trkpt>
      <trkpt lat="45.19404" lon="5.99831">
        <ele>2450.2</ele>
        <time>2022-01-16T09:59:12Z</time>
      </trkpt>
      <trkpt lat="45.19404" lon="5.99831">
        <ele>2450.2</ele>
        <time>2022-01-16T09:59:16Z</time>
      </trkpt>
      <trkpt lat="45.19404" lon="5.99831">
        <ele>2450</ele>
        <time>2022-01-16T09:59:22Z</time>
      </trkpt>
      <trkpt lat="45.19404" lon="5.99831">
        <ele>2450</ele>
        <time>2022-01-16T09:59:23Z</time>
      </trkpt>
      <trkpt lat="45.19404" lon="5.99831">
        <ele>2450.2</ele>
        <time>2022-01-16T09:59:24Z</time>
      </trkpt>
      <trkpt lat="45.19404" lon="5.99831">
        <ele>2450</ele>
        <time>2022-01-16T09:59:25Z</time>
      </trkpt>
      <trkpt lat="45.19404" lon="5.99831">
        <ele>2450</ele>
        <time>2022-01-16T09:59:29Z</time>
      </trkpt>
      <trkpt lat="45.19404" lon="5.99831">
        <ele>2450</ele>
        <time>2022-01-16T09:59:31Z</time>
      </trkpt>
      <trkpt lat="45.19404" lon="5.99831">
        <ele>2450</ele>
        <time>2022-01-16T09:59:33Z</time>
      </trkpt>
      <trkpt lat="45.19404" lon="5.99831">
        <ele>2450</ele>
        <time>2022-01-16T09:59:36Z</time>
      </trkpt>
      <trkpt lat="45.19404" lon="5.99831">
        <ele>2450</ele>
        <time>2022-01-16T09:59:38Z</time>
      </trkpt>
      <trkpt lat="45.19404" lon="5.99831">
        <ele>2449.8</ele>
        <time>2022-01-16T09:59:40Z</time>
      </trkpt>
      <trkpt lat="45.19404" lon="5.99831">
        <ele>2449.6</ele>
        <time>2022-01-16T09:59:42Z</time>
      </trkpt>
      <trkpt lat="45.19404" lon="5.99831">
        <ele>2449.6</ele>
        <time>2022-01-16T09:59:44Z</time>
      </trkpt>
      <trkpt lat="45.19404" lon="5.99831">
        <ele>2449.6</ele>
        <time>2022-01-16T09:59:45Z</time>
      </trkpt>
      <trkpt lat="45.19404" lon="5.99831">
        <ele>2449.4</ele>
        <time>2022-01-16T09:59:50Z</time>
      </trkpt>
      <trkpt lat="45.19404" lon="5.99831">
        <ele>2449.4</ele>
        <time>2022-01-16T09:59:53Z</time>
      </trkpt>
      <trkpt lat="45.19404" lon="5.99831">
        <ele>2449.6</ele>
        <time>2022-01-16T09:59:55Z</time>
      </trkpt>
      <trkpt lat="45.19404" lon="5.99831">
        <ele>2449.6</ele>
        <time>2022-01-16T09:59:57Z</time>
      </trkpt>
      <trkpt lat="45.19404" lon="5.99831">
        <ele>2449.6</ele>
        <time>2022-01-16T09:59:58Z</time>
      </trkpt>
      <trkpt lat="45.19404" lon="5.99831">
        <ele>2449.4</ele>
        <time>2022-01-16T10:00:04Z</time>
      </trkpt>
      <trkpt lat="45.19404" lon="5.99831">
        <ele>2449.2</ele>
        <time>2022-01-16T10:00:07Z</time>
      </trkpt>
      <trkpt lat="45.19404" lon="5.99831">
        <ele>2449.2</ele>
        <time>2022-01-16T10:00:09Z</time>
      </trkpt>
      <trkpt lat="45.19404" lon="5.99831">
        <ele>2449</ele>
        <time>2022-01-16T10:00:13Z</time>
      </trkpt>
      <trkpt lat="45.19404" lon="5.99831">
        <ele>2449</ele>
        <time>2022-01-16T10:00:14Z</time>
      </trkpt>
      <trkpt lat="45.19404" lon="5.99831">
        <ele>2449.2</ele>
        <time>2022-01-16T10:00:20Z</time>
      </trkpt>
      <trkpt lat="45.19404" lon="5.99831">
        <ele>2449.2</ele>
        <time>2022-01-16T10:00:22Z</time>
      </trkpt>
      <trkpt lat="45.19404" lon="5.99831">
        <ele>2449</ele>
        <time>2022-01-16T10:00:26Z</time>
      </trkpt>
      <trkpt lat="45.19404" lon="5.99831">
        <ele>2448.8</ele>
        <time>2022-01-16T10:00:29Z</time>
      </trkpt>
      <trkpt lat="45.19404" lon="5.99831">
        <ele>2449</ele>
        <time>2022-01-16T10:00:30Z</time>
      </trkpt>
      <trkpt lat="45.19404" lon="5.99831">
        <ele>2449</ele>
        <time>2022-01-16T10:00:32Z</time>
      </trkpt>
      <trkpt lat="45.19404" lon="5.99831">
        <ele>2449</ele>
        <time>2022-01-16T10:00:34Z</time>
      </trkpt>
      <trkpt lat="45.19404" lon="5.9983">
        <ele>2448.8</ele>
        <time>2022-01-16T10:00:37Z</time>
      </trkpt>
      <trkpt lat="45.19404" lon="5.9983">
        <ele>2448.8</ele>
        <time>2022-01-16T10:00:39Z</time>
      </trkpt>
      <trkpt lat="45.19404" lon="5.9983">
        <ele>2448.8</ele>
        <time>2022-01-16T10:00:41Z</time>
      </trkpt>
      <trkpt lat="45.19404" lon="5.9983">
        <ele>2448.6</ele>
        <time>2022-01-16T10:00:47Z</time>
      </trkpt>
      <trkpt lat="45.19404" lon="5.9983">
        <ele>2448.4</ele>
        <time>2022-01-16T10:00:50Z</time>
      </trkpt>
      <trkpt lat="45.19404" lon="5.9983">
        <ele>2448.2</ele>
        <time>2022-01-16T10:00:56Z</time>
      </trkpt>
      <trkpt lat="45.19404" lon="5.9983">
        <ele>2448.2</ele>
        <time>2022-01-16T10:01:00Z</time>
      </trkpt>
      <trkpt lat="45.19404" lon="5.9983">
        <ele>2448</ele>
        <time>2022-01-16T10:01:02Z</time>
      </trkpt>
      <trkpt lat="45.19404" lon="5.9983">
        <ele>2448</ele>
        <time>2022-01-16T10:01:05Z</time>
      </trkpt>
      <trkpt lat="45.19403" lon="5.99828">
        <ele>2448.4</ele>
        <time>2022-01-16T10:01:09Z</time>
      </trkpt>
      <trkpt lat="45.19403" lon="5.99828">
        <ele>2448.4</ele>
        <time>2022-01-16T10:01:11Z</time>
      </trkpt>
      <trkpt lat="45.19403" lon="5.99828">
        <ele>2448.2</ele>
        <time>2022-01-16T10:01:13Z</time>
      </trkpt>
      <trkpt lat="45.19403" lon="5.99828">
        <ele>2448.2</ele>
        <time>2022-01-16T10:01:15Z</time>
      </trkpt>
      <trkpt lat="45.19401" lon="5.99822">
        <ele>2447.8</ele>
        <time>2022-01-16T10:01:21Z</time>
      </trkpt>
      <trkpt lat="45.19399" lon="5.99817">
        <ele>2447.4</ele>
        <time>2022-01-16T10:01:23Z</time>
      </trkpt>
      <trkpt lat="45.19398" lon="5.99812">
        <ele>2446.8</ele>
        <time>2022-01-16T10:01:25Z</time>
      </trkpt>
      <trkpt lat="45.19395" lon="5.99805">
        <ele>2445.6</ele>
        <time>2022-01-16T10:01:28Z</time>
      </trkpt>
      <trkpt lat="45.19393" lon="5.99799">
        <ele>2444.4</ele>
        <time>2022-01-16T10:01:30Z</time>
      </trkpt>
      <trkpt lat="45.1939" lon="5.99791">
        <ele>2442.6</ele>
        <time>2022-01-16T10:01:32Z</time>
      </trkpt>
      <trkpt lat="45.19387" lon="5.99783">
        <ele>2441.4</ele>
        <time>2022-01-16T10:01:34Z</time>
      </trkpt>
      <trkpt lat="45.19385" lon="5.99779">
        <ele>2439.8</ele>
        <time>2022-01-16T10:01:35Z</time>
      </trkpt>
      <trkpt lat="45.1938" lon="5.99772">
        <ele>2438.6</ele>
        <time>2022-01-16T10:01:37Z</time>
      </trkpt>
      <trkpt lat="45.19378" lon="5.99769">
        <ele>2437.2</ele>
        <time>2022-01-16T10:01:38Z</time>
      </trkpt>
      <trkpt lat="45.19374" lon="5.99767">
        <ele>2436.8</ele>
        <time>2022-01-16T10:01:40Z</time>
      </trkpt>
      <trkpt lat="45.19372" lon="5.99766">
        <ele>2436</ele>
        <time>2022-01-16T10:01:41Z</time>
      </trkpt>
      <trkpt lat="45.19366" lon="5.99764">
        <ele>2434.4</ele>
        <time>2022-01-16T10:01:43Z</time>
      </trkpt>
      <trkpt lat="45.1936" lon="5.99764">
        <ele>2433.2</ele>
        <time>2022-01-16T10:01:45Z</time>
      </trkpt>
      <trkpt lat="45.19359" lon="5.99764">
        <ele>2432.6</ele>
        <time>2022-01-16T10:01:46Z</time>
      </trkpt>
      <trkpt lat="45.19356" lon="5.99763">
        <ele>2432.4</ele>
        <time>2022-01-16T10:01:48Z</time>
      </trkpt>
      <trkpt lat="45.19351" lon="5.99761">
        <ele>2432.2</ele>
        <time>2022-01-16T10:01:51Z</time>
      </trkpt>
      <trkpt lat="45.19349" lon="5.99761">
        <ele>2432</ele>
        <time>2022-01-16T10:01:53Z</time>
      </trkpt>
      <trkpt lat="45.19347" lon="5.9976">
        <ele>2432.2</ele>
        <time>2022-01-16T10:01:55Z</time>
      </trkpt>
      <trkpt lat="45.19344" lon="5.99759">
        <ele>2432.6</ele>
        <time>2022-01-16T10:01:59Z</time>
      </trkpt>
      <trkpt lat="45.19341" lon="5.99758">
        <ele>2433.4</ele>
        <time>2022-01-16T10:02:02Z</time>
      </trkpt>
      <trkpt lat="45.19338" lon="5.99756">
        <ele>2434</ele>
        <time>2022-01-16T10:02:05Z</time>
      </trkpt>
      <trkpt lat="45.19338" lon="5.99756">
        <ele>2434</ele>
        <time>2022-01-16T10:02:06Z</time>
      </trkpt>
      <trkpt lat="45.19334" lon="5.99754">
        <ele>2434.6</ele>
        <time>2022-01-16T10:02:10Z</time>
      </trkpt>
      <trkpt lat="45.19332" lon="5.99753">
        <ele>2435</ele>
        <time>2022-01-16T10:02:13Z</time>
      </trkpt>
      <trkpt lat="45.19331" lon="5.99753">
        <ele>2435.6</ele>
        <time>2022-01-16T10:02:16Z</time>
      </trkpt>
      <trkpt lat="45.1933" lon="5.99753">
        <ele>2435.6</ele>
        <time>2022-01-16T10:02:17Z</time>
      </trkpt>
      <trkpt lat="45.19327" lon="5.99752">
        <ele>2436.6</ele>
        <time>2022-01-16T10:02:22Z</time>
      </trkpt>
      <trkpt lat="45.19325" lon="5.99751">
        <ele>2437</ele>
        <time>2022-01-16T10:02:25Z</time>
      </trkpt>
      <trkpt lat="45.19324" lon="5.99751">
        <ele>2437</ele>
        <time>2022-01-16T10:02:27Z</time>
      </trkpt>
      <trkpt lat="45.19325" lon="5.99752">
        <ele>2437</ele>
        <time>2022-01-16T10:02:31Z</time>
      </trkpt>
      <trkpt lat="45.19325" lon="5.99752">
        <ele>2436.8</ele>
        <time>2022-01-16T10:02:34Z</time>
      </trkpt>
      <trkpt lat="45.19326" lon="5.99751">
        <ele>2437</ele>
        <time>2022-01-16T10:02:38Z</time>
      </trkpt>
      <trkpt lat="45.19326" lon="5.99751">
        <ele>2436.8</ele>
        <time>2022-01-16T10:02:44Z</time>
      </trkpt>
      <trkpt lat="45.19326" lon="5.99751">
        <ele>2436.8</ele>
        <time>2022-01-16T10:02:48Z</time>
      </trkpt>
      <trkpt lat="45.19326" lon="5.99751">
        <ele>2436.6</ele>
        <time>2022-01-16T10:02:51Z</time>
      </trkpt>
      <trkpt lat="45.19326" lon="5.99751">
        <ele>2436.6</ele>
        <time>2022-01-16T10:02:52Z</time>
      </trkpt>
      <trkpt lat="45.19326" lon="5.99751">
        <ele>2436.6</ele>
        <time>2022-01-16T10:02:53Z</time>
      </trkpt>
      <trkpt lat="45.19325" lon="5.9975">
        <ele>2436.4</ele>
        <time>2022-01-16T10:02:55Z</time>
      </trkpt>
      <trkpt lat="45.19325" lon="5.99749">
        <ele>2436.6</ele>
        <time>2022-01-16T10:02:57Z</time>
      </trkpt>
      <trkpt lat="45.19325" lon="5.99748">
        <ele>2436.6</ele>
        <time>2022-01-16T10:02:59Z</time>
      </trkpt>
      <trkpt lat="45.19325" lon="5.99747">
        <ele>2436.6</ele>
        <time>2022-01-16T10:03:00Z</time>
      </trkpt>
      <trkpt lat="45.19325" lon="5.99746">
        <ele>2436.6</ele>
        <time>2022-01-16T10:03:04Z</time>
      </trkpt>
      <trkpt lat="45.19325" lon="5.99746">
        <ele>2436.6</ele>
        <time>2022-01-16T10:03:10Z</time>
      </trkpt>
      <trkpt lat="45.19325" lon="5.99746">
        <ele>2436.8</ele>
        <time>2022-01-16T10:03:16Z</time>
      </trkpt>
      <trkpt lat="45.19321" lon="5.99745">
        <ele>2437.6</ele>
        <time>2022-01-16T10:03:19Z</time>
      </trkpt>
      <trkpt lat="45.19319" lon="5.99744">
        <ele>2437.8</ele>
        <time>2022-01-16T10:03:22Z</time>
      </trkpt>
      <trkpt lat="45.19318" lon="5.99743">
        <ele>2438.2</ele>
        <time>2022-01-16T10:03:23Z</time>
      </trkpt>
      <trkpt lat="45.19317" lon="5.99742">
        <ele>2439</ele>
        <time>2022-01-16T10:03:24Z</time>
      </trkpt>
      <trkpt lat="45.19316" lon="5.99742">
        <ele>2439.2</ele>
        <time>2022-01-16T10:03:25Z</time>
      </trkpt>
      <trkpt lat="45.19314" lon="5.99741">
        <ele>2439.4</ele>
        <time>2022-01-16T10:03:27Z</time>
      </trkpt>
      <trkpt lat="45.19313" lon="5.99739">
        <ele>2439.6</ele>
        <time>2022-01-16T10:03:29Z</time>
      </trkpt>
      <trkpt lat="45.19311" lon="5.99737">
        <ele>2440.2</ele>
        <time>2022-01-16T10:03:32Z</time>
      </trkpt>
      <trkpt lat="45.19309" lon="5.99735">
        <ele>2440.4</ele>
        <time>2022-01-16T10:03:34Z</time>
      </trkpt>
      <trkpt lat="45.19306" lon="5.99733">
        <ele>2440.6</ele>
        <time>2022-01-16T10:03:37Z</time>
      </trkpt>
      <trkpt lat="45.19303" lon="5.99731">
        <ele>2441.2</ele>
        <time>2022-01-16T10:03:40Z</time>
      </trkpt>
      <trkpt lat="45.19303" lon="5.9973">
        <ele>2441.4</ele>
        <time>2022-01-16T10:03:41Z</time>
      </trkpt>
      <trkpt lat="45.19301" lon="5.99727">
        <ele>2441.8</ele>
        <time>2022-01-16T10:03:44Z</time>
      </trkpt>
      <trkpt lat="45.19301" lon="5.99726">
        <ele>2441.8</ele>
        <time>2022-01-16T10:03:45Z</time>
      </trkpt>
      <trkpt lat="45.19301" lon="5.99724">
        <ele>2442</ele>
        <time>2022-01-16T10:03:47Z</time>
      </trkpt>
      <trkpt lat="45.19303" lon="5.99722">
        <ele>2443</ele>
        <time>2022-01-16T10:03:49Z</time>
      </trkpt>
      <trkpt lat="45.19304" lon="5.9972">
        <ele>2443</ele>
        <time>2022-01-16T10:03:53Z</time>
      </trkpt>
      <trkpt lat="45.19304" lon="5.99719">
        <ele>2443</ele>
        <time>2022-01-16T10:03:55Z</time>
      </trkpt>
      <trkpt lat="45.19302" lon="5.99715">
        <ele>2443.4</ele>
        <time>2022-01-16T10:04:01Z</time>
      </trkpt>
      <trkpt lat="45.19302" lon="5.99714">
        <ele>2443.2</ele>
        <time>2022-01-16T10:04:02Z</time>
      </trkpt>
      <trkpt lat="45.19302" lon="5.99712">
        <ele>2443</ele>
        <time>2022-01-16T10:04:08Z</time>
      </trkpt>
      <trkpt lat="45.19304" lon="5.99718">
        <ele>2443.2</ele>
        <time>2022-01-16T10:04:11Z</time>
      </trkpt>
      <trkpt lat="45.19305" lon="5.99718">
        <ele>2443.2</ele>
        <time>2022-01-16T10:04:14Z</time>
      </trkpt>
      <trkpt lat="45.19305" lon="5.99716">
        <ele>2443.2</ele>
        <time>2022-01-16T10:04:16Z</time>
      </trkpt>
      <trkpt lat="45.19305" lon="5.99715">
        <ele>2443.4</ele>
        <time>2022-01-16T10:04:19Z</time>
      </trkpt>
      <trkpt lat="45.19306" lon="5.99715">
        <ele>2443.4</ele>
        <time>2022-01-16T10:04:20Z</time>
      </trkpt>
      <trkpt lat="45.19306" lon="5.99714">
        <ele>2443.4</ele>
        <time>2022-01-16T10:04:23Z</time>
      </trkpt>
      <trkpt lat="45.19306" lon="5.99715">
        <ele>2443.2</ele>
        <time>2022-01-16T10:04:25Z</time>
      </trkpt>
      <trkpt lat="45.19306" lon="5.99715">
        <ele>2443.2</ele>
        <time>2022-01-16T10:04:31Z</time>
      </trkpt>
      <trkpt lat="45.19306" lon="5.99715">
        <ele>2443.2</ele>
        <time>2022-01-16T10:04:32Z</time>
      </trkpt>
      <trkpt lat="45.19306" lon="5.99715">
        <ele>2443.2</ele>
        <time>2022-01-16T10:04:33Z</time>
      </trkpt>
      <trkpt lat="45.19306" lon="5.99715">
        <ele>2443.4</ele>
        <time>2022-01-16T10:04:34Z</time>
      </trkpt>
      <trkpt lat="45.19306" lon="5.99715">
        <ele>2443.6</ele>
        <time>2022-01-16T10:04:36Z</time>
      </trkpt>
      <trkpt lat="45.19306" lon="5.99715">
        <ele>2444</ele>
        <time>2022-01-16T10:04:37Z</time>
      </trkpt>
      <trkpt lat="45.19307" lon="5.99714">
        <ele>2445.2</ele>
        <time>2022-01-16T10:04:42Z</time>
      </trkpt>
      <trkpt lat="45.19306" lon="5.99711">
        <ele>2445.8</ele>
        <time>2022-01-16T10:04:45Z</time>
      </trkpt>
      <trkpt lat="45.19306" lon="5.9971">
        <ele>2446.2</ele>
        <time>2022-01-16T10:04:47Z</time>
      </trkpt>
      <trkpt lat="45.19305" lon="5.9971">
        <ele>2446.6</ele>
        <time>2022-01-16T10:04:48Z</time>
      </trkpt>
      <trkpt lat="45.19304" lon="5.99706">
        <ele>2447.2</ele>
        <time>2022-01-16T10:04:52Z</time>
      </trkpt>
      <trkpt lat="45.19303" lon="5.99706">
        <ele>2447.4</ele>
        <time>2022-01-16T10:04:53Z</time>
      </trkpt>
      <trkpt lat="45.19303" lon="5.99705">
        <ele>2447.6</ele>
        <time>2022-01-16T10:04:54Z</time>
      </trkpt>
      <trkpt lat="45.19302" lon="5.99701">
        <ele>2448.2</ele>
        <time>2022-01-16T10:04:57Z</time>
      </trkpt>
      <trkpt lat="45.193" lon="5.99697">
        <ele>2448.4</ele>
        <time>2022-01-16T10:05:01Z</time>
      </trkpt>
      <trkpt lat="45.19299" lon="5.99697">
        <ele>2448.4</ele>
        <time>2022-01-16T10:05:02Z</time>
      </trkpt>
      <trkpt lat="45.19297" lon="5.99695">
        <ele>2448.6</ele>
        <time>2022-01-16T10:05:04Z</time>
      </trkpt>
      <trkpt lat="45.19296" lon="5.99695">
        <ele>2448.8</ele>
        <time>2022-01-16T10:05:05Z</time>
      </trkpt>
      <trkpt lat="45.19294" lon="5.99695">
        <ele>2449.2</ele>
        <time>2022-01-16T10:05:09Z</time>
      </trkpt>
      <trkpt lat="45.19293" lon="5.99693">
        <ele>2449.8</ele>
        <time>2022-01-16T10:05:12Z</time>
      </trkpt>
      <trkpt lat="45.19291" lon="5.99692">
        <ele>2450.2</ele>
        <time>2022-01-16T10:05:15Z</time>
      </trkpt>
      <trkpt lat="45.19289" lon="5.9969">
        <ele>2451</ele>
        <time>2022-01-16T10:05:19Z</time>
      </trkpt>
      <trkpt lat="45.19287" lon="5.99688">
        <ele>2451.4</ele>
        <time>2022-01-16T10:05:22Z</time>
      </trkpt>
      <trkpt lat="45.19284" lon="5.99686">
        <ele>2452</ele>
        <time>2022-01-16T10:05:27Z</time>
      </trkpt>
      <trkpt lat="45.19284" lon="5.99685">
        <ele>2452.2</ele>
        <time>2022-01-16T10:05:28Z</time>
      </trkpt>
      <trkpt lat="45.19283" lon="5.99684">
        <ele>2452.6</ele>
        <time>2022-01-16T10:05:30Z</time>
      </trkpt>
      <trkpt lat="45.1928" lon="5.99682">
        <ele>2453.2</ele>
        <time>2022-01-16T10:05:34Z</time>
      </trkpt>
      <trkpt lat="45.1928" lon="5.99678">
        <ele>2453.6</ele>
        <time>2022-01-16T10:05:37Z</time>
      </trkpt>
      <trkpt lat="45.1928" lon="5.99672">
        <ele>2454.2</ele>
        <time>2022-01-16T10:05:41Z</time>
      </trkpt>
      <trkpt lat="45.1928" lon="5.99671">
        <ele>2454.6</ele>
        <time>2022-01-16T10:05:42Z</time>
      </trkpt>
      <trkpt lat="45.19281" lon="5.99669">
        <ele>2454.8</ele>
        <time>2022-01-16T10:05:43Z</time>
      </trkpt>
      <trkpt lat="45.19282" lon="5.99666">
        <ele>2455.8</ele>
        <time>2022-01-16T10:05:45Z</time>
      </trkpt>
      <trkpt lat="45.19284" lon="5.99662">
        <ele>2456</ele>
        <time>2022-01-16T10:05:49Z</time>
      </trkpt>
      <trkpt lat="45.19286" lon="5.9966">
        <ele>2456.8</ele>
        <time>2022-01-16T10:05:52Z</time>
      </trkpt>
      <trkpt lat="45.19289" lon="5.99659">
        <ele>2457.2</ele>
        <time>2022-01-16T10:05:55Z</time>
      </trkpt>
      <trkpt lat="45.19292" lon="5.99657">
        <ele>2458.4</ele>
        <time>2022-01-16T10:05:59Z</time>
      </trkpt>
      <trkpt lat="45.19294" lon="5.99656">
        <ele>2458.6</ele>
        <time>2022-01-16T10:06:01Z</time>
      </trkpt>
      <trkpt lat="45.19298" lon="5.99656">
        <ele>2459.4</ele>
        <time>2022-01-16T10:06:05Z</time>
      </trkpt>
      <trkpt lat="45.193" lon="5.99654">
        <ele>2460.4</ele>
        <time>2022-01-16T10:06:09Z</time>
      </trkpt>
      <trkpt lat="45.19301" lon="5.99654">
        <ele>2461</ele>
        <time>2022-01-16T10:06:10Z</time>
      </trkpt>
      <trkpt lat="45.19304" lon="5.99651">
        <ele>2461.8</ele>
        <time>2022-01-16T10:06:14Z</time>
      </trkpt>
      <trkpt lat="45.19305" lon="5.99651">
        <ele>2462</ele>
        <time>2022-01-16T10:06:15Z</time>
      </trkpt>
      <trkpt lat="45.19307" lon="5.9965">
        <ele>2462.2</ele>
        <time>2022-01-16T10:06:17Z</time>
      </trkpt>
      <trkpt lat="45.19309" lon="5.99649">
        <ele>2463</ele>
        <time>2022-01-16T10:06:20Z</time>
      </trkpt>
      <trkpt lat="45.1931" lon="5.99648">
        <ele>2463.2</ele>
        <time>2022-01-16T10:06:21Z</time>
      </trkpt>
      <trkpt lat="45.1931" lon="5.99648">
        <ele>2463.2</ele>
        <time>2022-01-16T10:06:22Z</time>
      </trkpt>
      <trkpt lat="45.19313" lon="5.99647">
        <ele>2464.4</ele>
        <time>2022-01-16T10:06:25Z</time>
      </trkpt>
      <trkpt lat="45.19313" lon="5.99645">
        <ele>2464.6</ele>
        <time>2022-01-16T10:06:26Z</time>
      </trkpt>
      <trkpt lat="45.19315" lon="5.99642">
        <ele>2465.2</ele>
        <time>2022-01-16T10:06:29Z</time>
      </trkpt>
      <trkpt lat="45.19316" lon="5.99642">
        <ele>2465.6</ele>
        <time>2022-01-16T10:06:30Z</time>
      </trkpt>
      <trkpt lat="45.19317" lon="5.99639">
        <ele>2466.2</ele>
        <time>2022-01-16T10:06:33Z</time>
      </trkpt>
      <trkpt lat="45.1932" lon="5.99637">
        <ele>2467</ele>
        <time>2022-01-16T10:06:36Z</time>
      </trkpt>
      <trkpt lat="45.1932" lon="5.99636">
        <ele>2467.2</ele>
        <time>2022-01-16T10:06:37Z</time>
      </trkpt>
      <trkpt lat="45.19323" lon="5.99634">
        <ele>2468.2</ele>
        <time>2022-01-16T10:06:41Z</time>
      </trkpt>
      <trkpt lat="45.19325" lon="5.99632">
        <ele>2468.6</ele>
        <time>2022-01-16T10:06:44Z</time>
      </trkpt>
      <trkpt lat="45.19329" lon="5.99629">
        <ele>2469.2</ele>
        <time>2022-01-16T10:06:48Z</time>
      </trkpt>
      <trkpt lat="45.1933" lon="5.99628">
        <ele>2470.2</ele>
        <time>2022-01-16T10:06:50Z</time>
      </trkpt>
      <trkpt lat="45.1933" lon="5.99627">
        <ele>2470.6</ele>
        <time>2022-01-16T10:06:51Z</time>
      </trkpt>
      <trkpt lat="45.19334" lon="5.99622">
        <ele>2471.6</ele>
        <time>2022-01-16T10:06:57Z</time>
      </trkpt>
      <trkpt lat="45.19335" lon="5.99621">
        <ele>2471.8</ele>
        <time>2022-01-16T10:06:58Z</time>
      </trkpt>
      <trkpt lat="45.19338" lon="5.99618">
        <ele>2472.4</ele>
        <time>2022-01-16T10:07:02Z</time>
      </trkpt>
      <trkpt lat="45.19339" lon="5.99618">
        <ele>2472.8</ele>
        <time>2022-01-16T10:07:03Z</time>
      </trkpt>
      <trkpt lat="45.19339" lon="5.99617">
        <ele>2472.8</ele>
        <time>2022-01-16T10:07:04Z</time>
      </trkpt>
      <trkpt lat="45.1934" lon="5.99617">
        <ele>2473.4</ele>
        <time>2022-01-16T10:07:05Z</time>
      </trkpt>
      <trkpt lat="45.19341" lon="5.99616">
        <ele>2473.6</ele>
        <time>2022-01-16T10:07:07Z</time>
      </trkpt>
      <trkpt lat="45.19342" lon="5.99615">
        <ele>2474.6</ele>
        <time>2022-01-16T10:07:08Z</time>
      </trkpt>
      <trkpt lat="45.19344" lon="5.99613">
        <ele>2474.6</ele>
        <time>2022-01-16T10:07:10Z</time>
      </trkpt>
      <trkpt lat="45.19346" lon="5.99612">
        <ele>2475</ele>
        <time>2022-01-16T10:07:12Z</time>
      </trkpt>
      <trkpt lat="45.19348" lon="5.99614">
        <ele>2475.6</ele>
        <time>2022-01-16T10:07:14Z</time>
      </trkpt>
      <trkpt lat="45.19352" lon="5.99616">
        <ele>2476.6</ele>
        <time>2022-01-16T10:07:19Z</time>
      </trkpt>
      <trkpt lat="45.19353" lon="5.99617">
        <ele>2477</ele>
        <time>2022-01-16T10:07:21Z</time>
      </trkpt>
      <trkpt lat="45.19355" lon="5.99617">
        <ele>2477.6</ele>
        <time>2022-01-16T10:07:24Z</time>
      </trkpt>
      <trkpt lat="45.1936" lon="5.99617">
        <ele>2478.8</ele>
        <time>2022-01-16T10:07:29Z</time>
      </trkpt>
      <trkpt lat="45.19364" lon="5.9962">
        <ele>2480</ele>
        <time>2022-01-16T10:07:34Z</time>
      </trkpt>
      <trkpt lat="45.19367" lon="5.99621">
        <ele>2480.6</ele>
        <time>2022-01-16T10:07:37Z</time>
      </trkpt>
      <trkpt lat="45.19368" lon="5.99622">
        <ele>2481.2</ele>
        <time>2022-01-16T10:07:39Z</time>
      </trkpt>
      <trkpt lat="45.19372" lon="5.99624">
        <ele>2482.8</ele>
        <time>2022-01-16T10:07:44Z</time>
      </trkpt>
      <trkpt lat="45.19373" lon="5.99625">
        <ele>2483</ele>
        <time>2022-01-16T10:07:46Z</time>
      </trkpt>
      <trkpt lat="45.19373" lon="5.99625">
        <ele>2483.2</ele>
        <time>2022-01-16T10:07:50Z</time>
      </trkpt>
      <trkpt lat="45.19373" lon="5.99622">
        <ele>2484</ele>
        <time>2022-01-16T10:07:53Z</time>
      </trkpt>
      <trkpt lat="45.19373" lon="5.99619">
        <ele>2484.6</ele>
        <time>2022-01-16T10:07:56Z</time>
      </trkpt>
      <trkpt lat="45.19373" lon="5.99617">
        <ele>2485</ele>
        <time>2022-01-16T10:07:58Z</time>
      </trkpt>
      <trkpt lat="45.19373" lon="5.99612">
        <ele>2485.8</ele>
        <time>2022-01-16T10:08:03Z</time>
      </trkpt>
      <trkpt lat="45.19373" lon="5.99611">
        <ele>2486.6</ele>
        <time>2022-01-16T10:08:04Z</time>
      </trkpt>
      <trkpt lat="45.19372" lon="5.99607">
        <ele>2487.6</ele>
        <time>2022-01-16T10:08:10Z</time>
      </trkpt>
      <trkpt lat="45.19372" lon="5.99606">
        <ele>2488</ele>
        <time>2022-01-16T10:08:11Z</time>
      </trkpt>
      <trkpt lat="45.19371" lon="5.99603">
        <ele>2488.4</ele>
        <time>2022-01-16T10:08:14Z</time>
      </trkpt>
      <trkpt lat="45.19371" lon="5.996">
        <ele>2489</ele>
        <time>2022-01-16T10:08:17Z</time>
      </trkpt>
      <trkpt lat="45.19371" lon="5.99597">
        <ele>2489.6</ele>
        <time>2022-01-16T10:08:20Z</time>
      </trkpt>
      <trkpt lat="45.19371" lon="5.99595">
        <ele>2490.2</ele>
        <time>2022-01-16T10:08:22Z</time>
      </trkpt>
      <trkpt lat="45.19373" lon="5.99593">
        <ele>2490.4</ele>
        <time>2022-01-16T10:08:25Z</time>
      </trkpt>
      <trkpt lat="45.19379" lon="5.9959">
        <ele>2491.4</ele>
        <time>2022-01-16T10:08:31Z</time>
      </trkpt>
      <trkpt lat="45.19381" lon="5.99591">
        <ele>2492</ele>
        <time>2022-01-16T10:08:34Z</time>
      </trkpt>
      <trkpt lat="45.19382" lon="5.99589">
        <ele>2492.2</ele>
        <time>2022-01-16T10:08:36Z</time>
      </trkpt>
      <trkpt lat="45.19384" lon="5.99589">
        <ele>2492.4</ele>
        <time>2022-01-16T10:08:38Z</time>
      </trkpt>
      <trkpt lat="45.19386" lon="5.99588">
        <ele>2493.2</ele>
        <time>2022-01-16T10:08:41Z</time>
      </trkpt>
      <trkpt lat="45.19389" lon="5.99589">
        <ele>2494</ele>
        <time>2022-01-16T10:08:44Z</time>
      </trkpt>
      <trkpt lat="45.19391" lon="5.99588">
        <ele>2494.2</ele>
        <time>2022-01-16T10:08:47Z</time>
      </trkpt>
      <trkpt lat="45.19395" lon="5.99589">
        <ele>2495</ele>
        <time>2022-01-16T10:08:51Z</time>
      </trkpt>
      <trkpt lat="45.19396" lon="5.99589">
        <ele>2495</ele>
        <time>2022-01-16T10:08:52Z</time>
      </trkpt>
      <trkpt lat="45.19396" lon="5.99589">
        <ele>2495.2</ele>
        <time>2022-01-16T10:08:53Z</time>
      </trkpt>
      <trkpt lat="45.19399" lon="5.9959">
        <ele>2496.2</ele>
        <time>2022-01-16T10:08:55Z</time>
      </trkpt>
      <trkpt lat="45.19403" lon="5.99591">
        <ele>2497.2</ele>
        <time>2022-01-16T10:09:00Z</time>
      </trkpt>
      <trkpt lat="45.19404" lon="5.99592">
        <ele>2497.2</ele>
        <time>2022-01-16T10:09:01Z</time>
      </trkpt>
      <trkpt lat="45.19408" lon="5.99593">
        <ele>2497.8</ele>
        <time>2022-01-16T10:09:06Z</time>
      </trkpt>
      <trkpt lat="45.19409" lon="5.99593">
        <ele>2498.4</ele>
        <time>2022-01-16T10:09:07Z</time>
      </trkpt>
      <trkpt lat="45.19411" lon="5.99593">
        <ele>2499.4</ele>
        <time>2022-01-16T10:09:10Z</time>
      </trkpt>
      <trkpt lat="45.19413" lon="5.99593">
        <ele>2500</ele>
        <time>2022-01-16T10:09:13Z</time>
      </trkpt>
      <trkpt lat="45.19414" lon="5.99593">
        <ele>2501.2</ele>
        <time>2022-01-16T10:09:15Z</time>
      </trkpt>
      <trkpt lat="45.19417" lon="5.99593">
        <ele>2501.8</ele>
        <time>2022-01-16T10:09:18Z</time>
      </trkpt>
      <trkpt lat="45.19418" lon="5.99592">
        <ele>2502.2</ele>
        <time>2022-01-16T10:09:20Z</time>
      </trkpt>
      <trkpt lat="45.19419" lon="5.99592">
        <ele>2503</ele>
        <time>2022-01-16T10:09:22Z</time>
      </trkpt>
      <trkpt lat="45.1942" lon="5.99591">
        <ele>2503.4</ele>
        <time>2022-01-16T10:09:23Z</time>
      </trkpt>
      <trkpt lat="45.19422" lon="5.99591">
        <ele>2504.4</ele>
        <time>2022-01-16T10:09:27Z</time>
      </trkpt>
      <trkpt lat="45.19424" lon="5.99591">
        <ele>2504.6</ele>
        <time>2022-01-16T10:09:29Z</time>
      </trkpt>
      <trkpt lat="45.19427" lon="5.99591">
        <ele>2505.6</ele>
        <time>2022-01-16T10:09:33Z</time>
      </trkpt>
      <trkpt lat="45.19428" lon="5.99592">
        <ele>2505.8</ele>
        <time>2022-01-16T10:09:35Z</time>
      </trkpt>
      <trkpt lat="45.19431" lon="5.99592">
        <ele>2506.8</ele>
        <time>2022-01-16T10:09:39Z</time>
      </trkpt>
      <trkpt lat="45.19433" lon="5.99593">
        <ele>2507.4</ele>
        <time>2022-01-16T10:09:41Z</time>
      </trkpt>
      <trkpt lat="45.19436" lon="5.99595">
        <ele>2507.8</ele>
        <time>2022-01-16T10:09:44Z</time>
      </trkpt>
      <trkpt lat="45.19436" lon="5.99596">
        <ele>2508.6</ele>
        <time>2022-01-16T10:09:47Z</time>
      </trkpt>
      <trkpt lat="45.19436" lon="5.99596">
        <ele>2509</ele>
        <time>2022-01-16T10:09:49Z</time>
      </trkpt>
      <trkpt lat="45.19436" lon="5.99592">
        <ele>2509.8</ele>
        <time>2022-01-16T10:09:54Z</time>
      </trkpt>
      <trkpt lat="45.19435" lon="5.99591">
        <ele>2510.2</ele>
        <time>2022-01-16T10:09:56Z</time>
      </trkpt>
      <trkpt lat="45.19435" lon="5.99589">
        <ele>2511.4</ele>
        <time>2022-01-16T10:09:59Z</time>
      </trkpt>
      <trkpt lat="45.19434" lon="5.99588">
        <ele>2512</ele>
        <time>2022-01-16T10:10:01Z</time>
      </trkpt>
      <trkpt lat="45.19433" lon="5.99585">
        <ele>2512.4</ele>
        <time>2022-01-16T10:10:05Z</time>
      </trkpt>
      <trkpt lat="45.19434" lon="5.99584">
        <ele>2513.2</ele>
        <time>2022-01-16T10:10:09Z</time>
      </trkpt>
      <trkpt lat="45.19437" lon="5.99584">
        <ele>2513.6</ele>
        <time>2022-01-16T10:10:12Z</time>
      </trkpt>
      <trkpt lat="45.19441" lon="5.99587">
        <ele>2514.4</ele>
        <time>2022-01-16T10:10:16Z</time>
      </trkpt>
      <trkpt lat="45.19443" lon="5.99589">
        <ele>2514.6</ele>
        <time>2022-01-16T10:10:18Z</time>
      </trkpt>
      <trkpt lat="45.19446" lon="5.99593">
        <ele>2515.8</ele>
        <time>2022-01-16T10:10:22Z</time>
      </trkpt>
      <trkpt lat="45.19449" lon="5.99597">
        <ele>2516.8</ele>
        <time>2022-01-16T10:10:28Z</time>
      </trkpt>
      <trkpt lat="45.1945" lon="5.99598">
        <ele>2517</ele>
        <time>2022-01-16T10:10:29Z</time>
      </trkpt>
      <trkpt lat="45.19451" lon="5.99601">
        <ele>2518</ele>
        <time>2022-01-16T10:10:32Z</time>
      </trkpt>
      <trkpt lat="45.19452" lon="5.99603">
        <ele>2518.6</ele>
        <time>2022-01-16T10:10:33Z</time>
      </trkpt>
      <trkpt lat="45.19452" lon="5.99606">
        <ele>2519.4</ele>
        <time>2022-01-16T10:10:36Z</time>
      </trkpt>
      <trkpt lat="45.19453" lon="5.99607">
        <ele>2519.6</ele>
        <time>2022-01-16T10:10:38Z</time>
      </trkpt>
      <trkpt lat="45.19456" lon="5.99608">
        <ele>2520.4</ele>
        <time>2022-01-16T10:10:42Z</time>
      </trkpt>
      <trkpt lat="45.19458" lon="5.99609">
        <ele>2521.2</ele>
        <time>2022-01-16T10:10:46Z</time>
      </trkpt>
      <trkpt lat="45.19459" lon="5.99609">
        <ele>2521.8</ele>
        <time>2022-01-16T10:10:47Z</time>
      </trkpt>
      <trkpt lat="45.19461" lon="5.99611">
        <ele>2523.2</ele>
        <time>2022-01-16T10:10:51Z</time>
      </trkpt>
      <trkpt lat="45.19462" lon="5.99613">
        <ele>2523.2</ele>
        <time>2022-01-16T10:10:53Z</time>
      </trkpt>
      <trkpt lat="45.19464" lon="5.99614">
        <ele>2524.2</ele>
        <time>2022-01-16T10:10:57Z</time>
      </trkpt>
      <trkpt lat="45.19467" lon="5.99616">
        <ele>2525.2</ele>
        <time>2022-01-16T10:11:01Z</time>
      </trkpt>
      <trkpt lat="45.19467" lon="5.99616">
        <ele>2525.4</ele>
        <time>2022-01-16T10:11:02Z</time>
      </trkpt>
      <trkpt lat="45.19469" lon="5.99618">
        <ele>2526.4</ele>
        <time>2022-01-16T10:11:06Z</time>
      </trkpt>
      <trkpt lat="45.19472" lon="5.99619">
        <ele>2527</ele>
        <time>2022-01-16T10:11:08Z</time>
      </trkpt>
      <trkpt lat="45.19475" lon="5.99622">
        <ele>2527.4</ele>
        <time>2022-01-16T10:11:10Z</time>
      </trkpt>
      <trkpt lat="45.19475" lon="5.99624">
        <ele>2528.4</ele>
        <time>2022-01-16T10:11:15Z</time>
      </trkpt>
      <trkpt lat="45.19474" lon="5.99624">
        <ele>2528.4</ele>
        <time>2022-01-16T10:11:20Z</time>
      </trkpt>
      <trkpt lat="45.19474" lon="5.99626">
        <ele>2528.4</ele>
        <time>2022-01-16T10:11:26Z</time>
      </trkpt>
      <trkpt lat="45.19474" lon="5.99626">
        <ele>2529.2</ele>
        <time>2022-01-16T10:11:31Z</time>
      </trkpt>
      <trkpt lat="45.19474" lon="5.99626">
        <ele>2529.6</ele>
        <time>2022-01-16T10:11:33Z</time>
      </trkpt>
      <trkpt lat="45.19475" lon="5.99622">
        <ele>2530.4</ele>
        <time>2022-01-16T10:11:37Z</time>
      </trkpt>
      <trkpt lat="45.19476" lon="5.9962">
        <ele>2530.6</ele>
        <time>2022-01-16T10:11:39Z</time>
      </trkpt>
      <trkpt lat="45.19476" lon="5.99619">
        <ele>2530.8</ele>
        <time>2022-01-16T10:11:40Z</time>
      </trkpt>
      <trkpt lat="45.19478" lon="5.99615">
        <ele>2532</ele>
        <time>2022-01-16T10:11:44Z</time>
      </trkpt>
      <trkpt lat="45.19478" lon="5.99612">
        <ele>2532.4</ele>
        <time>2022-01-16T10:11:47Z</time>
      </trkpt>
      <trkpt lat="45.19478" lon="5.9961">
        <ele>2533.2</ele>
        <time>2022-01-16T10:11:50Z</time>
      </trkpt>
      <trkpt lat="45.19478" lon="5.99609">
        <ele>2533.6</ele>
        <time>2022-01-16T10:11:52Z</time>
      </trkpt>
      <trkpt lat="45.19478" lon="5.99607">
        <ele>2534.4</ele>
        <time>2022-01-16T10:11:55Z</time>
      </trkpt>
      <trkpt lat="45.19477" lon="5.99605">
        <ele>2534.8</ele>
        <time>2022-01-16T10:11:58Z</time>
      </trkpt>
      <trkpt lat="45.19478" lon="5.99603">
        <ele>2535.4</ele>
        <time>2022-01-16T10:12:00Z</time>
      </trkpt>
      <trkpt lat="45.19478" lon="5.99602">
        <ele>2536.4</ele>
        <time>2022-01-16T10:12:03Z</time>
      </trkpt>
      <trkpt lat="45.19478" lon="5.99602">
        <ele>2536.4</ele>
        <time>2022-01-16T10:12:04Z</time>
      </trkpt>
      <trkpt lat="45.19479" lon="5.99603">
        <ele>2536.4</ele>
        <time>2022-01-16T10:12:07Z</time>
      </trkpt>
      <trkpt lat="45.19479" lon="5.99603">
        <ele>2536.2</ele>
        <time>2022-01-16T10:12:13Z</time>
      </trkpt>
      <trkpt lat="45.19479" lon="5.99603">
        <ele>2536.4</ele>
        <time>2022-01-16T10:12:14Z</time>
      </trkpt>
      <trkpt lat="45.19479" lon="5.99603">
        <ele>2537.4</ele>
        <time>2022-01-16T10:12:17Z</time>
      </trkpt>
      <trkpt lat="45.19479" lon="5.99602">
        <ele>2538.2</ele>
        <time>2022-01-16T10:12:23Z</time>
      </trkpt>
      <trkpt lat="45.19479" lon="5.99602">
        <ele>2538.8</ele>
        <time>2022-01-16T10:12:24Z</time>
      </trkpt>
      <trkpt lat="45.19479" lon="5.996">
        <ele>2539.8</ele>
        <time>2022-01-16T10:12:30Z</time>
      </trkpt>
      <trkpt lat="45.1948" lon="5.99598">
        <ele>2541</ele>
        <time>2022-01-16T10:12:34Z</time>
      </trkpt>
      <trkpt lat="45.19481" lon="5.99594">
        <ele>2541.6</ele>
        <time>2022-01-16T10:12:40Z</time>
      </trkpt>
      <trkpt lat="45.19481" lon="5.99591">
        <ele>2542</ele>
        <time>2022-01-16T10:12:43Z</time>
      </trkpt>
      <trkpt lat="45.19481" lon="5.99587">
        <ele>2543.2</ele>
        <time>2022-01-16T10:12:47Z</time>
      </trkpt>
      <trkpt lat="45.19482" lon="5.9958">
        <ele>2544</ele>
        <time>2022-01-16T10:12:50Z</time>
      </trkpt>
      <trkpt lat="45.19483" lon="5.99577">
        <ele>2544.4</ele>
        <time>2022-01-16T10:12:52Z</time>
      </trkpt>
      <trkpt lat="45.19484" lon="5.99571">
        <ele>2545.6</ele>
        <time>2022-01-16T10:12:55Z</time>
      </trkpt>
      <trkpt lat="45.19485" lon="5.99567">
        <ele>2546.4</ele>
        <time>2022-01-16T10:13:00Z</time>
      </trkpt>
      <trkpt lat="45.19484" lon="5.99565">
        <ele>2546.8</ele>
        <time>2022-01-16T10:13:02Z</time>
      </trkpt>
      <trkpt lat="45.19485" lon="5.99562">
        <ele>2547.6</ele>
        <time>2022-01-16T10:13:06Z</time>
      </trkpt>
      <trkpt lat="45.19485" lon="5.99562">
        <ele>2547.8</ele>
        <time>2022-01-16T10:13:07Z</time>
      </trkpt>
      <trkpt lat="45.19485" lon="5.99561">
        <ele>2548</ele>
        <time>2022-01-16T10:13:09Z</time>
      </trkpt>
      <trkpt lat="45.19486" lon="5.99562">
        <ele>2548.6</ele>
        <time>2022-01-16T10:13:12Z</time>
      </trkpt>
      <trkpt lat="45.19488" lon="5.99564">
        <ele>2549</ele>
        <time>2022-01-16T10:13:15Z</time>
      </trkpt>
      <trkpt lat="45.19491" lon="5.99566">
        <ele>2549.6</ele>
        <time>2022-01-16T10:13:19Z</time>
      </trkpt>
      <trkpt lat="45.19491" lon="5.99567">
        <ele>2550.2</ele>
        <time>2022-01-16T10:13:20Z</time>
      </trkpt>
      <trkpt lat="45.19494" lon="5.9957">
        <ele>2551</ele>
        <time>2022-01-16T10:13:25Z</time>
      </trkpt>
      <trkpt lat="45.19495" lon="5.99572">
        <ele>2551.2</ele>
        <time>2022-01-16T10:13:28Z</time>
      </trkpt>
      <trkpt lat="45.19497" lon="5.99574">
        <ele>2552.6</ele>
        <time>2022-01-16T10:13:33Z</time>
      </trkpt>
      <trkpt lat="45.19498" lon="5.99574">
        <ele>2552.8</ele>
        <time>2022-01-16T10:13:34Z</time>
      </trkpt>
      <trkpt lat="45.195" lon="5.99578">
        <ele>2554</ele>
        <time>2022-01-16T10:13:40Z</time>
      </trkpt>
      <trkpt lat="45.19501" lon="5.9958">
        <ele>2554.2</ele>
        <time>2022-01-16T10:13:42Z</time>
      </trkpt>
      <trkpt lat="45.19503" lon="5.99581">
        <ele>2555</ele>
        <time>2022-01-16T10:13:46Z</time>
      </trkpt>
      <trkpt lat="45.19504" lon="5.99581">
        <ele>2555.2</ele>
        <time>2022-01-16T10:13:47Z</time>
      </trkpt>
      <trkpt lat="45.19506" lon="5.99583">
        <ele>2556.4</ele>
        <time>2022-01-16T10:13:51Z</time>
      </trkpt>
      <trkpt lat="45.19506" lon="5.99584">
        <ele>2556.4</ele>
        <time>2022-01-16T10:13:53Z</time>
      </trkpt>
      <trkpt lat="45.19509" lon="5.99587">
        <ele>2557.4</ele>
        <time>2022-01-16T10:13:55Z</time>
      </trkpt>
      <trkpt lat="45.19511" lon="5.99592">
        <ele>2558.4</ele>
        <time>2022-01-16T10:14:01Z</time>
      </trkpt>
      <trkpt lat="45.19513" lon="5.99595">
        <ele>2559</ele>
        <time>2022-01-16T10:14:04Z</time>
      </trkpt>
      <trkpt lat="45.19514" lon="5.99596">
        <ele>2559.6</ele>
        <time>2022-01-16T10:14:05Z</time>
      </trkpt>
      <trkpt lat="45.19516" lon="5.99599">
        <ele>2560</ele>
        <time>2022-01-16T10:14:08Z</time>
      </trkpt>
      <trkpt lat="45.19517" lon="5.99599">
        <ele>2560.4</ele>
        <time>2022-01-16T10:14:09Z</time>
      </trkpt>
      <trkpt lat="45.19517" lon="5.996">
        <ele>2560.4</ele>
        <time>2022-01-16T10:14:10Z</time>
      </trkpt>
      <trkpt lat="45.19517" lon="5.99601">
        <ele>2560.8</ele>
        <time>2022-01-16T10:14:11Z</time>
      </trkpt>
      <trkpt lat="45.19517" lon="5.99606">
        <ele>2562</ele>
        <time>2022-01-16T10:14:15Z</time>
      </trkpt>
      <trkpt lat="45.19518" lon="5.99609">
        <ele>2562.6</ele>
        <time>2022-01-16T10:14:18Z</time>
      </trkpt>
      <trkpt lat="45.1952" lon="5.99611">
        <ele>2563</ele>
        <time>2022-01-16T10:14:21Z</time>
      </trkpt>
      <trkpt lat="45.19521" lon="5.99614">
        <ele>2564.2</ele>
        <time>2022-01-16T10:14:24Z</time>
      </trkpt>
      <trkpt lat="45.19521" lon="5.99614">
        <ele>2564.2</ele>
        <time>2022-01-16T10:14:25Z</time>
      </trkpt>
      <trkpt lat="45.19522" lon="5.99615">
        <ele>2564.8</ele>
        <time>2022-01-16T10:14:31Z</time>
      </trkpt>
      <trkpt lat="45.19522" lon="5.99614">
        <ele>2564.8</ele>
        <time>2022-01-16T10:14:33Z</time>
      </trkpt>
      <trkpt lat="45.19522" lon="5.99614">
        <ele>2564.8</ele>
        <time>2022-01-16T10:14:36Z</time>
      </trkpt>
      <trkpt lat="45.19522" lon="5.99615">
        <ele>2564.8</ele>
        <time>2022-01-16T10:14:39Z</time>
      </trkpt>
      <trkpt lat="45.19522" lon="5.99615">
        <ele>2564.8</ele>
        <time>2022-01-16T10:14:41Z</time>
      </trkpt>
      <trkpt lat="45.19522" lon="5.99615">
        <ele>2565</ele>
        <time>2022-01-16T10:14:44Z</time>
      </trkpt>
      <trkpt lat="45.19522" lon="5.99615">
        <ele>2565.2</ele>
        <time>2022-01-16T10:14:47Z</time>
      </trkpt>
      <trkpt lat="45.19522" lon="5.99615">
        <ele>2565</ele>
        <time>2022-01-16T10:14:51Z</time>
      </trkpt>
      <trkpt lat="45.19521" lon="5.99615">
        <ele>2565</ele>
        <time>2022-01-16T10:14:57Z</time>
      </trkpt>
      <trkpt lat="45.19521" lon="5.99616">
        <ele>2565.2</ele>
        <time>2022-01-16T10:14:59Z</time>
      </trkpt>
      <trkpt lat="45.19521" lon="5.99616">
        <ele>2565.4</ele>
        <time>2022-01-16T10:15:04Z</time>
      </trkpt>
      <trkpt lat="45.1952" lon="5.99616">
        <ele>2565.6</ele>
        <time>2022-01-16T10:15:10Z</time>
      </trkpt>
      <trkpt lat="45.19519" lon="5.99616">
        <ele>2565.8</ele>
        <time>2022-01-16T10:15:16Z</time>
      </trkpt>
      <trkpt lat="45.19519" lon="5.99616">
        <ele>2565.2</ele>
        <time>2022-01-16T10:15:20Z</time>
      </trkpt>
      <trkpt lat="45.19518" lon="5.99616">
        <ele>2565</ele>
        <time>2022-01-16T10:15:26Z</time>
      </trkpt>
      <trkpt lat="45.19518" lon="5.99616">
        <ele>2566.2</ele>
        <time>2022-01-16T10:15:32Z</time>
      </trkpt>
      <trkpt lat="45.19517" lon="5.99616">
        <ele>2566.4</ele>
        <time>2022-01-16T10:15:33Z</time>
      </trkpt>
      <trkpt lat="45.19517" lon="5.99616">
        <ele>2566.4</ele>
        <time>2022-01-16T10:15:39Z</time>
      </trkpt>
      <trkpt lat="45.19517" lon="5.99618">
        <ele>2566.4</ele>
        <time>2022-01-16T10:15:45Z</time>
      </trkpt>
      <trkpt lat="45.19516" lon="5.99619">
        <ele>2566.6</ele>
        <time>2022-01-16T10:15:51Z</time>
      </trkpt>
      <trkpt lat="45.19515" lon="5.99619">
        <ele>2566.6</ele>
        <time>2022-01-16T10:15:57Z</time>
      </trkpt>
      <trkpt lat="45.19513" lon="5.99619">
        <ele>2567</ele>
        <time>2022-01-16T10:16:03Z</time>
      </trkpt>
      <trkpt lat="45.19513" lon="5.9962">
        <ele>2567.6</ele>
        <time>2022-01-16T10:16:06Z</time>
      </trkpt>
      <trkpt lat="45.19513" lon="5.9962">
        <ele>2568.4</ele>
        <time>2022-01-16T10:16:10Z</time>
      </trkpt>
      <trkpt lat="45.19513" lon="5.9962">
        <ele>2568.4</ele>
        <time>2022-01-16T10:16:16Z</time>
      </trkpt>
      <trkpt lat="45.19514" lon="5.9962">
        <ele>2568.4</ele>
        <time>2022-01-16T10:16:19Z</time>
      </trkpt>
      <trkpt lat="45.19515" lon="5.9962">
        <ele>2568.4</ele>
        <time>2022-01-16T10:16:23Z</time>
      </trkpt>
      <trkpt lat="45.19517" lon="5.9962">
        <ele>2568.4</ele>
        <time>2022-01-16T10:16:28Z</time>
      </trkpt>
      <trkpt lat="45.19517" lon="5.9962">
        <ele>2568.4</ele>
        <time>2022-01-16T10:16:30Z</time>
      </trkpt>
      <trkpt lat="45.19517" lon="5.9962">
        <ele>2568.6</ele>
        <time>2022-01-16T10:16:32Z</time>
      </trkpt>
      <trkpt lat="45.19517" lon="5.9962">
        <ele>2568.8</ele>
        <time>2022-01-16T10:16:34Z</time>
      </trkpt>
      <trkpt lat="45.19517" lon="5.9962">
        <ele>2569</ele>
        <time>2022-01-16T10:16:36Z</time>
      </trkpt>
      <trkpt lat="45.19517" lon="5.99619">
        <ele>2569.4</ele>
        <time>2022-01-16T10:16:39Z</time>
      </trkpt>
      <trkpt lat="45.19518" lon="5.99619">
        <ele>2569.8</ele>
        <time>2022-01-16T10:16:41Z</time>
      </trkpt>
      <trkpt lat="45.19518" lon="5.99619">
        <ele>2571</ele>
        <time>2022-01-16T10:16:46Z</time>
      </trkpt>
      <trkpt lat="45.19518" lon="5.99618">
        <ele>2571.6</ele>
        <time>2022-01-16T10:16:52Z</time>
      </trkpt>
      <trkpt lat="45.19518" lon="5.99618">
        <ele>2572</ele>
        <time>2022-01-16T10:16:53Z</time>
      </trkpt>
      <trkpt lat="45.19518" lon="5.99617">
        <ele>2572.4</ele>
        <time>2022-01-16T10:16:56Z</time>
      </trkpt>
      <trkpt lat="45.19518" lon="5.99615">
        <ele>2572.4</ele>
        <time>2022-01-16T10:17:00Z</time>
      </trkpt>
      <trkpt lat="45.19519" lon="5.99612">
        <ele>2572.6</ele>
        <time>2022-01-16T10:17:06Z</time>
      </trkpt>
      <trkpt lat="45.19519" lon="5.99611">
        <ele>2572.6</ele>
        <time>2022-01-16T10:17:11Z</time>
      </trkpt>
      <trkpt lat="45.19519" lon="5.99611">
        <ele>2572.6</ele>
        <time>2022-01-16T10:17:13Z</time>
      </trkpt>
      <trkpt lat="45.19519" lon="5.99611">
        <ele>2572.6</ele>
        <time>2022-01-16T10:17:15Z</time>
      </trkpt>
      <trkpt lat="45.19519" lon="5.99611">
        <ele>2572.6</ele>
        <time>2022-01-16T10:17:17Z</time>
      </trkpt>
      <trkpt lat="45.19519" lon="5.99611">
        <ele>2572.6</ele>
        <time>2022-01-16T10:17:23Z</time>
      </trkpt>
      <trkpt lat="45.19519" lon="5.9961">
        <ele>2572.8</ele>
        <time>2022-01-16T10:17:26Z</time>
      </trkpt>
      <trkpt lat="45.19519" lon="5.9961">
        <ele>2573</ele>
        <time>2022-01-16T10:17:32Z</time>
      </trkpt>
      <trkpt lat="45.19519" lon="5.9961">
        <ele>2573</ele>
        <time>2022-01-16T10:17:35Z</time>
      </trkpt>
      <trkpt lat="45.19519" lon="5.99608">
        <ele>2572.8</ele>
        <time>2022-01-16T10:17:39Z</time>
      </trkpt>
      <trkpt lat="45.1952" lon="5.99607">
        <ele>2573</ele>
        <time>2022-01-16T10:17:43Z</time>
      </trkpt>
      <trkpt lat="45.1952" lon="5.99607">
        <ele>2573</ele>
        <time>2022-01-16T10:17:44Z</time>
      </trkpt>
      <trkpt lat="45.1952" lon="5.99606">
        <ele>2573</ele>
        <time>2022-01-16T10:17:46Z</time>
      </trkpt>
      <trkpt lat="45.19521" lon="5.99606">
        <ele>2573</ele>
        <time>2022-01-16T10:17:48Z</time>
      </trkpt>
      <trkpt lat="45.19522" lon="5.99603">
        <ele>2574.2</ele>
        <time>2022-01-16T10:17:53Z</time>
      </trkpt>
      <trkpt lat="45.19523" lon="5.99599">
        <ele>2574.6</ele>
        <time>2022-01-16T10:17:55Z</time>
      </trkpt>
      <trkpt lat="45.19524" lon="5.99598">
        <ele>2574.8</ele>
        <time>2022-01-16T10:17:56Z</time>
      </trkpt>
      <trkpt lat="45.19525" lon="5.99594">
        <ele>2575.2</ele>
        <time>2022-01-16T10:18:00Z</time>
      </trkpt>
      <trkpt lat="45.19526" lon="5.99593">
        <ele>2575.2</ele>
        <time>2022-01-16T10:18:02Z</time>
      </trkpt>
      <trkpt lat="45.19525" lon="5.99591">
        <ele>2575.2</ele>
        <time>2022-01-16T10:18:08Z</time>
      </trkpt>
      <trkpt lat="45.19525" lon="5.99591">
        <ele>2575.8</ele>
        <time>2022-01-16T10:18:13Z</time>
      </trkpt>
      <trkpt lat="45.19525" lon="5.99591">
        <ele>2576</ele>
        <time>2022-01-16T10:18:19Z</time>
      </trkpt>
      <trkpt lat="45.19525" lon="5.99591">
        <ele>2576.2</ele>
        <time>2022-01-16T10:18:20Z</time>
      </trkpt>
      <trkpt lat="45.19525" lon="5.99591">
        <ele>2576.4</ele>
        <time>2022-01-16T10:18:26Z</time>
      </trkpt>
      <trkpt lat="45.19525" lon="5.99591">
        <ele>2576.6</ele>
        <time>2022-01-16T10:18:32Z</time>
      </trkpt>
      <trkpt lat="45.19525" lon="5.99591">
        <ele>2576.2</ele>
        <time>2022-01-16T10:18:38Z</time>
      </trkpt>
      <trkpt lat="45.19525" lon="5.99591">
        <ele>2576.2</ele>
        <time>2022-01-16T10:18:41Z</time>
      </trkpt>
      <trkpt lat="45.19526" lon="5.99591">
        <ele>2576.2</ele>
        <time>2022-01-16T10:18:42Z</time>
      </trkpt>
      <trkpt lat="45.19526" lon="5.99591">
        <ele>2576</ele>
        <time>2022-01-16T10:18:48Z</time>
      </trkpt>
      <trkpt lat="45.19526" lon="5.99591">
        <ele>2576</ele>
        <time>2022-01-16T10:18:49Z</time>
      </trkpt>
      <trkpt lat="45.19526" lon="5.99591">
        <ele>2576</ele>
        <time>2022-01-16T10:18:50Z</time>
      </trkpt>
      <trkpt lat="45.19526" lon="5.99591">
        <ele>2576.2</ele>
        <time>2022-01-16T10:18:52Z</time>
      </trkpt>
      <trkpt lat="45.19526" lon="5.99591">
        <ele>2576.2</ele>
        <time>2022-01-16T10:18:58Z</time>
      </trkpt>
      <trkpt lat="45.19525" lon="5.99591">
        <ele>2576.2</ele>
        <time>2022-01-16T10:19:02Z</time>
      </trkpt>
      <trkpt lat="45.19524" lon="5.99591">
        <ele>2576.6</ele>
        <time>2022-01-16T10:19:06Z</time>
      </trkpt>
      <trkpt lat="45.19524" lon="5.99591">
        <ele>2576.6</ele>
        <time>2022-01-16T10:19:09Z</time>
      </trkpt>
      <trkpt lat="45.19523" lon="5.99583">
        <ele>2577.2</ele>
        <time>2022-01-16T10:19:15Z</time>
      </trkpt>
      <trkpt lat="45.19522" lon="5.99574">
        <ele>2578.2</ele>
        <time>2022-01-16T10:19:21Z</time>
      </trkpt>
      <trkpt lat="45.19521" lon="5.9957">
        <ele>2578.6</ele>
        <time>2022-01-16T10:19:24Z</time>
      </trkpt>
      <trkpt lat="45.1952" lon="5.99565">
        <ele>2579.4</ele>
        <time>2022-01-16T10:19:28Z</time>
      </trkpt>
      <trkpt lat="45.19519" lon="5.99562">
        <ele>2580</ele>
        <time>2022-01-16T10:19:31Z</time>
      </trkpt>
      <trkpt lat="45.19519" lon="5.99561">
        <ele>2580.2</ele>
        <time>2022-01-16T10:19:33Z</time>
      </trkpt>
      <trkpt lat="45.19519" lon="5.9956">
        <ele>2580.4</ele>
        <time>2022-01-16T10:19:34Z</time>
      </trkpt>
      <trkpt lat="45.1952" lon="5.99558">
        <ele>2581.2</ele>
        <time>2022-01-16T10:19:37Z</time>
      </trkpt>
      <trkpt lat="45.19519" lon="5.99554">
        <ele>2581.4</ele>
        <time>2022-01-16T10:19:40Z</time>
      </trkpt>
      <trkpt lat="45.1952" lon="5.99553">
        <ele>2582.4</ele>
        <time>2022-01-16T10:19:41Z</time>
      </trkpt>
      <trkpt lat="45.19519" lon="5.99551">
        <ele>2582.6</ele>
        <time>2022-01-16T10:19:43Z</time>
      </trkpt>
      <trkpt lat="45.19519" lon="5.99547">
        <ele>2582.8</ele>
        <time>2022-01-16T10:19:49Z</time>
      </trkpt>
      <trkpt lat="45.19519" lon="5.99547">
        <ele>2583</ele>
        <time>2022-01-16T10:19:50Z</time>
      </trkpt>
      <trkpt lat="45.19519" lon="5.99543">
        <ele>2582.8</ele>
        <time>2022-01-16T10:19:54Z</time>
      </trkpt>
      <trkpt lat="45.19517" lon="5.99542">
        <ele>2582.8</ele>
        <time>2022-01-16T10:19:59Z</time>
      </trkpt>
      <trkpt lat="45.19517" lon="5.99539">
        <ele>2582</ele>
        <time>2022-01-16T10:20:04Z</time>
      </trkpt>
      <trkpt lat="45.19517" lon="5.99537">
        <ele>2581.4</ele>
        <time>2022-01-16T10:20:10Z</time>
      </trkpt>
      <trkpt lat="45.19517" lon="5.99535">
        <ele>2581.6</ele>
        <time>2022-01-16T10:20:12Z</time>
      </trkpt>
      <trkpt lat="45.19514" lon="5.99532">
        <ele>2581.6</ele>
        <time>2022-01-16T10:20:16Z</time>
      </trkpt>
      <trkpt lat="45.19512" lon="5.9953">
        <ele>2580.8</ele>
        <time>2022-01-16T10:20:22Z</time>
      </trkpt>
      <trkpt lat="45.19513" lon="5.99527">
        <ele>2580.8</ele>
        <time>2022-01-16T10:20:24Z</time>
      </trkpt>
      <trkpt lat="45.19513" lon="5.99523">
        <ele>2581.4</ele>
        <time>2022-01-16T10:20:28Z</time>
      </trkpt>
      <trkpt lat="45.19513" lon="5.99521">
        <ele>2581.6</ele>
        <time>2022-01-16T10:20:29Z</time>
      </trkpt>
      <trkpt lat="45.19512" lon="5.99519">
        <ele>2581.8</ele>
        <time>2022-01-16T10:20:31Z</time>
      </trkpt>
      <trkpt lat="45.19511" lon="5.99514">
        <ele>2582.4</ele>
        <time>2022-01-16T10:20:35Z</time>
      </trkpt>
      <trkpt lat="45.1951" lon="5.99511">
        <ele>2583.2</ele>
        <time>2022-01-16T10:20:39Z</time>
      </trkpt>
      <trkpt lat="45.1951" lon="5.9951">
        <ele>2583.4</ele>
        <time>2022-01-16T10:20:40Z</time>
      </trkpt>
      <trkpt lat="45.19509" lon="5.99504">
        <ele>2584.6</ele>
        <time>2022-01-16T10:20:46Z</time>
      </trkpt>
      <trkpt lat="45.19509" lon="5.99503">
        <ele>2584.8</ele>
        <time>2022-01-16T10:20:48Z</time>
      </trkpt>
      <trkpt lat="45.1951" lon="5.99503">
        <ele>2584.8</ele>
        <time>2022-01-16T10:20:50Z</time>
      </trkpt>
      <trkpt lat="45.19509" lon="5.99502">
        <ele>2584.6</ele>
        <time>2022-01-16T10:20:56Z</time>
      </trkpt>
      <trkpt lat="45.19509" lon="5.99503">
        <ele>2584.6</ele>
        <time>2022-01-16T10:20:57Z</time>
      </trkpt>
      <trkpt lat="45.19508" lon="5.99503">
        <ele>2584.6</ele>
        <time>2022-01-16T10:21:03Z</time>
      </trkpt>
      <trkpt lat="45.19508" lon="5.99503">
        <ele>2584.4</ele>
        <time>2022-01-16T10:21:07Z</time>
      </trkpt>
      <trkpt lat="45.19508" lon="5.99503">
        <ele>2584.6</ele>
        <time>2022-01-16T10:21:08Z</time>
      </trkpt>
      <trkpt lat="45.19508" lon="5.99503">
        <ele>2584.6</ele>
        <time>2022-01-16T10:21:11Z</time>
      </trkpt>
      <trkpt lat="45.19508" lon="5.99503">
        <ele>2584.6</ele>
        <time>2022-01-16T10:21:15Z</time>
      </trkpt>
      <trkpt lat="45.19508" lon="5.99503">
        <ele>2584.6</ele>
        <time>2022-01-16T10:21:16Z</time>
      </trkpt>
      <trkpt lat="45.19508" lon="5.99505">
        <ele>2584.6</ele>
        <time>2022-01-16T10:21:18Z</time>
      </trkpt>
      <trkpt lat="45.19508" lon="5.99505">
        <ele>2584.2</ele>
        <time>2022-01-16T10:21:21Z</time>
      </trkpt>
      <trkpt lat="45.19508" lon="5.99505">
        <ele>2584.2</ele>
        <time>2022-01-16T10:21:22Z</time>
      </trkpt>
      <trkpt lat="45.19508" lon="5.99505">
        <ele>2584.2</ele>
        <time>2022-01-16T10:21:23Z</time>
      </trkpt>
      <trkpt lat="45.19508" lon="5.99505">
        <ele>2584.2</ele>
        <time>2022-01-16T10:21:24Z</time>
      </trkpt>
      <trkpt lat="45.19508" lon="5.99505">
        <ele>2584.2</ele>
        <time>2022-01-16T10:21:25Z</time>
      </trkpt>
      <trkpt lat="45.19508" lon="5.99505">
        <ele>2584.2</ele>
        <time>2022-01-16T10:21:27Z</time>
      </trkpt>
      <trkpt lat="45.19504" lon="5.99499">
        <ele>2586</ele>
        <time>2022-01-16T10:21:33Z</time>
      </trkpt>
      <trkpt lat="45.195" lon="5.99493">
        <ele>2587</ele>
        <time>2022-01-16T10:21:38Z</time>
      </trkpt>
      <trkpt lat="45.195" lon="5.99491">
        <ele>2587.2</ele>
        <time>2022-01-16T10:21:40Z</time>
      </trkpt>
      <trkpt lat="45.195" lon="5.99489">
        <ele>2587.8</ele>
        <time>2022-01-16T10:21:41Z</time>
      </trkpt>
      <trkpt lat="45.195" lon="5.99488">
        <ele>2588.2</ele>
        <time>2022-01-16T10:21:42Z</time>
      </trkpt>
      <trkpt lat="45.19498" lon="5.99485">
        <ele>2589</ele>
        <time>2022-01-16T10:21:46Z</time>
      </trkpt>
      <trkpt lat="45.19498" lon="5.99485">
        <ele>2589.4</ele>
        <time>2022-01-16T10:21:47Z</time>
      </trkpt>
      <trkpt lat="45.19498" lon="5.99481">
        <ele>2590</ele>
        <time>2022-01-16T10:21:50Z</time>
      </trkpt>
      <trkpt lat="45.19497" lon="5.99481">
        <ele>2590.6</ele>
        <time>2022-01-16T10:21:51Z</time>
      </trkpt>
      <trkpt lat="45.19497" lon="5.99479">
        <ele>2591</ele>
        <time>2022-01-16T10:21:53Z</time>
      </trkpt>
      <trkpt lat="45.19497" lon="5.99477">
        <ele>2591.2</ele>
        <time>2022-01-16T10:21:56Z</time>
      </trkpt>
      <trkpt lat="45.19497" lon="5.99476">
        <ele>2591.6</ele>
        <time>2022-01-16T10:21:57Z</time>
      </trkpt>
      <trkpt lat="45.19497" lon="5.99475">
        <ele>2592.2</ele>
        <time>2022-01-16T10:21:58Z</time>
      </trkpt>
      <trkpt lat="45.19497" lon="5.99471">
        <ele>2593</ele>
        <time>2022-01-16T10:22:02Z</time>
      </trkpt>
      <trkpt lat="45.19497" lon="5.9947">
        <ele>2593.4</ele>
        <time>2022-01-16T10:22:04Z</time>
      </trkpt>
      <trkpt lat="45.19497" lon="5.9947">
        <ele>2593.6</ele>
        <time>2022-01-16T10:22:05Z</time>
      </trkpt>
      <trkpt lat="45.19499" lon="5.9947">
        <ele>2593.8</ele>
        <time>2022-01-16T10:22:10Z</time>
      </trkpt>
      <trkpt lat="45.19498" lon="5.99465">
        <ele>2594.6</ele>
        <time>2022-01-16T10:22:15Z</time>
      </trkpt>
      <trkpt lat="45.19498" lon="5.99463">
        <ele>2595.4</ele>
        <time>2022-01-16T10:22:17Z</time>
      </trkpt>
      <trkpt lat="45.19498" lon="5.99462">
        <ele>2595.6</ele>
        <time>2022-01-16T10:22:19Z</time>
      </trkpt>
      <trkpt lat="45.19498" lon="5.99459">
        <ele>2596.6</ele>
        <time>2022-01-16T10:22:23Z</time>
      </trkpt>
      <trkpt lat="45.19498" lon="5.99457">
        <ele>2597.6</ele>
        <time>2022-01-16T10:22:26Z</time>
      </trkpt>
      <trkpt lat="45.19498" lon="5.99454">
        <ele>2598.6</ele>
        <time>2022-01-16T10:22:32Z</time>
      </trkpt>
      <trkpt lat="45.19498" lon="5.99452">
        <ele>2598.4</ele>
        <time>2022-01-16T10:22:36Z</time>
      </trkpt>
      <trkpt lat="45.19497" lon="5.99452">
        <ele>2598.8</ele>
        <time>2022-01-16T10:22:42Z</time>
      </trkpt>
      <trkpt lat="45.19497" lon="5.99452">
        <ele>2598.8</ele>
        <time>2022-01-16T10:22:43Z</time>
      </trkpt>
      <trkpt lat="45.19497" lon="5.99452">
        <ele>2599.8</ele>
        <time>2022-01-16T10:22:49Z</time>
      </trkpt>
      <trkpt lat="45.19497" lon="5.99452">
        <ele>2600.2</ele>
        <time>2022-01-16T10:22:50Z</time>
      </trkpt>
      <trkpt lat="45.19498" lon="5.99452">
        <ele>2601.4</ele>
        <time>2022-01-16T10:22:55Z</time>
      </trkpt>
      <trkpt lat="45.19498" lon="5.99451">
        <ele>2602.6</ele>
        <time>2022-01-16T10:23:00Z</time>
      </trkpt>
      <trkpt lat="45.19498" lon="5.99447">
        <ele>2603.6</ele>
        <time>2022-01-16T10:23:06Z</time>
      </trkpt>
      <trkpt lat="45.19498" lon="5.99446">
        <ele>2603.8</ele>
        <time>2022-01-16T10:23:07Z</time>
      </trkpt>
      <trkpt lat="45.19497" lon="5.99441">
        <ele>2605</ele>
        <time>2022-01-16T10:23:12Z</time>
      </trkpt>
      <trkpt lat="45.19495" lon="5.99434">
        <ele>2606.4</ele>
        <time>2022-01-16T10:23:16Z</time>
      </trkpt>
      <trkpt lat="45.19493" lon="5.99425">
        <ele>2607.4</ele>
        <time>2022-01-16T10:23:22Z</time>
      </trkpt>
      <trkpt lat="45.19492" lon="5.99424">
        <ele>2607.8</ele>
        <time>2022-01-16T10:23:23Z</time>
      </trkpt>
      <trkpt lat="45.19491" lon="5.99424">
        <ele>2608.8</ele>
        <time>2022-01-16T10:23:27Z</time>
      </trkpt>
      <trkpt lat="45.19491" lon="5.99423">
        <ele>2609</ele>
        <time>2022-01-16T10:23:29Z</time>
      </trkpt>
      <trkpt lat="45.19493" lon="5.99425">
        <ele>2609.2</ele>
        <time>2022-01-16T10:23:35Z</time>
      </trkpt>
      <trkpt lat="45.19496" lon="5.99426">
        <ele>2610</ele>
        <time>2022-01-16T10:23:38Z</time>
      </trkpt>
      <trkpt lat="45.19499" lon="5.99427">
        <ele>2610.4</ele>
        <time>2022-01-16T10:23:40Z</time>
      </trkpt>
      <trkpt lat="45.195" lon="5.99427">
        <ele>2610.4</ele>
        <time>2022-01-16T10:23:41Z</time>
      </trkpt>
      <trkpt lat="45.19503" lon="5.99428">
        <ele>2610.4</ele>
        <time>2022-01-16T10:23:45Z</time>
      </trkpt>
      <trkpt lat="45.19505" lon="5.99431">
        <ele>2610.8</ele>
        <time>2022-01-16T10:23:48Z</time>
      </trkpt>
      <trkpt lat="45.19509" lon="5.99437">
        <ele>2611.2</ele>
        <time>2022-01-16T10:23:53Z</time>
      </trkpt>
      <trkpt lat="45.19511" lon="5.9944">
        <ele>2611.8</ele>
        <time>2022-01-16T10:23:56Z</time>
      </trkpt>
      <trkpt lat="45.19512" lon="5.99442">
        <ele>2611.8</ele>
        <time>2022-01-16T10:23:57Z</time>
      </trkpt>
      <trkpt lat="45.19514" lon="5.99445">
        <ele>2612.2</ele>
        <time>2022-01-16T10:24:01Z</time>
      </trkpt>
      <trkpt lat="45.19517" lon="5.99447">
        <ele>2612.8</ele>
        <time>2022-01-16T10:24:04Z</time>
      </trkpt>
      <trkpt lat="45.19518" lon="5.99448">
        <ele>2613.6</ele>
        <time>2022-01-16T10:24:06Z</time>
      </trkpt>
      <trkpt lat="45.19519" lon="5.99449">
        <ele>2613.8</ele>
        <time>2022-01-16T10:24:08Z</time>
      </trkpt>
      <trkpt lat="45.1952" lon="5.99451">
        <ele>2614.6</ele>
        <time>2022-01-16T10:24:11Z</time>
      </trkpt>
      <trkpt lat="45.19522" lon="5.99454">
        <ele>2615.6</ele>
        <time>2022-01-16T10:24:14Z</time>
      </trkpt>
      <trkpt lat="45.19523" lon="5.99455">
        <ele>2616.4</ele>
        <time>2022-01-16T10:24:15Z</time>
      </trkpt>
      <trkpt lat="45.19524" lon="5.99457">
        <ele>2616.6</ele>
        <time>2022-01-16T10:24:18Z</time>
      </trkpt>
      <trkpt lat="45.19527" lon="5.99459">
        <ele>2617.8</ele>
        <time>2022-01-16T10:24:22Z</time>
      </trkpt>
      <trkpt lat="45.19528" lon="5.99459">
        <ele>2618.2</ele>
        <time>2022-01-16T10:24:23Z</time>
      </trkpt>
      <trkpt lat="45.1953" lon="5.9946">
        <ele>2619.2</ele>
        <time>2022-01-16T10:24:25Z</time>
      </trkpt>
      <trkpt lat="45.19534" lon="5.9946">
        <ele>2620.2</ele>
        <time>2022-01-16T10:24:31Z</time>
      </trkpt>
      <trkpt lat="45.19536" lon="5.99459">
        <ele>2620.8</ele>
        <time>2022-01-16T10:24:33Z</time>
      </trkpt>
      <trkpt lat="45.19537" lon="5.99457">
        <ele>2621.4</ele>
        <time>2022-01-16T10:24:35Z</time>
      </trkpt>
      <trkpt lat="45.19538" lon="5.99456">
        <ele>2622.8</ele>
        <time>2022-01-16T10:24:38Z</time>
      </trkpt>
      <trkpt lat="45.19538" lon="5.99456">
        <ele>2623</ele>
        <time>2022-01-16T10:24:39Z</time>
      </trkpt>
      <trkpt lat="45.19537" lon="5.99454">
        <ele>2624</ele>
        <time>2022-01-16T10:24:43Z</time>
      </trkpt>
      <trkpt lat="45.19535" lon="5.99451">
        <ele>2625.2</ele>
        <time>2022-01-16T10:24:47Z</time>
      </trkpt>
      <trkpt lat="45.19535" lon="5.99448">
        <ele>2625.2</ele>
        <time>2022-01-16T10:24:51Z</time>
      </trkpt>
      <trkpt lat="45.19533" lon="5.99443">
        <ele>2626.4</ele>
        <time>2022-01-16T10:24:56Z</time>
      </trkpt>
      <trkpt lat="45.19533" lon="5.99441">
        <ele>2626.8</ele>
        <time>2022-01-16T10:24:58Z</time>
      </trkpt>
      <trkpt lat="45.19532" lon="5.99437">
        <ele>2627.6</ele>
        <time>2022-01-16T10:25:02Z</time>
      </trkpt>
      <trkpt lat="45.1953" lon="5.99434">
        <ele>2628.6</ele>
        <time>2022-01-16T10:25:06Z</time>
      </trkpt>
      <trkpt lat="45.1953" lon="5.99433">
        <ele>2628.8</ele>
        <time>2022-01-16T10:25:07Z</time>
      </trkpt>
      <trkpt lat="45.19529" lon="5.99429">
        <ele>2629.8</ele>
        <time>2022-01-16T10:25:11Z</time>
      </trkpt>
      <trkpt lat="45.19529" lon="5.99428">
        <ele>2630.4</ele>
        <time>2022-01-16T10:25:13Z</time>
      </trkpt>
      <trkpt lat="45.19529" lon="5.99427">
        <ele>2630.8</ele>
        <time>2022-01-16T10:25:14Z</time>
      </trkpt>
      <trkpt lat="45.19528" lon="5.99425">
        <ele>2631.6</ele>
        <time>2022-01-16T10:25:15Z</time>
      </trkpt>
      <trkpt lat="45.19528" lon="5.99424">
        <ele>2631.8</ele>
        <time>2022-01-16T10:25:16Z</time>
      </trkpt>
      <trkpt lat="45.19528" lon="5.99421">
        <ele>2632.8</ele>
        <time>2022-01-16T10:25:21Z</time>
      </trkpt>
      <trkpt lat="45.19528" lon="5.9942">
        <ele>2633.2</ele>
        <time>2022-01-16T10:25:22Z</time>
      </trkpt>
      <trkpt lat="45.19527" lon="5.99417">
        <ele>2634.4</ele>
        <time>2022-01-16T10:25:26Z</time>
      </trkpt>
      <trkpt lat="45.19526" lon="5.99415">
        <ele>2635</ele>
        <time>2022-01-16T10:25:29Z</time>
      </trkpt>
      <trkpt lat="45.19526" lon="5.99414">
        <ele>2635.6</ele>
        <time>2022-01-16T10:25:30Z</time>
      </trkpt>
      <trkpt lat="45.19525" lon="5.9941">
        <ele>2637</ele>
        <time>2022-01-16T10:25:35Z</time>
      </trkpt>
      <trkpt lat="45.19524" lon="5.9941">
        <ele>2638.6</ele>
        <time>2022-01-16T10:25:37Z</time>
      </trkpt>
      <trkpt lat="45.19524" lon="5.99407">
        <ele>2639.6</ele>
        <time>2022-01-16T10:25:40Z</time>
      </trkpt>
      <trkpt lat="45.19523" lon="5.99405">
        <ele>2640.2</ele>
        <time>2022-01-16T10:25:43Z</time>
      </trkpt>
      <trkpt lat="45.19522" lon="5.99404">
        <ele>2640.2</ele>
        <time>2022-01-16T10:25:45Z</time>
      </trkpt>
      <trkpt lat="45.19521" lon="5.994">
        <ele>2640.8</ele>
        <time>2022-01-16T10:25:50Z</time>
      </trkpt>
      <trkpt lat="45.19521" lon="5.99399">
        <ele>2640.8</ele>
        <time>2022-01-16T10:25:51Z</time>
      </trkpt>
      <trkpt lat="45.19524" lon="5.99398">
        <ele>2641.8</ele>
        <time>2022-01-16T10:25:57Z</time>
      </trkpt>
      <trkpt lat="45.19525" lon="5.99398">
        <ele>2642.2</ele>
        <time>2022-01-16T10:25:58Z</time>
      </trkpt>
      <trkpt lat="45.19526" lon="5.99396">
        <ele>2642.6</ele>
        <time>2022-01-16T10:26:00Z</time>
      </trkpt>
      <trkpt lat="45.19527" lon="5.99394">
        <ele>2643.2</ele>
        <time>2022-01-16T10:26:04Z</time>
      </trkpt>
      <trkpt lat="45.19531" lon="5.99391">
        <ele>2644</ele>
        <time>2022-01-16T10:26:08Z</time>
      </trkpt>
      <trkpt lat="45.19531" lon="5.9939">
        <ele>2644.6</ele>
        <time>2022-01-16T10:26:10Z</time>
      </trkpt>
      <trkpt lat="45.19531" lon="5.9939">
        <ele>2645.4</ele>
        <time>2022-01-16T10:26:14Z</time>
      </trkpt>
      <trkpt lat="45.19531" lon="5.9939">
        <ele>2645.6</ele>
        <time>2022-01-16T10:26:15Z</time>
      </trkpt>
      <trkpt lat="45.19528" lon="5.99389">
        <ele>2646.4</ele>
        <time>2022-01-16T10:26:20Z</time>
      </trkpt>
      <trkpt lat="45.19527" lon="5.99389">
        <ele>2646.8</ele>
        <time>2022-01-16T10:26:21Z</time>
      </trkpt>
      <trkpt lat="45.19523" lon="5.99389">
        <ele>2647.4</ele>
        <time>2022-01-16T10:26:27Z</time>
      </trkpt>
      <trkpt lat="45.19522" lon="5.99388">
        <ele>2647.8</ele>
        <time>2022-01-16T10:26:28Z</time>
      </trkpt>
      <trkpt lat="45.19521" lon="5.99388">
        <ele>2647.8</ele>
        <time>2022-01-16T10:26:29Z</time>
      </trkpt>
      <trkpt lat="45.19518" lon="5.99386">
        <ele>2649.4</ele>
        <time>2022-01-16T10:26:33Z</time>
      </trkpt>
      <trkpt lat="45.19518" lon="5.99385">
        <ele>2649.6</ele>
        <time>2022-01-16T10:26:34Z</time>
      </trkpt>
      <trkpt lat="45.19515" lon="5.9938">
        <ele>2650</ele>
        <time>2022-01-16T10:26:40Z</time>
      </trkpt>
      <trkpt lat="45.19513" lon="5.99379">
        <ele>2651</ele>
        <time>2022-01-16T10:26:42Z</time>
      </trkpt>
      <trkpt lat="45.1951" lon="5.99375">
        <ele>2652</ele>
        <time>2022-01-16T10:26:47Z</time>
      </trkpt>
      <trkpt lat="45.19508" lon="5.99374">
        <ele>2652</ele>
        <time>2022-01-16T10:26:50Z</time>
      </trkpt>
      <trkpt lat="45.19506" lon="5.99371">
        <ele>2652</ele>
        <time>2022-01-16T10:26:55Z</time>
      </trkpt>
      <trkpt lat="45.19503" lon="5.99371">
        <ele>2652.2</ele>
        <time>2022-01-16T10:27:01Z</time>
      </trkpt>
      <trkpt lat="45.19502" lon="5.9937">
        <ele>2652.6</ele>
        <time>2022-01-16T10:27:02Z</time>
      </trkpt>
      <trkpt lat="45.195" lon="5.99366">
        <ele>2653</ele>
        <time>2022-01-16T10:27:06Z</time>
      </trkpt>
      <trkpt lat="45.19499" lon="5.99365">
        <ele>2653.2</ele>
        <time>2022-01-16T10:27:09Z</time>
      </trkpt>
      <trkpt lat="45.19497" lon="5.99362">
        <ele>2654.2</ele>
        <time>2022-01-16T10:27:13Z</time>
      </trkpt>
      <trkpt lat="45.19495" lon="5.9936">
        <ele>2654.4</ele>
        <time>2022-01-16T10:27:16Z</time>
      </trkpt>
      <trkpt lat="45.19494" lon="5.99356">
        <ele>2655.2</ele>
        <time>2022-01-16T10:27:19Z</time>
      </trkpt>
      <trkpt lat="45.19493" lon="5.99354">
        <ele>2655.2</ele>
        <time>2022-01-16T10:27:22Z</time>
      </trkpt>
      <trkpt lat="45.19491" lon="5.99356">
        <ele>2655.2</ele>
        <time>2022-01-16T10:27:28Z</time>
      </trkpt>
      <trkpt lat="45.19492" lon="5.99357">
        <ele>2655</ele>
        <time>2022-01-16T10:27:31Z</time>
      </trkpt>
      <trkpt lat="45.19492" lon="5.99358">
        <ele>2654.8</ele>
        <time>2022-01-16T10:27:36Z</time>
      </trkpt>
      <trkpt lat="45.19492" lon="5.99358">
        <ele>2654.6</ele>
        <time>2022-01-16T10:27:38Z</time>
      </trkpt>
      <trkpt lat="45.19492" lon="5.99358">
        <ele>2655</ele>
        <time>2022-01-16T10:27:41Z</time>
      </trkpt>
      <trkpt lat="45.19492" lon="5.99358">
        <ele>2655</ele>
        <time>2022-01-16T10:27:43Z</time>
      </trkpt>
      <trkpt lat="45.19492" lon="5.99358">
        <ele>2655</ele>
        <time>2022-01-16T10:27:44Z</time>
      </trkpt>
      <trkpt lat="45.19492" lon="5.99358">
        <ele>2655</ele>
        <time>2022-01-16T10:27:46Z</time>
      </trkpt>
      <trkpt lat="45.19492" lon="5.99358">
        <ele>2655</ele>
        <time>2022-01-16T10:27:50Z</time>
      </trkpt>
      <trkpt lat="45.19492" lon="5.99357">
        <ele>2655.4</ele>
        <time>2022-01-16T10:27:52Z</time>
      </trkpt>
      <trkpt lat="45.19492" lon="5.99357">
        <ele>2655.4</ele>
        <time>2022-01-16T10:27:54Z</time>
      </trkpt>
      <trkpt lat="45.19492" lon="5.99357">
        <ele>2655.6</ele>
        <time>2022-01-16T10:27:56Z</time>
      </trkpt>
      <trkpt lat="45.19492" lon="5.99357">
        <ele>2655.2</ele>
        <time>2022-01-16T10:27:58Z</time>
      </trkpt>
      <trkpt lat="45.19492" lon="5.99357">
        <ele>2654.8</ele>
        <time>2022-01-16T10:28:04Z</time>
      </trkpt>
      <trkpt lat="45.19492" lon="5.99357">
        <ele>2656.2</ele>
        <time>2022-01-16T10:28:09Z</time>
      </trkpt>
      <trkpt lat="45.19489" lon="5.99352">
        <ele>2657</ele>
        <time>2022-01-16T10:28:13Z</time>
      </trkpt>
      <trkpt lat="45.19489" lon="5.9935">
        <ele>2657.4</ele>
        <time>2022-01-16T10:28:14Z</time>
      </trkpt>
      <trkpt lat="45.1949" lon="5.99345">
        <ele>2658.6</ele>
        <time>2022-01-16T10:28:19Z</time>
      </trkpt>
      <trkpt lat="45.19491" lon="5.99344">
        <ele>2658.8</ele>
        <time>2022-01-16T10:28:21Z</time>
      </trkpt>
      <trkpt lat="45.1949" lon="5.99343">
        <ele>2659.8</ele>
        <time>2022-01-16T10:28:23Z</time>
      </trkpt>
      <trkpt lat="45.1949" lon="5.99342">
        <ele>2660.2</ele>
        <time>2022-01-16T10:28:25Z</time>
      </trkpt>
      <trkpt lat="45.1949" lon="5.99341">
        <ele>2660.4</ele>
        <time>2022-01-16T10:28:26Z</time>
      </trkpt>
      <trkpt lat="45.1949" lon="5.9934">
        <ele>2661</ele>
        <time>2022-01-16T10:28:30Z</time>
      </trkpt>
      <trkpt lat="45.19491" lon="5.99339">
        <ele>2661</ele>
        <time>2022-01-16T10:28:31Z</time>
      </trkpt>
      <trkpt lat="45.19493" lon="5.99338">
        <ele>2661.4</ele>
        <time>2022-01-16T10:28:35Z</time>
      </trkpt>
      <trkpt lat="45.19493" lon="5.99337">
        <ele>2662</ele>
        <time>2022-01-16T10:28:36Z</time>
      </trkpt>
      <trkpt lat="45.19493" lon="5.99337">
        <ele>2662.4</ele>
        <time>2022-01-16T10:28:37Z</time>
      </trkpt>
      <trkpt lat="45.19492" lon="5.99335">
        <ele>2662.6</ele>
        <time>2022-01-16T10:28:41Z</time>
      </trkpt>
      <trkpt lat="45.1949" lon="5.99334">
        <ele>2663</ele>
        <time>2022-01-16T10:28:44Z</time>
      </trkpt>
      <trkpt lat="45.1949" lon="5.99335">
        <ele>2663.4</ele>
        <time>2022-01-16T10:28:45Z</time>
      </trkpt>
      <trkpt lat="45.19486" lon="5.99334">
        <ele>2664.4</ele>
        <time>2022-01-16T10:28:50Z</time>
      </trkpt>
      <trkpt lat="45.19483" lon="5.99334">
        <ele>2665.8</ele>
        <time>2022-01-16T10:28:54Z</time>
      </trkpt>
      <trkpt lat="45.19482" lon="5.99333">
        <ele>2665.4</ele>
        <time>2022-01-16T10:29:00Z</time>
      </trkpt>
      <trkpt lat="45.19482" lon="5.99335">
        <ele>2665.4</ele>
        <time>2022-01-16T10:29:06Z</time>
      </trkpt>
      <trkpt lat="45.19482" lon="5.99335">
        <ele>2665.6</ele>
        <time>2022-01-16T10:29:12Z</time>
      </trkpt>
      <trkpt lat="45.19482" lon="5.99334">
        <ele>2666.2</ele>
        <time>2022-01-16T10:29:16Z</time>
      </trkpt>
      <trkpt lat="45.19482" lon="5.99334">
        <ele>2666.2</ele>
        <time>2022-01-16T10:29:17Z</time>
      </trkpt>
      <trkpt lat="45.19483" lon="5.99333">
        <ele>2666.6</ele>
        <time>2022-01-16T10:29:19Z</time>
      </trkpt>
      <trkpt lat="45.19482" lon="5.99328">
        <ele>2666.8</ele>
        <time>2022-01-16T10:29:22Z</time>
      </trkpt>
      <trkpt lat="45.19482" lon="5.99327">
        <ele>2667.2</ele>
        <time>2022-01-16T10:29:23Z</time>
      </trkpt>
      <trkpt lat="45.19483" lon="5.99325">
        <ele>2667.4</ele>
        <time>2022-01-16T10:29:25Z</time>
      </trkpt>
      <trkpt lat="45.19483" lon="5.9932">
        <ele>2667.6</ele>
        <time>2022-01-16T10:29:28Z</time>
      </trkpt>
      <trkpt lat="45.19484" lon="5.9932">
        <ele>2668</ele>
        <time>2022-01-16T10:29:30Z</time>
      </trkpt>
      <trkpt lat="45.19485" lon="5.99322">
        <ele>2669</ele>
        <time>2022-01-16T10:29:34Z</time>
      </trkpt>
      <trkpt lat="45.19486" lon="5.99322">
        <ele>2669.2</ele>
        <time>2022-01-16T10:29:35Z</time>
      </trkpt>
      <trkpt lat="45.19487" lon="5.99323">
        <ele>2670.2</ele>
        <time>2022-01-16T10:29:38Z</time>
      </trkpt>
      <trkpt lat="45.19488" lon="5.99323">
        <ele>2670.4</ele>
        <time>2022-01-16T10:29:39Z</time>
      </trkpt>
      <trkpt lat="45.19488" lon="5.99322">
        <ele>2671</ele>
        <time>2022-01-16T10:29:41Z</time>
      </trkpt>
      <trkpt lat="45.19488" lon="5.99322">
        <ele>2671.2</ele>
        <time>2022-01-16T10:29:42Z</time>
      </trkpt>
      <trkpt lat="45.19488" lon="5.9932">
        <ele>2672.2</ele>
        <time>2022-01-16T10:29:46Z</time>
      </trkpt>
      <trkpt lat="45.19488" lon="5.9932">
        <ele>2672.2</ele>
        <time>2022-01-16T10:29:48Z</time>
      </trkpt>
      <trkpt lat="45.19488" lon="5.9932">
        <ele>2672</ele>
        <time>2022-01-16T10:29:53Z</time>
      </trkpt>
      <trkpt lat="45.19488" lon="5.9932">
        <ele>2672</ele>
        <time>2022-01-16T10:29:57Z</time>
      </trkpt>
      <trkpt lat="45.19488" lon="5.9932">
        <ele>2672</ele>
        <time>2022-01-16T10:29:59Z</time>
      </trkpt>
      <trkpt lat="45.19488" lon="5.9932">
        <ele>2672.2</ele>
        <time>2022-01-16T10:30:01Z</time>
      </trkpt>
      <trkpt lat="45.19488" lon="5.9932">
        <ele>2673</ele>
        <time>2022-01-16T10:30:05Z</time>
      </trkpt>
      <trkpt lat="45.19488" lon="5.99319">
        <ele>2673.4</ele>
        <time>2022-01-16T10:30:06Z</time>
      </trkpt>
      <trkpt lat="45.19489" lon="5.99313">
        <ele>2674.2</ele>
        <time>2022-01-16T10:30:11Z</time>
      </trkpt>
      <trkpt lat="45.19489" lon="5.99312">
        <ele>2674.8</ele>
        <time>2022-01-16T10:30:12Z</time>
      </trkpt>
      <trkpt lat="45.1949" lon="5.99312">
        <ele>2674.8</ele>
        <time>2022-01-16T10:30:13Z</time>
      </trkpt>
      <trkpt lat="45.19491" lon="5.99309">
        <ele>2675.4</ele>
        <time>2022-01-16T10:30:18Z</time>
      </trkpt>
      <trkpt lat="45.19491" lon="5.99307">
        <ele>2675.8</ele>
        <time>2022-01-16T10:30:23Z</time>
      </trkpt>
      <trkpt lat="45.19492" lon="5.99304">
        <ele>2675.8</ele>
        <time>2022-01-16T10:30:26Z</time>
      </trkpt>
      <trkpt lat="45.19493" lon="5.993">
        <ele>2676.2</ele>
        <time>2022-01-16T10:30:29Z</time>
      </trkpt>
      <trkpt lat="45.19495" lon="5.99298">
        <ele>2676.8</ele>
        <time>2022-01-16T10:30:31Z</time>
      </trkpt>
      <trkpt lat="45.19496" lon="5.99296">
        <ele>2677.4</ele>
        <time>2022-01-16T10:30:35Z</time>
      </trkpt>
      <trkpt lat="45.19498" lon="5.99293">
        <ele>2677.8</ele>
        <time>2022-01-16T10:30:39Z</time>
      </trkpt>
      <trkpt lat="45.19499" lon="5.99292">
        <ele>2678.4</ele>
        <time>2022-01-16T10:30:45Z</time>
      </trkpt>
      <trkpt lat="45.19499" lon="5.9929">
        <ele>2678.8</ele>
        <time>2022-01-16T10:30:49Z</time>
      </trkpt>
      <trkpt lat="45.195" lon="5.99288">
        <ele>2678.8</ele>
        <time>2022-01-16T10:30:52Z</time>
      </trkpt>
      <trkpt lat="45.19501" lon="5.99282">
        <ele>2679.6</ele>
        <time>2022-01-16T10:30:58Z</time>
      </trkpt>
      <trkpt lat="45.19502" lon="5.99282">
        <ele>2679.8</ele>
        <time>2022-01-16T10:30:59Z</time>
      </trkpt>
      <trkpt lat="45.19503" lon="5.99284">
        <ele>2681</ele>
        <time>2022-01-16T10:31:05Z</time>
      </trkpt>
      <trkpt lat="45.19504" lon="5.99286">
        <ele>2681.6</ele>
        <time>2022-01-16T10:31:11Z</time>
      </trkpt>
      <trkpt lat="45.19504" lon="5.99286">
        <ele>2681.8</ele>
        <time>2022-01-16T10:31:12Z</time>
      </trkpt>
      <trkpt lat="45.19504" lon="5.99286">
        <ele>2682.4</ele>
        <time>2022-01-16T10:31:16Z</time>
      </trkpt>
      <trkpt lat="45.19504" lon="5.99286">
        <ele>2682.8</ele>
        <time>2022-01-16T10:31:22Z</time>
      </trkpt>
      <trkpt lat="45.19504" lon="5.99286">
        <ele>2682.8</ele>
        <time>2022-01-16T10:31:28Z</time>
      </trkpt>
      <trkpt lat="45.19504" lon="5.99286">
        <ele>2682.8</ele>
        <time>2022-01-16T10:31:34Z</time>
      </trkpt>
      <trkpt lat="45.19504" lon="5.99286">
        <ele>2682.4</ele>
        <time>2022-01-16T10:31:37Z</time>
      </trkpt>
      <trkpt lat="45.19504" lon="5.99286">
        <ele>2682.4</ele>
        <time>2022-01-16T10:31:40Z</time>
      </trkpt>
      <trkpt lat="45.19504" lon="5.99286">
        <ele>2682.4</ele>
        <time>2022-01-16T10:31:42Z</time>
      </trkpt>
      <trkpt lat="45.19504" lon="5.99286">
        <ele>2682.4</ele>
        <time>2022-01-16T10:31:43Z</time>
      </trkpt>
      <trkpt lat="45.19504" lon="5.99286">
        <ele>2682.4</ele>
        <time>2022-01-16T10:31:44Z</time>
      </trkpt>
      <trkpt lat="45.19504" lon="5.99286">
        <ele>2682.4</ele>
        <time>2022-01-16T10:31:45Z</time>
      </trkpt>
      <trkpt lat="45.19504" lon="5.99285">
        <ele>2681.8</ele>
        <time>2022-01-16T10:31:51Z</time>
      </trkpt>
      <trkpt lat="45.19504" lon="5.99285">
        <ele>2681.4</ele>
        <time>2022-01-16T10:31:54Z</time>
      </trkpt>
      <trkpt lat="45.19504" lon="5.99285">
        <ele>2681.4</ele>
        <time>2022-01-16T10:31:59Z</time>
      </trkpt>
      <trkpt lat="45.19503" lon="5.99285">
        <ele>2681.4</ele>
        <time>2022-01-16T10:32:01Z</time>
      </trkpt>
      <trkpt lat="45.19503" lon="5.99285">
        <ele>2681.4</ele>
        <time>2022-01-16T10:32:06Z</time>
      </trkpt>
      <trkpt lat="45.19502" lon="5.99285">
        <ele>2681.6</ele>
        <time>2022-01-16T10:32:07Z</time>
      </trkpt>
      <trkpt lat="45.19502" lon="5.99285">
        <ele>2681.6</ele>
        <time>2022-01-16T10:32:08Z</time>
      </trkpt>
      <trkpt lat="45.19501" lon="5.99285">
        <ele>2681.6</ele>
        <time>2022-01-16T10:32:10Z</time>
      </trkpt>
      <trkpt lat="45.19501" lon="5.99285">
        <ele>2681.6</ele>
        <time>2022-01-16T10:32:13Z</time>
      </trkpt>
      <trkpt lat="45.19501" lon="5.99285">
        <ele>2681.6</ele>
        <time>2022-01-16T10:32:19Z</time>
      </trkpt>
      <trkpt lat="45.19501" lon="5.99285">
        <ele>2681.6</ele>
        <time>2022-01-16T10:32:25Z</time>
      </trkpt>
      <trkpt lat="45.19501" lon="5.99286">
        <ele>2681.6</ele>
        <time>2022-01-16T10:32:29Z</time>
      </trkpt>
      <trkpt lat="45.19501" lon="5.99286">
        <ele>2681.6</ele>
        <time>2022-01-16T10:32:33Z</time>
      </trkpt>
      <trkpt lat="45.19501" lon="5.99286">
        <ele>2681.6</ele>
        <time>2022-01-16T10:32:36Z</time>
      </trkpt>
      <trkpt lat="45.19501" lon="5.99286">
        <ele>2681.6</ele>
        <time>2022-01-16T10:32:41Z</time>
      </trkpt>
      <trkpt lat="45.19501" lon="5.99286">
        <ele>2681.6</ele>
        <time>2022-01-16T10:32:47Z</time>
      </trkpt>
      <trkpt lat="45.19501" lon="5.99286">
        <ele>2681.6</ele>
        <time>2022-01-16T10:32:53Z</time>
      </trkpt>
      <trkpt lat="45.19501" lon="5.99286">
        <ele>2681.6</ele>
        <time>2022-01-16T10:32:54Z</time>
      </trkpt>
      <trkpt lat="45.19501" lon="5.99286">
        <ele>2681.6</ele>
        <time>2022-01-16T10:32:55Z</time>
      </trkpt>
      <trkpt lat="45.19501" lon="5.99286">
        <ele>2681.6</ele>
        <time>2022-01-16T10:33:01Z</time>
      </trkpt>
      <trkpt lat="45.19502" lon="5.99286">
        <ele>2681.6</ele>
        <time>2022-01-16T10:33:03Z</time>
      </trkpt>
      <trkpt lat="45.19502" lon="5.99286">
        <ele>2681.6</ele>
        <time>2022-01-16T10:33:04Z</time>
      </trkpt>
      <trkpt lat="45.19502" lon="5.99286">
        <ele>2681.6</ele>
        <time>2022-01-16T10:33:05Z</time>
      </trkpt>
      <trkpt lat="45.19502" lon="5.99286">
        <ele>2681.6</ele>
        <time>2022-01-16T10:33:06Z</time>
      </trkpt>
      <trkpt lat="45.19502" lon="5.99286">
        <ele>2681.6</ele>
        <time>2022-01-16T10:33:07Z</time>
      </trkpt>
      <trkpt lat="45.19502" lon="5.99286">
        <ele>2681.6</ele>
        <time>2022-01-16T10:33:08Z</time>
      </trkpt>
      <trkpt lat="45.19502" lon="5.99286">
        <ele>2681.6</ele>
        <time>2022-01-16T10:33:10Z</time>
      </trkpt>
      <trkpt lat="45.19502" lon="5.99286">
        <ele>2681.6</ele>
        <time>2022-01-16T10:33:12Z</time>
      </trkpt>
      <trkpt lat="45.19502" lon="5.99286">
        <ele>2681.6</ele>
        <time>2022-01-16T10:33:15Z</time>
      </trkpt>
      <trkpt lat="45.19502" lon="5.99286">
        <ele>2681.6</ele>
        <time>2022-01-16T10:33:16Z</time>
      </trkpt>
      <trkpt lat="45.19502" lon="5.99286">
        <ele>2681.6</ele>
        <time>2022-01-16T10:33:18Z</time>
      </trkpt>
      <trkpt lat="45.19502" lon="5.99286">
        <ele>2681.6</ele>
        <time>2022-01-16T10:33:19Z</time>
      </trkpt>
      <trkpt lat="45.19503" lon="5.99286">
        <ele>2681.6</ele>
        <time>2022-01-16T10:33:21Z</time>
      </trkpt>
      <trkpt lat="45.19503" lon="5.99286">
        <ele>2681.6</ele>
        <time>2022-01-16T10:33:26Z</time>
      </trkpt>
      <trkpt lat="45.19503" lon="5.99286">
        <ele>2681.6</ele>
        <time>2022-01-16T10:33:32Z</time>
      </trkpt>
      <trkpt lat="45.19503" lon="5.99286">
        <ele>2681.6</ele>
        <time>2022-01-16T10:33:38Z</time>
      </trkpt>
      <trkpt lat="45.19502" lon="5.99286">
        <ele>2681.6</ele>
        <time>2022-01-16T10:33:42Z</time>
      </trkpt>
      <trkpt lat="45.19502" lon="5.99286">
        <ele>2681.6</ele>
        <time>2022-01-16T10:33:44Z</time>
      </trkpt>
      <trkpt lat="45.19502" lon="5.99286">
        <ele>2681.6</ele>
        <time>2022-01-16T10:33:50Z</time>
      </trkpt>
      <trkpt lat="45.19502" lon="5.99286">
        <ele>2681.6</ele>
        <time>2022-01-16T10:33:55Z</time>
      </trkpt>
      <trkpt lat="45.19502" lon="5.99286">
        <ele>2681.6</ele>
        <time>2022-01-16T10:34:01Z</time>
      </trkpt>
      <trkpt lat="45.19502" lon="5.99287">
        <ele>2681.6</ele>
        <time>2022-01-16T10:34:07Z</time>
      </trkpt>
      <trkpt lat="45.19502" lon="5.99287">
        <ele>2681.6</ele>
        <time>2022-01-16T10:34:13Z</time>
      </trkpt>
      <trkpt lat="45.19502" lon="5.99286">
        <ele>2681.6</ele>
        <time>2022-01-16T10:34:19Z</time>
      </trkpt>
      <trkpt lat="45.19502" lon="5.99286">
        <ele>2681.6</ele>
        <time>2022-01-16T10:34:21Z</time>
      </trkpt>
      <trkpt lat="45.19502" lon="5.99286">
        <ele>2681.6</ele>
        <time>2022-01-16T10:34:22Z</time>
      </trkpt>
      <trkpt lat="45.19501" lon="5.99287">
        <ele>2681.6</ele>
        <time>2022-01-16T10:34:23Z</time>
      </trkpt>
      <trkpt lat="45.19498" lon="5.99291">
        <ele>2681.6</ele>
        <time>2022-01-16T10:34:25Z</time>
      </trkpt>
      <trkpt lat="45.1949" lon="5.99307">
        <ele>2681.6</ele>
        <time>2022-01-16T10:34:31Z</time>
      </trkpt>
      <trkpt lat="45.1949" lon="5.9931">
        <ele>2681.2</ele>
        <time>2022-01-16T10:34:32Z</time>
      </trkpt>
      <trkpt lat="45.19488" lon="5.9932">
        <ele>2680</ele>
        <time>2022-01-16T10:34:36Z</time>
      </trkpt>
      <trkpt lat="45.19487" lon="5.99321">
        <ele>2679.8</ele>
        <time>2022-01-16T10:34:37Z</time>
      </trkpt>
      <trkpt lat="45.19484" lon="5.9932">
        <ele>2678.8</ele>
        <time>2022-01-16T10:34:41Z</time>
      </trkpt>
      <trkpt lat="45.19483" lon="5.99318">
        <ele>2678.8</ele>
        <time>2022-01-16T10:34:42Z</time>
      </trkpt>
      <trkpt lat="45.19481" lon="5.99314">
        <ele>2675</ele>
        <time>2022-01-16T10:34:44Z</time>
      </trkpt>
      <trkpt lat="45.19481" lon="5.99311">
        <ele>2674.4</ele>
        <time>2022-01-16T10:34:45Z</time>
      </trkpt>
      <trkpt lat="45.1948" lon="5.99309">
        <ele>2674</ele>
        <time>2022-01-16T10:34:46Z</time>
      </trkpt>
      <trkpt lat="45.19477" lon="5.99304">
        <ele>2672</ele>
        <time>2022-01-16T10:34:49Z</time>
      </trkpt>
      <trkpt lat="45.19477" lon="5.99301">
        <ele>2670.6</ele>
        <time>2022-01-16T10:34:50Z</time>
      </trkpt>
      <trkpt lat="45.19477" lon="5.99292">
        <ele>2668.6</ele>
        <time>2022-01-16T10:34:53Z</time>
      </trkpt>
      <trkpt lat="45.19476" lon="5.99288">
        <ele>2667.2</ele>
        <time>2022-01-16T10:34:55Z</time>
      </trkpt>
      <trkpt lat="45.19476" lon="5.99287">
        <ele>2667</ele>
        <time>2022-01-16T10:34:56Z</time>
      </trkpt>
      <trkpt lat="45.19476" lon="5.99287">
        <ele>2666.8</ele>
        <time>2022-01-16T10:34:57Z</time>
      </trkpt>
      <trkpt lat="45.19475" lon="5.99284">
        <ele>2666.8</ele>
        <time>2022-01-16T10:34:59Z</time>
      </trkpt>
      <trkpt lat="45.19473" lon="5.99282">
        <ele>2665</ele>
        <time>2022-01-16T10:35:00Z</time>
      </trkpt>
      <trkpt lat="45.19472" lon="5.99281">
        <ele>2664.2</ele>
        <time>2022-01-16T10:35:01Z</time>
      </trkpt>
      <trkpt lat="45.19467" lon="5.99279">
        <ele>2662.4</ele>
        <time>2022-01-16T10:35:03Z</time>
      </trkpt>
      <trkpt lat="45.19466" lon="5.99277">
        <ele>2659.4</ele>
        <time>2022-01-16T10:35:04Z</time>
      </trkpt>
      <trkpt lat="45.19465" lon="5.99274">
        <ele>2657.6</ele>
        <time>2022-01-16T10:35:05Z</time>
      </trkpt>
      <trkpt lat="45.19463" lon="5.99272">
        <ele>2656.2</ele>
        <time>2022-01-16T10:35:06Z</time>
      </trkpt>
      <trkpt lat="45.19459" lon="5.99275">
        <ele>2654</ele>
        <time>2022-01-16T10:35:08Z</time>
      </trkpt>
      <trkpt lat="45.19454" lon="5.99284">
        <ele>2652.2</ele>
        <time>2022-01-16T10:35:11Z</time>
      </trkpt>
      <trkpt lat="45.19452" lon="5.99287">
        <ele>2650.4</ele>
        <time>2022-01-16T10:35:13Z</time>
      </trkpt>
      <trkpt lat="45.19453" lon="5.99287">
        <ele>2650.4</ele>
        <time>2022-01-16T10:35:15Z</time>
      </trkpt>
      <trkpt lat="45.19453" lon="5.99289">
        <ele>2650.4</ele>
        <time>2022-01-16T10:35:17Z</time>
      </trkpt>
      <trkpt lat="45.19453" lon="5.99289">
        <ele>2650.6</ele>
        <time>2022-01-16T10:35:18Z</time>
      </trkpt>
      <trkpt lat="45.19453" lon="5.99288">
        <ele>2650.6</ele>
        <time>2022-01-16T10:35:21Z</time>
      </trkpt>
      <trkpt lat="45.19453" lon="5.99288">
        <ele>2650.4</ele>
        <time>2022-01-16T10:35:24Z</time>
      </trkpt>
      <trkpt lat="45.19453" lon="5.99288">
        <ele>2650.4</ele>
        <time>2022-01-16T10:35:27Z</time>
      </trkpt>
      <trkpt lat="45.19453" lon="5.99288">
        <ele>2650.4</ele>
        <time>2022-01-16T10:35:28Z</time>
      </trkpt>
      <trkpt lat="45.19453" lon="5.99288">
        <ele>2650.6</ele>
        <time>2022-01-16T10:35:29Z</time>
      </trkpt>
      <trkpt lat="45.19453" lon="5.99288">
        <ele>2650.6</ele>
        <time>2022-01-16T10:35:30Z</time>
      </trkpt>
      <trkpt lat="45.19453" lon="5.99288">
        <ele>2650.4</ele>
        <time>2022-01-16T10:35:34Z</time>
      </trkpt>
      <trkpt lat="45.19453" lon="5.99284">
        <ele>2648</ele>
        <time>2022-01-16T10:35:35Z</time>
      </trkpt>
      <trkpt lat="45.19453" lon="5.9928">
        <ele>2646.8</ele>
        <time>2022-01-16T10:35:36Z</time>
      </trkpt>
      <trkpt lat="45.19452" lon="5.99269">
        <ele>2645.4</ele>
        <time>2022-01-16T10:35:38Z</time>
      </trkpt>
      <trkpt lat="45.1945" lon="5.99264">
        <ele>2644.6</ele>
        <time>2022-01-16T10:35:40Z</time>
      </trkpt>
      <trkpt lat="45.19447" lon="5.99264">
        <ele>2643.2</ele>
        <time>2022-01-16T10:35:41Z</time>
      </trkpt>
      <trkpt lat="45.19445" lon="5.99262">
        <ele>2642.8</ele>
        <time>2022-01-16T10:35:42Z</time>
      </trkpt>
      <trkpt lat="45.19443" lon="5.99258">
        <ele>2640.4</ele>
        <time>2022-01-16T10:35:43Z</time>
      </trkpt>
      <trkpt lat="45.19442" lon="5.99255">
        <ele>2639.2</ele>
        <time>2022-01-16T10:35:44Z</time>
      </trkpt>
      <trkpt lat="45.19441" lon="5.9925">
        <ele>2637.6</ele>
        <time>2022-01-16T10:35:46Z</time>
      </trkpt>
      <trkpt lat="45.19438" lon="5.99251">
        <ele>2637.2</ele>
        <time>2022-01-16T10:35:47Z</time>
      </trkpt>
      <trkpt lat="45.19436" lon="5.99252">
        <ele>2636</ele>
        <time>2022-01-16T10:35:48Z</time>
      </trkpt>
      <trkpt lat="45.19434" lon="5.99251">
        <ele>2634.8</ele>
        <time>2022-01-16T10:35:49Z</time>
      </trkpt>
      <trkpt lat="45.19432" lon="5.99245">
        <ele>2632.8</ele>
        <time>2022-01-16T10:35:51Z</time>
      </trkpt>
      <trkpt lat="45.19431" lon="5.99243">
        <ele>2630.6</ele>
        <time>2022-01-16T10:35:52Z</time>
      </trkpt>
      <trkpt lat="45.19427" lon="5.99244">
        <ele>2628.4</ele>
        <time>2022-01-16T10:35:54Z</time>
      </trkpt>
      <trkpt lat="45.19425" lon="5.99245">
        <ele>2627</ele>
        <time>2022-01-16T10:35:55Z</time>
      </trkpt>
      <trkpt lat="45.19424" lon="5.99252">
        <ele>2626</ele>
        <time>2022-01-16T10:35:58Z</time>
      </trkpt>
      <trkpt lat="45.19423" lon="5.99254">
        <ele>2626</ele>
        <time>2022-01-16T10:35:59Z</time>
      </trkpt>
      <trkpt lat="45.19422" lon="5.99256">
        <ele>2625.6</ele>
        <time>2022-01-16T10:36:00Z</time>
      </trkpt>
      <trkpt lat="45.19421" lon="5.99259">
        <ele>2624.6</ele>
        <time>2022-01-16T10:36:03Z</time>
      </trkpt>
      <trkpt lat="45.19421" lon="5.99259">
        <ele>2624.6</ele>
        <time>2022-01-16T10:36:04Z</time>
      </trkpt>
      <trkpt lat="45.19422" lon="5.99259">
        <ele>2624.6</ele>
        <time>2022-01-16T10:36:05Z</time>
      </trkpt>
      <trkpt lat="45.19424" lon="5.9926">
        <ele>2624.2</ele>
        <time>2022-01-16T10:36:10Z</time>
      </trkpt>
      <trkpt lat="45.19421" lon="5.99272">
        <ele>2622.8</ele>
        <time>2022-01-16T10:36:15Z</time>
      </trkpt>
      <trkpt lat="45.19418" lon="5.99277">
        <ele>2621.2</ele>
        <time>2022-01-16T10:36:17Z</time>
      </trkpt>
      <trkpt lat="45.19415" lon="5.99281">
        <ele>2619.2</ele>
        <time>2022-01-16T10:36:19Z</time>
      </trkpt>
      <trkpt lat="45.19412" lon="5.99282">
        <ele>2619.2</ele>
        <time>2022-01-16T10:36:20Z</time>
      </trkpt>
      <trkpt lat="45.19405" lon="5.99285">
        <ele>2618</ele>
        <time>2022-01-16T10:36:22Z</time>
      </trkpt>
      <trkpt lat="45.19399" lon="5.99287">
        <ele>2616.2</ele>
        <time>2022-01-16T10:36:24Z</time>
      </trkpt>
      <trkpt lat="45.19394" lon="5.99288">
        <ele>2613.8</ele>
        <time>2022-01-16T10:36:26Z</time>
      </trkpt>
      <trkpt lat="45.19392" lon="5.99288">
        <ele>2612.2</ele>
        <time>2022-01-16T10:36:27Z</time>
      </trkpt>
      <trkpt lat="45.19389" lon="5.99283">
        <ele>2610.4</ele>
        <time>2022-01-16T10:36:30Z</time>
      </trkpt>
      <trkpt lat="45.19392" lon="5.99276">
        <ele>2607.6</ele>
        <time>2022-01-16T10:36:32Z</time>
      </trkpt>
      <trkpt lat="45.19393" lon="5.99273">
        <ele>2607</ele>
        <time>2022-01-16T10:36:33Z</time>
      </trkpt>
      <trkpt lat="45.19393" lon="5.99272">
        <ele>2606.8</ele>
        <time>2022-01-16T10:36:34Z</time>
      </trkpt>
      <trkpt lat="45.19391" lon="5.9927">
        <ele>2605.8</ele>
        <time>2022-01-16T10:36:35Z</time>
      </trkpt>
      <trkpt lat="45.19387" lon="5.9927">
        <ele>2604.6</ele>
        <time>2022-01-16T10:36:36Z</time>
      </trkpt>
      <trkpt lat="45.19378" lon="5.9927">
        <ele>2603</ele>
        <time>2022-01-16T10:36:38Z</time>
      </trkpt>
      <trkpt lat="45.19374" lon="5.99269">
        <ele>2602</ele>
        <time>2022-01-16T10:36:39Z</time>
      </trkpt>
      <trkpt lat="45.19371" lon="5.99267">
        <ele>2601.4</ele>
        <time>2022-01-16T10:36:40Z</time>
      </trkpt>
      <trkpt lat="45.19366" lon="5.99261">
        <ele>2600</ele>
        <time>2022-01-16T10:36:42Z</time>
      </trkpt>
      <trkpt lat="45.1936" lon="5.99255">
        <ele>2598.8</ele>
        <time>2022-01-16T10:36:44Z</time>
      </trkpt>
      <trkpt lat="45.19355" lon="5.99252">
        <ele>2597.4</ele>
        <time>2022-01-16T10:36:46Z</time>
      </trkpt>
      <trkpt lat="45.19353" lon="5.99251">
        <ele>2597</ele>
        <time>2022-01-16T10:36:47Z</time>
      </trkpt>
      <trkpt lat="45.19341" lon="5.99245">
        <ele>2596.4</ele>
        <time>2022-01-16T10:36:53Z</time>
      </trkpt>
      <trkpt lat="45.1934" lon="5.99245">
        <ele>2596.2</ele>
        <time>2022-01-16T10:36:54Z</time>
      </trkpt>
      <trkpt lat="45.19339" lon="5.99245">
        <ele>2595.6</ele>
        <time>2022-01-16T10:36:55Z</time>
      </trkpt>
      <trkpt lat="45.19338" lon="5.99248">
        <ele>2595.2</ele>
        <time>2022-01-16T10:36:57Z</time>
      </trkpt>
      <trkpt lat="45.19335" lon="5.99249">
        <ele>2595</ele>
        <time>2022-01-16T10:37:01Z</time>
      </trkpt>
      <trkpt lat="45.19338" lon="5.99246">
        <ele>2595.2</ele>
        <time>2022-01-16T10:37:04Z</time>
      </trkpt>
      <trkpt lat="45.19338" lon="5.99245">
        <ele>2595.4</ele>
        <time>2022-01-16T10:37:09Z</time>
      </trkpt>
      <trkpt lat="45.19339" lon="5.99245">
        <ele>2595.4</ele>
        <time>2022-01-16T10:37:10Z</time>
      </trkpt>
      <trkpt lat="45.19339" lon="5.99246">
        <ele>2595.4</ele>
        <time>2022-01-16T10:37:14Z</time>
      </trkpt>
      <trkpt lat="45.19339" lon="5.99246">
        <ele>2595.4</ele>
        <time>2022-01-16T10:37:15Z</time>
      </trkpt>
      <trkpt lat="45.19339" lon="5.99246">
        <ele>2595.6</ele>
        <time>2022-01-16T10:37:18Z</time>
      </trkpt>
      <trkpt lat="45.19339" lon="5.99246">
        <ele>2595.8</ele>
        <time>2022-01-16T10:37:24Z</time>
      </trkpt>
      <trkpt lat="45.19339" lon="5.99246">
        <ele>2595.8</ele>
        <time>2022-01-16T10:37:26Z</time>
      </trkpt>
      <trkpt lat="45.19339" lon="5.99246">
        <ele>2596.2</ele>
        <time>2022-01-16T10:37:30Z</time>
      </trkpt>
      <trkpt lat="45.19339" lon="5.99246">
        <ele>2596.2</ele>
        <time>2022-01-16T10:37:35Z</time>
      </trkpt>
      <trkpt lat="45.19339" lon="5.99246">
        <ele>2596.2</ele>
        <time>2022-01-16T10:37:36Z</time>
      </trkpt>
      <trkpt lat="45.19339" lon="5.99246">
        <ele>2596.2</ele>
        <time>2022-01-16T10:37:37Z</time>
      </trkpt>
      <trkpt lat="45.19339" lon="5.99246">
        <ele>2596.2</ele>
        <time>2022-01-16T10:37:39Z</time>
      </trkpt>
      <trkpt lat="45.19339" lon="5.99246">
        <ele>2596.2</ele>
        <time>2022-01-16T10:37:42Z</time>
      </trkpt>
      <trkpt lat="45.19339" lon="5.99245">
        <ele>2597.4</ele>
        <time>2022-01-16T10:37:47Z</time>
      </trkpt>
      <trkpt lat="45.19339" lon="5.99245">
        <ele>2598.2</ele>
        <time>2022-01-16T10:37:50Z</time>
      </trkpt>
      <trkpt lat="45.19339" lon="5.99245">
        <ele>2598.6</ele>
        <time>2022-01-16T10:37:52Z</time>
      </trkpt>
      <trkpt lat="45.19341" lon="5.99245">
        <ele>2599.2</ele>
        <time>2022-01-16T10:37:55Z</time>
      </trkpt>
      <trkpt lat="45.19342" lon="5.99245">
        <ele>2599.6</ele>
        <time>2022-01-16T10:37:57Z</time>
      </trkpt>
      <trkpt lat="45.19343" lon="5.99246">
        <ele>2600.6</ele>
        <time>2022-01-16T10:38:00Z</time>
      </trkpt>
      <trkpt lat="45.19343" lon="5.99248">
        <ele>2601.2</ele>
        <time>2022-01-16T10:38:03Z</time>
      </trkpt>
      <trkpt lat="45.19344" lon="5.99249">
        <ele>2601.2</ele>
        <time>2022-01-16T10:38:06Z</time>
      </trkpt>
      <trkpt lat="45.19344" lon="5.99251">
        <ele>2601.4</ele>
        <time>2022-01-16T10:38:09Z</time>
      </trkpt>
      <trkpt lat="45.19345" lon="5.99252">
        <ele>2601.6</ele>
        <time>2022-01-16T10:38:13Z</time>
      </trkpt>
      <trkpt lat="45.19346" lon="5.99255">
        <ele>2602.4</ele>
        <time>2022-01-16T10:38:19Z</time>
      </trkpt>
      <trkpt lat="45.19346" lon="5.99256">
        <ele>2603</ele>
        <time>2022-01-16T10:38:20Z</time>
      </trkpt>
      <trkpt lat="45.19346" lon="5.99258">
        <ele>2604</ele>
        <time>2022-01-16T10:38:26Z</time>
      </trkpt>
      <trkpt lat="45.19346" lon="5.99259">
        <ele>2605.4</ele>
        <time>2022-01-16T10:38:29Z</time>
      </trkpt>
      <trkpt lat="45.19348" lon="5.99262">
        <ele>2605.6</ele>
        <time>2022-01-16T10:38:35Z</time>
      </trkpt>
      <trkpt lat="45.1935" lon="5.99266">
        <ele>2606</ele>
        <time>2022-01-16T10:38:41Z</time>
      </trkpt>
      <trkpt lat="45.1935" lon="5.99267">
        <ele>2606.4</ele>
        <time>2022-01-16T10:38:43Z</time>
      </trkpt>
      <trkpt lat="45.1935" lon="5.99268">
        <ele>2607.6</ele>
        <time>2022-01-16T10:38:48Z</time>
      </trkpt>
      <trkpt lat="45.1935" lon="5.99269">
        <ele>2607.6</ele>
        <time>2022-01-16T10:38:54Z</time>
      </trkpt>
      <trkpt lat="45.19351" lon="5.99269">
        <ele>2607.8</ele>
        <time>2022-01-16T10:38:59Z</time>
      </trkpt>
      <trkpt lat="45.19351" lon="5.99268">
        <ele>2608.4</ele>
        <time>2022-01-16T10:39:05Z</time>
      </trkpt>
      <trkpt lat="45.19351" lon="5.99268">
        <ele>2608.8</ele>
        <time>2022-01-16T10:39:07Z</time>
      </trkpt>
      <trkpt lat="45.19351" lon="5.99268">
        <ele>2609.8</ele>
        <time>2022-01-16T10:39:12Z</time>
      </trkpt>
      <trkpt lat="45.19352" lon="5.99269">
        <ele>2611</ele>
        <time>2022-01-16T10:39:18Z</time>
      </trkpt>
      <trkpt lat="45.19353" lon="5.99269">
        <ele>2611.6</ele>
        <time>2022-01-16T10:39:24Z</time>
      </trkpt>
      <trkpt lat="45.19353" lon="5.9927">
        <ele>2612.2</ele>
        <time>2022-01-16T10:39:25Z</time>
      </trkpt>
      <trkpt lat="45.19353" lon="5.99271">
        <ele>2613.4</ele>
        <time>2022-01-16T10:39:30Z</time>
      </trkpt>
      <trkpt lat="45.19354" lon="5.99273">
        <ele>2614</ele>
        <time>2022-01-16T10:39:35Z</time>
      </trkpt>
      <trkpt lat="45.19354" lon="5.99274">
        <ele>2614.2</ele>
        <time>2022-01-16T10:39:41Z</time>
      </trkpt>
      <trkpt lat="45.19354" lon="5.99275">
        <ele>2614.6</ele>
        <time>2022-01-16T10:39:42Z</time>
      </trkpt>
      <trkpt lat="45.19354" lon="5.99277">
        <ele>2615.6</ele>
        <time>2022-01-16T10:39:48Z</time>
      </trkpt>
      <trkpt lat="45.19354" lon="5.99277">
        <ele>2616.2</ele>
        <time>2022-01-16T10:39:49Z</time>
      </trkpt>
      <trkpt lat="45.1935" lon="5.99278">
        <ele>2617.8</ele>
        <time>2022-01-16T10:39:55Z</time>
      </trkpt>
      <trkpt lat="45.19349" lon="5.99279">
        <ele>2618</ele>
        <time>2022-01-16T10:40:01Z</time>
      </trkpt>
      <trkpt lat="45.19348" lon="5.9928">
        <ele>2618</ele>
        <time>2022-01-16T10:40:07Z</time>
      </trkpt>
      <trkpt lat="45.19347" lon="5.99281">
        <ele>2619.2</ele>
        <time>2022-01-16T10:40:12Z</time>
      </trkpt>
      <trkpt lat="45.19346" lon="5.99282">
        <ele>2620.4</ele>
        <time>2022-01-16T10:40:16Z</time>
      </trkpt>
      <trkpt lat="45.19345" lon="5.99282">
        <ele>2621.2</ele>
        <time>2022-01-16T10:40:22Z</time>
      </trkpt>
      <trkpt lat="45.19345" lon="5.99282">
        <ele>2621.8</ele>
        <time>2022-01-16T10:40:24Z</time>
      </trkpt>
      <trkpt lat="45.19345" lon="5.99283">
        <ele>2621.6</ele>
        <time>2022-01-16T10:40:30Z</time>
      </trkpt>
      <trkpt lat="45.19345" lon="5.99283">
        <ele>2621.6</ele>
        <time>2022-01-16T10:40:34Z</time>
      </trkpt>
      <trkpt lat="45.19345" lon="5.99283">
        <ele>2622.6</ele>
        <time>2022-01-16T10:40:40Z</time>
      </trkpt>
      <trkpt lat="45.19345" lon="5.99283">
        <ele>2622.8</ele>
        <time>2022-01-16T10:40:41Z</time>
      </trkpt>
      <trkpt lat="45.19345" lon="5.99283">
        <ele>2624</ele>
        <time>2022-01-16T10:40:46Z</time>
      </trkpt>
      <trkpt lat="45.19345" lon="5.99283">
        <ele>2625</ele>
        <time>2022-01-16T10:40:52Z</time>
      </trkpt>
      <trkpt lat="45.19345" lon="5.99283">
        <ele>2625.2</ele>
        <time>2022-01-16T10:40:53Z</time>
      </trkpt>
      <trkpt lat="45.19345" lon="5.99283">
        <ele>2625.8</ele>
        <time>2022-01-16T10:40:59Z</time>
      </trkpt>
      <trkpt lat="45.19345" lon="5.99283">
        <ele>2626</ele>
        <time>2022-01-16T10:41:05Z</time>
      </trkpt>
      <trkpt lat="45.19345" lon="5.99283">
        <ele>2626.4</ele>
        <time>2022-01-16T10:41:08Z</time>
      </trkpt>
      <trkpt lat="45.19345" lon="5.99284">
        <ele>2627.4</ele>
        <time>2022-01-16T10:41:14Z</time>
      </trkpt>
      <trkpt lat="45.19345" lon="5.99284">
        <ele>2627.8</ele>
        <time>2022-01-16T10:41:15Z</time>
      </trkpt>
      <trkpt lat="45.19345" lon="5.99284">
        <ele>2628.4</ele>
        <time>2022-01-16T10:41:21Z</time>
      </trkpt>
      <trkpt lat="45.19345" lon="5.99284">
        <ele>2628.8</ele>
        <time>2022-01-16T10:41:27Z</time>
      </trkpt>
      <trkpt lat="45.19345" lon="5.99284">
        <ele>2629.2</ele>
        <time>2022-01-16T10:41:28Z</time>
      </trkpt>
      <trkpt lat="45.19345" lon="5.99284">
        <ele>2630</ele>
        <time>2022-01-16T10:41:34Z</time>
      </trkpt>
      <trkpt lat="45.19345" lon="5.99284">
        <ele>2630</ele>
        <time>2022-01-16T10:41:40Z</time>
      </trkpt>
      <trkpt lat="45.19345" lon="5.99284">
        <ele>2630.2</ele>
        <time>2022-01-16T10:41:41Z</time>
      </trkpt>
      <trkpt lat="45.19345" lon="5.99285">
        <ele>2630.8</ele>
        <time>2022-01-16T10:41:47Z</time>
      </trkpt>
      <trkpt lat="45.19345" lon="5.99285">
        <ele>2631</ele>
        <time>2022-01-16T10:41:50Z</time>
      </trkpt>
      <trkpt lat="45.19345" lon="5.99285">
        <ele>2631.2</ele>
        <time>2022-01-16T10:41:54Z</time>
      </trkpt>
      <trkpt lat="45.19345" lon="5.99285">
        <ele>2632.4</ele>
        <time>2022-01-16T10:41:59Z</time>
      </trkpt>
      <trkpt lat="45.19345" lon="5.99286">
        <ele>2632.6</ele>
        <time>2022-01-16T10:42:05Z</time>
      </trkpt>
      <trkpt lat="45.19345" lon="5.99286">
        <ele>2633.4</ele>
        <time>2022-01-16T10:42:09Z</time>
      </trkpt>
      <trkpt lat="45.19345" lon="5.99286">
        <ele>2634.4</ele>
        <time>2022-01-16T10:42:15Z</time>
      </trkpt>
      <trkpt lat="45.19346" lon="5.99286">
        <ele>2635</ele>
        <time>2022-01-16T10:42:18Z</time>
      </trkpt>
      <trkpt lat="45.19346" lon="5.99286">
        <ele>2635.8</ele>
        <time>2022-01-16T10:42:23Z</time>
      </trkpt>
      <trkpt lat="45.19346" lon="5.99287">
        <ele>2636</ele>
        <time>2022-01-16T10:42:26Z</time>
      </trkpt>
      <trkpt lat="45.19346" lon="5.99287">
        <ele>2636.8</ele>
        <time>2022-01-16T10:42:32Z</time>
      </trkpt>
      <trkpt lat="45.19346" lon="5.99287">
        <ele>2636.8</ele>
        <time>2022-01-16T10:42:38Z</time>
      </trkpt>
      <trkpt lat="45.19346" lon="5.99288">
        <ele>2637</ele>
        <time>2022-01-16T10:42:44Z</time>
      </trkpt>
      <trkpt lat="45.19346" lon="5.99288">
        <ele>2637</ele>
        <time>2022-01-16T10:42:48Z</time>
      </trkpt>
      <trkpt lat="45.19346" lon="5.99288">
        <ele>2638.2</ele>
        <time>2022-01-16T10:42:52Z</time>
      </trkpt>
      <trkpt lat="45.19346" lon="5.99289">
        <ele>2639.6</ele>
        <time>2022-01-16T10:42:58Z</time>
      </trkpt>
      <trkpt lat="45.19346" lon="5.99289">
        <ele>2641.2</ele>
        <time>2022-01-16T10:43:01Z</time>
      </trkpt>
      <trkpt lat="45.19347" lon="5.99289">
        <ele>2642.4</ele>
        <time>2022-01-16T10:43:06Z</time>
      </trkpt>
      <trkpt lat="45.19347" lon="5.99289">
        <ele>2643.4</ele>
        <time>2022-01-16T10:43:10Z</time>
      </trkpt>
      <trkpt lat="45.19347" lon="5.9929">
        <ele>2644.6</ele>
        <time>2022-01-16T10:43:16Z</time>
      </trkpt>
      <trkpt lat="45.19347" lon="5.9929">
        <ele>2645.8</ele>
        <time>2022-01-16T10:43:19Z</time>
      </trkpt>
      <trkpt lat="45.19347" lon="5.9929">
        <ele>2647</ele>
        <time>2022-01-16T10:43:23Z</time>
      </trkpt>
      <trkpt lat="45.19347" lon="5.99291">
        <ele>2648.2</ele>
        <time>2022-01-16T10:43:28Z</time>
      </trkpt>
      <trkpt lat="45.19347" lon="5.99291">
        <ele>2649.4</ele>
        <time>2022-01-16T10:43:31Z</time>
      </trkpt>
      <trkpt lat="45.19347" lon="5.99291">
        <ele>2650.4</ele>
        <time>2022-01-16T10:43:33Z</time>
      </trkpt>
      <trkpt lat="45.19348" lon="5.99292">
        <ele>2651.8</ele>
        <time>2022-01-16T10:43:39Z</time>
      </trkpt>
      <trkpt lat="45.19348" lon="5.99292">
        <ele>2652.4</ele>
        <time>2022-01-16T10:43:45Z</time>
      </trkpt>
      <trkpt lat="45.19348" lon="5.99293">
        <ele>2653</ele>
        <time>2022-01-16T10:43:51Z</time>
      </trkpt>
      <trkpt lat="45.19348" lon="5.99294">
        <ele>2653.4</ele>
        <time>2022-01-16T10:43:57Z</time>
      </trkpt>
      <trkpt lat="45.19348" lon="5.99294">
        <ele>2653.6</ele>
        <time>2022-01-16T10:43:59Z</time>
      </trkpt>
      <trkpt lat="45.19348" lon="5.99294">
        <ele>2653.4</ele>
        <time>2022-01-16T10:44:05Z</time>
      </trkpt>
      <trkpt lat="45.19349" lon="5.99295">
        <ele>2653.2</ele>
        <time>2022-01-16T10:44:08Z</time>
      </trkpt>
      <trkpt lat="45.19349" lon="5.99295">
        <ele>2653</ele>
        <time>2022-01-16T10:44:11Z</time>
      </trkpt>
      <trkpt lat="45.19349" lon="5.99295">
        <ele>2652.6</ele>
        <time>2022-01-16T10:44:17Z</time>
      </trkpt>
      <trkpt lat="45.19349" lon="5.99295">
        <ele>2652.6</ele>
        <time>2022-01-16T10:44:19Z</time>
      </trkpt>
      <trkpt lat="45.19349" lon="5.99296">
        <ele>2652.6</ele>
        <time>2022-01-16T10:44:20Z</time>
      </trkpt>
      <trkpt lat="45.19349" lon="5.99296">
        <ele>2652.8</ele>
        <time>2022-01-16T10:44:25Z</time>
      </trkpt>
      <trkpt lat="45.19349" lon="5.99296">
        <ele>2652.8</ele>
        <time>2022-01-16T10:44:26Z</time>
      </trkpt>
      <trkpt lat="45.19349" lon="5.99296">
        <ele>2652.6</ele>
        <time>2022-01-16T10:44:27Z</time>
      </trkpt>
      <trkpt lat="45.19349" lon="5.99296">
        <ele>2652.8</ele>
        <time>2022-01-16T10:44:30Z</time>
      </trkpt>
      <trkpt lat="45.19349" lon="5.99297">
        <ele>2652.6</ele>
        <time>2022-01-16T10:44:36Z</time>
      </trkpt>
      <trkpt lat="45.19349" lon="5.99297">
        <ele>2652.8</ele>
        <time>2022-01-16T10:44:38Z</time>
      </trkpt>
      <trkpt lat="45.1935" lon="5.99297">
        <ele>2652.8</ele>
        <time>2022-01-16T10:44:44Z</time>
      </trkpt>
      <trkpt lat="45.1935" lon="5.99298">
        <ele>2652.8</ele>
        <time>2022-01-16T10:44:50Z</time>
      </trkpt>
      <trkpt lat="45.1935" lon="5.99298">
        <ele>2653.2</ele>
        <time>2022-01-16T10:44:56Z</time>
      </trkpt>
      <trkpt lat="45.1935" lon="5.99299">
        <ele>2652.8</ele>
        <time>2022-01-16T10:45:02Z</time>
      </trkpt>
      <trkpt lat="45.1935" lon="5.99299">
        <ele>2652.4</ele>
        <time>2022-01-16T10:45:08Z</time>
      </trkpt>
      <trkpt lat="45.1935" lon="5.99299">
        <ele>2652.6</ele>
        <time>2022-01-16T10:45:10Z</time>
      </trkpt>
      <trkpt lat="45.1935" lon="5.99299">
        <ele>2652.6</ele>
        <time>2022-01-16T10:45:11Z</time>
      </trkpt>
      <trkpt lat="45.1935" lon="5.993">
        <ele>2652.6</ele>
        <time>2022-01-16T10:45:13Z</time>
      </trkpt>
      <trkpt lat="45.1935" lon="5.993">
        <ele>2652.6</ele>
        <time>2022-01-16T10:45:15Z</time>
      </trkpt>
      <trkpt lat="45.1935" lon="5.993">
        <ele>2652.6</ele>
        <time>2022-01-16T10:45:17Z</time>
      </trkpt>
      <trkpt lat="45.1935" lon="5.993">
        <ele>2652.6</ele>
        <time>2022-01-16T10:45:18Z</time>
      </trkpt>
      <trkpt lat="45.1935" lon="5.993">
        <ele>2652.6</ele>
        <time>2022-01-16T10:45:22Z</time>
      </trkpt>
      <trkpt lat="45.1935" lon="5.993">
        <ele>2652.6</ele>
        <time>2022-01-16T10:45:23Z</time>
      </trkpt>
      <trkpt lat="45.1935" lon="5.99301">
        <ele>2652.6</ele>
        <time>2022-01-16T10:45:29Z</time>
      </trkpt>
      <trkpt lat="45.1935" lon="5.99301">
        <ele>2652.6</ele>
        <time>2022-01-16T10:45:32Z</time>
      </trkpt>
      <trkpt lat="45.1935" lon="5.99301">
        <ele>2652.6</ele>
        <time>2022-01-16T10:45:33Z</time>
      </trkpt>
      <trkpt lat="45.19352" lon="5.99323">
        <ele>2652.6</ele>
        <time>2022-01-16T10:45:37Z</time>
      </trkpt>
      <trkpt lat="45.19351" lon="5.99331">
        <ele>2652.6</ele>
        <time>2022-01-16T10:45:38Z</time>
      </trkpt>
      <trkpt lat="45.19351" lon="5.99335">
        <ele>2652.6</ele>
        <time>2022-01-16T10:45:39Z</time>
      </trkpt>
      <trkpt lat="45.1935" lon="5.99339">
        <ele>2652.6</ele>
        <time>2022-01-16T10:45:41Z</time>
      </trkpt>
      <trkpt lat="45.1935" lon="5.99343">
        <ele>2652.4</ele>
        <time>2022-01-16T10:45:42Z</time>
      </trkpt>
      <trkpt lat="45.1935" lon="5.99348">
        <ele>2652</ele>
        <time>2022-01-16T10:45:43Z</time>
      </trkpt>
      <trkpt lat="45.1935" lon="5.99348">
        <ele>2652</ele>
        <time>2022-01-16T10:45:44Z</time>
      </trkpt>
      <trkpt lat="45.1935" lon="5.99353">
        <ele>2650.8</ele>
        <time>2022-01-16T10:45:48Z</time>
      </trkpt>
      <trkpt lat="45.1935" lon="5.99357">
        <ele>2649</ele>
        <time>2022-01-16T10:45:50Z</time>
      </trkpt>
      <trkpt lat="45.19352" lon="5.99364">
        <ele>2648.2</ele>
        <time>2022-01-16T10:45:53Z</time>
      </trkpt>
      <trkpt lat="45.19351" lon="5.99367">
        <ele>2648</ele>
        <time>2022-01-16T10:45:55Z</time>
      </trkpt>
      <trkpt lat="45.1935" lon="5.99366">
        <ele>2647.8</ele>
        <time>2022-01-16T10:45:56Z</time>
      </trkpt>
      <trkpt lat="45.19349" lon="5.99365">
        <ele>2644.6</ele>
        <time>2022-01-16T10:45:57Z</time>
      </trkpt>
      <trkpt lat="45.19348" lon="5.99365">
        <ele>2644.4</ele>
        <time>2022-01-16T10:45:58Z</time>
      </trkpt>
      <trkpt lat="45.19348" lon="5.99368">
        <ele>2643.8</ele>
        <time>2022-01-16T10:46:00Z</time>
      </trkpt>
      <trkpt lat="45.19349" lon="5.9937">
        <ele>2643.6</ele>
        <time>2022-01-16T10:46:01Z</time>
      </trkpt>
      <trkpt lat="45.19351" lon="5.99372">
        <ele>2642.2</ele>
        <time>2022-01-16T10:46:02Z</time>
      </trkpt>
      <trkpt lat="45.19352" lon="5.99373">
        <ele>2641.6</ele>
        <time>2022-01-16T10:46:03Z</time>
      </trkpt>
      <trkpt lat="45.19353" lon="5.99374">
        <ele>2641.4</ele>
        <time>2022-01-16T10:46:04Z</time>
      </trkpt>
      <trkpt lat="45.19354" lon="5.99376">
        <ele>2641.4</ele>
        <time>2022-01-16T10:46:05Z</time>
      </trkpt>
      <trkpt lat="45.19353" lon="5.99377">
        <ele>2641</ele>
        <time>2022-01-16T10:46:06Z</time>
      </trkpt>
      <trkpt lat="45.19351" lon="5.99378">
        <ele>2640.8</ele>
        <time>2022-01-16T10:46:07Z</time>
      </trkpt>
      <trkpt lat="45.1935" lon="5.99377">
        <ele>2640.6</ele>
        <time>2022-01-16T10:46:08Z</time>
      </trkpt>
      <trkpt lat="45.19348" lon="5.99377">
        <ele>2638.2</ele>
        <time>2022-01-16T10:46:09Z</time>
      </trkpt>
      <trkpt lat="45.19345" lon="5.99376">
        <ele>2637</ele>
        <time>2022-01-16T10:46:12Z</time>
      </trkpt>
      <trkpt lat="45.19344" lon="5.99376">
        <ele>2636.4</ele>
        <time>2022-01-16T10:46:14Z</time>
      </trkpt>
      <trkpt lat="45.19347" lon="5.99382">
        <ele>2634.6</ele>
        <time>2022-01-16T10:46:16Z</time>
      </trkpt>
      <trkpt lat="45.19347" lon="5.99384">
        <ele>2632.8</ele>
        <time>2022-01-16T10:46:17Z</time>
      </trkpt>
      <trkpt lat="45.19342" lon="5.99385">
        <ele>2632.4</ele>
        <time>2022-01-16T10:46:19Z</time>
      </trkpt>
      <trkpt lat="45.1934" lon="5.99385">
        <ele>2629</ele>
        <time>2022-01-16T10:46:20Z</time>
      </trkpt>
      <trkpt lat="45.19335" lon="5.99384">
        <ele>2628.4</ele>
        <time>2022-01-16T10:46:23Z</time>
      </trkpt>
      <trkpt lat="45.19335" lon="5.99384">
        <ele>2628.2</ele>
        <time>2022-01-16T10:46:24Z</time>
      </trkpt>
      <trkpt lat="45.19337" lon="5.99384">
        <ele>2628</ele>
        <time>2022-01-16T10:46:27Z</time>
      </trkpt>
      <trkpt lat="45.19337" lon="5.99384">
        <ele>2628</ele>
        <time>2022-01-16T10:46:28Z</time>
      </trkpt>
      <trkpt lat="45.19335" lon="5.99384">
        <ele>2627.8</ele>
        <time>2022-01-16T10:46:29Z</time>
      </trkpt>
      <trkpt lat="45.19333" lon="5.99385">
        <ele>2626.8</ele>
        <time>2022-01-16T10:46:31Z</time>
      </trkpt>
      <trkpt lat="45.19331" lon="5.99386">
        <ele>2625.4</ele>
        <time>2022-01-16T10:46:33Z</time>
      </trkpt>
      <trkpt lat="45.19329" lon="5.99387">
        <ele>2624.2</ele>
        <time>2022-01-16T10:46:35Z</time>
      </trkpt>
      <trkpt lat="45.1933" lon="5.99387">
        <ele>2623.8</ele>
        <time>2022-01-16T10:46:36Z</time>
      </trkpt>
      <trkpt lat="45.19333" lon="5.9939">
        <ele>2620</ele>
        <time>2022-01-16T10:46:38Z</time>
      </trkpt>
      <trkpt lat="45.19335" lon="5.99395">
        <ele>2619.2</ele>
        <time>2022-01-16T10:46:40Z</time>
      </trkpt>
      <trkpt lat="45.19334" lon="5.99397">
        <ele>2618</ele>
        <time>2022-01-16T10:46:41Z</time>
      </trkpt>
      <trkpt lat="45.19332" lon="5.99398">
        <ele>2616.8</ele>
        <time>2022-01-16T10:46:42Z</time>
      </trkpt>
      <trkpt lat="45.1933" lon="5.99398">
        <ele>2614.4</ele>
        <time>2022-01-16T10:46:43Z</time>
      </trkpt>
      <trkpt lat="45.19328" lon="5.994">
        <ele>2613.2</ele>
        <time>2022-01-16T10:46:45Z</time>
      </trkpt>
      <trkpt lat="45.19327" lon="5.994">
        <ele>2612.8</ele>
        <time>2022-01-16T10:46:46Z</time>
      </trkpt>
      <trkpt lat="45.19327" lon="5.99401">
        <ele>2612.6</ele>
        <time>2022-01-16T10:46:48Z</time>
      </trkpt>
      <trkpt lat="45.19327" lon="5.99403">
        <ele>2612</ele>
        <time>2022-01-16T10:46:50Z</time>
      </trkpt>
      <trkpt lat="45.19329" lon="5.99404">
        <ele>2611.6</ele>
        <time>2022-01-16T10:46:51Z</time>
      </trkpt>
      <trkpt lat="45.1933" lon="5.99404">
        <ele>2609.4</ele>
        <time>2022-01-16T10:46:52Z</time>
      </trkpt>
      <trkpt lat="45.19331" lon="5.99404">
        <ele>2609</ele>
        <time>2022-01-16T10:46:53Z</time>
      </trkpt>
      <trkpt lat="45.19333" lon="5.99408">
        <ele>2608</ele>
        <time>2022-01-16T10:46:55Z</time>
      </trkpt>
      <trkpt lat="45.19333" lon="5.99413">
        <ele>2607.6</ele>
        <time>2022-01-16T10:46:56Z</time>
      </trkpt>
      <trkpt lat="45.19332" lon="5.99416">
        <ele>2607.4</ele>
        <time>2022-01-16T10:46:57Z</time>
      </trkpt>
      <trkpt lat="45.1933" lon="5.99417">
        <ele>2606.6</ele>
        <time>2022-01-16T10:46:58Z</time>
      </trkpt>
      <trkpt lat="45.19328" lon="5.99418">
        <ele>2604.4</ele>
        <time>2022-01-16T10:46:59Z</time>
      </trkpt>
      <trkpt lat="45.19325" lon="5.9942">
        <ele>2603.4</ele>
        <time>2022-01-16T10:47:01Z</time>
      </trkpt>
      <trkpt lat="45.19324" lon="5.99421">
        <ele>2602.4</ele>
        <time>2022-01-16T10:47:02Z</time>
      </trkpt>
      <trkpt lat="45.19323" lon="5.99422">
        <ele>2602.2</ele>
        <time>2022-01-16T10:47:03Z</time>
      </trkpt>
      <trkpt lat="45.19324" lon="5.99423">
        <ele>2601.4</ele>
        <time>2022-01-16T10:47:04Z</time>
      </trkpt>
      <trkpt lat="45.19325" lon="5.99424">
        <ele>2600.8</ele>
        <time>2022-01-16T10:47:05Z</time>
      </trkpt>
      <trkpt lat="45.19326" lon="5.99425">
        <ele>2599.2</ele>
        <time>2022-01-16T10:47:06Z</time>
      </trkpt>
      <trkpt lat="45.19329" lon="5.99427">
        <ele>2597.8</ele>
        <time>2022-01-16T10:47:08Z</time>
      </trkpt>
      <trkpt lat="45.1933" lon="5.9943">
        <ele>2597</ele>
        <time>2022-01-16T10:47:09Z</time>
      </trkpt>
      <trkpt lat="45.1933" lon="5.99433">
        <ele>2597</ele>
        <time>2022-01-16T10:47:10Z</time>
      </trkpt>
      <trkpt lat="45.19328" lon="5.99435">
        <ele>2596.2</ele>
        <time>2022-01-16T10:47:11Z</time>
      </trkpt>
      <trkpt lat="45.19327" lon="5.99436">
        <ele>2593.2</ele>
        <time>2022-01-16T10:47:12Z</time>
      </trkpt>
      <trkpt lat="45.19323" lon="5.99438">
        <ele>2591.6</ele>
        <time>2022-01-16T10:47:15Z</time>
      </trkpt>
      <trkpt lat="45.19324" lon="5.99441">
        <ele>2588.8</ele>
        <time>2022-01-16T10:47:17Z</time>
      </trkpt>
      <trkpt lat="45.19323" lon="5.99445">
        <ele>2588.8</ele>
        <time>2022-01-16T10:47:18Z</time>
      </trkpt>
      <trkpt lat="45.19321" lon="5.99448">
        <ele>2587.4</ele>
        <time>2022-01-16T10:47:19Z</time>
      </trkpt>
      <trkpt lat="45.19319" lon="5.99449">
        <ele>2586.4</ele>
        <time>2022-01-16T10:47:20Z</time>
      </trkpt>
      <trkpt lat="45.19317" lon="5.9945">
        <ele>2583.2</ele>
        <time>2022-01-16T10:47:21Z</time>
      </trkpt>
      <trkpt lat="45.19317" lon="5.99453">
        <ele>2581.4</ele>
        <time>2022-01-16T10:47:23Z</time>
      </trkpt>
      <trkpt lat="45.19319" lon="5.99456">
        <ele>2580.6</ele>
        <time>2022-01-16T10:47:24Z</time>
      </trkpt>
      <trkpt lat="45.1932" lon="5.9946">
        <ele>2578.4</ele>
        <time>2022-01-16T10:47:25Z</time>
      </trkpt>
      <trkpt lat="45.19319" lon="5.99464">
        <ele>2577</ele>
        <time>2022-01-16T10:47:26Z</time>
      </trkpt>
      <trkpt lat="45.19319" lon="5.9947">
        <ele>2575.2</ele>
        <time>2022-01-16T10:47:27Z</time>
      </trkpt>
      <trkpt lat="45.19318" lon="5.99475">
        <ele>2573.4</ele>
        <time>2022-01-16T10:47:28Z</time>
      </trkpt>
      <trkpt lat="45.19314" lon="5.99478">
        <ele>2569.4</ele>
        <time>2022-01-16T10:47:29Z</time>
      </trkpt>
      <trkpt lat="45.19309" lon="5.9948">
        <ele>2565.4</ele>
        <time>2022-01-16T10:47:30Z</time>
      </trkpt>
      <trkpt lat="45.193" lon="5.99479">
        <ele>2563</ele>
        <time>2022-01-16T10:47:32Z</time>
      </trkpt>
      <trkpt lat="45.19292" lon="5.99479">
        <ele>2560.8</ele>
        <time>2022-01-16T10:47:34Z</time>
      </trkpt>
      <trkpt lat="45.19289" lon="5.99477">
        <ele>2560.2</ele>
        <time>2022-01-16T10:47:35Z</time>
      </trkpt>
      <trkpt lat="45.19285" lon="5.99476">
        <ele>2558.4</ele>
        <time>2022-01-16T10:47:36Z</time>
      </trkpt>
      <trkpt lat="45.19279" lon="5.99475">
        <ele>2557</ele>
        <time>2022-01-16T10:47:38Z</time>
      </trkpt>
      <trkpt lat="45.19265" lon="5.99482">
        <ele>2553.6</ele>
        <time>2022-01-16T10:47:42Z</time>
      </trkpt>
      <trkpt lat="45.19258" lon="5.99486">
        <ele>2552.4</ele>
        <time>2022-01-16T10:47:44Z</time>
      </trkpt>
      <trkpt lat="45.19248" lon="5.99494">
        <ele>2549.8</ele>
        <time>2022-01-16T10:47:47Z</time>
      </trkpt>
      <trkpt lat="45.19251" lon="5.995">
        <ele>2545</ele>
        <time>2022-01-16T10:47:49Z</time>
      </trkpt>
      <trkpt lat="45.19251" lon="5.99505">
        <ele>2543.2</ele>
        <time>2022-01-16T10:47:50Z</time>
      </trkpt>
      <trkpt lat="45.19251" lon="5.9951">
        <ele>2540.6</ele>
        <time>2022-01-16T10:47:51Z</time>
      </trkpt>
      <trkpt lat="45.19251" lon="5.99514">
        <ele>2539</ele>
        <time>2022-01-16T10:47:52Z</time>
      </trkpt>
      <trkpt lat="45.19255" lon="5.99522">
        <ele>2533.8</ele>
        <time>2022-01-16T10:47:54Z</time>
      </trkpt>
      <trkpt lat="45.19256" lon="5.99528">
        <ele>2532.8</ele>
        <time>2022-01-16T10:47:55Z</time>
      </trkpt>
      <trkpt lat="45.19253" lon="5.99532">
        <ele>2530</ele>
        <time>2022-01-16T10:47:56Z</time>
      </trkpt>
      <trkpt lat="45.1925" lon="5.99537">
        <ele>2527</ele>
        <time>2022-01-16T10:47:57Z</time>
      </trkpt>
      <trkpt lat="45.1925" lon="5.99541">
        <ele>2526.4</ele>
        <time>2022-01-16T10:47:58Z</time>
      </trkpt>
      <trkpt lat="45.19248" lon="5.99551">
        <ele>2522.2</ele>
        <time>2022-01-16T10:48:00Z</time>
      </trkpt>
      <trkpt lat="45.19249" lon="5.99556">
        <ele>2520.4</ele>
        <time>2022-01-16T10:48:01Z</time>
      </trkpt>
      <trkpt lat="45.19248" lon="5.99562">
        <ele>2517.6</ele>
        <time>2022-01-16T10:48:02Z</time>
      </trkpt>
      <trkpt lat="45.19247" lon="5.99567">
        <ele>2515.6</ele>
        <time>2022-01-16T10:48:03Z</time>
      </trkpt>
      <trkpt lat="45.19248" lon="5.99571">
        <ele>2514.2</ele>
        <time>2022-01-16T10:48:04Z</time>
      </trkpt>
      <trkpt lat="45.19252" lon="5.99575">
        <ele>2511</ele>
        <time>2022-01-16T10:48:05Z</time>
      </trkpt>
      <trkpt lat="45.19258" lon="5.99578">
        <ele>2509</ele>
        <time>2022-01-16T10:48:06Z</time>
      </trkpt>
      <trkpt lat="45.19267" lon="5.99583">
        <ele>2506.8</ele>
        <time>2022-01-16T10:48:08Z</time>
      </trkpt>
      <trkpt lat="45.1927" lon="5.99588">
        <ele>2505.6</ele>
        <time>2022-01-16T10:48:09Z</time>
      </trkpt>
      <trkpt lat="45.1927" lon="5.99596">
        <ele>2500.8</ele>
        <time>2022-01-16T10:48:10Z</time>
      </trkpt>
      <trkpt lat="45.1927" lon="5.99609">
        <ele>2498</ele>
        <time>2022-01-16T10:48:12Z</time>
      </trkpt>
      <trkpt lat="45.19265" lon="5.99615">
        <ele>2493.6</ele>
        <time>2022-01-16T10:48:13Z</time>
      </trkpt>
      <trkpt lat="45.19261" lon="5.99618">
        <ele>2491.4</ele>
        <time>2022-01-16T10:48:14Z</time>
      </trkpt>
      <trkpt lat="45.19256" lon="5.99619">
        <ele>2489</ele>
        <time>2022-01-16T10:48:15Z</time>
      </trkpt>
      <trkpt lat="45.19252" lon="5.99624">
        <ele>2486.8</ele>
        <time>2022-01-16T10:48:16Z</time>
      </trkpt>
      <trkpt lat="45.19252" lon="5.99628">
        <ele>2485.8</ele>
        <time>2022-01-16T10:48:17Z</time>
      </trkpt>
      <trkpt lat="45.19254" lon="5.99635">
        <ele>2482.2</ele>
        <time>2022-01-16T10:48:18Z</time>
      </trkpt>
      <trkpt lat="45.19255" lon="5.99643">
        <ele>2479.6</ele>
        <time>2022-01-16T10:48:19Z</time>
      </trkpt>
      <trkpt lat="45.19254" lon="5.99648">
        <ele>2478.8</ele>
        <time>2022-01-16T10:48:20Z</time>
      </trkpt>
      <trkpt lat="45.19252" lon="5.99653">
        <ele>2478.2</ele>
        <time>2022-01-16T10:48:21Z</time>
      </trkpt>
      <trkpt lat="45.19247" lon="5.99655">
        <ele>2474</ele>
        <time>2022-01-16T10:48:22Z</time>
      </trkpt>
      <trkpt lat="45.19238" lon="5.99663">
        <ele>2473.6</ele>
        <time>2022-01-16T10:48:24Z</time>
      </trkpt>
      <trkpt lat="45.19231" lon="5.99668">
        <ele>2469.2</ele>
        <time>2022-01-16T10:48:25Z</time>
      </trkpt>
      <trkpt lat="45.19216" lon="5.99686">
        <ele>2467.6</ele>
        <time>2022-01-16T10:48:27Z</time>
      </trkpt>
      <trkpt lat="45.19211" lon="5.99696">
        <ele>2465.8</ele>
        <time>2022-01-16T10:48:28Z</time>
      </trkpt>
      <trkpt lat="45.19207" lon="5.99704">
        <ele>2463</ele>
        <time>2022-01-16T10:48:29Z</time>
      </trkpt>
      <trkpt lat="45.19204" lon="5.99708">
        <ele>2461</ele>
        <time>2022-01-16T10:48:30Z</time>
      </trkpt>
      <trkpt lat="45.192" lon="5.99712">
        <ele>2460.2</ele>
        <time>2022-01-16T10:48:31Z</time>
      </trkpt>
      <trkpt lat="45.19197" lon="5.99715">
        <ele>2459.8</ele>
        <time>2022-01-16T10:48:32Z</time>
      </trkpt>
      <trkpt lat="45.19194" lon="5.99716">
        <ele>2459.8</ele>
        <time>2022-01-16T10:48:33Z</time>
      </trkpt>
      <trkpt lat="45.1919" lon="5.99716">
        <ele>2459.8</ele>
        <time>2022-01-16T10:48:35Z</time>
      </trkpt>
      <trkpt lat="45.19186" lon="5.99715">
        <ele>2459.2</ele>
        <time>2022-01-16T10:48:37Z</time>
      </trkpt>
      <trkpt lat="45.19185" lon="5.99714">
        <ele>2459.2</ele>
        <time>2022-01-16T10:48:38Z</time>
      </trkpt>
      <trkpt lat="45.19175" lon="5.99722">
        <ele>2459</ele>
        <time>2022-01-16T10:48:44Z</time>
      </trkpt>
      <trkpt lat="45.19173" lon="5.99732">
        <ele>2457.6</ele>
        <time>2022-01-16T10:48:46Z</time>
      </trkpt>
      <trkpt lat="45.19172" lon="5.99747">
        <ele>2455.8</ele>
        <time>2022-01-16T10:48:48Z</time>
      </trkpt>
      <trkpt lat="45.19171" lon="5.99753">
        <ele>2454</ele>
        <time>2022-01-16T10:48:49Z</time>
      </trkpt>
      <trkpt lat="45.19167" lon="5.99769">
        <ele>2453</ele>
        <time>2022-01-16T10:48:52Z</time>
      </trkpt>
      <trkpt lat="45.19159" lon="5.99769">
        <ele>2452.4</ele>
        <time>2022-01-16T10:48:54Z</time>
      </trkpt>
      <trkpt lat="45.19155" lon="5.99765">
        <ele>2450.8</ele>
        <time>2022-01-16T10:48:55Z</time>
      </trkpt>
      <trkpt lat="45.19151" lon="5.99761">
        <ele>2450.2</ele>
        <time>2022-01-16T10:48:56Z</time>
      </trkpt>
      <trkpt lat="45.19148" lon="5.99758">
        <ele>2449.6</ele>
        <time>2022-01-16T10:48:57Z</time>
      </trkpt>
      <trkpt lat="45.19145" lon="5.99754">
        <ele>2449.4</ele>
        <time>2022-01-16T10:48:58Z</time>
      </trkpt>
      <trkpt lat="45.19144" lon="5.99751">
        <ele>2448.6</ele>
        <time>2022-01-16T10:48:59Z</time>
      </trkpt>
      <trkpt lat="45.19143" lon="5.99749">
        <ele>2446.2</ele>
        <time>2022-01-16T10:49:00Z</time>
      </trkpt>
      <trkpt lat="45.19144" lon="5.99748">
        <ele>2446</ele>
        <time>2022-01-16T10:49:01Z</time>
      </trkpt>
      <trkpt lat="45.19144" lon="5.99747">
        <ele>2445.8</ele>
        <time>2022-01-16T10:49:02Z</time>
      </trkpt>
      <trkpt lat="45.19144" lon="5.99743">
        <ele>2446</ele>
        <time>2022-01-16T10:49:06Z</time>
      </trkpt>
      <trkpt lat="45.19143" lon="5.99736">
        <ele>2445.8</ele>
        <time>2022-01-16T10:49:08Z</time>
      </trkpt>
      <trkpt lat="45.19143" lon="5.9973">
        <ele>2442</ele>
        <time>2022-01-16T10:49:09Z</time>
      </trkpt>
      <trkpt lat="45.19138" lon="5.99715">
        <ele>2441.6</ele>
        <time>2022-01-16T10:49:11Z</time>
      </trkpt>
      <trkpt lat="45.19136" lon="5.99711">
        <ele>2441.4</ele>
        <time>2022-01-16T10:49:12Z</time>
      </trkpt>
      <trkpt lat="45.19132" lon="5.99708">
        <ele>2440.4</ele>
        <time>2022-01-16T10:49:13Z</time>
      </trkpt>
      <trkpt lat="45.19116" lon="5.99694">
        <ele>2440</ele>
        <time>2022-01-16T10:49:17Z</time>
      </trkpt>
      <trkpt lat="45.19111" lon="5.9969">
        <ele>2438.6</ele>
        <time>2022-01-16T10:49:18Z</time>
      </trkpt>
      <trkpt lat="45.19105" lon="5.99685">
        <ele>2438</ele>
        <time>2022-01-16T10:49:19Z</time>
      </trkpt>
      <trkpt lat="45.19098" lon="5.9968">
        <ele>2436.2</ele>
        <time>2022-01-16T10:49:20Z</time>
      </trkpt>
      <trkpt lat="45.19092" lon="5.99675">
        <ele>2434.6</ele>
        <time>2022-01-16T10:49:21Z</time>
      </trkpt>
      <trkpt lat="45.19082" lon="5.99666">
        <ele>2433.8</ele>
        <time>2022-01-16T10:49:23Z</time>
      </trkpt>
      <trkpt lat="45.19077" lon="5.99662">
        <ele>2433</ele>
        <time>2022-01-16T10:49:24Z</time>
      </trkpt>
      <trkpt lat="45.19068" lon="5.99655">
        <ele>2430.4</ele>
        <time>2022-01-16T10:49:26Z</time>
      </trkpt>
      <trkpt lat="45.19065" lon="5.99651">
        <ele>2428.2</ele>
        <time>2022-01-16T10:49:27Z</time>
      </trkpt>
      <trkpt lat="45.19062" lon="5.99647">
        <ele>2427.6</ele>
        <time>2022-01-16T10:49:28Z</time>
      </trkpt>
      <trkpt lat="45.19059" lon="5.99643">
        <ele>2427</ele>
        <time>2022-01-16T10:49:29Z</time>
      </trkpt>
      <trkpt lat="45.19056" lon="5.99638">
        <ele>2426.6</ele>
        <time>2022-01-16T10:49:30Z</time>
      </trkpt>
      <trkpt lat="45.19051" lon="5.99627">
        <ele>2425.2</ele>
        <time>2022-01-16T10:49:32Z</time>
      </trkpt>
      <trkpt lat="45.19047" lon="5.99619">
        <ele>2423.8</ele>
        <time>2022-01-16T10:49:33Z</time>
      </trkpt>
      <trkpt lat="45.19043" lon="5.99612">
        <ele>2423</ele>
        <time>2022-01-16T10:49:34Z</time>
      </trkpt>
      <trkpt lat="45.19038" lon="5.99605">
        <ele>2422.2</ele>
        <time>2022-01-16T10:49:35Z</time>
      </trkpt>
      <trkpt lat="45.1903" lon="5.99591">
        <ele>2422.2</ele>
        <time>2022-01-16T10:49:37Z</time>
      </trkpt>
      <trkpt lat="45.19027" lon="5.99583">
        <ele>2415.2</ele>
        <time>2022-01-16T10:49:38Z</time>
      </trkpt>
      <trkpt lat="45.1902" lon="5.99572">
        <ele>2413.2</ele>
        <time>2022-01-16T10:49:40Z</time>
      </trkpt>
      <trkpt lat="45.19013" lon="5.99564">
        <ele>2412.6</ele>
        <time>2022-01-16T10:49:42Z</time>
      </trkpt>
      <trkpt lat="45.19009" lon="5.99561">
        <ele>2412</ele>
        <time>2022-01-16T10:49:43Z</time>
      </trkpt>
      <trkpt lat="45.19006" lon="5.9956">
        <ele>2411.8</ele>
        <time>2022-01-16T10:49:44Z</time>
      </trkpt>
      <trkpt lat="45.19002" lon="5.99559">
        <ele>2411</ele>
        <time>2022-01-16T10:49:46Z</time>
      </trkpt>
      <trkpt lat="45.19" lon="5.99559">
        <ele>2410.6</ele>
        <time>2022-01-16T10:49:50Z</time>
      </trkpt>
      <trkpt lat="45.18999" lon="5.99558">
        <ele>2410.6</ele>
        <time>2022-01-16T10:49:54Z</time>
      </trkpt>
      <trkpt lat="45.18999" lon="5.99559">
        <ele>2410.6</ele>
        <time>2022-01-16T10:49:55Z</time>
      </trkpt>
      <trkpt lat="45.18999" lon="5.99559">
        <ele>2410.6</ele>
        <time>2022-01-16T10:49:57Z</time>
      </trkpt>
      <trkpt lat="45.19001" lon="5.99562">
        <ele>2410.4</ele>
        <time>2022-01-16T10:50:00Z</time>
      </trkpt>
      <trkpt lat="45.19005" lon="5.99569">
        <ele>2409.2</ele>
        <time>2022-01-16T10:50:02Z</time>
      </trkpt>
      <trkpt lat="45.19008" lon="5.99575">
        <ele>2407.8</ele>
        <time>2022-01-16T10:50:03Z</time>
      </trkpt>
      <trkpt lat="45.1901" lon="5.99582">
        <ele>2406.2</ele>
        <time>2022-01-16T10:50:04Z</time>
      </trkpt>
      <trkpt lat="45.19012" lon="5.99588">
        <ele>2405.8</ele>
        <time>2022-01-16T10:50:05Z</time>
      </trkpt>
      <trkpt lat="45.19014" lon="5.99606">
        <ele>2405</ele>
        <time>2022-01-16T10:50:07Z</time>
      </trkpt>
      <trkpt lat="45.19014" lon="5.99617">
        <ele>2404.4</ele>
        <time>2022-01-16T10:50:09Z</time>
      </trkpt>
      <trkpt lat="45.19013" lon="5.99623">
        <ele>2402.6</ele>
        <time>2022-01-16T10:50:10Z</time>
      </trkpt>
      <trkpt lat="45.1901" lon="5.9963">
        <ele>2402.6</ele>
        <time>2022-01-16T10:50:12Z</time>
      </trkpt>
      <trkpt lat="45.19009" lon="5.99632">
        <ele>2402.6</ele>
        <time>2022-01-16T10:50:13Z</time>
      </trkpt>
      <trkpt lat="45.19009" lon="5.99637">
        <ele>2402.2</ele>
        <time>2022-01-16T10:50:15Z</time>
      </trkpt>
      <trkpt lat="45.1901" lon="5.99649">
        <ele>2400.8</ele>
        <time>2022-01-16T10:50:17Z</time>
      </trkpt>
      <trkpt lat="45.19011" lon="5.99655">
        <ele>2399.6</ele>
        <time>2022-01-16T10:50:18Z</time>
      </trkpt>
      <trkpt lat="45.19012" lon="5.99661">
        <ele>2397.6</ele>
        <time>2022-01-16T10:50:19Z</time>
      </trkpt>
      <trkpt lat="45.19014" lon="5.99675">
        <ele>2397</ele>
        <time>2022-01-16T10:50:21Z</time>
      </trkpt>
      <trkpt lat="45.19012" lon="5.99679">
        <ele>2395.4</ele>
        <time>2022-01-16T10:50:22Z</time>
      </trkpt>
      <trkpt lat="45.19008" lon="5.99679">
        <ele>2392.2</ele>
        <time>2022-01-16T10:50:23Z</time>
      </trkpt>
      <trkpt lat="45.19003" lon="5.99672">
        <ele>2388.8</ele>
        <time>2022-01-16T10:50:25Z</time>
      </trkpt>
      <trkpt lat="45.19" lon="5.99668">
        <ele>2388.2</ele>
        <time>2022-01-16T10:50:26Z</time>
      </trkpt>
      <trkpt lat="45.18997" lon="5.99666">
        <ele>2387.4</ele>
        <time>2022-01-16T10:50:27Z</time>
      </trkpt>
      <trkpt lat="45.18993" lon="5.9967">
        <ele>2386.8</ele>
        <time>2022-01-16T10:50:29Z</time>
      </trkpt>
      <trkpt lat="45.18991" lon="5.99671">
        <ele>2384</ele>
        <time>2022-01-16T10:50:30Z</time>
      </trkpt>
      <trkpt lat="45.18988" lon="5.99672">
        <ele>2381.2</ele>
        <time>2022-01-16T10:50:31Z</time>
      </trkpt>
      <trkpt lat="45.18986" lon="5.99675">
        <ele>2380</ele>
        <time>2022-01-16T10:50:32Z</time>
      </trkpt>
      <trkpt lat="45.18984" lon="5.99679">
        <ele>2378.8</ele>
        <time>2022-01-16T10:50:33Z</time>
      </trkpt>
      <trkpt lat="45.18983" lon="5.99683">
        <ele>2376.4</ele>
        <time>2022-01-16T10:50:34Z</time>
      </trkpt>
      <trkpt lat="45.18978" lon="5.99694">
        <ele>2376.2</ele>
        <time>2022-01-16T10:50:36Z</time>
      </trkpt>
      <trkpt lat="45.18975" lon="5.99698">
        <ele>2375.4</ele>
        <time>2022-01-16T10:50:37Z</time>
      </trkpt>
      <trkpt lat="45.1897" lon="5.99704">
        <ele>2374.6</ele>
        <time>2022-01-16T10:50:41Z</time>
      </trkpt>
      <trkpt lat="45.18971" lon="5.99704">
        <ele>2374.4</ele>
        <time>2022-01-16T10:50:43Z</time>
      </trkpt>
      <trkpt lat="45.18971" lon="5.99704">
        <ele>2374.2</ele>
        <time>2022-01-16T10:50:44Z</time>
      </trkpt>
      <trkpt lat="45.18971" lon="5.99705">
        <ele>2374</ele>
        <time>2022-01-16T10:50:48Z</time>
      </trkpt>
      <trkpt lat="45.1897" lon="5.99706">
        <ele>2374</ele>
        <time>2022-01-16T10:50:51Z</time>
      </trkpt>
      <trkpt lat="45.18971" lon="5.99705">
        <ele>2373.8</ele>
        <time>2022-01-16T10:50:56Z</time>
      </trkpt>
      <trkpt lat="45.18971" lon="5.99702">
        <ele>2373.8</ele>
        <time>2022-01-16T10:50:58Z</time>
      </trkpt>
      <trkpt lat="45.18972" lon="5.99697">
        <ele>2372.8</ele>
        <time>2022-01-16T10:50:59Z</time>
      </trkpt>
      <trkpt lat="45.18973" lon="5.9969">
        <ele>2368.4</ele>
        <time>2022-01-16T10:51:00Z</time>
      </trkpt>
      <trkpt lat="45.18974" lon="5.99685">
        <ele>2367.2</ele>
        <time>2022-01-16T10:51:01Z</time>
      </trkpt>
      <trkpt lat="45.18977" lon="5.9967">
        <ele>2365.8</ele>
        <time>2022-01-16T10:51:04Z</time>
      </trkpt>
      <trkpt lat="45.18976" lon="5.99667">
        <ele>2365.4</ele>
        <time>2022-01-16T10:51:05Z</time>
      </trkpt>
      <trkpt lat="45.18974" lon="5.99669">
        <ele>2364.8</ele>
        <time>2022-01-16T10:51:07Z</time>
      </trkpt>
      <trkpt lat="45.18971" lon="5.99671">
        <ele>2363.2</ele>
        <time>2022-01-16T10:51:08Z</time>
      </trkpt>
      <trkpt lat="45.18965" lon="5.99679">
        <ele>2362.2</ele>
        <time>2022-01-16T10:51:10Z</time>
      </trkpt>
      <trkpt lat="45.18961" lon="5.99682">
        <ele>2362</ele>
        <time>2022-01-16T10:51:11Z</time>
      </trkpt>
      <trkpt lat="45.18958" lon="5.9968">
        <ele>2360</ele>
        <time>2022-01-16T10:51:12Z</time>
      </trkpt>
      <trkpt lat="45.18956" lon="5.99676">
        <ele>2357.8</ele>
        <time>2022-01-16T10:51:13Z</time>
      </trkpt>
      <trkpt lat="45.18957" lon="5.9967">
        <ele>2354.8</ele>
        <time>2022-01-16T10:51:14Z</time>
      </trkpt>
      <trkpt lat="45.18957" lon="5.99662">
        <ele>2353.4</ele>
        <time>2022-01-16T10:51:15Z</time>
      </trkpt>
      <trkpt lat="45.18956" lon="5.99656">
        <ele>2350.2</ele>
        <time>2022-01-16T10:51:16Z</time>
      </trkpt>
      <trkpt lat="45.18955" lon="5.99648">
        <ele>2350.2</ele>
        <time>2022-01-16T10:51:17Z</time>
      </trkpt>
      <trkpt lat="45.18953" lon="5.99642">
        <ele>2349.8</ele>
        <time>2022-01-16T10:51:18Z</time>
      </trkpt>
      <trkpt lat="45.18948" lon="5.99627">
        <ele>2349.6</ele>
        <time>2022-01-16T10:51:20Z</time>
      </trkpt>
      <trkpt lat="45.18944" lon="5.99621">
        <ele>2349</ele>
        <time>2022-01-16T10:51:21Z</time>
      </trkpt>
      <trkpt lat="45.18935" lon="5.99608">
        <ele>2347.8</ele>
        <time>2022-01-16T10:51:23Z</time>
      </trkpt>
      <trkpt lat="45.1893" lon="5.99603">
        <ele>2344.2</ele>
        <time>2022-01-16T10:51:24Z</time>
      </trkpt>
      <trkpt lat="45.18925" lon="5.99599">
        <ele>2343.4</ele>
        <time>2022-01-16T10:51:25Z</time>
      </trkpt>
      <trkpt lat="45.18921" lon="5.99595">
        <ele>2342</ele>
        <time>2022-01-16T10:51:26Z</time>
      </trkpt>
      <trkpt lat="45.18919" lon="5.99594">
        <ele>2340.4</ele>
        <time>2022-01-16T10:51:27Z</time>
      </trkpt>
      <trkpt lat="45.18916" lon="5.99591">
        <ele>2339.6</ele>
        <time>2022-01-16T10:51:28Z</time>
      </trkpt>
      <trkpt lat="45.18913" lon="5.996">
        <ele>2339.2</ele>
        <time>2022-01-16T10:51:30Z</time>
      </trkpt>
      <trkpt lat="45.1891" lon="5.99605">
        <ele>2335.4</ele>
        <time>2022-01-16T10:51:31Z</time>
      </trkpt>
      <trkpt lat="45.18905" lon="5.99606">
        <ele>2332.2</ele>
        <time>2022-01-16T10:51:32Z</time>
      </trkpt>
      <trkpt lat="45.18898" lon="5.99604">
        <ele>2330.4</ele>
        <time>2022-01-16T10:51:33Z</time>
      </trkpt>
      <trkpt lat="45.18891" lon="5.99599">
        <ele>2327.4</ele>
        <time>2022-01-16T10:51:34Z</time>
      </trkpt>
      <trkpt lat="45.18887" lon="5.99593">
        <ele>2324.4</ele>
        <time>2022-01-16T10:51:35Z</time>
      </trkpt>
      <trkpt lat="45.18873" lon="5.99579">
        <ele>2324</ele>
        <time>2022-01-16T10:51:37Z</time>
      </trkpt>
      <trkpt lat="45.18867" lon="5.99575">
        <ele>2323</ele>
        <time>2022-01-16T10:51:38Z</time>
      </trkpt>
      <trkpt lat="45.18861" lon="5.99572">
        <ele>2318.4</ele>
        <time>2022-01-16T10:51:39Z</time>
      </trkpt>
      <trkpt lat="45.18851" lon="5.99571">
        <ele>2317.8</ele>
        <time>2022-01-16T10:51:41Z</time>
      </trkpt>
      <trkpt lat="45.18842" lon="5.99575">
        <ele>2317.8</ele>
        <time>2022-01-16T10:51:43Z</time>
      </trkpt>
      <trkpt lat="45.18837" lon="5.99578">
        <ele>2317.2</ele>
        <time>2022-01-16T10:51:44Z</time>
      </trkpt>
      <trkpt lat="45.18831" lon="5.99582">
        <ele>2316.4</ele>
        <time>2022-01-16T10:51:45Z</time>
      </trkpt>
      <trkpt lat="45.18817" lon="5.99592">
        <ele>2313.4</ele>
        <time>2022-01-16T10:51:47Z</time>
      </trkpt>
      <trkpt lat="45.1881" lon="5.99597">
        <ele>2310.6</ele>
        <time>2022-01-16T10:51:48Z</time>
      </trkpt>
      <trkpt lat="45.18788" lon="5.99611">
        <ele>2310.6</ele>
        <time>2022-01-16T10:51:51Z</time>
      </trkpt>
      <trkpt lat="45.18776" lon="5.99618">
        <ele>2305.4</ele>
        <time>2022-01-16T10:51:53Z</time>
      </trkpt>
      <trkpt lat="45.18772" lon="5.9962">
        <ele>2302</ele>
        <time>2022-01-16T10:51:54Z</time>
      </trkpt>
      <trkpt lat="45.18769" lon="5.99621">
        <ele>2302</ele>
        <time>2022-01-16T10:51:55Z</time>
      </trkpt>
      <trkpt lat="45.18768" lon="5.99624">
        <ele>2301.8</ele>
        <time>2022-01-16T10:51:56Z</time>
      </trkpt>
      <trkpt lat="45.18765" lon="5.99631">
        <ele>2301.6</ele>
        <time>2022-01-16T10:52:00Z</time>
      </trkpt>
      <trkpt lat="45.18763" lon="5.99632">
        <ele>2301.4</ele>
        <time>2022-01-16T10:52:01Z</time>
      </trkpt>
      <trkpt lat="45.18764" lon="5.99631">
        <ele>2301</ele>
        <time>2022-01-16T10:52:03Z</time>
      </trkpt>
      <trkpt lat="45.18764" lon="5.99632">
        <ele>2301</ele>
        <time>2022-01-16T10:52:04Z</time>
      </trkpt>
      <trkpt lat="45.18764" lon="5.99632">
        <ele>2300.8</ele>
        <time>2022-01-16T10:52:05Z</time>
      </trkpt>
      <trkpt lat="45.18764" lon="5.99632">
        <ele>2300.6</ele>
        <time>2022-01-16T10:52:10Z</time>
      </trkpt>
      <trkpt lat="45.18764" lon="5.99633">
        <ele>2300.6</ele>
        <time>2022-01-16T10:52:12Z</time>
      </trkpt>
      <trkpt lat="45.18765" lon="5.99632">
        <ele>2300.6</ele>
        <time>2022-01-16T10:52:15Z</time>
      </trkpt>
      <trkpt lat="45.18767" lon="5.99639">
        <ele>2299.8</ele>
        <time>2022-01-16T10:52:19Z</time>
      </trkpt>
      <trkpt lat="45.18769" lon="5.9964">
        <ele>2297.4</ele>
        <time>2022-01-16T10:52:20Z</time>
      </trkpt>
      <trkpt lat="45.1877" lon="5.9964">
        <ele>2297</ele>
        <time>2022-01-16T10:52:21Z</time>
      </trkpt>
      <trkpt lat="45.18769" lon="5.99641">
        <ele>2297</ele>
        <time>2022-01-16T10:52:23Z</time>
      </trkpt>
      <trkpt lat="45.18769" lon="5.99642">
        <ele>2297</ele>
        <time>2022-01-16T10:52:24Z</time>
      </trkpt>
      <trkpt lat="45.1877" lon="5.99643">
        <ele>2297</ele>
        <time>2022-01-16T10:52:26Z</time>
      </trkpt>
      <trkpt lat="45.18773" lon="5.99648">
        <ele>2296.4</ele>
        <time>2022-01-16T10:52:28Z</time>
      </trkpt>
      <trkpt lat="45.18772" lon="5.99656">
        <ele>2296</ele>
        <time>2022-01-16T10:52:29Z</time>
      </trkpt>
      <trkpt lat="45.18769" lon="5.9966">
        <ele>2291.6</ele>
        <time>2022-01-16T10:52:30Z</time>
      </trkpt>
      <trkpt lat="45.18765" lon="5.99665">
        <ele>2291.6</ele>
        <time>2022-01-16T10:52:31Z</time>
      </trkpt>
      <trkpt lat="45.18761" lon="5.99669">
        <ele>2289.4</ele>
        <time>2022-01-16T10:52:32Z</time>
      </trkpt>
      <trkpt lat="45.18757" lon="5.99673">
        <ele>2288.6</ele>
        <time>2022-01-16T10:52:33Z</time>
      </trkpt>
      <trkpt lat="45.18752" lon="5.99676">
        <ele>2288.2</ele>
        <time>2022-01-16T10:52:34Z</time>
      </trkpt>
      <trkpt lat="45.18749" lon="5.99678">
        <ele>2287</ele>
        <time>2022-01-16T10:52:35Z</time>
      </trkpt>
      <trkpt lat="45.18747" lon="5.99679">
        <ele>2284.6</ele>
        <time>2022-01-16T10:52:36Z</time>
      </trkpt>
      <trkpt lat="45.18746" lon="5.99679">
        <ele>2284.6</ele>
        <time>2022-01-16T10:52:37Z</time>
      </trkpt>
      <trkpt lat="45.18745" lon="5.99679">
        <ele>2284.6</ele>
        <time>2022-01-16T10:52:39Z</time>
      </trkpt>
      <trkpt lat="45.18746" lon="5.99679">
        <ele>2284.6</ele>
        <time>2022-01-16T10:52:40Z</time>
      </trkpt>
      <trkpt lat="45.18746" lon="5.99679">
        <ele>2284.6</ele>
        <time>2022-01-16T10:52:41Z</time>
      </trkpt>
      <trkpt lat="45.18746" lon="5.99678">
        <ele>2284.4</ele>
        <time>2022-01-16T10:52:42Z</time>
      </trkpt>
      <trkpt lat="45.18746" lon="5.99678">
        <ele>2284.2</ele>
        <time>2022-01-16T10:52:45Z</time>
      </trkpt>
      <trkpt lat="45.18748" lon="5.99676">
        <ele>2283.4</ele>
        <time>2022-01-16T10:52:47Z</time>
      </trkpt>
      <trkpt lat="45.18748" lon="5.99676">
        <ele>2283.2</ele>
        <time>2022-01-16T10:52:49Z</time>
      </trkpt>
      <trkpt lat="45.18748" lon="5.99676">
        <ele>2283.6</ele>
        <time>2022-01-16T10:52:55Z</time>
      </trkpt>
      <trkpt lat="45.18748" lon="5.99676">
        <ele>2283.8</ele>
        <time>2022-01-16T10:52:57Z</time>
      </trkpt>
      <trkpt lat="45.18748" lon="5.99677">
        <ele>2284</ele>
        <time>2022-01-16T10:53:01Z</time>
      </trkpt>
      <trkpt lat="45.18748" lon="5.99677">
        <ele>2284</ele>
        <time>2022-01-16T10:53:04Z</time>
      </trkpt>
      <trkpt lat="45.18748" lon="5.99677">
        <ele>2284</ele>
        <time>2022-01-16T10:53:06Z</time>
      </trkpt>
      <trkpt lat="45.18747" lon="5.99677">
        <ele>2284.2</ele>
        <time>2022-01-16T10:53:09Z</time>
      </trkpt>
      <trkpt lat="45.18748" lon="5.99677">
        <ele>2284.2</ele>
        <time>2022-01-16T10:53:12Z</time>
      </trkpt>
      <trkpt lat="45.18748" lon="5.99676">
        <ele>2283.8</ele>
        <time>2022-01-16T10:53:18Z</time>
      </trkpt>
      <trkpt lat="45.18748" lon="5.99676">
        <ele>2284</ele>
        <time>2022-01-16T10:53:24Z</time>
      </trkpt>
      <trkpt lat="45.18748" lon="5.99676">
        <ele>2284.2</ele>
        <time>2022-01-16T10:53:26Z</time>
      </trkpt>
      <trkpt lat="45.18748" lon="5.99676">
        <ele>2284</ele>
        <time>2022-01-16T10:53:32Z</time>
      </trkpt>
      <trkpt lat="45.18749" lon="5.99678">
        <ele>2283.8</ele>
        <time>2022-01-16T10:53:38Z</time>
      </trkpt>
      <trkpt lat="45.18749" lon="5.99678">
        <ele>2283.8</ele>
        <time>2022-01-16T10:53:42Z</time>
      </trkpt>
      <trkpt lat="45.18749" lon="5.99678">
        <ele>2283.4</ele>
        <time>2022-01-16T10:53:48Z</time>
      </trkpt>
      <trkpt lat="45.18749" lon="5.99678">
        <ele>2283.4</ele>
        <time>2022-01-16T10:53:50Z</time>
      </trkpt>
      <trkpt lat="45.18749" lon="5.99678">
        <ele>2283</ele>
        <time>2022-01-16T10:53:51Z</time>
      </trkpt>
      <trkpt lat="45.18749" lon="5.99678">
        <ele>2283</ele>
        <time>2022-01-16T10:53:52Z</time>
      </trkpt>
      <trkpt lat="45.18749" lon="5.99678">
        <ele>2283.4</ele>
        <time>2022-01-16T10:53:53Z</time>
      </trkpt>
      <trkpt lat="45.18749" lon="5.99678">
        <ele>2283.2</ele>
        <time>2022-01-16T10:53:54Z</time>
      </trkpt>
      <trkpt lat="45.1875" lon="5.99678">
        <ele>2283.6</ele>
        <time>2022-01-16T10:53:57Z</time>
      </trkpt>
      <trkpt lat="45.1875" lon="5.99678">
        <ele>2283.4</ele>
        <time>2022-01-16T10:54:00Z</time>
      </trkpt>
      <trkpt lat="45.1875" lon="5.99678">
        <ele>2283.4</ele>
        <time>2022-01-16T10:54:04Z</time>
      </trkpt>
      <trkpt lat="45.1875" lon="5.99675">
        <ele>2283.6</ele>
        <time>2022-01-16T10:54:10Z</time>
      </trkpt>
      <trkpt lat="45.1875" lon="5.99675">
        <ele>2283.8</ele>
        <time>2022-01-16T10:54:16Z</time>
      </trkpt>
      <trkpt lat="45.1875" lon="5.99675">
        <ele>2283.6</ele>
        <time>2022-01-16T10:54:22Z</time>
      </trkpt>
      <trkpt lat="45.1875" lon="5.99676">
        <ele>2283.8</ele>
        <time>2022-01-16T10:54:28Z</time>
      </trkpt>
      <trkpt lat="45.1875" lon="5.99676">
        <ele>2283.6</ele>
        <time>2022-01-16T10:54:34Z</time>
      </trkpt>
      <trkpt lat="45.1875" lon="5.99676">
        <ele>2283.6</ele>
        <time>2022-01-16T10:54:40Z</time>
      </trkpt>
      <trkpt lat="45.1875" lon="5.99676">
        <ele>2283.4</ele>
        <time>2022-01-16T10:54:42Z</time>
      </trkpt>
      <trkpt lat="45.1875" lon="5.99676">
        <ele>2283.4</ele>
        <time>2022-01-16T10:54:43Z</time>
      </trkpt>
      <trkpt lat="45.1875" lon="5.99676">
        <ele>2283.4</ele>
        <time>2022-01-16T10:54:45Z</time>
      </trkpt>
      <trkpt lat="45.1875" lon="5.99676">
        <ele>2283.4</ele>
        <time>2022-01-16T10:54:49Z</time>
      </trkpt>
      <trkpt lat="45.1875" lon="5.99676">
        <ele>2283.4</ele>
        <time>2022-01-16T10:54:50Z</time>
      </trkpt>
      <trkpt lat="45.1875" lon="5.99677">
        <ele>2283.6</ele>
        <time>2022-01-16T10:54:54Z</time>
      </trkpt>
      <trkpt lat="45.1875" lon="5.99677">
        <ele>2283.4</ele>
        <time>2022-01-16T10:54:56Z</time>
      </trkpt>
      <trkpt lat="45.18751" lon="5.99676">
        <ele>2283.2</ele>
        <time>2022-01-16T10:55:00Z</time>
      </trkpt>
      <trkpt lat="45.18751" lon="5.99676">
        <ele>2283.2</ele>
        <time>2022-01-16T10:55:03Z</time>
      </trkpt>
      <trkpt lat="45.18751" lon="5.99676">
        <ele>2283.4</ele>
        <time>2022-01-16T10:55:09Z</time>
      </trkpt>
      <trkpt lat="45.18752" lon="5.99676">
        <ele>2283.4</ele>
        <time>2022-01-16T10:55:15Z</time>
      </trkpt>
      <trkpt lat="45.18752" lon="5.99676">
        <ele>2283.4</ele>
        <time>2022-01-16T10:55:21Z</time>
      </trkpt>
      <trkpt lat="45.18752" lon="5.99676">
        <ele>2283.4</ele>
        <time>2022-01-16T10:55:24Z</time>
      </trkpt>
      <trkpt lat="45.18751" lon="5.99676">
        <ele>2283.4</ele>
        <time>2022-01-16T10:55:28Z</time>
      </trkpt>
      <trkpt lat="45.18751" lon="5.99676">
        <ele>2283.4</ele>
        <time>2022-01-16T10:55:34Z</time>
      </trkpt>
      <trkpt lat="45.18751" lon="5.99677">
        <ele>2283.4</ele>
        <time>2022-01-16T10:55:40Z</time>
      </trkpt>
      <trkpt lat="45.18751" lon="5.99677">
        <ele>2283.4</ele>
        <time>2022-01-16T10:55:46Z</time>
      </trkpt>
      <trkpt lat="45.1875" lon="5.99677">
        <ele>2283.4</ele>
        <time>2022-01-16T10:55:52Z</time>
      </trkpt>
      <trkpt lat="45.1875" lon="5.99678">
        <ele>2283.4</ele>
        <time>2022-01-16T10:55:54Z</time>
      </trkpt>
      <trkpt lat="45.1875" lon="5.99678">
        <ele>2283.4</ele>
        <time>2022-01-16T10:55:58Z</time>
      </trkpt>
      <trkpt lat="45.1875" lon="5.99678">
        <ele>2283.4</ele>
        <time>2022-01-16T10:56:04Z</time>
      </trkpt>
      <trkpt lat="45.1875" lon="5.99678">
        <ele>2283.4</ele>
        <time>2022-01-16T10:56:08Z</time>
      </trkpt>
      <trkpt lat="45.1875" lon="5.99678">
        <ele>2283.4</ele>
        <time>2022-01-16T10:56:10Z</time>
      </trkpt>
      <trkpt lat="45.1875" lon="5.99678">
        <ele>2283.4</ele>
        <time>2022-01-16T10:56:16Z</time>
      </trkpt>
      <trkpt lat="45.1875" lon="5.99678">
        <ele>2283.4</ele>
        <time>2022-01-16T10:56:22Z</time>
      </trkpt>
      <trkpt lat="45.1875" lon="5.99678">
        <ele>2283.4</ele>
        <time>2022-01-16T10:56:26Z</time>
      </trkpt>
      <trkpt lat="45.1875" lon="5.99678">
        <ele>2283.4</ele>
        <time>2022-01-16T10:56:27Z</time>
      </trkpt>
      <trkpt lat="45.1875" lon="5.99678">
        <ele>2283.4</ele>
        <time>2022-01-16T10:56:28Z</time>
      </trkpt>
      <trkpt lat="45.1875" lon="5.99678">
        <ele>2283.4</ele>
        <time>2022-01-16T10:56:29Z</time>
      </trkpt>
      <trkpt lat="45.1875" lon="5.99678">
        <ele>2283.4</ele>
        <time>2022-01-16T10:56:32Z</time>
      </trkpt>
      <trkpt lat="45.1875" lon="5.99678">
        <ele>2283.4</ele>
        <time>2022-01-16T10:56:37Z</time>
      </trkpt>
      <trkpt lat="45.1875" lon="5.99678">
        <ele>2283.4</ele>
        <time>2022-01-16T10:56:38Z</time>
      </trkpt>
      <trkpt lat="45.1875" lon="5.99678">
        <ele>2283.4</ele>
        <time>2022-01-16T10:56:39Z</time>
      </trkpt>
      <trkpt lat="45.1875" lon="5.99678">
        <ele>2283.4</ele>
        <time>2022-01-16T10:56:41Z</time>
      </trkpt>
      <trkpt lat="45.1875" lon="5.99678">
        <ele>2283.4</ele>
        <time>2022-01-16T10:56:44Z</time>
      </trkpt>
      <trkpt lat="45.1875" lon="5.99678">
        <ele>2283.4</ele>
        <time>2022-01-16T10:56:50Z</time>
      </trkpt>
      <trkpt lat="45.1875" lon="5.99678">
        <ele>2283.4</ele>
        <time>2022-01-16T10:56:52Z</time>
      </trkpt>
      <trkpt lat="45.18748" lon="5.99675">
        <ele>2283.4</ele>
        <time>2022-01-16T10:56:55Z</time>
      </trkpt>
      <trkpt lat="45.18748" lon="5.99674">
        <ele>2283.4</ele>
        <time>2022-01-16T10:56:56Z</time>
      </trkpt>
      <trkpt lat="45.18743" lon="5.99669">
        <ele>2283.4</ele>
        <time>2022-01-16T10:57:02Z</time>
      </trkpt>
      <trkpt lat="45.18741" lon="5.99669">
        <ele>2283.4</ele>
        <time>2022-01-16T10:57:05Z</time>
      </trkpt>
      <trkpt lat="45.1874" lon="5.99669">
        <ele>2283.4</ele>
        <time>2022-01-16T10:57:06Z</time>
      </trkpt>
      <trkpt lat="45.18738" lon="5.99668">
        <ele>2283.4</ele>
        <time>2022-01-16T10:57:09Z</time>
      </trkpt>
      <trkpt lat="45.18737" lon="5.99666">
        <ele>2283.4</ele>
        <time>2022-01-16T10:57:12Z</time>
      </trkpt>
      <trkpt lat="45.18737" lon="5.99665">
        <ele>2288</ele>
        <time>2022-01-16T10:57:13Z</time>
      </trkpt>
      <trkpt lat="45.18737" lon="5.99663">
        <ele>2288</ele>
        <time>2022-01-16T10:57:15Z</time>
      </trkpt>
      <trkpt lat="45.18735" lon="5.99662">
        <ele>2287.6</ele>
        <time>2022-01-16T10:57:20Z</time>
      </trkpt>
      <trkpt lat="45.18737" lon="5.99662">
        <ele>2288.6</ele>
        <time>2022-01-16T10:57:26Z</time>
      </trkpt>
      <trkpt lat="45.18738" lon="5.99661">
        <ele>2289</ele>
        <time>2022-01-16T10:57:28Z</time>
      </trkpt>
      <trkpt lat="45.18739" lon="5.99659">
        <ele>2289.2</ele>
        <time>2022-01-16T10:57:30Z</time>
      </trkpt>
      <trkpt lat="45.1874" lon="5.99657">
        <ele>2290.4</ele>
        <time>2022-01-16T10:57:34Z</time>
      </trkpt>
      <trkpt lat="45.18742" lon="5.99655">
        <ele>2291.6</ele>
        <time>2022-01-16T10:57:37Z</time>
      </trkpt>
      <trkpt lat="45.18744" lon="5.99651">
        <ele>2292.8</ele>
        <time>2022-01-16T10:57:41Z</time>
      </trkpt>
      <trkpt lat="45.18745" lon="5.9965">
        <ele>2293.2</ele>
        <time>2022-01-16T10:57:44Z</time>
      </trkpt>
      <trkpt lat="45.18745" lon="5.9965">
        <ele>2294</ele>
        <time>2022-01-16T10:57:46Z</time>
      </trkpt>
      <trkpt lat="45.18747" lon="5.99647">
        <ele>2294.8</ele>
        <time>2022-01-16T10:57:51Z</time>
      </trkpt>
      <trkpt lat="45.18747" lon="5.99646">
        <ele>2294.8</ele>
        <time>2022-01-16T10:57:52Z</time>
      </trkpt>
      <trkpt lat="45.18747" lon="5.99647">
        <ele>2295</ele>
        <time>2022-01-16T10:57:58Z</time>
      </trkpt>
      <trkpt lat="45.18747" lon="5.99647">
        <ele>2295</ele>
        <time>2022-01-16T10:58:04Z</time>
      </trkpt>
      <trkpt lat="45.18747" lon="5.99647">
        <ele>2295</ele>
        <time>2022-01-16T10:58:05Z</time>
      </trkpt>
      <trkpt lat="45.18747" lon="5.99647">
        <ele>2295</ele>
        <time>2022-01-16T10:58:06Z</time>
      </trkpt>
      <trkpt lat="45.18747" lon="5.99647">
        <ele>2295</ele>
        <time>2022-01-16T10:58:09Z</time>
      </trkpt>
      <trkpt lat="45.18747" lon="5.99647">
        <ele>2295.2</ele>
        <time>2022-01-16T10:58:12Z</time>
      </trkpt>
      <trkpt lat="45.18747" lon="5.99647">
        <ele>2296.4</ele>
        <time>2022-01-16T10:58:14Z</time>
      </trkpt>
      <trkpt lat="45.18746" lon="5.99643">
        <ele>2297.8</ele>
        <time>2022-01-16T10:58:18Z</time>
      </trkpt>
      <trkpt lat="45.18744" lon="5.9964">
        <ele>2298.2</ele>
        <time>2022-01-16T10:58:20Z</time>
      </trkpt>
      <trkpt lat="45.18744" lon="5.99638">
        <ele>2298.2</ele>
        <time>2022-01-16T10:58:21Z</time>
      </trkpt>
      <trkpt lat="45.18742" lon="5.99637">
        <ele>2298.6</ele>
        <time>2022-01-16T10:58:23Z</time>
      </trkpt>
      <trkpt lat="45.1874" lon="5.99633">
        <ele>2299.2</ele>
        <time>2022-01-16T10:58:25Z</time>
      </trkpt>
      <trkpt lat="45.1874" lon="5.9963">
        <ele>2299.2</ele>
        <time>2022-01-16T10:58:27Z</time>
      </trkpt>
      <trkpt lat="45.18741" lon="5.99629">
        <ele>2299.4</ele>
        <time>2022-01-16T10:58:28Z</time>
      </trkpt>
      <trkpt lat="45.18742" lon="5.99625">
        <ele>2299.4</ele>
        <time>2022-01-16T10:58:31Z</time>
      </trkpt>
      <trkpt lat="45.18743" lon="5.99624">
        <ele>2300.2</ele>
        <time>2022-01-16T10:58:33Z</time>
      </trkpt>
      <trkpt lat="45.18745" lon="5.9962">
        <ele>2300.8</ele>
        <time>2022-01-16T10:58:35Z</time>
      </trkpt>
      <trkpt lat="45.18745" lon="5.9962">
        <ele>2301.2</ele>
        <time>2022-01-16T10:58:37Z</time>
      </trkpt>
      <trkpt lat="45.18748" lon="5.99616">
        <ele>2302.6</ele>
        <time>2022-01-16T10:58:41Z</time>
      </trkpt>
      <trkpt lat="45.18747" lon="5.99616">
        <ele>2302.8</ele>
        <time>2022-01-16T10:58:42Z</time>
      </trkpt>
      <trkpt lat="45.18747" lon="5.99615">
        <ele>2303.4</ele>
        <time>2022-01-16T10:58:43Z</time>
      </trkpt>
      <trkpt lat="45.18746" lon="5.99615">
        <ele>2304.8</ele>
        <time>2022-01-16T10:58:44Z</time>
      </trkpt>
      <trkpt lat="45.18743" lon="5.99612">
        <ele>2305.2</ele>
        <time>2022-01-16T10:58:48Z</time>
      </trkpt>
      <trkpt lat="45.18742" lon="5.99612">
        <ele>2305.2</ele>
        <time>2022-01-16T10:58:49Z</time>
      </trkpt>
      <trkpt lat="45.1874" lon="5.99611">
        <ele>2305.8</ele>
        <time>2022-01-16T10:58:51Z</time>
      </trkpt>
      <trkpt lat="45.18739" lon="5.9961">
        <ele>2306.2</ele>
        <time>2022-01-16T10:58:52Z</time>
      </trkpt>
      <trkpt lat="45.18737" lon="5.99604">
        <ele>2307</ele>
        <time>2022-01-16T10:58:58Z</time>
      </trkpt>
      <trkpt lat="45.18736" lon="5.99603">
        <ele>2307.4</ele>
        <time>2022-01-16T10:59:00Z</time>
      </trkpt>
      <trkpt lat="45.18734" lon="5.99601">
        <ele>2307.8</ele>
        <time>2022-01-16T10:59:03Z</time>
      </trkpt>
      <trkpt lat="45.18734" lon="5.996">
        <ele>2308.6</ele>
        <time>2022-01-16T10:59:04Z</time>
      </trkpt>
      <trkpt lat="45.18733" lon="5.99597">
        <ele>2308.8</ele>
        <time>2022-01-16T10:59:06Z</time>
      </trkpt>
      <trkpt lat="45.18733" lon="5.99591">
        <ele>2310</ele>
        <time>2022-01-16T10:59:10Z</time>
      </trkpt>
      <trkpt lat="45.18733" lon="5.99589">
        <ele>2310.4</ele>
        <time>2022-01-16T10:59:11Z</time>
      </trkpt>
      <trkpt lat="45.18733" lon="5.99586">
        <ele>2310.6</ele>
        <time>2022-01-16T10:59:13Z</time>
      </trkpt>
      <trkpt lat="45.18732" lon="5.99583">
        <ele>2311.2</ele>
        <time>2022-01-16T10:59:16Z</time>
      </trkpt>
      <trkpt lat="45.18731" lon="5.99583">
        <ele>2311.4</ele>
        <time>2022-01-16T10:59:17Z</time>
      </trkpt>
      <trkpt lat="45.1873" lon="5.99582">
        <ele>2312.2</ele>
        <time>2022-01-16T10:59:19Z</time>
      </trkpt>
      <trkpt lat="45.18724" lon="5.9958">
        <ele>2313.4</ele>
        <time>2022-01-16T10:59:25Z</time>
      </trkpt>
      <trkpt lat="45.18724" lon="5.99578">
        <ele>2314.2</ele>
        <time>2022-01-16T10:59:27Z</time>
      </trkpt>
      <trkpt lat="45.18724" lon="5.99577">
        <ele>2314.4</ele>
        <time>2022-01-16T10:59:28Z</time>
      </trkpt>
      <trkpt lat="45.18723" lon="5.99576">
        <ele>2314.6</ele>
        <time>2022-01-16T10:59:29Z</time>
      </trkpt>
      <trkpt lat="45.18721" lon="5.99573">
        <ele>2315.8</ele>
        <time>2022-01-16T10:59:33Z</time>
      </trkpt>
      <trkpt lat="45.1872" lon="5.99571">
        <ele>2316.6</ele>
        <time>2022-01-16T10:59:36Z</time>
      </trkpt>
      <trkpt lat="45.18719" lon="5.9957">
        <ele>2316.8</ele>
        <time>2022-01-16T10:59:37Z</time>
      </trkpt>
      <trkpt lat="45.18715" lon="5.99568">
        <ele>2317.4</ele>
        <time>2022-01-16T10:59:41Z</time>
      </trkpt>
      <trkpt lat="45.18714" lon="5.99567">
        <ele>2318</ele>
        <time>2022-01-16T10:59:43Z</time>
      </trkpt>
      <trkpt lat="45.18713" lon="5.99567">
        <ele>2318</ele>
        <time>2022-01-16T10:59:44Z</time>
      </trkpt>
      <trkpt lat="45.18713" lon="5.99566">
        <ele>2318</ele>
        <time>2022-01-16T10:59:45Z</time>
      </trkpt>
      <trkpt lat="45.18714" lon="5.99562">
        <ele>2319.4</ele>
        <time>2022-01-16T10:59:48Z</time>
      </trkpt>
      <trkpt lat="45.18715" lon="5.99558">
        <ele>2318.8</ele>
        <time>2022-01-16T10:59:50Z</time>
      </trkpt>
      <trkpt lat="45.18718" lon="5.99552">
        <ele>2319.6</ele>
        <time>2022-01-16T10:59:55Z</time>
      </trkpt>
      <trkpt lat="45.18719" lon="5.99551">
        <ele>2320.4</ele>
        <time>2022-01-16T10:59:56Z</time>
      </trkpt>
      <trkpt lat="45.18722" lon="5.99544">
        <ele>2321</ele>
        <time>2022-01-16T11:00:01Z</time>
      </trkpt>
      <trkpt lat="45.18723" lon="5.99542">
        <ele>2321.8</ele>
        <time>2022-01-16T11:00:03Z</time>
      </trkpt>
      <trkpt lat="45.18724" lon="5.99538">
        <ele>2323.2</ele>
        <time>2022-01-16T11:00:07Z</time>
      </trkpt>
      <trkpt lat="45.18724" lon="5.99537">
        <ele>2323.6</ele>
        <time>2022-01-16T11:00:09Z</time>
      </trkpt>
      <trkpt lat="45.18725" lon="5.99536">
        <ele>2324</ele>
        <time>2022-01-16T11:00:10Z</time>
      </trkpt>
      <trkpt lat="45.18726" lon="5.99533">
        <ele>2324.2</ele>
        <time>2022-01-16T11:00:12Z</time>
      </trkpt>
      <trkpt lat="45.18727" lon="5.99527">
        <ele>2325.6</ele>
        <time>2022-01-16T11:00:18Z</time>
      </trkpt>
      <trkpt lat="45.18729" lon="5.99525">
        <ele>2326.4</ele>
        <time>2022-01-16T11:00:19Z</time>
      </trkpt>
      <trkpt lat="45.1873" lon="5.99522">
        <ele>2326.6</ele>
        <time>2022-01-16T11:00:20Z</time>
      </trkpt>
      <trkpt lat="45.18731" lon="5.99521">
        <ele>2326.8</ele>
        <time>2022-01-16T11:00:21Z</time>
      </trkpt>
      <trkpt lat="45.18734" lon="5.99514">
        <ele>2327.6</ele>
        <time>2022-01-16T11:00:26Z</time>
      </trkpt>
      <trkpt lat="45.18735" lon="5.99513">
        <ele>2328.2</ele>
        <time>2022-01-16T11:00:27Z</time>
      </trkpt>
      <trkpt lat="45.18736" lon="5.99513">
        <ele>2329.2</ele>
        <time>2022-01-16T11:00:29Z</time>
      </trkpt>
      <trkpt lat="45.18739" lon="5.99511">
        <ele>2330.2</ele>
        <time>2022-01-16T11:00:32Z</time>
      </trkpt>
      <trkpt lat="45.18739" lon="5.99511">
        <ele>2330.4</ele>
        <time>2022-01-16T11:00:33Z</time>
      </trkpt>
      <trkpt lat="45.18739" lon="5.99512">
        <ele>2330.6</ele>
        <time>2022-01-16T11:00:34Z</time>
      </trkpt>
      <trkpt lat="45.1874" lon="5.9951">
        <ele>2331.8</ele>
        <time>2022-01-16T11:00:38Z</time>
      </trkpt>
      <trkpt lat="45.18742" lon="5.99505">
        <ele>2332.8</ele>
        <time>2022-01-16T11:00:41Z</time>
      </trkpt>
      <trkpt lat="45.18742" lon="5.99504">
        <ele>2333.4</ele>
        <time>2022-01-16T11:00:42Z</time>
      </trkpt>
      <trkpt lat="45.18744" lon="5.99502">
        <ele>2334.4</ele>
        <time>2022-01-16T11:00:44Z</time>
      </trkpt>
      <trkpt lat="45.18745" lon="5.99502">
        <ele>2334.4</ele>
        <time>2022-01-16T11:00:46Z</time>
      </trkpt>
      <trkpt lat="45.18747" lon="5.99502">
        <ele>2335.2</ele>
        <time>2022-01-16T11:00:49Z</time>
      </trkpt>
      <trkpt lat="45.18748" lon="5.99501">
        <ele>2335.6</ele>
        <time>2022-01-16T11:00:50Z</time>
      </trkpt>
      <trkpt lat="45.18754" lon="5.995">
        <ele>2336.8</ele>
        <time>2022-01-16T11:00:55Z</time>
      </trkpt>
      <trkpt lat="45.18755" lon="5.99499">
        <ele>2336.8</ele>
        <time>2022-01-16T11:00:56Z</time>
      </trkpt>
      <trkpt lat="45.18758" lon="5.99498">
        <ele>2338</ele>
        <time>2022-01-16T11:00:59Z</time>
      </trkpt>
      <trkpt lat="45.18762" lon="5.99501">
        <ele>2339</ele>
        <time>2022-01-16T11:01:03Z</time>
      </trkpt>
      <trkpt lat="45.18764" lon="5.99504">
        <ele>2340.2</ele>
        <time>2022-01-16T11:01:06Z</time>
      </trkpt>
      <trkpt lat="45.18767" lon="5.99505">
        <ele>2341</ele>
        <time>2022-01-16T11:01:10Z</time>
      </trkpt>
      <trkpt lat="45.18768" lon="5.99505">
        <ele>2341.2</ele>
        <time>2022-01-16T11:01:11Z</time>
      </trkpt>
      <trkpt lat="45.18772" lon="5.99504">
        <ele>2342.4</ele>
        <time>2022-01-16T11:01:15Z</time>
      </trkpt>
      <trkpt lat="45.18773" lon="5.99503">
        <ele>2342.8</ele>
        <time>2022-01-16T11:01:16Z</time>
      </trkpt>
      <trkpt lat="45.18776" lon="5.995">
        <ele>2344.2</ele>
        <time>2022-01-16T11:01:20Z</time>
      </trkpt>
      <trkpt lat="45.18778" lon="5.99497">
        <ele>2344.8</ele>
        <time>2022-01-16T11:01:23Z</time>
      </trkpt>
      <trkpt lat="45.18779" lon="5.99497">
        <ele>2345.2</ele>
        <time>2022-01-16T11:01:24Z</time>
      </trkpt>
      <trkpt lat="45.1878" lon="5.99495">
        <ele>2345.8</ele>
        <time>2022-01-16T11:01:27Z</time>
      </trkpt>
      <trkpt lat="45.1878" lon="5.99495">
        <ele>2346.4</ele>
        <time>2022-01-16T11:01:28Z</time>
      </trkpt>
      <trkpt lat="45.18781" lon="5.99494">
        <ele>2347.2</ele>
        <time>2022-01-16T11:01:31Z</time>
      </trkpt>
      <trkpt lat="45.18782" lon="5.99494">
        <ele>2347.6</ele>
        <time>2022-01-16T11:01:32Z</time>
      </trkpt>
      <trkpt lat="45.18782" lon="5.99494">
        <ele>2348.4</ele>
        <time>2022-01-16T11:01:35Z</time>
      </trkpt>
      <trkpt lat="45.18782" lon="5.99494">
        <ele>2348.8</ele>
        <time>2022-01-16T11:01:36Z</time>
      </trkpt>
      <trkpt lat="45.18781" lon="5.99489">
        <ele>2349.8</ele>
        <time>2022-01-16T11:01:41Z</time>
      </trkpt>
      <trkpt lat="45.1878" lon="5.99483">
        <ele>2351.2</ele>
        <time>2022-01-16T11:01:47Z</time>
      </trkpt>
      <trkpt lat="45.1878" lon="5.99483">
        <ele>2351.2</ele>
        <time>2022-01-16T11:01:48Z</time>
      </trkpt>
      <trkpt lat="45.18779" lon="5.99482">
        <ele>2351.2</ele>
        <time>2022-01-16T11:01:50Z</time>
      </trkpt>
      <trkpt lat="45.18777" lon="5.99481">
        <ele>2352.6</ele>
        <time>2022-01-16T11:01:54Z</time>
      </trkpt>
      <trkpt lat="45.18776" lon="5.99479">
        <ele>2353.2</ele>
        <time>2022-01-16T11:01:56Z</time>
      </trkpt>
      <trkpt lat="45.18775" lon="5.99477">
        <ele>2353.4</ele>
        <time>2022-01-16T11:01:58Z</time>
      </trkpt>
      <trkpt lat="45.18773" lon="5.99476">
        <ele>2353.8</ele>
        <time>2022-01-16T11:02:00Z</time>
      </trkpt>
      <trkpt lat="45.1877" lon="5.99476">
        <ele>2354.2</ele>
        <time>2022-01-16T11:02:03Z</time>
      </trkpt>
      <trkpt lat="45.18769" lon="5.99475">
        <ele>2355</ele>
        <time>2022-01-16T11:02:05Z</time>
      </trkpt>
      <trkpt lat="45.1877" lon="5.99474">
        <ele>2355</ele>
        <time>2022-01-16T11:02:07Z</time>
      </trkpt>
      <trkpt lat="45.18771" lon="5.99472">
        <ele>2355.2</ele>
        <time>2022-01-16T11:02:08Z</time>
      </trkpt>
      <trkpt lat="45.18773" lon="5.99469">
        <ele>2355.8</ele>
        <time>2022-01-16T11:02:10Z</time>
      </trkpt>
      <trkpt lat="45.18774" lon="5.99469">
        <ele>2356</ele>
        <time>2022-01-16T11:02:11Z</time>
      </trkpt>
      <trkpt lat="45.18778" lon="5.99466">
        <ele>2356.8</ele>
        <time>2022-01-16T11:02:15Z</time>
      </trkpt>
      <trkpt lat="45.18781" lon="5.99463">
        <ele>2357.2</ele>
        <time>2022-01-16T11:02:18Z</time>
      </trkpt>
      <trkpt lat="45.18784" lon="5.99463">
        <ele>2358</ele>
        <time>2022-01-16T11:02:22Z</time>
      </trkpt>
      <trkpt lat="45.18785" lon="5.99463">
        <ele>2358.4</ele>
        <time>2022-01-16T11:02:24Z</time>
      </trkpt>
      <trkpt lat="45.18788" lon="5.99463">
        <ele>2360</ele>
        <time>2022-01-16T11:02:29Z</time>
      </trkpt>
      <trkpt lat="45.18788" lon="5.99464">
        <ele>2360.2</ele>
        <time>2022-01-16T11:02:30Z</time>
      </trkpt>
      <trkpt lat="45.18794" lon="5.99464">
        <ele>2361.4</ele>
        <time>2022-01-16T11:02:35Z</time>
      </trkpt>
      <trkpt lat="45.18795" lon="5.99463">
        <ele>2361.6</ele>
        <time>2022-01-16T11:02:36Z</time>
      </trkpt>
      <trkpt lat="45.18795" lon="5.99463">
        <ele>2362</ele>
        <time>2022-01-16T11:02:38Z</time>
      </trkpt>
      <trkpt lat="45.18795" lon="5.99461">
        <ele>2362.2</ele>
        <time>2022-01-16T11:02:41Z</time>
      </trkpt>
      <trkpt lat="45.18794" lon="5.9946">
        <ele>2362.8</ele>
        <time>2022-01-16T11:02:42Z</time>
      </trkpt>
      <trkpt lat="45.18791" lon="5.99455">
        <ele>2363.8</ele>
        <time>2022-01-16T11:02:47Z</time>
      </trkpt>
      <trkpt lat="45.1879" lon="5.99454">
        <ele>2364.2</ele>
        <time>2022-01-16T11:02:49Z</time>
      </trkpt>
      <trkpt lat="45.18788" lon="5.9945">
        <ele>2365.4</ele>
        <time>2022-01-16T11:02:53Z</time>
      </trkpt>
      <trkpt lat="45.18788" lon="5.99449">
        <ele>2365.6</ele>
        <time>2022-01-16T11:02:55Z</time>
      </trkpt>
      <trkpt lat="45.18789" lon="5.99448">
        <ele>2366</ele>
        <time>2022-01-16T11:02:57Z</time>
      </trkpt>
      <trkpt lat="45.1879" lon="5.99447">
        <ele>2366.2</ele>
        <time>2022-01-16T11:02:58Z</time>
      </trkpt>
      <trkpt lat="45.18792" lon="5.99446">
        <ele>2366.8</ele>
        <time>2022-01-16T11:03:01Z</time>
      </trkpt>
      <trkpt lat="45.18794" lon="5.99444">
        <ele>2367.2</ele>
        <time>2022-01-16T11:03:03Z</time>
      </trkpt>
      <trkpt lat="45.18797" lon="5.99444">
        <ele>2367.8</ele>
        <time>2022-01-16T11:03:05Z</time>
      </trkpt>
      <trkpt lat="45.18803" lon="5.99442">
        <ele>2369.2</ele>
        <time>2022-01-16T11:03:11Z</time>
      </trkpt>
      <trkpt lat="45.18806" lon="5.99442">
        <ele>2370</ele>
        <time>2022-01-16T11:03:15Z</time>
      </trkpt>
      <trkpt lat="45.18808" lon="5.99442">
        <ele>2370.6</ele>
        <time>2022-01-16T11:03:17Z</time>
      </trkpt>
      <trkpt lat="45.1881" lon="5.9944">
        <ele>2371.2</ele>
        <time>2022-01-16T11:03:19Z</time>
      </trkpt>
      <trkpt lat="45.18812" lon="5.99438">
        <ele>2371.8</ele>
        <time>2022-01-16T11:03:21Z</time>
      </trkpt>
      <trkpt lat="45.18813" lon="5.99437">
        <ele>2371.8</ele>
        <time>2022-01-16T11:03:22Z</time>
      </trkpt>
      <trkpt lat="45.18814" lon="5.99438">
        <ele>2373</ele>
        <time>2022-01-16T11:03:25Z</time>
      </trkpt>
      <trkpt lat="45.18814" lon="5.99437">
        <ele>2373.4</ele>
        <time>2022-01-16T11:03:27Z</time>
      </trkpt>
      <trkpt lat="45.18811" lon="5.99435">
        <ele>2374.2</ele>
        <time>2022-01-16T11:03:32Z</time>
      </trkpt>
      <trkpt lat="45.1881" lon="5.99434">
        <ele>2374.6</ele>
        <time>2022-01-16T11:03:34Z</time>
      </trkpt>
      <trkpt lat="45.18809" lon="5.9943">
        <ele>2375.8</ele>
        <time>2022-01-16T11:03:37Z</time>
      </trkpt>
      <trkpt lat="45.18808" lon="5.99428">
        <ele>2376</ele>
        <time>2022-01-16T11:03:39Z</time>
      </trkpt>
      <trkpt lat="45.18805" lon="5.99425">
        <ele>2376.8</ele>
        <time>2022-01-16T11:03:43Z</time>
      </trkpt>
      <trkpt lat="45.18801" lon="5.99421">
        <ele>2378</ele>
        <time>2022-01-16T11:03:48Z</time>
      </trkpt>
      <trkpt lat="45.18796" lon="5.99418">
        <ele>2378.6</ele>
        <time>2022-01-16T11:03:53Z</time>
      </trkpt>
      <trkpt lat="45.18794" lon="5.99417">
        <ele>2379</ele>
        <time>2022-01-16T11:03:55Z</time>
      </trkpt>
      <trkpt lat="45.18792" lon="5.99415">
        <ele>2380.2</ele>
        <time>2022-01-16T11:03:59Z</time>
      </trkpt>
      <trkpt lat="45.18792" lon="5.99414">
        <ele>2380.6</ele>
        <time>2022-01-16T11:04:00Z</time>
      </trkpt>
      <trkpt lat="45.18789" lon="5.99411">
        <ele>2381.8</ele>
        <time>2022-01-16T11:04:04Z</time>
      </trkpt>
      <trkpt lat="45.18787" lon="5.9941">
        <ele>2382.2</ele>
        <time>2022-01-16T11:04:06Z</time>
      </trkpt>
      <trkpt lat="45.18786" lon="5.9941">
        <ele>2382.4</ele>
        <time>2022-01-16T11:04:07Z</time>
      </trkpt>
      <trkpt lat="45.18785" lon="5.99411">
        <ele>2383</ele>
        <time>2022-01-16T11:04:09Z</time>
      </trkpt>
      <trkpt lat="45.18782" lon="5.99411">
        <ele>2383.8</ele>
        <time>2022-01-16T11:04:12Z</time>
      </trkpt>
      <trkpt lat="45.18781" lon="5.99411">
        <ele>2384</ele>
        <time>2022-01-16T11:04:13Z</time>
      </trkpt>
      <trkpt lat="45.1878" lon="5.9941">
        <ele>2385</ele>
        <time>2022-01-16T11:04:15Z</time>
      </trkpt>
      <trkpt lat="45.18778" lon="5.99409">
        <ele>2385</ele>
        <time>2022-01-16T11:04:17Z</time>
      </trkpt>
      <trkpt lat="45.18775" lon="5.99408">
        <ele>2386</ele>
        <time>2022-01-16T11:04:20Z</time>
      </trkpt>
      <trkpt lat="45.18769" lon="5.99406">
        <ele>2387.4</ele>
        <time>2022-01-16T11:04:26Z</time>
      </trkpt>
      <trkpt lat="45.18767" lon="5.99405">
        <ele>2388.4</ele>
        <time>2022-01-16T11:04:28Z</time>
      </trkpt>
      <trkpt lat="45.18763" lon="5.99404">
        <ele>2389.6</ele>
        <time>2022-01-16T11:04:33Z</time>
      </trkpt>
      <trkpt lat="45.18761" lon="5.99404">
        <ele>2389.6</ele>
        <time>2022-01-16T11:04:35Z</time>
      </trkpt>
      <trkpt lat="45.18756" lon="5.994">
        <ele>2390.8</ele>
        <time>2022-01-16T11:04:41Z</time>
      </trkpt>
      <trkpt lat="45.18754" lon="5.99398">
        <ele>2390.8</ele>
        <time>2022-01-16T11:04:44Z</time>
      </trkpt>
      <trkpt lat="45.18751" lon="5.9939">
        <ele>2391.8</ele>
        <time>2022-01-16T11:04:50Z</time>
      </trkpt>
      <trkpt lat="45.1875" lon="5.99389">
        <ele>2392</ele>
        <time>2022-01-16T11:04:51Z</time>
      </trkpt>
      <trkpt lat="45.1875" lon="5.99388">
        <ele>2392.4</ele>
        <time>2022-01-16T11:04:52Z</time>
      </trkpt>
      <trkpt lat="45.1875" lon="5.99387">
        <ele>2393.2</ele>
        <time>2022-01-16T11:04:53Z</time>
      </trkpt>
      <trkpt lat="45.1875" lon="5.99383">
        <ele>2394.4</ele>
        <time>2022-01-16T11:04:58Z</time>
      </trkpt>
      <trkpt lat="45.18751" lon="5.9938">
        <ele>2394.8</ele>
        <time>2022-01-16T11:05:00Z</time>
      </trkpt>
      <trkpt lat="45.18751" lon="5.99378">
        <ele>2395.4</ele>
        <time>2022-01-16T11:05:02Z</time>
      </trkpt>
      <trkpt lat="45.18751" lon="5.99375">
        <ele>2396.6</ele>
        <time>2022-01-16T11:05:05Z</time>
      </trkpt>
      <trkpt lat="45.18752" lon="5.99372">
        <ele>2397.4</ele>
        <time>2022-01-16T11:05:08Z</time>
      </trkpt>
      <trkpt lat="45.18752" lon="5.99371">
        <ele>2397.6</ele>
        <time>2022-01-16T11:05:09Z</time>
      </trkpt>
      <trkpt lat="45.18751" lon="5.99368">
        <ele>2398.6</ele>
        <time>2022-01-16T11:05:12Z</time>
      </trkpt>
      <trkpt lat="45.1875" lon="5.99366">
        <ele>2400</ele>
        <time>2022-01-16T11:05:15Z</time>
      </trkpt>
      <trkpt lat="45.1875" lon="5.99366">
        <ele>2400.2</ele>
        <time>2022-01-16T11:05:16Z</time>
      </trkpt>
      <trkpt lat="45.18749" lon="5.99366">
        <ele>2401.2</ele>
        <time>2022-01-16T11:05:18Z</time>
      </trkpt>
      <trkpt lat="45.18749" lon="5.99365">
        <ele>2401.2</ele>
        <time>2022-01-16T11:05:19Z</time>
      </trkpt>
      <trkpt lat="45.18747" lon="5.99364">
        <ele>2401.6</ele>
        <time>2022-01-16T11:05:22Z</time>
      </trkpt>
      <trkpt lat="45.18746" lon="5.99364">
        <ele>2401.8</ele>
        <time>2022-01-16T11:05:23Z</time>
      </trkpt>
      <trkpt lat="45.18744" lon="5.99364">
        <ele>2402.2</ele>
        <time>2022-01-16T11:05:25Z</time>
      </trkpt>
      <trkpt lat="45.18743" lon="5.99364">
        <ele>2403.2</ele>
        <time>2022-01-16T11:05:26Z</time>
      </trkpt>
      <trkpt lat="45.18738" lon="5.99364">
        <ele>2404.8</ele>
        <time>2022-01-16T11:05:31Z</time>
      </trkpt>
      <trkpt lat="45.18734" lon="5.99361">
        <ele>2405.8</ele>
        <time>2022-01-16T11:05:37Z</time>
      </trkpt>
      <trkpt lat="45.18733" lon="5.9936">
        <ele>2406.2</ele>
        <time>2022-01-16T11:05:38Z</time>
      </trkpt>
      <trkpt lat="45.18732" lon="5.9936">
        <ele>2406.6</ele>
        <time>2022-01-16T11:05:39Z</time>
      </trkpt>
      <trkpt lat="45.18728" lon="5.99358">
        <ele>2407.6</ele>
        <time>2022-01-16T11:05:43Z</time>
      </trkpt>
      <trkpt lat="45.18724" lon="5.99357">
        <ele>2408.4</ele>
        <time>2022-01-16T11:05:46Z</time>
      </trkpt>
      <trkpt lat="45.18723" lon="5.99356">
        <ele>2408.6</ele>
        <time>2022-01-16T11:05:48Z</time>
      </trkpt>
      <trkpt lat="45.18719" lon="5.99354">
        <ele>2409.2</ele>
        <time>2022-01-16T11:05:52Z</time>
      </trkpt>
      <trkpt lat="45.18717" lon="5.99353">
        <ele>2409.6</ele>
        <time>2022-01-16T11:05:54Z</time>
      </trkpt>
      <trkpt lat="45.18715" lon="5.99351">
        <ele>2410.6</ele>
        <time>2022-01-16T11:05:57Z</time>
      </trkpt>
      <trkpt lat="45.18714" lon="5.9935">
        <ele>2410.6</ele>
        <time>2022-01-16T11:05:58Z</time>
      </trkpt>
      <trkpt lat="45.18709" lon="5.99345">
        <ele>2411.6</ele>
        <time>2022-01-16T11:06:04Z</time>
      </trkpt>
      <trkpt lat="45.18708" lon="5.99344">
        <ele>2411.6</ele>
        <time>2022-01-16T11:06:05Z</time>
      </trkpt>
      <trkpt lat="45.18707" lon="5.99343">
        <ele>2412</ele>
        <time>2022-01-16T11:06:06Z</time>
      </trkpt>
      <trkpt lat="45.18705" lon="5.99341">
        <ele>2412.8</ele>
        <time>2022-01-16T11:06:09Z</time>
      </trkpt>
      <trkpt lat="45.18703" lon="5.99336">
        <ele>2414.2</ele>
        <time>2022-01-16T11:06:14Z</time>
      </trkpt>
      <trkpt lat="45.18702" lon="5.99331">
        <ele>2415.4</ele>
        <time>2022-01-16T11:06:18Z</time>
      </trkpt>
      <trkpt lat="45.18701" lon="5.99327">
        <ele>2416.8</ele>
        <time>2022-01-16T11:06:22Z</time>
      </trkpt>
      <trkpt lat="45.187" lon="5.99326">
        <ele>2417</ele>
        <time>2022-01-16T11:06:23Z</time>
      </trkpt>
      <trkpt lat="45.187" lon="5.99325">
        <ele>2417.6</ele>
        <time>2022-01-16T11:06:24Z</time>
      </trkpt>
      <trkpt lat="45.18699" lon="5.99321">
        <ele>2418</ele>
        <time>2022-01-16T11:06:27Z</time>
      </trkpt>
      <trkpt lat="45.18698" lon="5.9932">
        <ele>2418.6</ele>
        <time>2022-01-16T11:06:30Z</time>
      </trkpt>
      <trkpt lat="45.18698" lon="5.99319">
        <ele>2419.2</ele>
        <time>2022-01-16T11:06:31Z</time>
      </trkpt>
      <trkpt lat="45.18697" lon="5.99318">
        <ele>2419.6</ele>
        <time>2022-01-16T11:06:33Z</time>
      </trkpt>
      <trkpt lat="45.18694" lon="5.99312">
        <ele>2420.4</ele>
        <time>2022-01-16T11:06:38Z</time>
      </trkpt>
      <trkpt lat="45.18692" lon="5.9931">
        <ele>2421.2</ele>
        <time>2022-01-16T11:06:41Z</time>
      </trkpt>
      <trkpt lat="45.18691" lon="5.99308">
        <ele>2421.4</ele>
        <time>2022-01-16T11:06:42Z</time>
      </trkpt>
      <trkpt lat="45.18688" lon="5.99304">
        <ele>2422.4</ele>
        <time>2022-01-16T11:06:46Z</time>
      </trkpt>
      <trkpt lat="45.18688" lon="5.99304">
        <ele>2422.6</ele>
        <time>2022-01-16T11:06:47Z</time>
      </trkpt>
      <trkpt lat="45.18687" lon="5.99301">
        <ele>2422.6</ele>
        <time>2022-01-16T11:06:49Z</time>
      </trkpt>
      <trkpt lat="45.18685" lon="5.993">
        <ele>2423.4</ele>
        <time>2022-01-16T11:06:52Z</time>
      </trkpt>
      <trkpt lat="45.18683" lon="5.99298">
        <ele>2423.8</ele>
        <time>2022-01-16T11:06:54Z</time>
      </trkpt>
      <trkpt lat="45.18681" lon="5.99296">
        <ele>2425</ele>
        <time>2022-01-16T11:06:58Z</time>
      </trkpt>
      <trkpt lat="45.1868" lon="5.99296">
        <ele>2425</ele>
        <time>2022-01-16T11:06:59Z</time>
      </trkpt>
      <trkpt lat="45.18678" lon="5.99293">
        <ele>2426</ele>
        <time>2022-01-16T11:07:02Z</time>
      </trkpt>
      <trkpt lat="45.18676" lon="5.99291">
        <ele>2427</ele>
        <time>2022-01-16T11:07:06Z</time>
      </trkpt>
      <trkpt lat="45.18675" lon="5.9929">
        <ele>2427</ele>
        <time>2022-01-16T11:07:07Z</time>
      </trkpt>
      <trkpt lat="45.18672" lon="5.99286">
        <ele>2428</ele>
        <time>2022-01-16T11:07:11Z</time>
      </trkpt>
      <trkpt lat="45.18671" lon="5.99286">
        <ele>2428.4</ele>
        <time>2022-01-16T11:07:12Z</time>
      </trkpt>
      <trkpt lat="45.1867" lon="5.99283">
        <ele>2428.8</ele>
        <time>2022-01-16T11:07:14Z</time>
      </trkpt>
      <trkpt lat="45.18668" lon="5.99281">
        <ele>2429.8</ele>
        <time>2022-01-16T11:07:17Z</time>
      </trkpt>
      <trkpt lat="45.18668" lon="5.9928">
        <ele>2430</ele>
        <time>2022-01-16T11:07:18Z</time>
      </trkpt>
      <trkpt lat="45.18667" lon="5.99279">
        <ele>2430.2</ele>
        <time>2022-01-16T11:07:19Z</time>
      </trkpt>
      <trkpt lat="45.18665" lon="5.99279">
        <ele>2431</ele>
        <time>2022-01-16T11:07:22Z</time>
      </trkpt>
      <trkpt lat="45.18663" lon="5.99278">
        <ele>2431.8</ele>
        <time>2022-01-16T11:07:26Z</time>
      </trkpt>
      <trkpt lat="45.18661" lon="5.99277">
        <ele>2432.4</ele>
        <time>2022-01-16T11:07:29Z</time>
      </trkpt>
      <trkpt lat="45.18656" lon="5.99278">
        <ele>2433</ele>
        <time>2022-01-16T11:07:32Z</time>
      </trkpt>
      <trkpt lat="45.18656" lon="5.99277">
        <ele>2433.4</ele>
        <time>2022-01-16T11:07:33Z</time>
      </trkpt>
      <trkpt lat="45.18653" lon="5.99277">
        <ele>2434.4</ele>
        <time>2022-01-16T11:07:36Z</time>
      </trkpt>
      <trkpt lat="45.18649" lon="5.99279">
        <ele>2435.4</ele>
        <time>2022-01-16T11:07:40Z</time>
      </trkpt>
      <trkpt lat="45.18648" lon="5.99278">
        <ele>2435.8</ele>
        <time>2022-01-16T11:07:41Z</time>
      </trkpt>
      <trkpt lat="45.18643" lon="5.99278">
        <ele>2437</ele>
        <time>2022-01-16T11:07:47Z</time>
      </trkpt>
      <trkpt lat="45.18642" lon="5.99275">
        <ele>2438</ele>
        <time>2022-01-16T11:07:52Z</time>
      </trkpt>
      <trkpt lat="45.18642" lon="5.99274">
        <ele>2438.2</ele>
        <time>2022-01-16T11:07:53Z</time>
      </trkpt>
      <trkpt lat="45.18644" lon="5.99273">
        <ele>2439.2</ele>
        <time>2022-01-16T11:07:56Z</time>
      </trkpt>
      <trkpt lat="45.18645" lon="5.99267">
        <ele>2439.8</ele>
        <time>2022-01-16T11:08:00Z</time>
      </trkpt>
      <trkpt lat="45.18645" lon="5.99265">
        <ele>2440.2</ele>
        <time>2022-01-16T11:08:01Z</time>
      </trkpt>
      <trkpt lat="45.18645" lon="5.99264">
        <ele>2440.8</ele>
        <time>2022-01-16T11:08:02Z</time>
      </trkpt>
      <trkpt lat="45.18645" lon="5.9926">
        <ele>2441.2</ele>
        <time>2022-01-16T11:08:05Z</time>
      </trkpt>
      <trkpt lat="45.18646" lon="5.99258">
        <ele>2441.8</ele>
        <time>2022-01-16T11:08:07Z</time>
      </trkpt>
      <trkpt lat="45.18647" lon="5.99253">
        <ele>2443.4</ele>
        <time>2022-01-16T11:08:12Z</time>
      </trkpt>
      <trkpt lat="45.18647" lon="5.99254">
        <ele>2444.4</ele>
        <time>2022-01-16T11:08:13Z</time>
      </trkpt>
      <trkpt lat="45.18647" lon="5.99256">
        <ele>2444.6</ele>
        <time>2022-01-16T11:08:15Z</time>
      </trkpt>
      <trkpt lat="45.18645" lon="5.99256">
        <ele>2445.2</ele>
        <time>2022-01-16T11:08:18Z</time>
      </trkpt>
      <trkpt lat="45.18645" lon="5.99256">
        <ele>2445.6</ele>
        <time>2022-01-16T11:08:19Z</time>
      </trkpt>
      <trkpt lat="45.18641" lon="5.99256">
        <ele>2446.8</ele>
        <time>2022-01-16T11:08:24Z</time>
      </trkpt>
      <trkpt lat="45.1864" lon="5.99254">
        <ele>2447.4</ele>
        <time>2022-01-16T11:08:26Z</time>
      </trkpt>
      <trkpt lat="45.18639" lon="5.99253">
        <ele>2448.2</ele>
        <time>2022-01-16T11:08:28Z</time>
      </trkpt>
      <trkpt lat="45.18634" lon="5.99255">
        <ele>2449.4</ele>
        <time>2022-01-16T11:08:34Z</time>
      </trkpt>
      <trkpt lat="45.18634" lon="5.99255">
        <ele>2449.6</ele>
        <time>2022-01-16T11:08:35Z</time>
      </trkpt>
      <trkpt lat="45.1863" lon="5.99255">
        <ele>2450.8</ele>
        <time>2022-01-16T11:08:39Z</time>
      </trkpt>
      <trkpt lat="45.18628" lon="5.99255">
        <ele>2451.2</ele>
        <time>2022-01-16T11:08:41Z</time>
      </trkpt>
      <trkpt lat="45.18627" lon="5.99255">
        <ele>2451.4</ele>
        <time>2022-01-16T11:08:42Z</time>
      </trkpt>
      <trkpt lat="45.18626" lon="5.99254">
        <ele>2452</ele>
        <time>2022-01-16T11:08:44Z</time>
      </trkpt>
      <trkpt lat="45.18623" lon="5.99253">
        <ele>2453.2</ele>
        <time>2022-01-16T11:08:49Z</time>
      </trkpt>
      <trkpt lat="45.1862" lon="5.99251">
        <ele>2454.8</ele>
        <time>2022-01-16T11:08:53Z</time>
      </trkpt>
      <trkpt lat="45.18618" lon="5.9925">
        <ele>2455.2</ele>
        <time>2022-01-16T11:08:56Z</time>
      </trkpt>
      <trkpt lat="45.18617" lon="5.9925">
        <ele>2455.8</ele>
        <time>2022-01-16T11:08:57Z</time>
      </trkpt>
      <trkpt lat="45.18616" lon="5.9925">
        <ele>2456</ele>
        <time>2022-01-16T11:08:58Z</time>
      </trkpt>
      <trkpt lat="45.18615" lon="5.99249">
        <ele>2456.4</ele>
        <time>2022-01-16T11:09:00Z</time>
      </trkpt>
      <trkpt lat="45.18615" lon="5.99247">
        <ele>2457</ele>
        <time>2022-01-16T11:09:04Z</time>
      </trkpt>
      <trkpt lat="45.18617" lon="5.99242">
        <ele>2458.2</ele>
        <time>2022-01-16T11:09:09Z</time>
      </trkpt>
      <trkpt lat="45.18619" lon="5.99241">
        <ele>2458.8</ele>
        <time>2022-01-16T11:09:15Z</time>
      </trkpt>
      <trkpt lat="45.18621" lon="5.99237">
        <ele>2459</ele>
        <time>2022-01-16T11:09:21Z</time>
      </trkpt>
      <trkpt lat="45.18621" lon="5.99237">
        <ele>2459.4</ele>
        <time>2022-01-16T11:09:22Z</time>
      </trkpt>
      <trkpt lat="45.18623" lon="5.99233">
        <ele>2460.4</ele>
        <time>2022-01-16T11:09:26Z</time>
      </trkpt>
      <trkpt lat="45.18623" lon="5.9923">
        <ele>2461.2</ele>
        <time>2022-01-16T11:09:29Z</time>
      </trkpt>
      <trkpt lat="45.18624" lon="5.99226">
        <ele>2461.6</ele>
        <time>2022-01-16T11:09:31Z</time>
      </trkpt>
      <trkpt lat="45.18625" lon="5.99224">
        <ele>2463</ele>
        <time>2022-01-16T11:09:34Z</time>
      </trkpt>
      <trkpt lat="45.18625" lon="5.99225">
        <ele>2463.4</ele>
        <time>2022-01-16T11:09:35Z</time>
      </trkpt>
      <trkpt lat="45.18624" lon="5.99225">
        <ele>2464</ele>
        <time>2022-01-16T11:09:37Z</time>
      </trkpt>
      <trkpt lat="45.1862" lon="5.99225">
        <ele>2465.2</ele>
        <time>2022-01-16T11:09:42Z</time>
      </trkpt>
      <trkpt lat="45.1862" lon="5.99224">
        <ele>2465.2</ele>
        <time>2022-01-16T11:09:43Z</time>
      </trkpt>
      <trkpt lat="45.18616" lon="5.99225">
        <ele>2466.6</ele>
        <time>2022-01-16T11:09:46Z</time>
      </trkpt>
      <trkpt lat="45.18615" lon="5.99223">
        <ele>2467.6</ele>
        <time>2022-01-16T11:09:50Z</time>
      </trkpt>
      <trkpt lat="45.1861" lon="5.99223">
        <ele>2468.8</ele>
        <time>2022-01-16T11:09:56Z</time>
      </trkpt>
      <trkpt lat="45.18608" lon="5.99224">
        <ele>2469.4</ele>
        <time>2022-01-16T11:09:58Z</time>
      </trkpt>
      <trkpt lat="45.18606" lon="5.99223">
        <ele>2470.2</ele>
        <time>2022-01-16T11:10:00Z</time>
      </trkpt>
      <trkpt lat="45.186" lon="5.99224">
        <ele>2471.2</ele>
        <time>2022-01-16T11:10:06Z</time>
      </trkpt>
      <trkpt lat="45.18598" lon="5.99218">
        <ele>2472.8</ele>
        <time>2022-01-16T11:10:12Z</time>
      </trkpt>
      <trkpt lat="45.18597" lon="5.99217">
        <ele>2473.2</ele>
        <time>2022-01-16T11:10:14Z</time>
      </trkpt>
      <trkpt lat="45.18593" lon="5.99215">
        <ele>2474</ele>
        <time>2022-01-16T11:10:19Z</time>
      </trkpt>
      <trkpt lat="45.18593" lon="5.99213">
        <ele>2474.4</ele>
        <time>2022-01-16T11:10:21Z</time>
      </trkpt>
      <trkpt lat="45.18595" lon="5.99207">
        <ele>2475.2</ele>
        <time>2022-01-16T11:10:24Z</time>
      </trkpt>
      <trkpt lat="45.18595" lon="5.99204">
        <ele>2475.2</ele>
        <time>2022-01-16T11:10:26Z</time>
      </trkpt>
      <trkpt lat="45.18595" lon="5.99201">
        <ele>2475.2</ele>
        <time>2022-01-16T11:10:28Z</time>
      </trkpt>
      <trkpt lat="45.18596" lon="5.99197">
        <ele>2476.4</ele>
        <time>2022-01-16T11:10:31Z</time>
      </trkpt>
      <trkpt lat="45.18596" lon="5.99196">
        <ele>2476.8</ele>
        <time>2022-01-16T11:10:32Z</time>
      </trkpt>
      <trkpt lat="45.18597" lon="5.99187">
        <ele>2477.6</ele>
        <time>2022-01-16T11:10:36Z</time>
      </trkpt>
      <trkpt lat="45.18597" lon="5.99187">
        <ele>2477.6</ele>
        <time>2022-01-16T11:10:37Z</time>
      </trkpt>
      <trkpt lat="45.18599" lon="5.99184">
        <ele>2478.8</ele>
        <time>2022-01-16T11:10:40Z</time>
      </trkpt>
      <trkpt lat="45.186" lon="5.99184">
        <ele>2478.8</ele>
        <time>2022-01-16T11:10:42Z</time>
      </trkpt>
      <trkpt lat="45.186" lon="5.99184">
        <ele>2480</ele>
        <time>2022-01-16T11:10:43Z</time>
      </trkpt>
      <trkpt lat="45.18601" lon="5.99182">
        <ele>2481.2</ele>
        <time>2022-01-16T11:10:46Z</time>
      </trkpt>
      <trkpt lat="45.18602" lon="5.99178">
        <ele>2481.2</ele>
        <time>2022-01-16T11:10:48Z</time>
      </trkpt>
      <trkpt lat="45.18605" lon="5.99177">
        <ele>2482</ele>
        <time>2022-01-16T11:10:51Z</time>
      </trkpt>
      <trkpt lat="45.18606" lon="5.99176">
        <ele>2482</ele>
        <time>2022-01-16T11:10:53Z</time>
      </trkpt>
      <trkpt lat="45.18606" lon="5.99174">
        <ele>2482.8</ele>
        <time>2022-01-16T11:10:54Z</time>
      </trkpt>
      <trkpt lat="45.18609" lon="5.9917">
        <ele>2484.2</ele>
        <time>2022-01-16T11:10:59Z</time>
      </trkpt>
      <trkpt lat="45.1861" lon="5.9917">
        <ele>2484.4</ele>
        <time>2022-01-16T11:11:00Z</time>
      </trkpt>
      <trkpt lat="45.1861" lon="5.99168">
        <ele>2484.4</ele>
        <time>2022-01-16T11:11:01Z</time>
      </trkpt>
      <trkpt lat="45.18612" lon="5.99166">
        <ele>2485.4</ele>
        <time>2022-01-16T11:11:03Z</time>
      </trkpt>
      <trkpt lat="45.18614" lon="5.99164">
        <ele>2486.2</ele>
        <time>2022-01-16T11:11:06Z</time>
      </trkpt>
      <trkpt lat="45.18614" lon="5.99163">
        <ele>2486.8</ele>
        <time>2022-01-16T11:11:07Z</time>
      </trkpt>
      <trkpt lat="45.18615" lon="5.99161">
        <ele>2487.8</ele>
        <time>2022-01-16T11:11:10Z</time>
      </trkpt>
      <trkpt lat="45.18615" lon="5.99161">
        <ele>2488</ele>
        <time>2022-01-16T11:11:11Z</time>
      </trkpt>
      <trkpt lat="45.18616" lon="5.99161">
        <ele>2489.6</ele>
        <time>2022-01-16T11:11:13Z</time>
      </trkpt>
      <trkpt lat="45.18617" lon="5.99164">
        <ele>2490.4</ele>
        <time>2022-01-16T11:11:16Z</time>
      </trkpt>
      <trkpt lat="45.18616" lon="5.99164">
        <ele>2490.8</ele>
        <time>2022-01-16T11:11:18Z</time>
      </trkpt>
      <trkpt lat="45.18615" lon="5.99162">
        <ele>2492</ele>
        <time>2022-01-16T11:11:21Z</time>
      </trkpt>
      <trkpt lat="45.18614" lon="5.99163">
        <ele>2492.2</ele>
        <time>2022-01-16T11:11:23Z</time>
      </trkpt>
      <trkpt lat="45.18613" lon="5.99162">
        <ele>2492.4</ele>
        <time>2022-01-16T11:11:25Z</time>
      </trkpt>
      <trkpt lat="45.18611" lon="5.99162">
        <ele>2493</ele>
        <time>2022-01-16T11:11:27Z</time>
      </trkpt>
      <trkpt lat="45.1861" lon="5.9916">
        <ele>2494.4</ele>
        <time>2022-01-16T11:11:30Z</time>
      </trkpt>
      <trkpt lat="45.18609" lon="5.99158">
        <ele>2495</ele>
        <time>2022-01-16T11:11:32Z</time>
      </trkpt>
      <trkpt lat="45.18606" lon="5.99158">
        <ele>2496</ele>
        <time>2022-01-16T11:11:37Z</time>
      </trkpt>
      <trkpt lat="45.18605" lon="5.99157">
        <ele>2496.8</ele>
        <time>2022-01-16T11:11:40Z</time>
      </trkpt>
      <trkpt lat="45.18603" lon="5.99159">
        <ele>2497.4</ele>
        <time>2022-01-16T11:11:43Z</time>
      </trkpt>
      <trkpt lat="45.18601" lon="5.99158">
        <ele>2498.4</ele>
        <time>2022-01-16T11:11:45Z</time>
      </trkpt>
      <trkpt lat="45.18598" lon="5.99159">
        <ele>2498.8</ele>
        <time>2022-01-16T11:11:48Z</time>
      </trkpt>
      <trkpt lat="45.18594" lon="5.99156">
        <ele>2500.4</ele>
        <time>2022-01-16T11:11:54Z</time>
      </trkpt>
      <trkpt lat="45.18594" lon="5.99155">
        <ele>2500.6</ele>
        <time>2022-01-16T11:11:55Z</time>
      </trkpt>
      <trkpt lat="45.18594" lon="5.9915">
        <ele>2501.2</ele>
        <time>2022-01-16T11:12:00Z</time>
      </trkpt>
      <trkpt lat="45.18594" lon="5.9915">
        <ele>2501.6</ele>
        <time>2022-01-16T11:12:03Z</time>
      </trkpt>
      <trkpt lat="45.18595" lon="5.99149">
        <ele>2501.8</ele>
        <time>2022-01-16T11:12:04Z</time>
      </trkpt>
      <trkpt lat="45.18597" lon="5.99146">
        <ele>2502.8</ele>
        <time>2022-01-16T11:12:07Z</time>
      </trkpt>
      <trkpt lat="45.18598" lon="5.99144">
        <ele>2503</ele>
        <time>2022-01-16T11:12:10Z</time>
      </trkpt>
      <trkpt lat="45.186" lon="5.99139">
        <ele>2503.8</ele>
        <time>2022-01-16T11:12:13Z</time>
      </trkpt>
      <trkpt lat="45.186" lon="5.99138">
        <ele>2504.2</ele>
        <time>2022-01-16T11:12:14Z</time>
      </trkpt>
      <trkpt lat="45.18601" lon="5.99135">
        <ele>2505.2</ele>
        <time>2022-01-16T11:12:16Z</time>
      </trkpt>
      <trkpt lat="45.18601" lon="5.99133">
        <ele>2505.4</ele>
        <time>2022-01-16T11:12:17Z</time>
      </trkpt>
      <trkpt lat="45.18602" lon="5.99131">
        <ele>2505.6</ele>
        <time>2022-01-16T11:12:19Z</time>
      </trkpt>
      <trkpt lat="45.18602" lon="5.99126">
        <ele>2506.6</ele>
        <time>2022-01-16T11:12:22Z</time>
      </trkpt>
      <trkpt lat="45.18602" lon="5.99116">
        <ele>2507.8</ele>
        <time>2022-01-16T11:12:27Z</time>
      </trkpt>
      <trkpt lat="45.18603" lon="5.99112">
        <ele>2508.4</ele>
        <time>2022-01-16T11:12:30Z</time>
      </trkpt>
      <trkpt lat="45.18603" lon="5.99112">
        <ele>2508.8</ele>
        <time>2022-01-16T11:12:31Z</time>
      </trkpt>
      <trkpt lat="45.18603" lon="5.99112">
        <ele>2508.8</ele>
        <time>2022-01-16T11:12:32Z</time>
      </trkpt>
      <trkpt lat="45.18603" lon="5.99112">
        <ele>2510</ele>
        <time>2022-01-16T11:12:34Z</time>
      </trkpt>
      <trkpt lat="45.18601" lon="5.99111">
        <ele>2511.2</ele>
        <time>2022-01-16T11:12:38Z</time>
      </trkpt>
      <trkpt lat="45.18598" lon="5.99111">
        <ele>2512.4</ele>
        <time>2022-01-16T11:12:43Z</time>
      </trkpt>
      <trkpt lat="45.18597" lon="5.99113">
        <ele>2513.4</ele>
        <time>2022-01-16T11:12:47Z</time>
      </trkpt>
      <trkpt lat="45.18596" lon="5.99114">
        <ele>2513.6</ele>
        <time>2022-01-16T11:12:48Z</time>
      </trkpt>
      <trkpt lat="45.18595" lon="5.99109">
        <ele>2514.4</ele>
        <time>2022-01-16T11:12:52Z</time>
      </trkpt>
      <trkpt lat="45.18595" lon="5.99108">
        <ele>2514.8</ele>
        <time>2022-01-16T11:12:53Z</time>
      </trkpt>
      <trkpt lat="45.18596" lon="5.99107">
        <ele>2514.8</ele>
        <time>2022-01-16T11:12:54Z</time>
      </trkpt>
      <trkpt lat="45.18596" lon="5.99106">
        <ele>2515.2</ele>
        <time>2022-01-16T11:12:55Z</time>
      </trkpt>
      <trkpt lat="45.18597" lon="5.99102">
        <ele>2515.4</ele>
        <time>2022-01-16T11:12:57Z</time>
      </trkpt>
      <trkpt lat="45.18598" lon="5.99101">
        <ele>2515.8</ele>
        <time>2022-01-16T11:12:58Z</time>
      </trkpt>
      <trkpt lat="45.18599" lon="5.99101">
        <ele>2516.4</ele>
        <time>2022-01-16T11:13:01Z</time>
      </trkpt>
      <trkpt lat="45.18598" lon="5.99101">
        <ele>2517.4</ele>
        <time>2022-01-16T11:13:03Z</time>
      </trkpt>
      <trkpt lat="45.18597" lon="5.99099">
        <ele>2518</ele>
        <time>2022-01-16T11:13:06Z</time>
      </trkpt>
      <trkpt lat="45.18596" lon="5.99098">
        <ele>2518.4</ele>
        <time>2022-01-16T11:13:08Z</time>
      </trkpt>
      <trkpt lat="45.18594" lon="5.99096">
        <ele>2520</ele>
        <time>2022-01-16T11:13:11Z</time>
      </trkpt>
      <trkpt lat="45.18593" lon="5.99094">
        <ele>2520.2</ele>
        <time>2022-01-16T11:13:13Z</time>
      </trkpt>
      <trkpt lat="45.1859" lon="5.99093">
        <ele>2521.2</ele>
        <time>2022-01-16T11:13:18Z</time>
      </trkpt>
      <trkpt lat="45.18589" lon="5.99093">
        <ele>2521.8</ele>
        <time>2022-01-16T11:13:20Z</time>
      </trkpt>
      <trkpt lat="45.1859" lon="5.99091">
        <ele>2522.2</ele>
        <time>2022-01-16T11:13:22Z</time>
      </trkpt>
      <trkpt lat="45.18592" lon="5.99086">
        <ele>2522.4</ele>
        <time>2022-01-16T11:13:24Z</time>
      </trkpt>
      <trkpt lat="45.18592" lon="5.99084">
        <ele>2522.6</ele>
        <time>2022-01-16T11:13:25Z</time>
      </trkpt>
      <trkpt lat="45.18593" lon="5.99078">
        <ele>2523.4</ele>
        <time>2022-01-16T11:13:29Z</time>
      </trkpt>
      <trkpt lat="45.18594" lon="5.99072">
        <ele>2524.4</ele>
        <time>2022-01-16T11:13:33Z</time>
      </trkpt>
      <trkpt lat="45.18595" lon="5.99067">
        <ele>2525.2</ele>
        <time>2022-01-16T11:13:37Z</time>
      </trkpt>
      <trkpt lat="45.18596" lon="5.99065">
        <ele>2525.6</ele>
        <time>2022-01-16T11:13:38Z</time>
      </trkpt>
      <trkpt lat="45.18597" lon="5.99063">
        <ele>2526.6</ele>
        <time>2022-01-16T11:13:40Z</time>
      </trkpt>
      <trkpt lat="45.18598" lon="5.99061">
        <ele>2526.8</ele>
        <time>2022-01-16T11:13:41Z</time>
      </trkpt>
      <trkpt lat="45.18599" lon="5.9906">
        <ele>2527</ele>
        <time>2022-01-16T11:13:42Z</time>
      </trkpt>
      <trkpt lat="45.18601" lon="5.99059">
        <ele>2527.6</ele>
        <time>2022-01-16T11:13:44Z</time>
      </trkpt>
      <trkpt lat="45.18603" lon="5.99055">
        <ele>2528</ele>
        <time>2022-01-16T11:13:47Z</time>
      </trkpt>
      <trkpt lat="45.18602" lon="5.99054">
        <ele>2528.4</ele>
        <time>2022-01-16T11:13:48Z</time>
      </trkpt>
      <trkpt lat="45.18602" lon="5.99053">
        <ele>2528.6</ele>
        <time>2022-01-16T11:13:49Z</time>
      </trkpt>
      <trkpt lat="45.18603" lon="5.99052">
        <ele>2529.2</ele>
        <time>2022-01-16T11:13:50Z</time>
      </trkpt>
      <trkpt lat="45.18604" lon="5.99052">
        <ele>2529.4</ele>
        <time>2022-01-16T11:13:51Z</time>
      </trkpt>
      <trkpt lat="45.18605" lon="5.99049">
        <ele>2530</ele>
        <time>2022-01-16T11:13:54Z</time>
      </trkpt>
      <trkpt lat="45.18606" lon="5.99047">
        <ele>2530.2</ele>
        <time>2022-01-16T11:13:56Z</time>
      </trkpt>
      <trkpt lat="45.18608" lon="5.99051">
        <ele>2531</ele>
        <time>2022-01-16T11:13:58Z</time>
      </trkpt>
      <trkpt lat="45.18608" lon="5.99053">
        <ele>2531.6</ele>
        <time>2022-01-16T11:14:00Z</time>
      </trkpt>
      <trkpt lat="45.18608" lon="5.99052">
        <ele>2531.8</ele>
        <time>2022-01-16T11:14:01Z</time>
      </trkpt>
      <trkpt lat="45.18607" lon="5.99049">
        <ele>2532.8</ele>
        <time>2022-01-16T11:14:04Z</time>
      </trkpt>
      <trkpt lat="45.18606" lon="5.99048">
        <ele>2533</ele>
        <time>2022-01-16T11:14:05Z</time>
      </trkpt>
      <trkpt lat="45.18605" lon="5.99047">
        <ele>2533.8</ele>
        <time>2022-01-16T11:14:08Z</time>
      </trkpt>
      <trkpt lat="45.18604" lon="5.99046">
        <ele>2534.4</ele>
        <time>2022-01-16T11:14:10Z</time>
      </trkpt>
      <trkpt lat="45.18602" lon="5.99042">
        <ele>2535.4</ele>
        <time>2022-01-16T11:14:14Z</time>
      </trkpt>
      <trkpt lat="45.186" lon="5.99041">
        <ele>2536.2</ele>
        <time>2022-01-16T11:14:17Z</time>
      </trkpt>
      <trkpt lat="45.18599" lon="5.99041">
        <ele>2536.6</ele>
        <time>2022-01-16T11:14:18Z</time>
      </trkpt>
      <trkpt lat="45.18598" lon="5.99041">
        <ele>2536.6</ele>
        <time>2022-01-16T11:14:19Z</time>
      </trkpt>
      <trkpt lat="45.18596" lon="5.99037">
        <ele>2537.4</ele>
        <time>2022-01-16T11:14:24Z</time>
      </trkpt>
      <trkpt lat="45.18596" lon="5.99037">
        <ele>2537.8</ele>
        <time>2022-01-16T11:14:25Z</time>
      </trkpt>
      <trkpt lat="45.18595" lon="5.99037">
        <ele>2539</ele>
        <time>2022-01-16T11:14:29Z</time>
      </trkpt>
      <trkpt lat="45.18595" lon="5.99037">
        <ele>2539.4</ele>
        <time>2022-01-16T11:14:30Z</time>
      </trkpt>
      <trkpt lat="45.18594" lon="5.99035">
        <ele>2539.4</ele>
        <time>2022-01-16T11:14:32Z</time>
      </trkpt>
      <trkpt lat="45.18592" lon="5.99035">
        <ele>2540.2</ele>
        <time>2022-01-16T11:14:36Z</time>
      </trkpt>
      <trkpt lat="45.18589" lon="5.99036">
        <ele>2541.2</ele>
        <time>2022-01-16T11:14:38Z</time>
      </trkpt>
      <trkpt lat="45.18589" lon="5.99037">
        <ele>2541.2</ele>
        <time>2022-01-16T11:14:39Z</time>
      </trkpt>
      <trkpt lat="45.18586" lon="5.99035">
        <ele>2542.2</ele>
        <time>2022-01-16T11:14:42Z</time>
      </trkpt>
      <trkpt lat="45.18585" lon="5.99034">
        <ele>2542.4</ele>
        <time>2022-01-16T11:14:45Z</time>
      </trkpt>
      <trkpt lat="45.18588" lon="5.99026">
        <ele>2543.6</ele>
        <time>2022-01-16T11:14:50Z</time>
      </trkpt>
      <trkpt lat="45.18588" lon="5.99022">
        <ele>2544</ele>
        <time>2022-01-16T11:14:52Z</time>
      </trkpt>
      <trkpt lat="45.18587" lon="5.99019">
        <ele>2544.8</ele>
        <time>2022-01-16T11:14:54Z</time>
      </trkpt>
      <trkpt lat="45.18589" lon="5.99017">
        <ele>2545.8</ele>
        <time>2022-01-16T11:14:59Z</time>
      </trkpt>
      <trkpt lat="45.18589" lon="5.99016">
        <ele>2546</ele>
        <time>2022-01-16T11:15:00Z</time>
      </trkpt>
      <trkpt lat="45.18589" lon="5.99011">
        <ele>2547.2</ele>
        <time>2022-01-16T11:15:05Z</time>
      </trkpt>
      <trkpt lat="45.1859" lon="5.99009">
        <ele>2548.2</ele>
        <time>2022-01-16T11:15:07Z</time>
      </trkpt>
      <trkpt lat="45.18591" lon="5.99003">
        <ele>2549.4</ele>
        <time>2022-01-16T11:15:12Z</time>
      </trkpt>
      <trkpt lat="45.18593" lon="5.99001">
        <ele>2550.2</ele>
        <time>2022-01-16T11:15:15Z</time>
      </trkpt>
      <trkpt lat="45.18593" lon="5.99002">
        <ele>2550.6</ele>
        <time>2022-01-16T11:15:16Z</time>
      </trkpt>
      <trkpt lat="45.18593" lon="5.99001">
        <ele>2551.6</ele>
        <time>2022-01-16T11:15:20Z</time>
      </trkpt>
      <trkpt lat="45.18592" lon="5.99001">
        <ele>2551.6</ele>
        <time>2022-01-16T11:15:21Z</time>
      </trkpt>
      <trkpt lat="45.18589" lon="5.99002">
        <ele>2552.8</ele>
        <time>2022-01-16T11:15:26Z</time>
      </trkpt>
      <trkpt lat="45.18588" lon="5.99002">
        <ele>2553</ele>
        <time>2022-01-16T11:15:27Z</time>
      </trkpt>
      <trkpt lat="45.18587" lon="5.99002">
        <ele>2554</ele>
        <time>2022-01-16T11:15:29Z</time>
      </trkpt>
      <trkpt lat="45.18583" lon="5.99003">
        <ele>2555.4</ele>
        <time>2022-01-16T11:15:35Z</time>
      </trkpt>
      <trkpt lat="45.18581" lon="5.98998">
        <ele>2555.8</ele>
        <time>2022-01-16T11:15:41Z</time>
      </trkpt>
      <trkpt lat="45.18582" lon="5.98993">
        <ele>2556.4</ele>
        <time>2022-01-16T11:15:45Z</time>
      </trkpt>
      <trkpt lat="45.18582" lon="5.98991">
        <ele>2556.8</ele>
        <time>2022-01-16T11:15:46Z</time>
      </trkpt>
      <trkpt lat="45.18581" lon="5.98988">
        <ele>2557.6</ele>
        <time>2022-01-16T11:15:49Z</time>
      </trkpt>
      <trkpt lat="45.18582" lon="5.98988">
        <ele>2558.2</ele>
        <time>2022-01-16T11:15:51Z</time>
      </trkpt>
      <trkpt lat="45.18582" lon="5.98987">
        <ele>2558.6</ele>
        <time>2022-01-16T11:15:52Z</time>
      </trkpt>
      <trkpt lat="45.18583" lon="5.98984">
        <ele>2559.2</ele>
        <time>2022-01-16T11:15:54Z</time>
      </trkpt>
      <trkpt lat="45.18583" lon="5.98982">
        <ele>2559.6</ele>
        <time>2022-01-16T11:15:56Z</time>
      </trkpt>
      <trkpt lat="45.18583" lon="5.98981">
        <ele>2559.6</ele>
        <time>2022-01-16T11:15:57Z</time>
      </trkpt>
      <trkpt lat="45.18583" lon="5.98982">
        <ele>2560.2</ele>
        <time>2022-01-16T11:15:58Z</time>
      </trkpt>
      <trkpt lat="45.18583" lon="5.98982">
        <ele>2560.4</ele>
        <time>2022-01-16T11:16:01Z</time>
      </trkpt>
      <trkpt lat="45.18581" lon="5.98983">
        <ele>2560.8</ele>
        <time>2022-01-16T11:16:04Z</time>
      </trkpt>
      <trkpt lat="45.18579" lon="5.98984">
        <ele>2561.2</ele>
        <time>2022-01-16T11:16:07Z</time>
      </trkpt>
      <trkpt lat="45.18578" lon="5.98984">
        <ele>2561.8</ele>
        <time>2022-01-16T11:16:09Z</time>
      </trkpt>
      <trkpt lat="45.18576" lon="5.98985">
        <ele>2562.6</ele>
        <time>2022-01-16T11:16:12Z</time>
      </trkpt>
      <trkpt lat="45.18575" lon="5.98984">
        <ele>2563</ele>
        <time>2022-01-16T11:16:13Z</time>
      </trkpt>
      <trkpt lat="45.18575" lon="5.98985">
        <ele>2563.2</ele>
        <time>2022-01-16T11:16:14Z</time>
      </trkpt>
      <trkpt lat="45.18573" lon="5.98986">
        <ele>2564</ele>
        <time>2022-01-16T11:16:17Z</time>
      </trkpt>
      <trkpt lat="45.18571" lon="5.98988">
        <ele>2565</ele>
        <time>2022-01-16T11:16:21Z</time>
      </trkpt>
      <trkpt lat="45.1857" lon="5.98989">
        <ele>2565.2</ele>
        <time>2022-01-16T11:16:22Z</time>
      </trkpt>
      <trkpt lat="45.18568" lon="5.9899">
        <ele>2566.4</ele>
        <time>2022-01-16T11:16:26Z</time>
      </trkpt>
      <trkpt lat="45.18567" lon="5.98991">
        <ele>2566.8</ele>
        <time>2022-01-16T11:16:28Z</time>
      </trkpt>
      <trkpt lat="45.18564" lon="5.98991">
        <ele>2567.8</ele>
        <time>2022-01-16T11:16:33Z</time>
      </trkpt>
      <trkpt lat="45.18563" lon="5.98992">
        <ele>2568.2</ele>
        <time>2022-01-16T11:16:35Z</time>
      </trkpt>
      <trkpt lat="45.1856" lon="5.98991">
        <ele>2569.2</ele>
        <time>2022-01-16T11:16:39Z</time>
      </trkpt>
      <trkpt lat="45.18558" lon="5.98991">
        <ele>2570.4</ele>
        <time>2022-01-16T11:16:44Z</time>
      </trkpt>
      <trkpt lat="45.18557" lon="5.98991">
        <ele>2570.4</ele>
        <time>2022-01-16T11:16:45Z</time>
      </trkpt>
      <trkpt lat="45.18554" lon="5.98993">
        <ele>2571.4</ele>
        <time>2022-01-16T11:16:49Z</time>
      </trkpt>
      <trkpt lat="45.18553" lon="5.98995">
        <ele>2572</ele>
        <time>2022-01-16T11:16:51Z</time>
      </trkpt>
      <trkpt lat="45.18552" lon="5.98996">
        <ele>2572.4</ele>
        <time>2022-01-16T11:16:53Z</time>
      </trkpt>
      <trkpt lat="45.18549" lon="5.98997">
        <ele>2573.4</ele>
        <time>2022-01-16T11:16:58Z</time>
      </trkpt>
      <trkpt lat="45.18548" lon="5.98997">
        <ele>2573.8</ele>
        <time>2022-01-16T11:16:59Z</time>
      </trkpt>
      <trkpt lat="45.18546" lon="5.98998">
        <ele>2575.2</ele>
        <time>2022-01-16T11:17:04Z</time>
      </trkpt>
      <trkpt lat="45.18544" lon="5.98999">
        <ele>2575.6</ele>
        <time>2022-01-16T11:17:07Z</time>
      </trkpt>
      <trkpt lat="45.1854" lon="5.98999">
        <ele>2576.4</ele>
        <time>2022-01-16T11:17:11Z</time>
      </trkpt>
      <trkpt lat="45.18539" lon="5.99002">
        <ele>2577.2</ele>
        <time>2022-01-16T11:17:15Z</time>
      </trkpt>
      <trkpt lat="45.18538" lon="5.99002">
        <ele>2578</ele>
        <time>2022-01-16T11:17:16Z</time>
      </trkpt>
      <trkpt lat="45.18534" lon="5.99003">
        <ele>2579.2</ele>
        <time>2022-01-16T11:17:22Z</time>
      </trkpt>
      <trkpt lat="45.18529" lon="5.99004">
        <ele>2580</ele>
        <time>2022-01-16T11:17:28Z</time>
      </trkpt>
      <trkpt lat="45.18528" lon="5.99004">
        <ele>2580.4</ele>
        <time>2022-01-16T11:17:29Z</time>
      </trkpt>
      <trkpt lat="45.18526" lon="5.99004">
        <ele>2581</ele>
        <time>2022-01-16T11:17:32Z</time>
      </trkpt>
      <trkpt lat="45.18524" lon="5.99005">
        <ele>2582</ele>
        <time>2022-01-16T11:17:35Z</time>
      </trkpt>
      <trkpt lat="45.18524" lon="5.99004">
        <ele>2582.4</ele>
        <time>2022-01-16T11:17:38Z</time>
      </trkpt>
      <trkpt lat="45.18522" lon="5.98999">
        <ele>2582.4</ele>
        <time>2022-01-16T11:17:43Z</time>
      </trkpt>
      <trkpt lat="45.1852" lon="5.98997">
        <ele>2582.4</ele>
        <time>2022-01-16T11:17:49Z</time>
      </trkpt>
      <trkpt lat="45.18524" lon="5.98993">
        <ele>2582.8</ele>
        <time>2022-01-16T11:17:54Z</time>
      </trkpt>
      <trkpt lat="45.18524" lon="5.98991">
        <ele>2583</ele>
        <time>2022-01-16T11:17:55Z</time>
      </trkpt>
      <trkpt lat="45.18524" lon="5.9899">
        <ele>2583.4</ele>
        <time>2022-01-16T11:17:56Z</time>
      </trkpt>
      <trkpt lat="45.18523" lon="5.98986">
        <ele>2584.4</ele>
        <time>2022-01-16T11:17:58Z</time>
      </trkpt>
      <trkpt lat="45.18522" lon="5.98985">
        <ele>2584.6</ele>
        <time>2022-01-16T11:17:59Z</time>
      </trkpt>
      <trkpt lat="45.18522" lon="5.98983">
        <ele>2584.6</ele>
        <time>2022-01-16T11:18:00Z</time>
      </trkpt>
      <trkpt lat="45.18522" lon="5.9898">
        <ele>2585.4</ele>
        <time>2022-01-16T11:18:02Z</time>
      </trkpt>
      <trkpt lat="45.18522" lon="5.98978">
        <ele>2585.8</ele>
        <time>2022-01-16T11:18:04Z</time>
      </trkpt>
      <trkpt lat="45.18522" lon="5.98974">
        <ele>2586.4</ele>
        <time>2022-01-16T11:18:07Z</time>
      </trkpt>
      <trkpt lat="45.18523" lon="5.98974">
        <ele>2587</ele>
        <time>2022-01-16T11:18:08Z</time>
      </trkpt>
      <trkpt lat="45.18521" lon="5.98971">
        <ele>2587</ele>
        <time>2022-01-16T11:18:10Z</time>
      </trkpt>
      <trkpt lat="45.1852" lon="5.98967">
        <ele>2588.2</ele>
        <time>2022-01-16T11:18:12Z</time>
      </trkpt>
      <trkpt lat="45.1852" lon="5.98964">
        <ele>2588.4</ele>
        <time>2022-01-16T11:18:14Z</time>
      </trkpt>
      <trkpt lat="45.1852" lon="5.9896">
        <ele>2589.6</ele>
        <time>2022-01-16T11:18:18Z</time>
      </trkpt>
      <trkpt lat="45.18519" lon="5.98957">
        <ele>2590.2</ele>
        <time>2022-01-16T11:18:21Z</time>
      </trkpt>
      <trkpt lat="45.18518" lon="5.98954">
        <ele>2591</ele>
        <time>2022-01-16T11:18:23Z</time>
      </trkpt>
      <trkpt lat="45.18518" lon="5.98953">
        <ele>2591.6</ele>
        <time>2022-01-16T11:18:24Z</time>
      </trkpt>
      <trkpt lat="45.1852" lon="5.98952">
        <ele>2591.8</ele>
        <time>2022-01-16T11:18:26Z</time>
      </trkpt>
      <trkpt lat="45.18519" lon="5.9895">
        <ele>2592.2</ele>
        <time>2022-01-16T11:18:28Z</time>
      </trkpt>
      <trkpt lat="45.1852" lon="5.98948">
        <ele>2593</ele>
        <time>2022-01-16T11:18:30Z</time>
      </trkpt>
      <trkpt lat="45.18522" lon="5.98947">
        <ele>2593.2</ele>
        <time>2022-01-16T11:18:31Z</time>
      </trkpt>
      <trkpt lat="45.18523" lon="5.98947">
        <ele>2593.6</ele>
        <time>2022-01-16T11:18:32Z</time>
      </trkpt>
      <trkpt lat="45.18527" lon="5.98944">
        <ele>2593.6</ele>
        <time>2022-01-16T11:18:35Z</time>
      </trkpt>
      <trkpt lat="45.18528" lon="5.98943">
        <ele>2594.4</ele>
        <time>2022-01-16T11:18:37Z</time>
      </trkpt>
      <trkpt lat="45.18529" lon="5.98939">
        <ele>2594.8</ele>
        <time>2022-01-16T11:18:40Z</time>
      </trkpt>
      <trkpt lat="45.18529" lon="5.98936">
        <ele>2595.4</ele>
        <time>2022-01-16T11:18:42Z</time>
      </trkpt>
      <trkpt lat="45.18528" lon="5.98935">
        <ele>2595.6</ele>
        <time>2022-01-16T11:18:43Z</time>
      </trkpt>
      <trkpt lat="45.1853" lon="5.98933">
        <ele>2596</ele>
        <time>2022-01-16T11:18:46Z</time>
      </trkpt>
      <trkpt lat="45.18529" lon="5.98932">
        <ele>2596.2</ele>
        <time>2022-01-16T11:18:48Z</time>
      </trkpt>
      <trkpt lat="45.18529" lon="5.98934">
        <ele>2596.2</ele>
        <time>2022-01-16T11:18:50Z</time>
      </trkpt>
      <trkpt lat="45.18532" lon="5.98934">
        <ele>2596.8</ele>
        <time>2022-01-16T11:18:55Z</time>
      </trkpt>
      <trkpt lat="45.18536" lon="5.98932">
        <ele>2597.6</ele>
        <time>2022-01-16T11:18:58Z</time>
      </trkpt>
      <trkpt lat="45.18539" lon="5.9893">
        <ele>2597.6</ele>
        <time>2022-01-16T11:19:00Z</time>
      </trkpt>
      <trkpt lat="45.18538" lon="5.98929">
        <ele>2597.6</ele>
        <time>2022-01-16T11:19:01Z</time>
      </trkpt>
      <trkpt lat="45.18539" lon="5.98928">
        <ele>2598.2</ele>
        <time>2022-01-16T11:19:02Z</time>
      </trkpt>
      <trkpt lat="45.18539" lon="5.98927">
        <ele>2598.4</ele>
        <time>2022-01-16T11:19:03Z</time>
      </trkpt>
      <trkpt lat="45.18539" lon="5.98925">
        <ele>2599</ele>
        <time>2022-01-16T11:19:05Z</time>
      </trkpt>
      <trkpt lat="45.18542" lon="5.98923">
        <ele>2599.4</ele>
        <time>2022-01-16T11:19:08Z</time>
      </trkpt>
      <trkpt lat="45.18544" lon="5.98923">
        <ele>2600</ele>
        <time>2022-01-16T11:19:10Z</time>
      </trkpt>
      <trkpt lat="45.18545" lon="5.98922">
        <ele>2600.6</ele>
        <time>2022-01-16T11:19:12Z</time>
      </trkpt>
      <trkpt lat="45.18549" lon="5.9892">
        <ele>2601.4</ele>
        <time>2022-01-16T11:19:17Z</time>
      </trkpt>
      <trkpt lat="45.1855" lon="5.98919">
        <ele>2602</ele>
        <time>2022-01-16T11:19:18Z</time>
      </trkpt>
      <trkpt lat="45.18552" lon="5.98918">
        <ele>2602</ele>
        <time>2022-01-16T11:19:20Z</time>
      </trkpt>
      <trkpt lat="45.18553" lon="5.98917">
        <ele>2602.4</ele>
        <time>2022-01-16T11:19:21Z</time>
      </trkpt>
      <trkpt lat="45.18552" lon="5.98914">
        <ele>2603</ele>
        <time>2022-01-16T11:19:23Z</time>
      </trkpt>
      <trkpt lat="45.18552" lon="5.98915">
        <ele>2603.2</ele>
        <time>2022-01-16T11:19:24Z</time>
      </trkpt>
      <trkpt lat="45.18553" lon="5.98915">
        <ele>2603.8</ele>
        <time>2022-01-16T11:19:30Z</time>
      </trkpt>
      <trkpt lat="45.18553" lon="5.98915">
        <ele>2604.2</ele>
        <time>2022-01-16T11:19:31Z</time>
      </trkpt>
      <trkpt lat="45.1855" lon="5.98915">
        <ele>2605.4</ele>
        <time>2022-01-16T11:19:36Z</time>
      </trkpt>
      <trkpt lat="45.18548" lon="5.98916">
        <ele>2606.2</ele>
        <time>2022-01-16T11:19:40Z</time>
      </trkpt>
      <trkpt lat="45.18549" lon="5.98916">
        <ele>2606.8</ele>
        <time>2022-01-16T11:19:42Z</time>
      </trkpt>
      <trkpt lat="45.18549" lon="5.98916">
        <ele>2607</ele>
        <time>2022-01-16T11:19:43Z</time>
      </trkpt>
      <trkpt lat="45.18547" lon="5.98923">
        <ele>2608</ele>
        <time>2022-01-16T11:19:47Z</time>
      </trkpt>
      <trkpt lat="45.18547" lon="5.98924">
        <ele>2608.6</ele>
        <time>2022-01-16T11:19:48Z</time>
      </trkpt>
      <trkpt lat="45.18547" lon="5.9892">
        <ele>2609</ele>
        <time>2022-01-16T11:19:53Z</time>
      </trkpt>
      <trkpt lat="45.18547" lon="5.9892">
        <ele>2609.4</ele>
        <time>2022-01-16T11:19:54Z</time>
      </trkpt>
      <trkpt lat="45.18548" lon="5.98915">
        <ele>2610</ele>
        <time>2022-01-16T11:19:59Z</time>
      </trkpt>
      <trkpt lat="45.1855" lon="5.98914">
        <ele>2610.4</ele>
        <time>2022-01-16T11:20:01Z</time>
      </trkpt>
      <trkpt lat="45.18552" lon="5.98912">
        <ele>2611.2</ele>
        <time>2022-01-16T11:20:05Z</time>
      </trkpt>
      <trkpt lat="45.18552" lon="5.98912">
        <ele>2611.6</ele>
        <time>2022-01-16T11:20:06Z</time>
      </trkpt>
      <trkpt lat="45.18551" lon="5.98906">
        <ele>2612</ele>
        <time>2022-01-16T11:20:10Z</time>
      </trkpt>
      <trkpt lat="45.18551" lon="5.98904">
        <ele>2612.8</ele>
        <time>2022-01-16T11:20:13Z</time>
      </trkpt>
      <trkpt lat="45.18553" lon="5.98903">
        <ele>2613.6</ele>
        <time>2022-01-16T11:20:16Z</time>
      </trkpt>
      <trkpt lat="45.18554" lon="5.98904">
        <ele>2614</ele>
        <time>2022-01-16T11:20:17Z</time>
      </trkpt>
      <trkpt lat="45.18557" lon="5.98905">
        <ele>2615</ele>
        <time>2022-01-16T11:20:21Z</time>
      </trkpt>
      <trkpt lat="45.18559" lon="5.98905">
        <ele>2615.8</ele>
        <time>2022-01-16T11:20:25Z</time>
      </trkpt>
      <trkpt lat="45.1856" lon="5.98903">
        <ele>2616.6</ele>
        <time>2022-01-16T11:20:28Z</time>
      </trkpt>
      <trkpt lat="45.18561" lon="5.98902">
        <ele>2617.6</ele>
        <time>2022-01-16T11:20:31Z</time>
      </trkpt>
      <trkpt lat="45.18566" lon="5.98904">
        <ele>2618</ele>
        <time>2022-01-16T11:20:37Z</time>
      </trkpt>
      <trkpt lat="45.18566" lon="5.98904">
        <ele>2618.6</ele>
        <time>2022-01-16T11:20:40Z</time>
      </trkpt>
      <trkpt lat="45.18565" lon="5.98902">
        <ele>2619.8</ele>
        <time>2022-01-16T11:20:45Z</time>
      </trkpt>
      <trkpt lat="45.18571" lon="5.989">
        <ele>2621.2</ele>
        <time>2022-01-16T11:20:51Z</time>
      </trkpt>
      <trkpt lat="45.18575" lon="5.98898">
        <ele>2622.2</ele>
        <time>2022-01-16T11:20:56Z</time>
      </trkpt>
      <trkpt lat="45.18577" lon="5.98896">
        <ele>2622.4</ele>
        <time>2022-01-16T11:20:58Z</time>
      </trkpt>
      <trkpt lat="45.18579" lon="5.98895">
        <ele>2623.6</ele>
        <time>2022-01-16T11:21:01Z</time>
      </trkpt>
      <trkpt lat="45.18581" lon="5.98895">
        <ele>2624.4</ele>
        <time>2022-01-16T11:21:04Z</time>
      </trkpt>
      <trkpt lat="45.18585" lon="5.98897">
        <ele>2624.6</ele>
        <time>2022-01-16T11:21:07Z</time>
      </trkpt>
      <trkpt lat="45.18585" lon="5.98899">
        <ele>2625.2</ele>
        <time>2022-01-16T11:21:09Z</time>
      </trkpt>
      <trkpt lat="45.18583" lon="5.989">
        <ele>2625.8</ele>
        <time>2022-01-16T11:21:14Z</time>
      </trkpt>
      <trkpt lat="45.18582" lon="5.989">
        <ele>2626</ele>
        <time>2022-01-16T11:21:16Z</time>
      </trkpt>
      <trkpt lat="45.18582" lon="5.98899">
        <ele>2626.4</ele>
        <time>2022-01-16T11:21:22Z</time>
      </trkpt>
      <trkpt lat="45.18582" lon="5.98899">
        <ele>2627</ele>
        <time>2022-01-16T11:21:25Z</time>
      </trkpt>
      <trkpt lat="45.18579" lon="5.98896">
        <ele>2628</ele>
        <time>2022-01-16T11:21:31Z</time>
      </trkpt>
      <trkpt lat="45.18578" lon="5.98892">
        <ele>2629</ele>
        <time>2022-01-16T11:21:37Z</time>
      </trkpt>
      <trkpt lat="45.18579" lon="5.98891">
        <ele>2629</ele>
        <time>2022-01-16T11:21:42Z</time>
      </trkpt>
      <trkpt lat="45.18579" lon="5.9889">
        <ele>2629.4</ele>
        <time>2022-01-16T11:21:43Z</time>
      </trkpt>
      <trkpt lat="45.18581" lon="5.98889">
        <ele>2629.6</ele>
        <time>2022-01-16T11:21:45Z</time>
      </trkpt>
      <trkpt lat="45.18584" lon="5.98888">
        <ele>2630.4</ele>
        <time>2022-01-16T11:21:49Z</time>
      </trkpt>
      <trkpt lat="45.18584" lon="5.98887">
        <ele>2631.2</ele>
        <time>2022-01-16T11:21:52Z</time>
      </trkpt>
      <trkpt lat="45.18585" lon="5.98886">
        <ele>2631.6</ele>
        <time>2022-01-16T11:21:54Z</time>
      </trkpt>
      <trkpt lat="45.18589" lon="5.9889">
        <ele>2632.8</ele>
        <time>2022-01-16T11:21:59Z</time>
      </trkpt>
      <trkpt lat="45.18593" lon="5.9889">
        <ele>2634.2</ele>
        <time>2022-01-16T11:22:04Z</time>
      </trkpt>
      <trkpt lat="45.18596" lon="5.98891">
        <ele>2634.8</ele>
        <time>2022-01-16T11:22:07Z</time>
      </trkpt>
      <trkpt lat="45.18599" lon="5.98892">
        <ele>2635.2</ele>
        <time>2022-01-16T11:22:10Z</time>
      </trkpt>
      <trkpt lat="45.18602" lon="5.98893">
        <ele>2635.8</ele>
        <time>2022-01-16T11:22:14Z</time>
      </trkpt>
      <trkpt lat="45.18601" lon="5.98893">
        <ele>2636</ele>
        <time>2022-01-16T11:22:15Z</time>
      </trkpt>
      <trkpt lat="45.18601" lon="5.98893">
        <ele>2636.2</ele>
        <time>2022-01-16T11:22:16Z</time>
      </trkpt>
      <trkpt lat="45.186" lon="5.98896">
        <ele>2636</ele>
        <time>2022-01-16T11:22:21Z</time>
      </trkpt>
      <trkpt lat="45.186" lon="5.98896">
        <ele>2636.2</ele>
        <time>2022-01-16T11:22:22Z</time>
      </trkpt>
      <trkpt lat="45.18601" lon="5.98896">
        <ele>2636.8</ele>
        <time>2022-01-16T11:22:28Z</time>
      </trkpt>
      <trkpt lat="45.18601" lon="5.98896">
        <ele>2636.8</ele>
        <time>2022-01-16T11:22:31Z</time>
      </trkpt>
      <trkpt lat="45.18601" lon="5.98896">
        <ele>2636.8</ele>
        <time>2022-01-16T11:22:35Z</time>
      </trkpt>
      <trkpt lat="45.18601" lon="5.98896">
        <ele>2637.4</ele>
        <time>2022-01-16T11:22:39Z</time>
      </trkpt>
      <trkpt lat="45.18601" lon="5.98896">
        <ele>2638</ele>
        <time>2022-01-16T11:22:42Z</time>
      </trkpt>
      <trkpt lat="45.18601" lon="5.98896">
        <ele>2638.4</ele>
        <time>2022-01-16T11:22:45Z</time>
      </trkpt>
      <trkpt lat="45.18604" lon="5.98896">
        <ele>2639.8</ele>
        <time>2022-01-16T11:22:49Z</time>
      </trkpt>
      <trkpt lat="45.18605" lon="5.98896">
        <ele>2640</ele>
        <time>2022-01-16T11:22:50Z</time>
      </trkpt>
      <trkpt lat="45.18609" lon="5.98896">
        <ele>2640.8</ele>
        <time>2022-01-16T11:22:56Z</time>
      </trkpt>
      <trkpt lat="45.18609" lon="5.98896">
        <ele>2641</ele>
        <time>2022-01-16T11:22:57Z</time>
      </trkpt>
      <trkpt lat="45.18609" lon="5.98896">
        <ele>2641.2</ele>
        <time>2022-01-16T11:23:03Z</time>
      </trkpt>
      <trkpt lat="45.18609" lon="5.98896">
        <ele>2641.2</ele>
        <time>2022-01-16T11:23:04Z</time>
      </trkpt>
      <trkpt lat="45.18609" lon="5.98896">
        <ele>2641.2</ele>
        <time>2022-01-16T11:23:08Z</time>
      </trkpt>
      <trkpt lat="45.18609" lon="5.98896">
        <ele>2641</ele>
        <time>2022-01-16T11:23:14Z</time>
      </trkpt>
      <trkpt lat="45.18609" lon="5.98895">
        <ele>2641</ele>
        <time>2022-01-16T11:23:16Z</time>
      </trkpt>
      <trkpt lat="45.18609" lon="5.98895">
        <ele>2641</ele>
        <time>2022-01-16T11:23:17Z</time>
      </trkpt>
      <trkpt lat="45.18608" lon="5.98895">
        <ele>2640.8</ele>
        <time>2022-01-16T11:23:18Z</time>
      </trkpt>
      <trkpt lat="45.18608" lon="5.98895">
        <ele>2640.8</ele>
        <time>2022-01-16T11:23:22Z</time>
      </trkpt>
      <trkpt lat="45.18607" lon="5.98895">
        <ele>2641.6</ele>
        <time>2022-01-16T11:23:24Z</time>
      </trkpt>
      <trkpt lat="45.18607" lon="5.98895">
        <ele>2642</ele>
        <time>2022-01-16T11:23:25Z</time>
      </trkpt>
      <trkpt lat="45.18607" lon="5.98895">
        <ele>2642.6</ele>
        <time>2022-01-16T11:23:27Z</time>
      </trkpt>
      <trkpt lat="45.18607" lon="5.98895">
        <ele>2643</ele>
        <time>2022-01-16T11:23:32Z</time>
      </trkpt>
      <trkpt lat="45.18607" lon="5.98892">
        <ele>2643.4</ele>
        <time>2022-01-16T11:23:38Z</time>
      </trkpt>
      <trkpt lat="45.18607" lon="5.98891">
        <ele>2643.8</ele>
        <time>2022-01-16T11:23:41Z</time>
      </trkpt>
      <trkpt lat="45.18607" lon="5.9889">
        <ele>2644.2</ele>
        <time>2022-01-16T11:23:42Z</time>
      </trkpt>
      <trkpt lat="45.18608" lon="5.9889">
        <ele>2644.6</ele>
        <time>2022-01-16T11:23:48Z</time>
      </trkpt>
      <trkpt lat="45.18609" lon="5.9889">
        <ele>2645.2</ele>
        <time>2022-01-16T11:23:52Z</time>
      </trkpt>
      <trkpt lat="45.1861" lon="5.9889">
        <ele>2645.2</ele>
        <time>2022-01-16T11:23:55Z</time>
      </trkpt>
      <trkpt lat="45.18613" lon="5.98892">
        <ele>2645.4</ele>
        <time>2022-01-16T11:23:59Z</time>
      </trkpt>
      <trkpt lat="45.18613" lon="5.98893">
        <ele>2645.8</ele>
        <time>2022-01-16T11:24:03Z</time>
      </trkpt>
      <trkpt lat="45.18614" lon="5.98893">
        <ele>2646.2</ele>
        <time>2022-01-16T11:24:09Z</time>
      </trkpt>
      <trkpt lat="45.18614" lon="5.98893">
        <ele>2646.4</ele>
        <time>2022-01-16T11:24:13Z</time>
      </trkpt>
      <trkpt lat="45.18614" lon="5.98893">
        <ele>2646.8</ele>
        <time>2022-01-16T11:24:19Z</time>
      </trkpt>
      <trkpt lat="45.18615" lon="5.98893">
        <ele>2647.4</ele>
        <time>2022-01-16T11:24:21Z</time>
      </trkpt>
      <trkpt lat="45.18615" lon="5.98893">
        <ele>2648</ele>
        <time>2022-01-16T11:24:25Z</time>
      </trkpt>
      <trkpt lat="45.18615" lon="5.98893">
        <ele>2648.6</ele>
        <time>2022-01-16T11:24:26Z</time>
      </trkpt>
      <trkpt lat="45.18615" lon="5.98891">
        <ele>2649.4</ele>
        <time>2022-01-16T11:24:32Z</time>
      </trkpt>
      <trkpt lat="45.18615" lon="5.98887">
        <ele>2649.4</ele>
        <time>2022-01-16T11:24:38Z</time>
      </trkpt>
      <trkpt lat="45.18615" lon="5.98884">
        <ele>2649.4</ele>
        <time>2022-01-16T11:24:44Z</time>
      </trkpt>
      <trkpt lat="45.18615" lon="5.98883">
        <ele>2649.6</ele>
        <time>2022-01-16T11:24:50Z</time>
      </trkpt>
      <trkpt lat="45.18614" lon="5.98883">
        <ele>2649.8</ele>
        <time>2022-01-16T11:24:52Z</time>
      </trkpt>
      <trkpt lat="45.18614" lon="5.98883">
        <ele>2650.4</ele>
        <time>2022-01-16T11:24:58Z</time>
      </trkpt>
      <trkpt lat="45.18614" lon="5.98883">
        <ele>2650.6</ele>
        <time>2022-01-16T11:25:02Z</time>
      </trkpt>
      <trkpt lat="45.18615" lon="5.98883">
        <ele>2650.6</ele>
        <time>2022-01-16T11:25:06Z</time>
      </trkpt>
      <trkpt lat="45.18616" lon="5.98884">
        <ele>2650.6</ele>
        <time>2022-01-16T11:25:08Z</time>
      </trkpt>
      <trkpt lat="45.18617" lon="5.98884">
        <ele>2650.6</ele>
        <time>2022-01-16T11:25:11Z</time>
      </trkpt>
      <trkpt lat="45.18617" lon="5.98885">
        <ele>2651</ele>
        <time>2022-01-16T11:25:16Z</time>
      </trkpt>
      <trkpt lat="45.18617" lon="5.98885">
        <ele>2651.2</ele>
        <time>2022-01-16T11:25:19Z</time>
      </trkpt>
      <trkpt lat="45.18617" lon="5.98885">
        <ele>2651.6</ele>
        <time>2022-01-16T11:25:25Z</time>
      </trkpt>
      <trkpt lat="45.18617" lon="5.98885">
        <ele>2651.2</ele>
        <time>2022-01-16T11:25:31Z</time>
      </trkpt>
      <trkpt lat="45.18617" lon="5.98884">
        <ele>2651.4</ele>
        <time>2022-01-16T11:25:37Z</time>
      </trkpt>
      <trkpt lat="45.18616" lon="5.98884">
        <ele>2651.2</ele>
        <time>2022-01-16T11:25:41Z</time>
      </trkpt>
      <trkpt lat="45.18615" lon="5.98883">
        <ele>2651.4</ele>
        <time>2022-01-16T11:25:47Z</time>
      </trkpt>
      <trkpt lat="45.18614" lon="5.98883">
        <ele>2651.6</ele>
        <time>2022-01-16T11:25:53Z</time>
      </trkpt>
      <trkpt lat="45.18614" lon="5.98883">
        <ele>2652</ele>
        <time>2022-01-16T11:25:59Z</time>
      </trkpt>
      <trkpt lat="45.18614" lon="5.98883">
        <ele>2652.2</ele>
        <time>2022-01-16T11:26:00Z</time>
      </trkpt>
      <trkpt lat="45.18614" lon="5.98883">
        <ele>2652.6</ele>
        <time>2022-01-16T11:26:04Z</time>
      </trkpt>
      <trkpt lat="45.18614" lon="5.98883">
        <ele>2652.2</ele>
        <time>2022-01-16T11:26:10Z</time>
      </trkpt>
      <trkpt lat="45.18614" lon="5.98882">
        <ele>2653.4</ele>
        <time>2022-01-16T11:26:15Z</time>
      </trkpt>
      <trkpt lat="45.18613" lon="5.98875">
        <ele>2653.2</ele>
        <time>2022-01-16T11:26:21Z</time>
      </trkpt>
      <trkpt lat="45.18612" lon="5.98869">
        <ele>2653.2</ele>
        <time>2022-01-16T11:26:24Z</time>
      </trkpt>
      <trkpt lat="45.18611" lon="5.98861">
        <ele>2653.8</ele>
        <time>2022-01-16T11:26:30Z</time>
      </trkpt>
      <trkpt lat="45.18612" lon="5.9886">
        <ele>2653.8</ele>
        <time>2022-01-16T11:26:33Z</time>
      </trkpt>
      <trkpt lat="45.18611" lon="5.9886">
        <ele>2652.8</ele>
        <time>2022-01-16T11:26:37Z</time>
      </trkpt>
      <trkpt lat="45.18611" lon="5.98861">
        <ele>2653</ele>
        <time>2022-01-16T11:26:40Z</time>
      </trkpt>
      <trkpt lat="45.18611" lon="5.98861">
        <ele>2653</ele>
        <time>2022-01-16T11:26:46Z</time>
      </trkpt>
      <trkpt lat="45.18611" lon="5.98861">
        <ele>2653</ele>
        <time>2022-01-16T11:26:47Z</time>
      </trkpt>
      <trkpt lat="45.18612" lon="5.98861">
        <ele>2653</ele>
        <time>2022-01-16T11:26:52Z</time>
      </trkpt>
      <trkpt lat="45.18612" lon="5.98861">
        <ele>2653</ele>
        <time>2022-01-16T11:26:55Z</time>
      </trkpt>
      <trkpt lat="45.18612" lon="5.98861">
        <ele>2653.2</ele>
        <time>2022-01-16T11:26:57Z</time>
      </trkpt>
      <trkpt lat="45.18613" lon="5.98861">
        <ele>2653</ele>
        <time>2022-01-16T11:27:03Z</time>
      </trkpt>
      <trkpt lat="45.18613" lon="5.98861">
        <ele>2652.8</ele>
        <time>2022-01-16T11:27:05Z</time>
      </trkpt>
      <trkpt lat="45.18613" lon="5.98861">
        <ele>2653.8</ele>
        <time>2022-01-16T11:27:10Z</time>
      </trkpt>
      <trkpt lat="45.18613" lon="5.98863">
        <ele>2653.6</ele>
        <time>2022-01-16T11:27:14Z</time>
      </trkpt>
      <trkpt lat="45.18613" lon="5.98865">
        <ele>2653.6</ele>
        <time>2022-01-16T11:27:16Z</time>
      </trkpt>
      <trkpt lat="45.18613" lon="5.98866">
        <ele>2653</ele>
        <time>2022-01-16T11:27:17Z</time>
      </trkpt>
      <trkpt lat="45.18612" lon="5.98867">
        <ele>2653</ele>
        <time>2022-01-16T11:27:19Z</time>
      </trkpt>
      <trkpt lat="45.18612" lon="5.98867">
        <ele>2653</ele>
        <time>2022-01-16T11:27:21Z</time>
      </trkpt>
      <trkpt lat="45.18612" lon="5.98867">
        <ele>2652.6</ele>
        <time>2022-01-16T11:27:25Z</time>
      </trkpt>
      <trkpt lat="45.18612" lon="5.98867">
        <ele>2652.6</ele>
        <time>2022-01-16T11:27:26Z</time>
      </trkpt>
      <trkpt lat="45.18612" lon="5.98867">
        <ele>2652.8</ele>
        <time>2022-01-16T11:27:27Z</time>
      </trkpt>
      <trkpt lat="45.18612" lon="5.98867">
        <ele>2652.8</ele>
        <time>2022-01-16T11:27:29Z</time>
      </trkpt>
      <trkpt lat="45.18612" lon="5.98867">
        <ele>2652.8</ele>
        <time>2022-01-16T11:27:31Z</time>
      </trkpt>
      <trkpt lat="45.18612" lon="5.98867">
        <ele>2652.6</ele>
        <time>2022-01-16T11:27:37Z</time>
      </trkpt>
      <trkpt lat="45.18612" lon="5.98867">
        <ele>2652.8</ele>
        <time>2022-01-16T11:27:40Z</time>
      </trkpt>
      <trkpt lat="45.18612" lon="5.98867">
        <ele>2653</ele>
        <time>2022-01-16T11:27:45Z</time>
      </trkpt>
      <trkpt lat="45.18612" lon="5.98867">
        <ele>2653</ele>
        <time>2022-01-16T11:27:48Z</time>
      </trkpt>
      <trkpt lat="45.18612" lon="5.98866">
        <ele>2653</ele>
        <time>2022-01-16T11:27:54Z</time>
      </trkpt>
      <trkpt lat="45.18612" lon="5.98866">
        <ele>2653</ele>
        <time>2022-01-16T11:27:57Z</time>
      </trkpt>
      <trkpt lat="45.18613" lon="5.98866">
        <ele>2653</ele>
        <time>2022-01-16T11:28:03Z</time>
      </trkpt>
      <trkpt lat="45.18613" lon="5.98867">
        <ele>2653</ele>
        <time>2022-01-16T11:28:08Z</time>
      </trkpt>
      <trkpt lat="45.18613" lon="5.98867">
        <ele>2653</ele>
        <time>2022-01-16T11:28:14Z</time>
      </trkpt>
      <trkpt lat="45.18613" lon="5.98867">
        <ele>2653</ele>
        <time>2022-01-16T11:28:18Z</time>
      </trkpt>
      <trkpt lat="45.18613" lon="5.98867">
        <ele>2653</ele>
        <time>2022-01-16T11:28:20Z</time>
      </trkpt>
      <trkpt lat="45.18613" lon="5.98867">
        <ele>2653</ele>
        <time>2022-01-16T11:28:21Z</time>
      </trkpt>
      <trkpt lat="45.18613" lon="5.98867">
        <ele>2653</ele>
        <time>2022-01-16T11:28:27Z</time>
      </trkpt>
      <trkpt lat="45.18613" lon="5.98867">
        <ele>2653</ele>
        <time>2022-01-16T11:28:30Z</time>
      </trkpt>
      <trkpt lat="45.18613" lon="5.98867">
        <ele>2653</ele>
        <time>2022-01-16T11:28:35Z</time>
      </trkpt>
      <trkpt lat="45.18613" lon="5.98866">
        <ele>2653</ele>
        <time>2022-01-16T11:28:41Z</time>
      </trkpt>
      <trkpt lat="45.18613" lon="5.98866">
        <ele>2653</ele>
        <time>2022-01-16T11:28:47Z</time>
      </trkpt>
      <trkpt lat="45.1861" lon="5.98872">
        <ele>2653</ele>
        <time>2022-01-16T11:28:51Z</time>
      </trkpt>
      <trkpt lat="45.18606" lon="5.98869">
        <ele>2653</ele>
        <time>2022-01-16T11:28:54Z</time>
      </trkpt>
      <trkpt lat="45.18602" lon="5.98863">
        <ele>2653</ele>
        <time>2022-01-16T11:28:57Z</time>
      </trkpt>
      <trkpt lat="45.18599" lon="5.98863">
        <ele>2653</ele>
        <time>2022-01-16T11:28:58Z</time>
      </trkpt>
      <trkpt lat="45.18597" lon="5.98865">
        <ele>2651.6</ele>
        <time>2022-01-16T11:28:59Z</time>
      </trkpt>
      <trkpt lat="45.18594" lon="5.98867">
        <ele>2650.4</ele>
        <time>2022-01-16T11:29:00Z</time>
      </trkpt>
      <trkpt lat="45.18587" lon="5.98871">
        <ele>2649.2</ele>
        <time>2022-01-16T11:29:02Z</time>
      </trkpt>
      <trkpt lat="45.18576" lon="5.98874">
        <ele>2648</ele>
        <time>2022-01-16T11:29:05Z</time>
      </trkpt>
      <trkpt lat="45.18571" lon="5.98875">
        <ele>2646.8</ele>
        <time>2022-01-16T11:29:06Z</time>
      </trkpt>
      <trkpt lat="45.18567" lon="5.98875">
        <ele>2646.4</ele>
        <time>2022-01-16T11:29:07Z</time>
      </trkpt>
      <trkpt lat="45.18561" lon="5.98872">
        <ele>2646</ele>
        <time>2022-01-16T11:29:09Z</time>
      </trkpt>
      <trkpt lat="45.18559" lon="5.98869">
        <ele>2645.6</ele>
        <time>2022-01-16T11:29:10Z</time>
      </trkpt>
      <trkpt lat="45.18558" lon="5.98864">
        <ele>2644.2</ele>
        <time>2022-01-16T11:29:11Z</time>
      </trkpt>
      <trkpt lat="45.1856" lon="5.98861">
        <ele>2639.2</ele>
        <time>2022-01-16T11:29:12Z</time>
      </trkpt>
      <trkpt lat="45.18562" lon="5.98855">
        <ele>2638</ele>
        <time>2022-01-16T11:29:14Z</time>
      </trkpt>
      <trkpt lat="45.18562" lon="5.98851">
        <ele>2636</ele>
        <time>2022-01-16T11:29:15Z</time>
      </trkpt>
      <trkpt lat="45.18561" lon="5.98847">
        <ele>2634.2</ele>
        <time>2022-01-16T11:29:16Z</time>
      </trkpt>
      <trkpt lat="45.18558" lon="5.98838">
        <ele>2628.8</ele>
        <time>2022-01-16T11:29:18Z</time>
      </trkpt>
      <trkpt lat="45.18557" lon="5.98834">
        <ele>2627.6</ele>
        <time>2022-01-16T11:29:19Z</time>
      </trkpt>
      <trkpt lat="45.18555" lon="5.98831">
        <ele>2625</ele>
        <time>2022-01-16T11:29:20Z</time>
      </trkpt>
      <trkpt lat="45.18552" lon="5.98826">
        <ele>2622</ele>
        <time>2022-01-16T11:29:21Z</time>
      </trkpt>
      <trkpt lat="45.18551" lon="5.98821">
        <ele>2618.8</ele>
        <time>2022-01-16T11:29:22Z</time>
      </trkpt>
      <trkpt lat="45.18549" lon="5.98817">
        <ele>2617.6</ele>
        <time>2022-01-16T11:29:23Z</time>
      </trkpt>
      <trkpt lat="45.18547" lon="5.98813">
        <ele>2613.6</ele>
        <time>2022-01-16T11:29:24Z</time>
      </trkpt>
      <trkpt lat="45.18545" lon="5.98808">
        <ele>2611.8</ele>
        <time>2022-01-16T11:29:25Z</time>
      </trkpt>
      <trkpt lat="45.18543" lon="5.98805">
        <ele>2611</ele>
        <time>2022-01-16T11:29:26Z</time>
      </trkpt>
      <trkpt lat="45.18539" lon="5.98804">
        <ele>2607.8</ele>
        <time>2022-01-16T11:29:27Z</time>
      </trkpt>
      <trkpt lat="45.18534" lon="5.98803">
        <ele>2606.8</ele>
        <time>2022-01-16T11:29:28Z</time>
      </trkpt>
      <trkpt lat="45.18529" lon="5.98803">
        <ele>2606.6</ele>
        <time>2022-01-16T11:29:29Z</time>
      </trkpt>
      <trkpt lat="45.18512" lon="5.98804">
        <ele>2603</ele>
        <time>2022-01-16T11:29:32Z</time>
      </trkpt>
      <trkpt lat="45.18499" lon="5.98802">
        <ele>2600</ele>
        <time>2022-01-16T11:29:34Z</time>
      </trkpt>
      <trkpt lat="45.18493" lon="5.988">
        <ele>2598.6</ele>
        <time>2022-01-16T11:29:35Z</time>
      </trkpt>
      <trkpt lat="45.18487" lon="5.98799">
        <ele>2597.4</ele>
        <time>2022-01-16T11:29:36Z</time>
      </trkpt>
      <trkpt lat="45.18482" lon="5.98797">
        <ele>2595</ele>
        <time>2022-01-16T11:29:37Z</time>
      </trkpt>
      <trkpt lat="45.18477" lon="5.98795">
        <ele>2593.6</ele>
        <time>2022-01-16T11:29:38Z</time>
      </trkpt>
      <trkpt lat="45.18472" lon="5.98791">
        <ele>2593.2</ele>
        <time>2022-01-16T11:29:39Z</time>
      </trkpt>
      <trkpt lat="45.1847" lon="5.98786">
        <ele>2592.2</ele>
        <time>2022-01-16T11:29:40Z</time>
      </trkpt>
      <trkpt lat="45.18469" lon="5.9878">
        <ele>2588.2</ele>
        <time>2022-01-16T11:29:41Z</time>
      </trkpt>
      <trkpt lat="45.1847" lon="5.98773">
        <ele>2585.6</ele>
        <time>2022-01-16T11:29:42Z</time>
      </trkpt>
      <trkpt lat="45.1847" lon="5.98766">
        <ele>2581.2</ele>
        <time>2022-01-16T11:29:43Z</time>
      </trkpt>
      <trkpt lat="45.1847" lon="5.98759">
        <ele>2579.6</ele>
        <time>2022-01-16T11:29:44Z</time>
      </trkpt>
      <trkpt lat="45.18471" lon="5.98754">
        <ele>2574.2</ele>
        <time>2022-01-16T11:29:45Z</time>
      </trkpt>
      <trkpt lat="45.1847" lon="5.98749">
        <ele>2574</ele>
        <time>2022-01-16T11:29:46Z</time>
      </trkpt>
      <trkpt lat="45.18468" lon="5.98744">
        <ele>2568.6</ele>
        <time>2022-01-16T11:29:47Z</time>
      </trkpt>
      <trkpt lat="45.18463" lon="5.98738">
        <ele>2568.4</ele>
        <time>2022-01-16T11:29:48Z</time>
      </trkpt>
      <trkpt lat="45.18458" lon="5.98731">
        <ele>2566.2</ele>
        <time>2022-01-16T11:29:49Z</time>
      </trkpt>
      <trkpt lat="45.18453" lon="5.98722">
        <ele>2565.8</ele>
        <time>2022-01-16T11:29:50Z</time>
      </trkpt>
      <trkpt lat="45.18449" lon="5.98714">
        <ele>2564.4</ele>
        <time>2022-01-16T11:29:51Z</time>
      </trkpt>
      <trkpt lat="45.18445" lon="5.98705">
        <ele>2562.6</ele>
        <time>2022-01-16T11:29:52Z</time>
      </trkpt>
      <trkpt lat="45.18443" lon="5.98697">
        <ele>2561.4</ele>
        <time>2022-01-16T11:29:53Z</time>
      </trkpt>
      <trkpt lat="45.18441" lon="5.98691">
        <ele>2558.6</ele>
        <time>2022-01-16T11:29:54Z</time>
      </trkpt>
      <trkpt lat="45.18439" lon="5.98685">
        <ele>2558.4</ele>
        <time>2022-01-16T11:29:55Z</time>
      </trkpt>
      <trkpt lat="45.18438" lon="5.98679">
        <ele>2557</ele>
        <time>2022-01-16T11:29:56Z</time>
      </trkpt>
      <trkpt lat="45.18431" lon="5.98659">
        <ele>2555</ele>
        <time>2022-01-16T11:29:59Z</time>
      </trkpt>
      <trkpt lat="45.18424" lon="5.98646">
        <ele>2554.2</ele>
        <time>2022-01-16T11:30:01Z</time>
      </trkpt>
      <trkpt lat="45.1842" lon="5.9864">
        <ele>2552.4</ele>
        <time>2022-01-16T11:30:02Z</time>
      </trkpt>
      <trkpt lat="45.18415" lon="5.98633">
        <ele>2551.2</ele>
        <time>2022-01-16T11:30:03Z</time>
      </trkpt>
      <trkpt lat="45.18411" lon="5.98627">
        <ele>2549.4</ele>
        <time>2022-01-16T11:30:04Z</time>
      </trkpt>
      <trkpt lat="45.18399" lon="5.98609">
        <ele>2547</ele>
        <time>2022-01-16T11:30:07Z</time>
      </trkpt>
      <trkpt lat="45.18395" lon="5.98605">
        <ele>2541.8</ele>
        <time>2022-01-16T11:30:08Z</time>
      </trkpt>
      <trkpt lat="45.18389" lon="5.98595">
        <ele>2540.6</ele>
        <time>2022-01-16T11:30:10Z</time>
      </trkpt>
      <trkpt lat="45.18387" lon="5.9859">
        <ele>2539.4</ele>
        <time>2022-01-16T11:30:11Z</time>
      </trkpt>
      <trkpt lat="45.18389" lon="5.98586">
        <ele>2536.6</ele>
        <time>2022-01-16T11:30:12Z</time>
      </trkpt>
      <trkpt lat="45.18392" lon="5.98584">
        <ele>2535.8</ele>
        <time>2022-01-16T11:30:13Z</time>
      </trkpt>
      <trkpt lat="45.18396" lon="5.98582">
        <ele>2533.6</ele>
        <time>2022-01-16T11:30:14Z</time>
      </trkpt>
      <trkpt lat="45.184" lon="5.9858">
        <ele>2531.4</ele>
        <time>2022-01-16T11:30:15Z</time>
      </trkpt>
      <trkpt lat="45.18401" lon="5.98577">
        <ele>2531.4</ele>
        <time>2022-01-16T11:30:16Z</time>
      </trkpt>
      <trkpt lat="45.18402" lon="5.98572">
        <ele>2528.6</ele>
        <time>2022-01-16T11:30:17Z</time>
      </trkpt>
      <trkpt lat="45.18404" lon="5.98568">
        <ele>2525.8</ele>
        <time>2022-01-16T11:30:18Z</time>
      </trkpt>
      <trkpt lat="45.18407" lon="5.98564">
        <ele>2525.4</ele>
        <time>2022-01-16T11:30:19Z</time>
      </trkpt>
      <trkpt lat="45.1841" lon="5.98561">
        <ele>2524.4</ele>
        <time>2022-01-16T11:30:20Z</time>
      </trkpt>
      <trkpt lat="45.18414" lon="5.98558">
        <ele>2521</ele>
        <time>2022-01-16T11:30:21Z</time>
      </trkpt>
      <trkpt lat="45.18418" lon="5.98555">
        <ele>2518.2</ele>
        <time>2022-01-16T11:30:22Z</time>
      </trkpt>
      <trkpt lat="45.18419" lon="5.98552">
        <ele>2517.8</ele>
        <time>2022-01-16T11:30:23Z</time>
      </trkpt>
      <trkpt lat="45.18418" lon="5.98547">
        <ele>2515</ele>
        <time>2022-01-16T11:30:24Z</time>
      </trkpt>
      <trkpt lat="45.18414" lon="5.98538">
        <ele>2513.4</ele>
        <time>2022-01-16T11:30:26Z</time>
      </trkpt>
      <trkpt lat="45.18408" lon="5.98521">
        <ele>2511.6</ele>
        <time>2022-01-16T11:30:29Z</time>
      </trkpt>
      <trkpt lat="45.18406" lon="5.98516">
        <ele>2508.8</ele>
        <time>2022-01-16T11:30:30Z</time>
      </trkpt>
      <trkpt lat="45.18403" lon="5.98511">
        <ele>2508.6</ele>
        <time>2022-01-16T11:30:31Z</time>
      </trkpt>
      <trkpt lat="45.18395" lon="5.985">
        <ele>2507.2</ele>
        <time>2022-01-16T11:30:33Z</time>
      </trkpt>
      <trkpt lat="45.18391" lon="5.98496">
        <ele>2505.2</ele>
        <time>2022-01-16T11:30:34Z</time>
      </trkpt>
      <trkpt lat="45.18387" lon="5.98492">
        <ele>2503.8</ele>
        <time>2022-01-16T11:30:35Z</time>
      </trkpt>
      <trkpt lat="45.18384" lon="5.98488">
        <ele>2503.6</ele>
        <time>2022-01-16T11:30:36Z</time>
      </trkpt>
      <trkpt lat="45.18381" lon="5.98483">
        <ele>2502.2</ele>
        <time>2022-01-16T11:30:37Z</time>
      </trkpt>
      <trkpt lat="45.18376" lon="5.98477">
        <ele>2502</ele>
        <time>2022-01-16T11:30:38Z</time>
      </trkpt>
      <trkpt lat="45.18372" lon="5.98471">
        <ele>2500.8</ele>
        <time>2022-01-16T11:30:39Z</time>
      </trkpt>
      <trkpt lat="45.18367" lon="5.98464">
        <ele>2499.2</ele>
        <time>2022-01-16T11:30:40Z</time>
      </trkpt>
      <trkpt lat="45.18357" lon="5.98451">
        <ele>2497.6</ele>
        <time>2022-01-16T11:30:42Z</time>
      </trkpt>
      <trkpt lat="45.18351" lon="5.98445">
        <ele>2494.2</ele>
        <time>2022-01-16T11:30:43Z</time>
      </trkpt>
      <trkpt lat="45.18338" lon="5.9843">
        <ele>2493</ele>
        <time>2022-01-16T11:30:46Z</time>
      </trkpt>
      <trkpt lat="45.18336" lon="5.98424">
        <ele>2491.6</ele>
        <time>2022-01-16T11:30:47Z</time>
      </trkpt>
      <trkpt lat="45.18337" lon="5.98418">
        <ele>2487.4</ele>
        <time>2022-01-16T11:30:48Z</time>
      </trkpt>
      <trkpt lat="45.18337" lon="5.98413">
        <ele>2486.6</ele>
        <time>2022-01-16T11:30:49Z</time>
      </trkpt>
      <trkpt lat="45.18335" lon="5.98408">
        <ele>2483.2</ele>
        <time>2022-01-16T11:30:50Z</time>
      </trkpt>
      <trkpt lat="45.18333" lon="5.98396">
        <ele>2481.6</ele>
        <time>2022-01-16T11:30:52Z</time>
      </trkpt>
      <trkpt lat="45.18336" lon="5.98391">
        <ele>2478.8</ele>
        <time>2022-01-16T11:30:53Z</time>
      </trkpt>
      <trkpt lat="45.18339" lon="5.98389">
        <ele>2477.2</ele>
        <time>2022-01-16T11:30:54Z</time>
      </trkpt>
      <trkpt lat="45.18341" lon="5.98386">
        <ele>2475</ele>
        <time>2022-01-16T11:30:55Z</time>
      </trkpt>
      <trkpt lat="45.18343" lon="5.98382">
        <ele>2473.8</ele>
        <time>2022-01-16T11:30:56Z</time>
      </trkpt>
      <trkpt lat="45.18345" lon="5.9838">
        <ele>2471.6</ele>
        <time>2022-01-16T11:30:57Z</time>
      </trkpt>
      <trkpt lat="45.18347" lon="5.9838">
        <ele>2470.2</ele>
        <time>2022-01-16T11:30:58Z</time>
      </trkpt>
      <trkpt lat="45.18351" lon="5.98381">
        <ele>2469.2</ele>
        <time>2022-01-16T11:31:00Z</time>
      </trkpt>
      <trkpt lat="45.18359" lon="5.98383">
        <ele>2468</ele>
        <time>2022-01-16T11:31:03Z</time>
      </trkpt>
      <trkpt lat="45.18364" lon="5.98385">
        <ele>2467.2</ele>
        <time>2022-01-16T11:31:05Z</time>
      </trkpt>
      <trkpt lat="45.18368" lon="5.98387">
        <ele>2465.8</ele>
        <time>2022-01-16T11:31:06Z</time>
      </trkpt>
      <trkpt lat="45.18376" lon="5.98391">
        <ele>2464</ele>
        <time>2022-01-16T11:31:08Z</time>
      </trkpt>
      <trkpt lat="45.1838" lon="5.98393">
        <ele>2464</ele>
        <time>2022-01-16T11:31:09Z</time>
      </trkpt>
      <trkpt lat="45.18384" lon="5.98394">
        <ele>2462.8</ele>
        <time>2022-01-16T11:31:10Z</time>
      </trkpt>
      <trkpt lat="45.18387" lon="5.98395">
        <ele>2462.6</ele>
        <time>2022-01-16T11:31:11Z</time>
      </trkpt>
      <trkpt lat="45.18389" lon="5.98396">
        <ele>2461.8</ele>
        <time>2022-01-16T11:31:12Z</time>
      </trkpt>
      <trkpt lat="45.18392" lon="5.98397">
        <ele>2461.6</ele>
        <time>2022-01-16T11:31:13Z</time>
      </trkpt>
      <trkpt lat="45.18394" lon="5.98397">
        <ele>2461.2</ele>
        <time>2022-01-16T11:31:17Z</time>
      </trkpt>
      <trkpt lat="45.18393" lon="5.98397">
        <ele>2461</ele>
        <time>2022-01-16T11:31:23Z</time>
      </trkpt>
      <trkpt lat="45.18393" lon="5.98397">
        <ele>2461</ele>
        <time>2022-01-16T11:31:25Z</time>
      </trkpt>
      <trkpt lat="45.18394" lon="5.98397">
        <ele>2460.8</ele>
        <time>2022-01-16T11:31:28Z</time>
      </trkpt>
      <trkpt lat="45.18394" lon="5.98397">
        <ele>2460.8</ele>
        <time>2022-01-16T11:31:34Z</time>
      </trkpt>
      <trkpt lat="45.18394" lon="5.98397">
        <ele>2460.6</ele>
        <time>2022-01-16T11:31:35Z</time>
      </trkpt>
      <trkpt lat="45.18394" lon="5.98397">
        <ele>2460.2</ele>
        <time>2022-01-16T11:31:38Z</time>
      </trkpt>
      <trkpt lat="45.18394" lon="5.98397">
        <ele>2460.2</ele>
        <time>2022-01-16T11:31:40Z</time>
      </trkpt>
      <trkpt lat="45.18394" lon="5.98397">
        <ele>2460.2</ele>
        <time>2022-01-16T11:31:46Z</time>
      </trkpt>
      <trkpt lat="45.18394" lon="5.98398">
        <ele>2460.2</ele>
        <time>2022-01-16T11:31:52Z</time>
      </trkpt>
      <trkpt lat="45.18394" lon="5.98399">
        <ele>2460.2</ele>
        <time>2022-01-16T11:31:54Z</time>
      </trkpt>
      <trkpt lat="45.18394" lon="5.98399">
        <ele>2460.2</ele>
        <time>2022-01-16T11:31:55Z</time>
      </trkpt>
      <trkpt lat="45.18395" lon="5.98399">
        <ele>2459.8</ele>
        <time>2022-01-16T11:31:58Z</time>
      </trkpt>
      <trkpt lat="45.18395" lon="5.98399">
        <ele>2459.8</ele>
        <time>2022-01-16T11:32:00Z</time>
      </trkpt>
      <trkpt lat="45.18395" lon="5.98399">
        <ele>2459.8</ele>
        <time>2022-01-16T11:32:01Z</time>
      </trkpt>
      <trkpt lat="45.18395" lon="5.98399">
        <ele>2459.6</ele>
        <time>2022-01-16T11:32:04Z</time>
      </trkpt>
      <trkpt lat="45.18395" lon="5.98398">
        <ele>2459.6</ele>
        <time>2022-01-16T11:32:10Z</time>
      </trkpt>
      <trkpt lat="45.18395" lon="5.98398">
        <ele>2460</ele>
        <time>2022-01-16T11:32:16Z</time>
      </trkpt>
      <trkpt lat="45.18394" lon="5.98397">
        <ele>2459.6</ele>
        <time>2022-01-16T11:32:21Z</time>
      </trkpt>
      <trkpt lat="45.18394" lon="5.98397">
        <ele>2459.6</ele>
        <time>2022-01-16T11:32:27Z</time>
      </trkpt>
      <trkpt lat="45.18394" lon="5.98397">
        <ele>2459.6</ele>
        <time>2022-01-16T11:32:30Z</time>
      </trkpt>
      <trkpt lat="45.18394" lon="5.98397">
        <ele>2459.6</ele>
        <time>2022-01-16T11:32:31Z</time>
      </trkpt>
      <trkpt lat="45.18394" lon="5.98397">
        <ele>2459.6</ele>
        <time>2022-01-16T11:32:34Z</time>
      </trkpt>
      <trkpt lat="45.18394" lon="5.98396">
        <ele>2459.6</ele>
        <time>2022-01-16T11:32:40Z</time>
      </trkpt>
      <trkpt lat="45.18394" lon="5.98396">
        <ele>2459.6</ele>
        <time>2022-01-16T11:32:42Z</time>
      </trkpt>
      <trkpt lat="45.18394" lon="5.98394">
        <ele>2459.6</ele>
        <time>2022-01-16T11:32:45Z</time>
      </trkpt>
      <trkpt lat="45.18395" lon="5.98394">
        <ele>2459.6</ele>
        <time>2022-01-16T11:32:48Z</time>
      </trkpt>
      <trkpt lat="45.18395" lon="5.98393">
        <ele>2459.2</ele>
        <time>2022-01-16T11:32:49Z</time>
      </trkpt>
      <trkpt lat="45.18395" lon="5.98393">
        <ele>2459.2</ele>
        <time>2022-01-16T11:32:54Z</time>
      </trkpt>
      <trkpt lat="45.18395" lon="5.98393">
        <ele>2459.2</ele>
        <time>2022-01-16T11:32:56Z</time>
      </trkpt>
      <trkpt lat="45.18395" lon="5.98393">
        <ele>2459.4</ele>
        <time>2022-01-16T11:32:58Z</time>
      </trkpt>
      <trkpt lat="45.18395" lon="5.98393">
        <ele>2459.6</ele>
        <time>2022-01-16T11:33:02Z</time>
      </trkpt>
      <trkpt lat="45.18395" lon="5.98393">
        <ele>2459.4</ele>
        <time>2022-01-16T11:33:04Z</time>
      </trkpt>
      <trkpt lat="45.18394" lon="5.98393">
        <ele>2459.4</ele>
        <time>2022-01-16T11:33:09Z</time>
      </trkpt>
      <trkpt lat="45.18394" lon="5.98393">
        <ele>2459.4</ele>
        <time>2022-01-16T11:33:10Z</time>
      </trkpt>
      <trkpt lat="45.18393" lon="5.98394">
        <ele>2459</ele>
        <time>2022-01-16T11:33:16Z</time>
      </trkpt>
      <trkpt lat="45.18393" lon="5.98394">
        <ele>2459</ele>
        <time>2022-01-16T11:33:17Z</time>
      </trkpt>
      <trkpt lat="45.18393" lon="5.98394">
        <ele>2459</ele>
        <time>2022-01-16T11:33:18Z</time>
      </trkpt>
      <trkpt lat="45.18393" lon="5.98395">
        <ele>2459.4</ele>
        <time>2022-01-16T11:33:23Z</time>
      </trkpt>
      <trkpt lat="45.18393" lon="5.98395">
        <ele>2459.4</ele>
        <time>2022-01-16T11:33:27Z</time>
      </trkpt>
      <trkpt lat="45.18393" lon="5.98395">
        <ele>2459.4</ele>
        <time>2022-01-16T11:33:31Z</time>
      </trkpt>
      <trkpt lat="45.18393" lon="5.98395">
        <ele>2459.4</ele>
        <time>2022-01-16T11:33:33Z</time>
      </trkpt>
      <trkpt lat="45.18393" lon="5.98396">
        <ele>2459.4</ele>
        <time>2022-01-16T11:33:39Z</time>
      </trkpt>
      <trkpt lat="45.18393" lon="5.98396">
        <ele>2459.4</ele>
        <time>2022-01-16T11:33:41Z</time>
      </trkpt>
      <trkpt lat="45.18393" lon="5.98397">
        <ele>2459.4</ele>
        <time>2022-01-16T11:33:47Z</time>
      </trkpt>
      <trkpt lat="45.18393" lon="5.98399">
        <ele>2459.4</ele>
        <time>2022-01-16T11:33:53Z</time>
      </trkpt>
      <trkpt lat="45.18391" lon="5.98404">
        <ele>2459.4</ele>
        <time>2022-01-16T11:33:56Z</time>
      </trkpt>
      <trkpt lat="45.18391" lon="5.98407">
        <ele>2459.4</ele>
        <time>2022-01-16T11:33:58Z</time>
      </trkpt>
      <trkpt lat="45.18392" lon="5.98411">
        <ele>2459.4</ele>
        <time>2022-01-16T11:34:01Z</time>
      </trkpt>
      <trkpt lat="45.18393" lon="5.98413">
        <ele>2459.8</ele>
        <time>2022-01-16T11:34:04Z</time>
      </trkpt>
      <trkpt lat="45.18391" lon="5.98413">
        <ele>2460.2</ele>
        <time>2022-01-16T11:34:08Z</time>
      </trkpt>
      <trkpt lat="45.18391" lon="5.98412">
        <ele>2460.2</ele>
        <time>2022-01-16T11:34:12Z</time>
      </trkpt>
      <trkpt lat="45.18391" lon="5.98412">
        <ele>2460.2</ele>
        <time>2022-01-16T11:34:17Z</time>
      </trkpt>
      <trkpt lat="45.18391" lon="5.98412">
        <ele>2460.4</ele>
        <time>2022-01-16T11:34:22Z</time>
      </trkpt>
      <trkpt lat="45.18393" lon="5.98412">
        <ele>2460</ele>
        <time>2022-01-16T11:34:28Z</time>
      </trkpt>
      <trkpt lat="45.18393" lon="5.98412">
        <ele>2460</ele>
        <time>2022-01-16T11:34:31Z</time>
      </trkpt>
      <trkpt lat="45.18394" lon="5.98412">
        <ele>2460</ele>
        <time>2022-01-16T11:34:35Z</time>
      </trkpt>
      <trkpt lat="45.18394" lon="5.98412">
        <ele>2460</ele>
        <time>2022-01-16T11:34:40Z</time>
      </trkpt>
      <trkpt lat="45.18394" lon="5.98412">
        <ele>2460</ele>
        <time>2022-01-16T11:34:41Z</time>
      </trkpt>
      <trkpt lat="45.18394" lon="5.98412">
        <ele>2460</ele>
        <time>2022-01-16T11:34:43Z</time>
      </trkpt>
      <trkpt lat="45.18394" lon="5.98412">
        <ele>2460.2</ele>
        <time>2022-01-16T11:34:49Z</time>
      </trkpt>
      <trkpt lat="45.18394" lon="5.98411">
        <ele>2460.2</ele>
        <time>2022-01-16T11:34:54Z</time>
      </trkpt>
      <trkpt lat="45.18394" lon="5.98411">
        <ele>2460.2</ele>
        <time>2022-01-16T11:34:56Z</time>
      </trkpt>
      <trkpt lat="45.18395" lon="5.98412">
        <ele>2460.2</ele>
        <time>2022-01-16T11:35:00Z</time>
      </trkpt>
      <trkpt lat="45.18397" lon="5.98413">
        <ele>2460.6</ele>
        <time>2022-01-16T11:35:01Z</time>
      </trkpt>
      <trkpt lat="45.18398" lon="5.98413">
        <ele>2460.8</ele>
        <time>2022-01-16T11:35:02Z</time>
      </trkpt>
      <trkpt lat="45.18406" lon="5.98417">
        <ele>2461.8</ele>
        <time>2022-01-16T11:35:08Z</time>
      </trkpt>
      <trkpt lat="45.18407" lon="5.98417">
        <ele>2461.8</ele>
        <time>2022-01-16T11:35:09Z</time>
      </trkpt>
      <trkpt lat="45.18411" lon="5.98418">
        <ele>2462.6</ele>
        <time>2022-01-16T11:35:12Z</time>
      </trkpt>
      <trkpt lat="45.18412" lon="5.98418">
        <ele>2462.8</ele>
        <time>2022-01-16T11:35:13Z</time>
      </trkpt>
      <trkpt lat="45.18414" lon="5.98419">
        <ele>2463</ele>
        <time>2022-01-16T11:35:15Z</time>
      </trkpt>
      <trkpt lat="45.18416" lon="5.9842">
        <ele>2463.2</ele>
        <time>2022-01-16T11:35:17Z</time>
      </trkpt>
      <trkpt lat="45.18418" lon="5.98422">
        <ele>2464</ele>
        <time>2022-01-16T11:35:19Z</time>
      </trkpt>
      <trkpt lat="45.18422" lon="5.98424">
        <ele>2464</ele>
        <time>2022-01-16T11:35:22Z</time>
      </trkpt>
      <trkpt lat="45.18426" lon="5.98426">
        <ele>2465.2</ele>
        <time>2022-01-16T11:35:26Z</time>
      </trkpt>
      <trkpt lat="45.1843" lon="5.98426">
        <ele>2465.4</ele>
        <time>2022-01-16T11:35:29Z</time>
      </trkpt>
      <trkpt lat="45.18435" lon="5.98427">
        <ele>2466.2</ele>
        <time>2022-01-16T11:35:34Z</time>
      </trkpt>
      <trkpt lat="45.18438" lon="5.98426">
        <ele>2466.8</ele>
        <time>2022-01-16T11:35:38Z</time>
      </trkpt>
      <trkpt lat="45.18439" lon="5.98426">
        <ele>2467.2</ele>
        <time>2022-01-16T11:35:39Z</time>
      </trkpt>
      <trkpt lat="45.18444" lon="5.98422">
        <ele>2468.6</ele>
        <time>2022-01-16T11:35:44Z</time>
      </trkpt>
      <trkpt lat="45.18447" lon="5.9842">
        <ele>2469.4</ele>
        <time>2022-01-16T11:35:47Z</time>
      </trkpt>
      <trkpt lat="45.18449" lon="5.98419">
        <ele>2470</ele>
        <time>2022-01-16T11:35:50Z</time>
      </trkpt>
      <trkpt lat="45.18453" lon="5.98418">
        <ele>2471.6</ele>
        <time>2022-01-16T11:35:56Z</time>
      </trkpt>
      <trkpt lat="45.18453" lon="5.98419">
        <ele>2471.8</ele>
        <time>2022-01-16T11:35:57Z</time>
      </trkpt>
      <trkpt lat="45.18454" lon="5.98423">
        <ele>2472.8</ele>
        <time>2022-01-16T11:36:00Z</time>
      </trkpt>
      <trkpt lat="45.18454" lon="5.9843">
        <ele>2473.8</ele>
        <time>2022-01-16T11:36:05Z</time>
      </trkpt>
      <trkpt lat="45.18455" lon="5.98432">
        <ele>2474.4</ele>
        <time>2022-01-16T11:36:07Z</time>
      </trkpt>
      <trkpt lat="45.18455" lon="5.98434">
        <ele>2474.4</ele>
        <time>2022-01-16T11:36:08Z</time>
      </trkpt>
      <trkpt lat="45.18456" lon="5.98437">
        <ele>2475</ele>
        <time>2022-01-16T11:36:10Z</time>
      </trkpt>
      <trkpt lat="45.18458" lon="5.98442">
        <ele>2475.8</ele>
        <time>2022-01-16T11:36:14Z</time>
      </trkpt>
      <trkpt lat="45.18459" lon="5.98443">
        <ele>2476.2</ele>
        <time>2022-01-16T11:36:15Z</time>
      </trkpt>
      <trkpt lat="45.18459" lon="5.98447">
        <ele>2476.8</ele>
        <time>2022-01-16T11:36:18Z</time>
      </trkpt>
      <trkpt lat="45.18459" lon="5.98448">
        <ele>2476.8</ele>
        <time>2022-01-16T11:36:19Z</time>
      </trkpt>
      <trkpt lat="45.18459" lon="5.9845">
        <ele>2477.6</ele>
        <time>2022-01-16T11:36:20Z</time>
      </trkpt>
      <trkpt lat="45.1846" lon="5.98455">
        <ele>2478.4</ele>
        <time>2022-01-16T11:36:24Z</time>
      </trkpt>
      <trkpt lat="45.1846" lon="5.98456">
        <ele>2478.8</ele>
        <time>2022-01-16T11:36:25Z</time>
      </trkpt>
      <trkpt lat="45.1846" lon="5.98455">
        <ele>2479.2</ele>
        <time>2022-01-16T11:36:27Z</time>
      </trkpt>
      <trkpt lat="45.18461" lon="5.98453">
        <ele>2480.2</ele>
        <time>2022-01-16T11:36:30Z</time>
      </trkpt>
      <trkpt lat="45.18466" lon="5.98449">
        <ele>2481.4</ele>
        <time>2022-01-16T11:36:35Z</time>
      </trkpt>
      <trkpt lat="45.18469" lon="5.98446">
        <ele>2482.6</ele>
        <time>2022-01-16T11:36:40Z</time>
      </trkpt>
      <trkpt lat="45.18472" lon="5.98443">
        <ele>2483.4</ele>
        <time>2022-01-16T11:36:46Z</time>
      </trkpt>
      <trkpt lat="45.18473" lon="5.98442">
        <ele>2483.8</ele>
        <time>2022-01-16T11:36:47Z</time>
      </trkpt>
      <trkpt lat="45.18475" lon="5.9844">
        <ele>2484.6</ele>
        <time>2022-01-16T11:36:51Z</time>
      </trkpt>
      <trkpt lat="45.18475" lon="5.98439">
        <ele>2484.8</ele>
        <time>2022-01-16T11:36:52Z</time>
      </trkpt>
      <trkpt lat="45.18477" lon="5.98437">
        <ele>2486</ele>
        <time>2022-01-16T11:36:56Z</time>
      </trkpt>
      <trkpt lat="45.18477" lon="5.98435">
        <ele>2486.6</ele>
        <time>2022-01-16T11:36:58Z</time>
      </trkpt>
      <trkpt lat="45.18479" lon="5.98434">
        <ele>2486.8</ele>
        <time>2022-01-16T11:37:00Z</time>
      </trkpt>
      <trkpt lat="45.18479" lon="5.98434">
        <ele>2487</ele>
        <time>2022-01-16T11:37:01Z</time>
      </trkpt>
      <trkpt lat="45.18481" lon="5.98436">
        <ele>2487.4</ele>
        <time>2022-01-16T11:37:03Z</time>
      </trkpt>
      <trkpt lat="45.18481" lon="5.98439">
        <ele>2488</ele>
        <time>2022-01-16T11:37:05Z</time>
      </trkpt>
      <trkpt lat="45.18483" lon="5.98443">
        <ele>2489.2</ele>
        <time>2022-01-16T11:37:09Z</time>
      </trkpt>
      <trkpt lat="45.18483" lon="5.98444">
        <ele>2489.4</ele>
        <time>2022-01-16T11:37:10Z</time>
      </trkpt>
      <trkpt lat="45.18485" lon="5.9845">
        <ele>2490.2</ele>
        <time>2022-01-16T11:37:14Z</time>
      </trkpt>
      <trkpt lat="45.18486" lon="5.98453">
        <ele>2490.6</ele>
        <time>2022-01-16T11:37:16Z</time>
      </trkpt>
      <trkpt lat="45.18486" lon="5.98455">
        <ele>2491.4</ele>
        <time>2022-01-16T11:37:18Z</time>
      </trkpt>
      <trkpt lat="45.18487" lon="5.9846">
        <ele>2492.2</ele>
        <time>2022-01-16T11:37:22Z</time>
      </trkpt>
      <trkpt lat="45.18487" lon="5.98461">
        <ele>2492.4</ele>
        <time>2022-01-16T11:37:23Z</time>
      </trkpt>
      <trkpt lat="45.18487" lon="5.98463">
        <ele>2493</ele>
        <time>2022-01-16T11:37:24Z</time>
      </trkpt>
      <trkpt lat="45.18487" lon="5.98463">
        <ele>2493.4</ele>
        <time>2022-01-16T11:37:25Z</time>
      </trkpt>
      <trkpt lat="45.18488" lon="5.98464">
        <ele>2493.4</ele>
        <time>2022-01-16T11:37:26Z</time>
      </trkpt>
      <trkpt lat="45.18488" lon="5.98464">
        <ele>2493.6</ele>
        <time>2022-01-16T11:37:28Z</time>
      </trkpt>
      <trkpt lat="45.1849" lon="5.98462">
        <ele>2494.4</ele>
        <time>2022-01-16T11:37:31Z</time>
      </trkpt>
      <trkpt lat="45.18492" lon="5.98457">
        <ele>2495.6</ele>
        <time>2022-01-16T11:37:37Z</time>
      </trkpt>
      <trkpt lat="45.18494" lon="5.98455">
        <ele>2496.4</ele>
        <time>2022-01-16T11:37:41Z</time>
      </trkpt>
      <trkpt lat="45.18494" lon="5.98454">
        <ele>2496.8</ele>
        <time>2022-01-16T11:37:42Z</time>
      </trkpt>
      <trkpt lat="45.18496" lon="5.98451">
        <ele>2498</ele>
        <time>2022-01-16T11:37:46Z</time>
      </trkpt>
      <trkpt lat="45.18498" lon="5.98449">
        <ele>2498.8</ele>
        <time>2022-01-16T11:37:49Z</time>
      </trkpt>
      <trkpt lat="45.18499" lon="5.98446">
        <ele>2499.4</ele>
        <time>2022-01-16T11:37:51Z</time>
      </trkpt>
      <trkpt lat="45.18501" lon="5.98445">
        <ele>2500.4</ele>
        <time>2022-01-16T11:37:55Z</time>
      </trkpt>
      <trkpt lat="45.18501" lon="5.98446">
        <ele>2500.6</ele>
        <time>2022-01-16T11:37:57Z</time>
      </trkpt>
      <trkpt lat="45.18503" lon="5.98452">
        <ele>2501.6</ele>
        <time>2022-01-16T11:38:01Z</time>
      </trkpt>
      <trkpt lat="45.18504" lon="5.98454">
        <ele>2502.4</ele>
        <time>2022-01-16T11:38:04Z</time>
      </trkpt>
      <trkpt lat="45.18505" lon="5.98457">
        <ele>2502.8</ele>
        <time>2022-01-16T11:38:06Z</time>
      </trkpt>
      <trkpt lat="45.18505" lon="5.98458">
        <ele>2502.8</ele>
        <time>2022-01-16T11:38:07Z</time>
      </trkpt>
      <trkpt lat="45.18505" lon="5.98461">
        <ele>2503.8</ele>
        <time>2022-01-16T11:38:10Z</time>
      </trkpt>
      <trkpt lat="45.18505" lon="5.98467">
        <ele>2504.8</ele>
        <time>2022-01-16T11:38:14Z</time>
      </trkpt>
      <trkpt lat="45.18505" lon="5.9847">
        <ele>2505.4</ele>
        <time>2022-01-16T11:38:18Z</time>
      </trkpt>
      <trkpt lat="45.18506" lon="5.98469">
        <ele>2505.4</ele>
        <time>2022-01-16T11:38:19Z</time>
      </trkpt>
      <trkpt lat="45.18507" lon="5.98467">
        <ele>2506.2</ele>
        <time>2022-01-16T11:38:22Z</time>
      </trkpt>
      <trkpt lat="45.18509" lon="5.98465">
        <ele>2507</ele>
        <time>2022-01-16T11:38:25Z</time>
      </trkpt>
      <trkpt lat="45.18509" lon="5.98464">
        <ele>2507.2</ele>
        <time>2022-01-16T11:38:26Z</time>
      </trkpt>
      <trkpt lat="45.18512" lon="5.98461">
        <ele>2508.2</ele>
        <time>2022-01-16T11:38:30Z</time>
      </trkpt>
      <trkpt lat="45.18515" lon="5.9846">
        <ele>2509.4</ele>
        <time>2022-01-16T11:38:33Z</time>
      </trkpt>
      <trkpt lat="45.18515" lon="5.98462">
        <ele>2509.6</ele>
        <time>2022-01-16T11:38:36Z</time>
      </trkpt>
      <trkpt lat="45.18515" lon="5.98463">
        <ele>2510</ele>
        <time>2022-01-16T11:38:38Z</time>
      </trkpt>
      <trkpt lat="45.18515" lon="5.98464">
        <ele>2510.2</ele>
        <time>2022-01-16T11:38:39Z</time>
      </trkpt>
      <trkpt lat="45.18515" lon="5.98466">
        <ele>2510.6</ele>
        <time>2022-01-16T11:38:40Z</time>
      </trkpt>
      <trkpt lat="45.18515" lon="5.98472">
        <ele>2511.6</ele>
        <time>2022-01-16T11:38:46Z</time>
      </trkpt>
      <trkpt lat="45.18515" lon="5.98476">
        <ele>2512.6</ele>
        <time>2022-01-16T11:38:49Z</time>
      </trkpt>
      <trkpt lat="45.18515" lon="5.98477">
        <ele>2513</ele>
        <time>2022-01-16T11:38:51Z</time>
      </trkpt>
      <trkpt lat="45.18515" lon="5.98477">
        <ele>2513</ele>
        <time>2022-01-16T11:38:53Z</time>
      </trkpt>
      <trkpt lat="45.18515" lon="5.98477">
        <ele>2513.2</ele>
        <time>2022-01-16T11:38:54Z</time>
      </trkpt>
      <trkpt lat="45.18516" lon="5.98475">
        <ele>2513.6</ele>
        <time>2022-01-16T11:38:58Z</time>
      </trkpt>
      <trkpt lat="45.18517" lon="5.98474">
        <ele>2513.8</ele>
        <time>2022-01-16T11:38:59Z</time>
      </trkpt>
      <trkpt lat="45.18517" lon="5.98473">
        <ele>2514.2</ele>
        <time>2022-01-16T11:39:01Z</time>
      </trkpt>
      <trkpt lat="45.18518" lon="5.98471">
        <ele>2515</ele>
        <time>2022-01-16T11:39:03Z</time>
      </trkpt>
      <trkpt lat="45.18519" lon="5.98468">
        <ele>2515.4</ele>
        <time>2022-01-16T11:39:05Z</time>
      </trkpt>
      <trkpt lat="45.1852" lon="5.98466">
        <ele>2516</ele>
        <time>2022-01-16T11:39:07Z</time>
      </trkpt>
      <trkpt lat="45.18521" lon="5.98465">
        <ele>2516.2</ele>
        <time>2022-01-16T11:39:08Z</time>
      </trkpt>
      <trkpt lat="45.18524" lon="5.98462">
        <ele>2517.2</ele>
        <time>2022-01-16T11:39:13Z</time>
      </trkpt>
      <trkpt lat="45.18524" lon="5.98464">
        <ele>2518.2</ele>
        <time>2022-01-16T11:39:15Z</time>
      </trkpt>
      <trkpt lat="45.18524" lon="5.98465">
        <ele>2518.2</ele>
        <time>2022-01-16T11:39:16Z</time>
      </trkpt>
      <trkpt lat="45.18524" lon="5.9847">
        <ele>2519.2</ele>
        <time>2022-01-16T11:39:21Z</time>
      </trkpt>
      <trkpt lat="45.18525" lon="5.98471">
        <ele>2519.4</ele>
        <time>2022-01-16T11:39:22Z</time>
      </trkpt>
      <trkpt lat="45.18525" lon="5.98474">
        <ele>2520.4</ele>
        <time>2022-01-16T11:39:25Z</time>
      </trkpt>
      <trkpt lat="45.18525" lon="5.98474">
        <ele>2520.8</ele>
        <time>2022-01-16T11:39:27Z</time>
      </trkpt>
      <trkpt lat="45.18528" lon="5.98471">
        <ele>2521.6</ele>
        <time>2022-01-16T11:39:33Z</time>
      </trkpt>
      <trkpt lat="45.18529" lon="5.9847">
        <ele>2522.4</ele>
        <time>2022-01-16T11:39:35Z</time>
      </trkpt>
      <trkpt lat="45.1853" lon="5.98468">
        <ele>2523</ele>
        <time>2022-01-16T11:39:37Z</time>
      </trkpt>
      <trkpt lat="45.18532" lon="5.98466">
        <ele>2523.6</ele>
        <time>2022-01-16T11:39:40Z</time>
      </trkpt>
      <trkpt lat="45.18533" lon="5.98465">
        <ele>2524.2</ele>
        <time>2022-01-16T11:39:42Z</time>
      </trkpt>
      <trkpt lat="45.18535" lon="5.98465">
        <ele>2524.8</ele>
        <time>2022-01-16T11:39:44Z</time>
      </trkpt>
      <trkpt lat="45.18535" lon="5.98468">
        <ele>2525.6</ele>
        <time>2022-01-16T11:39:49Z</time>
      </trkpt>
      <trkpt lat="45.18536" lon="5.9847">
        <ele>2526</ele>
        <time>2022-01-16T11:39:51Z</time>
      </trkpt>
      <trkpt lat="45.18536" lon="5.98475">
        <ele>2527.2</ele>
        <time>2022-01-16T11:39:55Z</time>
      </trkpt>
      <trkpt lat="45.18536" lon="5.98475">
        <ele>2527.2</ele>
        <time>2022-01-16T11:39:57Z</time>
      </trkpt>
      <trkpt lat="45.18539" lon="5.98472">
        <ele>2528.2</ele>
        <time>2022-01-16T11:40:02Z</time>
      </trkpt>
      <trkpt lat="45.18542" lon="5.9847">
        <ele>2529.4</ele>
        <time>2022-01-16T11:40:06Z</time>
      </trkpt>
      <trkpt lat="45.18544" lon="5.98466">
        <ele>2530.4</ele>
        <time>2022-01-16T11:40:10Z</time>
      </trkpt>
      <trkpt lat="45.18545" lon="5.98464">
        <ele>2531.2</ele>
        <time>2022-01-16T11:40:13Z</time>
      </trkpt>
      <trkpt lat="45.18546" lon="5.98463">
        <ele>2531.6</ele>
        <time>2022-01-16T11:40:14Z</time>
      </trkpt>
      <trkpt lat="45.18547" lon="5.98459">
        <ele>2532.6</ele>
        <time>2022-01-16T11:40:18Z</time>
      </trkpt>
      <trkpt lat="45.18549" lon="5.9846">
        <ele>2533.2</ele>
        <time>2022-01-16T11:40:21Z</time>
      </trkpt>
      <trkpt lat="45.1855" lon="5.98462">
        <ele>2533.8</ele>
        <time>2022-01-16T11:40:24Z</time>
      </trkpt>
      <trkpt lat="45.18549" lon="5.98468">
        <ele>2534.8</ele>
        <time>2022-01-16T11:40:28Z</time>
      </trkpt>
      <trkpt lat="45.18549" lon="5.98472">
        <ele>2536</ele>
        <time>2022-01-16T11:40:31Z</time>
      </trkpt>
      <trkpt lat="45.18549" lon="5.98476">
        <ele>2536.8</ele>
        <time>2022-01-16T11:40:35Z</time>
      </trkpt>
      <trkpt lat="45.18549" lon="5.98476">
        <ele>2537.4</ele>
        <time>2022-01-16T11:40:37Z</time>
      </trkpt>
      <trkpt lat="45.18549" lon="5.98474">
        <ele>2537.6</ele>
        <time>2022-01-16T11:40:39Z</time>
      </trkpt>
      <trkpt lat="45.18551" lon="5.98472">
        <ele>2538.6</ele>
        <time>2022-01-16T11:40:42Z</time>
      </trkpt>
      <trkpt lat="45.18554" lon="5.98469">
        <ele>2539.2</ele>
        <time>2022-01-16T11:40:46Z</time>
      </trkpt>
      <trkpt lat="45.18555" lon="5.98465">
        <ele>2539.8</ele>
        <time>2022-01-16T11:40:49Z</time>
      </trkpt>
      <trkpt lat="45.18556" lon="5.98463">
        <ele>2541.2</ele>
        <time>2022-01-16T11:40:53Z</time>
      </trkpt>
      <trkpt lat="45.18556" lon="5.98462">
        <ele>2541.4</ele>
        <time>2022-01-16T11:40:54Z</time>
      </trkpt>
      <trkpt lat="45.18556" lon="5.98462">
        <ele>2541.6</ele>
        <time>2022-01-16T11:40:55Z</time>
      </trkpt>
      <trkpt lat="45.18556" lon="5.98462">
        <ele>2541.6</ele>
        <time>2022-01-16T11:41:01Z</time>
      </trkpt>
      <trkpt lat="45.18556" lon="5.98461">
        <ele>2541.6</ele>
        <time>2022-01-16T11:41:03Z</time>
      </trkpt>
      <trkpt lat="45.18557" lon="5.98458">
        <ele>2542.4</ele>
        <time>2022-01-16T11:41:07Z</time>
      </trkpt>
      <trkpt lat="45.18559" lon="5.98455">
        <ele>2543.2</ele>
        <time>2022-01-16T11:41:10Z</time>
      </trkpt>
      <trkpt lat="45.1856" lon="5.98452">
        <ele>2543.6</ele>
        <time>2022-01-16T11:41:13Z</time>
      </trkpt>
      <trkpt lat="45.1856" lon="5.98447">
        <ele>2544.8</ele>
        <time>2022-01-16T11:41:16Z</time>
      </trkpt>
      <trkpt lat="45.1856" lon="5.98446">
        <ele>2544.8</ele>
        <time>2022-01-16T11:41:17Z</time>
      </trkpt>
      <trkpt lat="45.18561" lon="5.98445">
        <ele>2545</ele>
        <time>2022-01-16T11:41:18Z</time>
      </trkpt>
      <trkpt lat="45.18563" lon="5.98446">
        <ele>2546</ele>
        <time>2022-01-16T11:41:21Z</time>
      </trkpt>
      <trkpt lat="45.18563" lon="5.98447">
        <ele>2546.2</ele>
        <time>2022-01-16T11:41:22Z</time>
      </trkpt>
      <trkpt lat="45.18564" lon="5.98449">
        <ele>2546.6</ele>
        <time>2022-01-16T11:41:24Z</time>
      </trkpt>
      <trkpt lat="45.18566" lon="5.98453">
        <ele>2547</ele>
        <time>2022-01-16T11:41:27Z</time>
      </trkpt>
      <trkpt lat="45.18568" lon="5.98459">
        <ele>2548.2</ele>
        <time>2022-01-16T11:41:32Z</time>
      </trkpt>
      <trkpt lat="45.18569" lon="5.9846">
        <ele>2548.2</ele>
        <time>2022-01-16T11:41:33Z</time>
      </trkpt>
      <trkpt lat="45.1857" lon="5.98466">
        <ele>2549.2</ele>
        <time>2022-01-16T11:41:37Z</time>
      </trkpt>
      <trkpt lat="45.18572" lon="5.98472">
        <ele>2550.4</ele>
        <time>2022-01-16T11:41:42Z</time>
      </trkpt>
      <trkpt lat="45.18573" lon="5.98476">
        <ele>2551</ele>
        <time>2022-01-16T11:41:45Z</time>
      </trkpt>
      <trkpt lat="45.18573" lon="5.98477">
        <ele>2551.6</ele>
        <time>2022-01-16T11:41:46Z</time>
      </trkpt>
      <trkpt lat="45.18572" lon="5.98484">
        <ele>2552.8</ele>
        <time>2022-01-16T11:41:51Z</time>
      </trkpt>
      <trkpt lat="45.18571" lon="5.98491">
        <ele>2554</ele>
        <time>2022-01-16T11:41:56Z</time>
      </trkpt>
      <trkpt lat="45.1857" lon="5.98493">
        <ele>2554.8</ele>
        <time>2022-01-16T11:41:59Z</time>
      </trkpt>
      <trkpt lat="45.1857" lon="5.98493">
        <ele>2555</ele>
        <time>2022-01-16T11:42:01Z</time>
      </trkpt>
      <trkpt lat="45.18572" lon="5.98491">
        <ele>2555.4</ele>
        <time>2022-01-16T11:42:05Z</time>
      </trkpt>
      <trkpt lat="45.18573" lon="5.98491">
        <ele>2556.2</ele>
        <time>2022-01-16T11:42:06Z</time>
      </trkpt>
      <trkpt lat="45.18576" lon="5.98488">
        <ele>2557.2</ele>
        <time>2022-01-16T11:42:11Z</time>
      </trkpt>
      <trkpt lat="45.18578" lon="5.98486">
        <ele>2557.8</ele>
        <time>2022-01-16T11:42:13Z</time>
      </trkpt>
      <trkpt lat="45.1858" lon="5.98484">
        <ele>2558.4</ele>
        <time>2022-01-16T11:42:16Z</time>
      </trkpt>
      <trkpt lat="45.18583" lon="5.98479">
        <ele>2559.4</ele>
        <time>2022-01-16T11:42:21Z</time>
      </trkpt>
      <trkpt lat="45.18583" lon="5.98478">
        <ele>2559.6</ele>
        <time>2022-01-16T11:42:22Z</time>
      </trkpt>
      <trkpt lat="45.18584" lon="5.98475">
        <ele>2560.6</ele>
        <time>2022-01-16T11:42:25Z</time>
      </trkpt>
      <trkpt lat="45.18586" lon="5.98473">
        <ele>2561.4</ele>
        <time>2022-01-16T11:42:28Z</time>
      </trkpt>
      <trkpt lat="45.18587" lon="5.98476">
        <ele>2562</ele>
        <time>2022-01-16T11:42:31Z</time>
      </trkpt>
      <trkpt lat="45.18589" lon="5.98481">
        <ele>2562.6</ele>
        <time>2022-01-16T11:42:35Z</time>
      </trkpt>
      <trkpt lat="45.1859" lon="5.98482">
        <ele>2562.6</ele>
        <time>2022-01-16T11:42:36Z</time>
      </trkpt>
      <trkpt lat="45.1859" lon="5.98484">
        <ele>2563.2</ele>
        <time>2022-01-16T11:42:37Z</time>
      </trkpt>
      <trkpt lat="45.1859" lon="5.98489">
        <ele>2564.2</ele>
        <time>2022-01-16T11:42:41Z</time>
      </trkpt>
      <trkpt lat="45.18589" lon="5.9849">
        <ele>2564.4</ele>
        <time>2022-01-16T11:42:42Z</time>
      </trkpt>
      <trkpt lat="45.18589" lon="5.98497">
        <ele>2565.4</ele>
        <time>2022-01-16T11:42:47Z</time>
      </trkpt>
      <trkpt lat="45.18589" lon="5.98503">
        <ele>2566.6</ele>
        <time>2022-01-16T11:42:51Z</time>
      </trkpt>
      <trkpt lat="45.18588" lon="5.98507">
        <ele>2567.2</ele>
        <time>2022-01-16T11:42:55Z</time>
      </trkpt>
      <trkpt lat="45.18588" lon="5.98508">
        <ele>2568</ele>
        <time>2022-01-16T11:42:56Z</time>
      </trkpt>
      <trkpt lat="45.18588" lon="5.98508">
        <ele>2568.2</ele>
        <time>2022-01-16T11:42:57Z</time>
      </trkpt>
      <trkpt lat="45.1859" lon="5.98506">
        <ele>2568.6</ele>
        <time>2022-01-16T11:43:03Z</time>
      </trkpt>
      <trkpt lat="45.18591" lon="5.98505">
        <ele>2568.6</ele>
        <time>2022-01-16T11:43:04Z</time>
      </trkpt>
      <trkpt lat="45.18592" lon="5.98503">
        <ele>2569.4</ele>
        <time>2022-01-16T11:43:06Z</time>
      </trkpt>
      <trkpt lat="45.18593" lon="5.98502">
        <ele>2569.6</ele>
        <time>2022-01-16T11:43:07Z</time>
      </trkpt>
      <trkpt lat="45.18596" lon="5.985">
        <ele>2570.4</ele>
        <time>2022-01-16T11:43:11Z</time>
      </trkpt>
      <trkpt lat="45.18597" lon="5.985">
        <ele>2571</ele>
        <time>2022-01-16T11:43:12Z</time>
      </trkpt>
      <trkpt lat="45.18601" lon="5.98496">
        <ele>2572</ele>
        <time>2022-01-16T11:43:17Z</time>
      </trkpt>
      <trkpt lat="45.18603" lon="5.98492">
        <ele>2573</ele>
        <time>2022-01-16T11:43:21Z</time>
      </trkpt>
      <trkpt lat="45.18603" lon="5.98491">
        <ele>2573.4</ele>
        <time>2022-01-16T11:43:22Z</time>
      </trkpt>
      <trkpt lat="45.18604" lon="5.98489">
        <ele>2573.8</ele>
        <time>2022-01-16T11:43:24Z</time>
      </trkpt>
      <trkpt lat="45.18605" lon="5.98487">
        <ele>2574.8</ele>
        <time>2022-01-16T11:43:26Z</time>
      </trkpt>
      <trkpt lat="45.18605" lon="5.98488">
        <ele>2575</ele>
        <time>2022-01-16T11:43:28Z</time>
      </trkpt>
      <trkpt lat="45.18607" lon="5.98492">
        <ele>2576</ele>
        <time>2022-01-16T11:43:32Z</time>
      </trkpt>
      <trkpt lat="45.18607" lon="5.98493">
        <ele>2576.2</ele>
        <time>2022-01-16T11:43:33Z</time>
      </trkpt>
      <trkpt lat="45.18608" lon="5.98499">
        <ele>2576.8</ele>
        <time>2022-01-16T11:43:37Z</time>
      </trkpt>
      <trkpt lat="45.18608" lon="5.985">
        <ele>2577.4</ele>
        <time>2022-01-16T11:43:38Z</time>
      </trkpt>
      <trkpt lat="45.18608" lon="5.98502">
        <ele>2577.8</ele>
        <time>2022-01-16T11:43:40Z</time>
      </trkpt>
      <trkpt lat="45.18608" lon="5.98507">
        <ele>2578.6</ele>
        <time>2022-01-16T11:43:44Z</time>
      </trkpt>
      <trkpt lat="45.18608" lon="5.98509">
        <ele>2579.2</ele>
        <time>2022-01-16T11:43:46Z</time>
      </trkpt>
      <trkpt lat="45.18606" lon="5.98511">
        <ele>2579.4</ele>
        <time>2022-01-16T11:43:52Z</time>
      </trkpt>
      <trkpt lat="45.18606" lon="5.98511">
        <ele>2579.6</ele>
        <time>2022-01-16T11:43:54Z</time>
      </trkpt>
      <trkpt lat="45.18606" lon="5.98513">
        <ele>2579.8</ele>
        <time>2022-01-16T11:43:58Z</time>
      </trkpt>
      <trkpt lat="45.18605" lon="5.98519">
        <ele>2580.8</ele>
        <time>2022-01-16T11:44:04Z</time>
      </trkpt>
      <trkpt lat="45.18605" lon="5.98523">
        <ele>2581.4</ele>
        <time>2022-01-16T11:44:07Z</time>
      </trkpt>
      <trkpt lat="45.18604" lon="5.98524">
        <ele>2581.6</ele>
        <time>2022-01-16T11:44:08Z</time>
      </trkpt>
      <trkpt lat="45.18604" lon="5.98525">
        <ele>2581.8</ele>
        <time>2022-01-16T11:44:09Z</time>
      </trkpt>
      <trkpt lat="45.18604" lon="5.98526">
        <ele>2582</ele>
        <time>2022-01-16T11:44:10Z</time>
      </trkpt>
      <trkpt lat="45.18603" lon="5.98529">
        <ele>2583</ele>
        <time>2022-01-16T11:44:13Z</time>
      </trkpt>
      <trkpt lat="45.18605" lon="5.98528">
        <ele>2583.6</ele>
        <time>2022-01-16T11:44:16Z</time>
      </trkpt>
      <trkpt lat="45.18608" lon="5.98526">
        <ele>2584</ele>
        <time>2022-01-16T11:44:19Z</time>
      </trkpt>
      <trkpt lat="45.18611" lon="5.98525">
        <ele>2585</ele>
        <time>2022-01-16T11:44:23Z</time>
      </trkpt>
      <trkpt lat="45.18612" lon="5.98524">
        <ele>2585.4</ele>
        <time>2022-01-16T11:44:24Z</time>
      </trkpt>
      <trkpt lat="45.18615" lon="5.98522">
        <ele>2586.6</ele>
        <time>2022-01-16T11:44:28Z</time>
      </trkpt>
      <trkpt lat="45.18617" lon="5.98519">
        <ele>2587.4</ele>
        <time>2022-01-16T11:44:31Z</time>
      </trkpt>
      <trkpt lat="45.1862" lon="5.98517">
        <ele>2587.6</ele>
        <time>2022-01-16T11:44:34Z</time>
      </trkpt>
      <trkpt lat="45.18622" lon="5.98514">
        <ele>2588.6</ele>
        <time>2022-01-16T11:44:37Z</time>
      </trkpt>
      <trkpt lat="45.18626" lon="5.98511">
        <ele>2590.2</ele>
        <time>2022-01-16T11:44:42Z</time>
      </trkpt>
      <trkpt lat="45.18627" lon="5.9851">
        <ele>2590.2</ele>
        <time>2022-01-16T11:44:43Z</time>
      </trkpt>
      <trkpt lat="45.1863" lon="5.98508">
        <ele>2591.2</ele>
        <time>2022-01-16T11:44:46Z</time>
      </trkpt>
      <trkpt lat="45.18634" lon="5.98505">
        <ele>2592.2</ele>
        <time>2022-01-16T11:44:50Z</time>
      </trkpt>
      <trkpt lat="45.18637" lon="5.98503">
        <ele>2592.4</ele>
        <time>2022-01-16T11:44:52Z</time>
      </trkpt>
      <trkpt lat="45.18639" lon="5.985">
        <ele>2593.2</ele>
        <time>2022-01-16T11:44:56Z</time>
      </trkpt>
      <trkpt lat="45.18644" lon="5.98499">
        <ele>2594.4</ele>
        <time>2022-01-16T11:45:00Z</time>
      </trkpt>
      <trkpt lat="45.18646" lon="5.98499">
        <ele>2594.6</ele>
        <time>2022-01-16T11:45:02Z</time>
      </trkpt>
      <trkpt lat="45.1865" lon="5.98498">
        <ele>2595.8</ele>
        <time>2022-01-16T11:45:06Z</time>
      </trkpt>
      <trkpt lat="45.18653" lon="5.985">
        <ele>2596.8</ele>
        <time>2022-01-16T11:45:10Z</time>
      </trkpt>
      <trkpt lat="45.18654" lon="5.98501">
        <ele>2597.2</ele>
        <time>2022-01-16T11:45:11Z</time>
      </trkpt>
      <trkpt lat="45.18656" lon="5.98503">
        <ele>2598</ele>
        <time>2022-01-16T11:45:15Z</time>
      </trkpt>
      <trkpt lat="45.18658" lon="5.98507">
        <ele>2598.6</ele>
        <time>2022-01-16T11:45:20Z</time>
      </trkpt>
      <trkpt lat="45.18658" lon="5.98507">
        <ele>2599</ele>
        <time>2022-01-16T11:45:26Z</time>
      </trkpt>
      <trkpt lat="45.18656" lon="5.98507">
        <ele>2599</ele>
        <time>2022-01-16T11:45:28Z</time>
      </trkpt>
      <trkpt lat="45.18655" lon="5.98507">
        <ele>2599</ele>
        <time>2022-01-16T11:45:34Z</time>
      </trkpt>
      <trkpt lat="45.18655" lon="5.98507">
        <ele>2598.8</ele>
        <time>2022-01-16T11:45:40Z</time>
      </trkpt>
      <trkpt lat="45.18655" lon="5.98507">
        <ele>2599</ele>
        <time>2022-01-16T11:45:42Z</time>
      </trkpt>
      <trkpt lat="45.18655" lon="5.98507">
        <ele>2598.8</ele>
        <time>2022-01-16T11:45:45Z</time>
      </trkpt>
      <trkpt lat="45.18654" lon="5.98507">
        <ele>2598.8</ele>
        <time>2022-01-16T11:45:49Z</time>
      </trkpt>
      <trkpt lat="45.18654" lon="5.98507">
        <ele>2598.8</ele>
        <time>2022-01-16T11:45:55Z</time>
      </trkpt>
      <trkpt lat="45.18654" lon="5.98506">
        <ele>2598.8</ele>
        <time>2022-01-16T11:45:59Z</time>
      </trkpt>
      <trkpt lat="45.18654" lon="5.98506">
        <ele>2598.8</ele>
        <time>2022-01-16T11:46:00Z</time>
      </trkpt>
      <trkpt lat="45.18653" lon="5.98506">
        <ele>2598.8</ele>
        <time>2022-01-16T11:46:05Z</time>
      </trkpt>
      <trkpt lat="45.18657" lon="5.98513">
        <ele>2598.8</ele>
        <time>2022-01-16T11:46:10Z</time>
      </trkpt>
      <trkpt lat="45.18662" lon="5.98519">
        <ele>2599.2</ele>
        <time>2022-01-16T11:46:14Z</time>
      </trkpt>
      <trkpt lat="45.18666" lon="5.98523">
        <ele>2599.4</ele>
        <time>2022-01-16T11:46:17Z</time>
      </trkpt>
      <trkpt lat="45.1867" lon="5.98526">
        <ele>2600.8</ele>
        <time>2022-01-16T11:46:21Z</time>
      </trkpt>
      <trkpt lat="45.18674" lon="5.98527">
        <ele>2601.8</ele>
        <time>2022-01-16T11:46:25Z</time>
      </trkpt>
      <trkpt lat="45.18678" lon="5.98528">
        <ele>2602.6</ele>
        <time>2022-01-16T11:46:28Z</time>
      </trkpt>
      <trkpt lat="45.18681" lon="5.98529">
        <ele>2602.8</ele>
        <time>2022-01-16T11:46:30Z</time>
      </trkpt>
      <trkpt lat="45.18687" lon="5.98532">
        <ele>2603.4</ele>
        <time>2022-01-16T11:46:35Z</time>
      </trkpt>
      <trkpt lat="45.18689" lon="5.98532">
        <ele>2604</ele>
        <time>2022-01-16T11:46:37Z</time>
      </trkpt>
      <trkpt lat="45.18693" lon="5.98532">
        <ele>2604.2</ele>
        <time>2022-01-16T11:46:41Z</time>
      </trkpt>
      <trkpt lat="45.18696" lon="5.98531">
        <ele>2605</ele>
        <time>2022-01-16T11:46:44Z</time>
      </trkpt>
      <trkpt lat="45.18697" lon="5.98531">
        <ele>2605</ele>
        <time>2022-01-16T11:46:45Z</time>
      </trkpt>
      <trkpt lat="45.18702" lon="5.98531">
        <ele>2605.2</ele>
        <time>2022-01-16T11:46:49Z</time>
      </trkpt>
      <trkpt lat="45.18704" lon="5.98531">
        <ele>2605.4</ele>
        <time>2022-01-16T11:46:52Z</time>
      </trkpt>
      <trkpt lat="45.18705" lon="5.98531">
        <ele>2605.4</ele>
        <time>2022-01-16T11:46:53Z</time>
      </trkpt>
      <trkpt lat="45.18707" lon="5.98532">
        <ele>2606.2</ele>
        <time>2022-01-16T11:46:55Z</time>
      </trkpt>
      <trkpt lat="45.18709" lon="5.98534">
        <ele>2607.4</ele>
        <time>2022-01-16T11:46:59Z</time>
      </trkpt>
      <trkpt lat="45.18709" lon="5.98538">
        <ele>2608</ele>
        <time>2022-01-16T11:47:03Z</time>
      </trkpt>
      <trkpt lat="45.1871" lon="5.98541">
        <ele>2608.8</ele>
        <time>2022-01-16T11:47:05Z</time>
      </trkpt>
      <trkpt lat="45.18711" lon="5.98541">
        <ele>2609.8</ele>
        <time>2022-01-16T11:47:09Z</time>
      </trkpt>
      <trkpt lat="45.18711" lon="5.9854">
        <ele>2610</ele>
        <time>2022-01-16T11:47:10Z</time>
      </trkpt>
      <trkpt lat="45.18713" lon="5.98536">
        <ele>2611</ele>
        <time>2022-01-16T11:47:15Z</time>
      </trkpt>
      <trkpt lat="45.18714" lon="5.98536">
        <ele>2611.6</ele>
        <time>2022-01-16T11:47:16Z</time>
      </trkpt>
      <trkpt lat="45.18716" lon="5.98531">
        <ele>2612.6</ele>
        <time>2022-01-16T11:47:22Z</time>
      </trkpt>
      <trkpt lat="45.18718" lon="5.98528">
        <ele>2613.8</ele>
        <time>2022-01-16T11:47:25Z</time>
      </trkpt>
      <trkpt lat="45.18719" lon="5.98526">
        <ele>2614.2</ele>
        <time>2022-01-16T11:47:29Z</time>
      </trkpt>
      <trkpt lat="45.1872" lon="5.98526">
        <ele>2615</ele>
        <time>2022-01-16T11:47:30Z</time>
      </trkpt>
      <trkpt lat="45.18721" lon="5.98526">
        <ele>2615.4</ele>
        <time>2022-01-16T11:47:32Z</time>
      </trkpt>
      <trkpt lat="45.18721" lon="5.98526">
        <ele>2615.6</ele>
        <time>2022-01-16T11:47:33Z</time>
      </trkpt>
      <trkpt lat="45.18722" lon="5.98527">
        <ele>2615.4</ele>
        <time>2022-01-16T11:47:39Z</time>
      </trkpt>
      <trkpt lat="45.18723" lon="5.98526">
        <ele>2615.6</ele>
        <time>2022-01-16T11:47:43Z</time>
      </trkpt>
      <trkpt lat="45.18726" lon="5.9853">
        <ele>2616.2</ele>
        <time>2022-01-16T11:47:48Z</time>
      </trkpt>
      <trkpt lat="45.18727" lon="5.9853">
        <ele>2616.4</ele>
        <time>2022-01-16T11:47:49Z</time>
      </trkpt>
      <trkpt lat="45.18727" lon="5.98532">
        <ele>2617.6</ele>
        <time>2022-01-16T11:47:53Z</time>
      </trkpt>
      <trkpt lat="45.18726" lon="5.98534">
        <ele>2618</ele>
        <time>2022-01-16T11:47:54Z</time>
      </trkpt>
      <trkpt lat="45.18727" lon="5.98536">
        <ele>2618.4</ele>
        <time>2022-01-16T11:47:56Z</time>
      </trkpt>
      <trkpt lat="45.18726" lon="5.98537">
        <ele>2618.6</ele>
        <time>2022-01-16T11:47:58Z</time>
      </trkpt>
      <trkpt lat="45.18725" lon="5.98538">
        <ele>2619</ele>
        <time>2022-01-16T11:48:00Z</time>
      </trkpt>
      <trkpt lat="45.18725" lon="5.98539">
        <ele>2619.4</ele>
        <time>2022-01-16T11:48:01Z</time>
      </trkpt>
      <trkpt lat="45.18725" lon="5.9854">
        <ele>2619.6</ele>
        <time>2022-01-16T11:48:02Z</time>
      </trkpt>
      <trkpt lat="45.18725" lon="5.98543">
        <ele>2620.2</ele>
        <time>2022-01-16T11:48:04Z</time>
      </trkpt>
      <trkpt lat="45.18726" lon="5.98546">
        <ele>2620.8</ele>
        <time>2022-01-16T11:48:06Z</time>
      </trkpt>
      <trkpt lat="45.18727" lon="5.98548">
        <ele>2621.2</ele>
        <time>2022-01-16T11:48:08Z</time>
      </trkpt>
      <trkpt lat="45.18727" lon="5.9855">
        <ele>2622.2</ele>
        <time>2022-01-16T11:48:12Z</time>
      </trkpt>
      <trkpt lat="45.18727" lon="5.98551">
        <ele>2622.2</ele>
        <time>2022-01-16T11:48:13Z</time>
      </trkpt>
      <trkpt lat="45.18726" lon="5.98556">
        <ele>2623.6</ele>
        <time>2022-01-16T11:48:18Z</time>
      </trkpt>
      <trkpt lat="45.18726" lon="5.98556">
        <ele>2624.2</ele>
        <time>2022-01-16T11:48:20Z</time>
      </trkpt>
      <trkpt lat="45.18727" lon="5.98557">
        <ele>2624.4</ele>
        <time>2022-01-16T11:48:24Z</time>
      </trkpt>
      <trkpt lat="45.18728" lon="5.98556">
        <ele>2624.8</ele>
        <time>2022-01-16T11:48:27Z</time>
      </trkpt>
      <trkpt lat="45.18731" lon="5.98556">
        <ele>2625.2</ele>
        <time>2022-01-16T11:48:30Z</time>
      </trkpt>
      <trkpt lat="45.18732" lon="5.98556">
        <ele>2625.8</ele>
        <time>2022-01-16T11:48:32Z</time>
      </trkpt>
      <trkpt lat="45.18733" lon="5.98556">
        <ele>2626</ele>
        <time>2022-01-16T11:48:33Z</time>
      </trkpt>
      <trkpt lat="45.18736" lon="5.98554">
        <ele>2626.8</ele>
        <time>2022-01-16T11:48:36Z</time>
      </trkpt>
      <trkpt lat="45.18736" lon="5.98553">
        <ele>2627</ele>
        <time>2022-01-16T11:48:38Z</time>
      </trkpt>
      <trkpt lat="45.18738" lon="5.98552">
        <ele>2627.8</ele>
        <time>2022-01-16T11:48:40Z</time>
      </trkpt>
      <trkpt lat="45.18739" lon="5.9855">
        <ele>2628.2</ele>
        <time>2022-01-16T11:48:42Z</time>
      </trkpt>
      <trkpt lat="45.18743" lon="5.98547">
        <ele>2629.4</ele>
        <time>2022-01-16T11:48:47Z</time>
      </trkpt>
      <trkpt lat="45.18744" lon="5.98547">
        <ele>2629.4</ele>
        <time>2022-01-16T11:48:48Z</time>
      </trkpt>
      <trkpt lat="45.18746" lon="5.98545">
        <ele>2630.4</ele>
        <time>2022-01-16T11:48:51Z</time>
      </trkpt>
      <trkpt lat="45.18748" lon="5.98543">
        <ele>2631</ele>
        <time>2022-01-16T11:48:54Z</time>
      </trkpt>
      <trkpt lat="45.18748" lon="5.98543">
        <ele>2631.4</ele>
        <time>2022-01-16T11:48:55Z</time>
      </trkpt>
      <trkpt lat="45.18749" lon="5.98542">
        <ele>2631.8</ele>
        <time>2022-01-16T11:48:56Z</time>
      </trkpt>
      <trkpt lat="45.18751" lon="5.9854">
        <ele>2632.4</ele>
        <time>2022-01-16T11:48:59Z</time>
      </trkpt>
      <trkpt lat="45.18754" lon="5.98536">
        <ele>2633.8</ele>
        <time>2022-01-16T11:49:03Z</time>
      </trkpt>
      <trkpt lat="45.18759" lon="5.98532">
        <ele>2634.8</ele>
        <time>2022-01-16T11:49:09Z</time>
      </trkpt>
      <trkpt lat="45.1876" lon="5.98528">
        <ele>2635.8</ele>
        <time>2022-01-16T11:49:12Z</time>
      </trkpt>
      <trkpt lat="45.1876" lon="5.98526">
        <ele>2637</ele>
        <time>2022-01-16T11:49:15Z</time>
      </trkpt>
      <trkpt lat="45.1876" lon="5.98525">
        <ele>2637.2</ele>
        <time>2022-01-16T11:49:16Z</time>
      </trkpt>
      <trkpt lat="45.18762" lon="5.98524">
        <ele>2638</ele>
        <time>2022-01-16T11:49:22Z</time>
      </trkpt>
      <trkpt lat="45.18765" lon="5.98529">
        <ele>2638.6</ele>
        <time>2022-01-16T11:49:28Z</time>
      </trkpt>
      <trkpt lat="45.18764" lon="5.9853">
        <ele>2639</ele>
        <time>2022-01-16T11:49:30Z</time>
      </trkpt>
      <trkpt lat="45.18764" lon="5.9853">
        <ele>2639.2</ele>
        <time>2022-01-16T11:49:31Z</time>
      </trkpt>
      <trkpt lat="45.18764" lon="5.9853">
        <ele>2639.2</ele>
        <time>2022-01-16T11:49:32Z</time>
      </trkpt>
      <trkpt lat="45.18765" lon="5.98533">
        <ele>2638.8</ele>
        <time>2022-01-16T11:49:38Z</time>
      </trkpt>
      <trkpt lat="45.18766" lon="5.98537">
        <ele>2640.4</ele>
        <time>2022-01-16T11:49:44Z</time>
      </trkpt>
      <trkpt lat="45.18767" lon="5.98533">
        <ele>2641.2</ele>
        <time>2022-01-16T11:49:50Z</time>
      </trkpt>
      <trkpt lat="45.18767" lon="5.98533">
        <ele>2641.4</ele>
        <time>2022-01-16T11:49:51Z</time>
      </trkpt>
      <trkpt lat="45.18768" lon="5.98532">
        <ele>2641.4</ele>
        <time>2022-01-16T11:49:52Z</time>
      </trkpt>
      <trkpt lat="45.18769" lon="5.98528">
        <ele>2642.4</ele>
        <time>2022-01-16T11:49:55Z</time>
      </trkpt>
      <trkpt lat="45.18769" lon="5.98527">
        <ele>2643</ele>
        <time>2022-01-16T11:49:57Z</time>
      </trkpt>
      <trkpt lat="45.1877" lon="5.98528">
        <ele>2643.6</ele>
        <time>2022-01-16T11:50:01Z</time>
      </trkpt>
      <trkpt lat="45.18771" lon="5.98529">
        <ele>2643.8</ele>
        <time>2022-01-16T11:50:03Z</time>
      </trkpt>
      <trkpt lat="45.18771" lon="5.98534">
        <ele>2645.2</ele>
        <time>2022-01-16T11:50:07Z</time>
      </trkpt>
      <trkpt lat="45.18771" lon="5.98535">
        <ele>2645.6</ele>
        <time>2022-01-16T11:50:09Z</time>
      </trkpt>
      <trkpt lat="45.18772" lon="5.98535">
        <ele>2646.2</ele>
        <time>2022-01-16T11:50:13Z</time>
      </trkpt>
      <trkpt lat="45.18775" lon="5.98531">
        <ele>2647.4</ele>
        <time>2022-01-16T11:50:17Z</time>
      </trkpt>
      <trkpt lat="45.18776" lon="5.98529">
        <ele>2647.8</ele>
        <time>2022-01-16T11:50:19Z</time>
      </trkpt>
      <trkpt lat="45.18776" lon="5.98528">
        <ele>2648</ele>
        <time>2022-01-16T11:50:20Z</time>
      </trkpt>
      <trkpt lat="45.18775" lon="5.98526">
        <ele>2648.6</ele>
        <time>2022-01-16T11:50:22Z</time>
      </trkpt>
      <trkpt lat="45.18777" lon="5.98522">
        <ele>2649.8</ele>
        <time>2022-01-16T11:50:27Z</time>
      </trkpt>
      <trkpt lat="45.18777" lon="5.98516">
        <ele>2650.4</ele>
        <time>2022-01-16T11:50:33Z</time>
      </trkpt>
      <trkpt lat="45.18777" lon="5.98515">
        <ele>2650.8</ele>
        <time>2022-01-16T11:50:35Z</time>
      </trkpt>
      <trkpt lat="45.18776" lon="5.98515">
        <ele>2650.8</ele>
        <time>2022-01-16T11:50:36Z</time>
      </trkpt>
      <trkpt lat="45.18775" lon="5.98511">
        <ele>2651.8</ele>
        <time>2022-01-16T11:50:41Z</time>
      </trkpt>
      <trkpt lat="45.18776" lon="5.98509">
        <ele>2652.8</ele>
        <time>2022-01-16T11:50:43Z</time>
      </trkpt>
      <trkpt lat="45.18776" lon="5.98508">
        <ele>2653</ele>
        <time>2022-01-16T11:50:44Z</time>
      </trkpt>
      <trkpt lat="45.18775" lon="5.98506">
        <ele>2653</ele>
        <time>2022-01-16T11:50:46Z</time>
      </trkpt>
      <trkpt lat="45.18774" lon="5.985">
        <ele>2654</ele>
        <time>2022-01-16T11:50:51Z</time>
      </trkpt>
      <trkpt lat="45.18773" lon="5.985">
        <ele>2654</ele>
        <time>2022-01-16T11:50:52Z</time>
      </trkpt>
      <trkpt lat="45.18773" lon="5.98497">
        <ele>2654.2</ele>
        <time>2022-01-16T11:50:54Z</time>
      </trkpt>
      <trkpt lat="45.18773" lon="5.98494">
        <ele>2655</ele>
        <time>2022-01-16T11:50:57Z</time>
      </trkpt>
      <trkpt lat="45.18773" lon="5.98493">
        <ele>2655.2</ele>
        <time>2022-01-16T11:50:59Z</time>
      </trkpt>
      <trkpt lat="45.18773" lon="5.9849">
        <ele>2656.2</ele>
        <time>2022-01-16T11:51:02Z</time>
      </trkpt>
      <trkpt lat="45.18773" lon="5.98486">
        <ele>2656.6</ele>
        <time>2022-01-16T11:51:06Z</time>
      </trkpt>
      <trkpt lat="45.18774" lon="5.98484">
        <ele>2657.2</ele>
        <time>2022-01-16T11:51:12Z</time>
      </trkpt>
      <trkpt lat="45.18775" lon="5.98485">
        <ele>2657.2</ele>
        <time>2022-01-16T11:51:13Z</time>
      </trkpt>
      <trkpt lat="45.1878" lon="5.9849">
        <ele>2658.4</ele>
        <time>2022-01-16T11:51:19Z</time>
      </trkpt>
      <trkpt lat="45.18784" lon="5.98493">
        <ele>2659.8</ele>
        <time>2022-01-16T11:51:25Z</time>
      </trkpt>
      <trkpt lat="45.18785" lon="5.98495">
        <ele>2660</ele>
        <time>2022-01-16T11:51:26Z</time>
      </trkpt>
      <trkpt lat="45.18786" lon="5.98497">
        <ele>2661.2</ele>
        <time>2022-01-16T11:51:29Z</time>
      </trkpt>
      <trkpt lat="45.18787" lon="5.98497">
        <ele>2661.2</ele>
        <time>2022-01-16T11:51:30Z</time>
      </trkpt>
      <trkpt lat="45.18789" lon="5.98499">
        <ele>2661.2</ele>
        <time>2022-01-16T11:51:32Z</time>
      </trkpt>
      <trkpt lat="45.18791" lon="5.985">
        <ele>2662.2</ele>
        <time>2022-01-16T11:51:35Z</time>
      </trkpt>
      <trkpt lat="45.18791" lon="5.98501">
        <ele>2662.6</ele>
        <time>2022-01-16T11:51:37Z</time>
      </trkpt>
      <trkpt lat="45.18795" lon="5.98504">
        <ele>2663.6</ele>
        <time>2022-01-16T11:51:41Z</time>
      </trkpt>
      <trkpt lat="45.18797" lon="5.98505">
        <ele>2663.8</ele>
        <time>2022-01-16T11:51:44Z</time>
      </trkpt>
      <trkpt lat="45.188" lon="5.98505">
        <ele>2664.8</ele>
        <time>2022-01-16T11:51:47Z</time>
      </trkpt>
      <trkpt lat="45.188" lon="5.98505">
        <ele>2665.2</ele>
        <time>2022-01-16T11:51:48Z</time>
      </trkpt>
      <trkpt lat="45.18801" lon="5.98503">
        <ele>2666</ele>
        <time>2022-01-16T11:51:50Z</time>
      </trkpt>
      <trkpt lat="45.18802" lon="5.98503">
        <ele>2666</ele>
        <time>2022-01-16T11:51:51Z</time>
      </trkpt>
      <trkpt lat="45.18804" lon="5.985">
        <ele>2667.2</ele>
        <time>2022-01-16T11:51:56Z</time>
      </trkpt>
      <trkpt lat="45.18805" lon="5.98499">
        <ele>2667.8</ele>
        <time>2022-01-16T11:51:58Z</time>
      </trkpt>
      <trkpt lat="45.18806" lon="5.98498">
        <ele>2668.4</ele>
        <time>2022-01-16T11:52:00Z</time>
      </trkpt>
      <trkpt lat="45.1881" lon="5.98494">
        <ele>2668.8</ele>
        <time>2022-01-16T11:52:06Z</time>
      </trkpt>
      <trkpt lat="45.18811" lon="5.98493">
        <ele>2669.2</ele>
        <time>2022-01-16T11:52:09Z</time>
      </trkpt>
      <trkpt lat="45.18812" lon="5.98492">
        <ele>2669.2</ele>
        <time>2022-01-16T11:52:11Z</time>
      </trkpt>
      <trkpt lat="45.18812" lon="5.98491">
        <ele>2669.4</ele>
        <time>2022-01-16T11:52:12Z</time>
      </trkpt>
      <trkpt lat="45.18811" lon="5.98483">
        <ele>2670</ele>
        <time>2022-01-16T11:52:18Z</time>
      </trkpt>
      <trkpt lat="45.1881" lon="5.98481">
        <ele>2670.4</ele>
        <time>2022-01-16T11:52:20Z</time>
      </trkpt>
      <trkpt lat="45.18808" lon="5.98476">
        <ele>2670.8</ele>
        <time>2022-01-16T11:52:24Z</time>
      </trkpt>
      <trkpt lat="45.18806" lon="5.98473">
        <ele>2671</ele>
        <time>2022-01-16T11:52:26Z</time>
      </trkpt>
      <trkpt lat="45.18806" lon="5.98468">
        <ele>2671.2</ele>
        <time>2022-01-16T11:52:30Z</time>
      </trkpt>
      <trkpt lat="45.18806" lon="5.98466">
        <ele>2671.4</ele>
        <time>2022-01-16T11:52:32Z</time>
      </trkpt>
      <trkpt lat="45.18808" lon="5.98459">
        <ele>2671.4</ele>
        <time>2022-01-16T11:52:37Z</time>
      </trkpt>
      <trkpt lat="45.18808" lon="5.98455">
        <ele>2671.4</ele>
        <time>2022-01-16T11:52:42Z</time>
      </trkpt>
      <trkpt lat="45.18809" lon="5.98456">
        <ele>2671</ele>
        <time>2022-01-16T11:52:48Z</time>
      </trkpt>
      <trkpt lat="45.1881" lon="5.98456">
        <ele>2671</ele>
        <time>2022-01-16T11:52:50Z</time>
      </trkpt>
      <trkpt lat="45.1881" lon="5.98456">
        <ele>2671.2</ele>
        <time>2022-01-16T11:52:52Z</time>
      </trkpt>
      <trkpt lat="45.1881" lon="5.98456">
        <ele>2671.2</ele>
        <time>2022-01-16T11:52:55Z</time>
      </trkpt>
      <trkpt lat="45.1881" lon="5.98456">
        <ele>2671.4</ele>
        <time>2022-01-16T11:53:01Z</time>
      </trkpt>
      <trkpt lat="45.1881" lon="5.98456">
        <ele>2671.6</ele>
        <time>2022-01-16T11:53:05Z</time>
      </trkpt>
      <trkpt lat="45.18806" lon="5.98456">
        <ele>2672</ele>
        <time>2022-01-16T11:53:10Z</time>
      </trkpt>
      <trkpt lat="45.18803" lon="5.98457">
        <ele>2671.8</ele>
        <time>2022-01-16T11:53:16Z</time>
      </trkpt>
      <trkpt lat="45.18803" lon="5.98456">
        <ele>2671.8</ele>
        <time>2022-01-16T11:53:18Z</time>
      </trkpt>
      <trkpt lat="45.18803" lon="5.98456">
        <ele>2671.6</ele>
        <time>2022-01-16T11:53:24Z</time>
      </trkpt>
      <trkpt lat="45.18803" lon="5.98456">
        <ele>2671.6</ele>
        <time>2022-01-16T11:53:30Z</time>
      </trkpt>
      <trkpt lat="45.18803" lon="5.98456">
        <ele>2671.6</ele>
        <time>2022-01-16T11:53:35Z</time>
      </trkpt>
      <trkpt lat="45.18801" lon="5.98455">
        <ele>2671.2</ele>
        <time>2022-01-16T11:53:41Z</time>
      </trkpt>
      <trkpt lat="45.18801" lon="5.98455">
        <ele>2671.2</ele>
        <time>2022-01-16T11:53:42Z</time>
      </trkpt>
      <trkpt lat="45.18801" lon="5.98455">
        <ele>2671</ele>
        <time>2022-01-16T11:53:44Z</time>
      </trkpt>
      <trkpt lat="45.18801" lon="5.98455">
        <ele>2671</ele>
        <time>2022-01-16T11:53:45Z</time>
      </trkpt>
      <trkpt lat="45.18801" lon="5.98455">
        <ele>2671</ele>
        <time>2022-01-16T11:53:46Z</time>
      </trkpt>
      <trkpt lat="45.18801" lon="5.98454">
        <ele>2670.8</ele>
        <time>2022-01-16T11:53:52Z</time>
      </trkpt>
      <trkpt lat="45.18801" lon="5.98453">
        <ele>2670.8</ele>
        <time>2022-01-16T11:53:57Z</time>
      </trkpt>
      <trkpt lat="45.18801" lon="5.98453">
        <ele>2670.8</ele>
        <time>2022-01-16T11:54:03Z</time>
      </trkpt>
      <trkpt lat="45.18801" lon="5.98452">
        <ele>2670.8</ele>
        <time>2022-01-16T11:54:09Z</time>
      </trkpt>
      <trkpt lat="45.18801" lon="5.98452">
        <ele>2670.8</ele>
        <time>2022-01-16T11:54:15Z</time>
      </trkpt>
      <trkpt lat="45.18801" lon="5.98452">
        <ele>2670.8</ele>
        <time>2022-01-16T11:54:21Z</time>
      </trkpt>
      <trkpt lat="45.18801" lon="5.98452">
        <ele>2670.8</ele>
        <time>2022-01-16T11:54:22Z</time>
      </trkpt>
      <trkpt lat="45.18802" lon="5.98453">
        <ele>2670.8</ele>
        <time>2022-01-16T11:54:25Z</time>
      </trkpt>
      <trkpt lat="45.18802" lon="5.98453">
        <ele>2670.8</ele>
        <time>2022-01-16T11:54:31Z</time>
      </trkpt>
      <trkpt lat="45.18802" lon="5.98453">
        <ele>2670.8</ele>
        <time>2022-01-16T11:54:37Z</time>
      </trkpt>
      <trkpt lat="45.18801" lon="5.98453">
        <ele>2670.8</ele>
        <time>2022-01-16T11:54:42Z</time>
      </trkpt>
      <trkpt lat="45.18801" lon="5.98454">
        <ele>2670.8</ele>
        <time>2022-01-16T11:54:48Z</time>
      </trkpt>
      <trkpt lat="45.18801" lon="5.98454">
        <ele>2670.8</ele>
        <time>2022-01-16T11:54:50Z</time>
      </trkpt>
      <trkpt lat="45.18801" lon="5.98454">
        <ele>2670.8</ele>
        <time>2022-01-16T11:54:52Z</time>
      </trkpt>
      <trkpt lat="45.188" lon="5.98454">
        <ele>2670.8</ele>
        <time>2022-01-16T11:54:57Z</time>
      </trkpt>
      <trkpt lat="45.188" lon="5.98454">
        <ele>2670.8</ele>
        <time>2022-01-16T11:54:59Z</time>
      </trkpt>
      <trkpt lat="45.188" lon="5.98454">
        <ele>2670.8</ele>
        <time>2022-01-16T11:55:02Z</time>
      </trkpt>
      <trkpt lat="45.188" lon="5.98454">
        <ele>2670.8</ele>
        <time>2022-01-16T11:55:04Z</time>
      </trkpt>
      <trkpt lat="45.188" lon="5.98454">
        <ele>2670.8</ele>
        <time>2022-01-16T11:55:05Z</time>
      </trkpt>
      <trkpt lat="45.18801" lon="5.98454">
        <ele>2670.8</ele>
        <time>2022-01-16T11:55:06Z</time>
      </trkpt>
      <trkpt lat="45.18801" lon="5.98454">
        <ele>2670.8</ele>
        <time>2022-01-16T11:55:07Z</time>
      </trkpt>
      <trkpt lat="45.18801" lon="5.98454">
        <ele>2670.8</ele>
        <time>2022-01-16T11:55:08Z</time>
      </trkpt>
      <trkpt lat="45.18801" lon="5.98454">
        <ele>2670.8</ele>
        <time>2022-01-16T11:55:12Z</time>
      </trkpt>
      <trkpt lat="45.18801" lon="5.98454">
        <ele>2670.8</ele>
        <time>2022-01-16T11:55:14Z</time>
      </trkpt>
      <trkpt lat="45.18801" lon="5.98454">
        <ele>2670.8</ele>
        <time>2022-01-16T11:55:15Z</time>
      </trkpt>
      <trkpt lat="45.18801" lon="5.98454">
        <ele>2670.8</ele>
        <time>2022-01-16T11:55:20Z</time>
      </trkpt>
      <trkpt lat="45.18801" lon="5.98454">
        <ele>2670.8</ele>
        <time>2022-01-16T11:55:22Z</time>
      </trkpt>
      <trkpt lat="45.18801" lon="5.98454">
        <ele>2670.8</ele>
        <time>2022-01-16T11:55:23Z</time>
      </trkpt>
      <trkpt lat="45.18801" lon="5.98454">
        <ele>2670.8</ele>
        <time>2022-01-16T11:55:29Z</time>
      </trkpt>
      <trkpt lat="45.18803" lon="5.98459">
        <ele>2670.8</ele>
        <time>2022-01-16T11:55:32Z</time>
      </trkpt>
      <trkpt lat="45.18804" lon="5.98467">
        <ele>2670.8</ele>
        <time>2022-01-16T11:55:34Z</time>
      </trkpt>
      <trkpt lat="45.18807" lon="5.9848">
        <ele>2670.8</ele>
        <time>2022-01-16T11:55:39Z</time>
      </trkpt>
      <trkpt lat="45.18808" lon="5.98484">
        <ele>2670.4</ele>
        <time>2022-01-16T11:55:41Z</time>
      </trkpt>
      <trkpt lat="45.18811" lon="5.98494">
        <ele>2669.6</ele>
        <time>2022-01-16T11:55:45Z</time>
      </trkpt>
      <trkpt lat="45.18811" lon="5.98506">
        <ele>2668.4</ele>
        <time>2022-01-16T11:55:48Z</time>
      </trkpt>
      <trkpt lat="45.1881" lon="5.98509">
        <ele>2668</ele>
        <time>2022-01-16T11:55:49Z</time>
      </trkpt>
      <trkpt lat="45.18813" lon="5.98515">
        <ele>2667.2</ele>
        <time>2022-01-16T11:55:52Z</time>
      </trkpt>
      <trkpt lat="45.18813" lon="5.98516">
        <ele>2666.6</ele>
        <time>2022-01-16T11:55:54Z</time>
      </trkpt>
      <trkpt lat="45.18814" lon="5.98517">
        <ele>2666.6</ele>
        <time>2022-01-16T11:55:55Z</time>
      </trkpt>
      <trkpt lat="45.18814" lon="5.98517">
        <ele>2666.6</ele>
        <time>2022-01-16T11:56:01Z</time>
      </trkpt>
      <trkpt lat="45.18814" lon="5.98517">
        <ele>2666.6</ele>
        <time>2022-01-16T11:56:02Z</time>
      </trkpt>
      <trkpt lat="45.18816" lon="5.98519">
        <ele>2665.8</ele>
        <time>2022-01-16T11:56:06Z</time>
      </trkpt>
      <trkpt lat="45.18817" lon="5.98518">
        <ele>2665.6</ele>
        <time>2022-01-16T11:56:07Z</time>
      </trkpt>
      <trkpt lat="45.18817" lon="5.98518">
        <ele>2665.6</ele>
        <time>2022-01-16T11:56:08Z</time>
      </trkpt>
      <trkpt lat="45.18818" lon="5.98517">
        <ele>2664</ele>
        <time>2022-01-16T11:56:11Z</time>
      </trkpt>
      <trkpt lat="45.18819" lon="5.98515">
        <ele>2663</ele>
        <time>2022-01-16T11:56:16Z</time>
      </trkpt>
      <trkpt lat="45.1882" lon="5.98514">
        <ele>2662.8</ele>
        <time>2022-01-16T11:56:18Z</time>
      </trkpt>
      <trkpt lat="45.1882" lon="5.98509">
        <ele>2661.8</ele>
        <time>2022-01-16T11:56:24Z</time>
      </trkpt>
      <trkpt lat="45.1882" lon="5.985">
        <ele>2661</ele>
        <time>2022-01-16T11:56:30Z</time>
      </trkpt>
      <trkpt lat="45.1882" lon="5.98498">
        <ele>2660.6</ele>
        <time>2022-01-16T11:56:31Z</time>
      </trkpt>
      <trkpt lat="45.1882" lon="5.98497">
        <ele>2660.6</ele>
        <time>2022-01-16T11:56:32Z</time>
      </trkpt>
      <trkpt lat="45.18822" lon="5.98496">
        <ele>2659.6</ele>
        <time>2022-01-16T11:56:35Z</time>
      </trkpt>
      <trkpt lat="45.18823" lon="5.98495">
        <ele>2658.6</ele>
        <time>2022-01-16T11:56:37Z</time>
      </trkpt>
      <trkpt lat="45.18823" lon="5.98496">
        <ele>2657.4</ele>
        <time>2022-01-16T11:56:40Z</time>
      </trkpt>
      <trkpt lat="45.18825" lon="5.98495">
        <ele>2656.8</ele>
        <time>2022-01-16T11:56:43Z</time>
      </trkpt>
      <trkpt lat="45.18825" lon="5.98494">
        <ele>2656.4</ele>
        <time>2022-01-16T11:56:45Z</time>
      </trkpt>
      <trkpt lat="45.18826" lon="5.98494">
        <ele>2655.8</ele>
        <time>2022-01-16T11:56:49Z</time>
      </trkpt>
      <trkpt lat="45.18827" lon="5.98494">
        <ele>2655.6</ele>
        <time>2022-01-16T11:56:55Z</time>
      </trkpt>
      <trkpt lat="45.18827" lon="5.98494">
        <ele>2655.4</ele>
        <time>2022-01-16T11:56:57Z</time>
      </trkpt>
      <trkpt lat="45.18827" lon="5.98494">
        <ele>2654</ele>
        <time>2022-01-16T11:57:02Z</time>
      </trkpt>
      <trkpt lat="45.18827" lon="5.98494">
        <ele>2654</ele>
        <time>2022-01-16T11:57:03Z</time>
      </trkpt>
      <trkpt lat="45.18827" lon="5.98494">
        <ele>2652.8</ele>
        <time>2022-01-16T11:57:08Z</time>
      </trkpt>
      <trkpt lat="45.18827" lon="5.98494">
        <ele>2652.2</ele>
        <time>2022-01-16T11:57:14Z</time>
      </trkpt>
      <trkpt lat="45.18827" lon="5.98494">
        <ele>2651.4</ele>
        <time>2022-01-16T11:57:17Z</time>
      </trkpt>
      <trkpt lat="45.18829" lon="5.98495">
        <ele>2651.6</ele>
        <time>2022-01-16T11:57:23Z</time>
      </trkpt>
      <trkpt lat="45.1883" lon="5.98495">
        <ele>2651.2</ele>
        <time>2022-01-16T11:57:27Z</time>
      </trkpt>
      <trkpt lat="45.18832" lon="5.98496">
        <ele>2649.2</ele>
        <time>2022-01-16T11:57:32Z</time>
      </trkpt>
      <trkpt lat="45.18833" lon="5.98497">
        <ele>2649</ele>
        <time>2022-01-16T11:57:33Z</time>
      </trkpt>
      <trkpt lat="45.18835" lon="5.985">
        <ele>2648.4</ele>
        <time>2022-01-16T11:57:35Z</time>
      </trkpt>
      <trkpt lat="45.18835" lon="5.98502">
        <ele>2648</ele>
        <time>2022-01-16T11:57:36Z</time>
      </trkpt>
      <trkpt lat="45.18836" lon="5.98503">
        <ele>2647.8</ele>
        <time>2022-01-16T11:57:37Z</time>
      </trkpt>
      <trkpt lat="45.18837" lon="5.98504">
        <ele>2647.6</ele>
        <time>2022-01-16T11:57:38Z</time>
      </trkpt>
      <trkpt lat="45.18838" lon="5.98504">
        <ele>2647.2</ele>
        <time>2022-01-16T11:57:39Z</time>
      </trkpt>
      <trkpt lat="45.18839" lon="5.98505">
        <ele>2646.6</ele>
        <time>2022-01-16T11:57:40Z</time>
      </trkpt>
      <trkpt lat="45.1884" lon="5.98505">
        <ele>2646</ele>
        <time>2022-01-16T11:57:41Z</time>
      </trkpt>
      <trkpt lat="45.1884" lon="5.98505">
        <ele>2645.6</ele>
        <time>2022-01-16T11:57:42Z</time>
      </trkpt>
      <trkpt lat="45.1884" lon="5.98505">
        <ele>2645.6</ele>
        <time>2022-01-16T11:57:43Z</time>
      </trkpt>
      <trkpt lat="45.18841" lon="5.98505">
        <ele>2645.6</ele>
        <time>2022-01-16T11:57:45Z</time>
      </trkpt>
      <trkpt lat="45.18839" lon="5.98505">
        <ele>2645.4</ele>
        <time>2022-01-16T11:57:51Z</time>
      </trkpt>
      <trkpt lat="45.1884" lon="5.98505">
        <ele>2645.2</ele>
        <time>2022-01-16T11:57:53Z</time>
      </trkpt>
      <trkpt lat="45.1884" lon="5.98504">
        <ele>2644.6</ele>
        <time>2022-01-16T11:57:54Z</time>
      </trkpt>
      <trkpt lat="45.18841" lon="5.98499">
        <ele>2643.2</ele>
        <time>2022-01-16T11:57:56Z</time>
      </trkpt>
      <trkpt lat="45.18843" lon="5.98496">
        <ele>2642.2</ele>
        <time>2022-01-16T11:57:58Z</time>
      </trkpt>
      <trkpt lat="45.18845" lon="5.98497">
        <ele>2641.8</ele>
        <time>2022-01-16T11:57:59Z</time>
      </trkpt>
      <trkpt lat="45.18848" lon="5.98499">
        <ele>2640.4</ele>
        <time>2022-01-16T11:58:01Z</time>
      </trkpt>
      <trkpt lat="45.18849" lon="5.985">
        <ele>2639.6</ele>
        <time>2022-01-16T11:58:02Z</time>
      </trkpt>
      <trkpt lat="45.1885" lon="5.985">
        <ele>2638.8</ele>
        <time>2022-01-16T11:58:03Z</time>
      </trkpt>
      <trkpt lat="45.18851" lon="5.985">
        <ele>2637.8</ele>
        <time>2022-01-16T11:58:05Z</time>
      </trkpt>
      <trkpt lat="45.18852" lon="5.985">
        <ele>2637.4</ele>
        <time>2022-01-16T11:58:06Z</time>
      </trkpt>
      <trkpt lat="45.18854" lon="5.98502">
        <ele>2635.8</ele>
        <time>2022-01-16T11:58:08Z</time>
      </trkpt>
      <trkpt lat="45.18855" lon="5.98503">
        <ele>2635.4</ele>
        <time>2022-01-16T11:58:09Z</time>
      </trkpt>
      <trkpt lat="45.18856" lon="5.98504">
        <ele>2634.8</ele>
        <time>2022-01-16T11:58:10Z</time>
      </trkpt>
      <trkpt lat="45.18856" lon="5.98504">
        <ele>2633.8</ele>
        <time>2022-01-16T11:58:12Z</time>
      </trkpt>
      <trkpt lat="45.18855" lon="5.98503">
        <ele>2633.8</ele>
        <time>2022-01-16T11:58:13Z</time>
      </trkpt>
      <trkpt lat="45.18855" lon="5.98503">
        <ele>2633.6</ele>
        <time>2022-01-16T11:58:14Z</time>
      </trkpt>
      <trkpt lat="45.18858" lon="5.98505">
        <ele>2633</ele>
        <time>2022-01-16T11:58:18Z</time>
      </trkpt>
      <trkpt lat="45.1886" lon="5.98507">
        <ele>2632.8</ele>
        <time>2022-01-16T11:58:19Z</time>
      </trkpt>
      <trkpt lat="45.18862" lon="5.98507">
        <ele>2631.6</ele>
        <time>2022-01-16T11:58:20Z</time>
      </trkpt>
      <trkpt lat="45.18866" lon="5.98508">
        <ele>2629.4</ele>
        <time>2022-01-16T11:58:23Z</time>
      </trkpt>
      <trkpt lat="45.18867" lon="5.98509">
        <ele>2628.8</ele>
        <time>2022-01-16T11:58:24Z</time>
      </trkpt>
      <trkpt lat="45.18868" lon="5.98509">
        <ele>2628</ele>
        <time>2022-01-16T11:58:25Z</time>
      </trkpt>
      <trkpt lat="45.18869" lon="5.98509">
        <ele>2627.6</ele>
        <time>2022-01-16T11:58:26Z</time>
      </trkpt>
      <trkpt lat="45.18869" lon="5.98509">
        <ele>2627</ele>
        <time>2022-01-16T11:58:28Z</time>
      </trkpt>
      <trkpt lat="45.18868" lon="5.98507">
        <ele>2626.8</ele>
        <time>2022-01-16T11:58:30Z</time>
      </trkpt>
      <trkpt lat="45.18868" lon="5.98506">
        <ele>2626.8</ele>
        <time>2022-01-16T11:58:35Z</time>
      </trkpt>
      <trkpt lat="45.18866" lon="5.98505">
        <ele>2625.6</ele>
        <time>2022-01-16T11:58:41Z</time>
      </trkpt>
      <trkpt lat="45.18866" lon="5.98505">
        <ele>2625.4</ele>
        <time>2022-01-16T11:58:43Z</time>
      </trkpt>
      <trkpt lat="45.18867" lon="5.98504">
        <ele>2624</ele>
        <time>2022-01-16T11:58:45Z</time>
      </trkpt>
      <trkpt lat="45.18866" lon="5.98501">
        <ele>2622.8</ele>
        <time>2022-01-16T11:58:46Z</time>
      </trkpt>
      <trkpt lat="45.18865" lon="5.98496">
        <ele>2621</ele>
        <time>2022-01-16T11:58:48Z</time>
      </trkpt>
      <trkpt lat="45.18866" lon="5.98494">
        <ele>2620.8</ele>
        <time>2022-01-16T11:58:49Z</time>
      </trkpt>
      <trkpt lat="45.18868" lon="5.98492">
        <ele>2620</ele>
        <time>2022-01-16T11:58:50Z</time>
      </trkpt>
      <trkpt lat="45.18871" lon="5.98493">
        <ele>2618.8</ele>
        <time>2022-01-16T11:58:51Z</time>
      </trkpt>
      <trkpt lat="45.18873" lon="5.98494">
        <ele>2617.4</ele>
        <time>2022-01-16T11:58:52Z</time>
      </trkpt>
      <trkpt lat="45.18874" lon="5.98494">
        <ele>2616.2</ele>
        <time>2022-01-16T11:58:53Z</time>
      </trkpt>
      <trkpt lat="45.18875" lon="5.98491">
        <ele>2615.8</ele>
        <time>2022-01-16T11:58:54Z</time>
      </trkpt>
      <trkpt lat="45.18874" lon="5.98488">
        <ele>2613.8</ele>
        <time>2022-01-16T11:58:55Z</time>
      </trkpt>
      <trkpt lat="45.18874" lon="5.98484">
        <ele>2612.4</ele>
        <time>2022-01-16T11:58:56Z</time>
      </trkpt>
      <trkpt lat="45.18873" lon="5.98478">
        <ele>2611.4</ele>
        <time>2022-01-16T11:58:58Z</time>
      </trkpt>
      <trkpt lat="45.18874" lon="5.98476">
        <ele>2610.8</ele>
        <time>2022-01-16T11:58:59Z</time>
      </trkpt>
      <trkpt lat="45.18877" lon="5.98475">
        <ele>2609.4</ele>
        <time>2022-01-16T11:59:01Z</time>
      </trkpt>
      <trkpt lat="45.18879" lon="5.98476">
        <ele>2607.2</ele>
        <time>2022-01-16T11:59:02Z</time>
      </trkpt>
      <trkpt lat="45.18882" lon="5.9848">
        <ele>2605</ele>
        <time>2022-01-16T11:59:04Z</time>
      </trkpt>
      <trkpt lat="45.18884" lon="5.98481">
        <ele>2604.8</ele>
        <time>2022-01-16T11:59:05Z</time>
      </trkpt>
      <trkpt lat="45.18885" lon="5.98482">
        <ele>2603.2</ele>
        <time>2022-01-16T11:59:06Z</time>
      </trkpt>
      <trkpt lat="45.18886" lon="5.98482">
        <ele>2602.4</ele>
        <time>2022-01-16T11:59:07Z</time>
      </trkpt>
      <trkpt lat="45.18888" lon="5.9848">
        <ele>2602</ele>
        <time>2022-01-16T11:59:08Z</time>
      </trkpt>
      <trkpt lat="45.18888" lon="5.98477">
        <ele>2599</ele>
        <time>2022-01-16T11:59:09Z</time>
      </trkpt>
      <trkpt lat="45.18887" lon="5.98474">
        <ele>2597.8</ele>
        <time>2022-01-16T11:59:10Z</time>
      </trkpt>
      <trkpt lat="45.18887" lon="5.98471">
        <ele>2596.8</ele>
        <time>2022-01-16T11:59:11Z</time>
      </trkpt>
      <trkpt lat="45.18888" lon="5.98469">
        <ele>2596.4</ele>
        <time>2022-01-16T11:59:12Z</time>
      </trkpt>
      <trkpt lat="45.18891" lon="5.98467">
        <ele>2595.8</ele>
        <time>2022-01-16T11:59:14Z</time>
      </trkpt>
      <trkpt lat="45.18892" lon="5.9847">
        <ele>2594.6</ele>
        <time>2022-01-16T11:59:15Z</time>
      </trkpt>
      <trkpt lat="45.18893" lon="5.98472">
        <ele>2593.6</ele>
        <time>2022-01-16T11:59:16Z</time>
      </trkpt>
      <trkpt lat="45.18895" lon="5.98475">
        <ele>2592</ele>
        <time>2022-01-16T11:59:18Z</time>
      </trkpt>
      <trkpt lat="45.18895" lon="5.98475">
        <ele>2591.8</ele>
        <time>2022-01-16T11:59:20Z</time>
      </trkpt>
      <trkpt lat="45.18894" lon="5.98475">
        <ele>2591.8</ele>
        <time>2022-01-16T11:59:21Z</time>
      </trkpt>
      <trkpt lat="45.18898" lon="5.98476">
        <ele>2591.6</ele>
        <time>2022-01-16T11:59:25Z</time>
      </trkpt>
      <trkpt lat="45.18899" lon="5.98478">
        <ele>2591</ele>
        <time>2022-01-16T11:59:26Z</time>
      </trkpt>
      <trkpt lat="45.18902" lon="5.9848">
        <ele>2589.4</ele>
        <time>2022-01-16T11:59:28Z</time>
      </trkpt>
      <trkpt lat="45.18907" lon="5.98482">
        <ele>2588.4</ele>
        <time>2022-01-16T11:59:30Z</time>
      </trkpt>
      <trkpt lat="45.1891" lon="5.98484">
        <ele>2586.8</ele>
        <time>2022-01-16T11:59:31Z</time>
      </trkpt>
      <trkpt lat="45.18917" lon="5.98488">
        <ele>2585.4</ele>
        <time>2022-01-16T11:59:33Z</time>
      </trkpt>
      <trkpt lat="45.1892" lon="5.9849">
        <ele>2583.8</ele>
        <time>2022-01-16T11:59:34Z</time>
      </trkpt>
      <trkpt lat="45.18922" lon="5.98492">
        <ele>2582.2</ele>
        <time>2022-01-16T11:59:35Z</time>
      </trkpt>
      <trkpt lat="45.18925" lon="5.98493">
        <ele>2581.6</ele>
        <time>2022-01-16T11:59:36Z</time>
      </trkpt>
      <trkpt lat="45.18927" lon="5.98493">
        <ele>2580.4</ele>
        <time>2022-01-16T11:59:37Z</time>
      </trkpt>
      <trkpt lat="45.18928" lon="5.98492">
        <ele>2580</ele>
        <time>2022-01-16T11:59:38Z</time>
      </trkpt>
      <trkpt lat="45.18929" lon="5.98491">
        <ele>2578.6</ele>
        <time>2022-01-16T11:59:39Z</time>
      </trkpt>
      <trkpt lat="45.18927" lon="5.98486">
        <ele>2574.6</ele>
        <time>2022-01-16T11:59:41Z</time>
      </trkpt>
      <trkpt lat="45.18928" lon="5.98484">
        <ele>2574.2</ele>
        <time>2022-01-16T11:59:42Z</time>
      </trkpt>
      <trkpt lat="45.1893" lon="5.98484">
        <ele>2573.6</ele>
        <time>2022-01-16T11:59:43Z</time>
      </trkpt>
      <trkpt lat="45.18932" lon="5.98484">
        <ele>2572.4</ele>
        <time>2022-01-16T11:59:44Z</time>
      </trkpt>
      <trkpt lat="45.18935" lon="5.98485">
        <ele>2571.4</ele>
        <time>2022-01-16T11:59:45Z</time>
      </trkpt>
      <trkpt lat="45.18936" lon="5.98485">
        <ele>2570.2</ele>
        <time>2022-01-16T11:59:46Z</time>
      </trkpt>
      <trkpt lat="45.18936" lon="5.98483">
        <ele>2569.4</ele>
        <time>2022-01-16T11:59:47Z</time>
      </trkpt>
      <trkpt lat="45.18934" lon="5.9848">
        <ele>2567</ele>
        <time>2022-01-16T11:59:48Z</time>
      </trkpt>
      <trkpt lat="45.18933" lon="5.98477">
        <ele>2564.8</ele>
        <time>2022-01-16T11:59:49Z</time>
      </trkpt>
      <trkpt lat="45.18931" lon="5.98465">
        <ele>2563.2</ele>
        <time>2022-01-16T11:59:53Z</time>
      </trkpt>
      <trkpt lat="45.18937" lon="5.98467">
        <ele>2561.8</ele>
        <time>2022-01-16T11:59:55Z</time>
      </trkpt>
      <trkpt lat="45.18939" lon="5.98468">
        <ele>2558.8</ele>
        <time>2022-01-16T11:59:56Z</time>
      </trkpt>
      <trkpt lat="45.18941" lon="5.98469">
        <ele>2558.2</ele>
        <time>2022-01-16T11:59:57Z</time>
      </trkpt>
      <trkpt lat="45.18943" lon="5.9847">
        <ele>2557.6</ele>
        <time>2022-01-16T11:59:58Z</time>
      </trkpt>
      <trkpt lat="45.18945" lon="5.98471">
        <ele>2556.8</ele>
        <time>2022-01-16T12:00:00Z</time>
      </trkpt>
      <trkpt lat="45.18945" lon="5.98471">
        <ele>2556.6</ele>
        <time>2022-01-16T12:00:01Z</time>
      </trkpt>
      <trkpt lat="45.18945" lon="5.9847">
        <ele>2556.4</ele>
        <time>2022-01-16T12:00:02Z</time>
      </trkpt>
      <trkpt lat="45.18944" lon="5.98465">
        <ele>2556</ele>
        <time>2022-01-16T12:00:04Z</time>
      </trkpt>
      <trkpt lat="45.18944" lon="5.98461">
        <ele>2553.4</ele>
        <time>2022-01-16T12:00:05Z</time>
      </trkpt>
      <trkpt lat="45.18943" lon="5.98458">
        <ele>2551</ele>
        <time>2022-01-16T12:00:06Z</time>
      </trkpt>
      <trkpt lat="45.18943" lon="5.98451">
        <ele>2549.6</ele>
        <time>2022-01-16T12:00:08Z</time>
      </trkpt>
      <trkpt lat="45.18945" lon="5.98449">
        <ele>2549.2</ele>
        <time>2022-01-16T12:00:09Z</time>
      </trkpt>
      <trkpt lat="45.18948" lon="5.98451">
        <ele>2549</ele>
        <time>2022-01-16T12:00:10Z</time>
      </trkpt>
      <trkpt lat="45.18951" lon="5.98454">
        <ele>2547.4</ele>
        <time>2022-01-16T12:00:11Z</time>
      </trkpt>
      <trkpt lat="45.18957" lon="5.98461">
        <ele>2545.8</ele>
        <time>2022-01-16T12:00:13Z</time>
      </trkpt>
      <trkpt lat="45.18959" lon="5.98464">
        <ele>2544.4</ele>
        <time>2022-01-16T12:00:14Z</time>
      </trkpt>
      <trkpt lat="45.18963" lon="5.98468">
        <ele>2543.2</ele>
        <time>2022-01-16T12:00:15Z</time>
      </trkpt>
      <trkpt lat="45.18966" lon="5.98471">
        <ele>2542.8</ele>
        <time>2022-01-16T12:00:16Z</time>
      </trkpt>
      <trkpt lat="45.18969" lon="5.98474">
        <ele>2541.4</ele>
        <time>2022-01-16T12:00:17Z</time>
      </trkpt>
      <trkpt lat="45.18973" lon="5.98475">
        <ele>2539</ele>
        <time>2022-01-16T12:00:19Z</time>
      </trkpt>
      <trkpt lat="45.18973" lon="5.98471">
        <ele>2538</ele>
        <time>2022-01-16T12:00:20Z</time>
      </trkpt>
      <trkpt lat="45.18972" lon="5.98466">
        <ele>2535.2</ele>
        <time>2022-01-16T12:00:21Z</time>
      </trkpt>
      <trkpt lat="45.1897" lon="5.9846">
        <ele>2535</ele>
        <time>2022-01-16T12:00:22Z</time>
      </trkpt>
      <trkpt lat="45.18969" lon="5.98451">
        <ele>2532</ele>
        <time>2022-01-16T12:00:23Z</time>
      </trkpt>
      <trkpt lat="45.18968" lon="5.98442">
        <ele>2530.6</ele>
        <time>2022-01-16T12:00:24Z</time>
      </trkpt>
      <trkpt lat="45.18967" lon="5.98435">
        <ele>2528.6</ele>
        <time>2022-01-16T12:00:25Z</time>
      </trkpt>
      <trkpt lat="45.18966" lon="5.98416">
        <ele>2527.2</ele>
        <time>2022-01-16T12:00:27Z</time>
      </trkpt>
      <trkpt lat="45.18966" lon="5.98409">
        <ele>2525.4</ele>
        <time>2022-01-16T12:00:28Z</time>
      </trkpt>
      <trkpt lat="45.18967" lon="5.98403">
        <ele>2524.8</ele>
        <time>2022-01-16T12:00:29Z</time>
      </trkpt>
      <trkpt lat="45.18969" lon="5.98398">
        <ele>2524</ele>
        <time>2022-01-16T12:00:30Z</time>
      </trkpt>
      <trkpt lat="45.1897" lon="5.98393">
        <ele>2522</ele>
        <time>2022-01-16T12:00:31Z</time>
      </trkpt>
      <trkpt lat="45.18971" lon="5.98388">
        <ele>2522</ele>
        <time>2022-01-16T12:00:32Z</time>
      </trkpt>
      <trkpt lat="45.18972" lon="5.98386">
        <ele>2520.6</ele>
        <time>2022-01-16T12:00:33Z</time>
      </trkpt>
      <trkpt lat="45.18972" lon="5.98385">
        <ele>2519.4</ele>
        <time>2022-01-16T12:00:34Z</time>
      </trkpt>
      <trkpt lat="45.18972" lon="5.98385">
        <ele>2519.2</ele>
        <time>2022-01-16T12:00:35Z</time>
      </trkpt>
      <trkpt lat="45.18972" lon="5.98385">
        <ele>2519.2</ele>
        <time>2022-01-16T12:00:36Z</time>
      </trkpt>
      <trkpt lat="45.18971" lon="5.98385">
        <ele>2519.2</ele>
        <time>2022-01-16T12:00:41Z</time>
      </trkpt>
      <trkpt lat="45.18972" lon="5.98382">
        <ele>2519</ele>
        <time>2022-01-16T12:00:45Z</time>
      </trkpt>
      <trkpt lat="45.18975" lon="5.98378">
        <ele>2518</ele>
        <time>2022-01-16T12:00:47Z</time>
      </trkpt>
      <trkpt lat="45.18978" lon="5.98378">
        <ele>2517.6</ele>
        <time>2022-01-16T12:00:48Z</time>
      </trkpt>
      <trkpt lat="45.1898" lon="5.98381">
        <ele>2515.2</ele>
        <time>2022-01-16T12:00:49Z</time>
      </trkpt>
      <trkpt lat="45.18982" lon="5.98381">
        <ele>2513.6</ele>
        <time>2022-01-16T12:00:50Z</time>
      </trkpt>
      <trkpt lat="45.18987" lon="5.98377">
        <ele>2509.6</ele>
        <time>2022-01-16T12:00:52Z</time>
      </trkpt>
      <trkpt lat="45.18988" lon="5.98374">
        <ele>2507</ele>
        <time>2022-01-16T12:00:53Z</time>
      </trkpt>
      <trkpt lat="45.18988" lon="5.98367">
        <ele>2505.8</ele>
        <time>2022-01-16T12:00:55Z</time>
      </trkpt>
      <trkpt lat="45.1899" lon="5.98361">
        <ele>2505</ele>
        <time>2022-01-16T12:00:57Z</time>
      </trkpt>
      <trkpt lat="45.18992" lon="5.98361">
        <ele>2504.4</ele>
        <time>2022-01-16T12:00:58Z</time>
      </trkpt>
      <trkpt lat="45.18995" lon="5.98362">
        <ele>2502.4</ele>
        <time>2022-01-16T12:00:59Z</time>
      </trkpt>
      <trkpt lat="45.18997" lon="5.98365">
        <ele>2501</ele>
        <time>2022-01-16T12:01:00Z</time>
      </trkpt>
      <trkpt lat="45.18999" lon="5.98369">
        <ele>2499.8</ele>
        <time>2022-01-16T12:01:01Z</time>
      </trkpt>
      <trkpt lat="45.19001" lon="5.98375">
        <ele>2498.4</ele>
        <time>2022-01-16T12:01:02Z</time>
      </trkpt>
      <trkpt lat="45.19003" lon="5.9838">
        <ele>2496.2</ele>
        <time>2022-01-16T12:01:03Z</time>
      </trkpt>
      <trkpt lat="45.19007" lon="5.98383">
        <ele>2495.6</ele>
        <time>2022-01-16T12:01:04Z</time>
      </trkpt>
      <trkpt lat="45.19009" lon="5.98382">
        <ele>2494.4</ele>
        <time>2022-01-16T12:01:05Z</time>
      </trkpt>
      <trkpt lat="45.19013" lon="5.98379">
        <ele>2491.6</ele>
        <time>2022-01-16T12:01:06Z</time>
      </trkpt>
      <trkpt lat="45.19016" lon="5.98372">
        <ele>2488.6</ele>
        <time>2022-01-16T12:01:07Z</time>
      </trkpt>
      <trkpt lat="45.19017" lon="5.98365">
        <ele>2486.8</ele>
        <time>2022-01-16T12:01:08Z</time>
      </trkpt>
      <trkpt lat="45.19017" lon="5.98359">
        <ele>2486.6</ele>
        <time>2022-01-16T12:01:09Z</time>
      </trkpt>
      <trkpt lat="45.19018" lon="5.98349">
        <ele>2484.4</ele>
        <time>2022-01-16T12:01:11Z</time>
      </trkpt>
      <trkpt lat="45.19018" lon="5.98342">
        <ele>2483.2</ele>
        <time>2022-01-16T12:01:12Z</time>
      </trkpt>
      <trkpt lat="45.19018" lon="5.98336">
        <ele>2481.4</ele>
        <time>2022-01-16T12:01:13Z</time>
      </trkpt>
      <trkpt lat="45.19018" lon="5.98331">
        <ele>2479.6</ele>
        <time>2022-01-16T12:01:14Z</time>
      </trkpt>
      <trkpt lat="45.19016" lon="5.98326">
        <ele>2478.6</ele>
        <time>2022-01-16T12:01:15Z</time>
      </trkpt>
      <trkpt lat="45.19015" lon="5.98322">
        <ele>2478</ele>
        <time>2022-01-16T12:01:16Z</time>
      </trkpt>
      <trkpt lat="45.19014" lon="5.98317">
        <ele>2477.2</ele>
        <time>2022-01-16T12:01:17Z</time>
      </trkpt>
      <trkpt lat="45.19013" lon="5.98309">
        <ele>2476</ele>
        <time>2022-01-16T12:01:18Z</time>
      </trkpt>
      <trkpt lat="45.19011" lon="5.983">
        <ele>2475.4</ele>
        <time>2022-01-16T12:01:19Z</time>
      </trkpt>
      <trkpt lat="45.19011" lon="5.98293">
        <ele>2470.8</ele>
        <time>2022-01-16T12:01:20Z</time>
      </trkpt>
      <trkpt lat="45.19016" lon="5.98287">
        <ele>2470.2</ele>
        <time>2022-01-16T12:01:22Z</time>
      </trkpt>
      <trkpt lat="45.19019" lon="5.98286">
        <ele>2469.4</ele>
        <time>2022-01-16T12:01:23Z</time>
      </trkpt>
      <trkpt lat="45.19021" lon="5.98284">
        <ele>2469.2</ele>
        <time>2022-01-16T12:01:24Z</time>
      </trkpt>
      <trkpt lat="45.19024" lon="5.98282">
        <ele>2464.8</ele>
        <time>2022-01-16T12:01:25Z</time>
      </trkpt>
      <trkpt lat="45.19027" lon="5.98282">
        <ele>2463.4</ele>
        <time>2022-01-16T12:01:26Z</time>
      </trkpt>
      <trkpt lat="45.1903" lon="5.9828">
        <ele>2462</ele>
        <time>2022-01-16T12:01:27Z</time>
      </trkpt>
      <trkpt lat="45.19033" lon="5.9828">
        <ele>2458.4</ele>
        <time>2022-01-16T12:01:28Z</time>
      </trkpt>
      <trkpt lat="45.19037" lon="5.98281">
        <ele>2456.4</ele>
        <time>2022-01-16T12:01:29Z</time>
      </trkpt>
      <trkpt lat="45.1904" lon="5.9828">
        <ele>2454.4</ele>
        <time>2022-01-16T12:01:30Z</time>
      </trkpt>
      <trkpt lat="45.19043" lon="5.9828">
        <ele>2451.6</ele>
        <time>2022-01-16T12:01:31Z</time>
      </trkpt>
      <trkpt lat="45.19046" lon="5.98282">
        <ele>2449.6</ele>
        <time>2022-01-16T12:01:32Z</time>
      </trkpt>
      <trkpt lat="45.19049" lon="5.98285">
        <ele>2448.2</ele>
        <time>2022-01-16T12:01:33Z</time>
      </trkpt>
      <trkpt lat="45.19053" lon="5.98284">
        <ele>2445.4</ele>
        <time>2022-01-16T12:01:34Z</time>
      </trkpt>
      <trkpt lat="45.19055" lon="5.98281">
        <ele>2444.2</ele>
        <time>2022-01-16T12:01:35Z</time>
      </trkpt>
      <trkpt lat="45.19057" lon="5.98277">
        <ele>2441.8</ele>
        <time>2022-01-16T12:01:36Z</time>
      </trkpt>
      <trkpt lat="45.19061" lon="5.98276">
        <ele>2439.8</ele>
        <time>2022-01-16T12:01:37Z</time>
      </trkpt>
      <trkpt lat="45.19065" lon="5.98274">
        <ele>2438.6</ele>
        <time>2022-01-16T12:01:38Z</time>
      </trkpt>
      <trkpt lat="45.19069" lon="5.98273">
        <ele>2437.6</ele>
        <time>2022-01-16T12:01:39Z</time>
      </trkpt>
      <trkpt lat="45.19074" lon="5.98274">
        <ele>2431.8</ele>
        <time>2022-01-16T12:01:40Z</time>
      </trkpt>
      <trkpt lat="45.19079" lon="5.98273">
        <ele>2429.6</ele>
        <time>2022-01-16T12:01:41Z</time>
      </trkpt>
      <trkpt lat="45.19084" lon="5.98272">
        <ele>2428.4</ele>
        <time>2022-01-16T12:01:42Z</time>
      </trkpt>
      <trkpt lat="45.1909" lon="5.98274">
        <ele>2423.6</ele>
        <time>2022-01-16T12:01:43Z</time>
      </trkpt>
      <trkpt lat="45.19101" lon="5.98282">
        <ele>2421.4</ele>
        <time>2022-01-16T12:01:45Z</time>
      </trkpt>
      <trkpt lat="45.19105" lon="5.98285">
        <ele>2419.4</ele>
        <time>2022-01-16T12:01:46Z</time>
      </trkpt>
      <trkpt lat="45.19112" lon="5.98291">
        <ele>2417.2</ele>
        <time>2022-01-16T12:01:47Z</time>
      </trkpt>
      <trkpt lat="45.19119" lon="5.98296">
        <ele>2417</ele>
        <time>2022-01-16T12:01:48Z</time>
      </trkpt>
      <trkpt lat="45.19136" lon="5.98314">
        <ele>2412.2</ele>
        <time>2022-01-16T12:01:50Z</time>
      </trkpt>
      <trkpt lat="45.19149" lon="5.98337">
        <ele>2406.4</ele>
        <time>2022-01-16T12:01:52Z</time>
      </trkpt>
      <trkpt lat="45.19154" lon="5.98348">
        <ele>2404.8</ele>
        <time>2022-01-16T12:01:53Z</time>
      </trkpt>
      <trkpt lat="45.19158" lon="5.98359">
        <ele>2401.6</ele>
        <time>2022-01-16T12:01:54Z</time>
      </trkpt>
      <trkpt lat="45.19161" lon="5.98371">
        <ele>2400.6</ele>
        <time>2022-01-16T12:01:55Z</time>
      </trkpt>
      <trkpt lat="45.19161" lon="5.98383">
        <ele>2399.4</ele>
        <time>2022-01-16T12:01:56Z</time>
      </trkpt>
      <trkpt lat="45.19159" lon="5.98405">
        <ele>2398.2</ele>
        <time>2022-01-16T12:01:58Z</time>
      </trkpt>
      <trkpt lat="45.19159" lon="5.98414">
        <ele>2396.2</ele>
        <time>2022-01-16T12:01:59Z</time>
      </trkpt>
      <trkpt lat="45.19159" lon="5.98424">
        <ele>2395.2</ele>
        <time>2022-01-16T12:02:00Z</time>
      </trkpt>
      <trkpt lat="45.19162" lon="5.98434">
        <ele>2393.8</ele>
        <time>2022-01-16T12:02:01Z</time>
      </trkpt>
      <trkpt lat="45.19166" lon="5.98443">
        <ele>2393</ele>
        <time>2022-01-16T12:02:02Z</time>
      </trkpt>
      <trkpt lat="45.19171" lon="5.9845">
        <ele>2391.8</ele>
        <time>2022-01-16T12:02:03Z</time>
      </trkpt>
      <trkpt lat="45.19177" lon="5.98454">
        <ele>2388.6</ele>
        <time>2022-01-16T12:02:04Z</time>
      </trkpt>
      <trkpt lat="45.19184" lon="5.98457">
        <ele>2388.2</ele>
        <time>2022-01-16T12:02:05Z</time>
      </trkpt>
      <trkpt lat="45.19192" lon="5.9846">
        <ele>2387.6</ele>
        <time>2022-01-16T12:02:06Z</time>
      </trkpt>
      <trkpt lat="45.192" lon="5.98463">
        <ele>2386</ele>
        <time>2022-01-16T12:02:07Z</time>
      </trkpt>
      <trkpt lat="45.19208" lon="5.98467">
        <ele>2382.8</ele>
        <time>2022-01-16T12:02:08Z</time>
      </trkpt>
      <trkpt lat="45.19217" lon="5.98472">
        <ele>2382.8</ele>
        <time>2022-01-16T12:02:09Z</time>
      </trkpt>
      <trkpt lat="45.19224" lon="5.98477">
        <ele>2381.4</ele>
        <time>2022-01-16T12:02:10Z</time>
      </trkpt>
      <trkpt lat="45.19232" lon="5.98483">
        <ele>2376.8</ele>
        <time>2022-01-16T12:02:11Z</time>
      </trkpt>
      <trkpt lat="45.19239" lon="5.98489">
        <ele>2375.2</ele>
        <time>2022-01-16T12:02:12Z</time>
      </trkpt>
      <trkpt lat="45.19245" lon="5.98496">
        <ele>2373.2</ele>
        <time>2022-01-16T12:02:13Z</time>
      </trkpt>
      <trkpt lat="45.19252" lon="5.98503">
        <ele>2372.6</ele>
        <time>2022-01-16T12:02:14Z</time>
      </trkpt>
      <trkpt lat="45.19258" lon="5.98511">
        <ele>2369.8</ele>
        <time>2022-01-16T12:02:15Z</time>
      </trkpt>
      <trkpt lat="45.19264" lon="5.9852">
        <ele>2368.2</ele>
        <time>2022-01-16T12:02:16Z</time>
      </trkpt>
      <trkpt lat="45.19269" lon="5.9853">
        <ele>2367.2</ele>
        <time>2022-01-16T12:02:17Z</time>
      </trkpt>
      <trkpt lat="45.19275" lon="5.9854">
        <ele>2365.8</ele>
        <time>2022-01-16T12:02:18Z</time>
      </trkpt>
      <trkpt lat="45.19282" lon="5.98552">
        <ele>2362.8</ele>
        <time>2022-01-16T12:02:19Z</time>
      </trkpt>
      <trkpt lat="45.19287" lon="5.98562">
        <ele>2360.8</ele>
        <time>2022-01-16T12:02:20Z</time>
      </trkpt>
      <trkpt lat="45.19292" lon="5.98573">
        <ele>2358.6</ele>
        <time>2022-01-16T12:02:21Z</time>
      </trkpt>
      <trkpt lat="45.19294" lon="5.98581">
        <ele>2357.2</ele>
        <time>2022-01-16T12:02:22Z</time>
      </trkpt>
      <trkpt lat="45.19298" lon="5.98588">
        <ele>2355.4</ele>
        <time>2022-01-16T12:02:23Z</time>
      </trkpt>
      <trkpt lat="45.19303" lon="5.98589">
        <ele>2353.4</ele>
        <time>2022-01-16T12:02:24Z</time>
      </trkpt>
      <trkpt lat="45.19309" lon="5.98585">
        <ele>2351.6</ele>
        <time>2022-01-16T12:02:25Z</time>
      </trkpt>
      <trkpt lat="45.19312" lon="5.98578">
        <ele>2348.4</ele>
        <time>2022-01-16T12:02:26Z</time>
      </trkpt>
      <trkpt lat="45.19313" lon="5.9857">
        <ele>2345.6</ele>
        <time>2022-01-16T12:02:27Z</time>
      </trkpt>
      <trkpt lat="45.19315" lon="5.98531">
        <ele>2343.8</ele>
        <time>2022-01-16T12:02:31Z</time>
      </trkpt>
      <trkpt lat="45.19315" lon="5.98521">
        <ele>2342.2</ele>
        <time>2022-01-16T12:02:32Z</time>
      </trkpt>
      <trkpt lat="45.19314" lon="5.98511">
        <ele>2340.2</ele>
        <time>2022-01-16T12:02:33Z</time>
      </trkpt>
      <trkpt lat="45.19314" lon="5.98501">
        <ele>2339</ele>
        <time>2022-01-16T12:02:34Z</time>
      </trkpt>
      <trkpt lat="45.19314" lon="5.98485">
        <ele>2337.6</ele>
        <time>2022-01-16T12:02:36Z</time>
      </trkpt>
      <trkpt lat="45.19315" lon="5.98476">
        <ele>2336.6</ele>
        <time>2022-01-16T12:02:37Z</time>
      </trkpt>
      <trkpt lat="45.19315" lon="5.98467">
        <ele>2336</ele>
        <time>2022-01-16T12:02:38Z</time>
      </trkpt>
      <trkpt lat="45.19315" lon="5.98457">
        <ele>2333.4</ele>
        <time>2022-01-16T12:02:39Z</time>
      </trkpt>
      <trkpt lat="45.19315" lon="5.98448">
        <ele>2330</ele>
        <time>2022-01-16T12:02:40Z</time>
      </trkpt>
      <trkpt lat="45.19316" lon="5.98439">
        <ele>2328.6</ele>
        <time>2022-01-16T12:02:41Z</time>
      </trkpt>
      <trkpt lat="45.19317" lon="5.98426">
        <ele>2326.2</ele>
        <time>2022-01-16T12:02:43Z</time>
      </trkpt>
      <trkpt lat="45.19319" lon="5.9842">
        <ele>2325.2</ele>
        <time>2022-01-16T12:02:44Z</time>
      </trkpt>
      <trkpt lat="45.19322" lon="5.98419">
        <ele>2324.2</ele>
        <time>2022-01-16T12:02:45Z</time>
      </trkpt>
      <trkpt lat="45.19325" lon="5.9842">
        <ele>2323</ele>
        <time>2022-01-16T12:02:46Z</time>
      </trkpt>
      <trkpt lat="45.19328" lon="5.98419">
        <ele>2321.8</ele>
        <time>2022-01-16T12:02:47Z</time>
      </trkpt>
      <trkpt lat="45.19331" lon="5.98417">
        <ele>2317.8</ele>
        <time>2022-01-16T12:02:48Z</time>
      </trkpt>
      <trkpt lat="45.19334" lon="5.98416">
        <ele>2314.8</ele>
        <time>2022-01-16T12:02:49Z</time>
      </trkpt>
      <trkpt lat="45.19336" lon="5.98418">
        <ele>2314.6</ele>
        <time>2022-01-16T12:02:50Z</time>
      </trkpt>
      <trkpt lat="45.19338" lon="5.98422">
        <ele>2312.4</ele>
        <time>2022-01-16T12:02:51Z</time>
      </trkpt>
      <trkpt lat="45.19341" lon="5.98429">
        <ele>2311.6</ele>
        <time>2022-01-16T12:02:52Z</time>
      </trkpt>
      <trkpt lat="45.19346" lon="5.98438">
        <ele>2310</ele>
        <time>2022-01-16T12:02:53Z</time>
      </trkpt>
      <trkpt lat="45.19359" lon="5.98456">
        <ele>2305.8</ele>
        <time>2022-01-16T12:02:55Z</time>
      </trkpt>
      <trkpt lat="45.19365" lon="5.98464">
        <ele>2304.6</ele>
        <time>2022-01-16T12:02:56Z</time>
      </trkpt>
      <trkpt lat="45.19372" lon="5.98472">
        <ele>2304.6</ele>
        <time>2022-01-16T12:02:57Z</time>
      </trkpt>
      <trkpt lat="45.19381" lon="5.98478">
        <ele>2300.4</ele>
        <time>2022-01-16T12:02:58Z</time>
      </trkpt>
      <trkpt lat="45.1939" lon="5.98484">
        <ele>2297.6</ele>
        <time>2022-01-16T12:02:59Z</time>
      </trkpt>
      <trkpt lat="45.19399" lon="5.98489">
        <ele>2296.2</ele>
        <time>2022-01-16T12:03:00Z</time>
      </trkpt>
      <trkpt lat="45.19408" lon="5.98493">
        <ele>2293.8</ele>
        <time>2022-01-16T12:03:01Z</time>
      </trkpt>
      <trkpt lat="45.19427" lon="5.985">
        <ele>2292</ele>
        <time>2022-01-16T12:03:03Z</time>
      </trkpt>
      <trkpt lat="45.19438" lon="5.98504">
        <ele>2287.6</ele>
        <time>2022-01-16T12:03:04Z</time>
      </trkpt>
      <trkpt lat="45.19447" lon="5.98504">
        <ele>2286.2</ele>
        <time>2022-01-16T12:03:05Z</time>
      </trkpt>
      <trkpt lat="45.19452" lon="5.98499">
        <ele>2286</ele>
        <time>2022-01-16T12:03:06Z</time>
      </trkpt>
      <trkpt lat="45.19456" lon="5.98489">
        <ele>2282.4</ele>
        <time>2022-01-16T12:03:07Z</time>
      </trkpt>
      <trkpt lat="45.19458" lon="5.98479">
        <ele>2279</ele>
        <time>2022-01-16T12:03:08Z</time>
      </trkpt>
      <trkpt lat="45.19455" lon="5.98455">
        <ele>2279</ele>
        <time>2022-01-16T12:03:10Z</time>
      </trkpt>
      <trkpt lat="45.19459" lon="5.98431">
        <ele>2279</ele>
        <time>2022-01-16T12:03:12Z</time>
      </trkpt>
      <trkpt lat="45.19466" lon="5.9842">
        <ele>2270.6</ele>
        <time>2022-01-16T12:03:13Z</time>
      </trkpt>
      <trkpt lat="45.1948" lon="5.98406">
        <ele>2266.2</ele>
        <time>2022-01-16T12:03:15Z</time>
      </trkpt>
      <trkpt lat="45.19487" lon="5.98401">
        <ele>2265</ele>
        <time>2022-01-16T12:03:16Z</time>
      </trkpt>
      <trkpt lat="45.19494" lon="5.98395">
        <ele>2265</ele>
        <time>2022-01-16T12:03:17Z</time>
      </trkpt>
      <trkpt lat="45.19497" lon="5.98386">
        <ele>2263.8</ele>
        <time>2022-01-16T12:03:18Z</time>
      </trkpt>
      <trkpt lat="45.19495" lon="5.98372">
        <ele>2256.4</ele>
        <time>2022-01-16T12:03:20Z</time>
      </trkpt>
      <trkpt lat="45.19495" lon="5.98365">
        <ele>2254.2</ele>
        <time>2022-01-16T12:03:21Z</time>
      </trkpt>
      <trkpt lat="45.19496" lon="5.98356">
        <ele>2254</ele>
        <time>2022-01-16T12:03:22Z</time>
      </trkpt>
      <trkpt lat="45.19494" lon="5.98351">
        <ele>2252.2</ele>
        <time>2022-01-16T12:03:23Z</time>
      </trkpt>
      <trkpt lat="45.19489" lon="5.98349">
        <ele>2250.2</ele>
        <time>2022-01-16T12:03:24Z</time>
      </trkpt>
      <trkpt lat="45.19484" lon="5.98346">
        <ele>2247.2</ele>
        <time>2022-01-16T12:03:25Z</time>
      </trkpt>
      <trkpt lat="45.19481" lon="5.98338">
        <ele>2244.2</ele>
        <time>2022-01-16T12:03:26Z</time>
      </trkpt>
      <trkpt lat="45.19482" lon="5.98331">
        <ele>2243</ele>
        <time>2022-01-16T12:03:27Z</time>
      </trkpt>
      <trkpt lat="45.19483" lon="5.98322">
        <ele>2242.6</ele>
        <time>2022-01-16T12:03:28Z</time>
      </trkpt>
      <trkpt lat="45.19486" lon="5.98313">
        <ele>2238.8</ele>
        <time>2022-01-16T12:03:29Z</time>
      </trkpt>
      <trkpt lat="45.19486" lon="5.98304">
        <ele>2238.6</ele>
        <time>2022-01-16T12:03:30Z</time>
      </trkpt>
      <trkpt lat="45.19484" lon="5.98293">
        <ele>2233.2</ele>
        <time>2022-01-16T12:03:31Z</time>
      </trkpt>
      <trkpt lat="45.19483" lon="5.98284">
        <ele>2230.8</ele>
        <time>2022-01-16T12:03:32Z</time>
      </trkpt>
      <trkpt lat="45.19484" lon="5.98276">
        <ele>2229.2</ele>
        <time>2022-01-16T12:03:33Z</time>
      </trkpt>
      <trkpt lat="45.19489" lon="5.98266">
        <ele>2227</ele>
        <time>2022-01-16T12:03:34Z</time>
      </trkpt>
      <trkpt lat="45.19495" lon="5.98259">
        <ele>2225.4</ele>
        <time>2022-01-16T12:03:35Z</time>
      </trkpt>
      <trkpt lat="45.19501" lon="5.98252">
        <ele>2224.4</ele>
        <time>2022-01-16T12:03:36Z</time>
      </trkpt>
      <trkpt lat="45.19504" lon="5.98243">
        <ele>2224</ele>
        <time>2022-01-16T12:03:37Z</time>
      </trkpt>
      <trkpt lat="45.19504" lon="5.98236">
        <ele>2223.8</ele>
        <time>2022-01-16T12:03:38Z</time>
      </trkpt>
      <trkpt lat="45.19502" lon="5.98226">
        <ele>2222.8</ele>
        <time>2022-01-16T12:03:39Z</time>
      </trkpt>
      <trkpt lat="45.195" lon="5.98214">
        <ele>2220.8</ele>
        <time>2022-01-16T12:03:40Z</time>
      </trkpt>
      <trkpt lat="45.19502" lon="5.98203">
        <ele>2215</ele>
        <time>2022-01-16T12:03:41Z</time>
      </trkpt>
      <trkpt lat="45.19505" lon="5.98192">
        <ele>2214</ele>
        <time>2022-01-16T12:03:42Z</time>
      </trkpt>
      <trkpt lat="45.19509" lon="5.98184">
        <ele>2214</ele>
        <time>2022-01-16T12:03:43Z</time>
      </trkpt>
      <trkpt lat="45.19517" lon="5.98162">
        <ele>2213</ele>
        <time>2022-01-16T12:03:45Z</time>
      </trkpt>
      <trkpt lat="45.19519" lon="5.98149">
        <ele>2212</ele>
        <time>2022-01-16T12:03:46Z</time>
      </trkpt>
      <trkpt lat="45.19517" lon="5.98137">
        <ele>2209.2</ele>
        <time>2022-01-16T12:03:47Z</time>
      </trkpt>
      <trkpt lat="45.19517" lon="5.98126">
        <ele>2205.8</ele>
        <time>2022-01-16T12:03:48Z</time>
      </trkpt>
      <trkpt lat="45.19517" lon="5.98116">
        <ele>2201.8</ele>
        <time>2022-01-16T12:03:49Z</time>
      </trkpt>
      <trkpt lat="45.19518" lon="5.98103">
        <ele>2201.4</ele>
        <time>2022-01-16T12:03:50Z</time>
      </trkpt>
      <trkpt lat="45.19522" lon="5.98088">
        <ele>2198</ele>
        <time>2022-01-16T12:03:51Z</time>
      </trkpt>
      <trkpt lat="45.19527" lon="5.98079">
        <ele>2197</ele>
        <time>2022-01-16T12:03:52Z</time>
      </trkpt>
      <trkpt lat="45.19539" lon="5.98062">
        <ele>2195.4</ele>
        <time>2022-01-16T12:03:54Z</time>
      </trkpt>
      <trkpt lat="45.19556" lon="5.98045">
        <ele>2192.6</ele>
        <time>2022-01-16T12:03:57Z</time>
      </trkpt>
      <trkpt lat="45.1956" lon="5.98042">
        <ele>2192</ele>
        <time>2022-01-16T12:03:58Z</time>
      </trkpt>
      <trkpt lat="45.19564" lon="5.98038">
        <ele>2191.2</ele>
        <time>2022-01-16T12:03:59Z</time>
      </trkpt>
      <trkpt lat="45.1957" lon="5.98026">
        <ele>2189.4</ele>
        <time>2022-01-16T12:04:01Z</time>
      </trkpt>
      <trkpt lat="45.19568" lon="5.98013">
        <ele>2188</ele>
        <time>2022-01-16T12:04:03Z</time>
      </trkpt>
      <trkpt lat="45.19566" lon="5.98005">
        <ele>2187</ele>
        <time>2022-01-16T12:04:04Z</time>
      </trkpt>
      <trkpt lat="45.19564" lon="5.97997">
        <ele>2186.4</ele>
        <time>2022-01-16T12:04:05Z</time>
      </trkpt>
      <trkpt lat="45.19562" lon="5.97989">
        <ele>2185.4</ele>
        <time>2022-01-16T12:04:06Z</time>
      </trkpt>
      <trkpt lat="45.19561" lon="5.97973">
        <ele>2184.2</ele>
        <time>2022-01-16T12:04:08Z</time>
      </trkpt>
      <trkpt lat="45.19563" lon="5.97966">
        <ele>2183.6</ele>
        <time>2022-01-16T12:04:09Z</time>
      </trkpt>
      <trkpt lat="45.19564" lon="5.97961">
        <ele>2183</ele>
        <time>2022-01-16T12:04:10Z</time>
      </trkpt>
      <trkpt lat="45.19567" lon="5.97955">
        <ele>2182.6</ele>
        <time>2022-01-16T12:04:12Z</time>
      </trkpt>
      <trkpt lat="45.19568" lon="5.97954">
        <ele>2182.4</ele>
        <time>2022-01-16T12:04:15Z</time>
      </trkpt>
      <trkpt lat="45.19568" lon="5.97955">
        <ele>2182.4</ele>
        <time>2022-01-16T12:04:16Z</time>
      </trkpt>
      <trkpt lat="45.1957" lon="5.97951">
        <ele>2181.8</ele>
        <time>2022-01-16T12:04:18Z</time>
      </trkpt>
      <trkpt lat="45.19573" lon="5.97943">
        <ele>2181</ele>
        <time>2022-01-16T12:04:20Z</time>
      </trkpt>
      <trkpt lat="45.19575" lon="5.97938">
        <ele>2180</ele>
        <time>2022-01-16T12:04:21Z</time>
      </trkpt>
      <trkpt lat="45.1958" lon="5.97929">
        <ele>2178.4</ele>
        <time>2022-01-16T12:04:23Z</time>
      </trkpt>
      <trkpt lat="45.19588" lon="5.97921">
        <ele>2176.8</ele>
        <time>2022-01-16T12:04:25Z</time>
      </trkpt>
      <trkpt lat="45.19592" lon="5.97917">
        <ele>2175.8</ele>
        <time>2022-01-16T12:04:26Z</time>
      </trkpt>
      <trkpt lat="45.19596" lon="5.97914">
        <ele>2174.6</ele>
        <time>2022-01-16T12:04:27Z</time>
      </trkpt>
      <trkpt lat="45.196" lon="5.9791">
        <ele>2173.4</ele>
        <time>2022-01-16T12:04:28Z</time>
      </trkpt>
      <trkpt lat="45.19607" lon="5.979">
        <ele>2172</ele>
        <time>2022-01-16T12:04:30Z</time>
      </trkpt>
      <trkpt lat="45.19607" lon="5.97894">
        <ele>2170.4</ele>
        <time>2022-01-16T12:04:31Z</time>
      </trkpt>
      <trkpt lat="45.19606" lon="5.97888">
        <ele>2167</ele>
        <time>2022-01-16T12:04:32Z</time>
      </trkpt>
      <trkpt lat="45.19603" lon="5.97882">
        <ele>2165.8</ele>
        <time>2022-01-16T12:04:33Z</time>
      </trkpt>
      <trkpt lat="45.19601" lon="5.97874">
        <ele>2163.6</ele>
        <time>2022-01-16T12:04:34Z</time>
      </trkpt>
      <trkpt lat="45.19601" lon="5.97865">
        <ele>2159.6</ele>
        <time>2022-01-16T12:04:35Z</time>
      </trkpt>
      <trkpt lat="45.196" lon="5.97856">
        <ele>2157.8</ele>
        <time>2022-01-16T12:04:36Z</time>
      </trkpt>
      <trkpt lat="45.196" lon="5.97847">
        <ele>2156.6</ele>
        <time>2022-01-16T12:04:37Z</time>
      </trkpt>
      <trkpt lat="45.19599" lon="5.97838">
        <ele>2155</ele>
        <time>2022-01-16T12:04:38Z</time>
      </trkpt>
      <trkpt lat="45.19599" lon="5.9783">
        <ele>2155</ele>
        <time>2022-01-16T12:04:39Z</time>
      </trkpt>
      <trkpt lat="45.19599" lon="5.97819">
        <ele>2154.2</ele>
        <time>2022-01-16T12:04:41Z</time>
      </trkpt>
      <trkpt lat="45.196" lon="5.97815">
        <ele>2154.2</ele>
        <time>2022-01-16T12:04:42Z</time>
      </trkpt>
      <trkpt lat="45.196" lon="5.97814">
        <ele>2154.2</ele>
        <time>2022-01-16T12:04:43Z</time>
      </trkpt>
      <trkpt lat="45.196" lon="5.97813">
        <ele>2154.2</ele>
        <time>2022-01-16T12:04:44Z</time>
      </trkpt>
      <trkpt lat="45.19599" lon="5.97813">
        <ele>2154.2</ele>
        <time>2022-01-16T12:04:46Z</time>
      </trkpt>
      <trkpt lat="45.19598" lon="5.97813">
        <ele>2154.4</ele>
        <time>2022-01-16T12:04:48Z</time>
      </trkpt>
      <trkpt lat="45.19599" lon="5.97814">
        <ele>2154</ele>
        <time>2022-01-16T12:04:51Z</time>
      </trkpt>
      <trkpt lat="45.19599" lon="5.97814">
        <ele>2154</ele>
        <time>2022-01-16T12:04:52Z</time>
      </trkpt>
      <trkpt lat="45.19599" lon="5.97814">
        <ele>2153.8</ele>
        <time>2022-01-16T12:04:55Z</time>
      </trkpt>
      <trkpt lat="45.19599" lon="5.97814">
        <ele>2153.8</ele>
        <time>2022-01-16T12:04:57Z</time>
      </trkpt>
      <trkpt lat="45.196" lon="5.97814">
        <ele>2153.8</ele>
        <time>2022-01-16T12:05:00Z</time>
      </trkpt>
      <trkpt lat="45.196" lon="5.97814">
        <ele>2154</ele>
        <time>2022-01-16T12:05:06Z</time>
      </trkpt>
      <trkpt lat="45.196" lon="5.97814">
        <ele>2153.8</ele>
        <time>2022-01-16T12:05:12Z</time>
      </trkpt>
      <trkpt lat="45.19599" lon="5.97813">
        <ele>2153.8</ele>
        <time>2022-01-16T12:05:18Z</time>
      </trkpt>
      <trkpt lat="45.19599" lon="5.97811">
        <ele>2153.4</ele>
        <time>2022-01-16T12:05:24Z</time>
      </trkpt>
      <trkpt lat="45.19599" lon="5.97811">
        <ele>2153.4</ele>
        <time>2022-01-16T12:05:26Z</time>
      </trkpt>
      <trkpt lat="45.19599" lon="5.97811">
        <ele>2153.4</ele>
        <time>2022-01-16T12:05:27Z</time>
      </trkpt>
      <trkpt lat="45.19598" lon="5.9781">
        <ele>2153.6</ele>
        <time>2022-01-16T12:05:33Z</time>
      </trkpt>
      <trkpt lat="45.19594" lon="5.97809">
        <ele>2153.6</ele>
        <time>2022-01-16T12:05:37Z</time>
      </trkpt>
      <trkpt lat="45.19594" lon="5.97809">
        <ele>2152.8</ele>
        <time>2022-01-16T12:05:41Z</time>
      </trkpt>
      <trkpt lat="45.19593" lon="5.97809">
        <ele>2152.8</ele>
        <time>2022-01-16T12:05:44Z</time>
      </trkpt>
      <trkpt lat="45.19593" lon="5.97809">
        <ele>2153.2</ele>
        <time>2022-01-16T12:05:49Z</time>
      </trkpt>
      <trkpt lat="45.19593" lon="5.97809">
        <ele>2153.2</ele>
        <time>2022-01-16T12:05:50Z</time>
      </trkpt>
      <trkpt lat="45.19593" lon="5.97809">
        <ele>2153.2</ele>
        <time>2022-01-16T12:05:51Z</time>
      </trkpt>
      <trkpt lat="45.19593" lon="5.97809">
        <ele>2153.2</ele>
        <time>2022-01-16T12:05:53Z</time>
      </trkpt>
      <trkpt lat="45.19593" lon="5.9781">
        <ele>2153</ele>
        <time>2022-01-16T12:05:56Z</time>
      </trkpt>
      <trkpt lat="45.19593" lon="5.9781">
        <ele>2152.8</ele>
        <time>2022-01-16T12:05:58Z</time>
      </trkpt>
      <trkpt lat="45.19593" lon="5.97811">
        <ele>2152.6</ele>
        <time>2022-01-16T12:06:04Z</time>
      </trkpt>
      <trkpt lat="45.19593" lon="5.97812">
        <ele>2152.8</ele>
        <time>2022-01-16T12:06:08Z</time>
      </trkpt>
      <trkpt lat="45.19593" lon="5.97813">
        <ele>2153.2</ele>
        <time>2022-01-16T12:06:12Z</time>
      </trkpt>
      <trkpt lat="45.19594" lon="5.97815">
        <ele>2153</ele>
        <time>2022-01-16T12:06:18Z</time>
      </trkpt>
      <trkpt lat="45.19594" lon="5.97816">
        <ele>2153</ele>
        <time>2022-01-16T12:06:22Z</time>
      </trkpt>
      <trkpt lat="45.19594" lon="5.97816">
        <ele>2153</ele>
        <time>2022-01-16T12:06:24Z</time>
      </trkpt>
      <trkpt lat="45.19594" lon="5.97817">
        <ele>2152.8</ele>
        <time>2022-01-16T12:06:30Z</time>
      </trkpt>
      <trkpt lat="45.19595" lon="5.97817">
        <ele>2152.8</ele>
        <time>2022-01-16T12:06:36Z</time>
      </trkpt>
      <trkpt lat="45.19596" lon="5.97818">
        <ele>2152.6</ele>
        <time>2022-01-16T12:06:42Z</time>
      </trkpt>
      <trkpt lat="45.19596" lon="5.97818">
        <ele>2152.6</ele>
        <time>2022-01-16T12:06:48Z</time>
      </trkpt>
      <trkpt lat="45.19596" lon="5.97818">
        <ele>2152.6</ele>
        <time>2022-01-16T12:06:52Z</time>
      </trkpt>
      <trkpt lat="45.19596" lon="5.97818">
        <ele>2152.6</ele>
        <time>2022-01-16T12:06:58Z</time>
      </trkpt>
      <trkpt lat="45.19596" lon="5.97818">
        <ele>2152.4</ele>
        <time>2022-01-16T12:07:04Z</time>
      </trkpt>
      <trkpt lat="45.19596" lon="5.97818">
        <ele>2152.4</ele>
        <time>2022-01-16T12:07:08Z</time>
      </trkpt>
      <trkpt lat="45.19596" lon="5.97818">
        <ele>2152.4</ele>
        <time>2022-01-16T12:07:09Z</time>
      </trkpt>
      <trkpt lat="45.19596" lon="5.97818">
        <ele>2152.4</ele>
        <time>2022-01-16T12:07:10Z</time>
      </trkpt>
      <trkpt lat="45.19596" lon="5.97818">
        <ele>2152.2</ele>
        <time>2022-01-16T12:07:11Z</time>
      </trkpt>
      <trkpt lat="45.19596" lon="5.97818">
        <ele>2152.2</ele>
        <time>2022-01-16T12:07:12Z</time>
      </trkpt>
      <trkpt lat="45.19596" lon="5.97818">
        <ele>2152.2</ele>
        <time>2022-01-16T12:07:14Z</time>
      </trkpt>
      <trkpt lat="45.19596" lon="5.97818">
        <ele>2152.2</ele>
        <time>2022-01-16T12:07:16Z</time>
      </trkpt>
      <trkpt lat="45.19595" lon="5.97818">
        <ele>2152.4</ele>
        <time>2022-01-16T12:07:20Z</time>
      </trkpt>
      <trkpt lat="45.19595" lon="5.97818">
        <ele>2152.2</ele>
        <time>2022-01-16T12:07:22Z</time>
      </trkpt>
      <trkpt lat="45.19595" lon="5.97818">
        <ele>2152.2</ele>
        <time>2022-01-16T12:07:25Z</time>
      </trkpt>
      <trkpt lat="45.19595" lon="5.97817">
        <ele>2152.2</ele>
        <time>2022-01-16T12:07:28Z</time>
      </trkpt>
      <trkpt lat="45.19595" lon="5.97817">
        <ele>2152.2</ele>
        <time>2022-01-16T12:07:31Z</time>
      </trkpt>
      <trkpt lat="45.19595" lon="5.97817">
        <ele>2152.4</ele>
        <time>2022-01-16T12:07:32Z</time>
      </trkpt>
      <trkpt lat="45.19596" lon="5.97817">
        <ele>2152.8</ele>
        <time>2022-01-16T12:07:38Z</time>
      </trkpt>
      <trkpt lat="45.19596" lon="5.97817">
        <ele>2153</ele>
        <time>2022-01-16T12:07:40Z</time>
      </trkpt>
      <trkpt lat="45.19596" lon="5.97817">
        <ele>2153.2</ele>
        <time>2022-01-16T12:07:43Z</time>
      </trkpt>
      <trkpt lat="45.19597" lon="5.97816">
        <ele>2153.2</ele>
        <time>2022-01-16T12:07:49Z</time>
      </trkpt>
      <trkpt lat="45.19597" lon="5.97815">
        <ele>2152.8</ele>
        <time>2022-01-16T12:07:55Z</time>
      </trkpt>
      <trkpt lat="45.19598" lon="5.97815">
        <ele>2152.8</ele>
        <time>2022-01-16T12:08:01Z</time>
      </trkpt>
      <trkpt lat="45.19598" lon="5.97815">
        <ele>2152.8</ele>
        <time>2022-01-16T12:08:07Z</time>
      </trkpt>
      <trkpt lat="45.19597" lon="5.97815">
        <ele>2152.8</ele>
        <time>2022-01-16T12:08:13Z</time>
      </trkpt>
      <trkpt lat="45.19597" lon="5.97815">
        <ele>2152.8</ele>
        <time>2022-01-16T12:08:19Z</time>
      </trkpt>
      <trkpt lat="45.19596" lon="5.97815">
        <ele>2152.8</ele>
        <time>2022-01-16T12:08:25Z</time>
      </trkpt>
      <trkpt lat="45.19596" lon="5.97815">
        <ele>2152.8</ele>
        <time>2022-01-16T12:08:31Z</time>
      </trkpt>
      <trkpt lat="45.19596" lon="5.97815">
        <ele>2152.8</ele>
        <time>2022-01-16T12:08:35Z</time>
      </trkpt>
      <trkpt lat="45.19596" lon="5.97816">
        <ele>2152.8</ele>
        <time>2022-01-16T12:08:39Z</time>
      </trkpt>
      <trkpt lat="45.19595" lon="5.97816">
        <ele>2152.8</ele>
        <time>2022-01-16T12:08:42Z</time>
      </trkpt>
      <trkpt lat="45.19595" lon="5.97817">
        <ele>2152.8</ele>
        <time>2022-01-16T12:08:48Z</time>
      </trkpt>
      <trkpt lat="45.19595" lon="5.97817">
        <ele>2152.8</ele>
        <time>2022-01-16T12:08:51Z</time>
      </trkpt>
      <trkpt lat="45.19594" lon="5.97817">
        <ele>2152.8</ele>
        <time>2022-01-16T12:08:56Z</time>
      </trkpt>
      <trkpt lat="45.19596" lon="5.9782">
        <ele>2152.8</ele>
        <time>2022-01-16T12:09:00Z</time>
      </trkpt>
      <trkpt lat="45.19596" lon="5.97822">
        <ele>2152.8</ele>
        <time>2022-01-16T12:09:01Z</time>
      </trkpt>
      <trkpt lat="45.196" lon="5.97831">
        <ele>2152</ele>
        <time>2022-01-16T12:09:06Z</time>
      </trkpt>
      <trkpt lat="45.19601" lon="5.97834">
        <ele>2152</ele>
        <time>2022-01-16T12:09:08Z</time>
      </trkpt>
      <trkpt lat="45.19603" lon="5.97838">
        <ele>2152.6</ele>
        <time>2022-01-16T12:09:11Z</time>
      </trkpt>
      <trkpt lat="45.19606" lon="5.97843">
        <ele>2153.4</ele>
        <time>2022-01-16T12:09:15Z</time>
      </trkpt>
      <trkpt lat="45.19606" lon="5.97847">
        <ele>2153.8</ele>
        <time>2022-01-16T12:09:19Z</time>
      </trkpt>
      <trkpt lat="45.19607" lon="5.97848">
        <ele>2154.2</ele>
        <time>2022-01-16T12:09:20Z</time>
      </trkpt>
      <trkpt lat="45.19608" lon="5.97851">
        <ele>2154.8</ele>
        <time>2022-01-16T12:09:22Z</time>
      </trkpt>
      <trkpt lat="45.19608" lon="5.97855">
        <ele>2155.2</ele>
        <time>2022-01-16T12:09:24Z</time>
      </trkpt>
      <trkpt lat="45.19609" lon="5.97856">
        <ele>2155.4</ele>
        <time>2022-01-16T12:09:25Z</time>
      </trkpt>
      <trkpt lat="45.19608" lon="5.97859">
        <ele>2155.8</ele>
        <time>2022-01-16T12:09:28Z</time>
      </trkpt>
      <trkpt lat="45.19609" lon="5.97863">
        <ele>2156.2</ele>
        <time>2022-01-16T12:09:31Z</time>
      </trkpt>
      <trkpt lat="45.19609" lon="5.97865">
        <ele>2156.6</ele>
        <time>2022-01-16T12:09:33Z</time>
      </trkpt>
      <trkpt lat="45.1961" lon="5.97869">
        <ele>2157.4</ele>
        <time>2022-01-16T12:09:36Z</time>
      </trkpt>
      <trkpt lat="45.19611" lon="5.97874">
        <ele>2157.8</ele>
        <time>2022-01-16T12:09:41Z</time>
      </trkpt>
      <trkpt lat="45.1961" lon="5.97877">
        <ele>2157.8</ele>
        <time>2022-01-16T12:09:43Z</time>
      </trkpt>
      <trkpt lat="45.19611" lon="5.9788">
        <ele>2158.6</ele>
        <time>2022-01-16T12:09:46Z</time>
      </trkpt>
      <trkpt lat="45.19611" lon="5.97883">
        <ele>2158.8</ele>
        <time>2022-01-16T12:09:48Z</time>
      </trkpt>
      <trkpt lat="45.19611" lon="5.97884">
        <ele>2159.8</ele>
        <time>2022-01-16T12:09:50Z</time>
      </trkpt>
      <trkpt lat="45.19611" lon="5.97888">
        <ele>2160.8</ele>
        <time>2022-01-16T12:09:54Z</time>
      </trkpt>
      <trkpt lat="45.19611" lon="5.97889">
        <ele>2160.8</ele>
        <time>2022-01-16T12:09:55Z</time>
      </trkpt>
      <trkpt lat="45.1961" lon="5.97893">
        <ele>2162</ele>
        <time>2022-01-16T12:10:00Z</time>
      </trkpt>
      <trkpt lat="45.19609" lon="5.97898">
        <ele>2162.8</ele>
        <time>2022-01-16T12:10:06Z</time>
      </trkpt>
      <trkpt lat="45.19608" lon="5.97898">
        <ele>2163.4</ele>
        <time>2022-01-16T12:10:07Z</time>
      </trkpt>
      <trkpt lat="45.19609" lon="5.97902">
        <ele>2164.6</ele>
        <time>2022-01-16T12:10:11Z</time>
      </trkpt>
      <trkpt lat="45.19607" lon="5.97908">
        <ele>2165.6</ele>
        <time>2022-01-16T12:10:17Z</time>
      </trkpt>
      <trkpt lat="45.19606" lon="5.97909">
        <ele>2165.8</ele>
        <time>2022-01-16T12:10:18Z</time>
      </trkpt>
      <trkpt lat="45.19606" lon="5.97909">
        <ele>2166</ele>
        <time>2022-01-16T12:10:19Z</time>
      </trkpt>
      <trkpt lat="45.19604" lon="5.97913">
        <ele>2167.2</ele>
        <time>2022-01-16T12:10:24Z</time>
      </trkpt>
      <trkpt lat="45.19602" lon="5.97917">
        <ele>2168.2</ele>
        <time>2022-01-16T12:10:28Z</time>
      </trkpt>
      <trkpt lat="45.19601" lon="5.97919">
        <ele>2168.6</ele>
        <time>2022-01-16T12:10:30Z</time>
      </trkpt>
      <trkpt lat="45.19599" lon="5.97922">
        <ele>2169.2</ele>
        <time>2022-01-16T12:10:36Z</time>
      </trkpt>
      <trkpt lat="45.19599" lon="5.97922">
        <ele>2169.4</ele>
        <time>2022-01-16T12:10:39Z</time>
      </trkpt>
      <trkpt lat="45.19599" lon="5.97923">
        <ele>2169.4</ele>
        <time>2022-01-16T12:10:40Z</time>
      </trkpt>
      <trkpt lat="45.19599" lon="5.97925">
        <ele>2170.2</ele>
        <time>2022-01-16T12:10:46Z</time>
      </trkpt>
      <trkpt lat="45.19598" lon="5.97927">
        <ele>2170.4</ele>
        <time>2022-01-16T12:10:48Z</time>
      </trkpt>
      <trkpt lat="45.19599" lon="5.97928">
        <ele>2170.8</ele>
        <time>2022-01-16T12:10:49Z</time>
      </trkpt>
      <trkpt lat="45.19599" lon="5.97929">
        <ele>2172</ele>
        <time>2022-01-16T12:10:51Z</time>
      </trkpt>
      <trkpt lat="45.19601" lon="5.97929">
        <ele>2173</ele>
        <time>2022-01-16T12:10:55Z</time>
      </trkpt>
      <trkpt lat="45.19603" lon="5.97931">
        <ele>2174</ele>
        <time>2022-01-16T12:11:00Z</time>
      </trkpt>
      <trkpt lat="45.19605" lon="5.97933">
        <ele>2174.6</ele>
        <time>2022-01-16T12:11:03Z</time>
      </trkpt>
      <trkpt lat="45.19606" lon="5.97934">
        <ele>2175.2</ele>
        <time>2022-01-16T12:11:04Z</time>
      </trkpt>
      <trkpt lat="45.19606" lon="5.97942">
        <ele>2175.6</ele>
        <time>2022-01-16T12:11:10Z</time>
      </trkpt>
      <trkpt lat="45.19606" lon="5.97943">
        <ele>2176</ele>
        <time>2022-01-16T12:11:11Z</time>
      </trkpt>
      <trkpt lat="45.19605" lon="5.97945">
        <ele>2176.2</ele>
        <time>2022-01-16T12:11:13Z</time>
      </trkpt>
      <trkpt lat="45.19604" lon="5.97947">
        <ele>2176.2</ele>
        <time>2022-01-16T12:11:15Z</time>
      </trkpt>
      <trkpt lat="45.19604" lon="5.97948">
        <ele>2176.6</ele>
        <time>2022-01-16T12:11:16Z</time>
      </trkpt>
      <trkpt lat="45.19604" lon="5.97952">
        <ele>2177.6</ele>
        <time>2022-01-16T12:11:19Z</time>
      </trkpt>
      <trkpt lat="45.19604" lon="5.97956">
        <ele>2178</ele>
        <time>2022-01-16T12:11:23Z</time>
      </trkpt>
      <trkpt lat="45.19604" lon="5.97956">
        <ele>2178.8</ele>
        <time>2022-01-16T12:11:24Z</time>
      </trkpt>
      <trkpt lat="45.19605" lon="5.97957">
        <ele>2180</ele>
        <time>2022-01-16T12:11:29Z</time>
      </trkpt>
      <trkpt lat="45.19608" lon="5.97956">
        <ele>2181.2</ele>
        <time>2022-01-16T12:11:34Z</time>
      </trkpt>
      <trkpt lat="45.19611" lon="5.97955">
        <ele>2182</ele>
        <time>2022-01-16T12:11:38Z</time>
      </trkpt>
      <trkpt lat="45.19612" lon="5.97954">
        <ele>2182.4</ele>
        <time>2022-01-16T12:11:39Z</time>
      </trkpt>
      <trkpt lat="45.19614" lon="5.97954">
        <ele>2183</ele>
        <time>2022-01-16T12:11:41Z</time>
      </trkpt>
      <trkpt lat="45.19615" lon="5.97957">
        <ele>2183.8</ele>
        <time>2022-01-16T12:11:44Z</time>
      </trkpt>
      <trkpt lat="45.19615" lon="5.97963">
        <ele>2184.4</ele>
        <time>2022-01-16T12:11:48Z</time>
      </trkpt>
      <trkpt lat="45.19615" lon="5.97966">
        <ele>2184.8</ele>
        <time>2022-01-16T12:11:50Z</time>
      </trkpt>
      <trkpt lat="45.19616" lon="5.97968">
        <ele>2185</ele>
        <time>2022-01-16T12:11:52Z</time>
      </trkpt>
      <trkpt lat="45.19616" lon="5.97974">
        <ele>2185.6</ele>
        <time>2022-01-16T12:11:56Z</time>
      </trkpt>
      <trkpt lat="45.19615" lon="5.97976">
        <ele>2186.2</ele>
        <time>2022-01-16T12:11:58Z</time>
      </trkpt>
      <trkpt lat="45.19614" lon="5.97978">
        <ele>2186.4</ele>
        <time>2022-01-16T12:12:00Z</time>
      </trkpt>
      <trkpt lat="45.19614" lon="5.97983">
        <ele>2186.4</ele>
        <time>2022-01-16T12:12:03Z</time>
      </trkpt>
      <trkpt lat="45.19614" lon="5.97984">
        <ele>2186.8</ele>
        <time>2022-01-16T12:12:04Z</time>
      </trkpt>
      <trkpt lat="45.19614" lon="5.97986">
        <ele>2187.4</ele>
        <time>2022-01-16T12:12:06Z</time>
      </trkpt>
      <trkpt lat="45.19615" lon="5.97989">
        <ele>2188.4</ele>
        <time>2022-01-16T12:12:09Z</time>
      </trkpt>
      <trkpt lat="45.19614" lon="5.9799">
        <ele>2188.8</ele>
        <time>2022-01-16T12:12:10Z</time>
      </trkpt>
      <trkpt lat="45.19614" lon="5.9799">
        <ele>2189.2</ele>
        <time>2022-01-16T12:12:11Z</time>
      </trkpt>
      <trkpt lat="45.19615" lon="5.97989">
        <ele>2190</ele>
        <time>2022-01-16T12:12:14Z</time>
      </trkpt>
      <trkpt lat="45.19617" lon="5.97988">
        <ele>2190.6</ele>
        <time>2022-01-16T12:12:17Z</time>
      </trkpt>
      <trkpt lat="45.19619" lon="5.97986">
        <ele>2190.8</ele>
        <time>2022-01-16T12:12:20Z</time>
      </trkpt>
      <trkpt lat="45.19619" lon="5.97986">
        <ele>2191</ele>
        <time>2022-01-16T12:12:21Z</time>
      </trkpt>
      <trkpt lat="45.19622" lon="5.97985">
        <ele>2191.4</ele>
        <time>2022-01-16T12:12:24Z</time>
      </trkpt>
      <trkpt lat="45.19624" lon="5.97986">
        <ele>2192.2</ele>
        <time>2022-01-16T12:12:27Z</time>
      </trkpt>
      <trkpt lat="45.19624" lon="5.9799">
        <ele>2192.6</ele>
        <time>2022-01-16T12:12:30Z</time>
      </trkpt>
      <trkpt lat="45.19624" lon="5.97991">
        <ele>2192.8</ele>
        <time>2022-01-16T12:12:31Z</time>
      </trkpt>
      <trkpt lat="45.19623" lon="5.97994">
        <ele>2193.2</ele>
        <time>2022-01-16T12:12:33Z</time>
      </trkpt>
      <trkpt lat="45.19623" lon="5.97995">
        <ele>2193.4</ele>
        <time>2022-01-16T12:12:34Z</time>
      </trkpt>
      <trkpt lat="45.19618" lon="5.98">
        <ele>2194.6</ele>
        <time>2022-01-16T12:12:40Z</time>
      </trkpt>
      <trkpt lat="45.19616" lon="5.98003">
        <ele>2195</ele>
        <time>2022-01-16T12:12:43Z</time>
      </trkpt>
      <trkpt lat="45.19614" lon="5.98006">
        <ele>2197</ele>
        <time>2022-01-16T12:12:47Z</time>
      </trkpt>
      <trkpt lat="45.19613" lon="5.98009">
        <ele>2197.2</ele>
        <time>2022-01-16T12:12:51Z</time>
      </trkpt>
      <trkpt lat="45.19609" lon="5.98014">
        <ele>2198</ele>
        <time>2022-01-16T12:12:57Z</time>
      </trkpt>
      <trkpt lat="45.19609" lon="5.98015">
        <ele>2198.6</ele>
        <time>2022-01-16T12:12:58Z</time>
      </trkpt>
      <trkpt lat="45.19608" lon="5.9802">
        <ele>2199</ele>
        <time>2022-01-16T12:13:03Z</time>
      </trkpt>
      <trkpt lat="45.19608" lon="5.98022">
        <ele>2199.2</ele>
        <time>2022-01-16T12:13:04Z</time>
      </trkpt>
      <trkpt lat="45.19609" lon="5.98025">
        <ele>2200</ele>
        <time>2022-01-16T12:13:07Z</time>
      </trkpt>
      <trkpt lat="45.19609" lon="5.98026">
        <ele>2200.8</ele>
        <time>2022-01-16T12:13:08Z</time>
      </trkpt>
      <trkpt lat="45.19609" lon="5.98031">
        <ele>2201.6</ele>
        <time>2022-01-16T12:13:12Z</time>
      </trkpt>
      <trkpt lat="45.19609" lon="5.98032">
        <ele>2201.8</ele>
        <time>2022-01-16T12:13:13Z</time>
      </trkpt>
      <trkpt lat="45.19609" lon="5.98034">
        <ele>2201.8</ele>
        <time>2022-01-16T12:13:15Z</time>
      </trkpt>
      <trkpt lat="45.19609" lon="5.98036">
        <ele>2202.6</ele>
        <time>2022-01-16T12:13:17Z</time>
      </trkpt>
      <trkpt lat="45.19609" lon="5.98039">
        <ele>2203</ele>
        <time>2022-01-16T12:13:19Z</time>
      </trkpt>
      <trkpt lat="45.1961" lon="5.98044">
        <ele>2203.4</ele>
        <time>2022-01-16T12:13:24Z</time>
      </trkpt>
      <trkpt lat="45.19611" lon="5.98051">
        <ele>2204.4</ele>
        <time>2022-01-16T12:13:30Z</time>
      </trkpt>
      <trkpt lat="45.19611" lon="5.98056">
        <ele>2205.4</ele>
        <time>2022-01-16T12:13:34Z</time>
      </trkpt>
      <trkpt lat="45.19611" lon="5.98062">
        <ele>2206.2</ele>
        <time>2022-01-16T12:13:40Z</time>
      </trkpt>
      <trkpt lat="45.19611" lon="5.98063">
        <ele>2206.2</ele>
        <time>2022-01-16T12:13:41Z</time>
      </trkpt>
      <trkpt lat="45.19611" lon="5.98065">
        <ele>2206.8</ele>
        <time>2022-01-16T12:13:42Z</time>
      </trkpt>
      <trkpt lat="45.19612" lon="5.98071">
        <ele>2208</ele>
        <time>2022-01-16T12:13:47Z</time>
      </trkpt>
      <trkpt lat="45.19613" lon="5.98074">
        <ele>2208.6</ele>
        <time>2022-01-16T12:13:49Z</time>
      </trkpt>
      <trkpt lat="45.1961" lon="5.98078">
        <ele>2208.8</ele>
        <time>2022-01-16T12:13:53Z</time>
      </trkpt>
      <trkpt lat="45.19611" lon="5.98083">
        <ele>2209.2</ele>
        <time>2022-01-16T12:13:57Z</time>
      </trkpt>
      <trkpt lat="45.19611" lon="5.9809">
        <ele>2210.4</ele>
        <time>2022-01-16T12:14:03Z</time>
      </trkpt>
      <trkpt lat="45.1961" lon="5.98097">
        <ele>2211.6</ele>
        <time>2022-01-16T12:14:08Z</time>
      </trkpt>
      <trkpt lat="45.1961" lon="5.98099">
        <ele>2212</ele>
        <time>2022-01-16T12:14:10Z</time>
      </trkpt>
      <trkpt lat="45.1961" lon="5.981">
        <ele>2212</ele>
        <time>2022-01-16T12:14:11Z</time>
      </trkpt>
      <trkpt lat="45.19611" lon="5.98105">
        <ele>2212.8</ele>
        <time>2022-01-16T12:14:16Z</time>
      </trkpt>
      <trkpt lat="45.19611" lon="5.98112">
        <ele>2214.2</ele>
        <time>2022-01-16T12:14:22Z</time>
      </trkpt>
      <trkpt lat="45.1961" lon="5.98116">
        <ele>2214.8</ele>
        <time>2022-01-16T12:14:25Z</time>
      </trkpt>
      <trkpt lat="45.1961" lon="5.98118">
        <ele>2215.4</ele>
        <time>2022-01-16T12:14:27Z</time>
      </trkpt>
      <trkpt lat="45.1961" lon="5.9812">
        <ele>2216</ele>
        <time>2022-01-16T12:14:31Z</time>
      </trkpt>
      <trkpt lat="45.1961" lon="5.9812">
        <ele>2216</ele>
        <time>2022-01-16T12:14:35Z</time>
      </trkpt>
      <trkpt lat="45.19612" lon="5.98117">
        <ele>2217</ele>
        <time>2022-01-16T12:14:41Z</time>
      </trkpt>
      <trkpt lat="45.19616" lon="5.98112">
        <ele>2218.2</ele>
        <time>2022-01-16T12:14:47Z</time>
      </trkpt>
      <trkpt lat="45.19617" lon="5.9811">
        <ele>2218.6</ele>
        <time>2022-01-16T12:14:49Z</time>
      </trkpt>
      <trkpt lat="45.19618" lon="5.98109">
        <ele>2219.2</ele>
        <time>2022-01-16T12:14:51Z</time>
      </trkpt>
      <trkpt lat="45.19621" lon="5.98106">
        <ele>2220.4</ele>
        <time>2022-01-16T12:14:56Z</time>
      </trkpt>
      <trkpt lat="45.19621" lon="5.98105">
        <ele>2220.4</ele>
        <time>2022-01-16T12:14:57Z</time>
      </trkpt>
      <trkpt lat="45.19623" lon="5.98104">
        <ele>2221.4</ele>
        <time>2022-01-16T12:15:00Z</time>
      </trkpt>
      <trkpt lat="45.19625" lon="5.98101">
        <ele>2221.8</ele>
        <time>2022-01-16T12:15:03Z</time>
      </trkpt>
      <trkpt lat="45.19626" lon="5.981">
        <ele>2222.4</ele>
        <time>2022-01-16T12:15:04Z</time>
      </trkpt>
      <trkpt lat="45.19627" lon="5.98099">
        <ele>2222.6</ele>
        <time>2022-01-16T12:15:06Z</time>
      </trkpt>
      <trkpt lat="45.19629" lon="5.98096">
        <ele>2223.4</ele>
        <time>2022-01-16T12:15:09Z</time>
      </trkpt>
      <trkpt lat="45.19633" lon="5.98092">
        <ele>2224.4</ele>
        <time>2022-01-16T12:15:15Z</time>
      </trkpt>
      <trkpt lat="45.19636" lon="5.98089">
        <ele>2225.6</ele>
        <time>2022-01-16T12:15:19Z</time>
      </trkpt>
      <trkpt lat="45.19639" lon="5.98087">
        <ele>2226.6</ele>
        <time>2022-01-16T12:15:22Z</time>
      </trkpt>
      <trkpt lat="45.1964" lon="5.98085">
        <ele>2227</ele>
        <time>2022-01-16T12:15:25Z</time>
      </trkpt>
      <trkpt lat="45.19641" lon="5.98084">
        <ele>2227.6</ele>
        <time>2022-01-16T12:15:27Z</time>
      </trkpt>
      <trkpt lat="45.19644" lon="5.98082">
        <ele>2228.8</ele>
        <time>2022-01-16T12:15:31Z</time>
      </trkpt>
      <trkpt lat="45.19646" lon="5.9808">
        <ele>2229.2</ele>
        <time>2022-01-16T12:15:34Z</time>
      </trkpt>
      <trkpt lat="45.19648" lon="5.98078">
        <ele>2229.8</ele>
        <time>2022-01-16T12:15:38Z</time>
      </trkpt>
      <trkpt lat="45.19649" lon="5.98078">
        <ele>2230.6</ele>
        <time>2022-01-16T12:15:40Z</time>
      </trkpt>
      <trkpt lat="45.19648" lon="5.98078">
        <ele>2230.6</ele>
        <time>2022-01-16T12:15:42Z</time>
      </trkpt>
      <trkpt lat="45.19647" lon="5.9808">
        <ele>2229.8</ele>
        <time>2022-01-16T12:15:48Z</time>
      </trkpt>
      <trkpt lat="45.19646" lon="5.98081">
        <ele>2230</ele>
        <time>2022-01-16T12:15:53Z</time>
      </trkpt>
      <trkpt lat="45.19646" lon="5.98081">
        <ele>2230.2</ele>
        <time>2022-01-16T12:15:55Z</time>
      </trkpt>
      <trkpt lat="45.19646" lon="5.98081">
        <ele>2230.2</ele>
        <time>2022-01-16T12:15:57Z</time>
      </trkpt>
      <trkpt lat="45.19646" lon="5.98081">
        <ele>2230.6</ele>
        <time>2022-01-16T12:15:59Z</time>
      </trkpt>
      <trkpt lat="45.19646" lon="5.98081">
        <ele>2231</ele>
        <time>2022-01-16T12:16:01Z</time>
      </trkpt>
      <trkpt lat="45.19646" lon="5.98081">
        <ele>2232.8</ele>
        <time>2022-01-16T12:16:05Z</time>
      </trkpt>
      <trkpt lat="45.19648" lon="5.98085">
        <ele>2233</ele>
        <time>2022-01-16T12:16:07Z</time>
      </trkpt>
      <trkpt lat="45.19648" lon="5.98089">
        <ele>2233.8</ele>
        <time>2022-01-16T12:16:09Z</time>
      </trkpt>
      <trkpt lat="45.19651" lon="5.98094">
        <ele>2234.6</ele>
        <time>2022-01-16T12:16:12Z</time>
      </trkpt>
      <trkpt lat="45.19652" lon="5.98096">
        <ele>2234.8</ele>
        <time>2022-01-16T12:16:13Z</time>
      </trkpt>
      <trkpt lat="45.19653" lon="5.98098">
        <ele>2234.8</ele>
        <time>2022-01-16T12:16:14Z</time>
      </trkpt>
      <trkpt lat="45.19653" lon="5.98099">
        <ele>2235.2</ele>
        <time>2022-01-16T12:16:15Z</time>
      </trkpt>
      <trkpt lat="45.19652" lon="5.98101">
        <ele>2236.4</ele>
        <time>2022-01-16T12:16:18Z</time>
      </trkpt>
      <trkpt lat="45.19653" lon="5.98104">
        <ele>2236.6</ele>
        <time>2022-01-16T12:16:20Z</time>
      </trkpt>
      <trkpt lat="45.19653" lon="5.98108">
        <ele>2238.2</ele>
        <time>2022-01-16T12:16:24Z</time>
      </trkpt>
      <trkpt lat="45.19654" lon="5.98111">
        <ele>2238.4</ele>
        <time>2022-01-16T12:16:27Z</time>
      </trkpt>
      <trkpt lat="45.19655" lon="5.98114">
        <ele>2239.6</ele>
        <time>2022-01-16T12:16:30Z</time>
      </trkpt>
      <trkpt lat="45.19656" lon="5.98117">
        <ele>2240</ele>
        <time>2022-01-16T12:16:34Z</time>
      </trkpt>
      <trkpt lat="45.19656" lon="5.98117">
        <ele>2240.6</ele>
        <time>2022-01-16T12:16:35Z</time>
      </trkpt>
      <trkpt lat="45.19657" lon="5.98121">
        <ele>2241.8</ele>
        <time>2022-01-16T12:16:38Z</time>
      </trkpt>
      <trkpt lat="45.19658" lon="5.98123">
        <ele>2242.4</ele>
        <time>2022-01-16T12:16:40Z</time>
      </trkpt>
      <trkpt lat="45.19659" lon="5.98125">
        <ele>2242.8</ele>
        <time>2022-01-16T12:16:42Z</time>
      </trkpt>
      <trkpt lat="45.19661" lon="5.9813">
        <ele>2244</ele>
        <time>2022-01-16T12:16:46Z</time>
      </trkpt>
      <trkpt lat="45.19662" lon="5.9813">
        <ele>2244.2</ele>
        <time>2022-01-16T12:16:47Z</time>
      </trkpt>
      <trkpt lat="45.19662" lon="5.98133">
        <ele>2245.2</ele>
        <time>2022-01-16T12:16:50Z</time>
      </trkpt>
      <trkpt lat="45.19662" lon="5.98139">
        <ele>2246.4</ele>
        <time>2022-01-16T12:16:56Z</time>
      </trkpt>
      <trkpt lat="45.19662" lon="5.9814">
        <ele>2246.6</ele>
        <time>2022-01-16T12:16:57Z</time>
      </trkpt>
      <trkpt lat="45.19662" lon="5.98145">
        <ele>2247.8</ele>
        <time>2022-01-16T12:17:01Z</time>
      </trkpt>
      <trkpt lat="45.19664" lon="5.98148">
        <ele>2248.6</ele>
        <time>2022-01-16T12:17:05Z</time>
      </trkpt>
      <trkpt lat="45.19664" lon="5.98151">
        <ele>2249</ele>
        <time>2022-01-16T12:17:08Z</time>
      </trkpt>
      <trkpt lat="45.19664" lon="5.98153">
        <ele>2250.4</ele>
        <time>2022-01-16T12:17:11Z</time>
      </trkpt>
      <trkpt lat="45.19664" lon="5.98158">
        <ele>2251.2</ele>
        <time>2022-01-16T12:17:15Z</time>
      </trkpt>
      <trkpt lat="45.19664" lon="5.98158">
        <ele>2251.4</ele>
        <time>2022-01-16T12:17:18Z</time>
      </trkpt>
      <trkpt lat="45.19665" lon="5.98157">
        <ele>2251.6</ele>
        <time>2022-01-16T12:17:20Z</time>
      </trkpt>
      <trkpt lat="45.19666" lon="5.98153">
        <ele>2252.6</ele>
        <time>2022-01-16T12:17:25Z</time>
      </trkpt>
      <trkpt lat="45.19669" lon="5.9815">
        <ele>2253.8</ele>
        <time>2022-01-16T12:17:29Z</time>
      </trkpt>
      <trkpt lat="45.19669" lon="5.98149">
        <ele>2253.8</ele>
        <time>2022-01-16T12:17:30Z</time>
      </trkpt>
      <trkpt lat="45.19671" lon="5.98147">
        <ele>2254.8</ele>
        <time>2022-01-16T12:17:34Z</time>
      </trkpt>
      <trkpt lat="45.19674" lon="5.98141">
        <ele>2256</ele>
        <time>2022-01-16T12:17:40Z</time>
      </trkpt>
      <trkpt lat="45.19675" lon="5.9814">
        <ele>2256.6</ele>
        <time>2022-01-16T12:17:42Z</time>
      </trkpt>
      <trkpt lat="45.19675" lon="5.98139">
        <ele>2257</ele>
        <time>2022-01-16T12:17:43Z</time>
      </trkpt>
      <trkpt lat="45.19678" lon="5.98136">
        <ele>2258</ele>
        <time>2022-01-16T12:17:48Z</time>
      </trkpt>
      <trkpt lat="45.19678" lon="5.98135">
        <ele>2258</ele>
        <time>2022-01-16T12:17:49Z</time>
      </trkpt>
      <trkpt lat="45.19681" lon="5.98131">
        <ele>2259.4</ele>
        <time>2022-01-16T12:17:54Z</time>
      </trkpt>
      <trkpt lat="45.19682" lon="5.9813">
        <ele>2259.4</ele>
        <time>2022-01-16T12:17:55Z</time>
      </trkpt>
      <trkpt lat="45.19682" lon="5.98129">
        <ele>2259.8</ele>
        <time>2022-01-16T12:17:56Z</time>
      </trkpt>
      <trkpt lat="45.19683" lon="5.98128">
        <ele>2260</ele>
        <time>2022-01-16T12:17:58Z</time>
      </trkpt>
      <trkpt lat="45.19685" lon="5.98126">
        <ele>2260.4</ele>
        <time>2022-01-16T12:18:00Z</time>
      </trkpt>
      <trkpt lat="45.19687" lon="5.98123">
        <ele>2261.2</ele>
        <time>2022-01-16T12:18:03Z</time>
      </trkpt>
      <trkpt lat="45.19687" lon="5.98122">
        <ele>2261.6</ele>
        <time>2022-01-16T12:18:04Z</time>
      </trkpt>
      <trkpt lat="45.19688" lon="5.98122">
        <ele>2261.8</ele>
        <time>2022-01-16T12:18:05Z</time>
      </trkpt>
      <trkpt lat="45.1969" lon="5.98121">
        <ele>2262.6</ele>
        <time>2022-01-16T12:18:08Z</time>
      </trkpt>
      <trkpt lat="45.19692" lon="5.98119">
        <ele>2262.6</ele>
        <time>2022-01-16T12:18:10Z</time>
      </trkpt>
      <trkpt lat="45.19695" lon="5.98116">
        <ele>2263.6</ele>
        <time>2022-01-16T12:18:14Z</time>
      </trkpt>
      <trkpt lat="45.19696" lon="5.98112">
        <ele>2264</ele>
        <time>2022-01-16T12:18:18Z</time>
      </trkpt>
      <trkpt lat="45.19698" lon="5.9811">
        <ele>2264.8</ele>
        <time>2022-01-16T12:18:20Z</time>
      </trkpt>
      <trkpt lat="45.19699" lon="5.98106">
        <ele>2266</ele>
        <time>2022-01-16T12:18:24Z</time>
      </trkpt>
      <trkpt lat="45.19701" lon="5.98103">
        <ele>2267</ele>
        <time>2022-01-16T12:18:27Z</time>
      </trkpt>
      <trkpt lat="45.19701" lon="5.98103">
        <ele>2267.2</ele>
        <time>2022-01-16T12:18:28Z</time>
      </trkpt>
      <trkpt lat="45.19703" lon="5.98099">
        <ele>2268.2</ele>
        <time>2022-01-16T12:18:32Z</time>
      </trkpt>
      <trkpt lat="45.19704" lon="5.98098">
        <ele>2268.4</ele>
        <time>2022-01-16T12:18:33Z</time>
      </trkpt>
      <trkpt lat="45.19706" lon="5.98096">
        <ele>2269.4</ele>
        <time>2022-01-16T12:18:37Z</time>
      </trkpt>
      <trkpt lat="45.19706" lon="5.98098">
        <ele>2269.6</ele>
        <time>2022-01-16T12:18:39Z</time>
      </trkpt>
      <trkpt lat="45.19707" lon="5.98101">
        <ele>2270.4</ele>
        <time>2022-01-16T12:18:42Z</time>
      </trkpt>
      <trkpt lat="45.19708" lon="5.98104">
        <ele>2271.2</ele>
        <time>2022-01-16T12:18:46Z</time>
      </trkpt>
      <trkpt lat="45.19709" lon="5.98107">
        <ele>2271.6</ele>
        <time>2022-01-16T12:18:48Z</time>
      </trkpt>
      <trkpt lat="45.1971" lon="5.98109">
        <ele>2272</ele>
        <time>2022-01-16T12:18:50Z</time>
      </trkpt>
      <trkpt lat="45.19711" lon="5.98113">
        <ele>2272.6</ele>
        <time>2022-01-16T12:18:53Z</time>
      </trkpt>
      <trkpt lat="45.19711" lon="5.98114">
        <ele>2273</ele>
        <time>2022-01-16T12:18:54Z</time>
      </trkpt>
      <trkpt lat="45.19712" lon="5.98117">
        <ele>2273.2</ele>
        <time>2022-01-16T12:18:56Z</time>
      </trkpt>
      <trkpt lat="45.19712" lon="5.98117">
        <ele>2273.6</ele>
        <time>2022-01-16T12:18:57Z</time>
      </trkpt>
      <trkpt lat="45.19713" lon="5.9812">
        <ele>2274.6</ele>
        <time>2022-01-16T12:18:59Z</time>
      </trkpt>
      <trkpt lat="45.19713" lon="5.98121">
        <ele>2274.8</ele>
        <time>2022-01-16T12:19:00Z</time>
      </trkpt>
      <trkpt lat="45.19714" lon="5.98127">
        <ele>2276</ele>
        <time>2022-01-16T12:19:05Z</time>
      </trkpt>
      <trkpt lat="45.19714" lon="5.9813">
        <ele>2276.2</ele>
        <time>2022-01-16T12:19:07Z</time>
      </trkpt>
      <trkpt lat="45.19715" lon="5.98133">
        <ele>2277.4</ele>
        <time>2022-01-16T12:19:10Z</time>
      </trkpt>
      <trkpt lat="45.19715" lon="5.98136">
        <ele>2278.4</ele>
        <time>2022-01-16T12:19:12Z</time>
      </trkpt>
      <trkpt lat="45.19715" lon="5.98138">
        <ele>2278.6</ele>
        <time>2022-01-16T12:19:14Z</time>
      </trkpt>
      <trkpt lat="45.19717" lon="5.98142">
        <ele>2279.4</ele>
        <time>2022-01-16T12:19:18Z</time>
      </trkpt>
      <trkpt lat="45.19717" lon="5.98143">
        <ele>2279.6</ele>
        <time>2022-01-16T12:19:19Z</time>
      </trkpt>
      <trkpt lat="45.19719" lon="5.98148">
        <ele>2280.6</ele>
        <time>2022-01-16T12:19:23Z</time>
      </trkpt>
      <trkpt lat="45.19719" lon="5.9815">
        <ele>2281.4</ele>
        <time>2022-01-16T12:19:26Z</time>
      </trkpt>
      <trkpt lat="45.1972" lon="5.98152">
        <ele>2281.8</ele>
        <time>2022-01-16T12:19:28Z</time>
      </trkpt>
      <trkpt lat="45.19722" lon="5.98158">
        <ele>2282.8</ele>
        <time>2022-01-16T12:19:34Z</time>
      </trkpt>
      <trkpt lat="45.19721" lon="5.98159">
        <ele>2283.4</ele>
        <time>2022-01-16T12:19:35Z</time>
      </trkpt>
      <trkpt lat="45.19721" lon="5.9816">
        <ele>2284</ele>
        <time>2022-01-16T12:19:38Z</time>
      </trkpt>
      <trkpt lat="45.19722" lon="5.98165">
        <ele>2284.8</ele>
        <time>2022-01-16T12:19:42Z</time>
      </trkpt>
      <trkpt lat="45.19723" lon="5.98166">
        <ele>2285.4</ele>
        <time>2022-01-16T12:19:43Z</time>
      </trkpt>
      <trkpt lat="45.19724" lon="5.98172">
        <ele>2286.2</ele>
        <time>2022-01-16T12:19:49Z</time>
      </trkpt>
      <trkpt lat="45.19725" lon="5.98173">
        <ele>2286.8</ele>
        <time>2022-01-16T12:19:50Z</time>
      </trkpt>
      <trkpt lat="45.19723" lon="5.98175">
        <ele>2287.4</ele>
        <time>2022-01-16T12:19:53Z</time>
      </trkpt>
      <trkpt lat="45.1972" lon="5.98174">
        <ele>2287.6</ele>
        <time>2022-01-16T12:19:59Z</time>
      </trkpt>
      <trkpt lat="45.1972" lon="5.98175">
        <ele>2287.6</ele>
        <time>2022-01-16T12:20:00Z</time>
      </trkpt>
      <trkpt lat="45.1972" lon="5.98171">
        <ele>2288.4</ele>
        <time>2022-01-16T12:20:05Z</time>
      </trkpt>
      <trkpt lat="45.19721" lon="5.98169">
        <ele>2288.6</ele>
        <time>2022-01-16T12:20:07Z</time>
      </trkpt>
      <trkpt lat="45.19722" lon="5.98168">
        <ele>2289</ele>
        <time>2022-01-16T12:20:09Z</time>
      </trkpt>
      <trkpt lat="45.19724" lon="5.9817">
        <ele>2289.6</ele>
        <time>2022-01-16T12:20:10Z</time>
      </trkpt>
      <trkpt lat="45.19727" lon="5.98167">
        <ele>2290</ele>
        <time>2022-01-16T12:20:14Z</time>
      </trkpt>
      <trkpt lat="45.19726" lon="5.98166">
        <ele>2290.8</ele>
        <time>2022-01-16T12:20:15Z</time>
      </trkpt>
      <trkpt lat="45.19727" lon="5.98164">
        <ele>2291</ele>
        <time>2022-01-16T12:20:16Z</time>
      </trkpt>
      <trkpt lat="45.1973" lon="5.98161">
        <ele>2292.4</ele>
        <time>2022-01-16T12:20:21Z</time>
      </trkpt>
      <trkpt lat="45.19734" lon="5.98157">
        <ele>2293.4</ele>
        <time>2022-01-16T12:20:27Z</time>
      </trkpt>
      <trkpt lat="45.19736" lon="5.9816">
        <ele>2294</ele>
        <time>2022-01-16T12:20:32Z</time>
      </trkpt>
      <trkpt lat="45.19735" lon="5.98161">
        <ele>2294.6</ele>
        <time>2022-01-16T12:20:33Z</time>
      </trkpt>
      <trkpt lat="45.19735" lon="5.98163">
        <ele>2295</ele>
        <time>2022-01-16T12:20:35Z</time>
      </trkpt>
      <trkpt lat="45.19735" lon="5.98164">
        <ele>2295.2</ele>
        <time>2022-01-16T12:20:36Z</time>
      </trkpt>
      <trkpt lat="45.19735" lon="5.98165">
        <ele>2295.2</ele>
        <time>2022-01-16T12:20:37Z</time>
      </trkpt>
      <trkpt lat="45.19736" lon="5.98167">
        <ele>2296.2</ele>
        <time>2022-01-16T12:20:38Z</time>
      </trkpt>
      <trkpt lat="45.19737" lon="5.98172">
        <ele>2296.6</ele>
        <time>2022-01-16T12:20:41Z</time>
      </trkpt>
      <trkpt lat="45.1974" lon="5.98176">
        <ele>2297.2</ele>
        <time>2022-01-16T12:20:44Z</time>
      </trkpt>
      <trkpt lat="45.1974" lon="5.98177">
        <ele>2297.6</ele>
        <time>2022-01-16T12:20:45Z</time>
      </trkpt>
      <trkpt lat="45.1974" lon="5.98179">
        <ele>2298</ele>
        <time>2022-01-16T12:20:47Z</time>
      </trkpt>
      <trkpt lat="45.19739" lon="5.9818">
        <ele>2298.6</ele>
        <time>2022-01-16T12:20:49Z</time>
      </trkpt>
      <trkpt lat="45.19739" lon="5.98183">
        <ele>2299.8</ele>
        <time>2022-01-16T12:20:52Z</time>
      </trkpt>
      <trkpt lat="45.19739" lon="5.98187">
        <ele>2300.8</ele>
        <time>2022-01-16T12:20:57Z</time>
      </trkpt>
      <trkpt lat="45.19739" lon="5.98187">
        <ele>2300.8</ele>
        <time>2022-01-16T12:20:58Z</time>
      </trkpt>
      <trkpt lat="45.19739" lon="5.98186">
        <ele>2301</ele>
        <time>2022-01-16T12:20:59Z</time>
      </trkpt>
      <trkpt lat="45.19739" lon="5.98183">
        <ele>2302.4</ele>
        <time>2022-01-16T12:21:03Z</time>
      </trkpt>
      <trkpt lat="45.1974" lon="5.98179">
        <ele>2302.6</ele>
        <time>2022-01-16T12:21:06Z</time>
      </trkpt>
      <trkpt lat="45.19743" lon="5.98175">
        <ele>2303.6</ele>
        <time>2022-01-16T12:21:10Z</time>
      </trkpt>
      <trkpt lat="45.19744" lon="5.98173">
        <ele>2304.4</ele>
        <time>2022-01-16T12:21:13Z</time>
      </trkpt>
      <trkpt lat="45.19744" lon="5.98172">
        <ele>2304.4</ele>
        <time>2022-01-16T12:21:14Z</time>
      </trkpt>
      <trkpt lat="45.19745" lon="5.98171">
        <ele>2304.8</ele>
        <time>2022-01-16T12:21:15Z</time>
      </trkpt>
      <trkpt lat="45.19747" lon="5.98167">
        <ele>2306</ele>
        <time>2022-01-16T12:21:19Z</time>
      </trkpt>
      <trkpt lat="45.19749" lon="5.98164">
        <ele>2306.4</ele>
        <time>2022-01-16T12:21:22Z</time>
      </trkpt>
      <trkpt lat="45.1975" lon="5.98162">
        <ele>2307.2</ele>
        <time>2022-01-16T12:21:25Z</time>
      </trkpt>
      <trkpt lat="45.19751" lon="5.98161">
        <ele>2307.8</ele>
        <time>2022-01-16T12:21:28Z</time>
      </trkpt>
      <trkpt lat="45.1975" lon="5.9816">
        <ele>2307.8</ele>
        <time>2022-01-16T12:21:30Z</time>
      </trkpt>
      <trkpt lat="45.19753" lon="5.98166">
        <ele>2308</ele>
        <time>2022-01-16T12:21:36Z</time>
      </trkpt>
      <trkpt lat="45.19753" lon="5.98166">
        <ele>2308.4</ele>
        <time>2022-01-16T12:21:37Z</time>
      </trkpt>
      <trkpt lat="45.19753" lon="5.98167">
        <ele>2309</ele>
        <time>2022-01-16T12:21:38Z</time>
      </trkpt>
      <trkpt lat="45.19753" lon="5.9817">
        <ele>2309.4</ele>
        <time>2022-01-16T12:21:40Z</time>
      </trkpt>
      <trkpt lat="45.19753" lon="5.98174">
        <ele>2310</ele>
        <time>2022-01-16T12:21:43Z</time>
      </trkpt>
      <trkpt lat="45.19754" lon="5.98176">
        <ele>2310.6</ele>
        <time>2022-01-16T12:21:44Z</time>
      </trkpt>
      <trkpt lat="45.19754" lon="5.98177">
        <ele>2310.6</ele>
        <time>2022-01-16T12:21:45Z</time>
      </trkpt>
      <trkpt lat="45.19752" lon="5.98178">
        <ele>2311.2</ele>
        <time>2022-01-16T12:21:48Z</time>
      </trkpt>
      <trkpt lat="45.19752" lon="5.98179">
        <ele>2311.8</ele>
        <time>2022-01-16T12:21:49Z</time>
      </trkpt>
      <trkpt lat="45.19753" lon="5.98182">
        <ele>2312.2</ele>
        <time>2022-01-16T12:21:52Z</time>
      </trkpt>
      <trkpt lat="45.19753" lon="5.98184">
        <ele>2312.8</ele>
        <time>2022-01-16T12:21:54Z</time>
      </trkpt>
      <trkpt lat="45.19753" lon="5.98187">
        <ele>2313.6</ele>
        <time>2022-01-16T12:21:57Z</time>
      </trkpt>
      <trkpt lat="45.19753" lon="5.98187">
        <ele>2314</ele>
        <time>2022-01-16T12:22:00Z</time>
      </trkpt>
      <trkpt lat="45.19754" lon="5.98186">
        <ele>2314.4</ele>
        <time>2022-01-16T12:22:03Z</time>
      </trkpt>
      <trkpt lat="45.19755" lon="5.98184">
        <ele>2315</ele>
        <time>2022-01-16T12:22:05Z</time>
      </trkpt>
      <trkpt lat="45.19758" lon="5.9818">
        <ele>2316.2</ele>
        <time>2022-01-16T12:22:09Z</time>
      </trkpt>
      <trkpt lat="45.19758" lon="5.98179">
        <ele>2316.2</ele>
        <time>2022-01-16T12:22:10Z</time>
      </trkpt>
      <trkpt lat="45.19759" lon="5.98179">
        <ele>2316.4</ele>
        <time>2022-01-16T12:22:11Z</time>
      </trkpt>
      <trkpt lat="45.19762" lon="5.98174">
        <ele>2317.4</ele>
        <time>2022-01-16T12:22:15Z</time>
      </trkpt>
      <trkpt lat="45.19762" lon="5.98173">
        <ele>2317.4</ele>
        <time>2022-01-16T12:22:16Z</time>
      </trkpt>
      <trkpt lat="45.19766" lon="5.98169">
        <ele>2318.8</ele>
        <time>2022-01-16T12:22:22Z</time>
      </trkpt>
      <trkpt lat="45.19769" lon="5.98167">
        <ele>2320.2</ele>
        <time>2022-01-16T12:22:27Z</time>
      </trkpt>
      <trkpt lat="45.1977" lon="5.98167">
        <ele>2320.4</ele>
        <time>2022-01-16T12:22:28Z</time>
      </trkpt>
      <trkpt lat="45.19772" lon="5.98168">
        <ele>2321</ele>
        <time>2022-01-16T12:22:33Z</time>
      </trkpt>
      <trkpt lat="45.19773" lon="5.9817">
        <ele>2321.2</ele>
        <time>2022-01-16T12:22:36Z</time>
      </trkpt>
      <trkpt lat="45.19773" lon="5.98173">
        <ele>2322.6</ele>
        <time>2022-01-16T12:22:40Z</time>
      </trkpt>
      <trkpt lat="45.19774" lon="5.98173">
        <ele>2322.6</ele>
        <time>2022-01-16T12:22:41Z</time>
      </trkpt>
      <trkpt lat="45.19774" lon="5.98174">
        <ele>2323.6</ele>
        <time>2022-01-16T12:22:45Z</time>
      </trkpt>
      <trkpt lat="45.19774" lon="5.98174">
        <ele>2323.6</ele>
        <time>2022-01-16T12:22:46Z</time>
      </trkpt>
      <trkpt lat="45.19775" lon="5.98168">
        <ele>2325.2</ele>
        <time>2022-01-16T12:22:51Z</time>
      </trkpt>
      <trkpt lat="45.19776" lon="5.98166">
        <ele>2326</ele>
        <time>2022-01-16T12:22:54Z</time>
      </trkpt>
      <trkpt lat="45.19777" lon="5.98165">
        <ele>2326.4</ele>
        <time>2022-01-16T12:22:55Z</time>
      </trkpt>
      <trkpt lat="45.19778" lon="5.98168">
        <ele>2326.4</ele>
        <time>2022-01-16T12:23:00Z</time>
      </trkpt>
      <trkpt lat="45.1978" lon="5.98175">
        <ele>2327.8</ele>
        <time>2022-01-16T12:23:06Z</time>
      </trkpt>
      <trkpt lat="45.19779" lon="5.98173">
        <ele>2329.2</ele>
        <time>2022-01-16T12:23:10Z</time>
      </trkpt>
      <trkpt lat="45.19779" lon="5.98175">
        <ele>2329.4</ele>
        <time>2022-01-16T12:23:12Z</time>
      </trkpt>
      <trkpt lat="45.19779" lon="5.98175">
        <ele>2329.2</ele>
        <time>2022-01-16T12:23:18Z</time>
      </trkpt>
      <trkpt lat="45.19779" lon="5.98175">
        <ele>2330.4</ele>
        <time>2022-01-16T12:23:22Z</time>
      </trkpt>
      <trkpt lat="45.19782" lon="5.98171">
        <ele>2330.8</ele>
        <time>2022-01-16T12:23:26Z</time>
      </trkpt>
      <trkpt lat="45.19782" lon="5.98171">
        <ele>2331.6</ele>
        <time>2022-01-16T12:23:27Z</time>
      </trkpt>
      <trkpt lat="45.19784" lon="5.9817">
        <ele>2331.6</ele>
        <time>2022-01-16T12:23:28Z</time>
      </trkpt>
      <trkpt lat="45.19786" lon="5.98167">
        <ele>2332.6</ele>
        <time>2022-01-16T12:23:31Z</time>
      </trkpt>
      <trkpt lat="45.19787" lon="5.98167">
        <ele>2333</ele>
        <time>2022-01-16T12:23:34Z</time>
      </trkpt>
      <trkpt lat="45.19789" lon="5.98173">
        <ele>2333.6</ele>
        <time>2022-01-16T12:23:39Z</time>
      </trkpt>
      <trkpt lat="45.19789" lon="5.98174">
        <ele>2334</ele>
        <time>2022-01-16T12:23:40Z</time>
      </trkpt>
      <trkpt lat="45.19789" lon="5.98176">
        <ele>2334.4</ele>
        <time>2022-01-16T12:23:43Z</time>
      </trkpt>
      <trkpt lat="45.19789" lon="5.98176">
        <ele>2334.8</ele>
        <time>2022-01-16T12:23:44Z</time>
      </trkpt>
      <trkpt lat="45.1979" lon="5.98177">
        <ele>2334.8</ele>
        <time>2022-01-16T12:23:45Z</time>
      </trkpt>
      <trkpt lat="45.1979" lon="5.98178">
        <ele>2336.2</ele>
        <time>2022-01-16T12:23:47Z</time>
      </trkpt>
      <trkpt lat="45.19789" lon="5.98177">
        <ele>2336.6</ele>
        <time>2022-01-16T12:23:51Z</time>
      </trkpt>
      <trkpt lat="45.19791" lon="5.98175">
        <ele>2337</ele>
        <time>2022-01-16T12:23:57Z</time>
      </trkpt>
      <trkpt lat="45.19791" lon="5.98174">
        <ele>2337.6</ele>
        <time>2022-01-16T12:23:58Z</time>
      </trkpt>
      <trkpt lat="45.19794" lon="5.9817">
        <ele>2339</ele>
        <time>2022-01-16T12:24:03Z</time>
      </trkpt>
      <trkpt lat="45.19795" lon="5.98168">
        <ele>2339.6</ele>
        <time>2022-01-16T12:24:05Z</time>
      </trkpt>
      <trkpt lat="45.19796" lon="5.98172">
        <ele>2339.8</ele>
        <time>2022-01-16T12:24:10Z</time>
      </trkpt>
      <trkpt lat="45.19796" lon="5.98172">
        <ele>2340</ele>
        <time>2022-01-16T12:24:11Z</time>
      </trkpt>
      <trkpt lat="45.19796" lon="5.98172">
        <ele>2341.2</ele>
        <time>2022-01-16T12:24:12Z</time>
      </trkpt>
      <trkpt lat="45.19796" lon="5.98175">
        <ele>2342.6</ele>
        <time>2022-01-16T12:24:17Z</time>
      </trkpt>
      <trkpt lat="45.19796" lon="5.98178">
        <ele>2343.6</ele>
        <time>2022-01-16T12:24:20Z</time>
      </trkpt>
      <trkpt lat="45.19797" lon="5.98179">
        <ele>2344.4</ele>
        <time>2022-01-16T12:24:24Z</time>
      </trkpt>
      <trkpt lat="45.19797" lon="5.98179">
        <ele>2344.6</ele>
        <time>2022-01-16T12:24:28Z</time>
      </trkpt>
      <trkpt lat="45.19797" lon="5.98181">
        <ele>2344.8</ele>
        <time>2022-01-16T12:24:31Z</time>
      </trkpt>
      <trkpt lat="45.19797" lon="5.98181">
        <ele>2344.6</ele>
        <time>2022-01-16T12:24:37Z</time>
      </trkpt>
      <trkpt lat="45.19799" lon="5.98181">
        <ele>2346</ele>
        <time>2022-01-16T12:24:41Z</time>
      </trkpt>
      <trkpt lat="45.19801" lon="5.98177">
        <ele>2347</ele>
        <time>2022-01-16T12:24:44Z</time>
      </trkpt>
      <trkpt lat="45.19804" lon="5.98175">
        <ele>2347</ele>
        <time>2022-01-16T12:24:46Z</time>
      </trkpt>
      <trkpt lat="45.19805" lon="5.98175">
        <ele>2347.4</ele>
        <time>2022-01-16T12:24:49Z</time>
      </trkpt>
      <trkpt lat="45.19807" lon="5.9818">
        <ele>2348.2</ele>
        <time>2022-01-16T12:24:55Z</time>
      </trkpt>
      <trkpt lat="45.19807" lon="5.98181">
        <ele>2348.2</ele>
        <time>2022-01-16T12:24:56Z</time>
      </trkpt>
      <trkpt lat="45.1981" lon="5.98186">
        <ele>2349.4</ele>
        <time>2022-01-16T12:25:01Z</time>
      </trkpt>
      <trkpt lat="45.1981" lon="5.98187">
        <ele>2350.8</ele>
        <time>2022-01-16T12:25:04Z</time>
      </trkpt>
      <trkpt lat="45.19811" lon="5.98186">
        <ele>2351</ele>
        <time>2022-01-16T12:25:05Z</time>
      </trkpt>
      <trkpt lat="45.19811" lon="5.98184">
        <ele>2351.8</ele>
        <time>2022-01-16T12:25:07Z</time>
      </trkpt>
      <trkpt lat="45.19813" lon="5.98181">
        <ele>2353</ele>
        <time>2022-01-16T12:25:10Z</time>
      </trkpt>
      <trkpt lat="45.19814" lon="5.9818">
        <ele>2353</ele>
        <time>2022-01-16T12:25:12Z</time>
      </trkpt>
      <trkpt lat="45.19814" lon="5.98179">
        <ele>2353</ele>
        <time>2022-01-16T12:25:16Z</time>
      </trkpt>
      <trkpt lat="45.19816" lon="5.98178">
        <ele>2352.6</ele>
        <time>2022-01-16T12:25:21Z</time>
      </trkpt>
      <trkpt lat="45.19816" lon="5.98182">
        <ele>2353.8</ele>
        <time>2022-01-16T12:25:27Z</time>
      </trkpt>
      <trkpt lat="45.19816" lon="5.98183">
        <ele>2354.2</ele>
        <time>2022-01-16T12:25:28Z</time>
      </trkpt>
      <trkpt lat="45.19816" lon="5.98185">
        <ele>2354.6</ele>
        <time>2022-01-16T12:25:29Z</time>
      </trkpt>
      <trkpt lat="45.19816" lon="5.98185">
        <ele>2355.4</ele>
        <time>2022-01-16T12:25:32Z</time>
      </trkpt>
      <trkpt lat="45.19817" lon="5.98183">
        <ele>2356.2</ele>
        <time>2022-01-16T12:25:36Z</time>
      </trkpt>
      <trkpt lat="45.19817" lon="5.98182">
        <ele>2356.4</ele>
        <time>2022-01-16T12:25:38Z</time>
      </trkpt>
      <trkpt lat="45.19819" lon="5.9818">
        <ele>2357.6</ele>
        <time>2022-01-16T12:25:41Z</time>
      </trkpt>
      <trkpt lat="45.1982" lon="5.9818">
        <ele>2358.2</ele>
        <time>2022-01-16T12:25:43Z</time>
      </trkpt>
      <trkpt lat="45.1982" lon="5.9818">
        <ele>2358.4</ele>
        <time>2022-01-16T12:25:45Z</time>
      </trkpt>
      <trkpt lat="45.1982" lon="5.9818">
        <ele>2357.8</ele>
        <time>2022-01-16T12:25:51Z</time>
      </trkpt>
      <trkpt lat="45.1982" lon="5.98181">
        <ele>2358</ele>
        <time>2022-01-16T12:25:57Z</time>
      </trkpt>
      <trkpt lat="45.1982" lon="5.98182">
        <ele>2358</ele>
        <time>2022-01-16T12:26:03Z</time>
      </trkpt>
      <trkpt lat="45.19819" lon="5.98182">
        <ele>2358.8</ele>
        <time>2022-01-16T12:26:07Z</time>
      </trkpt>
      <trkpt lat="45.19819" lon="5.98182">
        <ele>2359.8</ele>
        <time>2022-01-16T12:26:13Z</time>
      </trkpt>
      <trkpt lat="45.19819" lon="5.98182">
        <ele>2360.2</ele>
        <time>2022-01-16T12:26:14Z</time>
      </trkpt>
      <trkpt lat="45.19823" lon="5.98183">
        <ele>2361.2</ele>
        <time>2022-01-16T12:26:20Z</time>
      </trkpt>
      <trkpt lat="45.19823" lon="5.98183">
        <ele>2361.6</ele>
        <time>2022-01-16T12:26:21Z</time>
      </trkpt>
      <trkpt lat="45.19823" lon="5.98183">
        <ele>2361.6</ele>
        <time>2022-01-16T12:26:22Z</time>
      </trkpt>
      <trkpt lat="45.19825" lon="5.98188">
        <ele>2362.6</ele>
        <time>2022-01-16T12:26:28Z</time>
      </trkpt>
      <trkpt lat="45.19825" lon="5.98189">
        <ele>2363.8</ele>
        <time>2022-01-16T12:26:32Z</time>
      </trkpt>
      <trkpt lat="45.19825" lon="5.98189">
        <ele>2363.8</ele>
        <time>2022-01-16T12:26:33Z</time>
      </trkpt>
      <trkpt lat="45.19825" lon="5.98189">
        <ele>2364.6</ele>
        <time>2022-01-16T12:26:39Z</time>
      </trkpt>
      <trkpt lat="45.19825" lon="5.98189">
        <ele>2364.8</ele>
        <time>2022-01-16T12:26:42Z</time>
      </trkpt>
      <trkpt lat="45.19825" lon="5.98188">
        <ele>2364.8</ele>
        <time>2022-01-16T12:26:48Z</time>
      </trkpt>
      <trkpt lat="45.19826" lon="5.98188">
        <ele>2364.8</ele>
        <time>2022-01-16T12:26:54Z</time>
      </trkpt>
      <trkpt lat="45.19826" lon="5.98188">
        <ele>2364.6</ele>
        <time>2022-01-16T12:26:57Z</time>
      </trkpt>
      <trkpt lat="45.19826" lon="5.98189">
        <ele>2365</ele>
        <time>2022-01-16T12:27:02Z</time>
      </trkpt>
      <trkpt lat="45.19826" lon="5.98189">
        <ele>2365</ele>
        <time>2022-01-16T12:27:04Z</time>
      </trkpt>
      <trkpt lat="45.19826" lon="5.98189">
        <ele>2365.4</ele>
        <time>2022-01-16T12:27:10Z</time>
      </trkpt>
      <trkpt lat="45.19826" lon="5.98189">
        <ele>2365.8</ele>
        <time>2022-01-16T12:27:11Z</time>
      </trkpt>
      <trkpt lat="45.19827" lon="5.98188">
        <ele>2366.6</ele>
        <time>2022-01-16T12:27:16Z</time>
      </trkpt>
      <trkpt lat="45.19827" lon="5.98188">
        <ele>2367</ele>
        <time>2022-01-16T12:27:17Z</time>
      </trkpt>
      <trkpt lat="45.19829" lon="5.98181">
        <ele>2367.8</ele>
        <time>2022-01-16T12:27:21Z</time>
      </trkpt>
      <trkpt lat="45.19829" lon="5.98178">
        <ele>2368</ele>
        <time>2022-01-16T12:27:23Z</time>
      </trkpt>
      <trkpt lat="45.1983" lon="5.98175">
        <ele>2368.4</ele>
        <time>2022-01-16T12:27:26Z</time>
      </trkpt>
      <trkpt lat="45.19832" lon="5.98178">
        <ele>2368.6</ele>
        <time>2022-01-16T12:27:32Z</time>
      </trkpt>
      <trkpt lat="45.19834" lon="5.98181">
        <ele>2369</ele>
        <time>2022-01-16T12:27:35Z</time>
      </trkpt>
      <trkpt lat="45.19834" lon="5.98181">
        <ele>2369.4</ele>
        <time>2022-01-16T12:27:36Z</time>
      </trkpt>
      <trkpt lat="45.19836" lon="5.98184">
        <ele>2369.6</ele>
        <time>2022-01-16T12:27:38Z</time>
      </trkpt>
      <trkpt lat="45.19838" lon="5.98185">
        <ele>2370.4</ele>
        <time>2022-01-16T12:27:40Z</time>
      </trkpt>
      <trkpt lat="45.1984" lon="5.98187">
        <ele>2371</ele>
        <time>2022-01-16T12:27:42Z</time>
      </trkpt>
      <trkpt lat="45.19841" lon="5.9819">
        <ele>2371.4</ele>
        <time>2022-01-16T12:27:46Z</time>
      </trkpt>
      <trkpt lat="45.19841" lon="5.9819">
        <ele>2372</ele>
        <time>2022-01-16T12:27:52Z</time>
      </trkpt>
      <trkpt lat="45.19841" lon="5.98189">
        <ele>2372</ele>
        <time>2022-01-16T12:27:53Z</time>
      </trkpt>
      <trkpt lat="45.1984" lon="5.98188">
        <ele>2372</ele>
        <time>2022-01-16T12:27:59Z</time>
      </trkpt>
      <trkpt lat="45.19839" lon="5.98189">
        <ele>2372</ele>
        <time>2022-01-16T12:28:04Z</time>
      </trkpt>
      <trkpt lat="45.19839" lon="5.98189">
        <ele>2372.2</ele>
        <time>2022-01-16T12:28:10Z</time>
      </trkpt>
      <trkpt lat="45.19839" lon="5.98189">
        <ele>2372.2</ele>
        <time>2022-01-16T12:28:13Z</time>
      </trkpt>
      <trkpt lat="45.19839" lon="5.98189">
        <ele>2372.6</ele>
        <time>2022-01-16T12:28:15Z</time>
      </trkpt>
      <trkpt lat="45.19839" lon="5.98189">
        <ele>2372.4</ele>
        <time>2022-01-16T12:28:18Z</time>
      </trkpt>
      <trkpt lat="45.19839" lon="5.98189">
        <ele>2372.4</ele>
        <time>2022-01-16T12:28:19Z</time>
      </trkpt>
      <trkpt lat="45.19838" lon="5.98189">
        <ele>2372.4</ele>
        <time>2022-01-16T12:28:23Z</time>
      </trkpt>
      <trkpt lat="45.19836" lon="5.98189">
        <ele>2372.4</ele>
        <time>2022-01-16T12:28:27Z</time>
      </trkpt>
      <trkpt lat="45.19836" lon="5.98189">
        <ele>2372.4</ele>
        <time>2022-01-16T12:28:33Z</time>
      </trkpt>
      <trkpt lat="45.19836" lon="5.98189">
        <ele>2372.4</ele>
        <time>2022-01-16T12:28:36Z</time>
      </trkpt>
      <trkpt lat="45.19836" lon="5.98189">
        <ele>2372.4</ele>
        <time>2022-01-16T12:28:38Z</time>
      </trkpt>
      <trkpt lat="45.19836" lon="5.98186">
        <ele>2373</ele>
        <time>2022-01-16T12:28:44Z</time>
      </trkpt>
      <trkpt lat="45.19836" lon="5.98186">
        <ele>2373</ele>
        <time>2022-01-16T12:28:45Z</time>
      </trkpt>
      <trkpt lat="45.19837" lon="5.98186">
        <ele>2373</ele>
        <time>2022-01-16T12:28:48Z</time>
      </trkpt>
      <trkpt lat="45.19837" lon="5.98188">
        <ele>2372.8</ele>
        <time>2022-01-16T12:28:52Z</time>
      </trkpt>
      <trkpt lat="45.19837" lon="5.98187">
        <ele>2372.8</ele>
        <time>2022-01-16T12:28:58Z</time>
      </trkpt>
      <trkpt lat="45.19836" lon="5.98187">
        <ele>2372.6</ele>
        <time>2022-01-16T12:29:03Z</time>
      </trkpt>
      <trkpt lat="45.19836" lon="5.98187">
        <ele>2372.4</ele>
        <time>2022-01-16T12:29:05Z</time>
      </trkpt>
      <trkpt lat="45.19836" lon="5.98187">
        <ele>2372.2</ele>
        <time>2022-01-16T12:29:11Z</time>
      </trkpt>
      <trkpt lat="45.19836" lon="5.98187">
        <ele>2372.6</ele>
        <time>2022-01-16T12:29:17Z</time>
      </trkpt>
      <trkpt lat="45.19836" lon="5.98187">
        <ele>2373.2</ele>
        <time>2022-01-16T12:29:19Z</time>
      </trkpt>
      <trkpt lat="45.19836" lon="5.98188">
        <ele>2373.2</ele>
        <time>2022-01-16T12:29:22Z</time>
      </trkpt>
      <trkpt lat="45.19836" lon="5.98188">
        <ele>2373.4</ele>
        <time>2022-01-16T12:29:28Z</time>
      </trkpt>
      <trkpt lat="45.19836" lon="5.98189">
        <ele>2372.8</ele>
        <time>2022-01-16T12:29:34Z</time>
      </trkpt>
      <trkpt lat="45.19836" lon="5.98189">
        <ele>2373.4</ele>
        <time>2022-01-16T12:29:40Z</time>
      </trkpt>
      <trkpt lat="45.19836" lon="5.9819">
        <ele>2374.2</ele>
        <time>2022-01-16T12:29:45Z</time>
      </trkpt>
      <trkpt lat="45.19837" lon="5.9819">
        <ele>2375.4</ele>
        <time>2022-01-16T12:29:50Z</time>
      </trkpt>
      <trkpt lat="45.19837" lon="5.9819">
        <ele>2375.8</ele>
        <time>2022-01-16T12:29:56Z</time>
      </trkpt>
      <trkpt lat="45.19838" lon="5.98189">
        <ele>2375.8</ele>
        <time>2022-01-16T12:30:01Z</time>
      </trkpt>
      <trkpt lat="45.19838" lon="5.98189">
        <ele>2375.8</ele>
        <time>2022-01-16T12:30:07Z</time>
      </trkpt>
      <trkpt lat="45.19839" lon="5.98189">
        <ele>2376.2</ele>
        <time>2022-01-16T12:30:13Z</time>
      </trkpt>
      <trkpt lat="45.19839" lon="5.98189">
        <ele>2376.6</ele>
        <time>2022-01-16T12:30:14Z</time>
      </trkpt>
      <trkpt lat="45.19839" lon="5.98189">
        <ele>2377.2</ele>
        <time>2022-01-16T12:30:20Z</time>
      </trkpt>
      <trkpt lat="45.19839" lon="5.9819">
        <ele>2377.6</ele>
        <time>2022-01-16T12:30:23Z</time>
      </trkpt>
      <trkpt lat="45.19841" lon="5.9819">
        <ele>2378</ele>
        <time>2022-01-16T12:30:29Z</time>
      </trkpt>
      <trkpt lat="45.19842" lon="5.9819">
        <ele>2378.4</ele>
        <time>2022-01-16T12:30:35Z</time>
      </trkpt>
      <trkpt lat="45.19842" lon="5.9819">
        <ele>2378.8</ele>
        <time>2022-01-16T12:30:39Z</time>
      </trkpt>
      <trkpt lat="45.19842" lon="5.98189">
        <ele>2380.2</ele>
        <time>2022-01-16T12:30:44Z</time>
      </trkpt>
      <trkpt lat="45.19843" lon="5.98189">
        <ele>2380.8</ele>
        <time>2022-01-16T12:30:50Z</time>
      </trkpt>
      <trkpt lat="45.19844" lon="5.98189">
        <ele>2381.6</ele>
        <time>2022-01-16T12:30:54Z</time>
      </trkpt>
      <trkpt lat="45.19847" lon="5.9819">
        <ele>2382.2</ele>
        <time>2022-01-16T12:31:00Z</time>
      </trkpt>
      <trkpt lat="45.19848" lon="5.98189">
        <ele>2382.4</ele>
        <time>2022-01-16T12:31:01Z</time>
      </trkpt>
      <trkpt lat="45.1985" lon="5.98188">
        <ele>2382.4</ele>
        <time>2022-01-16T12:31:06Z</time>
      </trkpt>
      <trkpt lat="45.1985" lon="5.98188">
        <ele>2383</ele>
        <time>2022-01-16T12:31:09Z</time>
      </trkpt>
      <trkpt lat="45.1985" lon="5.98188">
        <ele>2383.8</ele>
        <time>2022-01-16T12:31:12Z</time>
      </trkpt>
      <trkpt lat="45.1985" lon="5.98187">
        <ele>2384</ele>
        <time>2022-01-16T12:31:14Z</time>
      </trkpt>
      <trkpt lat="45.1985" lon="5.98186">
        <ele>2384.4</ele>
        <time>2022-01-16T12:31:16Z</time>
      </trkpt>
      <trkpt lat="45.1985" lon="5.98186">
        <ele>2384.8</ele>
        <time>2022-01-16T12:31:22Z</time>
      </trkpt>
      <trkpt lat="45.1985" lon="5.98186">
        <ele>2385.2</ele>
        <time>2022-01-16T12:31:23Z</time>
      </trkpt>
      <trkpt lat="45.1985" lon="5.98186">
        <ele>2386.4</ele>
        <time>2022-01-16T12:31:29Z</time>
      </trkpt>
      <trkpt lat="45.19851" lon="5.98185">
        <ele>2387</ele>
        <time>2022-01-16T12:31:33Z</time>
      </trkpt>
      <trkpt lat="45.19851" lon="5.98185">
        <ele>2387.4</ele>
        <time>2022-01-16T12:31:35Z</time>
      </trkpt>
      <trkpt lat="45.19852" lon="5.98185">
        <ele>2387.6</ele>
        <time>2022-01-16T12:31:41Z</time>
      </trkpt>
      <trkpt lat="45.19853" lon="5.98185">
        <ele>2388.8</ele>
        <time>2022-01-16T12:31:46Z</time>
      </trkpt>
      <trkpt lat="45.19854" lon="5.98187">
        <ele>2389.4</ele>
        <time>2022-01-16T12:31:52Z</time>
      </trkpt>
      <trkpt lat="45.19855" lon="5.98188">
        <ele>2390.2</ele>
        <time>2022-01-16T12:31:54Z</time>
      </trkpt>
      <trkpt lat="45.19857" lon="5.98189">
        <ele>2391</ele>
        <time>2022-01-16T12:32:00Z</time>
      </trkpt>
      <trkpt lat="45.19857" lon="5.98189">
        <ele>2391.2</ele>
        <time>2022-01-16T12:32:01Z</time>
      </trkpt>
      <trkpt lat="45.19857" lon="5.98191">
        <ele>2392.4</ele>
        <time>2022-01-16T12:32:07Z</time>
      </trkpt>
      <trkpt lat="45.1986" lon="5.98194">
        <ele>2393.2</ele>
        <time>2022-01-16T12:32:13Z</time>
      </trkpt>
      <trkpt lat="45.1986" lon="5.98196">
        <ele>2393.2</ele>
        <time>2022-01-16T12:32:19Z</time>
      </trkpt>
      <trkpt lat="45.1986" lon="5.98196">
        <ele>2393.2</ele>
        <time>2022-01-16T12:32:20Z</time>
      </trkpt>
      <trkpt lat="45.19859" lon="5.98196">
        <ele>2393</ele>
        <time>2022-01-16T12:32:26Z</time>
      </trkpt>
      <trkpt lat="45.19859" lon="5.98197">
        <ele>2393</ele>
        <time>2022-01-16T12:32:27Z</time>
      </trkpt>
      <trkpt lat="45.19859" lon="5.98197">
        <ele>2393.4</ele>
        <time>2022-01-16T12:32:28Z</time>
      </trkpt>
      <trkpt lat="45.19864" lon="5.98199">
        <ele>2393.6</ele>
        <time>2022-01-16T12:32:34Z</time>
      </trkpt>
      <trkpt lat="45.19863" lon="5.98199">
        <ele>2394</ele>
        <time>2022-01-16T12:32:35Z</time>
      </trkpt>
      <trkpt lat="45.19863" lon="5.982">
        <ele>2394.2</ele>
        <time>2022-01-16T12:32:37Z</time>
      </trkpt>
      <trkpt lat="45.19864" lon="5.982">
        <ele>2394.6</ele>
        <time>2022-01-16T12:32:39Z</time>
      </trkpt>
      <trkpt lat="45.19865" lon="5.982">
        <ele>2395.4</ele>
        <time>2022-01-16T12:32:43Z</time>
      </trkpt>
      <trkpt lat="45.19864" lon="5.98199">
        <ele>2395.6</ele>
        <time>2022-01-16T12:32:44Z</time>
      </trkpt>
      <trkpt lat="45.19865" lon="5.98201">
        <ele>2396.2</ele>
        <time>2022-01-16T12:32:50Z</time>
      </trkpt>
      <trkpt lat="45.19866" lon="5.982">
        <ele>2396.4</ele>
        <time>2022-01-16T12:32:56Z</time>
      </trkpt>
      <trkpt lat="45.19866" lon="5.982">
        <ele>2396.4</ele>
        <time>2022-01-16T12:32:57Z</time>
      </trkpt>
      <trkpt lat="45.19866" lon="5.98199">
        <ele>2397.2</ele>
        <time>2022-01-16T12:33:00Z</time>
      </trkpt>
      <trkpt lat="45.19866" lon="5.98197">
        <ele>2397.8</ele>
        <time>2022-01-16T12:33:03Z</time>
      </trkpt>
      <trkpt lat="45.19866" lon="5.98196">
        <ele>2398.2</ele>
        <time>2022-01-16T12:33:04Z</time>
      </trkpt>
      <trkpt lat="45.19865" lon="5.98191">
        <ele>2399.2</ele>
        <time>2022-01-16T12:33:10Z</time>
      </trkpt>
      <trkpt lat="45.19866" lon="5.98191">
        <ele>2400</ele>
        <time>2022-01-16T12:33:12Z</time>
      </trkpt>
      <trkpt lat="45.19866" lon="5.98189">
        <ele>2401</ele>
        <time>2022-01-16T12:33:16Z</time>
      </trkpt>
      <trkpt lat="45.19866" lon="5.9819">
        <ele>2401.4</ele>
        <time>2022-01-16T12:33:17Z</time>
      </trkpt>
      <trkpt lat="45.19867" lon="5.98191">
        <ele>2402.2</ele>
        <time>2022-01-16T12:33:21Z</time>
      </trkpt>
      <trkpt lat="45.19868" lon="5.98191">
        <ele>2402.4</ele>
        <time>2022-01-16T12:33:23Z</time>
      </trkpt>
      <trkpt lat="45.1987" lon="5.98188">
        <ele>2403.8</ele>
        <time>2022-01-16T12:33:28Z</time>
      </trkpt>
      <trkpt lat="45.19869" lon="5.98187">
        <ele>2403.8</ele>
        <time>2022-01-16T12:33:29Z</time>
      </trkpt>
      <trkpt lat="45.1987" lon="5.98189">
        <ele>2404.2</ele>
        <time>2022-01-16T12:33:35Z</time>
      </trkpt>
      <trkpt lat="45.1987" lon="5.98189">
        <ele>2405.2</ele>
        <time>2022-01-16T12:33:39Z</time>
      </trkpt>
      <trkpt lat="45.1987" lon="5.98189">
        <ele>2405.4</ele>
        <time>2022-01-16T12:33:41Z</time>
      </trkpt>
      <trkpt lat="45.19873" lon="5.98193">
        <ele>2406.2</ele>
        <time>2022-01-16T12:33:46Z</time>
      </trkpt>
      <trkpt lat="45.19874" lon="5.98193">
        <ele>2406.4</ele>
        <time>2022-01-16T12:33:47Z</time>
      </trkpt>
      <trkpt lat="45.19875" lon="5.98193">
        <ele>2407</ele>
        <time>2022-01-16T12:33:53Z</time>
      </trkpt>
      <trkpt lat="45.19875" lon="5.98193">
        <ele>2407.4</ele>
        <time>2022-01-16T12:33:55Z</time>
      </trkpt>
      <trkpt lat="45.19877" lon="5.98197">
        <ele>2407.8</ele>
        <time>2022-01-16T12:33:59Z</time>
      </trkpt>
      <trkpt lat="45.19878" lon="5.98198">
        <ele>2408.6</ele>
        <time>2022-01-16T12:34:01Z</time>
      </trkpt>
      <trkpt lat="45.19878" lon="5.98201">
        <ele>2409.2</ele>
        <time>2022-01-16T12:34:06Z</time>
      </trkpt>
      <trkpt lat="45.1988" lon="5.98202">
        <ele>2409.6</ele>
        <time>2022-01-16T12:34:11Z</time>
      </trkpt>
      <trkpt lat="45.19879" lon="5.98202">
        <ele>2409.6</ele>
        <time>2022-01-16T12:34:12Z</time>
      </trkpt>
      <trkpt lat="45.19879" lon="5.98203">
        <ele>2410.8</ele>
        <time>2022-01-16T12:34:17Z</time>
      </trkpt>
      <trkpt lat="45.19878" lon="5.982">
        <ele>2411.4</ele>
        <time>2022-01-16T12:34:22Z</time>
      </trkpt>
      <trkpt lat="45.19879" lon="5.98201">
        <ele>2412</ele>
        <time>2022-01-16T12:34:24Z</time>
      </trkpt>
      <trkpt lat="45.19881" lon="5.982">
        <ele>2412.8</ele>
        <time>2022-01-16T12:34:29Z</time>
      </trkpt>
      <trkpt lat="45.19881" lon="5.982">
        <ele>2413.4</ele>
        <time>2022-01-16T12:34:30Z</time>
      </trkpt>
      <trkpt lat="45.19883" lon="5.98203">
        <ele>2413.8</ele>
        <time>2022-01-16T12:34:36Z</time>
      </trkpt>
      <trkpt lat="45.19884" lon="5.98204">
        <ele>2414</ele>
        <time>2022-01-16T12:34:38Z</time>
      </trkpt>
      <trkpt lat="45.19885" lon="5.98203">
        <ele>2415.2</ele>
        <time>2022-01-16T12:34:43Z</time>
      </trkpt>
      <trkpt lat="45.19885" lon="5.98203">
        <ele>2415.6</ele>
        <time>2022-01-16T12:34:44Z</time>
      </trkpt>
      <trkpt lat="45.19887" lon="5.98205">
        <ele>2416</ele>
        <time>2022-01-16T12:34:50Z</time>
      </trkpt>
      <trkpt lat="45.19887" lon="5.98205">
        <ele>2416</ele>
        <time>2022-01-16T12:34:51Z</time>
      </trkpt>
      <trkpt lat="45.19887" lon="5.98205">
        <ele>2416.6</ele>
        <time>2022-01-16T12:34:53Z</time>
      </trkpt>
      <trkpt lat="45.19886" lon="5.98203">
        <ele>2417.8</ele>
        <time>2022-01-16T12:34:58Z</time>
      </trkpt>
      <trkpt lat="45.19886" lon="5.98203">
        <ele>2417.8</ele>
        <time>2022-01-16T12:34:59Z</time>
      </trkpt>
      <trkpt lat="45.19887" lon="5.98203">
        <ele>2417.6</ele>
        <time>2022-01-16T12:35:05Z</time>
      </trkpt>
      <trkpt lat="45.19888" lon="5.98204">
        <ele>2417.8</ele>
        <time>2022-01-16T12:35:07Z</time>
      </trkpt>
      <trkpt lat="45.19889" lon="5.98205">
        <ele>2419</ele>
        <time>2022-01-16T12:35:12Z</time>
      </trkpt>
      <trkpt lat="45.19889" lon="5.98207">
        <ele>2419.2</ele>
        <time>2022-01-16T12:35:14Z</time>
      </trkpt>
      <trkpt lat="45.1989" lon="5.9821">
        <ele>2419.8</ele>
        <time>2022-01-16T12:35:19Z</time>
      </trkpt>
      <trkpt lat="45.19891" lon="5.9821">
        <ele>2420.2</ele>
        <time>2022-01-16T12:35:21Z</time>
      </trkpt>
      <trkpt lat="45.19891" lon="5.98211">
        <ele>2420.6</ele>
        <time>2022-01-16T12:35:24Z</time>
      </trkpt>
      <trkpt lat="45.19893" lon="5.9821">
        <ele>2421.6</ele>
        <time>2022-01-16T12:35:26Z</time>
      </trkpt>
      <trkpt lat="45.19894" lon="5.98211">
        <ele>2421.8</ele>
        <time>2022-01-16T12:35:29Z</time>
      </trkpt>
      <trkpt lat="45.19893" lon="5.98211">
        <ele>2422.4</ele>
        <time>2022-01-16T12:35:35Z</time>
      </trkpt>
      <trkpt lat="45.19893" lon="5.98211">
        <ele>2422.4</ele>
        <time>2022-01-16T12:35:36Z</time>
      </trkpt>
      <trkpt lat="45.19896" lon="5.98211">
        <ele>2422.8</ele>
        <time>2022-01-16T12:35:39Z</time>
      </trkpt>
      <trkpt lat="45.19896" lon="5.9821">
        <ele>2423.2</ele>
        <time>2022-01-16T12:35:41Z</time>
      </trkpt>
      <trkpt lat="45.19897" lon="5.9821">
        <ele>2424.2</ele>
        <time>2022-01-16T12:35:43Z</time>
      </trkpt>
      <trkpt lat="45.19897" lon="5.9821">
        <ele>2425.2</ele>
        <time>2022-01-16T12:35:49Z</time>
      </trkpt>
      <trkpt lat="45.19898" lon="5.98211">
        <ele>2425.4</ele>
        <time>2022-01-16T12:35:50Z</time>
      </trkpt>
      <trkpt lat="45.19899" lon="5.98211">
        <ele>2426.6</ele>
        <time>2022-01-16T12:35:55Z</time>
      </trkpt>
      <trkpt lat="45.19899" lon="5.9821">
        <ele>2427</ele>
        <time>2022-01-16T12:35:58Z</time>
      </trkpt>
      <trkpt lat="45.19899" lon="5.98208">
        <ele>2427.2</ele>
        <time>2022-01-16T12:36:04Z</time>
      </trkpt>
      <trkpt lat="45.199" lon="5.9821">
        <ele>2427.8</ele>
        <time>2022-01-16T12:36:06Z</time>
      </trkpt>
      <trkpt lat="45.19904" lon="5.98213">
        <ele>2429.2</ele>
        <time>2022-01-16T12:36:11Z</time>
      </trkpt>
      <trkpt lat="45.19904" lon="5.98214">
        <ele>2429.2</ele>
        <time>2022-01-16T12:36:12Z</time>
      </trkpt>
      <trkpt lat="45.19904" lon="5.98212">
        <ele>2430</ele>
        <time>2022-01-16T12:36:18Z</time>
      </trkpt>
      <trkpt lat="45.19905" lon="5.98214">
        <ele>2430.4</ele>
        <time>2022-01-16T12:36:20Z</time>
      </trkpt>
      <trkpt lat="45.19904" lon="5.98214">
        <ele>2430.6</ele>
        <time>2022-01-16T12:36:22Z</time>
      </trkpt>
      <trkpt lat="45.19904" lon="5.98214">
        <ele>2431.2</ele>
        <time>2022-01-16T12:36:28Z</time>
      </trkpt>
      <trkpt lat="45.19904" lon="5.98214">
        <ele>2431.2</ele>
        <time>2022-01-16T12:36:29Z</time>
      </trkpt>
      <trkpt lat="45.19906" lon="5.98214">
        <ele>2431.4</ele>
        <time>2022-01-16T12:36:33Z</time>
      </trkpt>
      <trkpt lat="45.19907" lon="5.98215">
        <ele>2432.2</ele>
        <time>2022-01-16T12:36:36Z</time>
      </trkpt>
      <trkpt lat="45.19907" lon="5.98215">
        <ele>2432.6</ele>
        <time>2022-01-16T12:36:37Z</time>
      </trkpt>
      <trkpt lat="45.19906" lon="5.98215">
        <ele>2433</ele>
        <time>2022-01-16T12:36:41Z</time>
      </trkpt>
      <trkpt lat="45.19907" lon="5.98215">
        <ele>2433.6</ele>
        <time>2022-01-16T12:36:45Z</time>
      </trkpt>
      <trkpt lat="45.19907" lon="5.98214">
        <ele>2434</ele>
        <time>2022-01-16T12:36:46Z</time>
      </trkpt>
      <trkpt lat="45.1991" lon="5.98219">
        <ele>2434.8</ele>
        <time>2022-01-16T12:36:51Z</time>
      </trkpt>
      <trkpt lat="45.19911" lon="5.98221">
        <ele>2435.2</ele>
        <time>2022-01-16T12:36:52Z</time>
      </trkpt>
      <trkpt lat="45.19913" lon="5.98221">
        <ele>2436</ele>
        <time>2022-01-16T12:36:58Z</time>
      </trkpt>
      <trkpt lat="45.19913" lon="5.98221">
        <ele>2436.4</ele>
        <time>2022-01-16T12:36:59Z</time>
      </trkpt>
      <trkpt lat="45.19915" lon="5.98224">
        <ele>2437.4</ele>
        <time>2022-01-16T12:37:04Z</time>
      </trkpt>
      <trkpt lat="45.19915" lon="5.98225">
        <ele>2438</ele>
        <time>2022-01-16T12:37:07Z</time>
      </trkpt>
      <trkpt lat="45.19914" lon="5.98225">
        <ele>2438.4</ele>
        <time>2022-01-16T12:37:11Z</time>
      </trkpt>
      <trkpt lat="45.19914" lon="5.98225">
        <ele>2438.6</ele>
        <time>2022-01-16T12:37:12Z</time>
      </trkpt>
      <trkpt lat="45.19915" lon="5.98225">
        <ele>2439.6</ele>
        <time>2022-01-16T12:37:15Z</time>
      </trkpt>
      <trkpt lat="45.19917" lon="5.98226">
        <ele>2440</ele>
        <time>2022-01-16T12:37:18Z</time>
      </trkpt>
      <trkpt lat="45.19917" lon="5.98225">
        <ele>2440.2</ele>
        <time>2022-01-16T12:37:22Z</time>
      </trkpt>
      <trkpt lat="45.19917" lon="5.98226">
        <ele>2440.2</ele>
        <time>2022-01-16T12:37:24Z</time>
      </trkpt>
      <trkpt lat="45.19917" lon="5.98226">
        <ele>2439.8</ele>
        <time>2022-01-16T12:37:30Z</time>
      </trkpt>
      <trkpt lat="45.19917" lon="5.98226">
        <ele>2439.8</ele>
        <time>2022-01-16T12:37:36Z</time>
      </trkpt>
      <trkpt lat="45.19917" lon="5.98226">
        <ele>2439.8</ele>
        <time>2022-01-16T12:37:38Z</time>
      </trkpt>
      <trkpt lat="45.19918" lon="5.98225">
        <ele>2440.6</ele>
        <time>2022-01-16T12:37:43Z</time>
      </trkpt>
      <trkpt lat="45.19919" lon="5.98224">
        <ele>2441.6</ele>
        <time>2022-01-16T12:37:46Z</time>
      </trkpt>
      <trkpt lat="45.1992" lon="5.98224">
        <ele>2441.8</ele>
        <time>2022-01-16T12:37:47Z</time>
      </trkpt>
      <trkpt lat="45.19921" lon="5.98222">
        <ele>2442.4</ele>
        <time>2022-01-16T12:37:51Z</time>
      </trkpt>
      <trkpt lat="45.19921" lon="5.98222">
        <ele>2443.2</ele>
        <time>2022-01-16T12:37:52Z</time>
      </trkpt>
      <trkpt lat="45.19921" lon="5.98221">
        <ele>2443.2</ele>
        <time>2022-01-16T12:37:56Z</time>
      </trkpt>
      <trkpt lat="45.19922" lon="5.98222">
        <ele>2443.6</ele>
        <time>2022-01-16T12:38:02Z</time>
      </trkpt>
      <trkpt lat="45.19923" lon="5.98222">
        <ele>2443.8</ele>
        <time>2022-01-16T12:38:03Z</time>
      </trkpt>
      <trkpt lat="45.19923" lon="5.98223">
        <ele>2444.2</ele>
        <time>2022-01-16T12:38:04Z</time>
      </trkpt>
      <trkpt lat="45.19925" lon="5.98226">
        <ele>2445</ele>
        <time>2022-01-16T12:38:10Z</time>
      </trkpt>
      <trkpt lat="45.19925" lon="5.98227">
        <ele>2445.2</ele>
        <time>2022-01-16T12:38:12Z</time>
      </trkpt>
      <trkpt lat="45.19926" lon="5.98228">
        <ele>2445.4</ele>
        <time>2022-01-16T12:38:13Z</time>
      </trkpt>
      <trkpt lat="45.19927" lon="5.98231">
        <ele>2446.2</ele>
        <time>2022-01-16T12:38:19Z</time>
      </trkpt>
      <trkpt lat="45.19927" lon="5.98231">
        <ele>2446.2</ele>
        <time>2022-01-16T12:38:20Z</time>
      </trkpt>
      <trkpt lat="45.19928" lon="5.9823">
        <ele>2446.2</ele>
        <time>2022-01-16T12:38:26Z</time>
      </trkpt>
      <trkpt lat="45.19927" lon="5.9823">
        <ele>2446.2</ele>
        <time>2022-01-16T12:38:27Z</time>
      </trkpt>
      <trkpt lat="45.19927" lon="5.98226">
        <ele>2446.4</ele>
        <time>2022-01-16T12:38:33Z</time>
      </trkpt>
      <trkpt lat="45.19927" lon="5.98227">
        <ele>2446.6</ele>
        <time>2022-01-16T12:38:34Z</time>
      </trkpt>
      <trkpt lat="45.19929" lon="5.98229">
        <ele>2447</ele>
        <time>2022-01-16T12:38:37Z</time>
      </trkpt>
      <trkpt lat="45.1993" lon="5.98229">
        <ele>2447.6</ele>
        <time>2022-01-16T12:38:39Z</time>
      </trkpt>
      <trkpt lat="45.1993" lon="5.9823">
        <ele>2448.4</ele>
        <time>2022-01-16T12:38:42Z</time>
      </trkpt>
      <trkpt lat="45.19931" lon="5.98231">
        <ele>2448.8</ele>
        <time>2022-01-16T12:38:44Z</time>
      </trkpt>
      <trkpt lat="45.19931" lon="5.9823">
        <ele>2449.8</ele>
        <time>2022-01-16T12:38:47Z</time>
      </trkpt>
      <trkpt lat="45.19931" lon="5.9823">
        <ele>2449.8</ele>
        <time>2022-01-16T12:38:48Z</time>
      </trkpt>
      <trkpt lat="45.1993" lon="5.98228">
        <ele>2450.4</ele>
        <time>2022-01-16T12:38:52Z</time>
      </trkpt>
      <trkpt lat="45.19932" lon="5.98228">
        <ele>2450.8</ele>
        <time>2022-01-16T12:38:58Z</time>
      </trkpt>
      <trkpt lat="45.19932" lon="5.98228">
        <ele>2451</ele>
        <time>2022-01-16T12:39:00Z</time>
      </trkpt>
      <trkpt lat="45.19934" lon="5.98229">
        <ele>2452.4</ele>
        <time>2022-01-16T12:39:06Z</time>
      </trkpt>
      <trkpt lat="45.19934" lon="5.9823">
        <ele>2452.4</ele>
        <time>2022-01-16T12:39:12Z</time>
      </trkpt>
      <trkpt lat="45.19934" lon="5.9823">
        <ele>2453.2</ele>
        <time>2022-01-16T12:39:18Z</time>
      </trkpt>
      <trkpt lat="45.19934" lon="5.9823">
        <ele>2453.8</ele>
        <time>2022-01-16T12:39:19Z</time>
      </trkpt>
      <trkpt lat="45.19934" lon="5.9823">
        <ele>2454.8</ele>
        <time>2022-01-16T12:39:24Z</time>
      </trkpt>
      <trkpt lat="45.19935" lon="5.9823">
        <ele>2455.8</ele>
        <time>2022-01-16T12:39:30Z</time>
      </trkpt>
      <trkpt lat="45.19935" lon="5.9823">
        <ele>2456.2</ele>
        <time>2022-01-16T12:39:31Z</time>
      </trkpt>
      <trkpt lat="45.19936" lon="5.9823">
        <ele>2457.4</ele>
        <time>2022-01-16T12:39:35Z</time>
      </trkpt>
      <trkpt lat="45.19937" lon="5.9823">
        <ele>2458.6</ele>
        <time>2022-01-16T12:39:39Z</time>
      </trkpt>
      <trkpt lat="45.19939" lon="5.9823">
        <ele>2459.6</ele>
        <time>2022-01-16T12:39:45Z</time>
      </trkpt>
      <trkpt lat="45.1994" lon="5.98231">
        <ele>2459.8</ele>
        <time>2022-01-16T12:39:47Z</time>
      </trkpt>
      <trkpt lat="45.19941" lon="5.98232">
        <ele>2461</ele>
        <time>2022-01-16T12:39:50Z</time>
      </trkpt>
      <trkpt lat="45.19942" lon="5.98232">
        <ele>2462.2</ele>
        <time>2022-01-16T12:39:53Z</time>
      </trkpt>
      <trkpt lat="45.19943" lon="5.98233">
        <ele>2463</ele>
        <time>2022-01-16T12:39:59Z</time>
      </trkpt>
      <trkpt lat="45.19944" lon="5.98233">
        <ele>2463.6</ele>
        <time>2022-01-16T12:40:03Z</time>
      </trkpt>
      <trkpt lat="45.19945" lon="5.98234">
        <ele>2464</ele>
        <time>2022-01-16T12:40:09Z</time>
      </trkpt>
      <trkpt lat="45.19945" lon="5.98234">
        <ele>2464.4</ele>
        <time>2022-01-16T12:40:15Z</time>
      </trkpt>
      <trkpt lat="45.19945" lon="5.98234">
        <ele>2464.6</ele>
        <time>2022-01-16T12:40:17Z</time>
      </trkpt>
      <trkpt lat="45.19945" lon="5.98236">
        <ele>2464.8</ele>
        <time>2022-01-16T12:40:23Z</time>
      </trkpt>
      <trkpt lat="45.19945" lon="5.98237">
        <ele>2465.6</ele>
        <time>2022-01-16T12:40:29Z</time>
      </trkpt>
      <trkpt lat="45.19945" lon="5.98238">
        <ele>2465.8</ele>
        <time>2022-01-16T12:40:30Z</time>
      </trkpt>
      <trkpt lat="45.19945" lon="5.98239">
        <ele>2466.4</ele>
        <time>2022-01-16T12:40:36Z</time>
      </trkpt>
      <trkpt lat="45.19945" lon="5.98239">
        <ele>2466.8</ele>
        <time>2022-01-16T12:40:39Z</time>
      </trkpt>
      <trkpt lat="45.19945" lon="5.98243">
        <ele>2467.4</ele>
        <time>2022-01-16T12:40:45Z</time>
      </trkpt>
      <trkpt lat="45.19945" lon="5.98247">
        <ele>2467.8</ele>
        <time>2022-01-16T12:40:51Z</time>
      </trkpt>
      <trkpt lat="45.19945" lon="5.9825">
        <ele>2467.8</ele>
        <time>2022-01-16T12:40:57Z</time>
      </trkpt>
      <trkpt lat="45.19945" lon="5.9825">
        <ele>2468</ele>
        <time>2022-01-16T12:40:58Z</time>
      </trkpt>
      <trkpt lat="45.19945" lon="5.9825">
        <ele>2468</ele>
        <time>2022-01-16T12:41:04Z</time>
      </trkpt>
      <trkpt lat="45.19944" lon="5.9825">
        <ele>2469</ele>
        <time>2022-01-16T12:41:09Z</time>
      </trkpt>
      <trkpt lat="45.19944" lon="5.9825">
        <ele>2469.6</ele>
        <time>2022-01-16T12:41:15Z</time>
      </trkpt>
      <trkpt lat="45.19945" lon="5.9825">
        <ele>2469.4</ele>
        <time>2022-01-16T12:41:21Z</time>
      </trkpt>
      <trkpt lat="45.19946" lon="5.9825">
        <ele>2469.4</ele>
        <time>2022-01-16T12:41:27Z</time>
      </trkpt>
      <trkpt lat="45.19947" lon="5.9825">
        <ele>2469</ele>
        <time>2022-01-16T12:41:33Z</time>
      </trkpt>
      <trkpt lat="45.19947" lon="5.9825">
        <ele>2469</ele>
        <time>2022-01-16T12:41:39Z</time>
      </trkpt>
      <trkpt lat="45.19947" lon="5.98249">
        <ele>2469.6</ele>
        <time>2022-01-16T12:41:45Z</time>
      </trkpt>
      <trkpt lat="45.1995" lon="5.98247">
        <ele>2470.4</ele>
        <time>2022-01-16T12:41:50Z</time>
      </trkpt>
      <trkpt lat="45.19951" lon="5.98247">
        <ele>2470.4</ele>
        <time>2022-01-16T12:41:51Z</time>
      </trkpt>
      <trkpt lat="45.19953" lon="5.98246">
        <ele>2470.2</ele>
        <time>2022-01-16T12:41:57Z</time>
      </trkpt>
      <trkpt lat="45.19952" lon="5.98245">
        <ele>2470.2</ele>
        <time>2022-01-16T12:41:59Z</time>
      </trkpt>
      <trkpt lat="45.19952" lon="5.98245">
        <ele>2470.2</ele>
        <time>2022-01-16T12:42:05Z</time>
      </trkpt>
      <trkpt lat="45.19954" lon="5.98243">
        <ele>2471.4</ele>
        <time>2022-01-16T12:42:10Z</time>
      </trkpt>
      <trkpt lat="45.19955" lon="5.98243">
        <ele>2471.4</ele>
        <time>2022-01-16T12:42:11Z</time>
      </trkpt>
      <trkpt lat="45.19957" lon="5.98241">
        <ele>2472.6</ele>
        <time>2022-01-16T12:42:13Z</time>
      </trkpt>
      <trkpt lat="45.19961" lon="5.98239">
        <ele>2473.2</ele>
        <time>2022-01-16T12:42:16Z</time>
      </trkpt>
      <trkpt lat="45.19965" lon="5.98238">
        <ele>2474.2</ele>
        <time>2022-01-16T12:42:20Z</time>
      </trkpt>
      <trkpt lat="45.19968" lon="5.98237">
        <ele>2474.6</ele>
        <time>2022-01-16T12:42:24Z</time>
      </trkpt>
      <trkpt lat="45.1997" lon="5.98236">
        <ele>2475.2</ele>
        <time>2022-01-16T12:42:27Z</time>
      </trkpt>
      <trkpt lat="45.19972" lon="5.98237">
        <ele>2475.8</ele>
        <time>2022-01-16T12:42:30Z</time>
      </trkpt>
      <trkpt lat="45.19974" lon="5.98238">
        <ele>2476.8</ele>
        <time>2022-01-16T12:42:33Z</time>
      </trkpt>
      <trkpt lat="45.19976" lon="5.9824">
        <ele>2477.2</ele>
        <time>2022-01-16T12:42:36Z</time>
      </trkpt>
      <trkpt lat="45.19978" lon="5.98241">
        <ele>2477.8</ele>
        <time>2022-01-16T12:42:39Z</time>
      </trkpt>
      <trkpt lat="45.19978" lon="5.9824">
        <ele>2478.2</ele>
        <time>2022-01-16T12:42:44Z</time>
      </trkpt>
      <trkpt lat="45.19979" lon="5.98241">
        <ele>2478.4</ele>
        <time>2022-01-16T12:42:48Z</time>
      </trkpt>
      <trkpt lat="45.19979" lon="5.98242">
        <ele>2478.6</ele>
        <time>2022-01-16T12:42:50Z</time>
      </trkpt>
      <trkpt lat="45.19979" lon="5.98242">
        <ele>2478.8</ele>
        <time>2022-01-16T12:42:53Z</time>
      </trkpt>
      <trkpt lat="45.19979" lon="5.98242">
        <ele>2479</ele>
        <time>2022-01-16T12:42:57Z</time>
      </trkpt>
      <trkpt lat="45.19976" lon="5.98238">
        <ele>2480</ele>
        <time>2022-01-16T12:43:02Z</time>
      </trkpt>
      <trkpt lat="45.19973" lon="5.98233">
        <ele>2480.6</ele>
        <time>2022-01-16T12:43:06Z</time>
      </trkpt>
      <trkpt lat="45.19971" lon="5.98229">
        <ele>2481.2</ele>
        <time>2022-01-16T12:43:09Z</time>
      </trkpt>
      <trkpt lat="45.1997" lon="5.98228">
        <ele>2481.4</ele>
        <time>2022-01-16T12:43:10Z</time>
      </trkpt>
      <trkpt lat="45.1997" lon="5.98227">
        <ele>2482.4</ele>
        <time>2022-01-16T12:43:12Z</time>
      </trkpt>
      <trkpt lat="45.19971" lon="5.98227">
        <ele>2482.4</ele>
        <time>2022-01-16T12:43:14Z</time>
      </trkpt>
      <trkpt lat="45.19974" lon="5.98227">
        <ele>2483</ele>
        <time>2022-01-16T12:43:20Z</time>
      </trkpt>
      <trkpt lat="45.19975" lon="5.98227">
        <ele>2483.4</ele>
        <time>2022-01-16T12:43:21Z</time>
      </trkpt>
      <trkpt lat="45.19976" lon="5.98227">
        <ele>2483.6</ele>
        <time>2022-01-16T12:43:22Z</time>
      </trkpt>
      <trkpt lat="45.19978" lon="5.98228">
        <ele>2484.4</ele>
        <time>2022-01-16T12:43:27Z</time>
      </trkpt>
      <trkpt lat="45.19978" lon="5.98228">
        <ele>2484.6</ele>
        <time>2022-01-16T12:43:28Z</time>
      </trkpt>
      <trkpt lat="45.19978" lon="5.98227">
        <ele>2485.6</ele>
        <time>2022-01-16T12:43:34Z</time>
      </trkpt>
      <trkpt lat="45.19978" lon="5.98227">
        <ele>2485.6</ele>
        <time>2022-01-16T12:43:35Z</time>
      </trkpt>
      <trkpt lat="45.19977" lon="5.98226">
        <ele>2486.8</ele>
        <time>2022-01-16T12:43:40Z</time>
      </trkpt>
      <trkpt lat="45.19972" lon="5.98217">
        <ele>2487.6</ele>
        <time>2022-01-16T12:43:45Z</time>
      </trkpt>
      <trkpt lat="45.19972" lon="5.98216">
        <ele>2487.8</ele>
        <time>2022-01-16T12:43:46Z</time>
      </trkpt>
      <trkpt lat="45.19968" lon="5.98209">
        <ele>2488</ele>
        <time>2022-01-16T12:43:50Z</time>
      </trkpt>
      <trkpt lat="45.19967" lon="5.98207">
        <ele>2488.8</ele>
        <time>2022-01-16T12:43:53Z</time>
      </trkpt>
      <trkpt lat="45.19967" lon="5.98206">
        <ele>2488.8</ele>
        <time>2022-01-16T12:43:54Z</time>
      </trkpt>
      <trkpt lat="45.19965" lon="5.98199">
        <ele>2489.4</ele>
        <time>2022-01-16T12:44:00Z</time>
      </trkpt>
      <trkpt lat="45.19964" lon="5.98196">
        <ele>2490.2</ele>
        <time>2022-01-16T12:44:02Z</time>
      </trkpt>
      <trkpt lat="45.19963" lon="5.98192">
        <ele>2491.4</ele>
        <time>2022-01-16T12:44:06Z</time>
      </trkpt>
      <trkpt lat="45.19963" lon="5.9819">
        <ele>2491.4</ele>
        <time>2022-01-16T12:44:07Z</time>
      </trkpt>
      <trkpt lat="45.19963" lon="5.98188">
        <ele>2491.8</ele>
        <time>2022-01-16T12:44:10Z</time>
      </trkpt>
      <trkpt lat="45.19963" lon="5.98187">
        <ele>2492.2</ele>
        <time>2022-01-16T12:44:11Z</time>
      </trkpt>
      <trkpt lat="45.19963" lon="5.98186">
        <ele>2492.8</ele>
        <time>2022-01-16T12:44:12Z</time>
      </trkpt>
      <trkpt lat="45.19963" lon="5.98185">
        <ele>2493</ele>
        <time>2022-01-16T12:44:14Z</time>
      </trkpt>
      <trkpt lat="45.19964" lon="5.98181">
        <ele>2494</ele>
        <time>2022-01-16T12:44:17Z</time>
      </trkpt>
      <trkpt lat="45.19964" lon="5.9818">
        <ele>2494.4</ele>
        <time>2022-01-16T12:44:18Z</time>
      </trkpt>
      <trkpt lat="45.19963" lon="5.98177">
        <ele>2494.6</ele>
        <time>2022-01-16T12:44:21Z</time>
      </trkpt>
      <trkpt lat="45.19964" lon="5.98176">
        <ele>2495.2</ele>
        <time>2022-01-16T12:44:22Z</time>
      </trkpt>
      <trkpt lat="45.19964" lon="5.98171">
        <ele>2496.2</ele>
        <time>2022-01-16T12:44:26Z</time>
      </trkpt>
      <trkpt lat="45.19964" lon="5.98169">
        <ele>2496.8</ele>
        <time>2022-01-16T12:44:28Z</time>
      </trkpt>
      <trkpt lat="45.19964" lon="5.98164">
        <ele>2497.4</ele>
        <time>2022-01-16T12:44:32Z</time>
      </trkpt>
      <trkpt lat="45.19965" lon="5.98161">
        <ele>2498.6</ele>
        <time>2022-01-16T12:44:35Z</time>
      </trkpt>
      <trkpt lat="45.19965" lon="5.98157">
        <ele>2499.4</ele>
        <time>2022-01-16T12:44:38Z</time>
      </trkpt>
      <trkpt lat="45.19966" lon="5.98155">
        <ele>2499.8</ele>
        <time>2022-01-16T12:44:40Z</time>
      </trkpt>
      <trkpt lat="45.19967" lon="5.98149">
        <ele>2501</ele>
        <time>2022-01-16T12:44:45Z</time>
      </trkpt>
      <trkpt lat="45.19967" lon="5.98148">
        <ele>2501.2</ele>
        <time>2022-01-16T12:44:46Z</time>
      </trkpt>
      <trkpt lat="45.19967" lon="5.98144">
        <ele>2502.2</ele>
        <time>2022-01-16T12:44:50Z</time>
      </trkpt>
      <trkpt lat="45.19968" lon="5.9814">
        <ele>2503</ele>
        <time>2022-01-16T12:44:54Z</time>
      </trkpt>
      <trkpt lat="45.19968" lon="5.98139">
        <ele>2503.2</ele>
        <time>2022-01-16T12:44:55Z</time>
      </trkpt>
      <trkpt lat="45.1997" lon="5.98134">
        <ele>2504.4</ele>
        <time>2022-01-16T12:45:00Z</time>
      </trkpt>
      <trkpt lat="45.1997" lon="5.98131">
        <ele>2504.6</ele>
        <time>2022-01-16T12:45:02Z</time>
      </trkpt>
      <trkpt lat="45.1997" lon="5.98127">
        <ele>2505.6</ele>
        <time>2022-01-16T12:45:06Z</time>
      </trkpt>
      <trkpt lat="45.19971" lon="5.98125">
        <ele>2506.8</ele>
        <time>2022-01-16T12:45:08Z</time>
      </trkpt>
      <trkpt lat="45.19971" lon="5.98123">
        <ele>2506.8</ele>
        <time>2022-01-16T12:45:10Z</time>
      </trkpt>
      <trkpt lat="45.19974" lon="5.98119">
        <ele>2507.8</ele>
        <time>2022-01-16T12:45:14Z</time>
      </trkpt>
      <trkpt lat="45.19974" lon="5.98118">
        <ele>2508</ele>
        <time>2022-01-16T12:45:15Z</time>
      </trkpt>
      <trkpt lat="45.19976" lon="5.98116">
        <ele>2508.6</ele>
        <time>2022-01-16T12:45:17Z</time>
      </trkpt>
      <trkpt lat="45.19977" lon="5.98116">
        <ele>2509.2</ele>
        <time>2022-01-16T12:45:18Z</time>
      </trkpt>
      <trkpt lat="45.19979" lon="5.98116">
        <ele>2509.4</ele>
        <time>2022-01-16T12:45:21Z</time>
      </trkpt>
      <trkpt lat="45.19982" lon="5.98117">
        <ele>2510.2</ele>
        <time>2022-01-16T12:45:24Z</time>
      </trkpt>
      <trkpt lat="45.19986" lon="5.9812">
        <ele>2511.4</ele>
        <time>2022-01-16T12:45:29Z</time>
      </trkpt>
      <trkpt lat="45.19989" lon="5.98122">
        <ele>2512.4</ele>
        <time>2022-01-16T12:45:32Z</time>
      </trkpt>
      <trkpt lat="45.19989" lon="5.98123">
        <ele>2512.6</ele>
        <time>2022-01-16T12:45:33Z</time>
      </trkpt>
      <trkpt lat="45.19992" lon="5.98127">
        <ele>2513.4</ele>
        <time>2022-01-16T12:45:38Z</time>
      </trkpt>
      <trkpt lat="45.19994" lon="5.98129">
        <ele>2514.6</ele>
        <time>2022-01-16T12:45:41Z</time>
      </trkpt>
      <trkpt lat="45.19996" lon="5.98131">
        <ele>2515</ele>
        <time>2022-01-16T12:45:44Z</time>
      </trkpt>
      <trkpt lat="45.19997" lon="5.98133">
        <ele>2516</ele>
        <time>2022-01-16T12:45:46Z</time>
      </trkpt>
      <trkpt lat="45.2" lon="5.98137">
        <ele>2517.2</ele>
        <time>2022-01-16T12:45:50Z</time>
      </trkpt>
      <trkpt lat="45.20003" lon="5.98141">
        <ele>2518.2</ele>
        <time>2022-01-16T12:45:55Z</time>
      </trkpt>
      <trkpt lat="45.20004" lon="5.98143">
        <ele>2518.2</ele>
        <time>2022-01-16T12:45:57Z</time>
      </trkpt>
      <trkpt lat="45.20007" lon="5.98145">
        <ele>2519.6</ele>
        <time>2022-01-16T12:46:01Z</time>
      </trkpt>
      <trkpt lat="45.20008" lon="5.98145">
        <ele>2519.8</ele>
        <time>2022-01-16T12:46:02Z</time>
      </trkpt>
      <trkpt lat="45.20011" lon="5.98144">
        <ele>2520</ele>
        <time>2022-01-16T12:46:05Z</time>
      </trkpt>
      <trkpt lat="45.20014" lon="5.98135">
        <ele>2519.6</ele>
        <time>2022-01-16T12:46:10Z</time>
      </trkpt>
      <trkpt lat="45.20017" lon="5.98131">
        <ele>2518.2</ele>
        <time>2022-01-16T12:46:12Z</time>
      </trkpt>
      <trkpt lat="45.20022" lon="5.98127">
        <ele>2517</ele>
        <time>2022-01-16T12:46:15Z</time>
      </trkpt>
      <trkpt lat="45.20032" lon="5.98118">
        <ele>2515.6</ele>
        <time>2022-01-16T12:46:18Z</time>
      </trkpt>
      <trkpt lat="45.20037" lon="5.98115">
        <ele>2515.4</ele>
        <time>2022-01-16T12:46:19Z</time>
      </trkpt>
      <trkpt lat="45.20042" lon="5.98112">
        <ele>2514.4</ele>
        <time>2022-01-16T12:46:20Z</time>
      </trkpt>
      <trkpt lat="45.20051" lon="5.98106">
        <ele>2511.6</ele>
        <time>2022-01-16T12:46:22Z</time>
      </trkpt>
      <trkpt lat="45.20054" lon="5.98103">
        <ele>2510.4</ele>
        <time>2022-01-16T12:46:23Z</time>
      </trkpt>
      <trkpt lat="45.20057" lon="5.98102">
        <ele>2508.6</ele>
        <time>2022-01-16T12:46:24Z</time>
      </trkpt>
      <trkpt lat="45.20061" lon="5.981">
        <ele>2508.6</ele>
        <time>2022-01-16T12:46:27Z</time>
      </trkpt>
      <trkpt lat="45.20064" lon="5.981">
        <ele>2509.8</ele>
        <time>2022-01-16T12:46:31Z</time>
      </trkpt>
      <trkpt lat="45.20065" lon="5.98101">
        <ele>2510.4</ele>
        <time>2022-01-16T12:46:33Z</time>
      </trkpt>
      <trkpt lat="45.20067" lon="5.98101">
        <ele>2510.4</ele>
        <time>2022-01-16T12:46:34Z</time>
      </trkpt>
      <trkpt lat="45.20068" lon="5.98101">
        <ele>2511</ele>
        <time>2022-01-16T12:46:36Z</time>
      </trkpt>
      <trkpt lat="45.20072" lon="5.98101">
        <ele>2511.4</ele>
        <time>2022-01-16T12:46:39Z</time>
      </trkpt>
      <trkpt lat="45.20073" lon="5.98101">
        <ele>2511.6</ele>
        <time>2022-01-16T12:46:40Z</time>
      </trkpt>
      <trkpt lat="45.20073" lon="5.98101">
        <ele>2512.6</ele>
        <time>2022-01-16T12:46:41Z</time>
      </trkpt>
      <trkpt lat="45.2008" lon="5.98102">
        <ele>2513.6</ele>
        <time>2022-01-16T12:46:47Z</time>
      </trkpt>
      <trkpt lat="45.20082" lon="5.98102">
        <ele>2514</ele>
        <time>2022-01-16T12:46:48Z</time>
      </trkpt>
      <trkpt lat="45.20088" lon="5.98107">
        <ele>2514.2</ele>
        <time>2022-01-16T12:46:54Z</time>
      </trkpt>
      <trkpt lat="45.2009" lon="5.98108">
        <ele>2514.6</ele>
        <time>2022-01-16T12:46:56Z</time>
      </trkpt>
      <trkpt lat="45.2009" lon="5.98109">
        <ele>2515</ele>
        <time>2022-01-16T12:46:57Z</time>
      </trkpt>
      <trkpt lat="45.20099" lon="5.98116">
        <ele>2514.4</ele>
        <time>2022-01-16T12:47:03Z</time>
      </trkpt>
      <trkpt lat="45.20104" lon="5.98122">
        <ele>2514</ele>
        <time>2022-01-16T12:47:06Z</time>
      </trkpt>
      <trkpt lat="45.20108" lon="5.98127">
        <ele>2513.2</ele>
        <time>2022-01-16T12:47:09Z</time>
      </trkpt>
      <trkpt lat="45.20109" lon="5.98129">
        <ele>2512.8</ele>
        <time>2022-01-16T12:47:10Z</time>
      </trkpt>
      <trkpt lat="45.20116" lon="5.98138">
        <ele>2512.2</ele>
        <time>2022-01-16T12:47:16Z</time>
      </trkpt>
      <trkpt lat="45.20118" lon="5.9814">
        <ele>2512.2</ele>
        <time>2022-01-16T12:47:18Z</time>
      </trkpt>
      <trkpt lat="45.20124" lon="5.98143">
        <ele>2512.4</ele>
        <time>2022-01-16T12:47:22Z</time>
      </trkpt>
      <trkpt lat="45.20131" lon="5.98144">
        <ele>2512.2</ele>
        <time>2022-01-16T12:47:26Z</time>
      </trkpt>
      <trkpt lat="45.20138" lon="5.98146">
        <ele>2513.2</ele>
        <time>2022-01-16T12:47:32Z</time>
      </trkpt>
      <trkpt lat="45.2014" lon="5.98146">
        <ele>2513.8</ele>
        <time>2022-01-16T12:47:34Z</time>
      </trkpt>
      <trkpt lat="45.20143" lon="5.98146">
        <ele>2514.8</ele>
        <time>2022-01-16T12:47:37Z</time>
      </trkpt>
      <trkpt lat="45.20147" lon="5.98147">
        <ele>2516</ele>
        <time>2022-01-16T12:47:40Z</time>
      </trkpt>
      <trkpt lat="45.20148" lon="5.98147">
        <ele>2516</ele>
        <time>2022-01-16T12:47:41Z</time>
      </trkpt>
      <trkpt lat="45.20153" lon="5.98149">
        <ele>2517.6</ele>
        <time>2022-01-16T12:47:46Z</time>
      </trkpt>
      <trkpt lat="45.20156" lon="5.9815">
        <ele>2518.2</ele>
        <time>2022-01-16T12:47:49Z</time>
      </trkpt>
      <trkpt lat="45.20159" lon="5.9815">
        <ele>2518.8</ele>
        <time>2022-01-16T12:47:52Z</time>
      </trkpt>
      <trkpt lat="45.20163" lon="5.9815">
        <ele>2519.6</ele>
        <time>2022-01-16T12:47:56Z</time>
      </trkpt>
      <trkpt lat="45.20164" lon="5.9815">
        <ele>2520</ele>
        <time>2022-01-16T12:47:57Z</time>
      </trkpt>
      <trkpt lat="45.20165" lon="5.9815">
        <ele>2520.2</ele>
        <time>2022-01-16T12:47:58Z</time>
      </trkpt>
      <trkpt lat="45.2017" lon="5.9815">
        <ele>2521</ele>
        <time>2022-01-16T12:48:03Z</time>
      </trkpt>
      <trkpt lat="45.20172" lon="5.9815">
        <ele>2521.4</ele>
        <time>2022-01-16T12:48:06Z</time>
      </trkpt>
      <trkpt lat="45.20174" lon="5.98149">
        <ele>2522.4</ele>
        <time>2022-01-16T12:48:08Z</time>
      </trkpt>
      <trkpt lat="45.20177" lon="5.98147">
        <ele>2523.4</ele>
        <time>2022-01-16T12:48:12Z</time>
      </trkpt>
      <trkpt lat="45.20177" lon="5.98146">
        <ele>2523.4</ele>
        <time>2022-01-16T12:48:13Z</time>
      </trkpt>
      <trkpt lat="45.20181" lon="5.98144">
        <ele>2524.2</ele>
        <time>2022-01-16T12:48:19Z</time>
      </trkpt>
      <trkpt lat="45.20184" lon="5.98143">
        <ele>2524.2</ele>
        <time>2022-01-16T12:48:21Z</time>
      </trkpt>
      <trkpt lat="45.20186" lon="5.98143">
        <ele>2524.4</ele>
        <time>2022-01-16T12:48:24Z</time>
      </trkpt>
      <trkpt lat="45.20188" lon="5.98144">
        <ele>2525.4</ele>
        <time>2022-01-16T12:48:29Z</time>
      </trkpt>
      <trkpt lat="45.2019" lon="5.98142">
        <ele>2526.2</ele>
        <time>2022-01-16T12:48:35Z</time>
      </trkpt>
      <trkpt lat="45.20194" lon="5.98138">
        <ele>2526.2</ele>
        <time>2022-01-16T12:48:41Z</time>
      </trkpt>
      <trkpt lat="45.20195" lon="5.98138">
        <ele>2526.2</ele>
        <time>2022-01-16T12:48:42Z</time>
      </trkpt>
      <trkpt lat="45.20198" lon="5.98134">
        <ele>2525.8</ele>
        <time>2022-01-16T12:48:47Z</time>
      </trkpt>
      <trkpt lat="45.20198" lon="5.98132">
        <ele>2525.8</ele>
        <time>2022-01-16T12:48:48Z</time>
      </trkpt>
      <trkpt lat="45.20199" lon="5.98129">
        <ele>2525.8</ele>
        <time>2022-01-16T12:48:50Z</time>
      </trkpt>
      <trkpt lat="45.20203" lon="5.98126">
        <ele>2525.4</ele>
        <time>2022-01-16T12:48:54Z</time>
      </trkpt>
      <trkpt lat="45.20204" lon="5.98126">
        <ele>2525.2</ele>
        <time>2022-01-16T12:48:57Z</time>
      </trkpt>
      <trkpt lat="45.20204" lon="5.98127">
        <ele>2525.2</ele>
        <time>2022-01-16T12:49:01Z</time>
      </trkpt>
      <trkpt lat="45.20204" lon="5.98127">
        <ele>2525.2</ele>
        <time>2022-01-16T12:49:02Z</time>
      </trkpt>
      <trkpt lat="45.20204" lon="5.98128">
        <ele>2525.2</ele>
        <time>2022-01-16T12:49:05Z</time>
      </trkpt>
      <trkpt lat="45.20204" lon="5.98127">
        <ele>2525.2</ele>
        <time>2022-01-16T12:49:08Z</time>
      </trkpt>
      <trkpt lat="45.20204" lon="5.98127">
        <ele>2525.2</ele>
        <time>2022-01-16T12:49:09Z</time>
      </trkpt>
      <trkpt lat="45.20204" lon="5.98127">
        <ele>2525.2</ele>
        <time>2022-01-16T12:49:15Z</time>
      </trkpt>
      <trkpt lat="45.20204" lon="5.98127">
        <ele>2525.2</ele>
        <time>2022-01-16T12:49:16Z</time>
      </trkpt>
      <trkpt lat="45.20204" lon="5.98127">
        <ele>2525.2</ele>
        <time>2022-01-16T12:49:17Z</time>
      </trkpt>
      <trkpt lat="45.20204" lon="5.98127">
        <ele>2525.2</ele>
        <time>2022-01-16T12:49:19Z</time>
      </trkpt>
      <trkpt lat="45.20204" lon="5.98127">
        <ele>2525.2</ele>
        <time>2022-01-16T12:49:20Z</time>
      </trkpt>
      <trkpt lat="45.20204" lon="5.98127">
        <ele>2525.4</ele>
        <time>2022-01-16T12:49:26Z</time>
      </trkpt>
      <trkpt lat="45.20204" lon="5.98127">
        <ele>2525.4</ele>
        <time>2022-01-16T12:49:28Z</time>
      </trkpt>
      <trkpt lat="45.20204" lon="5.98126">
        <ele>2525.4</ele>
        <time>2022-01-16T12:49:31Z</time>
      </trkpt>
      <trkpt lat="45.20204" lon="5.98126">
        <ele>2525</ele>
        <time>2022-01-16T12:49:37Z</time>
      </trkpt>
      <trkpt lat="45.20205" lon="5.98126">
        <ele>2524.8</ele>
        <time>2022-01-16T12:49:43Z</time>
      </trkpt>
      <trkpt lat="45.20205" lon="5.98125">
        <ele>2524.8</ele>
        <time>2022-01-16T12:49:46Z</time>
      </trkpt>
      <trkpt lat="45.20205" lon="5.98125">
        <ele>2524.6</ele>
        <time>2022-01-16T12:49:48Z</time>
      </trkpt>
      <trkpt lat="45.20205" lon="5.98125">
        <ele>2524.6</ele>
        <time>2022-01-16T12:49:51Z</time>
      </trkpt>
      <trkpt lat="45.20205" lon="5.98125">
        <ele>2524.6</ele>
        <time>2022-01-16T12:49:57Z</time>
      </trkpt>
      <trkpt lat="45.20205" lon="5.98126">
        <ele>2524.4</ele>
        <time>2022-01-16T12:50:01Z</time>
      </trkpt>
      <trkpt lat="45.20206" lon="5.98126">
        <ele>2524.2</ele>
        <time>2022-01-16T12:50:06Z</time>
      </trkpt>
      <trkpt lat="45.20206" lon="5.98126">
        <ele>2524.2</ele>
        <time>2022-01-16T12:50:12Z</time>
      </trkpt>
      <trkpt lat="45.20206" lon="5.98126">
        <ele>2524.2</ele>
        <time>2022-01-16T12:50:18Z</time>
      </trkpt>
      <trkpt lat="45.20206" lon="5.98126">
        <ele>2524</ele>
        <time>2022-01-16T12:50:24Z</time>
      </trkpt>
      <trkpt lat="45.20206" lon="5.98126">
        <ele>2523.8</ele>
        <time>2022-01-16T12:50:26Z</time>
      </trkpt>
      <trkpt lat="45.20206" lon="5.98127">
        <ele>2523.8</ele>
        <time>2022-01-16T12:50:30Z</time>
      </trkpt>
      <trkpt lat="45.20206" lon="5.98127">
        <ele>2523.8</ele>
        <time>2022-01-16T12:50:31Z</time>
      </trkpt>
      <trkpt lat="45.20206" lon="5.98127">
        <ele>2523.8</ele>
        <time>2022-01-16T12:50:36Z</time>
      </trkpt>
      <trkpt lat="45.20206" lon="5.98127">
        <ele>2523.8</ele>
        <time>2022-01-16T12:50:42Z</time>
      </trkpt>
      <trkpt lat="45.20206" lon="5.98127">
        <ele>2523.6</ele>
        <time>2022-01-16T12:50:44Z</time>
      </trkpt>
      <trkpt lat="45.20206" lon="5.98127">
        <ele>2523.4</ele>
        <time>2022-01-16T12:50:45Z</time>
      </trkpt>
      <trkpt lat="45.20202" lon="5.98129">
        <ele>2523.2</ele>
        <time>2022-01-16T12:50:49Z</time>
      </trkpt>
      <trkpt lat="45.20201" lon="5.9813">
        <ele>2523.2</ele>
        <time>2022-01-16T12:50:50Z</time>
      </trkpt>
      <trkpt lat="45.2019" lon="5.98138">
        <ele>2523.2</ele>
        <time>2022-01-16T12:50:56Z</time>
      </trkpt>
      <trkpt lat="45.20188" lon="5.98139">
        <ele>2523.2</ele>
        <time>2022-01-16T12:50:58Z</time>
      </trkpt>
      <trkpt lat="45.2018" lon="5.98146">
        <ele>2522.8</ele>
        <time>2022-01-16T12:51:04Z</time>
      </trkpt>
      <trkpt lat="45.20178" lon="5.98147">
        <ele>2522.2</ele>
        <time>2022-01-16T12:51:06Z</time>
      </trkpt>
      <trkpt lat="45.20177" lon="5.98148">
        <ele>2522.4</ele>
        <time>2022-01-16T12:51:07Z</time>
      </trkpt>
      <trkpt lat="45.20167" lon="5.98156">
        <ele>2521.4</ele>
        <time>2022-01-16T12:51:11Z</time>
      </trkpt>
      <trkpt lat="45.20165" lon="5.98158">
        <ele>2520.8</ele>
        <time>2022-01-16T12:51:12Z</time>
      </trkpt>
      <trkpt lat="45.20163" lon="5.98161">
        <ele>2520</ele>
        <time>2022-01-16T12:51:15Z</time>
      </trkpt>
      <trkpt lat="45.20163" lon="5.98163">
        <ele>2520.4</ele>
        <time>2022-01-16T12:51:21Z</time>
      </trkpt>
      <trkpt lat="45.20163" lon="5.98163">
        <ele>2520.4</ele>
        <time>2022-01-16T12:51:22Z</time>
      </trkpt>
      <trkpt lat="45.20162" lon="5.98162">
        <ele>2520.4</ele>
        <time>2022-01-16T12:51:28Z</time>
      </trkpt>
      <trkpt lat="45.2016" lon="5.98161">
        <ele>2520.2</ele>
        <time>2022-01-16T12:51:32Z</time>
      </trkpt>
      <trkpt lat="45.20156" lon="5.98157">
        <ele>2519.8</ele>
        <time>2022-01-16T12:51:34Z</time>
      </trkpt>
      <trkpt lat="45.20153" lon="5.98154">
        <ele>2519.6</ele>
        <time>2022-01-16T12:51:35Z</time>
      </trkpt>
      <trkpt lat="45.20144" lon="5.98147">
        <ele>2518.4</ele>
        <time>2022-01-16T12:51:37Z</time>
      </trkpt>
      <trkpt lat="45.20139" lon="5.98145">
        <ele>2517</ele>
        <time>2022-01-16T12:51:38Z</time>
      </trkpt>
      <trkpt lat="45.20134" lon="5.98143">
        <ele>2517</ele>
        <time>2022-01-16T12:51:39Z</time>
      </trkpt>
      <trkpt lat="45.20128" lon="5.98142">
        <ele>2515.8</ele>
        <time>2022-01-16T12:51:40Z</time>
      </trkpt>
      <trkpt lat="45.20123" lon="5.98141">
        <ele>2513.8</ele>
        <time>2022-01-16T12:51:41Z</time>
      </trkpt>
      <trkpt lat="45.20117" lon="5.98139">
        <ele>2511.8</ele>
        <time>2022-01-16T12:51:43Z</time>
      </trkpt>
      <trkpt lat="45.20112" lon="5.98135">
        <ele>2511.6</ele>
        <time>2022-01-16T12:51:47Z</time>
      </trkpt>
      <trkpt lat="45.20108" lon="5.9813">
        <ele>2511.6</ele>
        <time>2022-01-16T12:51:50Z</time>
      </trkpt>
      <trkpt lat="45.20106" lon="5.98127">
        <ele>2511.8</ele>
        <time>2022-01-16T12:51:53Z</time>
      </trkpt>
      <trkpt lat="45.20105" lon="5.98125">
        <ele>2512</ele>
        <time>2022-01-16T12:51:55Z</time>
      </trkpt>
      <trkpt lat="45.201" lon="5.98117">
        <ele>2512.8</ele>
        <time>2022-01-16T12:52:01Z</time>
      </trkpt>
      <trkpt lat="45.20099" lon="5.98116">
        <ele>2512.8</ele>
        <time>2022-01-16T12:52:03Z</time>
      </trkpt>
      <trkpt lat="45.20098" lon="5.98115">
        <ele>2512.8</ele>
        <time>2022-01-16T12:52:04Z</time>
      </trkpt>
      <trkpt lat="45.20094" lon="5.98111">
        <ele>2514</ele>
        <time>2022-01-16T12:52:09Z</time>
      </trkpt>
      <trkpt lat="45.20089" lon="5.98107">
        <ele>2514.4</ele>
        <time>2022-01-16T12:52:15Z</time>
      </trkpt>
      <trkpt lat="45.20085" lon="5.98102">
        <ele>2514</ele>
        <time>2022-01-16T12:52:20Z</time>
      </trkpt>
      <trkpt lat="45.20085" lon="5.98102">
        <ele>2513.8</ele>
        <time>2022-01-16T12:52:21Z</time>
      </trkpt>
      <trkpt lat="45.20085" lon="5.98102">
        <ele>2513.8</ele>
        <time>2022-01-16T12:52:24Z</time>
      </trkpt>
      <trkpt lat="45.20084" lon="5.98103">
        <ele>2513.8</ele>
        <time>2022-01-16T12:52:28Z</time>
      </trkpt>
      <trkpt lat="45.20084" lon="5.98103">
        <ele>2513.8</ele>
        <time>2022-01-16T12:52:34Z</time>
      </trkpt>
      <trkpt lat="45.20084" lon="5.98103">
        <ele>2513.8</ele>
        <time>2022-01-16T12:52:40Z</time>
      </trkpt>
      <trkpt lat="45.20084" lon="5.98103">
        <ele>2513.8</ele>
        <time>2022-01-16T12:52:45Z</time>
      </trkpt>
      <trkpt lat="45.20084" lon="5.98103">
        <ele>2513.8</ele>
        <time>2022-01-16T12:52:51Z</time>
      </trkpt>
      <trkpt lat="45.20084" lon="5.98102">
        <ele>2513.6</ele>
        <time>2022-01-16T12:52:57Z</time>
      </trkpt>
      <trkpt lat="45.20085" lon="5.98102">
        <ele>2513.6</ele>
        <time>2022-01-16T12:53:03Z</time>
      </trkpt>
      <trkpt lat="45.20085" lon="5.98102">
        <ele>2513.4</ele>
        <time>2022-01-16T12:53:09Z</time>
      </trkpt>
      <trkpt lat="45.20085" lon="5.98102">
        <ele>2513</ele>
        <time>2022-01-16T12:53:11Z</time>
      </trkpt>
      <trkpt lat="45.20085" lon="5.98102">
        <ele>2513</ele>
        <time>2022-01-16T12:53:12Z</time>
      </trkpt>
      <trkpt lat="45.20085" lon="5.98102">
        <ele>2513</ele>
        <time>2022-01-16T12:53:13Z</time>
      </trkpt>
      <trkpt lat="45.20085" lon="5.98102">
        <ele>2512.8</ele>
        <time>2022-01-16T12:53:14Z</time>
      </trkpt>
      <trkpt lat="45.20085" lon="5.98102">
        <ele>2512.8</ele>
        <time>2022-01-16T12:53:16Z</time>
      </trkpt>
      <trkpt lat="45.20085" lon="5.98102">
        <ele>2512.8</ele>
        <time>2022-01-16T12:53:17Z</time>
      </trkpt>
      <trkpt lat="45.20085" lon="5.98103">
        <ele>2512.6</ele>
        <time>2022-01-16T12:53:23Z</time>
      </trkpt>
      <trkpt lat="45.20085" lon="5.98103">
        <ele>2512.6</ele>
        <time>2022-01-16T12:53:25Z</time>
      </trkpt>
      <trkpt lat="45.20085" lon="5.98103">
        <ele>2512.8</ele>
        <time>2022-01-16T12:53:27Z</time>
      </trkpt>
      <trkpt lat="45.20085" lon="5.98103">
        <ele>2512.8</ele>
        <time>2022-01-16T12:53:30Z</time>
      </trkpt>
      <trkpt lat="45.20085" lon="5.98103">
        <ele>2512.8</ele>
        <time>2022-01-16T12:53:32Z</time>
      </trkpt>
      <trkpt lat="45.20085" lon="5.98103">
        <ele>2512.8</ele>
        <time>2022-01-16T12:53:34Z</time>
      </trkpt>
      <trkpt lat="45.20085" lon="5.98103">
        <ele>2512.6</ele>
        <time>2022-01-16T12:53:36Z</time>
      </trkpt>
      <trkpt lat="45.20085" lon="5.98103">
        <ele>2512.6</ele>
        <time>2022-01-16T12:53:39Z</time>
      </trkpt>
      <trkpt lat="45.20085" lon="5.98103">
        <ele>2512.6</ele>
        <time>2022-01-16T12:53:44Z</time>
      </trkpt>
      <trkpt lat="45.20085" lon="5.98103">
        <ele>2512.2</ele>
        <time>2022-01-16T12:53:48Z</time>
      </trkpt>
      <trkpt lat="45.20085" lon="5.98103">
        <ele>2512.2</ele>
        <time>2022-01-16T12:53:51Z</time>
      </trkpt>
      <trkpt lat="45.20084" lon="5.98103">
        <ele>2512.6</ele>
        <time>2022-01-16T12:53:57Z</time>
      </trkpt>
      <trkpt lat="45.20084" lon="5.98103">
        <ele>2512.6</ele>
        <time>2022-01-16T12:53:58Z</time>
      </trkpt>
      <trkpt lat="45.20084" lon="5.98103">
        <ele>2512.2</ele>
        <time>2022-01-16T12:54:04Z</time>
      </trkpt>
      <trkpt lat="45.20084" lon="5.98104">
        <ele>2512.2</ele>
        <time>2022-01-16T12:54:07Z</time>
      </trkpt>
      <trkpt lat="45.20084" lon="5.98104">
        <ele>2512.2</ele>
        <time>2022-01-16T12:54:13Z</time>
      </trkpt>
      <trkpt lat="45.20084" lon="5.98104">
        <ele>2512.2</ele>
        <time>2022-01-16T12:54:15Z</time>
      </trkpt>
      <trkpt lat="45.20083" lon="5.98105">
        <ele>2511.4</ele>
        <time>2022-01-16T12:54:19Z</time>
      </trkpt>
      <trkpt lat="45.20082" lon="5.98105">
        <ele>2511.4</ele>
        <time>2022-01-16T12:54:20Z</time>
      </trkpt>
      <trkpt lat="45.20077" lon="5.98109">
        <ele>2511</ele>
        <time>2022-01-16T12:54:25Z</time>
      </trkpt>
      <trkpt lat="45.20074" lon="5.9811">
        <ele>2509.4</ele>
        <time>2022-01-16T12:54:26Z</time>
      </trkpt>
      <trkpt lat="45.20065" lon="5.98111">
        <ele>2507.6</ele>
        <time>2022-01-16T12:54:28Z</time>
      </trkpt>
      <trkpt lat="45.20062" lon="5.98111">
        <ele>2505.8</ele>
        <time>2022-01-16T12:54:29Z</time>
      </trkpt>
      <trkpt lat="45.20059" lon="5.98112">
        <ele>2505</ele>
        <time>2022-01-16T12:54:30Z</time>
      </trkpt>
      <trkpt lat="45.20055" lon="5.98114">
        <ele>2503.8</ele>
        <time>2022-01-16T12:54:31Z</time>
      </trkpt>
      <trkpt lat="45.2005" lon="5.98119">
        <ele>2502.8</ele>
        <time>2022-01-16T12:54:33Z</time>
      </trkpt>
      <trkpt lat="45.20047" lon="5.98124">
        <ele>2501.8</ele>
        <time>2022-01-16T12:54:35Z</time>
      </trkpt>
      <trkpt lat="45.20048" lon="5.98126">
        <ele>2501.6</ele>
        <time>2022-01-16T12:54:36Z</time>
      </trkpt>
      <trkpt lat="45.2005" lon="5.98127">
        <ele>2499.4</ele>
        <time>2022-01-16T12:54:37Z</time>
      </trkpt>
      <trkpt lat="45.20053" lon="5.98128">
        <ele>2498.8</ele>
        <time>2022-01-16T12:54:38Z</time>
      </trkpt>
      <trkpt lat="45.2006" lon="5.9813">
        <ele>2497.2</ele>
        <time>2022-01-16T12:54:40Z</time>
      </trkpt>
      <trkpt lat="45.20064" lon="5.98135">
        <ele>2496.6</ele>
        <time>2022-01-16T12:54:42Z</time>
      </trkpt>
      <trkpt lat="45.20064" lon="5.98139">
        <ele>2496.2</ele>
        <time>2022-01-16T12:54:43Z</time>
      </trkpt>
      <trkpt lat="45.20062" lon="5.98142">
        <ele>2494.2</ele>
        <time>2022-01-16T12:54:44Z</time>
      </trkpt>
      <trkpt lat="45.20059" lon="5.98143">
        <ele>2492.8</ele>
        <time>2022-01-16T12:54:45Z</time>
      </trkpt>
      <trkpt lat="45.20056" lon="5.98144">
        <ele>2490.6</ele>
        <time>2022-01-16T12:54:46Z</time>
      </trkpt>
      <trkpt lat="45.2005" lon="5.98148">
        <ele>2489.4</ele>
        <time>2022-01-16T12:54:48Z</time>
      </trkpt>
      <trkpt lat="45.2005" lon="5.9815">
        <ele>2488.2</ele>
        <time>2022-01-16T12:54:49Z</time>
      </trkpt>
      <trkpt lat="45.20052" lon="5.98153">
        <ele>2488.2</ele>
        <time>2022-01-16T12:54:50Z</time>
      </trkpt>
      <trkpt lat="45.20055" lon="5.98156">
        <ele>2485.6</ele>
        <time>2022-01-16T12:54:51Z</time>
      </trkpt>
      <trkpt lat="45.20056" lon="5.9816">
        <ele>2484</ele>
        <time>2022-01-16T12:54:52Z</time>
      </trkpt>
      <trkpt lat="45.20053" lon="5.98163">
        <ele>2482.8</ele>
        <time>2022-01-16T12:54:53Z</time>
      </trkpt>
      <trkpt lat="45.2005" lon="5.98167">
        <ele>2480.8</ele>
        <time>2022-01-16T12:54:54Z</time>
      </trkpt>
      <trkpt lat="45.20045" lon="5.98172">
        <ele>2479.6</ele>
        <time>2022-01-16T12:54:56Z</time>
      </trkpt>
      <trkpt lat="45.20046" lon="5.98173">
        <ele>2478</ele>
        <time>2022-01-16T12:54:57Z</time>
      </trkpt>
      <trkpt lat="45.20047" lon="5.98174">
        <ele>2477.8</ele>
        <time>2022-01-16T12:54:58Z</time>
      </trkpt>
      <trkpt lat="45.20049" lon="5.98176">
        <ele>2475</ele>
        <time>2022-01-16T12:54:59Z</time>
      </trkpt>
      <trkpt lat="45.20052" lon="5.98182">
        <ele>2473.2</ele>
        <time>2022-01-16T12:55:01Z</time>
      </trkpt>
      <trkpt lat="45.20051" lon="5.98185">
        <ele>2470.8</ele>
        <time>2022-01-16T12:55:02Z</time>
      </trkpt>
      <trkpt lat="45.20049" lon="5.98189">
        <ele>2468.6</ele>
        <time>2022-01-16T12:55:03Z</time>
      </trkpt>
      <trkpt lat="45.20043" lon="5.98195">
        <ele>2467.6</ele>
        <time>2022-01-16T12:55:05Z</time>
      </trkpt>
      <trkpt lat="45.20041" lon="5.98197">
        <ele>2465.8</ele>
        <time>2022-01-16T12:55:06Z</time>
      </trkpt>
      <trkpt lat="45.20037" lon="5.98202">
        <ele>2464.8</ele>
        <time>2022-01-16T12:55:08Z</time>
      </trkpt>
      <trkpt lat="45.20039" lon="5.98204">
        <ele>2463.2</ele>
        <time>2022-01-16T12:55:09Z</time>
      </trkpt>
      <trkpt lat="45.20041" lon="5.98206">
        <ele>2462.8</ele>
        <time>2022-01-16T12:55:10Z</time>
      </trkpt>
      <trkpt lat="45.20043" lon="5.98208">
        <ele>2460</ele>
        <time>2022-01-16T12:55:11Z</time>
      </trkpt>
      <trkpt lat="45.20045" lon="5.98208">
        <ele>2458</ele>
        <time>2022-01-16T12:55:12Z</time>
      </trkpt>
      <trkpt lat="45.20048" lon="5.9821">
        <ele>2457.4</ele>
        <time>2022-01-16T12:55:13Z</time>
      </trkpt>
      <trkpt lat="45.2005" lon="5.98214">
        <ele>2457</ele>
        <time>2022-01-16T12:55:14Z</time>
      </trkpt>
      <trkpt lat="45.20049" lon="5.98218">
        <ele>2454.8</ele>
        <time>2022-01-16T12:55:15Z</time>
      </trkpt>
      <trkpt lat="45.20046" lon="5.98222">
        <ele>2453.8</ele>
        <time>2022-01-16T12:55:16Z</time>
      </trkpt>
      <trkpt lat="45.20044" lon="5.98226">
        <ele>2452</ele>
        <time>2022-01-16T12:55:17Z</time>
      </trkpt>
      <trkpt lat="45.20037" lon="5.98235">
        <ele>2449.2</ele>
        <time>2022-01-16T12:55:19Z</time>
      </trkpt>
      <trkpt lat="45.20033" lon="5.9824">
        <ele>2448</ele>
        <time>2022-01-16T12:55:20Z</time>
      </trkpt>
      <trkpt lat="45.2003" lon="5.98245">
        <ele>2447.4</ele>
        <time>2022-01-16T12:55:21Z</time>
      </trkpt>
      <trkpt lat="45.20028" lon="5.98251">
        <ele>2445.8</ele>
        <time>2022-01-16T12:55:22Z</time>
      </trkpt>
      <trkpt lat="45.20025" lon="5.98257">
        <ele>2444</ele>
        <time>2022-01-16T12:55:23Z</time>
      </trkpt>
      <trkpt lat="45.20023" lon="5.98261">
        <ele>2441.2</ele>
        <time>2022-01-16T12:55:24Z</time>
      </trkpt>
      <trkpt lat="45.20022" lon="5.98264">
        <ele>2440.4</ele>
        <time>2022-01-16T12:55:25Z</time>
      </trkpt>
      <trkpt lat="45.20024" lon="5.98269">
        <ele>2439.6</ele>
        <time>2022-01-16T12:55:26Z</time>
      </trkpt>
      <trkpt lat="45.20024" lon="5.98275">
        <ele>2436.2</ele>
        <time>2022-01-16T12:55:27Z</time>
      </trkpt>
      <trkpt lat="45.20022" lon="5.9828">
        <ele>2433.8</ele>
        <time>2022-01-16T12:55:28Z</time>
      </trkpt>
      <trkpt lat="45.2002" lon="5.98285">
        <ele>2431.6</ele>
        <time>2022-01-16T12:55:29Z</time>
      </trkpt>
      <trkpt lat="45.20021" lon="5.98296">
        <ele>2428.8</ele>
        <time>2022-01-16T12:55:31Z</time>
      </trkpt>
      <trkpt lat="45.20024" lon="5.98299">
        <ele>2425.6</ele>
        <time>2022-01-16T12:55:32Z</time>
      </trkpt>
      <trkpt lat="45.20027" lon="5.98303">
        <ele>2422.6</ele>
        <time>2022-01-16T12:55:33Z</time>
      </trkpt>
      <trkpt lat="45.20029" lon="5.98307">
        <ele>2419.8</ele>
        <time>2022-01-16T12:55:34Z</time>
      </trkpt>
      <trkpt lat="45.20029" lon="5.98313">
        <ele>2418.2</ele>
        <time>2022-01-16T12:55:35Z</time>
      </trkpt>
      <trkpt lat="45.20029" lon="5.98316">
        <ele>2415.6</ele>
        <time>2022-01-16T12:55:36Z</time>
      </trkpt>
      <trkpt lat="45.20027" lon="5.9832">
        <ele>2414</ele>
        <time>2022-01-16T12:55:38Z</time>
      </trkpt>
      <trkpt lat="45.2003" lon="5.98318">
        <ele>2412.8</ele>
        <time>2022-01-16T12:55:41Z</time>
      </trkpt>
      <trkpt lat="45.20033" lon="5.98316">
        <ele>2410.4</ele>
        <time>2022-01-16T12:55:42Z</time>
      </trkpt>
      <trkpt lat="45.20036" lon="5.98314">
        <ele>2409.2</ele>
        <time>2022-01-16T12:55:44Z</time>
      </trkpt>
      <trkpt lat="45.20037" lon="5.98316">
        <ele>2409.2</ele>
        <time>2022-01-16T12:55:45Z</time>
      </trkpt>
      <trkpt lat="45.20036" lon="5.98322">
        <ele>2407.6</ele>
        <time>2022-01-16T12:55:47Z</time>
      </trkpt>
      <trkpt lat="45.20035" lon="5.98324">
        <ele>2407</ele>
        <time>2022-01-16T12:55:48Z</time>
      </trkpt>
      <trkpt lat="45.20035" lon="5.98326">
        <ele>2406.6</ele>
        <time>2022-01-16T12:55:49Z</time>
      </trkpt>
      <trkpt lat="45.20035" lon="5.98327">
        <ele>2405.6</ele>
        <time>2022-01-16T12:55:51Z</time>
      </trkpt>
      <trkpt lat="45.20035" lon="5.98328">
        <ele>2405.4</ele>
        <time>2022-01-16T12:55:52Z</time>
      </trkpt>
      <trkpt lat="45.20035" lon="5.98331">
        <ele>2404.4</ele>
        <time>2022-01-16T12:55:55Z</time>
      </trkpt>
      <trkpt lat="45.20036" lon="5.98331">
        <ele>2403.8</ele>
        <time>2022-01-16T12:55:56Z</time>
      </trkpt>
      <trkpt lat="45.20038" lon="5.98332">
        <ele>2403.4</ele>
        <time>2022-01-16T12:55:58Z</time>
      </trkpt>
      <trkpt lat="45.20039" lon="5.98331">
        <ele>2401.4</ele>
        <time>2022-01-16T12:55:59Z</time>
      </trkpt>
      <trkpt lat="45.2004" lon="5.98331">
        <ele>2401.2</ele>
        <time>2022-01-16T12:56:00Z</time>
      </trkpt>
      <trkpt lat="45.20041" lon="5.98331">
        <ele>2400.6</ele>
        <time>2022-01-16T12:56:01Z</time>
      </trkpt>
      <trkpt lat="45.2004" lon="5.98336">
        <ele>2400.2</ele>
        <time>2022-01-16T12:56:03Z</time>
      </trkpt>
      <trkpt lat="45.20039" lon="5.98339">
        <ele>2398.8</ele>
        <time>2022-01-16T12:56:05Z</time>
      </trkpt>
      <trkpt lat="45.20039" lon="5.9834">
        <ele>2397.6</ele>
        <time>2022-01-16T12:56:06Z</time>
      </trkpt>
      <trkpt lat="45.20039" lon="5.9834">
        <ele>2397.4</ele>
        <time>2022-01-16T12:56:07Z</time>
      </trkpt>
      <trkpt lat="45.20039" lon="5.98342">
        <ele>2396.8</ele>
        <time>2022-01-16T12:56:09Z</time>
      </trkpt>
      <trkpt lat="45.20038" lon="5.98343">
        <ele>2396.2</ele>
        <time>2022-01-16T12:56:11Z</time>
      </trkpt>
      <trkpt lat="45.20039" lon="5.98344">
        <ele>2395.4</ele>
        <time>2022-01-16T12:56:12Z</time>
      </trkpt>
      <trkpt lat="45.20039" lon="5.98345">
        <ele>2394.8</ele>
        <time>2022-01-16T12:56:13Z</time>
      </trkpt>
      <trkpt lat="45.20042" lon="5.98347">
        <ele>2394.2</ele>
        <time>2022-01-16T12:56:15Z</time>
      </trkpt>
      <trkpt lat="45.20043" lon="5.98348">
        <ele>2393.4</ele>
        <time>2022-01-16T12:56:16Z</time>
      </trkpt>
      <trkpt lat="45.20043" lon="5.98349">
        <ele>2393.4</ele>
        <time>2022-01-16T12:56:17Z</time>
      </trkpt>
      <trkpt lat="45.20041" lon="5.98351">
        <ele>2392.4</ele>
        <time>2022-01-16T12:56:19Z</time>
      </trkpt>
      <trkpt lat="45.20041" lon="5.98351">
        <ele>2392</ele>
        <time>2022-01-16T12:56:20Z</time>
      </trkpt>
      <trkpt lat="45.20041" lon="5.98352">
        <ele>2390</ele>
        <time>2022-01-16T12:56:21Z</time>
      </trkpt>
      <trkpt lat="45.2004" lon="5.98352">
        <ele>2390</ele>
        <time>2022-01-16T12:56:22Z</time>
      </trkpt>
      <trkpt lat="45.20039" lon="5.98355">
        <ele>2387.6</ele>
        <time>2022-01-16T12:56:25Z</time>
      </trkpt>
      <trkpt lat="45.20038" lon="5.98359">
        <ele>2386.8</ele>
        <time>2022-01-16T12:56:27Z</time>
      </trkpt>
      <trkpt lat="45.20037" lon="5.98362">
        <ele>2385</ele>
        <time>2022-01-16T12:56:29Z</time>
      </trkpt>
      <trkpt lat="45.20037" lon="5.98362">
        <ele>2384.2</ele>
        <time>2022-01-16T12:56:30Z</time>
      </trkpt>
      <trkpt lat="45.20037" lon="5.98361">
        <ele>2383.8</ele>
        <time>2022-01-16T12:56:31Z</time>
      </trkpt>
      <trkpt lat="45.20038" lon="5.98362">
        <ele>2383.8</ele>
        <time>2022-01-16T12:56:32Z</time>
      </trkpt>
      <trkpt lat="45.20039" lon="5.98366">
        <ele>2382</ele>
        <time>2022-01-16T12:56:34Z</time>
      </trkpt>
      <trkpt lat="45.20039" lon="5.98366">
        <ele>2381</ele>
        <time>2022-01-16T12:56:35Z</time>
      </trkpt>
      <trkpt lat="45.20038" lon="5.98368">
        <ele>2380.6</ele>
        <time>2022-01-16T12:56:36Z</time>
      </trkpt>
      <trkpt lat="45.20036" lon="5.98371">
        <ele>2379.6</ele>
        <time>2022-01-16T12:56:38Z</time>
      </trkpt>
      <trkpt lat="45.20035" lon="5.98372">
        <ele>2377.8</ele>
        <time>2022-01-16T12:56:39Z</time>
      </trkpt>
      <trkpt lat="45.20033" lon="5.98373">
        <ele>2376</ele>
        <time>2022-01-16T12:56:41Z</time>
      </trkpt>
      <trkpt lat="45.20034" lon="5.98375">
        <ele>2375.6</ele>
        <time>2022-01-16T12:56:43Z</time>
      </trkpt>
      <trkpt lat="45.20034" lon="5.98376">
        <ele>2375.6</ele>
        <time>2022-01-16T12:56:44Z</time>
      </trkpt>
      <trkpt lat="45.20039" lon="5.98382">
        <ele>2374.2</ele>
        <time>2022-01-16T12:56:47Z</time>
      </trkpt>
      <trkpt lat="45.20041" lon="5.98385">
        <ele>2372.2</ele>
        <time>2022-01-16T12:56:48Z</time>
      </trkpt>
      <trkpt lat="45.2004" lon="5.98388">
        <ele>2372.2</ele>
        <time>2022-01-16T12:56:49Z</time>
      </trkpt>
      <trkpt lat="45.20038" lon="5.98391">
        <ele>2371.2</ele>
        <time>2022-01-16T12:56:50Z</time>
      </trkpt>
      <trkpt lat="45.20034" lon="5.98393">
        <ele>2370</ele>
        <time>2022-01-16T12:56:51Z</time>
      </trkpt>
      <trkpt lat="45.20033" lon="5.98393">
        <ele>2368</ele>
        <time>2022-01-16T12:56:52Z</time>
      </trkpt>
      <trkpt lat="45.20033" lon="5.98394">
        <ele>2367.4</ele>
        <time>2022-01-16T12:56:53Z</time>
      </trkpt>
      <trkpt lat="45.20033" lon="5.98396">
        <ele>2367</ele>
        <time>2022-01-16T12:56:54Z</time>
      </trkpt>
      <trkpt lat="45.20032" lon="5.98399">
        <ele>2366.2</ele>
        <time>2022-01-16T12:56:55Z</time>
      </trkpt>
      <trkpt lat="45.20026" lon="5.98405">
        <ele>2364.4</ele>
        <time>2022-01-16T12:56:58Z</time>
      </trkpt>
      <trkpt lat="45.20024" lon="5.98408">
        <ele>2364.2</ele>
        <time>2022-01-16T12:56:59Z</time>
      </trkpt>
      <trkpt lat="45.20021" lon="5.98411">
        <ele>2362.6</ele>
        <time>2022-01-16T12:57:00Z</time>
      </trkpt>
      <trkpt lat="45.20016" lon="5.98418">
        <ele>2361.2</ele>
        <time>2022-01-16T12:57:02Z</time>
      </trkpt>
      <trkpt lat="45.20013" lon="5.98421">
        <ele>2359.8</ele>
        <time>2022-01-16T12:57:03Z</time>
      </trkpt>
      <trkpt lat="45.20011" lon="5.98425">
        <ele>2359</ele>
        <time>2022-01-16T12:57:04Z</time>
      </trkpt>
      <trkpt lat="45.20007" lon="5.98429">
        <ele>2358.2</ele>
        <time>2022-01-16T12:57:05Z</time>
      </trkpt>
      <trkpt lat="45.20004" lon="5.98434">
        <ele>2356.4</ele>
        <time>2022-01-16T12:57:06Z</time>
      </trkpt>
      <trkpt lat="45.20001" lon="5.98438">
        <ele>2353.4</ele>
        <time>2022-01-16T12:57:07Z</time>
      </trkpt>
      <trkpt lat="45.19998" lon="5.98445">
        <ele>2353</ele>
        <time>2022-01-16T12:57:08Z</time>
      </trkpt>
      <trkpt lat="45.19995" lon="5.98451">
        <ele>2352.2</ele>
        <time>2022-01-16T12:57:09Z</time>
      </trkpt>
      <trkpt lat="45.19992" lon="5.98459">
        <ele>2349.2</ele>
        <time>2022-01-16T12:57:10Z</time>
      </trkpt>
      <trkpt lat="45.1999" lon="5.98464">
        <ele>2348.2</ele>
        <time>2022-01-16T12:57:11Z</time>
      </trkpt>
      <trkpt lat="45.1999" lon="5.98469">
        <ele>2345.8</ele>
        <time>2022-01-16T12:57:12Z</time>
      </trkpt>
      <trkpt lat="45.19988" lon="5.98483">
        <ele>2344.8</ele>
        <time>2022-01-16T12:57:15Z</time>
      </trkpt>
      <trkpt lat="45.19986" lon="5.98489">
        <ele>2343.2</ele>
        <time>2022-01-16T12:57:16Z</time>
      </trkpt>
      <trkpt lat="45.19983" lon="5.98495">
        <ele>2341.6</ele>
        <time>2022-01-16T12:57:17Z</time>
      </trkpt>
      <trkpt lat="45.19979" lon="5.98504">
        <ele>2340.4</ele>
        <time>2022-01-16T12:57:19Z</time>
      </trkpt>
      <trkpt lat="45.19975" lon="5.9851">
        <ele>2339.2</ele>
        <time>2022-01-16T12:57:20Z</time>
      </trkpt>
      <trkpt lat="45.19972" lon="5.98516">
        <ele>2337.6</ele>
        <time>2022-01-16T12:57:21Z</time>
      </trkpt>
      <trkpt lat="45.19964" lon="5.98528">
        <ele>2336</ele>
        <time>2022-01-16T12:57:23Z</time>
      </trkpt>
      <trkpt lat="45.19961" lon="5.98533">
        <ele>2332</ele>
        <time>2022-01-16T12:57:24Z</time>
      </trkpt>
      <trkpt lat="45.19962" lon="5.98537">
        <ele>2331</ele>
        <time>2022-01-16T12:57:25Z</time>
      </trkpt>
      <trkpt lat="45.19964" lon="5.98541">
        <ele>2329.2</ele>
        <time>2022-01-16T12:57:26Z</time>
      </trkpt>
      <trkpt lat="45.19966" lon="5.98545">
        <ele>2326.6</ele>
        <time>2022-01-16T12:57:27Z</time>
      </trkpt>
      <trkpt lat="45.19968" lon="5.98549">
        <ele>2325</ele>
        <time>2022-01-16T12:57:28Z</time>
      </trkpt>
      <trkpt lat="45.19969" lon="5.98554">
        <ele>2320.8</ele>
        <time>2022-01-16T12:57:29Z</time>
      </trkpt>
      <trkpt lat="45.19973" lon="5.98562">
        <ele>2318.6</ele>
        <time>2022-01-16T12:57:31Z</time>
      </trkpt>
      <trkpt lat="45.19976" lon="5.98564">
        <ele>2318.6</ele>
        <time>2022-01-16T12:57:32Z</time>
      </trkpt>
      <trkpt lat="45.19979" lon="5.98567">
        <ele>2313.6</ele>
        <time>2022-01-16T12:57:33Z</time>
      </trkpt>
      <trkpt lat="45.19982" lon="5.9858">
        <ele>2310</ele>
        <time>2022-01-16T12:57:35Z</time>
      </trkpt>
      <trkpt lat="45.19983" lon="5.98587">
        <ele>2309</ele>
        <time>2022-01-16T12:57:36Z</time>
      </trkpt>
      <trkpt lat="45.19983" lon="5.98594">
        <ele>2308</ele>
        <time>2022-01-16T12:57:37Z</time>
      </trkpt>
      <trkpt lat="45.19983" lon="5.98602">
        <ele>2306.2</ele>
        <time>2022-01-16T12:57:38Z</time>
      </trkpt>
      <trkpt lat="45.19982" lon="5.98609">
        <ele>2305.2</ele>
        <time>2022-01-16T12:57:39Z</time>
      </trkpt>
      <trkpt lat="45.19981" lon="5.98617">
        <ele>2304.4</ele>
        <time>2022-01-16T12:57:40Z</time>
      </trkpt>
      <trkpt lat="45.1998" lon="5.98624">
        <ele>2302.6</ele>
        <time>2022-01-16T12:57:41Z</time>
      </trkpt>
      <trkpt lat="45.19979" lon="5.9863">
        <ele>2300.8</ele>
        <time>2022-01-16T12:57:42Z</time>
      </trkpt>
      <trkpt lat="45.19982" lon="5.98639">
        <ele>2295.4</ele>
        <time>2022-01-16T12:57:44Z</time>
      </trkpt>
      <trkpt lat="45.19985" lon="5.98643">
        <ele>2293.2</ele>
        <time>2022-01-16T12:57:45Z</time>
      </trkpt>
      <trkpt lat="45.19987" lon="5.98648">
        <ele>2289.6</ele>
        <time>2022-01-16T12:57:46Z</time>
      </trkpt>
      <trkpt lat="45.1999" lon="5.98652">
        <ele>2286.2</ele>
        <time>2022-01-16T12:57:47Z</time>
      </trkpt>
      <trkpt lat="45.19994" lon="5.98655">
        <ele>2284.8</ele>
        <time>2022-01-16T12:57:48Z</time>
      </trkpt>
      <trkpt lat="45.19997" lon="5.9866">
        <ele>2280.2</ele>
        <time>2022-01-16T12:57:49Z</time>
      </trkpt>
      <trkpt lat="45.19999" lon="5.98663">
        <ele>2276</ele>
        <time>2022-01-16T12:57:50Z</time>
      </trkpt>
      <trkpt lat="45.20003" lon="5.98668">
        <ele>2275.8</ele>
        <time>2022-01-16T12:57:51Z</time>
      </trkpt>
      <trkpt lat="45.20006" lon="5.98671">
        <ele>2271.6</ele>
        <time>2022-01-16T12:57:52Z</time>
      </trkpt>
      <trkpt lat="45.20011" lon="5.98674">
        <ele>2268.8</ele>
        <time>2022-01-16T12:57:53Z</time>
      </trkpt>
      <trkpt lat="45.20014" lon="5.98678">
        <ele>2265.6</ele>
        <time>2022-01-16T12:57:54Z</time>
      </trkpt>
      <trkpt lat="45.20016" lon="5.98683">
        <ele>2263.6</ele>
        <time>2022-01-16T12:57:55Z</time>
      </trkpt>
      <trkpt lat="45.20018" lon="5.98686">
        <ele>2261</ele>
        <time>2022-01-16T12:57:56Z</time>
      </trkpt>
      <trkpt lat="45.20022" lon="5.98687">
        <ele>2260.2</ele>
        <time>2022-01-16T12:57:57Z</time>
      </trkpt>
      <trkpt lat="45.20025" lon="5.98686">
        <ele>2256.4</ele>
        <time>2022-01-16T12:57:58Z</time>
      </trkpt>
      <trkpt lat="45.20028" lon="5.98682">
        <ele>2255.6</ele>
        <time>2022-01-16T12:57:59Z</time>
      </trkpt>
      <trkpt lat="45.20031" lon="5.98678">
        <ele>2254.6</ele>
        <time>2022-01-16T12:58:00Z</time>
      </trkpt>
      <trkpt lat="45.20034" lon="5.98672">
        <ele>2252</ele>
        <time>2022-01-16T12:58:01Z</time>
      </trkpt>
      <trkpt lat="45.20034" lon="5.98666">
        <ele>2251.8</ele>
        <time>2022-01-16T12:58:03Z</time>
      </trkpt>
      <trkpt lat="45.20034" lon="5.98665">
        <ele>2251.6</ele>
        <time>2022-01-16T12:58:04Z</time>
      </trkpt>
      <trkpt lat="45.20034" lon="5.98665">
        <ele>2251.8</ele>
        <time>2022-01-16T12:58:05Z</time>
      </trkpt>
      <trkpt lat="45.20032" lon="5.98663">
        <ele>2251.6</ele>
        <time>2022-01-16T12:58:09Z</time>
      </trkpt>
      <trkpt lat="45.20028" lon="5.98658">
        <ele>2251.8</ele>
        <time>2022-01-16T12:58:15Z</time>
      </trkpt>
      <trkpt lat="45.20029" lon="5.98656">
        <ele>2252.4</ele>
        <time>2022-01-16T12:58:18Z</time>
      </trkpt>
      <trkpt lat="45.20031" lon="5.98656">
        <ele>2252.2</ele>
        <time>2022-01-16T12:58:23Z</time>
      </trkpt>
      <trkpt lat="45.20031" lon="5.98656">
        <ele>2252.2</ele>
        <time>2022-01-16T12:58:26Z</time>
      </trkpt>
      <trkpt lat="45.20032" lon="5.98656">
        <ele>2252.2</ele>
        <time>2022-01-16T12:58:28Z</time>
      </trkpt>
      <trkpt lat="45.20035" lon="5.98654">
        <ele>2252</ele>
        <time>2022-01-16T12:58:33Z</time>
      </trkpt>
      <trkpt lat="45.20038" lon="5.98653">
        <ele>2252</ele>
        <time>2022-01-16T12:58:34Z</time>
      </trkpt>
      <trkpt lat="45.20042" lon="5.9865">
        <ele>2250.6</ele>
        <time>2022-01-16T12:58:35Z</time>
      </trkpt>
      <trkpt lat="45.20046" lon="5.98647">
        <ele>2248.4</ele>
        <time>2022-01-16T12:58:36Z</time>
      </trkpt>
      <trkpt lat="45.20051" lon="5.98647">
        <ele>2247</ele>
        <time>2022-01-16T12:58:37Z</time>
      </trkpt>
      <trkpt lat="45.20053" lon="5.98651">
        <ele>2246.4</ele>
        <time>2022-01-16T12:58:38Z</time>
      </trkpt>
      <trkpt lat="45.20052" lon="5.98658">
        <ele>2245.8</ele>
        <time>2022-01-16T12:58:39Z</time>
      </trkpt>
      <trkpt lat="45.20051" lon="5.98664">
        <ele>2245.2</ele>
        <time>2022-01-16T12:58:40Z</time>
      </trkpt>
      <trkpt lat="45.20049" lon="5.98668">
        <ele>2243.6</ele>
        <time>2022-01-16T12:58:41Z</time>
      </trkpt>
      <trkpt lat="45.20047" lon="5.98675">
        <ele>2242.4</ele>
        <time>2022-01-16T12:58:42Z</time>
      </trkpt>
      <trkpt lat="45.20046" lon="5.98683">
        <ele>2240.2</ele>
        <time>2022-01-16T12:58:44Z</time>
      </trkpt>
      <trkpt lat="45.20049" lon="5.98686">
        <ele>2236.6</ele>
        <time>2022-01-16T12:58:46Z</time>
      </trkpt>
      <trkpt lat="45.20051" lon="5.9869">
        <ele>2235.2</ele>
        <time>2022-01-16T12:58:47Z</time>
      </trkpt>
      <trkpt lat="45.20053" lon="5.98692">
        <ele>2233.4</ele>
        <time>2022-01-16T12:58:48Z</time>
      </trkpt>
      <trkpt lat="45.20056" lon="5.98691">
        <ele>2232.2</ele>
        <time>2022-01-16T12:58:49Z</time>
      </trkpt>
      <trkpt lat="45.20059" lon="5.98688">
        <ele>2229.2</ele>
        <time>2022-01-16T12:58:50Z</time>
      </trkpt>
      <trkpt lat="45.20062" lon="5.98685">
        <ele>2226.6</ele>
        <time>2022-01-16T12:58:51Z</time>
      </trkpt>
      <trkpt lat="45.20066" lon="5.98682">
        <ele>2225.4</ele>
        <time>2022-01-16T12:58:52Z</time>
      </trkpt>
      <trkpt lat="45.20069" lon="5.98681">
        <ele>2225.4</ele>
        <time>2022-01-16T12:58:53Z</time>
      </trkpt>
      <trkpt lat="45.20074" lon="5.98681">
        <ele>2225</ele>
        <time>2022-01-16T12:58:55Z</time>
      </trkpt>
      <trkpt lat="45.20074" lon="5.98685">
        <ele>2224.4</ele>
        <time>2022-01-16T12:58:56Z</time>
      </trkpt>
      <trkpt lat="45.20073" lon="5.9869">
        <ele>2223.4</ele>
        <time>2022-01-16T12:58:57Z</time>
      </trkpt>
      <trkpt lat="45.20072" lon="5.98695">
        <ele>2221.8</ele>
        <time>2022-01-16T12:58:58Z</time>
      </trkpt>
      <trkpt lat="45.20071" lon="5.98698">
        <ele>2220.6</ele>
        <time>2022-01-16T12:58:59Z</time>
      </trkpt>
      <trkpt lat="45.2007" lon="5.98702">
        <ele>2219.2</ele>
        <time>2022-01-16T12:59:00Z</time>
      </trkpt>
      <trkpt lat="45.20071" lon="5.98703">
        <ele>2217.4</ele>
        <time>2022-01-16T12:59:01Z</time>
      </trkpt>
      <trkpt lat="45.20076" lon="5.98701">
        <ele>2214.4</ele>
        <time>2022-01-16T12:59:03Z</time>
      </trkpt>
      <trkpt lat="45.20078" lon="5.98702">
        <ele>2212.6</ele>
        <time>2022-01-16T12:59:04Z</time>
      </trkpt>
      <trkpt lat="45.20079" lon="5.98705">
        <ele>2211.8</ele>
        <time>2022-01-16T12:59:05Z</time>
      </trkpt>
      <trkpt lat="45.20079" lon="5.9871">
        <ele>2211.2</ele>
        <time>2022-01-16T12:59:06Z</time>
      </trkpt>
      <trkpt lat="45.20079" lon="5.98715">
        <ele>2209</ele>
        <time>2022-01-16T12:59:07Z</time>
      </trkpt>
      <trkpt lat="45.20078" lon="5.98719">
        <ele>2208</ele>
        <time>2022-01-16T12:59:08Z</time>
      </trkpt>
      <trkpt lat="45.20079" lon="5.98721">
        <ele>2206.8</ele>
        <time>2022-01-16T12:59:09Z</time>
      </trkpt>
      <trkpt lat="45.20084" lon="5.98717">
        <ele>2203.4</ele>
        <time>2022-01-16T12:59:11Z</time>
      </trkpt>
      <trkpt lat="45.20086" lon="5.98715">
        <ele>2202.4</ele>
        <time>2022-01-16T12:59:12Z</time>
      </trkpt>
      <trkpt lat="45.20088" lon="5.98715">
        <ele>2201.2</ele>
        <time>2022-01-16T12:59:13Z</time>
      </trkpt>
      <trkpt lat="45.20089" lon="5.9872">
        <ele>2199.8</ele>
        <time>2022-01-16T12:59:15Z</time>
      </trkpt>
      <trkpt lat="45.20087" lon="5.98729">
        <ele>2197.2</ele>
        <time>2022-01-16T12:59:17Z</time>
      </trkpt>
      <trkpt lat="45.20086" lon="5.98734">
        <ele>2196.2</ele>
        <time>2022-01-16T12:59:18Z</time>
      </trkpt>
      <trkpt lat="45.20085" lon="5.98737">
        <ele>2195.2</ele>
        <time>2022-01-16T12:59:19Z</time>
      </trkpt>
      <trkpt lat="45.20083" lon="5.98746">
        <ele>2193.6</ele>
        <time>2022-01-16T12:59:21Z</time>
      </trkpt>
      <trkpt lat="45.20079" lon="5.98752">
        <ele>2191.4</ele>
        <time>2022-01-16T12:59:23Z</time>
      </trkpt>
      <trkpt lat="45.20076" lon="5.98755">
        <ele>2190.6</ele>
        <time>2022-01-16T12:59:24Z</time>
      </trkpt>
      <trkpt lat="45.20072" lon="5.98762">
        <ele>2189</ele>
        <time>2022-01-16T12:59:26Z</time>
      </trkpt>
      <trkpt lat="45.20072" lon="5.98765">
        <ele>2188</ele>
        <time>2022-01-16T12:59:27Z</time>
      </trkpt>
      <trkpt lat="45.20074" lon="5.98766">
        <ele>2187.8</ele>
        <time>2022-01-16T12:59:28Z</time>
      </trkpt>
      <trkpt lat="45.20076" lon="5.98765">
        <ele>2184.2</ele>
        <time>2022-01-16T12:59:29Z</time>
      </trkpt>
      <trkpt lat="45.20079" lon="5.98764">
        <ele>2182.4</ele>
        <time>2022-01-16T12:59:30Z</time>
      </trkpt>
      <trkpt lat="45.20083" lon="5.98762">
        <ele>2181.4</ele>
        <time>2022-01-16T12:59:31Z</time>
      </trkpt>
      <trkpt lat="45.20086" lon="5.98761">
        <ele>2180</ele>
        <time>2022-01-16T12:59:32Z</time>
      </trkpt>
      <trkpt lat="45.20092" lon="5.9876">
        <ele>2178.2</ele>
        <time>2022-01-16T12:59:34Z</time>
      </trkpt>
      <trkpt lat="45.20094" lon="5.98765">
        <ele>2177.6</ele>
        <time>2022-01-16T12:59:35Z</time>
      </trkpt>
      <trkpt lat="45.20093" lon="5.9877">
        <ele>2176.8</ele>
        <time>2022-01-16T12:59:36Z</time>
      </trkpt>
      <trkpt lat="45.20092" lon="5.98774">
        <ele>2174</ele>
        <time>2022-01-16T12:59:37Z</time>
      </trkpt>
      <trkpt lat="45.2009" lon="5.98777">
        <ele>2173.2</ele>
        <time>2022-01-16T12:59:38Z</time>
      </trkpt>
      <trkpt lat="45.20088" lon="5.98782">
        <ele>2172</ele>
        <time>2022-01-16T12:59:39Z</time>
      </trkpt>
      <trkpt lat="45.20086" lon="5.9879">
        <ele>2170.8</ele>
        <time>2022-01-16T12:59:41Z</time>
      </trkpt>
      <trkpt lat="45.20086" lon="5.98792">
        <ele>2169.2</ele>
        <time>2022-01-16T12:59:42Z</time>
      </trkpt>
      <trkpt lat="45.20088" lon="5.98792">
        <ele>2168.2</ele>
        <time>2022-01-16T12:59:43Z</time>
      </trkpt>
      <trkpt lat="45.2009" lon="5.98791">
        <ele>2166.2</ele>
        <time>2022-01-16T12:59:44Z</time>
      </trkpt>
      <trkpt lat="45.20094" lon="5.98788">
        <ele>2164.4</ele>
        <time>2022-01-16T12:59:45Z</time>
      </trkpt>
      <trkpt lat="45.20097" lon="5.98786">
        <ele>2162.8</ele>
        <time>2022-01-16T12:59:46Z</time>
      </trkpt>
      <trkpt lat="45.201" lon="5.98784">
        <ele>2161.4</ele>
        <time>2022-01-16T12:59:47Z</time>
      </trkpt>
      <trkpt lat="45.20103" lon="5.98781">
        <ele>2160.2</ele>
        <time>2022-01-16T12:59:48Z</time>
      </trkpt>
      <trkpt lat="45.2011" lon="5.98778">
        <ele>2158.6</ele>
        <time>2022-01-16T12:59:50Z</time>
      </trkpt>
      <trkpt lat="45.20117" lon="5.98774">
        <ele>2156.8</ele>
        <time>2022-01-16T12:59:52Z</time>
      </trkpt>
      <trkpt lat="45.20123" lon="5.98774">
        <ele>2155</ele>
        <time>2022-01-16T12:59:54Z</time>
      </trkpt>
      <trkpt lat="45.20123" lon="5.98785">
        <ele>2152.2</ele>
        <time>2022-01-16T12:59:56Z</time>
      </trkpt>
      <trkpt lat="45.20117" lon="5.988">
        <ele>2150</ele>
        <time>2022-01-16T12:59:58Z</time>
      </trkpt>
      <trkpt lat="45.20114" lon="5.98809">
        <ele>2148</ele>
        <time>2022-01-16T12:59:59Z</time>
      </trkpt>
      <trkpt lat="45.20112" lon="5.98817">
        <ele>2146.4</ele>
        <time>2022-01-16T13:00:00Z</time>
      </trkpt>
      <trkpt lat="45.2011" lon="5.98824">
        <ele>2146.2</ele>
        <time>2022-01-16T13:00:01Z</time>
      </trkpt>
      <trkpt lat="45.20106" lon="5.98838">
        <ele>2144.2</ele>
        <time>2022-01-16T13:00:03Z</time>
      </trkpt>
      <trkpt lat="45.20105" lon="5.98848">
        <ele>2143.2</ele>
        <time>2022-01-16T13:00:04Z</time>
      </trkpt>
      <trkpt lat="45.20104" lon="5.98855">
        <ele>2141</ele>
        <time>2022-01-16T13:00:05Z</time>
      </trkpt>
      <trkpt lat="45.20105" lon="5.9886">
        <ele>2139.8</ele>
        <time>2022-01-16T13:00:06Z</time>
      </trkpt>
      <trkpt lat="45.20107" lon="5.98861">
        <ele>2138.8</ele>
        <time>2022-01-16T13:00:07Z</time>
      </trkpt>
      <trkpt lat="45.20111" lon="5.98859">
        <ele>2135.8</ele>
        <time>2022-01-16T13:00:08Z</time>
      </trkpt>
      <trkpt lat="45.20115" lon="5.98855">
        <ele>2132.6</ele>
        <time>2022-01-16T13:00:09Z</time>
      </trkpt>
      <trkpt lat="45.20122" lon="5.9885">
        <ele>2132.4</ele>
        <time>2022-01-16T13:00:10Z</time>
      </trkpt>
      <trkpt lat="45.20128" lon="5.98845">
        <ele>2131.4</ele>
        <time>2022-01-16T13:00:11Z</time>
      </trkpt>
      <trkpt lat="45.20132" lon="5.98841">
        <ele>2129</ele>
        <time>2022-01-16T13:00:12Z</time>
      </trkpt>
      <trkpt lat="45.20139" lon="5.98833">
        <ele>2125.4</ele>
        <time>2022-01-16T13:00:13Z</time>
      </trkpt>
      <trkpt lat="45.20149" lon="5.98821">
        <ele>2125</ele>
        <time>2022-01-16T13:00:15Z</time>
      </trkpt>
      <trkpt lat="45.20152" lon="5.98816">
        <ele>2122</ele>
        <time>2022-01-16T13:00:16Z</time>
      </trkpt>
      <trkpt lat="45.20156" lon="5.98815">
        <ele>2120</ele>
        <time>2022-01-16T13:00:17Z</time>
      </trkpt>
      <trkpt lat="45.20159" lon="5.9882">
        <ele>2120</ele>
        <time>2022-01-16T13:00:18Z</time>
      </trkpt>
      <trkpt lat="45.20158" lon="5.98833">
        <ele>2118.2</ele>
        <time>2022-01-16T13:00:20Z</time>
      </trkpt>
      <trkpt lat="45.20158" lon="5.98837">
        <ele>2117.2</ele>
        <time>2022-01-16T13:00:21Z</time>
      </trkpt>
      <trkpt lat="45.20161" lon="5.98838">
        <ele>2115.6</ele>
        <time>2022-01-16T13:00:22Z</time>
      </trkpt>
      <trkpt lat="45.20166" lon="5.98838">
        <ele>2112.2</ele>
        <time>2022-01-16T13:00:23Z</time>
      </trkpt>
      <trkpt lat="45.20173" lon="5.98834">
        <ele>2110</ele>
        <time>2022-01-16T13:00:24Z</time>
      </trkpt>
      <trkpt lat="45.20178" lon="5.9883">
        <ele>2108.6</ele>
        <time>2022-01-16T13:00:25Z</time>
      </trkpt>
      <trkpt lat="45.20184" lon="5.98824">
        <ele>2106.4</ele>
        <time>2022-01-16T13:00:26Z</time>
      </trkpt>
      <trkpt lat="45.2019" lon="5.98817">
        <ele>2103.4</ele>
        <time>2022-01-16T13:00:27Z</time>
      </trkpt>
      <trkpt lat="45.20205" lon="5.98804">
        <ele>2102</ele>
        <time>2022-01-16T13:00:29Z</time>
      </trkpt>
      <trkpt lat="45.20218" lon="5.98795">
        <ele>2101.4</ele>
        <time>2022-01-16T13:00:31Z</time>
      </trkpt>
      <trkpt lat="45.20223" lon="5.98793">
        <ele>2097.6</ele>
        <time>2022-01-16T13:00:32Z</time>
      </trkpt>
      <trkpt lat="45.2023" lon="5.98792">
        <ele>2095.8</ele>
        <time>2022-01-16T13:00:33Z</time>
      </trkpt>
      <trkpt lat="45.20244" lon="5.98788">
        <ele>2094.6</ele>
        <time>2022-01-16T13:00:36Z</time>
      </trkpt>
      <trkpt lat="45.20256" lon="5.98786">
        <ele>2092.4</ele>
        <time>2022-01-16T13:00:38Z</time>
      </trkpt>
      <trkpt lat="45.20262" lon="5.98785">
        <ele>2090.6</ele>
        <time>2022-01-16T13:00:39Z</time>
      </trkpt>
      <trkpt lat="45.20269" lon="5.98783">
        <ele>2088.8</ele>
        <time>2022-01-16T13:00:40Z</time>
      </trkpt>
      <trkpt lat="45.20281" lon="5.98778">
        <ele>2087</ele>
        <time>2022-01-16T13:00:42Z</time>
      </trkpt>
      <trkpt lat="45.2029" lon="5.98774">
        <ele>2085.6</ele>
        <time>2022-01-16T13:00:43Z</time>
      </trkpt>
      <trkpt lat="45.20309" lon="5.98767">
        <ele>2082.8</ele>
        <time>2022-01-16T13:00:46Z</time>
      </trkpt>
      <trkpt lat="45.20316" lon="5.98766">
        <ele>2082.8</ele>
        <time>2022-01-16T13:00:47Z</time>
      </trkpt>
      <trkpt lat="45.20322" lon="5.98765">
        <ele>2082.8</ele>
        <time>2022-01-16T13:00:48Z</time>
      </trkpt>
      <trkpt lat="45.20328" lon="5.98763">
        <ele>2081.6</ele>
        <time>2022-01-16T13:00:49Z</time>
      </trkpt>
      <trkpt lat="45.20334" lon="5.98762">
        <ele>2079</ele>
        <time>2022-01-16T13:00:50Z</time>
      </trkpt>
      <trkpt lat="45.20345" lon="5.98758">
        <ele>2078</ele>
        <time>2022-01-16T13:00:52Z</time>
      </trkpt>
      <trkpt lat="45.2035" lon="5.98755">
        <ele>2077</ele>
        <time>2022-01-16T13:00:53Z</time>
      </trkpt>
      <trkpt lat="45.20355" lon="5.98753">
        <ele>2077</ele>
        <time>2022-01-16T13:00:54Z</time>
      </trkpt>
      <trkpt lat="45.20361" lon="5.98749">
        <ele>2074</ele>
        <time>2022-01-16T13:00:55Z</time>
      </trkpt>
      <trkpt lat="45.20365" lon="5.98746">
        <ele>2072.6</ele>
        <time>2022-01-16T13:00:56Z</time>
      </trkpt>
      <trkpt lat="45.2037" lon="5.98739">
        <ele>2072</ele>
        <time>2022-01-16T13:00:58Z</time>
      </trkpt>
      <trkpt lat="45.20372" lon="5.98736">
        <ele>2072.2</ele>
        <time>2022-01-16T13:01:01Z</time>
      </trkpt>
      <trkpt lat="45.20372" lon="5.98736">
        <ele>2072.4</ele>
        <time>2022-01-16T13:01:02Z</time>
      </trkpt>
      <trkpt lat="45.20371" lon="5.98737">
        <ele>2072.4</ele>
        <time>2022-01-16T13:01:05Z</time>
      </trkpt>
      <trkpt lat="45.20376" lon="5.98736">
        <ele>2072.2</ele>
        <time>2022-01-16T13:01:09Z</time>
      </trkpt>
      <trkpt lat="45.2038" lon="5.98734">
        <ele>2072</ele>
        <time>2022-01-16T13:01:10Z</time>
      </trkpt>
      <trkpt lat="45.20384" lon="5.9873">
        <ele>2071</ele>
        <time>2022-01-16T13:01:11Z</time>
      </trkpt>
      <trkpt lat="45.2039" lon="5.98727">
        <ele>2069.8</ele>
        <time>2022-01-16T13:01:12Z</time>
      </trkpt>
      <trkpt lat="45.20396" lon="5.98722">
        <ele>2066.2</ele>
        <time>2022-01-16T13:01:13Z</time>
      </trkpt>
      <trkpt lat="45.20401" lon="5.98717">
        <ele>2065</ele>
        <time>2022-01-16T13:01:14Z</time>
      </trkpt>
      <trkpt lat="45.20408" lon="5.98711">
        <ele>2063</ele>
        <time>2022-01-16T13:01:16Z</time>
      </trkpt>
      <trkpt lat="45.20413" lon="5.98711">
        <ele>2061.8</ele>
        <time>2022-01-16T13:01:17Z</time>
      </trkpt>
      <trkpt lat="45.20415" lon="5.98715">
        <ele>2060</ele>
        <time>2022-01-16T13:01:18Z</time>
      </trkpt>
      <trkpt lat="45.20415" lon="5.98721">
        <ele>2057.8</ele>
        <time>2022-01-16T13:01:19Z</time>
      </trkpt>
      <trkpt lat="45.20415" lon="5.98729">
        <ele>2054.6</ele>
        <time>2022-01-16T13:01:20Z</time>
      </trkpt>
      <trkpt lat="45.20417" lon="5.98732">
        <ele>2054.6</ele>
        <time>2022-01-16T13:01:21Z</time>
      </trkpt>
      <trkpt lat="45.20421" lon="5.98732">
        <ele>2052.2</ele>
        <time>2022-01-16T13:01:22Z</time>
      </trkpt>
      <trkpt lat="45.20428" lon="5.98729">
        <ele>2047.2</ele>
        <time>2022-01-16T13:01:23Z</time>
      </trkpt>
      <trkpt lat="45.20434" lon="5.98724">
        <ele>2045.8</ele>
        <time>2022-01-16T13:01:24Z</time>
      </trkpt>
      <trkpt lat="45.2044" lon="5.98718">
        <ele>2044.4</ele>
        <time>2022-01-16T13:01:25Z</time>
      </trkpt>
      <trkpt lat="45.20445" lon="5.98713">
        <ele>2041.8</ele>
        <time>2022-01-16T13:01:26Z</time>
      </trkpt>
      <trkpt lat="45.2045" lon="5.98709">
        <ele>2039.2</ele>
        <time>2022-01-16T13:01:27Z</time>
      </trkpt>
      <trkpt lat="45.20459" lon="5.98703">
        <ele>2038.6</ele>
        <time>2022-01-16T13:01:29Z</time>
      </trkpt>
      <trkpt lat="45.20463" lon="5.98701">
        <ele>2037.6</ele>
        <time>2022-01-16T13:01:30Z</time>
      </trkpt>
      <trkpt lat="45.2047" lon="5.98698">
        <ele>2036.8</ele>
        <time>2022-01-16T13:01:32Z</time>
      </trkpt>
      <trkpt lat="45.20472" lon="5.98703">
        <ele>2035.2</ele>
        <time>2022-01-16T13:01:33Z</time>
      </trkpt>
      <trkpt lat="45.20474" lon="5.98711">
        <ele>2033.4</ele>
        <time>2022-01-16T13:01:35Z</time>
      </trkpt>
      <trkpt lat="45.20477" lon="5.98712">
        <ele>2031.8</ele>
        <time>2022-01-16T13:01:36Z</time>
      </trkpt>
      <trkpt lat="45.20481" lon="5.98711">
        <ele>2028.2</ele>
        <time>2022-01-16T13:01:37Z</time>
      </trkpt>
      <trkpt lat="45.20485" lon="5.98707">
        <ele>2024.8</ele>
        <time>2022-01-16T13:01:38Z</time>
      </trkpt>
      <trkpt lat="45.20487" lon="5.98704">
        <ele>2023.6</ele>
        <time>2022-01-16T13:01:39Z</time>
      </trkpt>
      <trkpt lat="45.20496" lon="5.98693">
        <ele>2021.4</ele>
        <time>2022-01-16T13:01:41Z</time>
      </trkpt>
      <trkpt lat="45.20501" lon="5.98689">
        <ele>2019.8</ele>
        <time>2022-01-16T13:01:42Z</time>
      </trkpt>
      <trkpt lat="45.20506" lon="5.98687">
        <ele>2018.8</ele>
        <time>2022-01-16T13:01:43Z</time>
      </trkpt>
      <trkpt lat="45.20517" lon="5.98681">
        <ele>2017.6</ele>
        <time>2022-01-16T13:01:45Z</time>
      </trkpt>
      <trkpt lat="45.20526" lon="5.98674">
        <ele>2017.2</ele>
        <time>2022-01-16T13:01:47Z</time>
      </trkpt>
      <trkpt lat="45.2053" lon="5.9867">
        <ele>2016.8</ele>
        <time>2022-01-16T13:01:48Z</time>
      </trkpt>
      <trkpt lat="45.20538" lon="5.98661">
        <ele>2015</ele>
        <time>2022-01-16T13:01:50Z</time>
      </trkpt>
      <trkpt lat="45.20553" lon="5.98646">
        <ele>2013.4</ele>
        <time>2022-01-16T13:01:53Z</time>
      </trkpt>
      <trkpt lat="45.20558" lon="5.9864">
        <ele>2013</ele>
        <time>2022-01-16T13:01:54Z</time>
      </trkpt>
      <trkpt lat="45.20563" lon="5.98635">
        <ele>2011</ele>
        <time>2022-01-16T13:01:55Z</time>
      </trkpt>
      <trkpt lat="45.20567" lon="5.9863">
        <ele>2011</ele>
        <time>2022-01-16T13:01:56Z</time>
      </trkpt>
      <trkpt lat="45.20573" lon="5.9862">
        <ele>2010</ele>
        <time>2022-01-16T13:01:58Z</time>
      </trkpt>
      <trkpt lat="45.20578" lon="5.98604">
        <ele>2007.4</ele>
        <time>2022-01-16T13:02:01Z</time>
      </trkpt>
      <trkpt lat="45.20581" lon="5.98594">
        <ele>2006</ele>
        <time>2022-01-16T13:02:03Z</time>
      </trkpt>
      <trkpt lat="45.20584" lon="5.98587">
        <ele>2005.8</ele>
        <time>2022-01-16T13:02:04Z</time>
      </trkpt>
      <trkpt lat="45.20588" lon="5.98581">
        <ele>2005.6</ele>
        <time>2022-01-16T13:02:05Z</time>
      </trkpt>
      <trkpt lat="45.20595" lon="5.98568">
        <ele>2003.2</ele>
        <time>2022-01-16T13:02:07Z</time>
      </trkpt>
      <trkpt lat="45.20599" lon="5.98562">
        <ele>2001.8</ele>
        <time>2022-01-16T13:02:08Z</time>
      </trkpt>
      <trkpt lat="45.20611" lon="5.9854">
        <ele>2000.2</ele>
        <time>2022-01-16T13:02:12Z</time>
      </trkpt>
      <trkpt lat="45.20616" lon="5.98535">
        <ele>1999</ele>
        <time>2022-01-16T13:02:13Z</time>
      </trkpt>
      <trkpt lat="45.20621" lon="5.98529">
        <ele>1997</ele>
        <time>2022-01-16T13:02:14Z</time>
      </trkpt>
      <trkpt lat="45.20626" lon="5.98527">
        <ele>1996.4</ele>
        <time>2022-01-16T13:02:15Z</time>
      </trkpt>
      <trkpt lat="45.20631" lon="5.98527">
        <ele>1994.4</ele>
        <time>2022-01-16T13:02:16Z</time>
      </trkpt>
      <trkpt lat="45.20644" lon="5.9853">
        <ele>1994</ele>
        <time>2022-01-16T13:02:18Z</time>
      </trkpt>
      <trkpt lat="45.20657" lon="5.98529">
        <ele>1992.2</ele>
        <time>2022-01-16T13:02:20Z</time>
      </trkpt>
      <trkpt lat="45.20663" lon="5.98527">
        <ele>1991</ele>
        <time>2022-01-16T13:02:21Z</time>
      </trkpt>
      <trkpt lat="45.20675" lon="5.98525">
        <ele>1989.6</ele>
        <time>2022-01-16T13:02:23Z</time>
      </trkpt>
      <trkpt lat="45.20682" lon="5.98523">
        <ele>1988.6</ele>
        <time>2022-01-16T13:02:24Z</time>
      </trkpt>
      <trkpt lat="45.20688" lon="5.98521">
        <ele>1988.4</ele>
        <time>2022-01-16T13:02:25Z</time>
      </trkpt>
      <trkpt lat="45.20695" lon="5.98519">
        <ele>1987</ele>
        <time>2022-01-16T13:02:26Z</time>
      </trkpt>
      <trkpt lat="45.20701" lon="5.98517">
        <ele>1984.2</ele>
        <time>2022-01-16T13:02:27Z</time>
      </trkpt>
      <trkpt lat="45.20707" lon="5.98515">
        <ele>1982.8</ele>
        <time>2022-01-16T13:02:28Z</time>
      </trkpt>
      <trkpt lat="45.2072" lon="5.98511">
        <ele>1982.2</ele>
        <time>2022-01-16T13:02:30Z</time>
      </trkpt>
      <trkpt lat="45.2074" lon="5.98505">
        <ele>1979.2</ele>
        <time>2022-01-16T13:02:33Z</time>
      </trkpt>
      <trkpt lat="45.20746" lon="5.98504">
        <ele>1977.8</ele>
        <time>2022-01-16T13:02:34Z</time>
      </trkpt>
      <trkpt lat="45.2077" lon="5.985">
        <ele>1977</ele>
        <time>2022-01-16T13:02:38Z</time>
      </trkpt>
      <trkpt lat="45.20776" lon="5.98499">
        <ele>1974.8</ele>
        <time>2022-01-16T13:02:39Z</time>
      </trkpt>
      <trkpt lat="45.2079" lon="5.98498">
        <ele>1973.4</ele>
        <time>2022-01-16T13:02:41Z</time>
      </trkpt>
      <trkpt lat="45.20798" lon="5.985">
        <ele>1971.2</ele>
        <time>2022-01-16T13:02:43Z</time>
      </trkpt>
      <trkpt lat="45.2082" lon="5.98508">
        <ele>1970</ele>
        <time>2022-01-16T13:02:47Z</time>
      </trkpt>
      <trkpt lat="45.2083" lon="5.98512">
        <ele>1968</ele>
        <time>2022-01-16T13:02:49Z</time>
      </trkpt>
      <trkpt lat="45.20853" lon="5.98519">
        <ele>1965.6</ele>
        <time>2022-01-16T13:02:53Z</time>
      </trkpt>
      <trkpt lat="45.20859" lon="5.98521">
        <ele>1963</ele>
        <time>2022-01-16T13:02:54Z</time>
      </trkpt>
      <trkpt lat="45.20865" lon="5.98524">
        <ele>1962</ele>
        <time>2022-01-16T13:02:55Z</time>
      </trkpt>
      <trkpt lat="45.20889" lon="5.98535">
        <ele>1961</ele>
        <time>2022-01-16T13:02:59Z</time>
      </trkpt>
      <trkpt lat="45.20895" lon="5.98537">
        <ele>1959.6</ele>
        <time>2022-01-16T13:03:00Z</time>
      </trkpt>
      <trkpt lat="45.20908" lon="5.98542">
        <ele>1956.8</ele>
        <time>2022-01-16T13:03:02Z</time>
      </trkpt>
      <trkpt lat="45.2092" lon="5.98547">
        <ele>1955</ele>
        <time>2022-01-16T13:03:04Z</time>
      </trkpt>
      <trkpt lat="45.20935" lon="5.98553">
        <ele>1953.6</ele>
        <time>2022-01-16T13:03:07Z</time>
      </trkpt>
      <trkpt lat="45.20947" lon="5.98557">
        <ele>1953.2</ele>
        <time>2022-01-16T13:03:10Z</time>
      </trkpt>
      <trkpt lat="45.20951" lon="5.98558">
        <ele>1953</ele>
        <time>2022-01-16T13:03:11Z</time>
      </trkpt>
      <trkpt lat="45.20956" lon="5.9856">
        <ele>1952</ele>
        <time>2022-01-16T13:03:12Z</time>
      </trkpt>
      <trkpt lat="45.2096" lon="5.98561">
        <ele>1951.8</ele>
        <time>2022-01-16T13:03:13Z</time>
      </trkpt>
      <trkpt lat="45.20964" lon="5.98561">
        <ele>1951</ele>
        <time>2022-01-16T13:03:14Z</time>
      </trkpt>
      <trkpt lat="45.20968" lon="5.9856">
        <ele>1949.4</ele>
        <time>2022-01-16T13:03:15Z</time>
      </trkpt>
      <trkpt lat="45.20972" lon="5.98558">
        <ele>1949</ele>
        <time>2022-01-16T13:03:16Z</time>
      </trkpt>
      <trkpt lat="45.20979" lon="5.98554">
        <ele>1948.4</ele>
        <time>2022-01-16T13:03:18Z</time>
      </trkpt>
      <trkpt lat="45.20986" lon="5.9855">
        <ele>1948.2</ele>
        <time>2022-01-16T13:03:20Z</time>
      </trkpt>
      <trkpt lat="45.20991" lon="5.98544">
        <ele>1947.6</ele>
        <time>2022-01-16T13:03:22Z</time>
      </trkpt>
      <trkpt lat="45.20993" lon="5.98541">
        <ele>1945.4</ele>
        <time>2022-01-16T13:03:23Z</time>
      </trkpt>
      <trkpt lat="45.20996" lon="5.98531">
        <ele>1945</ele>
        <time>2022-01-16T13:03:25Z</time>
      </trkpt>
      <trkpt lat="45.20998" lon="5.98525">
        <ele>1944.8</ele>
        <time>2022-01-16T13:03:26Z</time>
      </trkpt>
      <trkpt lat="45.21001" lon="5.9852">
        <ele>1943.8</ele>
        <time>2022-01-16T13:03:27Z</time>
      </trkpt>
      <trkpt lat="45.21003" lon="5.98517">
        <ele>1943.6</ele>
        <time>2022-01-16T13:03:28Z</time>
      </trkpt>
      <trkpt lat="45.21006" lon="5.98515">
        <ele>1942.6</ele>
        <time>2022-01-16T13:03:29Z</time>
      </trkpt>
      <trkpt lat="45.21008" lon="5.98512">
        <ele>1942.6</ele>
        <time>2022-01-16T13:03:30Z</time>
      </trkpt>
      <trkpt lat="45.21014" lon="5.98503">
        <ele>1941.6</ele>
        <time>2022-01-16T13:03:33Z</time>
      </trkpt>
      <trkpt lat="45.21016" lon="5.98499">
        <ele>1940.4</ele>
        <time>2022-01-16T13:03:34Z</time>
      </trkpt>
      <trkpt lat="45.21019" lon="5.98492">
        <ele>1938.4</ele>
        <time>2022-01-16T13:03:36Z</time>
      </trkpt>
      <trkpt lat="45.21021" lon="5.98484">
        <ele>1936</ele>
        <time>2022-01-16T13:03:38Z</time>
      </trkpt>
      <trkpt lat="45.21023" lon="5.98478">
        <ele>1934.8</ele>
        <time>2022-01-16T13:03:40Z</time>
      </trkpt>
      <trkpt lat="45.21024" lon="5.98475">
        <ele>1934.4</ele>
        <time>2022-01-16T13:03:42Z</time>
      </trkpt>
      <trkpt lat="45.21025" lon="5.98472">
        <ele>1933.6</ele>
        <time>2022-01-16T13:03:44Z</time>
      </trkpt>
      <trkpt lat="45.21026" lon="5.9847">
        <ele>1933.2</ele>
        <time>2022-01-16T13:03:45Z</time>
      </trkpt>
      <trkpt lat="45.21028" lon="5.98469">
        <ele>1932.6</ele>
        <time>2022-01-16T13:03:46Z</time>
      </trkpt>
      <trkpt lat="45.21029" lon="5.98467">
        <ele>1932.4</ele>
        <time>2022-01-16T13:03:47Z</time>
      </trkpt>
      <trkpt lat="45.21031" lon="5.98466">
        <ele>1931.6</ele>
        <time>2022-01-16T13:03:48Z</time>
      </trkpt>
      <trkpt lat="45.21032" lon="5.98468">
        <ele>1931.4</ele>
        <time>2022-01-16T13:03:49Z</time>
      </trkpt>
      <trkpt lat="45.21033" lon="5.9847">
        <ele>1930</ele>
        <time>2022-01-16T13:03:50Z</time>
      </trkpt>
      <trkpt lat="45.21033" lon="5.98471">
        <ele>1927.8</ele>
        <time>2022-01-16T13:03:51Z</time>
      </trkpt>
      <trkpt lat="45.21034" lon="5.98471">
        <ele>1927.4</ele>
        <time>2022-01-16T13:03:53Z</time>
      </trkpt>
      <trkpt lat="45.21035" lon="5.98476">
        <ele>1927.2</ele>
        <time>2022-01-16T13:03:55Z</time>
      </trkpt>
      <trkpt lat="45.21036" lon="5.98478">
        <ele>1925.2</ele>
        <time>2022-01-16T13:03:56Z</time>
      </trkpt>
      <trkpt lat="45.21037" lon="5.98478">
        <ele>1924.6</ele>
        <time>2022-01-16T13:03:57Z</time>
      </trkpt>
      <trkpt lat="45.21037" lon="5.98477">
        <ele>1924</ele>
        <time>2022-01-16T13:03:58Z</time>
      </trkpt>
      <trkpt lat="45.21038" lon="5.98475">
        <ele>1922.4</ele>
        <time>2022-01-16T13:03:59Z</time>
      </trkpt>
      <trkpt lat="45.21039" lon="5.98472">
        <ele>1922.2</ele>
        <time>2022-01-16T13:04:00Z</time>
      </trkpt>
      <trkpt lat="45.21042" lon="5.98466">
        <ele>1921.4</ele>
        <time>2022-01-16T13:04:02Z</time>
      </trkpt>
      <trkpt lat="45.21044" lon="5.98461">
        <ele>1919.4</ele>
        <time>2022-01-16T13:04:03Z</time>
      </trkpt>
      <trkpt lat="45.21047" lon="5.98453">
        <ele>1918</ele>
        <time>2022-01-16T13:04:05Z</time>
      </trkpt>
      <trkpt lat="45.21047" lon="5.98449">
        <ele>1916.8</ele>
        <time>2022-01-16T13:04:07Z</time>
      </trkpt>
      <trkpt lat="45.21047" lon="5.98449">
        <ele>1916.6</ele>
        <time>2022-01-16T13:04:09Z</time>
      </trkpt>
      <trkpt lat="45.21052" lon="5.98448">
        <ele>1915.8</ele>
        <time>2022-01-16T13:04:15Z</time>
      </trkpt>
      <trkpt lat="45.21053" lon="5.98451">
        <ele>1915.2</ele>
        <time>2022-01-16T13:04:16Z</time>
      </trkpt>
      <trkpt lat="45.21054" lon="5.98453">
        <ele>1912.8</ele>
        <time>2022-01-16T13:04:17Z</time>
      </trkpt>
      <trkpt lat="45.21054" lon="5.98459">
        <ele>1911.6</ele>
        <time>2022-01-16T13:04:19Z</time>
      </trkpt>
      <trkpt lat="45.21054" lon="5.98466">
        <ele>1910.4</ele>
        <time>2022-01-16T13:04:22Z</time>
      </trkpt>
      <trkpt lat="45.21054" lon="5.98468">
        <ele>1909.8</ele>
        <time>2022-01-16T13:04:24Z</time>
      </trkpt>
      <trkpt lat="45.21054" lon="5.98469">
        <ele>1909.4</ele>
        <time>2022-01-16T13:04:25Z</time>
      </trkpt>
      <trkpt lat="45.21054" lon="5.98469">
        <ele>1908.8</ele>
        <time>2022-01-16T13:04:27Z</time>
      </trkpt>
      <trkpt lat="45.21055" lon="5.98474">
        <ele>1908</ele>
        <time>2022-01-16T13:04:30Z</time>
      </trkpt>
      <trkpt lat="45.21056" lon="5.98474">
        <ele>1906.8</ele>
        <time>2022-01-16T13:04:33Z</time>
      </trkpt>
      <trkpt lat="45.21056" lon="5.98475">
        <ele>1906.8</ele>
        <time>2022-01-16T13:04:34Z</time>
      </trkpt>
      <trkpt lat="45.21056" lon="5.98475">
        <ele>1905.8</ele>
        <time>2022-01-16T13:04:36Z</time>
      </trkpt>
      <trkpt lat="45.21057" lon="5.98476">
        <ele>1904.6</ele>
        <time>2022-01-16T13:04:39Z</time>
      </trkpt>
      <trkpt lat="45.21059" lon="5.98477">
        <ele>1904.2</ele>
        <time>2022-01-16T13:04:41Z</time>
      </trkpt>
      <trkpt lat="45.21061" lon="5.9848">
        <ele>1902.2</ele>
        <time>2022-01-16T13:04:43Z</time>
      </trkpt>
      <trkpt lat="45.21062" lon="5.98481">
        <ele>1901.8</ele>
        <time>2022-01-16T13:04:45Z</time>
      </trkpt>
      <trkpt lat="45.21063" lon="5.98479">
        <ele>1901.2</ele>
        <time>2022-01-16T13:04:50Z</time>
      </trkpt>
      <trkpt lat="45.21064" lon="5.98479">
        <ele>1899.8</ele>
        <time>2022-01-16T13:04:53Z</time>
      </trkpt>
      <trkpt lat="45.21064" lon="5.98479">
        <ele>1899.8</ele>
        <time>2022-01-16T13:04:54Z</time>
      </trkpt>
      <trkpt lat="45.21063" lon="5.98479">
        <ele>1899.6</ele>
        <time>2022-01-16T13:04:55Z</time>
      </trkpt>
      <trkpt lat="45.21065" lon="5.9848">
        <ele>1898.8</ele>
        <time>2022-01-16T13:05:00Z</time>
      </trkpt>
      <trkpt lat="45.21065" lon="5.98479">
        <ele>1897.8</ele>
        <time>2022-01-16T13:05:03Z</time>
      </trkpt>
      <trkpt lat="45.21066" lon="5.98479">
        <ele>1897.6</ele>
        <time>2022-01-16T13:05:04Z</time>
      </trkpt>
      <trkpt lat="45.21066" lon="5.98477">
        <ele>1896.2</ele>
        <time>2022-01-16T13:05:08Z</time>
      </trkpt>
      <trkpt lat="45.21067" lon="5.98473">
        <ele>1895</ele>
        <time>2022-01-16T13:05:13Z</time>
      </trkpt>
      <trkpt lat="45.21068" lon="5.98468">
        <ele>1894.8</ele>
        <time>2022-01-16T13:05:18Z</time>
      </trkpt>
      <trkpt lat="45.21068" lon="5.98467">
        <ele>1893.6</ele>
        <time>2022-01-16T13:05:20Z</time>
      </trkpt>
      <trkpt lat="45.21068" lon="5.98465">
        <ele>1893.4</ele>
        <time>2022-01-16T13:05:22Z</time>
      </trkpt>
      <trkpt lat="45.21066" lon="5.98463">
        <ele>1893</ele>
        <time>2022-01-16T13:05:25Z</time>
      </trkpt>
      <trkpt lat="45.21066" lon="5.98462">
        <ele>1892</ele>
        <time>2022-01-16T13:05:27Z</time>
      </trkpt>
      <trkpt lat="45.21065" lon="5.98462">
        <ele>1891.4</ele>
        <time>2022-01-16T13:05:31Z</time>
      </trkpt>
      <trkpt lat="45.21065" lon="5.98463">
        <ele>1891</ele>
        <time>2022-01-16T13:05:33Z</time>
      </trkpt>
      <trkpt lat="45.21066" lon="5.98465">
        <ele>1890.8</ele>
        <time>2022-01-16T13:05:36Z</time>
      </trkpt>
      <trkpt lat="45.21066" lon="5.98464">
        <ele>1890.4</ele>
        <time>2022-01-16T13:05:42Z</time>
      </trkpt>
      <trkpt lat="45.21066" lon="5.98466">
        <ele>1890.6</ele>
        <time>2022-01-16T13:05:45Z</time>
      </trkpt>
      <trkpt lat="45.21066" lon="5.98466">
        <ele>1890.8</ele>
        <time>2022-01-16T13:05:51Z</time>
      </trkpt>
      <trkpt lat="45.21066" lon="5.98466">
        <ele>1890.6</ele>
        <time>2022-01-16T13:05:57Z</time>
      </trkpt>
      <trkpt lat="45.21066" lon="5.98466">
        <ele>1890.2</ele>
        <time>2022-01-16T13:06:03Z</time>
      </trkpt>
      <trkpt lat="45.21067" lon="5.98467">
        <ele>1889.8</ele>
        <time>2022-01-16T13:06:06Z</time>
      </trkpt>
      <trkpt lat="45.21069" lon="5.98467">
        <ele>1889</ele>
        <time>2022-01-16T13:06:12Z</time>
      </trkpt>
      <trkpt lat="45.21069" lon="5.98467">
        <ele>1888.6</ele>
        <time>2022-01-16T13:06:14Z</time>
      </trkpt>
      <trkpt lat="45.21069" lon="5.98468">
        <ele>1888.2</ele>
        <time>2022-01-16T13:06:16Z</time>
      </trkpt>
      <trkpt lat="45.2107" lon="5.98468">
        <ele>1887.4</ele>
        <time>2022-01-16T13:06:20Z</time>
      </trkpt>
      <trkpt lat="45.21072" lon="5.98468">
        <ele>1886.8</ele>
        <time>2022-01-16T13:06:26Z</time>
      </trkpt>
      <trkpt lat="45.21073" lon="5.98468">
        <ele>1886.4</ele>
        <time>2022-01-16T13:06:27Z</time>
      </trkpt>
      <trkpt lat="45.21074" lon="5.98468">
        <ele>1885.8</ele>
        <time>2022-01-16T13:06:32Z</time>
      </trkpt>
      <trkpt lat="45.21074" lon="5.98468">
        <ele>1885.4</ele>
        <time>2022-01-16T13:06:38Z</time>
      </trkpt>
      <trkpt lat="45.21074" lon="5.98467">
        <ele>1884.8</ele>
        <time>2022-01-16T13:06:41Z</time>
      </trkpt>
      <trkpt lat="45.21075" lon="5.98466">
        <ele>1884.2</ele>
        <time>2022-01-16T13:06:45Z</time>
      </trkpt>
      <trkpt lat="45.21075" lon="5.98465">
        <ele>1883.2</ele>
        <time>2022-01-16T13:06:50Z</time>
      </trkpt>
      <trkpt lat="45.21075" lon="5.98464">
        <ele>1882</ele>
        <time>2022-01-16T13:06:56Z</time>
      </trkpt>
      <trkpt lat="45.21076" lon="5.98461">
        <ele>1881</ele>
        <time>2022-01-16T13:07:02Z</time>
      </trkpt>
      <trkpt lat="45.21076" lon="5.98461">
        <ele>1880.6</ele>
        <time>2022-01-16T13:07:03Z</time>
      </trkpt>
      <trkpt lat="45.21077" lon="5.98459">
        <ele>1880</ele>
        <time>2022-01-16T13:07:07Z</time>
      </trkpt>
      <trkpt lat="45.21077" lon="5.98459">
        <ele>1879.4</ele>
        <time>2022-01-16T13:07:11Z</time>
      </trkpt>
      <trkpt lat="45.21078" lon="5.98458">
        <ele>1878.2</ele>
        <time>2022-01-16T13:07:15Z</time>
      </trkpt>
      <trkpt lat="45.2108" lon="5.98457">
        <ele>1876.2</ele>
        <time>2022-01-16T13:07:20Z</time>
      </trkpt>
      <trkpt lat="45.21082" lon="5.98455">
        <ele>1875.4</ele>
        <time>2022-01-16T13:07:22Z</time>
      </trkpt>
      <trkpt lat="45.21083" lon="5.98452">
        <ele>1875.2</ele>
        <time>2022-01-16T13:07:24Z</time>
      </trkpt>
      <trkpt lat="45.21088" lon="5.98445">
        <ele>1873.8</ele>
        <time>2022-01-16T13:07:28Z</time>
      </trkpt>
      <trkpt lat="45.21089" lon="5.98444">
        <ele>1872.6</ele>
        <time>2022-01-16T13:07:29Z</time>
      </trkpt>
      <trkpt lat="45.21089" lon="5.98444">
        <ele>1872.4</ele>
        <time>2022-01-16T13:07:30Z</time>
      </trkpt>
      <trkpt lat="45.2109" lon="5.98442">
        <ele>1871.2</ele>
        <time>2022-01-16T13:07:34Z</time>
      </trkpt>
      <trkpt lat="45.2109" lon="5.9844">
        <ele>1870.2</ele>
        <time>2022-01-16T13:07:36Z</time>
      </trkpt>
      <trkpt lat="45.2109" lon="5.9844">
        <ele>1869.6</ele>
        <time>2022-01-16T13:07:37Z</time>
      </trkpt>
      <trkpt lat="45.2109" lon="5.98439">
        <ele>1869.4</ele>
        <time>2022-01-16T13:07:39Z</time>
      </trkpt>
      <trkpt lat="45.2109" lon="5.9844">
        <ele>1868.4</ele>
        <time>2022-01-16T13:07:41Z</time>
      </trkpt>
      <trkpt lat="45.2109" lon="5.98442">
        <ele>1868</ele>
        <time>2022-01-16T13:07:42Z</time>
      </trkpt>
      <trkpt lat="45.21092" lon="5.98443">
        <ele>1867.2</ele>
        <time>2022-01-16T13:07:45Z</time>
      </trkpt>
      <trkpt lat="45.21093" lon="5.98441">
        <ele>1866.2</ele>
        <time>2022-01-16T13:07:47Z</time>
      </trkpt>
      <trkpt lat="45.21094" lon="5.98439">
        <ele>1865.2</ele>
        <time>2022-01-16T13:07:48Z</time>
      </trkpt>
      <trkpt lat="45.21095" lon="5.98435">
        <ele>1864.2</ele>
        <time>2022-01-16T13:07:52Z</time>
      </trkpt>
      <trkpt lat="45.21095" lon="5.98434">
        <ele>1863.8</ele>
        <time>2022-01-16T13:07:53Z</time>
      </trkpt>
      <trkpt lat="45.21095" lon="5.98434">
        <ele>1862.4</ele>
        <time>2022-01-16T13:07:55Z</time>
      </trkpt>
      <trkpt lat="45.21096" lon="5.98432">
        <ele>1861.2</ele>
        <time>2022-01-16T13:07:58Z</time>
      </trkpt>
      <trkpt lat="45.21098" lon="5.98427">
        <ele>1859.6</ele>
        <time>2022-01-16T13:08:01Z</time>
      </trkpt>
      <trkpt lat="45.21099" lon="5.98426">
        <ele>1859.6</ele>
        <time>2022-01-16T13:08:02Z</time>
      </trkpt>
      <trkpt lat="45.21102" lon="5.98425">
        <ele>1857.6</ele>
        <time>2022-01-16T13:08:05Z</time>
      </trkpt>
      <trkpt lat="45.21102" lon="5.98422">
        <ele>1856</ele>
        <time>2022-01-16T13:08:07Z</time>
      </trkpt>
      <trkpt lat="45.21102" lon="5.98421">
        <ele>1855</ele>
        <time>2022-01-16T13:08:08Z</time>
      </trkpt>
      <trkpt lat="45.21101" lon="5.98422">
        <ele>1853.8</ele>
        <time>2022-01-16T13:08:09Z</time>
      </trkpt>
      <trkpt lat="45.21103" lon="5.98419">
        <ele>1853.6</ele>
        <time>2022-01-16T13:08:11Z</time>
      </trkpt>
      <trkpt lat="45.21107" lon="5.9842">
        <ele>1852</ele>
        <time>2022-01-16T13:08:13Z</time>
      </trkpt>
      <trkpt lat="45.21108" lon="5.9842">
        <ele>1850.8</ele>
        <time>2022-01-16T13:08:14Z</time>
      </trkpt>
      <trkpt lat="45.21108" lon="5.9842">
        <ele>1850</ele>
        <time>2022-01-16T13:08:16Z</time>
      </trkpt>
      <trkpt lat="45.21108" lon="5.9842">
        <ele>1850</ele>
        <time>2022-01-16T13:08:18Z</time>
      </trkpt>
      <trkpt lat="45.21108" lon="5.98415">
        <ele>1849.6</ele>
        <time>2022-01-16T13:08:23Z</time>
      </trkpt>
      <trkpt lat="45.21108" lon="5.98414">
        <ele>1847.8</ele>
        <time>2022-01-16T13:08:24Z</time>
      </trkpt>
      <trkpt lat="45.21113" lon="5.98414">
        <ele>1846.8</ele>
        <time>2022-01-16T13:08:26Z</time>
      </trkpt>
      <trkpt lat="45.21115" lon="5.98415">
        <ele>1846.4</ele>
        <time>2022-01-16T13:08:27Z</time>
      </trkpt>
      <trkpt lat="45.21115" lon="5.98415">
        <ele>1844.6</ele>
        <time>2022-01-16T13:08:28Z</time>
      </trkpt>
      <trkpt lat="45.21116" lon="5.98414">
        <ele>1844.4</ele>
        <time>2022-01-16T13:08:30Z</time>
      </trkpt>
      <trkpt lat="45.21117" lon="5.98412">
        <ele>1843.8</ele>
        <time>2022-01-16T13:08:31Z</time>
      </trkpt>
      <trkpt lat="45.21117" lon="5.98411">
        <ele>1843</ele>
        <time>2022-01-16T13:08:32Z</time>
      </trkpt>
      <trkpt lat="45.21117" lon="5.9841">
        <ele>1841.4</ele>
        <time>2022-01-16T13:08:33Z</time>
      </trkpt>
      <trkpt lat="45.21118" lon="5.9841">
        <ele>1841.4</ele>
        <time>2022-01-16T13:08:34Z</time>
      </trkpt>
      <trkpt lat="45.2112" lon="5.98412">
        <ele>1841.4</ele>
        <time>2022-01-16T13:08:35Z</time>
      </trkpt>
      <trkpt lat="45.21123" lon="5.98417">
        <ele>1839.8</ele>
        <time>2022-01-16T13:08:37Z</time>
      </trkpt>
      <trkpt lat="45.21124" lon="5.98418">
        <ele>1838</ele>
        <time>2022-01-16T13:08:38Z</time>
      </trkpt>
      <trkpt lat="45.21125" lon="5.98417">
        <ele>1837</ele>
        <time>2022-01-16T13:08:39Z</time>
      </trkpt>
      <trkpt lat="45.21126" lon="5.98414">
        <ele>1834.6</ele>
        <time>2022-01-16T13:08:41Z</time>
      </trkpt>
      <trkpt lat="45.2113" lon="5.98414">
        <ele>1833.2</ele>
        <time>2022-01-16T13:08:43Z</time>
      </trkpt>
      <trkpt lat="45.21132" lon="5.98417">
        <ele>1830.2</ele>
        <time>2022-01-16T13:08:45Z</time>
      </trkpt>
      <trkpt lat="45.21133" lon="5.98417">
        <ele>1829.2</ele>
        <time>2022-01-16T13:08:48Z</time>
      </trkpt>
      <trkpt lat="45.21133" lon="5.98416">
        <ele>1829</ele>
        <time>2022-01-16T13:08:49Z</time>
      </trkpt>
      <trkpt lat="45.21135" lon="5.98415">
        <ele>1826.8</ele>
        <time>2022-01-16T13:08:51Z</time>
      </trkpt>
      <trkpt lat="45.21137" lon="5.98417">
        <ele>1825.2</ele>
        <time>2022-01-16T13:08:52Z</time>
      </trkpt>
      <trkpt lat="45.2114" lon="5.9842">
        <ele>1824.2</ele>
        <time>2022-01-16T13:08:53Z</time>
      </trkpt>
      <trkpt lat="45.21141" lon="5.98423">
        <ele>1822</ele>
        <time>2022-01-16T13:08:54Z</time>
      </trkpt>
      <trkpt lat="45.21142" lon="5.98424">
        <ele>1820.4</ele>
        <time>2022-01-16T13:08:55Z</time>
      </trkpt>
      <trkpt lat="45.21142" lon="5.98424">
        <ele>1820.2</ele>
        <time>2022-01-16T13:08:56Z</time>
      </trkpt>
      <trkpt lat="45.21145" lon="5.9842">
        <ele>1817.2</ele>
        <time>2022-01-16T13:08:58Z</time>
      </trkpt>
      <trkpt lat="45.21148" lon="5.9842">
        <ele>1816.8</ele>
        <time>2022-01-16T13:08:59Z</time>
      </trkpt>
      <trkpt lat="45.21149" lon="5.98421">
        <ele>1815.8</ele>
        <time>2022-01-16T13:09:00Z</time>
      </trkpt>
      <trkpt lat="45.2115" lon="5.98422">
        <ele>1813</ele>
        <time>2022-01-16T13:09:01Z</time>
      </trkpt>
      <trkpt lat="45.21153" lon="5.98424">
        <ele>1812</ele>
        <time>2022-01-16T13:09:03Z</time>
      </trkpt>
      <trkpt lat="45.21154" lon="5.98422">
        <ele>1811.4</ele>
        <time>2022-01-16T13:09:04Z</time>
      </trkpt>
      <trkpt lat="45.21156" lon="5.9842">
        <ele>1809.4</ele>
        <time>2022-01-16T13:09:05Z</time>
      </trkpt>
      <trkpt lat="45.21157" lon="5.98417">
        <ele>1807.6</ele>
        <time>2022-01-16T13:09:06Z</time>
      </trkpt>
      <trkpt lat="45.21157" lon="5.98416">
        <ele>1807.4</ele>
        <time>2022-01-16T13:09:08Z</time>
      </trkpt>
      <trkpt lat="45.21157" lon="5.98417">
        <ele>1807.4</ele>
        <time>2022-01-16T13:09:10Z</time>
      </trkpt>
      <trkpt lat="45.21156" lon="5.98417">
        <ele>1807.4</ele>
        <time>2022-01-16T13:09:12Z</time>
      </trkpt>
      <trkpt lat="45.21156" lon="5.98418">
        <ele>1807.4</ele>
        <time>2022-01-16T13:09:13Z</time>
      </trkpt>
      <trkpt lat="45.21161" lon="5.98423">
        <ele>1805.6</ele>
        <time>2022-01-16T13:09:17Z</time>
      </trkpt>
      <trkpt lat="45.21162" lon="5.98424">
        <ele>1803.8</ele>
        <time>2022-01-16T13:09:18Z</time>
      </trkpt>
      <trkpt lat="45.21163" lon="5.98423">
        <ele>1803.2</ele>
        <time>2022-01-16T13:09:19Z</time>
      </trkpt>
      <trkpt lat="45.21164" lon="5.98421">
        <ele>1801.2</ele>
        <time>2022-01-16T13:09:20Z</time>
      </trkpt>
      <trkpt lat="45.21169" lon="5.98421">
        <ele>1799.4</ele>
        <time>2022-01-16T13:09:22Z</time>
      </trkpt>
      <trkpt lat="45.21172" lon="5.98424">
        <ele>1797</ele>
        <time>2022-01-16T13:09:23Z</time>
      </trkpt>
      <trkpt lat="45.21173" lon="5.98426">
        <ele>1796</ele>
        <time>2022-01-16T13:09:24Z</time>
      </trkpt>
      <trkpt lat="45.21174" lon="5.98427">
        <ele>1795</ele>
        <time>2022-01-16T13:09:25Z</time>
      </trkpt>
      <trkpt lat="45.21175" lon="5.98425">
        <ele>1793.8</ele>
        <time>2022-01-16T13:09:26Z</time>
      </trkpt>
      <trkpt lat="45.21177" lon="5.98422">
        <ele>1790.8</ele>
        <time>2022-01-16T13:09:27Z</time>
      </trkpt>
      <trkpt lat="45.21179" lon="5.98418">
        <ele>1789.4</ele>
        <time>2022-01-16T13:09:28Z</time>
      </trkpt>
      <trkpt lat="45.21182" lon="5.98418">
        <ele>1789.4</ele>
        <time>2022-01-16T13:09:29Z</time>
      </trkpt>
      <trkpt lat="45.21185" lon="5.98421">
        <ele>1788.2</ele>
        <time>2022-01-16T13:09:30Z</time>
      </trkpt>
      <trkpt lat="45.21187" lon="5.98425">
        <ele>1785</ele>
        <time>2022-01-16T13:09:31Z</time>
      </trkpt>
      <trkpt lat="45.21189" lon="5.98429">
        <ele>1784.4</ele>
        <time>2022-01-16T13:09:33Z</time>
      </trkpt>
      <trkpt lat="45.2119" lon="5.98428">
        <ele>1783</ele>
        <time>2022-01-16T13:09:34Z</time>
      </trkpt>
      <trkpt lat="45.21192" lon="5.98426">
        <ele>1780.6</ele>
        <time>2022-01-16T13:09:35Z</time>
      </trkpt>
      <trkpt lat="45.21195" lon="5.98417">
        <ele>1778.2</ele>
        <time>2022-01-16T13:09:37Z</time>
      </trkpt>
      <trkpt lat="45.21197" lon="5.98404">
        <ele>1777</ele>
        <time>2022-01-16T13:09:39Z</time>
      </trkpt>
      <trkpt lat="45.21199" lon="5.98391">
        <ele>1776</ele>
        <time>2022-01-16T13:09:41Z</time>
      </trkpt>
      <trkpt lat="45.21202" lon="5.98384">
        <ele>1773.6</ele>
        <time>2022-01-16T13:09:42Z</time>
      </trkpt>
      <trkpt lat="45.21207" lon="5.98372">
        <ele>1771.6</ele>
        <time>2022-01-16T13:09:44Z</time>
      </trkpt>
      <trkpt lat="45.21215" lon="5.9836">
        <ele>1770.4</ele>
        <time>2022-01-16T13:09:47Z</time>
      </trkpt>
      <trkpt lat="45.21219" lon="5.98366">
        <ele>1767.6</ele>
        <time>2022-01-16T13:09:49Z</time>
      </trkpt>
      <trkpt lat="45.21221" lon="5.9837">
        <ele>1765.6</ele>
        <time>2022-01-16T13:09:50Z</time>
      </trkpt>
      <trkpt lat="45.21223" lon="5.9837">
        <ele>1765</ele>
        <time>2022-01-16T13:09:51Z</time>
      </trkpt>
      <trkpt lat="45.21225" lon="5.98369">
        <ele>1762</ele>
        <time>2022-01-16T13:09:52Z</time>
      </trkpt>
      <trkpt lat="45.21227" lon="5.98366">
        <ele>1760.6</ele>
        <time>2022-01-16T13:09:53Z</time>
      </trkpt>
      <trkpt lat="45.21229" lon="5.98362">
        <ele>1758.4</ele>
        <time>2022-01-16T13:09:55Z</time>
      </trkpt>
      <trkpt lat="45.21233" lon="5.98361">
        <ele>1757.6</ele>
        <time>2022-01-16T13:09:58Z</time>
      </trkpt>
      <trkpt lat="45.21235" lon="5.98362">
        <ele>1756.8</ele>
        <time>2022-01-16T13:09:59Z</time>
      </trkpt>
      <trkpt lat="45.21237" lon="5.98364">
        <ele>1754.8</ele>
        <time>2022-01-16T13:10:00Z</time>
      </trkpt>
      <trkpt lat="45.21239" lon="5.98364">
        <ele>1753.2</ele>
        <time>2022-01-16T13:10:01Z</time>
      </trkpt>
      <trkpt lat="45.21241" lon="5.98364">
        <ele>1750.6</ele>
        <time>2022-01-16T13:10:02Z</time>
      </trkpt>
      <trkpt lat="45.21244" lon="5.98362">
        <ele>1749.4</ele>
        <time>2022-01-16T13:10:03Z</time>
      </trkpt>
      <trkpt lat="45.21248" lon="5.98357">
        <ele>1747.2</ele>
        <time>2022-01-16T13:10:05Z</time>
      </trkpt>
      <trkpt lat="45.21252" lon="5.98353">
        <ele>1746</ele>
        <time>2022-01-16T13:10:07Z</time>
      </trkpt>
      <trkpt lat="45.21256" lon="5.98352">
        <ele>1745.2</ele>
        <time>2022-01-16T13:10:08Z</time>
      </trkpt>
      <trkpt lat="45.21259" lon="5.9835">
        <ele>1745</ele>
        <time>2022-01-16T13:10:09Z</time>
      </trkpt>
      <trkpt lat="45.21262" lon="5.98349">
        <ele>1741</ele>
        <time>2022-01-16T13:10:10Z</time>
      </trkpt>
      <trkpt lat="45.21264" lon="5.9835">
        <ele>1739.6</ele>
        <time>2022-01-16T13:10:11Z</time>
      </trkpt>
      <trkpt lat="45.21266" lon="5.98349">
        <ele>1738.2</ele>
        <time>2022-01-16T13:10:12Z</time>
      </trkpt>
      <trkpt lat="45.21269" lon="5.98348">
        <ele>1737</ele>
        <time>2022-01-16T13:10:13Z</time>
      </trkpt>
      <trkpt lat="45.2127" lon="5.98346">
        <ele>1734.2</ele>
        <time>2022-01-16T13:10:14Z</time>
      </trkpt>
      <trkpt lat="45.21272" lon="5.98343">
        <ele>1733.4</ele>
        <time>2022-01-16T13:10:15Z</time>
      </trkpt>
      <trkpt lat="45.21274" lon="5.98341">
        <ele>1733.2</ele>
        <time>2022-01-16T13:10:16Z</time>
      </trkpt>
      <trkpt lat="45.2128" lon="5.98336">
        <ele>1731</ele>
        <time>2022-01-16T13:10:19Z</time>
      </trkpt>
      <trkpt lat="45.21281" lon="5.98338">
        <ele>1729.8</ele>
        <time>2022-01-16T13:10:20Z</time>
      </trkpt>
      <trkpt lat="45.21281" lon="5.98342">
        <ele>1728.4</ele>
        <time>2022-01-16T13:10:21Z</time>
      </trkpt>
      <trkpt lat="45.21282" lon="5.98344">
        <ele>1726.2</ele>
        <time>2022-01-16T13:10:23Z</time>
      </trkpt>
      <trkpt lat="45.21285" lon="5.98342">
        <ele>1724.6</ele>
        <time>2022-01-16T13:10:24Z</time>
      </trkpt>
      <trkpt lat="45.21288" lon="5.98338">
        <ele>1721.4</ele>
        <time>2022-01-16T13:10:25Z</time>
      </trkpt>
      <trkpt lat="45.21291" lon="5.98333">
        <ele>1721</ele>
        <time>2022-01-16T13:10:26Z</time>
      </trkpt>
      <trkpt lat="45.21294" lon="5.98329">
        <ele>1719.8</ele>
        <time>2022-01-16T13:10:27Z</time>
      </trkpt>
      <trkpt lat="45.21298" lon="5.98323">
        <ele>1718.6</ele>
        <time>2022-01-16T13:10:28Z</time>
      </trkpt>
      <trkpt lat="45.21306" lon="5.98314">
        <ele>1715.6</ele>
        <time>2022-01-16T13:10:31Z</time>
      </trkpt>
      <trkpt lat="45.21309" lon="5.98312">
        <ele>1715.4</ele>
        <time>2022-01-16T13:10:32Z</time>
      </trkpt>
      <trkpt lat="45.21315" lon="5.98306">
        <ele>1714.2</ele>
        <time>2022-01-16T13:10:34Z</time>
      </trkpt>
      <trkpt lat="45.21321" lon="5.98301">
        <ele>1712.4</ele>
        <time>2022-01-16T13:10:36Z</time>
      </trkpt>
      <trkpt lat="45.21323" lon="5.98299">
        <ele>1710.8</ele>
        <time>2022-01-16T13:10:37Z</time>
      </trkpt>
      <trkpt lat="45.21331" lon="5.98292">
        <ele>1708.8</ele>
        <time>2022-01-16T13:10:40Z</time>
      </trkpt>
      <trkpt lat="45.21334" lon="5.98294">
        <ele>1707.4</ele>
        <time>2022-01-16T13:10:41Z</time>
      </trkpt>
      <trkpt lat="45.21335" lon="5.98298">
        <ele>1706</ele>
        <time>2022-01-16T13:10:42Z</time>
      </trkpt>
      <trkpt lat="45.21335" lon="5.98303">
        <ele>1704.6</ele>
        <time>2022-01-16T13:10:43Z</time>
      </trkpt>
      <trkpt lat="45.21336" lon="5.98305">
        <ele>1702.8</ele>
        <time>2022-01-16T13:10:44Z</time>
      </trkpt>
      <trkpt lat="45.21337" lon="5.98306">
        <ele>1702.6</ele>
        <time>2022-01-16T13:10:47Z</time>
      </trkpt>
      <trkpt lat="45.21338" lon="5.98308">
        <ele>1702.4</ele>
        <time>2022-01-16T13:10:52Z</time>
      </trkpt>
      <trkpt lat="45.21337" lon="5.98309">
        <ele>1702.4</ele>
        <time>2022-01-16T13:10:54Z</time>
      </trkpt>
      <trkpt lat="45.21337" lon="5.98309">
        <ele>1702.4</ele>
        <time>2022-01-16T13:10:56Z</time>
      </trkpt>
      <trkpt lat="45.2134" lon="5.98305">
        <ele>1700</ele>
        <time>2022-01-16T13:10:59Z</time>
      </trkpt>
      <trkpt lat="45.21343" lon="5.98303">
        <ele>1698.6</ele>
        <time>2022-01-16T13:11:00Z</time>
      </trkpt>
      <trkpt lat="45.21347" lon="5.98305">
        <ele>1696.6</ele>
        <time>2022-01-16T13:11:02Z</time>
      </trkpt>
      <trkpt lat="45.21347" lon="5.9831">
        <ele>1695.6</ele>
        <time>2022-01-16T13:11:03Z</time>
      </trkpt>
      <trkpt lat="45.21348" lon="5.98315">
        <ele>1694.8</ele>
        <time>2022-01-16T13:11:04Z</time>
      </trkpt>
      <trkpt lat="45.21351" lon="5.98317">
        <ele>1693.2</ele>
        <time>2022-01-16T13:11:05Z</time>
      </trkpt>
      <trkpt lat="45.21354" lon="5.98317">
        <ele>1690.8</ele>
        <time>2022-01-16T13:11:06Z</time>
      </trkpt>
      <trkpt lat="45.2136" lon="5.98312">
        <ele>1687.6</ele>
        <time>2022-01-16T13:11:08Z</time>
      </trkpt>
      <trkpt lat="45.21363" lon="5.98312">
        <ele>1686.6</ele>
        <time>2022-01-16T13:11:09Z</time>
      </trkpt>
      <trkpt lat="45.21364" lon="5.98315">
        <ele>1686</ele>
        <time>2022-01-16T13:11:10Z</time>
      </trkpt>
      <trkpt lat="45.21364" lon="5.9832">
        <ele>1684.2</ele>
        <time>2022-01-16T13:11:11Z</time>
      </trkpt>
      <trkpt lat="45.21366" lon="5.98321">
        <ele>1683.6</ele>
        <time>2022-01-16T13:11:12Z</time>
      </trkpt>
      <trkpt lat="45.21372" lon="5.98315">
        <ele>1681</ele>
        <time>2022-01-16T13:11:14Z</time>
      </trkpt>
      <trkpt lat="45.21376" lon="5.9831">
        <ele>1679.6</ele>
        <time>2022-01-16T13:11:15Z</time>
      </trkpt>
      <trkpt lat="45.21379" lon="5.98308">
        <ele>1677.2</ele>
        <time>2022-01-16T13:11:16Z</time>
      </trkpt>
      <trkpt lat="45.21382" lon="5.9831">
        <ele>1675.8</ele>
        <time>2022-01-16T13:11:17Z</time>
      </trkpt>
      <trkpt lat="45.21383" lon="5.98314">
        <ele>1674.6</ele>
        <time>2022-01-16T13:11:18Z</time>
      </trkpt>
      <trkpt lat="45.21383" lon="5.98319">
        <ele>1674.2</ele>
        <time>2022-01-16T13:11:19Z</time>
      </trkpt>
      <trkpt lat="45.21384" lon="5.98323">
        <ele>1671.6</ele>
        <time>2022-01-16T13:11:21Z</time>
      </trkpt>
      <trkpt lat="45.21385" lon="5.98323">
        <ele>1671.4</ele>
        <time>2022-01-16T13:11:22Z</time>
      </trkpt>
      <trkpt lat="45.21386" lon="5.98321">
        <ele>1669</ele>
        <time>2022-01-16T13:11:23Z</time>
      </trkpt>
      <trkpt lat="45.21389" lon="5.98323">
        <ele>1668.4</ele>
        <time>2022-01-16T13:11:24Z</time>
      </trkpt>
      <trkpt lat="45.21391" lon="5.98328">
        <ele>1667.8</ele>
        <time>2022-01-16T13:11:25Z</time>
      </trkpt>
      <trkpt lat="45.21392" lon="5.98333">
        <ele>1666.4</ele>
        <time>2022-01-16T13:11:26Z</time>
      </trkpt>
      <trkpt lat="45.21395" lon="5.98338">
        <ele>1664</ele>
        <time>2022-01-16T13:11:28Z</time>
      </trkpt>
      <trkpt lat="45.214" lon="5.98338">
        <ele>1660.6</ele>
        <time>2022-01-16T13:11:30Z</time>
      </trkpt>
      <trkpt lat="45.21403" lon="5.9834">
        <ele>1659.6</ele>
        <time>2022-01-16T13:11:31Z</time>
      </trkpt>
      <trkpt lat="45.21409" lon="5.98345">
        <ele>1655.8</ele>
        <time>2022-01-16T13:11:33Z</time>
      </trkpt>
      <trkpt lat="45.2141" lon="5.9835">
        <ele>1654.2</ele>
        <time>2022-01-16T13:11:34Z</time>
      </trkpt>
      <trkpt lat="45.21411" lon="5.98354">
        <ele>1653.2</ele>
        <time>2022-01-16T13:11:35Z</time>
      </trkpt>
      <trkpt lat="45.21411" lon="5.98356">
        <ele>1652</ele>
        <time>2022-01-16T13:11:36Z</time>
      </trkpt>
      <trkpt lat="45.21411" lon="5.98357">
        <ele>1651.6</ele>
        <time>2022-01-16T13:11:37Z</time>
      </trkpt>
      <trkpt lat="45.21411" lon="5.98358">
        <ele>1651.4</ele>
        <time>2022-01-16T13:11:39Z</time>
      </trkpt>
      <trkpt lat="45.21411" lon="5.98358">
        <ele>1651.4</ele>
        <time>2022-01-16T13:11:41Z</time>
      </trkpt>
      <trkpt lat="45.21411" lon="5.98357">
        <ele>1651.2</ele>
        <time>2022-01-16T13:11:45Z</time>
      </trkpt>
      <trkpt lat="45.21411" lon="5.98358">
        <ele>1650.8</ele>
        <time>2022-01-16T13:11:47Z</time>
      </trkpt>
      <trkpt lat="45.21416" lon="5.98355">
        <ele>1648.2</ele>
        <time>2022-01-16T13:11:50Z</time>
      </trkpt>
      <trkpt lat="45.2142" lon="5.98354">
        <ele>1646</ele>
        <time>2022-01-16T13:11:51Z</time>
      </trkpt>
      <trkpt lat="45.21421" lon="5.98358">
        <ele>1645.4</ele>
        <time>2022-01-16T13:11:52Z</time>
      </trkpt>
      <trkpt lat="45.21421" lon="5.98362">
        <ele>1644.2</ele>
        <time>2022-01-16T13:11:53Z</time>
      </trkpt>
      <trkpt lat="45.21422" lon="5.98368">
        <ele>1643</ele>
        <time>2022-01-16T13:11:55Z</time>
      </trkpt>
      <trkpt lat="45.21423" lon="5.98368">
        <ele>1642.6</ele>
        <time>2022-01-16T13:11:56Z</time>
      </trkpt>
      <trkpt lat="45.21425" lon="5.98367">
        <ele>1641.4</ele>
        <time>2022-01-16T13:11:57Z</time>
      </trkpt>
      <trkpt lat="45.21428" lon="5.98367">
        <ele>1641.2</ele>
        <time>2022-01-16T13:11:58Z</time>
      </trkpt>
      <trkpt lat="45.21429" lon="5.98371">
        <ele>1639.8</ele>
        <time>2022-01-16T13:11:59Z</time>
      </trkpt>
      <trkpt lat="45.21431" lon="5.98375">
        <ele>1638.2</ele>
        <time>2022-01-16T13:12:01Z</time>
      </trkpt>
      <trkpt lat="45.21432" lon="5.98378">
        <ele>1636.8</ele>
        <time>2022-01-16T13:12:03Z</time>
      </trkpt>
      <trkpt lat="45.21434" lon="5.98386">
        <ele>1634</ele>
        <time>2022-01-16T13:12:05Z</time>
      </trkpt>
      <trkpt lat="45.21434" lon="5.98392">
        <ele>1632.2</ele>
        <time>2022-01-16T13:12:06Z</time>
      </trkpt>
      <trkpt lat="45.21435" lon="5.98398">
        <ele>1629.4</ele>
        <time>2022-01-16T13:12:08Z</time>
      </trkpt>
      <trkpt lat="45.21436" lon="5.98397">
        <ele>1627.8</ele>
        <time>2022-01-16T13:12:09Z</time>
      </trkpt>
      <trkpt lat="45.21439" lon="5.98396">
        <ele>1626.6</ele>
        <time>2022-01-16T13:12:11Z</time>
      </trkpt>
      <trkpt lat="45.21442" lon="5.98399">
        <ele>1625.8</ele>
        <time>2022-01-16T13:12:13Z</time>
      </trkpt>
      <trkpt lat="45.21446" lon="5.98401">
        <ele>1625</ele>
        <time>2022-01-16T13:12:14Z</time>
      </trkpt>
      <trkpt lat="45.21447" lon="5.98403">
        <ele>1622.2</ele>
        <time>2022-01-16T13:12:15Z</time>
      </trkpt>
      <trkpt lat="45.21448" lon="5.98406">
        <ele>1621</ele>
        <time>2022-01-16T13:12:16Z</time>
      </trkpt>
      <trkpt lat="45.21449" lon="5.98408">
        <ele>1619.8</ele>
        <time>2022-01-16T13:12:17Z</time>
      </trkpt>
      <trkpt lat="45.21452" lon="5.98414">
        <ele>1617.6</ele>
        <time>2022-01-16T13:12:19Z</time>
      </trkpt>
      <trkpt lat="45.21452" lon="5.98418">
        <ele>1615.8</ele>
        <time>2022-01-16T13:12:20Z</time>
      </trkpt>
      <trkpt lat="45.21452" lon="5.98422">
        <ele>1614.6</ele>
        <time>2022-01-16T13:12:21Z</time>
      </trkpt>
      <trkpt lat="45.21451" lon="5.98431">
        <ele>1613.2</ele>
        <time>2022-01-16T13:12:24Z</time>
      </trkpt>
      <trkpt lat="45.21451" lon="5.98435">
        <ele>1612.4</ele>
        <time>2022-01-16T13:12:25Z</time>
      </trkpt>
      <trkpt lat="45.2145" lon="5.98441">
        <ele>1612.2</ele>
        <time>2022-01-16T13:12:26Z</time>
      </trkpt>
      <trkpt lat="45.21447" lon="5.98449">
        <ele>1610</ele>
        <time>2022-01-16T13:12:28Z</time>
      </trkpt>
      <trkpt lat="45.21446" lon="5.98452">
        <ele>1609.6</ele>
        <time>2022-01-16T13:12:29Z</time>
      </trkpt>
      <trkpt lat="45.2144" lon="5.98465">
        <ele>1608.2</ele>
        <time>2022-01-16T13:12:32Z</time>
      </trkpt>
      <trkpt lat="45.21436" lon="5.9848">
        <ele>1605.6</ele>
        <time>2022-01-16T13:12:34Z</time>
      </trkpt>
      <trkpt lat="45.21432" lon="5.9849">
        <ele>1604.6</ele>
        <time>2022-01-16T13:12:36Z</time>
      </trkpt>
      <trkpt lat="45.21431" lon="5.98493">
        <ele>1603.6</ele>
        <time>2022-01-16T13:12:37Z</time>
      </trkpt>
      <trkpt lat="45.21432" lon="5.98497">
        <ele>1603.2</ele>
        <time>2022-01-16T13:12:38Z</time>
      </trkpt>
      <trkpt lat="45.21432" lon="5.98502">
        <ele>1601.6</ele>
        <time>2022-01-16T13:12:39Z</time>
      </trkpt>
      <trkpt lat="45.21432" lon="5.98506">
        <ele>1599.4</ele>
        <time>2022-01-16T13:12:40Z</time>
      </trkpt>
      <trkpt lat="45.21434" lon="5.98518">
        <ele>1595.6</ele>
        <time>2022-01-16T13:12:42Z</time>
      </trkpt>
      <trkpt lat="45.21434" lon="5.98525">
        <ele>1593</ele>
        <time>2022-01-16T13:12:43Z</time>
      </trkpt>
      <trkpt lat="45.21434" lon="5.98531">
        <ele>1591.8</ele>
        <time>2022-01-16T13:12:44Z</time>
      </trkpt>
      <trkpt lat="45.21436" lon="5.98533">
        <ele>1590</ele>
        <time>2022-01-16T13:12:45Z</time>
      </trkpt>
      <trkpt lat="45.21439" lon="5.98532">
        <ele>1590</ele>
        <time>2022-01-16T13:12:46Z</time>
      </trkpt>
      <trkpt lat="45.21442" lon="5.9853">
        <ele>1587</ele>
        <time>2022-01-16T13:12:47Z</time>
      </trkpt>
      <trkpt lat="45.21446" lon="5.98529">
        <ele>1585.4</ele>
        <time>2022-01-16T13:12:48Z</time>
      </trkpt>
      <trkpt lat="45.21449" lon="5.98531">
        <ele>1585.4</ele>
        <time>2022-01-16T13:12:49Z</time>
      </trkpt>
      <trkpt lat="45.2145" lon="5.98536">
        <ele>1583.6</ele>
        <time>2022-01-16T13:12:50Z</time>
      </trkpt>
      <trkpt lat="45.21451" lon="5.98539">
        <ele>1581.8</ele>
        <time>2022-01-16T13:12:51Z</time>
      </trkpt>
      <trkpt lat="45.21453" lon="5.9854">
        <ele>1581</ele>
        <time>2022-01-16T13:12:52Z</time>
      </trkpt>
      <trkpt lat="45.21456" lon="5.98542">
        <ele>1578.4</ele>
        <time>2022-01-16T13:12:53Z</time>
      </trkpt>
      <trkpt lat="45.21457" lon="5.98546">
        <ele>1576.4</ele>
        <time>2022-01-16T13:12:54Z</time>
      </trkpt>
      <trkpt lat="45.21458" lon="5.9855">
        <ele>1574.2</ele>
        <time>2022-01-16T13:12:56Z</time>
      </trkpt>
      <trkpt lat="45.2146" lon="5.98553">
        <ele>1573.2</ele>
        <time>2022-01-16T13:12:57Z</time>
      </trkpt>
      <trkpt lat="45.2146" lon="5.98556">
        <ele>1571.2</ele>
        <time>2022-01-16T13:12:58Z</time>
      </trkpt>
      <trkpt lat="45.21461" lon="5.9856">
        <ele>1570</ele>
        <time>2022-01-16T13:12:59Z</time>
      </trkpt>
      <trkpt lat="45.21462" lon="5.98562">
        <ele>1569</ele>
        <time>2022-01-16T13:13:00Z</time>
      </trkpt>
      <trkpt lat="45.21467" lon="5.98563">
        <ele>1566</ele>
        <time>2022-01-16T13:13:02Z</time>
      </trkpt>
      <trkpt lat="45.2147" lon="5.98565">
        <ele>1565.6</ele>
        <time>2022-01-16T13:13:03Z</time>
      </trkpt>
      <trkpt lat="45.21471" lon="5.98569">
        <ele>1564.4</ele>
        <time>2022-01-16T13:13:04Z</time>
      </trkpt>
      <trkpt lat="45.2147" lon="5.98573">
        <ele>1562.8</ele>
        <time>2022-01-16T13:13:05Z</time>
      </trkpt>
      <trkpt lat="45.2147" lon="5.98576">
        <ele>1562.6</ele>
        <time>2022-01-16T13:13:06Z</time>
      </trkpt>
      <trkpt lat="45.21472" lon="5.98583">
        <ele>1560.2</ele>
        <time>2022-01-16T13:13:08Z</time>
      </trkpt>
      <trkpt lat="45.21474" lon="5.98586">
        <ele>1559</ele>
        <time>2022-01-16T13:13:09Z</time>
      </trkpt>
      <trkpt lat="45.21479" lon="5.98589">
        <ele>1558</ele>
        <time>2022-01-16T13:13:10Z</time>
      </trkpt>
      <trkpt lat="45.21483" lon="5.9859">
        <ele>1554.8</ele>
        <time>2022-01-16T13:13:11Z</time>
      </trkpt>
      <trkpt lat="45.21486" lon="5.98592">
        <ele>1552.4</ele>
        <time>2022-01-16T13:13:12Z</time>
      </trkpt>
      <trkpt lat="45.21487" lon="5.98597">
        <ele>1552</ele>
        <time>2022-01-16T13:13:13Z</time>
      </trkpt>
      <trkpt lat="45.21486" lon="5.98602">
        <ele>1551.4</ele>
        <time>2022-01-16T13:13:14Z</time>
      </trkpt>
      <trkpt lat="45.21486" lon="5.98607">
        <ele>1550.2</ele>
        <time>2022-01-16T13:13:15Z</time>
      </trkpt>
      <trkpt lat="45.21489" lon="5.98611">
        <ele>1548</ele>
        <time>2022-01-16T13:13:16Z</time>
      </trkpt>
      <trkpt lat="45.21492" lon="5.98614">
        <ele>1545.2</ele>
        <time>2022-01-16T13:13:17Z</time>
      </trkpt>
      <trkpt lat="45.21493" lon="5.98618">
        <ele>1544.2</ele>
        <time>2022-01-16T13:13:18Z</time>
      </trkpt>
      <trkpt lat="45.21491" lon="5.98622">
        <ele>1543</ele>
        <time>2022-01-16T13:13:19Z</time>
      </trkpt>
      <trkpt lat="45.21488" lon="5.98631">
        <ele>1541.4</ele>
        <time>2022-01-16T13:13:21Z</time>
      </trkpt>
      <trkpt lat="45.21493" lon="5.98632">
        <ele>1539.8</ele>
        <time>2022-01-16T13:13:23Z</time>
      </trkpt>
      <trkpt lat="45.21495" lon="5.9863">
        <ele>1537</ele>
        <time>2022-01-16T13:13:24Z</time>
      </trkpt>
      <trkpt lat="45.21499" lon="5.9863">
        <ele>1536.2</ele>
        <time>2022-01-16T13:13:25Z</time>
      </trkpt>
      <trkpt lat="45.21502" lon="5.98631">
        <ele>1536</ele>
        <time>2022-01-16T13:13:26Z</time>
      </trkpt>
      <trkpt lat="45.21506" lon="5.98634">
        <ele>1534.2</ele>
        <time>2022-01-16T13:13:27Z</time>
      </trkpt>
      <trkpt lat="45.21507" lon="5.98637">
        <ele>1534</ele>
        <time>2022-01-16T13:13:28Z</time>
      </trkpt>
      <trkpt lat="45.21508" lon="5.98641">
        <ele>1533</ele>
        <time>2022-01-16T13:13:29Z</time>
      </trkpt>
      <trkpt lat="45.21508" lon="5.98644">
        <ele>1531.8</ele>
        <time>2022-01-16T13:13:30Z</time>
      </trkpt>
      <trkpt lat="45.2151" lon="5.98648">
        <ele>1530.2</ele>
        <time>2022-01-16T13:13:31Z</time>
      </trkpt>
      <trkpt lat="45.21511" lon="5.98653">
        <ele>1529</ele>
        <time>2022-01-16T13:13:32Z</time>
      </trkpt>
      <trkpt lat="45.21512" lon="5.98664">
        <ele>1527</ele>
        <time>2022-01-16T13:13:34Z</time>
      </trkpt>
      <trkpt lat="45.21512" lon="5.9867">
        <ele>1524.8</ele>
        <time>2022-01-16T13:13:35Z</time>
      </trkpt>
      <trkpt lat="45.21514" lon="5.98678">
        <ele>1522</ele>
        <time>2022-01-16T13:13:37Z</time>
      </trkpt>
      <trkpt lat="45.21516" lon="5.98677">
        <ele>1521</ele>
        <time>2022-01-16T13:13:38Z</time>
      </trkpt>
      <trkpt lat="45.21519" lon="5.98676">
        <ele>1518.2</ele>
        <time>2022-01-16T13:13:39Z</time>
      </trkpt>
      <trkpt lat="45.21521" lon="5.98678">
        <ele>1517.4</ele>
        <time>2022-01-16T13:13:40Z</time>
      </trkpt>
      <trkpt lat="45.21522" lon="5.98682">
        <ele>1517.2</ele>
        <time>2022-01-16T13:13:41Z</time>
      </trkpt>
      <trkpt lat="45.21522" lon="5.98686">
        <ele>1517</ele>
        <time>2022-01-16T13:13:42Z</time>
      </trkpt>
      <trkpt lat="45.21524" lon="5.98694">
        <ele>1515.2</ele>
        <time>2022-01-16T13:13:44Z</time>
      </trkpt>
      <trkpt lat="45.21527" lon="5.98698">
        <ele>1513.8</ele>
        <time>2022-01-16T13:13:45Z</time>
      </trkpt>
      <trkpt lat="45.21529" lon="5.98702">
        <ele>1511.8</ele>
        <time>2022-01-16T13:13:46Z</time>
      </trkpt>
      <trkpt lat="45.21532" lon="5.98704">
        <ele>1510.8</ele>
        <time>2022-01-16T13:13:47Z</time>
      </trkpt>
      <trkpt lat="45.21534" lon="5.98705">
        <ele>1509.8</ele>
        <time>2022-01-16T13:13:48Z</time>
      </trkpt>
      <trkpt lat="45.21537" lon="5.98705">
        <ele>1508.8</ele>
        <time>2022-01-16T13:13:49Z</time>
      </trkpt>
      <trkpt lat="45.2154" lon="5.98707">
        <ele>1508.4</ele>
        <time>2022-01-16T13:13:50Z</time>
      </trkpt>
      <trkpt lat="45.21541" lon="5.98709">
        <ele>1507.4</ele>
        <time>2022-01-16T13:13:51Z</time>
      </trkpt>
      <trkpt lat="45.21543" lon="5.98713">
        <ele>1506.6</ele>
        <time>2022-01-16T13:13:52Z</time>
      </trkpt>
      <trkpt lat="45.21545" lon="5.98716">
        <ele>1505.8</ele>
        <time>2022-01-16T13:13:53Z</time>
      </trkpt>
      <trkpt lat="45.21552" lon="5.98722">
        <ele>1502.4</ele>
        <time>2022-01-16T13:13:55Z</time>
      </trkpt>
      <trkpt lat="45.21557" lon="5.98728">
        <ele>1499.2</ele>
        <time>2022-01-16T13:13:57Z</time>
      </trkpt>
      <trkpt lat="45.21561" lon="5.98733">
        <ele>1497.6</ele>
        <time>2022-01-16T13:13:59Z</time>
      </trkpt>
      <trkpt lat="45.21564" lon="5.98735">
        <ele>1495.6</ele>
        <time>2022-01-16T13:14:00Z</time>
      </trkpt>
      <trkpt lat="45.2157" lon="5.98742">
        <ele>1494.2</ele>
        <time>2022-01-16T13:14:02Z</time>
      </trkpt>
      <trkpt lat="45.21572" lon="5.98747">
        <ele>1493</ele>
        <time>2022-01-16T13:14:03Z</time>
      </trkpt>
      <trkpt lat="45.21574" lon="5.9875">
        <ele>1491.8</ele>
        <time>2022-01-16T13:14:04Z</time>
      </trkpt>
      <trkpt lat="45.21575" lon="5.98754">
        <ele>1491.4</ele>
        <time>2022-01-16T13:14:05Z</time>
      </trkpt>
      <trkpt lat="45.21577" lon="5.98758">
        <ele>1490.2</ele>
        <time>2022-01-16T13:14:06Z</time>
      </trkpt>
      <trkpt lat="45.21579" lon="5.9876">
        <ele>1490</ele>
        <time>2022-01-16T13:14:07Z</time>
      </trkpt>
      <trkpt lat="45.21582" lon="5.98763">
        <ele>1486.8</ele>
        <time>2022-01-16T13:14:08Z</time>
      </trkpt>
      <trkpt lat="45.21585" lon="5.98769">
        <ele>1486</ele>
        <time>2022-01-16T13:14:09Z</time>
      </trkpt>
      <trkpt lat="45.21588" lon="5.98781">
        <ele>1482.8</ele>
        <time>2022-01-16T13:14:11Z</time>
      </trkpt>
      <trkpt lat="45.2159" lon="5.98784">
        <ele>1482.6</ele>
        <time>2022-01-16T13:14:12Z</time>
      </trkpt>
      <trkpt lat="45.21594" lon="5.98787">
        <ele>1482.6</ele>
        <time>2022-01-16T13:14:13Z</time>
      </trkpt>
      <trkpt lat="45.21598" lon="5.98791">
        <ele>1479.8</ele>
        <time>2022-01-16T13:14:14Z</time>
      </trkpt>
      <trkpt lat="45.216" lon="5.98797">
        <ele>1477.6</ele>
        <time>2022-01-16T13:14:15Z</time>
      </trkpt>
      <trkpt lat="45.21602" lon="5.98804">
        <ele>1476.4</ele>
        <time>2022-01-16T13:14:16Z</time>
      </trkpt>
      <trkpt lat="45.21609" lon="5.98814">
        <ele>1475.6</ele>
        <time>2022-01-16T13:14:18Z</time>
      </trkpt>
      <trkpt lat="45.21611" lon="5.98821">
        <ele>1473.2</ele>
        <time>2022-01-16T13:14:19Z</time>
      </trkpt>
      <trkpt lat="45.21612" lon="5.98827">
        <ele>1472.8</ele>
        <time>2022-01-16T13:14:20Z</time>
      </trkpt>
      <trkpt lat="45.21615" lon="5.98835">
        <ele>1470.6</ele>
        <time>2022-01-16T13:14:21Z</time>
      </trkpt>
      <trkpt lat="45.21616" lon="5.98842">
        <ele>1469.8</ele>
        <time>2022-01-16T13:14:22Z</time>
      </trkpt>
      <trkpt lat="45.21617" lon="5.98849">
        <ele>1468.2</ele>
        <time>2022-01-16T13:14:23Z</time>
      </trkpt>
      <trkpt lat="45.21619" lon="5.98855">
        <ele>1466.8</ele>
        <time>2022-01-16T13:14:24Z</time>
      </trkpt>
      <trkpt lat="45.21626" lon="5.98863">
        <ele>1465.2</ele>
        <time>2022-01-16T13:14:26Z</time>
      </trkpt>
      <trkpt lat="45.21628" lon="5.98867">
        <ele>1463.6</ele>
        <time>2022-01-16T13:14:27Z</time>
      </trkpt>
      <trkpt lat="45.21634" lon="5.98879">
        <ele>1462.6</ele>
        <time>2022-01-16T13:14:29Z</time>
      </trkpt>
      <trkpt lat="45.21636" lon="5.98886">
        <ele>1460.6</ele>
        <time>2022-01-16T13:14:30Z</time>
      </trkpt>
      <trkpt lat="45.21638" lon="5.98892">
        <ele>1459.8</ele>
        <time>2022-01-16T13:14:31Z</time>
      </trkpt>
      <trkpt lat="45.21641" lon="5.98898">
        <ele>1458.8</ele>
        <time>2022-01-16T13:14:32Z</time>
      </trkpt>
      <trkpt lat="45.21644" lon="5.98905">
        <ele>1457</ele>
        <time>2022-01-16T13:14:33Z</time>
      </trkpt>
      <trkpt lat="45.21652" lon="5.98913">
        <ele>1456</ele>
        <time>2022-01-16T13:14:35Z</time>
      </trkpt>
      <trkpt lat="45.21657" lon="5.98916">
        <ele>1453</ele>
        <time>2022-01-16T13:14:36Z</time>
      </trkpt>
      <trkpt lat="45.21661" lon="5.98921">
        <ele>1452.8</ele>
        <time>2022-01-16T13:14:37Z</time>
      </trkpt>
      <trkpt lat="45.21665" lon="5.98925">
        <ele>1451.2</ele>
        <time>2022-01-16T13:14:38Z</time>
      </trkpt>
      <trkpt lat="45.21668" lon="5.98928">
        <ele>1450.6</ele>
        <time>2022-01-16T13:14:39Z</time>
      </trkpt>
      <trkpt lat="45.21672" lon="5.98933">
        <ele>1448.8</ele>
        <time>2022-01-16T13:14:40Z</time>
      </trkpt>
      <trkpt lat="45.21677" lon="5.98937">
        <ele>1448.4</ele>
        <time>2022-01-16T13:14:41Z</time>
      </trkpt>
      <trkpt lat="45.21686" lon="5.98945">
        <ele>1446.4</ele>
        <time>2022-01-16T13:14:43Z</time>
      </trkpt>
      <trkpt lat="45.21688" lon="5.9895">
        <ele>1446.2</ele>
        <time>2022-01-16T13:14:44Z</time>
      </trkpt>
      <trkpt lat="45.21691" lon="5.98956">
        <ele>1445</ele>
        <time>2022-01-16T13:14:45Z</time>
      </trkpt>
      <trkpt lat="45.21694" lon="5.98961">
        <ele>1444.8</ele>
        <time>2022-01-16T13:14:46Z</time>
      </trkpt>
      <trkpt lat="45.21698" lon="5.98965">
        <ele>1443.4</ele>
        <time>2022-01-16T13:14:47Z</time>
      </trkpt>
      <trkpt lat="45.21701" lon="5.9897">
        <ele>1443</ele>
        <time>2022-01-16T13:14:48Z</time>
      </trkpt>
      <trkpt lat="45.21705" lon="5.98974">
        <ele>1442</ele>
        <time>2022-01-16T13:14:49Z</time>
      </trkpt>
      <trkpt lat="45.21714" lon="5.9898">
        <ele>1440.4</ele>
        <time>2022-01-16T13:14:51Z</time>
      </trkpt>
      <trkpt lat="45.21724" lon="5.98989">
        <ele>1438.6</ele>
        <time>2022-01-16T13:14:53Z</time>
      </trkpt>
      <trkpt lat="45.21729" lon="5.98995">
        <ele>1438</ele>
        <time>2022-01-16T13:14:54Z</time>
      </trkpt>
      <trkpt lat="45.21737" lon="5.99009">
        <ele>1435.8</ele>
        <time>2022-01-16T13:14:56Z</time>
      </trkpt>
      <trkpt lat="45.2174" lon="5.99014">
        <ele>1433.8</ele>
        <time>2022-01-16T13:14:57Z</time>
      </trkpt>
      <trkpt lat="45.21744" lon="5.9902">
        <ele>1432.8</ele>
        <time>2022-01-16T13:14:58Z</time>
      </trkpt>
      <trkpt lat="45.21747" lon="5.99028">
        <ele>1431</ele>
        <time>2022-01-16T13:14:59Z</time>
      </trkpt>
      <trkpt lat="45.2175" lon="5.99034">
        <ele>1430.6</ele>
        <time>2022-01-16T13:15:00Z</time>
      </trkpt>
      <trkpt lat="45.21754" lon="5.99039">
        <ele>1430.4</ele>
        <time>2022-01-16T13:15:01Z</time>
      </trkpt>
      <trkpt lat="45.21758" lon="5.99044">
        <ele>1429</ele>
        <time>2022-01-16T13:15:02Z</time>
      </trkpt>
      <trkpt lat="45.2176" lon="5.9905">
        <ele>1427.6</ele>
        <time>2022-01-16T13:15:03Z</time>
      </trkpt>
      <trkpt lat="45.21761" lon="5.99061">
        <ele>1426.6</ele>
        <time>2022-01-16T13:15:05Z</time>
      </trkpt>
      <trkpt lat="45.2176" lon="5.99064">
        <ele>1425.8</ele>
        <time>2022-01-16T13:15:06Z</time>
      </trkpt>
      <trkpt lat="45.21759" lon="5.99067">
        <ele>1425.8</ele>
        <time>2022-01-16T13:15:07Z</time>
      </trkpt>
      <trkpt lat="45.21758" lon="5.99069">
        <ele>1425.6</ele>
        <time>2022-01-16T13:15:08Z</time>
      </trkpt>
      <trkpt lat="45.21757" lon="5.9907">
        <ele>1425.6</ele>
        <time>2022-01-16T13:15:12Z</time>
      </trkpt>
      <trkpt lat="45.21757" lon="5.99071">
        <ele>1425.6</ele>
        <time>2022-01-16T13:15:13Z</time>
      </trkpt>
      <trkpt lat="45.21755" lon="5.99075">
        <ele>1425.4</ele>
        <time>2022-01-16T13:15:19Z</time>
      </trkpt>
      <trkpt lat="45.21756" lon="5.99077">
        <ele>1424.6</ele>
        <time>2022-01-16T13:15:22Z</time>
      </trkpt>
      <trkpt lat="45.21756" lon="5.99079">
        <ele>1424.4</ele>
        <time>2022-01-16T13:15:27Z</time>
      </trkpt>
      <trkpt lat="45.21755" lon="5.99076">
        <ele>1424.6</ele>
        <time>2022-01-16T13:15:30Z</time>
      </trkpt>
      <trkpt lat="45.21754" lon="5.99077">
        <ele>1424.6</ele>
        <time>2022-01-16T13:15:31Z</time>
      </trkpt>
      <trkpt lat="45.21754" lon="5.99077">
        <ele>1424.4</ele>
        <time>2022-01-16T13:15:37Z</time>
      </trkpt>
      <trkpt lat="45.21754" lon="5.99077">
        <ele>1424.4</ele>
        <time>2022-01-16T13:15:39Z</time>
      </trkpt>
      <trkpt lat="45.21755" lon="5.99077">
        <ele>1424.4</ele>
        <time>2022-01-16T13:15:41Z</time>
      </trkpt>
      <trkpt lat="45.21754" lon="5.99078">
        <ele>1424.4</ele>
        <time>2022-01-16T13:15:43Z</time>
      </trkpt>
      <trkpt lat="45.21755" lon="5.99081">
        <ele>1424.4</ele>
        <time>2022-01-16T13:15:45Z</time>
      </trkpt>
      <trkpt lat="45.21756" lon="5.99082">
        <ele>1424.4</ele>
        <time>2022-01-16T13:15:48Z</time>
      </trkpt>
      <trkpt lat="45.21757" lon="5.99082">
        <ele>1424.8</ele>
        <time>2022-01-16T13:15:51Z</time>
      </trkpt>
      <trkpt lat="45.21764" lon="5.99086">
        <ele>1424.6</ele>
        <time>2022-01-16T13:15:56Z</time>
      </trkpt>
      <trkpt lat="45.21768" lon="5.99095">
        <ele>1423.8</ele>
        <time>2022-01-16T13:16:02Z</time>
      </trkpt>
      <trkpt lat="45.21768" lon="5.99098">
        <ele>1423.8</ele>
        <time>2022-01-16T13:16:03Z</time>
      </trkpt>
      <trkpt lat="45.21768" lon="5.99103">
        <ele>1423.4</ele>
        <time>2022-01-16T13:16:05Z</time>
      </trkpt>
      <trkpt lat="45.21771" lon="5.99106">
        <ele>1423.2</ele>
        <time>2022-01-16T13:16:08Z</time>
      </trkpt>
      <trkpt lat="45.21776" lon="5.99104">
        <ele>1423</ele>
        <time>2022-01-16T13:16:10Z</time>
      </trkpt>
      <trkpt lat="45.21777" lon="5.99104">
        <ele>1423</ele>
        <time>2022-01-16T13:16:11Z</time>
      </trkpt>
      <trkpt lat="45.21778" lon="5.99103">
        <ele>1422.6</ele>
        <time>2022-01-16T13:16:12Z</time>
      </trkpt>
      <trkpt lat="45.21779" lon="5.99104">
        <ele>1422.6</ele>
        <time>2022-01-16T13:16:13Z</time>
      </trkpt>
      <trkpt lat="45.21779" lon="5.99105">
        <ele>1422.4</ele>
        <time>2022-01-16T13:16:14Z</time>
      </trkpt>
      <trkpt lat="45.21778" lon="5.99107">
        <ele>1422.4</ele>
        <time>2022-01-16T13:16:15Z</time>
      </trkpt>
      <trkpt lat="45.21778" lon="5.99109">
        <ele>1422.4</ele>
        <time>2022-01-16T13:16:16Z</time>
      </trkpt>
      <trkpt lat="45.21778" lon="5.99112">
        <ele>1422.2</ele>
        <time>2022-01-16T13:16:18Z</time>
      </trkpt>
      <trkpt lat="45.2178" lon="5.99117">
        <ele>1422.2</ele>
        <time>2022-01-16T13:16:23Z</time>
      </trkpt>
      <trkpt lat="45.2178" lon="5.99118">
        <ele>1422.2</ele>
        <time>2022-01-16T13:16:25Z</time>
      </trkpt>
      <trkpt lat="45.2178" lon="5.9912">
        <ele>1421.6</ele>
        <time>2022-01-16T13:16:27Z</time>
      </trkpt>
      <trkpt lat="45.21776" lon="5.99127">
        <ele>1421.8</ele>
        <time>2022-01-16T13:16:31Z</time>
      </trkpt>
      <trkpt lat="45.21775" lon="5.99131">
        <ele>1422</ele>
        <time>2022-01-16T13:16:34Z</time>
      </trkpt>
      <trkpt lat="45.21776" lon="5.99131">
        <ele>1422</ele>
        <time>2022-01-16T13:16:35Z</time>
      </trkpt>
      <trkpt lat="45.21778" lon="5.99129">
        <ele>1422</ele>
        <time>2022-01-16T13:16:37Z</time>
      </trkpt>
      <trkpt lat="45.21778" lon="5.99129">
        <ele>1422</ele>
        <time>2022-01-16T13:16:38Z</time>
      </trkpt>
      <trkpt lat="45.21776" lon="5.9913">
        <ele>1422</ele>
        <time>2022-01-16T13:16:40Z</time>
      </trkpt>
      <trkpt lat="45.21773" lon="5.99132">
        <ele>1421.8</ele>
        <time>2022-01-16T13:16:46Z</time>
      </trkpt>
      <trkpt lat="45.21775" lon="5.99132">
        <ele>1421.8</ele>
        <time>2022-01-16T13:16:48Z</time>
      </trkpt>
      <trkpt lat="45.21778" lon="5.99136">
        <ele>1421.8</ele>
        <time>2022-01-16T13:16:51Z</time>
      </trkpt>
      <trkpt lat="45.21783" lon="5.99141">
        <ele>1421.6</ele>
        <time>2022-01-16T13:16:53Z</time>
      </trkpt>
      <trkpt lat="45.21786" lon="5.99144">
        <ele>1421.2</ele>
        <time>2022-01-16T13:16:54Z</time>
      </trkpt>
      <trkpt lat="45.21792" lon="5.9915">
        <ele>1420.4</ele>
        <time>2022-01-16T13:16:56Z</time>
      </trkpt>
      <trkpt lat="45.21799" lon="5.99159">
        <ele>1419.6</ele>
        <time>2022-01-16T13:16:58Z</time>
      </trkpt>
      <trkpt lat="45.21806" lon="5.9917">
        <ele>1419.4</ele>
        <time>2022-01-16T13:17:00Z</time>
      </trkpt>
      <trkpt lat="45.21808" lon="5.99177">
        <ele>1419.2</ele>
        <time>2022-01-16T13:17:01Z</time>
      </trkpt>
      <trkpt lat="45.2181" lon="5.99185">
        <ele>1418.4</ele>
        <time>2022-01-16T13:17:02Z</time>
      </trkpt>
      <trkpt lat="45.21816" lon="5.99203">
        <ele>1417</ele>
        <time>2022-01-16T13:17:04Z</time>
      </trkpt>
      <trkpt lat="45.21819" lon="5.99211">
        <ele>1416.2</ele>
        <time>2022-01-16T13:17:05Z</time>
      </trkpt>
      <trkpt lat="45.21823" lon="5.99219">
        <ele>1416</ele>
        <time>2022-01-16T13:17:06Z</time>
      </trkpt>
      <trkpt lat="45.21833" lon="5.99242">
        <ele>1414.8</ele>
        <time>2022-01-16T13:17:09Z</time>
      </trkpt>
      <trkpt lat="45.21836" lon="5.99249">
        <ele>1414</ele>
        <time>2022-01-16T13:17:10Z</time>
      </trkpt>
      <trkpt lat="45.21839" lon="5.99257">
        <ele>1413.8</ele>
        <time>2022-01-16T13:17:11Z</time>
      </trkpt>
      <trkpt lat="45.21845" lon="5.99272">
        <ele>1411.8</ele>
        <time>2022-01-16T13:17:13Z</time>
      </trkpt>
      <trkpt lat="45.2185" lon="5.99284">
        <ele>1411.4</ele>
        <time>2022-01-16T13:17:15Z</time>
      </trkpt>
      <trkpt lat="45.21852" lon="5.99289">
        <ele>1411.4</ele>
        <time>2022-01-16T13:17:16Z</time>
      </trkpt>
      <trkpt lat="45.21855" lon="5.99295">
        <ele>1412</ele>
        <time>2022-01-16T13:17:18Z</time>
      </trkpt>
      <trkpt lat="45.21857" lon="5.99301">
        <ele>1412</ele>
        <time>2022-01-16T13:17:20Z</time>
      </trkpt>
      <trkpt lat="45.21862" lon="5.99314">
        <ele>1412.6</ele>
        <time>2022-01-16T13:17:25Z</time>
      </trkpt>
      <trkpt lat="45.21862" lon="5.99326">
        <ele>1412.6</ele>
        <time>2022-01-16T13:17:28Z</time>
      </trkpt>
      <trkpt lat="45.21864" lon="5.99341">
        <ele>1412.4</ele>
        <time>2022-01-16T13:17:31Z</time>
      </trkpt>
      <trkpt lat="45.2187" lon="5.9937">
        <ele>1410</ele>
        <time>2022-01-16T13:17:35Z</time>
      </trkpt>
      <trkpt lat="45.2188" lon="5.99383">
        <ele>1408</ele>
        <time>2022-01-16T13:17:37Z</time>
      </trkpt>
      <trkpt lat="45.21885" lon="5.9939">
        <ele>1408</ele>
        <time>2022-01-16T13:17:38Z</time>
      </trkpt>
      <trkpt lat="45.21889" lon="5.99399">
        <ele>1407.8</ele>
        <time>2022-01-16T13:17:39Z</time>
      </trkpt>
      <trkpt lat="45.21894" lon="5.99423">
        <ele>1407.2</ele>
        <time>2022-01-16T13:17:41Z</time>
      </trkpt>
      <trkpt lat="45.21896" lon="5.99433">
        <ele>1405.8</ele>
        <time>2022-01-16T13:17:42Z</time>
      </trkpt>
      <trkpt lat="45.219" lon="5.99443">
        <ele>1404.4</ele>
        <time>2022-01-16T13:17:43Z</time>
      </trkpt>
      <trkpt lat="45.21905" lon="5.99453">
        <ele>1405.8</ele>
        <time>2022-01-16T13:17:44Z</time>
      </trkpt>
      <trkpt lat="45.2191" lon="5.99461">
        <ele>1400.8</ele>
        <time>2022-01-16T13:17:45Z</time>
      </trkpt>
      <trkpt lat="45.21915" lon="5.99479">
        <ele>1399.6</ele>
        <time>2022-01-16T13:17:47Z</time>
      </trkpt>
      <trkpt lat="45.21919" lon="5.99485">
        <ele>1399.6</ele>
        <time>2022-01-16T13:17:48Z</time>
      </trkpt>
      <trkpt lat="45.21922" lon="5.9949">
        <ele>1399.6</ele>
        <time>2022-01-16T13:17:49Z</time>
      </trkpt>
      <trkpt lat="45.2193" lon="5.995">
        <ele>1399</ele>
        <time>2022-01-16T13:17:52Z</time>
      </trkpt>
      <trkpt lat="45.21947" lon="5.99512">
        <ele>1399.6</ele>
        <time>2022-01-16T13:17:58Z</time>
      </trkpt>
      <trkpt lat="45.21956" lon="5.99524">
        <ele>1400.4</ele>
        <time>2022-01-16T13:18:03Z</time>
      </trkpt>
      <trkpt lat="45.21961" lon="5.99536">
        <ele>1400.6</ele>
        <time>2022-01-16T13:18:08Z</time>
      </trkpt>
      <trkpt lat="45.21963" lon="5.99538">
        <ele>1400.8</ele>
        <time>2022-01-16T13:18:09Z</time>
      </trkpt>
      <trkpt lat="45.21976" lon="5.99552">
        <ele>1400.4</ele>
        <time>2022-01-16T13:18:15Z</time>
      </trkpt>
      <trkpt lat="45.21994" lon="5.99562">
        <ele>1399.6</ele>
        <time>2022-01-16T13:18:20Z</time>
      </trkpt>
      <trkpt lat="45.22005" lon="5.99567">
        <ele>1397.8</ele>
        <time>2022-01-16T13:18:22Z</time>
      </trkpt>
      <trkpt lat="45.22018" lon="5.99571">
        <ele>1397.4</ele>
        <time>2022-01-16T13:18:24Z</time>
      </trkpt>
      <trkpt lat="45.22026" lon="5.99573">
        <ele>1395.6</ele>
        <time>2022-01-16T13:18:25Z</time>
      </trkpt>
      <trkpt lat="45.2204" lon="5.99577">
        <ele>1393.4</ele>
        <time>2022-01-16T13:18:27Z</time>
      </trkpt>
      <trkpt lat="45.22049" lon="5.99579">
        <ele>1391.8</ele>
        <time>2022-01-16T13:18:28Z</time>
      </trkpt>
      <trkpt lat="45.22057" lon="5.99581">
        <ele>1391.6</ele>
        <time>2022-01-16T13:18:29Z</time>
      </trkpt>
      <trkpt lat="45.22073" lon="5.99587">
        <ele>1391</ele>
        <time>2022-01-16T13:18:31Z</time>
      </trkpt>
      <trkpt lat="45.2208" lon="5.99592">
        <ele>1389.4</ele>
        <time>2022-01-16T13:18:32Z</time>
      </trkpt>
      <trkpt lat="45.22086" lon="5.99597">
        <ele>1389</ele>
        <time>2022-01-16T13:18:33Z</time>
      </trkpt>
      <trkpt lat="45.2209" lon="5.99604">
        <ele>1388.2</ele>
        <time>2022-01-16T13:18:34Z</time>
      </trkpt>
      <trkpt lat="45.22094" lon="5.99612">
        <ele>1387.6</ele>
        <time>2022-01-16T13:18:35Z</time>
      </trkpt>
      <trkpt lat="45.22096" lon="5.99617">
        <ele>1386.4</ele>
        <time>2022-01-16T13:18:36Z</time>
      </trkpt>
      <trkpt lat="45.22106" lon="5.9964">
        <ele>1385.2</ele>
        <time>2022-01-16T13:18:40Z</time>
      </trkpt>
      <trkpt lat="45.22108" lon="5.99643">
        <ele>1384.6</ele>
        <time>2022-01-16T13:18:41Z</time>
      </trkpt>
      <trkpt lat="45.22111" lon="5.99647">
        <ele>1384.4</ele>
        <time>2022-01-16T13:18:42Z</time>
      </trkpt>
      <trkpt lat="45.22114" lon="5.99648">
        <ele>1384</ele>
        <time>2022-01-16T13:18:43Z</time>
      </trkpt>
      <trkpt lat="45.22117" lon="5.99649">
        <ele>1384</ele>
        <time>2022-01-16T13:18:44Z</time>
      </trkpt>
      <trkpt lat="45.2212" lon="5.99649">
        <ele>1383.2</ele>
        <time>2022-01-16T13:18:45Z</time>
      </trkpt>
      <trkpt lat="45.22123" lon="5.99648">
        <ele>1381.4</ele>
        <time>2022-01-16T13:18:46Z</time>
      </trkpt>
      <trkpt lat="45.22125" lon="5.99648">
        <ele>1380</ele>
        <time>2022-01-16T13:18:47Z</time>
      </trkpt>
      <trkpt lat="45.22126" lon="5.99649">
        <ele>1379.4</ele>
        <time>2022-01-16T13:18:48Z</time>
      </trkpt>
      <trkpt lat="45.22128" lon="5.99651">
        <ele>1379.2</ele>
        <time>2022-01-16T13:18:50Z</time>
      </trkpt>
      <trkpt lat="45.22129" lon="5.99652">
        <ele>1378.6</ele>
        <time>2022-01-16T13:18:51Z</time>
      </trkpt>
      <trkpt lat="45.22132" lon="5.99654">
        <ele>1377</ele>
        <time>2022-01-16T13:18:53Z</time>
      </trkpt>
      <trkpt lat="45.22134" lon="5.99655">
        <ele>1376.8</ele>
        <time>2022-01-16T13:18:54Z</time>
      </trkpt>
      <trkpt lat="45.22134" lon="5.99655">
        <ele>1376.8</ele>
        <time>2022-01-16T13:18:55Z</time>
      </trkpt>
      <trkpt lat="45.22137" lon="5.99653">
        <ele>1376.4</ele>
        <time>2022-01-16T13:19:00Z</time>
      </trkpt>
      <trkpt lat="45.22138" lon="5.99655">
        <ele>1375.8</ele>
        <time>2022-01-16T13:19:02Z</time>
      </trkpt>
      <trkpt lat="45.22139" lon="5.99656">
        <ele>1375.6</ele>
        <time>2022-01-16T13:19:04Z</time>
      </trkpt>
      <trkpt lat="45.22141" lon="5.99656">
        <ele>1375.4</ele>
        <time>2022-01-16T13:19:05Z</time>
      </trkpt>
      <trkpt lat="45.22142" lon="5.99657">
        <ele>1374.8</ele>
        <time>2022-01-16T13:19:06Z</time>
      </trkpt>
      <trkpt lat="45.22144" lon="5.99657">
        <ele>1373.8</ele>
        <time>2022-01-16T13:19:08Z</time>
      </trkpt>
      <trkpt lat="45.22144" lon="5.99656">
        <ele>1373.6</ele>
        <time>2022-01-16T13:19:09Z</time>
      </trkpt>
      <trkpt lat="45.22146" lon="5.99655">
        <ele>1372.4</ele>
        <time>2022-01-16T13:19:15Z</time>
      </trkpt>
      <trkpt lat="45.22147" lon="5.99655">
        <ele>1372.2</ele>
        <time>2022-01-16T13:19:16Z</time>
      </trkpt>
      <trkpt lat="45.22149" lon="5.99655">
        <ele>1371.4</ele>
        <time>2022-01-16T13:19:18Z</time>
      </trkpt>
      <trkpt lat="45.22152" lon="5.99654">
        <ele>1370.8</ele>
        <time>2022-01-16T13:19:21Z</time>
      </trkpt>
      <trkpt lat="45.22152" lon="5.99654">
        <ele>1370.6</ele>
        <time>2022-01-16T13:19:22Z</time>
      </trkpt>
      <trkpt lat="45.22152" lon="5.99654">
        <ele>1370.4</ele>
        <time>2022-01-16T13:19:24Z</time>
      </trkpt>
      <trkpt lat="45.22151" lon="5.99653">
        <ele>1370</ele>
        <time>2022-01-16T13:19:27Z</time>
      </trkpt>
      <trkpt lat="45.22154" lon="5.9965">
        <ele>1369.4</ele>
        <time>2022-01-16T13:19:32Z</time>
      </trkpt>
      <trkpt lat="45.22155" lon="5.9965">
        <ele>1368.8</ele>
        <time>2022-01-16T13:19:33Z</time>
      </trkpt>
      <trkpt lat="45.22158" lon="5.99648">
        <ele>1368</ele>
        <time>2022-01-16T13:19:39Z</time>
      </trkpt>
      <trkpt lat="45.22158" lon="5.99648">
        <ele>1368</ele>
        <time>2022-01-16T13:19:40Z</time>
      </trkpt>
      <trkpt lat="45.22159" lon="5.99648">
        <ele>1367.6</ele>
        <time>2022-01-16T13:19:41Z</time>
      </trkpt>
      <trkpt lat="45.22162" lon="5.99646">
        <ele>1367</ele>
        <time>2022-01-16T13:19:46Z</time>
      </trkpt>
      <trkpt lat="45.22162" lon="5.99646">
        <ele>1366.6</ele>
        <time>2022-01-16T13:19:47Z</time>
      </trkpt>
      <trkpt lat="45.22163" lon="5.99641">
        <ele>1365</ele>
        <time>2022-01-16T13:19:52Z</time>
      </trkpt>
      <trkpt lat="45.22163" lon="5.99642">
        <ele>1364.4</ele>
        <time>2022-01-16T13:19:53Z</time>
      </trkpt>
      <trkpt lat="45.22163" lon="5.99644">
        <ele>1363.6</ele>
        <time>2022-01-16T13:19:55Z</time>
      </trkpt>
      <trkpt lat="45.22165" lon="5.99644">
        <ele>1363.4</ele>
        <time>2022-01-16T13:19:58Z</time>
      </trkpt>
      <trkpt lat="45.22166" lon="5.99646">
        <ele>1362.8</ele>
        <time>2022-01-16T13:20:02Z</time>
      </trkpt>
      <trkpt lat="45.22166" lon="5.99647">
        <ele>1362.6</ele>
        <time>2022-01-16T13:20:05Z</time>
      </trkpt>
      <trkpt lat="45.22167" lon="5.99647">
        <ele>1362.2</ele>
        <time>2022-01-16T13:20:07Z</time>
      </trkpt>
      <trkpt lat="45.22167" lon="5.99646">
        <ele>1362.2</ele>
        <time>2022-01-16T13:20:08Z</time>
      </trkpt>
      <trkpt lat="45.22166" lon="5.99645">
        <ele>1362.2</ele>
        <time>2022-01-16T13:20:11Z</time>
      </trkpt>
      <trkpt lat="45.22165" lon="5.99647">
        <ele>1362.2</ele>
        <time>2022-01-16T13:20:14Z</time>
      </trkpt>
      <trkpt lat="45.22164" lon="5.99647">
        <ele>1362.2</ele>
        <time>2022-01-16T13:20:15Z</time>
      </trkpt>
      <trkpt lat="45.22163" lon="5.99648">
        <ele>1362.2</ele>
        <time>2022-01-16T13:20:16Z</time>
      </trkpt>
      <trkpt lat="45.22163" lon="5.99648">
        <ele>1362</ele>
        <time>2022-01-16T13:20:22Z</time>
      </trkpt>
      <trkpt lat="45.22163" lon="5.99648">
        <ele>1362</ele>
        <time>2022-01-16T13:20:25Z</time>
      </trkpt>
      <trkpt lat="45.22163" lon="5.99648">
        <ele>1362.2</ele>
        <time>2022-01-16T13:20:31Z</time>
      </trkpt>
      <trkpt lat="45.22163" lon="5.99649">
        <ele>1362</ele>
        <time>2022-01-16T13:20:34Z</time>
      </trkpt>
      <trkpt lat="45.22163" lon="5.99649">
        <ele>1361.6</ele>
        <time>2022-01-16T13:20:36Z</time>
      </trkpt>
      <trkpt lat="45.22163" lon="5.99649">
        <ele>1361</ele>
        <time>2022-01-16T13:20:37Z</time>
      </trkpt>
      <trkpt lat="45.22167" lon="5.99645">
        <ele>1360.2</ele>
        <time>2022-01-16T13:20:40Z</time>
      </trkpt>
      <trkpt lat="45.22169" lon="5.99644">
        <ele>1359.8</ele>
        <time>2022-01-16T13:20:41Z</time>
      </trkpt>
      <trkpt lat="45.22174" lon="5.99639">
        <ele>1358.2</ele>
        <time>2022-01-16T13:20:44Z</time>
      </trkpt>
      <trkpt lat="45.22177" lon="5.99635">
        <ele>1357.6</ele>
        <time>2022-01-16T13:20:46Z</time>
      </trkpt>
      <trkpt lat="45.22179" lon="5.99633">
        <ele>1357.4</ele>
        <time>2022-01-16T13:20:47Z</time>
      </trkpt>
      <trkpt lat="45.22181" lon="5.99632">
        <ele>1356.6</ele>
        <time>2022-01-16T13:20:48Z</time>
      </trkpt>
      <trkpt lat="45.22183" lon="5.99632">
        <ele>1355.4</ele>
        <time>2022-01-16T13:20:49Z</time>
      </trkpt>
      <trkpt lat="45.22186" lon="5.9963">
        <ele>1354.6</ele>
        <time>2022-01-16T13:20:51Z</time>
      </trkpt>
      <trkpt lat="45.22188" lon="5.9963">
        <ele>1354</ele>
        <time>2022-01-16T13:20:52Z</time>
      </trkpt>
      <trkpt lat="45.22192" lon="5.99629">
        <ele>1353</ele>
        <time>2022-01-16T13:20:54Z</time>
      </trkpt>
      <trkpt lat="45.22195" lon="5.9963">
        <ele>1351.6</ele>
        <time>2022-01-16T13:20:56Z</time>
      </trkpt>
      <trkpt lat="45.22198" lon="5.9963">
        <ele>1350.8</ele>
        <time>2022-01-16T13:20:58Z</time>
      </trkpt>
      <trkpt lat="45.222" lon="5.9963">
        <ele>1350.4</ele>
        <time>2022-01-16T13:20:59Z</time>
      </trkpt>
      <trkpt lat="45.22201" lon="5.9963">
        <ele>1349.4</ele>
        <time>2022-01-16T13:21:00Z</time>
      </trkpt>
      <trkpt lat="45.22205" lon="5.99631">
        <ele>1348.4</ele>
        <time>2022-01-16T13:21:02Z</time>
      </trkpt>
      <trkpt lat="45.22207" lon="5.99631">
        <ele>1347.8</ele>
        <time>2022-01-16T13:21:03Z</time>
      </trkpt>
      <trkpt lat="45.22211" lon="5.9963">
        <ele>1346.8</ele>
        <time>2022-01-16T13:21:05Z</time>
      </trkpt>
      <trkpt lat="45.22215" lon="5.99633">
        <ele>1345.6</ele>
        <time>2022-01-16T13:21:08Z</time>
      </trkpt>
      <trkpt lat="45.22219" lon="5.99634">
        <ele>1344.6</ele>
        <time>2022-01-16T13:21:10Z</time>
      </trkpt>
      <trkpt lat="45.2222" lon="5.99635">
        <ele>1344</ele>
        <time>2022-01-16T13:21:11Z</time>
      </trkpt>
      <trkpt lat="45.22222" lon="5.99635">
        <ele>1342.6</ele>
        <time>2022-01-16T13:21:13Z</time>
      </trkpt>
      <trkpt lat="45.22223" lon="5.99634">
        <ele>1342</ele>
        <time>2022-01-16T13:21:15Z</time>
      </trkpt>
      <trkpt lat="45.22227" lon="5.99635">
        <ele>1340.8</ele>
        <time>2022-01-16T13:21:17Z</time>
      </trkpt>
      <trkpt lat="45.22229" lon="5.99636">
        <ele>1340.8</ele>
        <time>2022-01-16T13:21:18Z</time>
      </trkpt>
      <trkpt lat="45.22232" lon="5.99638">
        <ele>1339.8</ele>
        <time>2022-01-16T13:21:20Z</time>
      </trkpt>
      <trkpt lat="45.22233" lon="5.99638">
        <ele>1339.6</ele>
        <time>2022-01-16T13:21:21Z</time>
      </trkpt>
      <trkpt lat="45.22238" lon="5.99635">
        <ele>1337.8</ele>
        <time>2022-01-16T13:21:24Z</time>
      </trkpt>
      <trkpt lat="45.22239" lon="5.99633">
        <ele>1337.8</ele>
        <time>2022-01-16T13:21:25Z</time>
      </trkpt>
      <trkpt lat="45.22242" lon="5.99631">
        <ele>1336.2</ele>
        <time>2022-01-16T13:21:28Z</time>
      </trkpt>
      <trkpt lat="45.22244" lon="5.9963">
        <ele>1335.2</ele>
        <time>2022-01-16T13:21:32Z</time>
      </trkpt>
      <trkpt lat="45.22245" lon="5.99629">
        <ele>1334.6</ele>
        <time>2022-01-16T13:21:33Z</time>
      </trkpt>
      <trkpt lat="45.22245" lon="5.99628">
        <ele>1334</ele>
        <time>2022-01-16T13:21:34Z</time>
      </trkpt>
      <trkpt lat="45.22248" lon="5.99626">
        <ele>1333.4</ele>
        <time>2022-01-16T13:21:39Z</time>
      </trkpt>
      <trkpt lat="45.22248" lon="5.99626">
        <ele>1333.2</ele>
        <time>2022-01-16T13:21:41Z</time>
      </trkpt>
      <trkpt lat="45.22248" lon="5.99626">
        <ele>1333.2</ele>
        <time>2022-01-16T13:21:42Z</time>
      </trkpt>
      <trkpt lat="45.22249" lon="5.99626">
        <ele>1333.2</ele>
        <time>2022-01-16T13:21:44Z</time>
      </trkpt>
      <trkpt lat="45.22249" lon="5.99626">
        <ele>1333.2</ele>
        <time>2022-01-16T13:21:46Z</time>
      </trkpt>
      <trkpt lat="45.22251" lon="5.99628">
        <ele>1333.2</ele>
        <time>2022-01-16T13:21:48Z</time>
      </trkpt>
      <trkpt lat="45.22251" lon="5.99627">
        <ele>1333.2</ele>
        <time>2022-01-16T13:21:50Z</time>
      </trkpt>
      <trkpt lat="45.22252" lon="5.99627">
        <ele>1333.2</ele>
        <time>2022-01-16T13:21:52Z</time>
      </trkpt>
      <trkpt lat="45.22253" lon="5.99626">
        <ele>1333</ele>
        <time>2022-01-16T13:21:54Z</time>
      </trkpt>
      <trkpt lat="45.22253" lon="5.99625">
        <ele>1332.6</ele>
        <time>2022-01-16T13:21:55Z</time>
      </trkpt>
      <trkpt lat="45.22254" lon="5.99623">
        <ele>1331.2</ele>
        <time>2022-01-16T13:21:56Z</time>
      </trkpt>
      <trkpt lat="45.22255" lon="5.99621">
        <ele>1331</ele>
        <time>2022-01-16T13:21:57Z</time>
      </trkpt>
      <trkpt lat="45.22256" lon="5.99617">
        <ele>1330.4</ele>
        <time>2022-01-16T13:21:59Z</time>
      </trkpt>
      <trkpt lat="45.22257" lon="5.99615">
        <ele>1329</ele>
        <time>2022-01-16T13:22:00Z</time>
      </trkpt>
      <trkpt lat="45.22258" lon="5.9961">
        <ele>1328.4</ele>
        <time>2022-01-16T13:22:02Z</time>
      </trkpt>
      <trkpt lat="45.22258" lon="5.99608">
        <ele>1327.6</ele>
        <time>2022-01-16T13:22:03Z</time>
      </trkpt>
      <trkpt lat="45.2226" lon="5.99601">
        <ele>1326</ele>
        <time>2022-01-16T13:22:06Z</time>
      </trkpt>
      <trkpt lat="45.22262" lon="5.99599">
        <ele>1324.6</ele>
        <time>2022-01-16T13:22:07Z</time>
      </trkpt>
      <trkpt lat="45.22263" lon="5.99597">
        <ele>1324.6</ele>
        <time>2022-01-16T13:22:08Z</time>
      </trkpt>
      <trkpt lat="45.22266" lon="5.99591">
        <ele>1323.4</ele>
        <time>2022-01-16T13:22:11Z</time>
      </trkpt>
      <trkpt lat="45.22268" lon="5.99589">
        <ele>1322.2</ele>
        <time>2022-01-16T13:22:13Z</time>
      </trkpt>
      <trkpt lat="45.2227" lon="5.99587">
        <ele>1321.2</ele>
        <time>2022-01-16T13:22:15Z</time>
      </trkpt>
      <trkpt lat="45.22271" lon="5.99586">
        <ele>1320.8</ele>
        <time>2022-01-16T13:22:16Z</time>
      </trkpt>
      <trkpt lat="45.22274" lon="5.99582">
        <ele>1320.2</ele>
        <time>2022-01-16T13:22:18Z</time>
      </trkpt>
      <trkpt lat="45.22275" lon="5.99582">
        <ele>1319.2</ele>
        <time>2022-01-16T13:22:19Z</time>
      </trkpt>
      <trkpt lat="45.22276" lon="5.99581">
        <ele>1319</ele>
        <time>2022-01-16T13:22:20Z</time>
      </trkpt>
      <trkpt lat="45.22278" lon="5.99578">
        <ele>1318.6</ele>
        <time>2022-01-16T13:22:22Z</time>
      </trkpt>
      <trkpt lat="45.22281" lon="5.99577">
        <ele>1317.6</ele>
        <time>2022-01-16T13:22:24Z</time>
      </trkpt>
      <trkpt lat="45.22282" lon="5.99577">
        <ele>1317.2</ele>
        <time>2022-01-16T13:22:25Z</time>
      </trkpt>
      <trkpt lat="45.22283" lon="5.99575">
        <ele>1316.2</ele>
        <time>2022-01-16T13:22:26Z</time>
      </trkpt>
      <trkpt lat="45.22284" lon="5.99573">
        <ele>1315.4</ele>
        <time>2022-01-16T13:22:29Z</time>
      </trkpt>
      <trkpt lat="45.22284" lon="5.99574">
        <ele>1315.4</ele>
        <time>2022-01-16T13:22:30Z</time>
      </trkpt>
      <trkpt lat="45.22284" lon="5.99572">
        <ele>1315.2</ele>
        <time>2022-01-16T13:22:33Z</time>
      </trkpt>
      <trkpt lat="45.22284" lon="5.99571">
        <ele>1315</ele>
        <time>2022-01-16T13:22:35Z</time>
      </trkpt>
      <trkpt lat="45.22285" lon="5.99569">
        <ele>1315.2</ele>
        <time>2022-01-16T13:22:41Z</time>
      </trkpt>
      <trkpt lat="45.22285" lon="5.99569">
        <ele>1315</ele>
        <time>2022-01-16T13:22:42Z</time>
      </trkpt>
      <trkpt lat="45.22285" lon="5.99569">
        <ele>1315</ele>
        <time>2022-01-16T13:22:48Z</time>
      </trkpt>
      <trkpt lat="45.22285" lon="5.99569">
        <ele>1315</ele>
        <time>2022-01-16T13:22:54Z</time>
      </trkpt>
      <trkpt lat="45.22285" lon="5.99569">
        <ele>1315</ele>
        <time>2022-01-16T13:22:57Z</time>
      </trkpt>
      <trkpt lat="45.22285" lon="5.99569">
        <ele>1315.2</ele>
        <time>2022-01-16T13:23:01Z</time>
      </trkpt>
      <trkpt lat="45.22285" lon="5.99569">
        <ele>1315</ele>
        <time>2022-01-16T13:23:07Z</time>
      </trkpt>
      <trkpt lat="45.22285" lon="5.99569">
        <ele>1315</ele>
        <time>2022-01-16T13:23:08Z</time>
      </trkpt>
      <trkpt lat="45.22286" lon="5.99569">
        <ele>1315.2</ele>
        <time>2022-01-16T13:23:10Z</time>
      </trkpt>
      <trkpt lat="45.22286" lon="5.9957">
        <ele>1315.4</ele>
        <time>2022-01-16T13:23:15Z</time>
      </trkpt>
      <trkpt lat="45.2229" lon="5.9957">
        <ele>1314</ele>
        <time>2022-01-16T13:23:18Z</time>
      </trkpt>
      <trkpt lat="45.22306" lon="5.99577">
        <ele>1311</ele>
        <time>2022-01-16T13:23:21Z</time>
      </trkpt>
      <trkpt lat="45.22311" lon="5.99579">
        <ele>1309.6</ele>
        <time>2022-01-16T13:23:22Z</time>
      </trkpt>
      <trkpt lat="45.22316" lon="5.99582">
        <ele>1308.2</ele>
        <time>2022-01-16T13:23:23Z</time>
      </trkpt>
      <trkpt lat="45.22326" lon="5.99586">
        <ele>1306.6</ele>
        <time>2022-01-16T13:23:25Z</time>
      </trkpt>
      <trkpt lat="45.22333" lon="5.99591">
        <ele>1305.8</ele>
        <time>2022-01-16T13:23:26Z</time>
      </trkpt>
      <trkpt lat="45.22339" lon="5.99597">
        <ele>1305.2</ele>
        <time>2022-01-16T13:23:27Z</time>
      </trkpt>
      <trkpt lat="45.22353" lon="5.99617">
        <ele>1303.8</ele>
        <time>2022-01-16T13:23:30Z</time>
      </trkpt>
      <trkpt lat="45.22358" lon="5.99621">
        <ele>1302.2</ele>
        <time>2022-01-16T13:23:31Z</time>
      </trkpt>
      <trkpt lat="45.22362" lon="5.99626">
        <ele>1302</ele>
        <time>2022-01-16T13:23:32Z</time>
      </trkpt>
      <trkpt lat="45.22376" lon="5.99643">
        <ele>1301.8</ele>
        <time>2022-01-16T13:23:36Z</time>
      </trkpt>
      <trkpt lat="45.22381" lon="5.99649">
        <ele>1301.6</ele>
        <time>2022-01-16T13:23:38Z</time>
      </trkpt>
      <trkpt lat="45.22387" lon="5.99654">
        <ele>1301.4</ele>
        <time>2022-01-16T13:23:40Z</time>
      </trkpt>
      <trkpt lat="45.22405" lon="5.99657">
        <ele>1300.8</ele>
        <time>2022-01-16T13:23:44Z</time>
      </trkpt>
      <trkpt lat="45.22414" lon="5.99654">
        <ele>1300</ele>
        <time>2022-01-16T13:23:46Z</time>
      </trkpt>
      <trkpt lat="45.22418" lon="5.99651">
        <ele>1299.2</ele>
        <time>2022-01-16T13:23:47Z</time>
      </trkpt>
      <trkpt lat="45.22422" lon="5.99648">
        <ele>1299.2</ele>
        <time>2022-01-16T13:23:48Z</time>
      </trkpt>
      <trkpt lat="45.22425" lon="5.99645">
        <ele>1299</ele>
        <time>2022-01-16T13:23:49Z</time>
      </trkpt>
      <trkpt lat="45.22431" lon="5.99639">
        <ele>1298.8</ele>
        <time>2022-01-16T13:23:51Z</time>
      </trkpt>
      <trkpt lat="45.22435" lon="5.99634">
        <ele>1298.6</ele>
        <time>2022-01-16T13:23:53Z</time>
      </trkpt>
      <trkpt lat="45.22445" lon="5.99617">
        <ele>1298.8</ele>
        <time>2022-01-16T13:23:59Z</time>
      </trkpt>
      <trkpt lat="45.22454" lon="5.99596">
        <ele>1299.2</ele>
        <time>2022-01-16T13:24:05Z</time>
      </trkpt>
      <trkpt lat="45.22456" lon="5.99593">
        <ele>1299.2</ele>
        <time>2022-01-16T13:24:06Z</time>
      </trkpt>
      <trkpt lat="45.22462" lon="5.99575">
        <ele>1299.2</ele>
        <time>2022-01-16T13:24:11Z</time>
      </trkpt>
      <trkpt lat="45.22471" lon="5.99554">
        <ele>1298.4</ele>
        <time>2022-01-16T13:24:17Z</time>
      </trkpt>
      <trkpt lat="45.22477" lon="5.99545">
        <ele>1298.8</ele>
        <time>2022-01-16T13:24:22Z</time>
      </trkpt>
      <trkpt lat="45.22483" lon="5.9953">
        <ele>1299.8</ele>
        <time>2022-01-16T13:24:28Z</time>
      </trkpt>
      <trkpt lat="45.22484" lon="5.99528">
        <ele>1299.8</ele>
        <time>2022-01-16T13:24:29Z</time>
      </trkpt>
      <trkpt lat="45.2249" lon="5.99514">
        <ele>1300</ele>
        <time>2022-01-16T13:24:34Z</time>
      </trkpt>
      <trkpt lat="45.22491" lon="5.99511">
        <ele>1300.2</ele>
        <time>2022-01-16T13:24:35Z</time>
      </trkpt>
      <trkpt lat="45.22492" lon="5.99508">
        <ele>1300.6</ele>
        <time>2022-01-16T13:24:36Z</time>
      </trkpt>
      <trkpt lat="45.22497" lon="5.99495">
        <ele>1301.6</ele>
        <time>2022-01-16T13:24:41Z</time>
      </trkpt>
      <trkpt lat="45.22499" lon="5.99487">
        <ele>1301.6</ele>
        <time>2022-01-16T13:24:43Z</time>
      </trkpt>
      <trkpt lat="45.22501" lon="5.99479">
        <ele>1301.6</ele>
        <time>2022-01-16T13:24:45Z</time>
      </trkpt>
      <trkpt lat="45.22503" lon="5.99472">
        <ele>1302</ele>
        <time>2022-01-16T13:24:48Z</time>
      </trkpt>
      <trkpt lat="45.22503" lon="5.99465">
        <ele>1302.2</ele>
        <time>2022-01-16T13:24:50Z</time>
      </trkpt>
      <trkpt lat="45.22501" lon="5.99446">
        <ele>1302.4</ele>
        <time>2022-01-16T13:24:55Z</time>
      </trkpt>
      <trkpt lat="45.22505" lon="5.99417">
        <ele>1302.6</ele>
        <time>2022-01-16T13:25:01Z</time>
      </trkpt>
      <trkpt lat="45.2252" lon="5.99397">
        <ele>1301.8</ele>
        <time>2022-01-16T13:25:07Z</time>
      </trkpt>
      <trkpt lat="45.22526" lon="5.9939">
        <ele>1301.8</ele>
        <time>2022-01-16T13:25:09Z</time>
      </trkpt>
      <trkpt lat="45.22546" lon="5.99382">
        <ele>1301.6</ele>
        <time>2022-01-16T13:25:15Z</time>
      </trkpt>
      <trkpt lat="45.2255" lon="5.99382">
        <ele>1301.6</ele>
        <time>2022-01-16T13:25:16Z</time>
      </trkpt>
      <trkpt lat="45.2257" lon="5.99384">
        <ele>1301</ele>
        <time>2022-01-16T13:25:21Z</time>
      </trkpt>
      <trkpt lat="45.22585" lon="5.99386">
        <ele>1300.6</ele>
        <time>2022-01-16T13:25:25Z</time>
      </trkpt>
      <trkpt lat="45.2259" lon="5.99386">
        <ele>1300.6</ele>
        <time>2022-01-16T13:25:27Z</time>
      </trkpt>
      <trkpt lat="45.226" lon="5.99387">
        <ele>1301.6</ele>
        <time>2022-01-16T13:25:32Z</time>
      </trkpt>
      <trkpt lat="45.22602" lon="5.99387">
        <ele>1301.6</ele>
        <time>2022-01-16T13:25:33Z</time>
      </trkpt>
      <trkpt lat="45.22615" lon="5.9939">
        <ele>1301.8</ele>
        <time>2022-01-16T13:25:38Z</time>
      </trkpt>
      <trkpt lat="45.22623" lon="5.99392">
        <ele>1302</ele>
        <time>2022-01-16T13:25:42Z</time>
      </trkpt>
      <trkpt lat="45.22625" lon="5.99392">
        <ele>1302.2</ele>
        <time>2022-01-16T13:25:43Z</time>
      </trkpt>
      <trkpt lat="45.22627" lon="5.99393">
        <ele>1302.2</ele>
        <time>2022-01-16T13:25:44Z</time>
      </trkpt>
      <trkpt lat="45.22635" lon="5.99399">
        <ele>1302.4</ele>
        <time>2022-01-16T13:25:48Z</time>
      </trkpt>
      <trkpt lat="45.22649" lon="5.99401">
        <ele>1302.4</ele>
        <time>2022-01-16T13:25:54Z</time>
      </trkpt>
      <trkpt lat="45.22652" lon="5.99401">
        <ele>1302.4</ele>
        <time>2022-01-16T13:25:55Z</time>
      </trkpt>
      <trkpt lat="45.22659" lon="5.99399">
        <ele>1302.6</ele>
        <time>2022-01-16T13:25:58Z</time>
      </trkpt>
      <trkpt lat="45.22663" lon="5.994">
        <ele>1302.8</ele>
        <time>2022-01-16T13:26:00Z</time>
      </trkpt>
      <trkpt lat="45.22676" lon="5.99396">
        <ele>1303.2</ele>
        <time>2022-01-16T13:26:06Z</time>
      </trkpt>
      <trkpt lat="45.22696" lon="5.99389">
        <ele>1301.8</ele>
        <time>2022-01-16T13:26:11Z</time>
      </trkpt>
      <trkpt lat="45.227" lon="5.99386">
        <ele>1301.6</ele>
        <time>2022-01-16T13:26:12Z</time>
      </trkpt>
      <trkpt lat="45.22713" lon="5.99376">
        <ele>1300.4</ele>
        <time>2022-01-16T13:26:15Z</time>
      </trkpt>
      <trkpt lat="45.22723" lon="5.99367">
        <ele>1299.2</ele>
        <time>2022-01-16T13:26:17Z</time>
      </trkpt>
      <trkpt lat="45.22733" lon="5.99358">
        <ele>1298.2</ele>
        <time>2022-01-16T13:26:19Z</time>
      </trkpt>
      <trkpt lat="45.22748" lon="5.9934">
        <ele>1296.8</ele>
        <time>2022-01-16T13:26:22Z</time>
      </trkpt>
      <trkpt lat="45.22753" lon="5.99334">
        <ele>1296.4</ele>
        <time>2022-01-16T13:26:23Z</time>
      </trkpt>
      <trkpt lat="45.22765" lon="5.9932">
        <ele>1294.8</ele>
        <time>2022-01-16T13:26:25Z</time>
      </trkpt>
      <trkpt lat="45.22784" lon="5.99301">
        <ele>1293.6</ele>
        <time>2022-01-16T13:26:28Z</time>
      </trkpt>
      <trkpt lat="45.22798" lon="5.9929">
        <ele>1292.8</ele>
        <time>2022-01-16T13:26:30Z</time>
      </trkpt>
      <trkpt lat="45.22805" lon="5.99286">
        <ele>1291</ele>
        <time>2022-01-16T13:26:31Z</time>
      </trkpt>
      <trkpt lat="45.22813" lon="5.99281">
        <ele>1290</ele>
        <time>2022-01-16T13:26:32Z</time>
      </trkpt>
      <trkpt lat="45.22834" lon="5.99262">
        <ele>1288.4</ele>
        <time>2022-01-16T13:26:35Z</time>
      </trkpt>
      <trkpt lat="45.22841" lon="5.99254">
        <ele>1287.8</ele>
        <time>2022-01-16T13:26:36Z</time>
      </trkpt>
      <trkpt lat="45.22847" lon="5.99247">
        <ele>1286</ele>
        <time>2022-01-16T13:26:37Z</time>
      </trkpt>
      <trkpt lat="45.22866" lon="5.99225">
        <ele>1283.8</ele>
        <time>2022-01-16T13:26:40Z</time>
      </trkpt>
      <trkpt lat="45.22879" lon="5.99207">
        <ele>1282.2</ele>
        <time>2022-01-16T13:26:42Z</time>
      </trkpt>
      <trkpt lat="45.22885" lon="5.99199">
        <ele>1280.4</ele>
        <time>2022-01-16T13:26:43Z</time>
      </trkpt>
      <trkpt lat="45.22891" lon="5.9919">
        <ele>1278.6</ele>
        <time>2022-01-16T13:26:44Z</time>
      </trkpt>
      <trkpt lat="45.22898" lon="5.99182">
        <ele>1278.4</ele>
        <time>2022-01-16T13:26:45Z</time>
      </trkpt>
      <trkpt lat="45.22904" lon="5.99174">
        <ele>1277.2</ele>
        <time>2022-01-16T13:26:46Z</time>
      </trkpt>
      <trkpt lat="45.22911" lon="5.99167">
        <ele>1277</ele>
        <time>2022-01-16T13:26:47Z</time>
      </trkpt>
      <trkpt lat="45.22918" lon="5.99162">
        <ele>1275.8</ele>
        <time>2022-01-16T13:26:48Z</time>
      </trkpt>
      <trkpt lat="45.22927" lon="5.9916">
        <ele>1275.2</ele>
        <time>2022-01-16T13:26:49Z</time>
      </trkpt>
      <trkpt lat="45.22935" lon="5.99159">
        <ele>1275</ele>
        <time>2022-01-16T13:26:50Z</time>
      </trkpt>
      <trkpt lat="45.22944" lon="5.9916">
        <ele>1274.2</ele>
        <time>2022-01-16T13:26:51Z</time>
      </trkpt>
      <trkpt lat="45.22952" lon="5.99161">
        <ele>1271.8</ele>
        <time>2022-01-16T13:26:52Z</time>
      </trkpt>
      <trkpt lat="45.22961" lon="5.9916">
        <ele>1269.8</ele>
        <time>2022-01-16T13:26:53Z</time>
      </trkpt>
      <trkpt lat="45.2297" lon="5.99157">
        <ele>1268.8</ele>
        <time>2022-01-16T13:26:54Z</time>
      </trkpt>
      <trkpt lat="45.22979" lon="5.99153">
        <ele>1268.2</ele>
        <time>2022-01-16T13:26:55Z</time>
      </trkpt>
      <trkpt lat="45.22988" lon="5.99149">
        <ele>1267.6</ele>
        <time>2022-01-16T13:26:56Z</time>
      </trkpt>
      <trkpt lat="45.22996" lon="5.99144">
        <ele>1267.6</ele>
        <time>2022-01-16T13:26:57Z</time>
      </trkpt>
      <trkpt lat="45.23014" lon="5.99138">
        <ele>1266</ele>
        <time>2022-01-16T13:26:59Z</time>
      </trkpt>
      <trkpt lat="45.23023" lon="5.99134">
        <ele>1264.4</ele>
        <time>2022-01-16T13:27:00Z</time>
      </trkpt>
      <trkpt lat="45.23032" lon="5.99131">
        <ele>1264.2</ele>
        <time>2022-01-16T13:27:01Z</time>
      </trkpt>
      <trkpt lat="45.23041" lon="5.99127">
        <ele>1263.2</ele>
        <time>2022-01-16T13:27:02Z</time>
      </trkpt>
      <trkpt lat="45.2305" lon="5.99123">
        <ele>1263.2</ele>
        <time>2022-01-16T13:27:03Z</time>
      </trkpt>
      <trkpt lat="45.23061" lon="5.99119">
        <ele>1261.4</ele>
        <time>2022-01-16T13:27:04Z</time>
      </trkpt>
      <trkpt lat="45.23068" lon="5.99115">
        <ele>1261</ele>
        <time>2022-01-16T13:27:05Z</time>
      </trkpt>
      <trkpt lat="45.23078" lon="5.99111">
        <ele>1260.2</ele>
        <time>2022-01-16T13:27:06Z</time>
      </trkpt>
      <trkpt lat="45.23086" lon="5.99108">
        <ele>1259.6</ele>
        <time>2022-01-16T13:27:07Z</time>
      </trkpt>
      <trkpt lat="45.23095" lon="5.99105">
        <ele>1258.8</ele>
        <time>2022-01-16T13:27:08Z</time>
      </trkpt>
      <trkpt lat="45.23104" lon="5.99101">
        <ele>1256.6</ele>
        <time>2022-01-16T13:27:09Z</time>
      </trkpt>
      <trkpt lat="45.23112" lon="5.99095">
        <ele>1256</ele>
        <time>2022-01-16T13:27:10Z</time>
      </trkpt>
      <trkpt lat="45.2312" lon="5.99089">
        <ele>1255.6</ele>
        <time>2022-01-16T13:27:11Z</time>
      </trkpt>
      <trkpt lat="45.23127" lon="5.9908">
        <ele>1254</ele>
        <time>2022-01-16T13:27:12Z</time>
      </trkpt>
      <trkpt lat="45.23133" lon="5.9907">
        <ele>1252.6</ele>
        <time>2022-01-16T13:27:13Z</time>
      </trkpt>
      <trkpt lat="45.23137" lon="5.99059">
        <ele>1251.8</ele>
        <time>2022-01-16T13:27:14Z</time>
      </trkpt>
      <trkpt lat="45.23141" lon="5.99047">
        <ele>1250</ele>
        <time>2022-01-16T13:27:15Z</time>
      </trkpt>
      <trkpt lat="45.23144" lon="5.99035">
        <ele>1249.8</ele>
        <time>2022-01-16T13:27:16Z</time>
      </trkpt>
      <trkpt lat="45.23151" lon="5.99011">
        <ele>1247.4</ele>
        <time>2022-01-16T13:27:18Z</time>
      </trkpt>
      <trkpt lat="45.23155" lon="5.99001">
        <ele>1245.6</ele>
        <time>2022-01-16T13:27:19Z</time>
      </trkpt>
      <trkpt lat="45.23164" lon="5.98981">
        <ele>1244.2</ele>
        <time>2022-01-16T13:27:21Z</time>
      </trkpt>
      <trkpt lat="45.2317" lon="5.98972">
        <ele>1242.4</ele>
        <time>2022-01-16T13:27:22Z</time>
      </trkpt>
      <trkpt lat="45.23175" lon="5.98963">
        <ele>1241</ele>
        <time>2022-01-16T13:27:23Z</time>
      </trkpt>
      <trkpt lat="45.2318" lon="5.98953">
        <ele>1240</ele>
        <time>2022-01-16T13:27:24Z</time>
      </trkpt>
      <trkpt lat="45.23184" lon="5.98944">
        <ele>1239.6</ele>
        <time>2022-01-16T13:27:25Z</time>
      </trkpt>
      <trkpt lat="45.23187" lon="5.98936">
        <ele>1238.6</ele>
        <time>2022-01-16T13:27:26Z</time>
      </trkpt>
      <trkpt lat="45.23195" lon="5.98922">
        <ele>1237</ele>
        <time>2022-01-16T13:27:28Z</time>
      </trkpt>
      <trkpt lat="45.23198" lon="5.98917">
        <ele>1235.6</ele>
        <time>2022-01-16T13:27:29Z</time>
      </trkpt>
      <trkpt lat="45.232" lon="5.98911">
        <ele>1234.4</ele>
        <time>2022-01-16T13:27:30Z</time>
      </trkpt>
      <trkpt lat="45.23202" lon="5.98906">
        <ele>1233.2</ele>
        <time>2022-01-16T13:27:31Z</time>
      </trkpt>
      <trkpt lat="45.23206" lon="5.98899">
        <ele>1232.6</ele>
        <time>2022-01-16T13:27:33Z</time>
      </trkpt>
      <trkpt lat="45.23212" lon="5.98895">
        <ele>1232</ele>
        <time>2022-01-16T13:27:35Z</time>
      </trkpt>
      <trkpt lat="45.23219" lon="5.98891">
        <ele>1231.6</ele>
        <time>2022-01-16T13:27:37Z</time>
      </trkpt>
      <trkpt lat="45.23221" lon="5.98887">
        <ele>1230.6</ele>
        <time>2022-01-16T13:27:39Z</time>
      </trkpt>
      <trkpt lat="45.23221" lon="5.98887">
        <ele>1230.6</ele>
        <time>2022-01-16T13:27:40Z</time>
      </trkpt>
      <trkpt lat="45.23221" lon="5.98886">
        <ele>1230.6</ele>
        <time>2022-01-16T13:27:42Z</time>
      </trkpt>
      <trkpt lat="45.2322" lon="5.98886">
        <ele>1230.4</ele>
        <time>2022-01-16T13:27:45Z</time>
      </trkpt>
    </trkseg>
  </trk>
</gpx>